<?xml version="1.0" encoding="UTF-8"?><gpx creator="Wikiloc - http://www.wikiloc.com" version="1.1" xmlns="http://www.topografix.com/GPX/1/1" xmlns:xsi="http://www.w3.org/2001/XMLSchema-instance" xsi:schemaLocation="http://www.topografix.com/GPX/1/1 http://www.topografix.com/GPX/1/1/gpx.xsd"><trk><name><![CDATA[4° Argilers Bike Race 10/5/2026 Campredó XC Rally]]></name><cmt><![CDATA[Ruta circular desde Campredó pasando por: 
- Ermita del Coll de l'Alba (12.3 km) 
- Torre de Campredó (41.6 km)]]></cmt><desc><![CDATA[Ruta circular desde Campredó pasando por: 
- Ermita del Coll de l'Alba (12.3 km) 
- Torre de Campredó (41.6 km)]]></desc><trkseg><trkpt lat="40.762004" lon=".552907"><ele>17.047</ele><time>2026-04-17T08:01:20Z</time></trkpt><trkpt lat="40.761961" lon=".55288"><ele>18.229</ele><time>2026-04-17T08:01:21Z</time></trkpt><trkpt lat="40.761925" lon=".552855"><ele>18.221</ele><time>2026-04-17T08:01:27Z</time></trkpt><trkpt lat="40.76189" lon=".552831"><ele>18.409</ele><time>2026-04-17T08:01:28Z</time></trkpt><trkpt lat="40.76186" lon=".552797"><ele>18.266</ele><time>2026-04-17T08:01:29Z</time></trkpt><trkpt lat="40.761833" lon=".552759"><ele>18.220</ele><time>2026-04-17T08:01:30Z</time></trkpt><trkpt lat="40.761804" lon=".55272"><ele>16.444</ele><time>2026-04-17T08:01:31Z</time></trkpt><trkpt lat="40.761775" lon=".552684"><ele>17.697</ele><time>2026-04-17T08:01:32Z</time></trkpt><trkpt lat="40.761745" lon=".552652"><ele>18.058</ele><time>2026-04-17T08:01:33Z</time></trkpt><trkpt lat="40.761716" lon=".552621"><ele>18.294</ele><time>2026-04-17T08:01:34Z</time></trkpt><trkpt lat="40.761666" lon=".552559"><ele>18.455</ele><time>2026-04-17T08:01:36Z</time></trkpt><trkpt lat="40.761639" lon=".552524"><ele>18.443</ele><time>2026-04-17T08:01:37Z</time></trkpt><trkpt lat="40.761586" lon=".552451"><ele>18.851</ele><time>2026-04-17T08:01:39Z</time></trkpt><trkpt lat="40.761552" lon=".552367"><ele>19.055</ele><time>2026-04-17T08:01:41Z</time></trkpt><trkpt lat="40.761515" lon=".552283"><ele>19.207</ele><time>2026-04-17T08:01:43Z</time></trkpt><trkpt lat="40.761497" lon=".552243"><ele>19.217</ele><time>2026-04-17T08:01:44Z</time></trkpt><trkpt lat="40.761481" lon=".552201"><ele>19.209</ele><time>2026-04-17T08:01:45Z</time></trkpt><trkpt lat="40.761467" lon=".55216"><ele>19.437</ele><time>2026-04-17T08:01:46Z</time></trkpt><trkpt lat="40.761461" lon=".552114"><ele>19.451</ele><time>2026-04-17T08:01:47Z</time></trkpt><trkpt lat="40.761469" lon=".552069"><ele>19.455</ele><time>2026-04-17T08:01:48Z</time></trkpt><trkpt lat="40.761485" lon=".552029"><ele>19.428</ele><time>2026-04-17T08:01:49Z</time></trkpt><trkpt lat="40.761509" lon=".551993"><ele>19.459</ele><time>2026-04-17T08:01:50Z</time></trkpt><trkpt lat="40.761601" lon=".551844"><ele>19.895</ele><time>2026-04-17T08:01:54Z</time></trkpt><trkpt lat="40.761683" lon=".551724"><ele>20.096</ele><time>2026-04-17T08:01:57Z</time></trkpt><trkpt lat="40.761741" lon=".551629"><ele>20.014</ele><time>2026-04-17T08:01:59Z</time></trkpt><trkpt lat="40.761865" lon=".551439"><ele>20.092</ele><time>2026-04-17T08:02:03Z</time></trkpt><trkpt lat="40.761968" lon=".551288"><ele>20.023</ele><time>2026-04-17T08:02:06Z</time></trkpt><trkpt lat="40.762069" lon=".551143"><ele>19.883</ele><time>2026-04-17T08:02:09Z</time></trkpt><trkpt lat="40.762151" lon=".55106"><ele>19.811</ele><time>2026-04-17T08:02:11Z</time></trkpt><trkpt lat="40.762248" lon=".551003"><ele>19.609</ele><time>2026-04-17T08:02:13Z</time></trkpt><trkpt lat="40.762361" lon=".550955"><ele>19.654</ele><time>2026-04-17T08:02:15Z</time></trkpt><trkpt lat="40.762463" lon=".550865"><ele>19.448</ele><time>2026-04-17T08:02:17Z</time></trkpt><trkpt lat="40.762508" lon=".550804"><ele>19.412</ele><time>2026-04-17T08:02:18Z</time></trkpt><trkpt lat="40.76255" lon=".550738"><ele>19.045</ele><time>2026-04-17T08:02:19Z</time></trkpt><trkpt lat="40.762596" lon=".550672"><ele>18.866</ele><time>2026-04-17T08:02:20Z</time></trkpt><trkpt lat="40.762699" lon=".550541"><ele>17.852</ele><time>2026-04-17T08:02:22Z</time></trkpt><trkpt lat="40.762806" lon=".550405"><ele>17.033</ele><time>2026-04-17T08:02:24Z</time></trkpt><trkpt lat="40.762864" lon=".550337"><ele>16.611</ele><time>2026-04-17T08:02:25Z</time></trkpt><trkpt lat="40.762975" lon=".550192"><ele>15.689</ele><time>2026-04-17T08:02:27Z</time></trkpt><trkpt lat="40.763028" lon=".550115"><ele>15.295</ele><time>2026-04-17T08:02:28Z</time></trkpt><trkpt lat="40.763107" lon=".549935"><ele>14.449</ele><time>2026-04-17T08:02:30Z</time></trkpt><trkpt lat="40.763118" lon=".549833"><ele>14.023</ele><time>2026-04-17T08:02:31Z</time></trkpt><trkpt lat="40.763103" lon=".549735"><ele>13.809</ele><time>2026-04-17T08:02:32Z</time></trkpt><trkpt lat="40.763067" lon=".549643"><ele>13.481</ele><time>2026-04-17T08:02:33Z</time></trkpt><trkpt lat="40.763021" lon=".54956"><ele>13.285</ele><time>2026-04-17T08:02:34Z</time></trkpt><trkpt lat="40.762967" lon=".549484"><ele>12.899</ele><time>2026-04-17T08:02:35Z</time></trkpt><trkpt lat="40.762911" lon=".549407"><ele>12.832</ele><time>2026-04-17T08:02:36Z</time></trkpt><trkpt lat="40.762853" lon=".54933"><ele>12.673</ele><time>2026-04-17T08:02:37Z</time></trkpt><trkpt lat="40.762792" lon=".549249"><ele>12.469</ele><time>2026-04-17T08:02:38Z</time></trkpt><trkpt lat="40.762677" lon=".549081"><ele>11.090</ele><time>2026-04-17T08:02:40Z</time></trkpt><trkpt lat="40.762557" lon=".548907"><ele>9.878</ele><time>2026-04-17T08:02:42Z</time></trkpt><trkpt lat="40.762496" lon=".548821"><ele>9.886</ele><time>2026-04-17T08:02:43Z</time></trkpt><trkpt lat="40.762436" lon=".548737"><ele>8.851</ele><time>2026-04-17T08:02:44Z</time></trkpt><trkpt lat="40.762376" lon=".548654"><ele>8.001</ele><time>2026-04-17T08:02:45Z</time></trkpt><trkpt lat="40.762321" lon=".548569"><ele>7.011</ele><time>2026-04-17T08:02:46Z</time></trkpt><trkpt lat="40.762275" lon=".548482"><ele>6.609</ele><time>2026-04-17T08:02:47Z</time></trkpt><trkpt lat="40.762244" lon=".548385"><ele>6.047</ele><time>2026-04-17T08:02:48Z</time></trkpt><trkpt lat="40.76223" lon=".548284"><ele>5.621</ele><time>2026-04-17T08:02:49Z</time></trkpt><trkpt lat="40.762232" lon=".548184"><ele>5.625</ele><time>2026-04-17T08:02:50Z</time></trkpt><trkpt lat="40.762253" lon=".548094"><ele>5.618</ele><time>2026-04-17T08:02:51Z</time></trkpt><trkpt lat="40.762298" lon=".548021"><ele>5.689</ele><time>2026-04-17T08:02:52Z</time></trkpt><trkpt lat="40.762355" lon=".547962"><ele>5.685</ele><time>2026-04-17T08:02:53Z</time></trkpt><trkpt lat="40.762417" lon=".547913"><ele>5.636</ele><time>2026-04-17T08:02:54Z</time></trkpt><trkpt lat="40.762479" lon=".547869"><ele>5.894</ele><time>2026-04-17T08:02:55Z</time></trkpt><trkpt lat="40.762539" lon=".547825"><ele>5.892</ele><time>2026-04-17T08:02:56Z</time></trkpt><trkpt lat="40.762597" lon=".547782"><ele>6.046</ele><time>2026-04-17T08:02:57Z</time></trkpt><trkpt lat="40.762656" lon=".547738"><ele>6.288</ele><time>2026-04-17T08:02:58Z</time></trkpt><trkpt lat="40.762713" lon=".547695"><ele>6.216</ele><time>2026-04-17T08:02:59Z</time></trkpt><trkpt lat="40.762769" lon=".547653"><ele>6.409</ele><time>2026-04-17T08:03:00Z</time></trkpt><trkpt lat="40.762825" lon=".547614"><ele>6.466</ele><time>2026-04-17T08:03:01Z</time></trkpt><trkpt lat="40.762884" lon=".547574"><ele>6.460</ele><time>2026-04-17T08:03:02Z</time></trkpt><trkpt lat="40.762942" lon=".547534"><ele>6.484</ele><time>2026-04-17T08:03:03Z</time></trkpt><trkpt lat="40.762999" lon=".547492"><ele>6.437</ele><time>2026-04-17T08:03:04Z</time></trkpt><trkpt lat="40.763057" lon=".547449"><ele>6.478</ele><time>2026-04-17T08:03:05Z</time></trkpt><trkpt lat="40.763113" lon=".547403"><ele>6.694</ele><time>2026-04-17T08:03:06Z</time></trkpt><trkpt lat="40.763169" lon=".54736"><ele>6.665</ele><time>2026-04-17T08:03:07Z</time></trkpt><trkpt lat="40.763224" lon=".547315"><ele>6.833</ele><time>2026-04-17T08:03:08Z</time></trkpt><trkpt lat="40.763582" lon=".547084"><ele>7.021</ele><time>2026-04-17T08:03:14Z</time></trkpt><trkpt lat="40.764061" lon=".546726"><ele>7.237</ele><time>2026-04-17T08:03:22Z</time></trkpt><trkpt lat="40.764185" lon=".546629"><ele>7.249</ele><time>2026-04-17T08:03:24Z</time></trkpt><trkpt lat="40.764683" lon=".546245"><ele>6.613</ele><time>2026-04-17T08:03:32Z</time></trkpt><trkpt lat="40.764745" lon=".5462"><ele>6.609</ele><time>2026-04-17T08:03:33Z</time></trkpt><trkpt lat="40.764865" lon=".546114"><ele>6.615</ele><time>2026-04-17T08:03:35Z</time></trkpt><trkpt lat="40.764924" lon=".546071"><ele>6.819</ele><time>2026-04-17T08:03:36Z</time></trkpt><trkpt lat="40.764984" lon=".546026"><ele>6.873</ele><time>2026-04-17T08:03:37Z</time></trkpt><trkpt lat="40.765042" lon=".545984"><ele>7.076</ele><time>2026-04-17T08:03:38Z</time></trkpt><trkpt lat="40.7651" lon=".545941"><ele>7.067</ele><time>2026-04-17T08:03:39Z</time></trkpt><trkpt lat="40.765158" lon=".5459"><ele>7.053</ele><time>2026-04-17T08:03:40Z</time></trkpt><trkpt lat="40.765216" lon=".545857"><ele>7.244</ele><time>2026-04-17T08:03:41Z</time></trkpt><trkpt lat="40.765273" lon=".545812"><ele>7.262</ele><time>2026-04-17T08:03:42Z</time></trkpt><trkpt lat="40.765332" lon=".545767"><ele>7.290</ele><time>2026-04-17T08:03:43Z</time></trkpt><trkpt lat="40.765389" lon=".545722"><ele>7.472</ele><time>2026-04-17T08:03:44Z</time></trkpt><trkpt lat="40.765445" lon=".545676"><ele>7.413</ele><time>2026-04-17T08:03:45Z</time></trkpt><trkpt lat="40.765924" lon=".545307"><ele>7.214</ele><time>2026-04-17T08:03:53Z</time></trkpt><trkpt lat="40.765985" lon=".54526"><ele>7.209</ele><time>2026-04-17T08:03:54Z</time></trkpt><trkpt lat="40.766338" lon=".544992"><ele>6.649</ele><time>2026-04-17T08:04:00Z</time></trkpt><trkpt lat="40.766396" lon=".544949"><ele>6.623</ele><time>2026-04-17T08:04:01Z</time></trkpt><trkpt lat="40.766454" lon=".544907"><ele>6.457</ele><time>2026-04-17T08:04:02Z</time></trkpt><trkpt lat="40.766512" lon=".544866"><ele>6.410</ele><time>2026-04-17T08:04:03Z</time></trkpt><trkpt lat="40.76657" lon=".544824"><ele>6.431</ele><time>2026-04-17T08:04:04Z</time></trkpt><trkpt lat="40.766796" lon=".544646"><ele>6.467</ele><time>2026-04-17T08:04:08Z</time></trkpt><trkpt lat="40.76685" lon=".544602"><ele>6.218</ele><time>2026-04-17T08:04:09Z</time></trkpt><trkpt lat="40.766906" lon=".544556"><ele>6.266</ele><time>2026-04-17T08:04:10Z</time></trkpt><trkpt lat="40.767143" lon=".544379"><ele>6.264</ele><time>2026-04-17T08:04:14Z</time></trkpt><trkpt lat="40.767665" lon=".543986"><ele>5.899</ele><time>2026-04-17T08:04:23Z</time></trkpt><trkpt lat="40.767722" lon=".543943"><ele>5.807</ele><time>2026-04-17T08:04:24Z</time></trkpt><trkpt lat="40.768245" lon=".543538"><ele>6.227</ele><time>2026-04-17T08:04:33Z</time></trkpt><trkpt lat="40.768302" lon=".543491"><ele>6.209</ele><time>2026-04-17T08:04:34Z</time></trkpt><trkpt lat="40.7688" lon=".543053"><ele>5.621</ele><time>2026-04-17T08:04:43Z</time></trkpt><trkpt lat="40.768852" lon=".543004"><ele>5.685</ele><time>2026-04-17T08:04:44Z</time></trkpt><trkpt lat="40.769327" lon=".542516"><ele>5.859</ele><time>2026-04-17T08:04:53Z</time></trkpt><trkpt lat="40.769775" lon=".541988"><ele>6.052</ele><time>2026-04-17T08:05:02Z</time></trkpt><trkpt lat="40.770201" lon=".541428"><ele>6.293</ele><time>2026-04-17T08:05:11Z</time></trkpt><trkpt lat="40.770287" lon=".5413"><ele>6.489</ele><time>2026-04-17T08:05:13Z</time></trkpt><trkpt lat="40.770376" lon=".541174"><ele>6.680</ele><time>2026-04-17T08:05:15Z</time></trkpt><trkpt lat="40.770419" lon=".541112"><ele>6.698</ele><time>2026-04-17T08:05:16Z</time></trkpt><trkpt lat="40.77046" lon=".541051"><ele>6.636</ele><time>2026-04-17T08:05:17Z</time></trkpt><trkpt lat="40.7705" lon=".540988"><ele>6.637</ele><time>2026-04-17T08:05:18Z</time></trkpt><trkpt lat="40.770537" lon=".540922"><ele>6.649</ele><time>2026-04-17T08:05:19Z</time></trkpt><trkpt lat="40.770575" lon=".540862"><ele>6.613</ele><time>2026-04-17T08:05:20Z</time></trkpt><trkpt lat="40.770614" lon=".540803"><ele>6.609</ele><time>2026-04-17T08:05:21Z</time></trkpt><trkpt lat="40.770653" lon=".540747"><ele>6.885</ele><time>2026-04-17T08:05:22Z</time></trkpt><trkpt lat="40.770692" lon=".540689"><ele>6.889</ele><time>2026-04-17T08:05:23Z</time></trkpt><trkpt lat="40.770729" lon=".540631"><ele>7.053</ele><time>2026-04-17T08:05:24Z</time></trkpt><trkpt lat="40.770768" lon=".540571"><ele>7.216</ele><time>2026-04-17T08:05:25Z</time></trkpt><trkpt lat="40.770807" lon=".540512"><ele>7.297</ele><time>2026-04-17T08:05:26Z</time></trkpt><trkpt lat="40.770846" lon=".540455"><ele>7.223</ele><time>2026-04-17T08:05:27Z</time></trkpt><trkpt lat="40.770885" lon=".540397"><ele>7.234</ele><time>2026-04-17T08:05:28Z</time></trkpt><trkpt lat="40.771207" lon=".539908"><ele>7.612</ele><time>2026-04-17T08:05:36Z</time></trkpt><trkpt lat="40.771247" lon=".539848"><ele>7.630</ele><time>2026-04-17T08:05:37Z</time></trkpt><trkpt lat="40.77155" lon=".539399"><ele>7.867</ele><time>2026-04-17T08:05:45Z</time></trkpt><trkpt lat="40.771584" lon=".539357"><ele>7.881</ele><time>2026-04-17T08:05:46Z</time></trkpt><trkpt lat="40.771636" lon=".539296"><ele>7.819</ele><time>2026-04-17T08:05:47Z</time></trkpt><trkpt lat="40.771674" lon=".539259"><ele>7.809</ele><time>2026-04-17T08:05:48Z</time></trkpt><trkpt lat="40.771792" lon=".539177"><ele>7.848</ele><time>2026-04-17T08:05:50Z</time></trkpt><trkpt lat="40.771852" lon=".539153"><ele>7.872</ele><time>2026-04-17T08:05:51Z</time></trkpt><trkpt lat="40.771972" lon=".539107"><ele>7.856</ele><time>2026-04-17T08:05:53Z</time></trkpt><trkpt lat="40.772081" lon=".539019"><ele>7.829</ele><time>2026-04-17T08:05:55Z</time></trkpt><trkpt lat="40.772127" lon=".538958"><ele>7.820</ele><time>2026-04-17T08:05:56Z</time></trkpt><trkpt lat="40.772161" lon=".538904"><ele>7.616</ele><time>2026-04-17T08:05:57Z</time></trkpt><trkpt lat="40.772207" lon=".53884"><ele>7.447</ele><time>2026-04-17T08:05:58Z</time></trkpt><trkpt lat="40.772256" lon=".538782"><ele>7.465</ele><time>2026-04-17T08:05:59Z</time></trkpt><trkpt lat="40.772375" lon=".538664"><ele>7.473</ele><time>2026-04-17T08:06:01Z</time></trkpt><trkpt lat="40.772741" lon=".538353"><ele>8.072</ele><time>2026-04-17T08:06:08Z</time></trkpt><trkpt lat="40.772792" lon=".538321"><ele>8.213</ele><time>2026-04-17T08:06:09Z</time></trkpt><trkpt lat="40.772843" lon=".538293"><ele>8.614</ele><time>2026-04-17T08:06:10Z</time></trkpt><trkpt lat="40.772894" lon=".538271"><ele>8.809</ele><time>2026-04-17T08:06:11Z</time></trkpt><trkpt lat="40.772938" lon=".538263"><ele>9.619</ele><time>2026-04-17T08:06:12Z</time></trkpt><trkpt lat="40.773004" lon=".538259"><ele>10.283</ele><time>2026-04-17T08:06:13Z</time></trkpt><trkpt lat="40.7731" lon=".538269"><ele>11.657</ele><time>2026-04-17T08:06:15Z</time></trkpt><trkpt lat="40.773163" lon=".538283"><ele>12.430</ele><time>2026-04-17T08:06:16Z</time></trkpt><trkpt lat="40.773215" lon=".538305"><ele>13.081</ele><time>2026-04-17T08:06:17Z</time></trkpt><trkpt lat="40.773266" lon=".538327"><ele>13.497</ele><time>2026-04-17T08:06:18Z</time></trkpt><trkpt lat="40.773316" lon=".538354"><ele>14.498</ele><time>2026-04-17T08:06:19Z</time></trkpt><trkpt lat="40.773364" lon=".538381"><ele>14.626</ele><time>2026-04-17T08:06:20Z</time></trkpt><trkpt lat="40.773406" lon=".538403"><ele>15.024</ele><time>2026-04-17T08:06:21Z</time></trkpt><trkpt lat="40.773469" lon=".538431"><ele>15.231</ele><time>2026-04-17T08:06:22Z</time></trkpt><trkpt lat="40.773514" lon=".538447"><ele>15.261</ele><time>2026-04-17T08:06:23Z</time></trkpt><trkpt lat="40.773568" lon=".538465"><ele>15.407</ele><time>2026-04-17T08:06:24Z</time></trkpt><trkpt lat="40.773637" lon=".538483"><ele>15.409</ele><time>2026-04-17T08:06:25Z</time></trkpt><trkpt lat="40.773698" lon=".538492"><ele>15.415</ele><time>2026-04-17T08:06:26Z</time></trkpt><trkpt lat="40.773763" lon=".538491"><ele>15.429</ele><time>2026-04-17T08:06:27Z</time></trkpt><trkpt lat="40.77383" lon=".538478"><ele>15.453</ele><time>2026-04-17T08:06:28Z</time></trkpt><trkpt lat="40.773898" lon=".538455"><ele>15.466</ele><time>2026-04-17T08:06:29Z</time></trkpt><trkpt lat="40.77395" lon=".538424"><ele>15.027</ele><time>2026-04-17T08:06:30Z</time></trkpt><trkpt lat="40.774029" lon=".538364"><ele>14.823</ele><time>2026-04-17T08:06:31Z</time></trkpt><trkpt lat="40.774095" lon=".538298"><ele>14.674</ele><time>2026-04-17T08:06:32Z</time></trkpt><trkpt lat="40.774147" lon=".538236"><ele>14.282</ele><time>2026-04-17T08:06:33Z</time></trkpt><trkpt lat="40.774222" lon=".538138"><ele>13.660</ele><time>2026-04-17T08:06:34Z</time></trkpt><trkpt lat="40.774283" lon=".53805"><ele>13.223</ele><time>2026-04-17T08:06:35Z</time></trkpt><trkpt lat="40.774331" lon=".537977"><ele>12.283</ele><time>2026-04-17T08:06:36Z</time></trkpt><trkpt lat="40.774392" lon=".537886"><ele>11.211</ele><time>2026-04-17T08:06:37Z</time></trkpt><trkpt lat="40.774452" lon=".537803"><ele>10.609</ele><time>2026-04-17T08:06:38Z</time></trkpt><trkpt lat="40.774516" lon=".537721"><ele>9.494</ele><time>2026-04-17T08:06:39Z</time></trkpt><trkpt lat="40.774565" lon=".537682"><ele>9.038</ele><time>2026-04-17T08:06:40Z</time></trkpt><trkpt lat="40.774603" lon=".537657"><ele>8.872</ele><time>2026-04-17T08:06:41Z</time></trkpt><trkpt lat="40.774657" lon=".537626"><ele>8.635</ele><time>2026-04-17T08:06:42Z</time></trkpt><trkpt lat="40.774711" lon=".537594"><ele>8.646</ele><time>2026-04-17T08:06:43Z</time></trkpt><trkpt lat="40.77473" lon=".537573"><ele>8.632</ele><time>2026-04-17T08:06:44Z</time></trkpt><trkpt lat="40.774735" lon=".537558"><ele>8.633</ele><time>2026-04-17T08:06:45Z</time></trkpt><trkpt lat="40.774746" lon=".537537"><ele>8.621</ele><time>2026-04-17T08:06:46Z</time></trkpt><trkpt lat="40.774688" lon=".537593"><ele>8.619</ele><time>2026-04-17T08:06:47Z</time></trkpt><trkpt lat="40.774646" lon=".537646"><ele>8.873</ele><time>2026-04-17T08:06:48Z</time></trkpt><trkpt lat="40.774562" lon=".537753"><ele>9.085</ele><time>2026-04-17T08:06:49Z</time></trkpt><trkpt lat="40.774496" lon=".537853"><ele>9.013</ele><time>2026-04-17T08:06:50Z</time></trkpt><trkpt lat="40.774367" lon=".53807"><ele>9.209</ele><time>2026-04-17T08:06:52Z</time></trkpt><trkpt lat="40.774062" lon=".538485"><ele>8.839</ele><time>2026-04-17T08:06:57Z</time></trkpt><trkpt lat="40.774011" lon=".538532"><ele>8.873</ele><time>2026-04-17T08:06:58Z</time></trkpt><trkpt lat="40.773946" lon=".538578"><ele>8.847</ele><time>2026-04-17T08:06:59Z</time></trkpt><trkpt lat="40.773861" lon=".538615"><ele>8.670</ele><time>2026-04-17T08:07:00Z</time></trkpt><trkpt lat="40.773791" lon=".538636"><ele>8.291</ele><time>2026-04-17T08:07:01Z</time></trkpt><trkpt lat="40.773584" lon=".538668"><ele>8.087</ele><time>2026-04-17T08:07:04Z</time></trkpt><trkpt lat="40.773451" lon=".538667"><ele>8.058</ele><time>2026-04-17T08:07:06Z</time></trkpt><trkpt lat="40.773333" lon=".538663"><ele>8.096</ele><time>2026-04-17T08:07:08Z</time></trkpt><trkpt lat="40.773258" lon=".538669"><ele>8.034</ele><time>2026-04-17T08:07:09Z</time></trkpt><trkpt lat="40.773197" lon=".538686"><ele>8.278</ele><time>2026-04-17T08:07:10Z</time></trkpt><trkpt lat="40.773155" lon=".538706"><ele>8.233</ele><time>2026-04-17T08:07:11Z</time></trkpt><trkpt lat="40.773101" lon=".538739"><ele>8.226</ele><time>2026-04-17T08:07:12Z</time></trkpt><trkpt lat="40.772988" lon=".538807"><ele>8.409</ele><time>2026-04-17T08:07:14Z</time></trkpt><trkpt lat="40.772922" lon=".538855"><ele>8.469</ele><time>2026-04-17T08:07:15Z</time></trkpt><trkpt lat="40.772881" lon=".538888"><ele>8.423</ele><time>2026-04-17T08:07:16Z</time></trkpt><trkpt lat="40.772828" lon=".538927"><ele>8.627</ele><time>2026-04-17T08:07:17Z</time></trkpt><trkpt lat="40.772762" lon=".538979"><ele>8.870</ele><time>2026-04-17T08:07:18Z</time></trkpt><trkpt lat="40.772513" lon=".539192"><ele>9.291</ele><time>2026-04-17T08:07:23Z</time></trkpt><trkpt lat="40.772476" lon=".53923"><ele>9.447</ele><time>2026-04-17T08:07:24Z</time></trkpt><trkpt lat="40.772444" lon=".539264"><ele>9.898</ele><time>2026-04-17T08:07:25Z</time></trkpt><trkpt lat="40.772415" lon=".539293"><ele>10.446</ele><time>2026-04-17T08:07:26Z</time></trkpt><trkpt lat="40.772387" lon=".539321"><ele>10.664</ele><time>2026-04-17T08:07:27Z</time></trkpt><trkpt lat="40.772359" lon=".539353"><ele>11.237</ele><time>2026-04-17T08:07:28Z</time></trkpt><trkpt lat="40.772337" lon=".539379"><ele>12.049</ele><time>2026-04-17T08:07:29Z</time></trkpt><trkpt lat="40.7723" lon=".539416"><ele>12.213</ele><time>2026-04-17T08:07:30Z</time></trkpt><trkpt lat="40.772267" lon=".539456"><ele>13.009</ele><time>2026-04-17T08:07:31Z</time></trkpt><trkpt lat="40.772232" lon=".539503"><ele>13.455</ele><time>2026-04-17T08:07:32Z</time></trkpt><trkpt lat="40.772196" lon=".539558"><ele>14.029</ele><time>2026-04-17T08:07:33Z</time></trkpt><trkpt lat="40.772164" lon=".539619"><ele>14.433</ele><time>2026-04-17T08:07:34Z</time></trkpt><trkpt lat="40.772135" lon=".539684"><ele>15.026</ele><time>2026-04-17T08:07:35Z</time></trkpt><trkpt lat="40.772108" lon=".539751"><ele>15.217</ele><time>2026-04-17T08:07:36Z</time></trkpt><trkpt lat="40.77208" lon=".539819"><ele>15.413</ele><time>2026-04-17T08:07:37Z</time></trkpt><trkpt lat="40.772052" lon=".539885"><ele>15.824</ele><time>2026-04-17T08:07:38Z</time></trkpt><trkpt lat="40.772027" lon=".539952"><ele>16.022</ele><time>2026-04-17T08:07:39Z</time></trkpt><trkpt lat="40.772005" lon=".540017"><ele>16.280</ele><time>2026-04-17T08:07:40Z</time></trkpt><trkpt lat="40.771984" lon=".54008"><ele>16.217</ele><time>2026-04-17T08:07:41Z</time></trkpt><trkpt lat="40.771964" lon=".54014"><ele>16.287</ele><time>2026-04-17T08:07:42Z</time></trkpt><trkpt lat="40.771944" lon=".540201"><ele>16.415</ele><time>2026-04-17T08:07:43Z</time></trkpt><trkpt lat="40.771924" lon=".540263"><ele>16.409</ele><time>2026-04-17T08:07:44Z</time></trkpt><trkpt lat="40.771905" lon=".540324"><ele>16.493</ele><time>2026-04-17T08:07:45Z</time></trkpt><trkpt lat="40.771887" lon=".540386"><ele>16.637</ele><time>2026-04-17T08:07:46Z</time></trkpt><trkpt lat="40.771872" lon=".540444"><ele>16.871</ele><time>2026-04-17T08:07:47Z</time></trkpt><trkpt lat="40.771859" lon=".5405"><ele>17.054</ele><time>2026-04-17T08:07:48Z</time></trkpt><trkpt lat="40.771846" lon=".540559"><ele>17.645</ele><time>2026-04-17T08:07:49Z</time></trkpt><trkpt lat="40.771832" lon=".540617"><ele>17.811</ele><time>2026-04-17T08:07:50Z</time></trkpt><trkpt lat="40.771817" lon=".540676"><ele>18.042</ele><time>2026-04-17T08:07:51Z</time></trkpt><trkpt lat="40.771806" lon=".540736"><ele>18.490</ele><time>2026-04-17T08:07:52Z</time></trkpt><trkpt lat="40.771797" lon=".540795"><ele>19.018</ele><time>2026-04-17T08:07:53Z</time></trkpt><trkpt lat="40.771786" lon=".540857"><ele>19.235</ele><time>2026-04-17T08:07:54Z</time></trkpt><trkpt lat="40.771778" lon=".540919"><ele>19.686</ele><time>2026-04-17T08:07:55Z</time></trkpt><trkpt lat="40.771771" lon=".540983"><ele>19.814</ele><time>2026-04-17T08:07:56Z</time></trkpt><trkpt lat="40.771765" lon=".541045"><ele>20.009</ele><time>2026-04-17T08:07:57Z</time></trkpt><trkpt lat="40.771763" lon=".541107"><ele>20.455</ele><time>2026-04-17T08:07:58Z</time></trkpt><trkpt lat="40.771759" lon=".541171"><ele>20.479</ele><time>2026-04-17T08:07:59Z</time></trkpt><trkpt lat="40.771757" lon=".541221"><ele>20.843</ele><time>2026-04-17T08:08:00Z</time></trkpt><trkpt lat="40.771758" lon=".541297"><ele>21.016</ele><time>2026-04-17T08:08:01Z</time></trkpt><trkpt lat="40.771762" lon=".541361"><ele>21.667</ele><time>2026-04-17T08:08:02Z</time></trkpt><trkpt lat="40.771766" lon=".541424"><ele>22.043</ele><time>2026-04-17T08:08:03Z</time></trkpt><trkpt lat="40.771772" lon=".541476"><ele>22.424</ele><time>2026-04-17T08:08:04Z</time></trkpt><trkpt lat="40.771785" lon=".54155"><ele>22.812</ele><time>2026-04-17T08:08:05Z</time></trkpt><trkpt lat="40.771797" lon=".541613"><ele>23.010</ele><time>2026-04-17T08:08:06Z</time></trkpt><trkpt lat="40.771809" lon=".541662"><ele>23.293</ele><time>2026-04-17T08:08:07Z</time></trkpt><trkpt lat="40.771823" lon=".541723"><ele>23.665</ele><time>2026-04-17T08:08:08Z</time></trkpt><trkpt lat="40.771843" lon=".541795"><ele>24.021</ele><time>2026-04-17T08:08:09Z</time></trkpt><trkpt lat="40.771863" lon=".541853"><ele>24.209</ele><time>2026-04-17T08:08:10Z</time></trkpt><trkpt lat="40.771887" lon=".54191"><ele>24.851</ele><time>2026-04-17T08:08:11Z</time></trkpt><trkpt lat="40.771912" lon=".541963"><ele>25.025</ele><time>2026-04-17T08:08:12Z</time></trkpt><trkpt lat="40.771937" lon=".542019"><ele>25.259</ele><time>2026-04-17T08:08:13Z</time></trkpt><trkpt lat="40.771957" lon=".542063"><ele>25.472</ele><time>2026-04-17T08:08:14Z</time></trkpt><trkpt lat="40.771988" lon=".542128"><ele>25.613</ele><time>2026-04-17T08:08:15Z</time></trkpt><trkpt lat="40.772017" lon=".542184"><ele>26.029</ele><time>2026-04-17T08:08:16Z</time></trkpt><trkpt lat="40.772046" lon=".542238"><ele>26.270</ele><time>2026-04-17T08:08:17Z</time></trkpt><trkpt lat="40.772077" lon=".542291"><ele>26.418</ele><time>2026-04-17T08:08:18Z</time></trkpt><trkpt lat="40.772108" lon=".542342"><ele>26.646</ele><time>2026-04-17T08:08:19Z</time></trkpt><trkpt lat="40.772137" lon=".542393"><ele>27.063</ele><time>2026-04-17T08:08:20Z</time></trkpt><trkpt lat="40.772166" lon=".542443"><ele>27.244</ele><time>2026-04-17T08:08:21Z</time></trkpt><trkpt lat="40.772187" lon=".542485"><ele>27.618</ele><time>2026-04-17T08:08:22Z</time></trkpt><trkpt lat="40.772218" lon=".542548"><ele>27.809</ele><time>2026-04-17T08:08:23Z</time></trkpt><trkpt lat="40.772242" lon=".542601"><ele>28.058</ele><time>2026-04-17T08:08:24Z</time></trkpt><trkpt lat="40.772266" lon=".542656"><ele>28.212</ele><time>2026-04-17T08:08:25Z</time></trkpt><trkpt lat="40.772286" lon=".542714"><ele>28.266</ele><time>2026-04-17T08:08:26Z</time></trkpt><trkpt lat="40.772303" lon=".542776"><ele>28.459</ele><time>2026-04-17T08:08:27Z</time></trkpt><trkpt lat="40.772316" lon=".54284"><ele>28.460</ele><time>2026-04-17T08:08:28Z</time></trkpt><trkpt lat="40.772326" lon=".542905"><ele>28.856</ele><time>2026-04-17T08:08:29Z</time></trkpt><trkpt lat="40.772331" lon=".542971"><ele>29.057</ele><time>2026-04-17T08:08:30Z</time></trkpt><trkpt lat="40.772334" lon=".543024"><ele>29.445</ele><time>2026-04-17T08:08:31Z</time></trkpt><trkpt lat="40.772338" lon=".543093"><ele>29.853</ele><time>2026-04-17T08:08:32Z</time></trkpt><trkpt lat="40.772342" lon=".543175"><ele>29.884</ele><time>2026-04-17T08:08:33Z</time></trkpt><trkpt lat="40.772341" lon=".543243"><ele>30.207</ele><time>2026-04-17T08:08:34Z</time></trkpt><trkpt lat="40.772338" lon=".543297"><ele>30.417</ele><time>2026-04-17T08:08:35Z</time></trkpt><trkpt lat="40.772331" lon=".543365"><ele>30.809</ele><time>2026-04-17T08:08:36Z</time></trkpt><trkpt lat="40.77232" lon=".543432"><ele>31.080</ele><time>2026-04-17T08:08:37Z</time></trkpt><trkpt lat="40.772306" lon=".543511"><ele>31.264</ele><time>2026-04-17T08:08:38Z</time></trkpt><trkpt lat="40.772291" lon=".543576"><ele>31.458</ele><time>2026-04-17T08:08:39Z</time></trkpt><trkpt lat="40.772276" lon=".543628"><ele>31.881</ele><time>2026-04-17T08:08:40Z</time></trkpt><trkpt lat="40.772257" lon=".543692"><ele>32.022</ele><time>2026-04-17T08:08:41Z</time></trkpt><trkpt lat="40.772232" lon=".543769"><ele>32.278</ele><time>2026-04-17T08:08:42Z</time></trkpt><trkpt lat="40.772216" lon=".543814"><ele>32.499</ele><time>2026-04-17T08:08:43Z</time></trkpt><trkpt lat="40.772203" lon=".543874"><ele>32.637</ele><time>2026-04-17T08:08:44Z</time></trkpt><trkpt lat="40.772207" lon=".543923"><ele>32.845</ele><time>2026-04-17T08:08:45Z</time></trkpt><trkpt lat="40.772218" lon=".543955"><ele>32.895</ele><time>2026-04-17T08:08:46Z</time></trkpt><trkpt lat="40.772245" lon=".543954"><ele>33.049</ele><time>2026-04-17T08:08:47Z</time></trkpt><trkpt lat="40.772274" lon=".543928"><ele>33.023</ele><time>2026-04-17T08:08:48Z</time></trkpt><trkpt lat="40.772303" lon=".543884"><ele>33.209</ele><time>2026-04-17T08:08:49Z</time></trkpt><trkpt lat="40.772329" lon=".543833"><ele>33.621</ele><time>2026-04-17T08:08:50Z</time></trkpt><trkpt lat="40.772357" lon=".543781"><ele>33.895</ele><time>2026-04-17T08:08:51Z</time></trkpt><trkpt lat="40.772385" lon=".54373"><ele>34.039</ele><time>2026-04-17T08:08:52Z</time></trkpt><trkpt lat="40.772413" lon=".543681"><ele>34.272</ele><time>2026-04-17T08:08:53Z</time></trkpt><trkpt lat="40.772441" lon=".543631"><ele>34.243</ele><time>2026-04-17T08:08:54Z</time></trkpt><trkpt lat="40.772467" lon=".543582"><ele>34.269</ele><time>2026-04-17T08:08:55Z</time></trkpt><trkpt lat="40.772491" lon=".543535"><ele>34.460</ele><time>2026-04-17T08:08:56Z</time></trkpt><trkpt lat="40.772515" lon=".54349"><ele>34.418</ele><time>2026-04-17T08:08:57Z</time></trkpt><trkpt lat="40.77254" lon=".543443"><ele>34.656</ele><time>2026-04-17T08:08:58Z</time></trkpt><trkpt lat="40.772562" lon=".543393"><ele>35.276</ele><time>2026-04-17T08:08:59Z</time></trkpt><trkpt lat="40.77258" lon=".543339"><ele>35.290</ele><time>2026-04-17T08:09:00Z</time></trkpt><trkpt lat="40.772596" lon=".543283"><ele>35.619</ele><time>2026-04-17T08:09:01Z</time></trkpt><trkpt lat="40.772615" lon=".54322"><ele>35.609</ele><time>2026-04-17T08:09:02Z</time></trkpt><trkpt lat="40.772634" lon=".543151"><ele>35.839</ele><time>2026-04-17T08:09:03Z</time></trkpt><trkpt lat="40.772655" lon=".543082"><ele>35.893</ele><time>2026-04-17T08:09:04Z</time></trkpt><trkpt lat="40.77268" lon=".543012"><ele>35.837</ele><time>2026-04-17T08:09:05Z</time></trkpt><trkpt lat="40.772711" lon=".54294"><ele>35.840</ele><time>2026-04-17T08:09:06Z</time></trkpt><trkpt lat="40.77275" lon=".542871"><ele>35.871</ele><time>2026-04-17T08:09:07Z</time></trkpt><trkpt lat="40.772799" lon=".542812"><ele>35.657</ele><time>2026-04-17T08:09:08Z</time></trkpt><trkpt lat="40.772858" lon=".542771"><ele>35.418</ele><time>2026-04-17T08:09:09Z</time></trkpt><trkpt lat="40.77293" lon=".542749"><ele>35.446</ele><time>2026-04-17T08:09:10Z</time></trkpt><trkpt lat="40.773009" lon=".542755"><ele>35.214</ele><time>2026-04-17T08:09:11Z</time></trkpt><trkpt lat="40.773083" lon=".542793"><ele>34.473</ele><time>2026-04-17T08:09:12Z</time></trkpt><trkpt lat="40.773156" lon=".542847"><ele>34.085</ele><time>2026-04-17T08:09:13Z</time></trkpt><trkpt lat="40.773235" lon=".542904"><ele>33.413</ele><time>2026-04-17T08:09:14Z</time></trkpt><trkpt lat="40.773319" lon=".542962"><ele>33.209</ele><time>2026-04-17T08:09:15Z</time></trkpt><trkpt lat="40.773469" lon=".543055"><ele>31.629</ele><time>2026-04-17T08:09:17Z</time></trkpt><trkpt lat="40.773543" lon=".543067"><ele>30.873</ele><time>2026-04-17T08:09:18Z</time></trkpt><trkpt lat="40.77357" lon=".543041"><ele>29.247</ele><time>2026-04-17T08:09:19Z</time></trkpt><trkpt lat="40.773603" lon=".542985"><ele>28.210</ele><time>2026-04-17T08:09:20Z</time></trkpt><trkpt lat="40.773611" lon=".542922"><ele>27.291</ele><time>2026-04-17T08:09:21Z</time></trkpt><trkpt lat="40.773621" lon=".542831"><ele>26.837</ele><time>2026-04-17T08:09:22Z</time></trkpt><trkpt lat="40.773635" lon=".542709"><ele>26.418</ele><time>2026-04-17T08:09:23Z</time></trkpt><trkpt lat="40.77365" lon=".542595"><ele>26.066</ele><time>2026-04-17T08:09:24Z</time></trkpt><trkpt lat="40.773689" lon=".542371"><ele>24.224</ele><time>2026-04-17T08:09:26Z</time></trkpt><trkpt lat="40.773735" lon=".54224"><ele>23.863</ele><time>2026-04-17T08:09:27Z</time></trkpt><trkpt lat="40.773797" lon=".542157"><ele>21.844</ele><time>2026-04-17T08:09:28Z</time></trkpt><trkpt lat="40.773872" lon=".542089"><ele>21.018</ele><time>2026-04-17T08:09:29Z</time></trkpt><trkpt lat="40.773935" lon=".542036"><ele>19.609</ele><time>2026-04-17T08:09:30Z</time></trkpt><trkpt lat="40.774025" lon=".541946"><ele>19.038</ele><time>2026-04-17T08:09:31Z</time></trkpt><trkpt lat="40.774091" lon=".541859"><ele>17.632</ele><time>2026-04-17T08:09:32Z</time></trkpt><trkpt lat="40.774203" lon=".541698"><ele>16.046</ele><time>2026-04-17T08:09:34Z</time></trkpt><trkpt lat="40.774285" lon=".5415"><ele>15.069</ele><time>2026-04-17T08:09:36Z</time></trkpt><trkpt lat="40.774325" lon=".5414"><ele>14.870</ele><time>2026-04-17T08:09:37Z</time></trkpt><trkpt lat="40.774369" lon=".541303"><ele>14.696</ele><time>2026-04-17T08:09:38Z</time></trkpt><trkpt lat="40.77445" lon=".541116"><ele>14.657</ele><time>2026-04-17T08:09:40Z</time></trkpt><trkpt lat="40.774486" lon=".541025"><ele>14.625</ele><time>2026-04-17T08:09:41Z</time></trkpt><trkpt lat="40.774526" lon=".540919"><ele>14.683</ele><time>2026-04-17T08:09:42Z</time></trkpt><trkpt lat="40.774547" lon=".540847"><ele>14.667</ele><time>2026-04-17T08:09:43Z</time></trkpt><trkpt lat="40.774572" lon=".540756"><ele>14.881</ele><time>2026-04-17T08:09:44Z</time></trkpt><trkpt lat="40.774595" lon=".540648"><ele>15.019</ele><time>2026-04-17T08:09:45Z</time></trkpt><trkpt lat="40.774612" lon=".540562"><ele>15.009</ele><time>2026-04-17T08:09:46Z</time></trkpt><trkpt lat="40.774623" lon=".540478"><ele>15.238</ele><time>2026-04-17T08:09:47Z</time></trkpt><trkpt lat="40.774626" lon=".540413"><ele>16.072</ele><time>2026-04-17T08:09:48Z</time></trkpt><trkpt lat="40.774629" lon=".540336"><ele>16.426</ele><time>2026-04-17T08:09:49Z</time></trkpt><trkpt lat="40.774641" lon=".540253"><ele>16.889</ele><time>2026-04-17T08:09:50Z</time></trkpt><trkpt lat="40.774659" lon=".540192"><ele>17.050</ele><time>2026-04-17T08:09:51Z</time></trkpt><trkpt lat="40.774678" lon=".540147"><ele>17.836</ele><time>2026-04-17T08:09:52Z</time></trkpt><trkpt lat="40.774704" lon=".540091"><ele>18.847</ele><time>2026-04-17T08:09:53Z</time></trkpt><trkpt lat="40.774734" lon=".540023"><ele>19.225</ele><time>2026-04-17T08:09:54Z</time></trkpt><trkpt lat="40.774757" lon=".539965"><ele>19.643</ele><time>2026-04-17T08:09:55Z</time></trkpt><trkpt lat="40.774776" lon=".539916"><ele>20.096</ele><time>2026-04-17T08:09:56Z</time></trkpt><trkpt lat="40.774872" lon=".539702"><ele>20.631</ele><time>2026-04-17T08:09:59Z</time></trkpt><trkpt lat="40.774912" lon=".539634"><ele>20.624</ele><time>2026-04-17T08:10:00Z</time></trkpt><trkpt lat="40.775106" lon=".539328"><ele>20.209</ele><time>2026-04-17T08:10:04Z</time></trkpt><trkpt lat="40.775162" lon=".539243"><ele>19.811</ele><time>2026-04-17T08:10:05Z</time></trkpt><trkpt lat="40.77522" lon=".539155"><ele>19.085</ele><time>2026-04-17T08:10:06Z</time></trkpt><trkpt lat="40.775275" lon=".539059"><ele>18.839</ele><time>2026-04-17T08:10:07Z</time></trkpt><trkpt lat="40.775326" lon=".538962"><ele>17.882</ele><time>2026-04-17T08:10:08Z</time></trkpt><trkpt lat="40.775375" lon=".538869"><ele>17.233</ele><time>2026-04-17T08:10:09Z</time></trkpt><trkpt lat="40.775414" lon=".538799"><ele>16.699</ele><time>2026-04-17T08:10:10Z</time></trkpt><trkpt lat="40.775466" lon=".538712"><ele>15.820</ele><time>2026-04-17T08:10:11Z</time></trkpt><trkpt lat="40.775528" lon=".538605"><ele>15.448</ele><time>2026-04-17T08:10:12Z</time></trkpt><trkpt lat="40.775581" lon=".538507"><ele>15.086</ele><time>2026-04-17T08:10:13Z</time></trkpt><trkpt lat="40.775671" lon=".538293"><ele>14.281</ele><time>2026-04-17T08:10:15Z</time></trkpt><trkpt lat="40.775709" lon=".538182"><ele>14.261</ele><time>2026-04-17T08:10:16Z</time></trkpt><trkpt lat="40.775794" lon=".537967"><ele>13.017</ele><time>2026-04-17T08:10:18Z</time></trkpt><trkpt lat="40.775931" lon=".537651"><ele>11.809</ele><time>2026-04-17T08:10:21Z</time></trkpt><trkpt lat="40.775972" lon=".537545"><ele>11.490</ele><time>2026-04-17T08:10:22Z</time></trkpt><trkpt lat="40.776049" lon=".537335"><ele>10.454</ele><time>2026-04-17T08:10:24Z</time></trkpt><trkpt lat="40.776163" lon=".537037"><ele>9.638</ele><time>2026-04-17T08:10:27Z</time></trkpt><trkpt lat="40.776199" lon=".536942"><ele>9.411</ele><time>2026-04-17T08:10:28Z</time></trkpt><trkpt lat="40.776232" lon=".536847"><ele>9.432</ele><time>2026-04-17T08:10:29Z</time></trkpt><trkpt lat="40.776266" lon=".536753"><ele>9.078</ele><time>2026-04-17T08:10:30Z</time></trkpt><trkpt lat="40.776299" lon=".536663"><ele>9.029</ele><time>2026-04-17T08:10:31Z</time></trkpt><trkpt lat="40.776334" lon=".536578"><ele>9.437</ele><time>2026-04-17T08:10:32Z</time></trkpt><trkpt lat="40.776364" lon=".536493"><ele>9.415</ele><time>2026-04-17T08:10:33Z</time></trkpt><trkpt lat="40.776395" lon=".536411"><ele>9.678</ele><time>2026-04-17T08:10:34Z</time></trkpt><trkpt lat="40.776421" lon=".536332"><ele>9.633</ele><time>2026-04-17T08:10:35Z</time></trkpt><trkpt lat="40.776446" lon=".536259"><ele>9.826</ele><time>2026-04-17T08:10:36Z</time></trkpt><trkpt lat="40.77647" lon=".536192"><ele>9.809</ele><time>2026-04-17T08:10:37Z</time></trkpt><trkpt lat="40.776494" lon=".536132"><ele>9.879</ele><time>2026-04-17T08:10:38Z</time></trkpt><trkpt lat="40.776523" lon=".53609"><ele>10.053</ele><time>2026-04-17T08:10:39Z</time></trkpt><trkpt lat="40.776563" lon=".536068"><ele>10.447</ele><time>2026-04-17T08:10:40Z</time></trkpt><trkpt lat="40.776597" lon=".536068"><ele>10.670</ele><time>2026-04-17T08:10:41Z</time></trkpt><trkpt lat="40.776613" lon=".536089"><ele>11.041</ele><time>2026-04-17T08:10:42Z</time></trkpt><trkpt lat="40.77662" lon=".536116"><ele>11.217</ele><time>2026-04-17T08:10:43Z</time></trkpt><trkpt lat="40.776624" lon=".536153"><ele>12.048</ele><time>2026-04-17T08:10:44Z</time></trkpt><trkpt lat="40.776631" lon=".536196"><ele>12.616</ele><time>2026-04-17T08:10:45Z</time></trkpt><trkpt lat="40.776654" lon=".536312"><ele>13.254</ele><time>2026-04-17T08:10:47Z</time></trkpt><trkpt lat="40.776662" lon=".536382"><ele>13.634</ele><time>2026-04-17T08:10:48Z</time></trkpt><trkpt lat="40.776668" lon=".536614"><ele>14.655</ele><time>2026-04-17T08:10:51Z</time></trkpt><trkpt lat="40.776669" lon=".536675"><ele>14.810</ele><time>2026-04-17T08:10:52Z</time></trkpt><trkpt lat="40.776674" lon=".536758"><ele>15.609</ele><time>2026-04-17T08:10:53Z</time></trkpt><trkpt lat="40.776678" lon=".536827"><ele>16.425</ele><time>2026-04-17T08:10:54Z</time></trkpt><trkpt lat="40.776676" lon=".536883"><ele>16.659</ele><time>2026-04-17T08:10:55Z</time></trkpt><trkpt lat="40.776666" lon=".536965"><ele>17.273</ele><time>2026-04-17T08:10:56Z</time></trkpt><trkpt lat="40.776652" lon=".537031"><ele>17.496</ele><time>2026-04-17T08:10:57Z</time></trkpt><trkpt lat="40.77664" lon=".537096"><ele>18.037</ele><time>2026-04-17T08:10:58Z</time></trkpt><trkpt lat="40.776626" lon=".537161"><ele>18.263</ele><time>2026-04-17T08:10:59Z</time></trkpt><trkpt lat="40.776615" lon=".537211"><ele>19.074</ele><time>2026-04-17T08:11:00Z</time></trkpt><trkpt lat="40.776602" lon=".537281"><ele>19.252</ele><time>2026-04-17T08:11:01Z</time></trkpt><trkpt lat="40.776596" lon=".537341"><ele>19.650</ele><time>2026-04-17T08:11:02Z</time></trkpt><trkpt lat="40.776598" lon=".5374"><ele>20.245</ele><time>2026-04-17T08:11:03Z</time></trkpt><trkpt lat="40.776604" lon=".537458"><ele>20.647</ele><time>2026-04-17T08:11:04Z</time></trkpt><trkpt lat="40.776611" lon=".537505"><ele>21.211</ele><time>2026-04-17T08:11:05Z</time></trkpt><trkpt lat="40.776621" lon=".537552"><ele>21.609</ele><time>2026-04-17T08:11:06Z</time></trkpt><trkpt lat="40.776635" lon=".537596"><ele>22.016</ele><time>2026-04-17T08:11:07Z</time></trkpt><trkpt lat="40.776652" lon=".537638"><ele>22.030</ele><time>2026-04-17T08:11:08Z</time></trkpt><trkpt lat="40.776671" lon=".537677"><ele>22.854</ele><time>2026-04-17T08:11:09Z</time></trkpt><trkpt lat="40.776685" lon=".537715"><ele>23.637</ele><time>2026-04-17T08:11:10Z</time></trkpt><trkpt lat="40.776695" lon=".537749"><ele>23.848</ele><time>2026-04-17T08:11:11Z</time></trkpt><trkpt lat="40.776703" lon=".537786"><ele>24.224</ele><time>2026-04-17T08:11:12Z</time></trkpt><trkpt lat="40.77671" lon=".537815"><ele>24.895</ele><time>2026-04-17T08:11:13Z</time></trkpt><trkpt lat="40.77672" lon=".537859"><ele>25.673</ele><time>2026-04-17T08:11:14Z</time></trkpt><trkpt lat="40.776728" lon=".537897"><ele>26.031</ele><time>2026-04-17T08:11:15Z</time></trkpt><trkpt lat="40.77674" lon=".537935"><ele>26.435</ele><time>2026-04-17T08:11:16Z</time></trkpt><trkpt lat="40.776747" lon=".537967"><ele>26.686</ele><time>2026-04-17T08:11:17Z</time></trkpt><trkpt lat="40.776754" lon=".538014"><ele>27.614</ele><time>2026-04-17T08:11:18Z</time></trkpt><trkpt lat="40.776753" lon=".538055"><ele>28.209</ele><time>2026-04-17T08:11:19Z</time></trkpt><trkpt lat="40.77675" lon=".538096"><ele>28.635</ele><time>2026-04-17T08:11:20Z</time></trkpt><trkpt lat="40.776744" lon=".538132"><ele>29.619</ele><time>2026-04-17T08:11:21Z</time></trkpt><trkpt lat="40.776739" lon=".538162"><ele>29.863</ele><time>2026-04-17T08:11:22Z</time></trkpt><trkpt lat="40.776731" lon=".538208"><ele>30.876</ele><time>2026-04-17T08:11:23Z</time></trkpt><trkpt lat="40.776722" lon=".538248"><ele>31.087</ele><time>2026-04-17T08:11:24Z</time></trkpt><trkpt lat="40.776711" lon=".538287"><ele>31.843</ele><time>2026-04-17T08:11:25Z</time></trkpt><trkpt lat="40.776699" lon=".538325"><ele>32.284</ele><time>2026-04-17T08:11:26Z</time></trkpt><trkpt lat="40.776693" lon=".538354"><ele>33.072</ele><time>2026-04-17T08:11:27Z</time></trkpt><trkpt lat="40.776685" lon=".538388"><ele>33.490</ele><time>2026-04-17T08:11:28Z</time></trkpt><trkpt lat="40.776679" lon=".538429"><ele>33.613</ele><time>2026-04-17T08:11:29Z</time></trkpt><trkpt lat="40.776676" lon=".538458"><ele>34.043</ele><time>2026-04-17T08:11:30Z</time></trkpt><trkpt lat="40.776674" lon=".538491"><ele>34.207</ele><time>2026-04-17T08:11:31Z</time></trkpt><trkpt lat="40.776671" lon=".538529"><ele>34.809</ele><time>2026-04-17T08:11:32Z</time></trkpt><trkpt lat="40.77667" lon=".538556"><ele>34.833</ele><time>2026-04-17T08:11:33Z</time></trkpt><trkpt lat="40.776672" lon=".53859"><ele>35.237</ele><time>2026-04-17T08:11:34Z</time></trkpt><trkpt lat="40.776674" lon=".538626"><ele>35.431</ele><time>2026-04-17T08:11:35Z</time></trkpt><trkpt lat="40.776681" lon=".538669"><ele>35.844</ele><time>2026-04-17T08:11:36Z</time></trkpt><trkpt lat="40.776687" lon=".538698"><ele>36.425</ele><time>2026-04-17T08:11:37Z</time></trkpt><trkpt lat="40.776695" lon=".538738"><ele>36.851</ele><time>2026-04-17T08:11:38Z</time></trkpt><trkpt lat="40.776699" lon=".538766"><ele>37.272</ele><time>2026-04-17T08:11:39Z</time></trkpt><trkpt lat="40.776704" lon=".538799"><ele>37.430</ele><time>2026-04-17T08:11:40Z</time></trkpt><trkpt lat="40.776713" lon=".538839"><ele>38.038</ele><time>2026-04-17T08:11:41Z</time></trkpt><trkpt lat="40.776722" lon=".538873"><ele>38.293</ele><time>2026-04-17T08:11:42Z</time></trkpt><trkpt lat="40.776731" lon=".538908"><ele>38.665</ele><time>2026-04-17T08:11:43Z</time></trkpt><trkpt lat="40.776741" lon=".538942"><ele>39.021</ele><time>2026-04-17T08:11:44Z</time></trkpt><trkpt lat="40.776748" lon=".538978"><ele>39.609</ele><time>2026-04-17T08:11:45Z</time></trkpt><trkpt lat="40.776754" lon=".539008"><ele>40.471</ele><time>2026-04-17T08:11:46Z</time></trkpt><trkpt lat="40.77676" lon=".539052"><ele>41.065</ele><time>2026-04-17T08:11:47Z</time></trkpt><trkpt lat="40.776764" lon=".539089"><ele>42.039</ele><time>2026-04-17T08:11:48Z</time></trkpt><trkpt lat="40.776769" lon=".539118"><ele>42.282</ele><time>2026-04-17T08:11:49Z</time></trkpt><trkpt lat="40.776773" lon=".53916"><ele>42.843</ele><time>2026-04-17T08:11:50Z</time></trkpt><trkpt lat="40.776776" lon=".539194"><ele>43.299</ele><time>2026-04-17T08:11:51Z</time></trkpt><trkpt lat="40.776778" lon=".539229"><ele>43.850</ele><time>2026-04-17T08:11:52Z</time></trkpt><trkpt lat="40.77678" lon=".539263"><ele>44.298</ele><time>2026-04-17T08:11:53Z</time></trkpt><trkpt lat="40.776782" lon=".539298"><ele>44.816</ele><time>2026-04-17T08:11:54Z</time></trkpt><trkpt lat="40.776785" lon=".539333"><ele>45.285</ele><time>2026-04-17T08:11:55Z</time></trkpt><trkpt lat="40.776787" lon=".539369"><ele>45.489</ele><time>2026-04-17T08:11:56Z</time></trkpt><trkpt lat="40.77679" lon=".539406"><ele>45.817</ele><time>2026-04-17T08:11:57Z</time></trkpt><trkpt lat="40.77679" lon=".539435"><ele>45.809</ele><time>2026-04-17T08:11:58Z</time></trkpt><trkpt lat="40.776791" lon=".539477"><ele>46.230</ele><time>2026-04-17T08:11:59Z</time></trkpt><trkpt lat="40.776795" lon=".539516"><ele>46.294</ele><time>2026-04-17T08:12:00Z</time></trkpt><trkpt lat="40.776798" lon=".539556"><ele>46.468</ele><time>2026-04-17T08:12:01Z</time></trkpt><trkpt lat="40.7768" lon=".539596"><ele>46.691</ele><time>2026-04-17T08:12:02Z</time></trkpt><trkpt lat="40.776804" lon=".539635"><ele>46.882</ele><time>2026-04-17T08:12:03Z</time></trkpt><trkpt lat="40.77681" lon=".539679"><ele>46.828</ele><time>2026-04-17T08:12:04Z</time></trkpt><trkpt lat="40.77682" lon=".539723"><ele>46.839</ele><time>2026-04-17T08:12:05Z</time></trkpt><trkpt lat="40.776832" lon=".539767"><ele>46.887</ele><time>2026-04-17T08:12:06Z</time></trkpt><trkpt lat="40.776844" lon=".539812"><ele>46.895</ele><time>2026-04-17T08:12:07Z</time></trkpt><trkpt lat="40.776855" lon=".539858"><ele>46.862</ele><time>2026-04-17T08:12:08Z</time></trkpt><trkpt lat="40.776867" lon=".539903"><ele>46.883</ele><time>2026-04-17T08:12:09Z</time></trkpt><trkpt lat="40.776877" lon=".539947"><ele>46.811</ele><time>2026-04-17T08:12:10Z</time></trkpt><trkpt lat="40.776886" lon=".539982"><ele>46.809</ele><time>2026-04-17T08:12:11Z</time></trkpt><trkpt lat="40.776896" lon=".540032"><ele>46.858</ele><time>2026-04-17T08:12:12Z</time></trkpt><trkpt lat="40.776905" lon=".540074"><ele>46.822</ele><time>2026-04-17T08:12:13Z</time></trkpt><trkpt lat="40.776914" lon=".540116"><ele>46.896</ele><time>2026-04-17T08:12:14Z</time></trkpt><trkpt lat="40.776923" lon=".54016"><ele>46.859</ele><time>2026-04-17T08:12:15Z</time></trkpt><trkpt lat="40.77693" lon=".540195"><ele>46.860</ele><time>2026-04-17T08:12:16Z</time></trkpt><trkpt lat="40.776943" lon=".540244"><ele>46.826</ele><time>2026-04-17T08:12:17Z</time></trkpt><trkpt lat="40.776954" lon=".540284"><ele>46.837</ele><time>2026-04-17T08:12:18Z</time></trkpt><trkpt lat="40.776967" lon=".540324"><ele>46.815</ele><time>2026-04-17T08:12:19Z</time></trkpt><trkpt lat="40.776978" lon=".540363"><ele>47.013</ele><time>2026-04-17T08:12:20Z</time></trkpt><trkpt lat="40.776985" lon=".540402"><ele>47.019</ele><time>2026-04-17T08:12:21Z</time></trkpt><trkpt lat="40.776983" lon=".540446"><ele>47.209</ele><time>2026-04-17T08:12:22Z</time></trkpt><trkpt lat="40.776973" lon=".540492"><ele>47.219</ele><time>2026-04-17T08:12:23Z</time></trkpt><trkpt lat="40.776961" lon=".540538"><ele>47.609</ele><time>2026-04-17T08:12:24Z</time></trkpt><trkpt lat="40.776947" lon=".540575"><ele>48.033</ele><time>2026-04-17T08:12:25Z</time></trkpt><trkpt lat="40.776928" lon=".540627"><ele>48.627</ele><time>2026-04-17T08:12:26Z</time></trkpt><trkpt lat="40.776912" lon=".540675"><ele>48.841</ele><time>2026-04-17T08:12:27Z</time></trkpt><trkpt lat="40.776903" lon=".540721"><ele>49.224</ele><time>2026-04-17T08:12:28Z</time></trkpt><trkpt lat="40.776899" lon=".540767"><ele>49.285</ele><time>2026-04-17T08:12:29Z</time></trkpt><trkpt lat="40.776898" lon=".540813"><ele>49.221</ele><time>2026-04-17T08:12:30Z</time></trkpt><trkpt lat="40.776899" lon=".540851"><ele>49.642</ele><time>2026-04-17T08:12:31Z</time></trkpt><trkpt lat="40.776901" lon=".540906"><ele>49.660</ele><time>2026-04-17T08:12:32Z</time></trkpt><trkpt lat="40.776902" lon=".540945"><ele>50.278</ele><time>2026-04-17T08:12:33Z</time></trkpt><trkpt lat="40.7769" lon=".540995"><ele>50.229</ele><time>2026-04-17T08:12:34Z</time></trkpt><trkpt lat="40.776895" lon=".541056"><ele>50.600</ele><time>2026-04-17T08:12:35Z</time></trkpt><trkpt lat="40.776889" lon=".541097"><ele>50.620</ele><time>2026-04-17T08:12:36Z</time></trkpt><trkpt lat="40.776883" lon=".541148"><ele>50.809</ele><time>2026-04-17T08:12:37Z</time></trkpt><trkpt lat="40.776875" lon=".541199"><ele>50.844</ele><time>2026-04-17T08:12:38Z</time></trkpt><trkpt lat="40.776867" lon=".541247"><ele>50.818</ele><time>2026-04-17T08:12:39Z</time></trkpt><trkpt lat="40.776858" lon=".541298"><ele>51.012</ele><time>2026-04-17T08:12:40Z</time></trkpt><trkpt lat="40.776847" lon=".54136"><ele>51.035</ele><time>2026-04-17T08:12:41Z</time></trkpt><trkpt lat="40.776839" lon=".541404"><ele>51.066</ele><time>2026-04-17T08:12:42Z</time></trkpt><trkpt lat="40.77683" lon=".541457"><ele>51.022</ele><time>2026-04-17T08:12:43Z</time></trkpt><trkpt lat="40.776818" lon=".541511"><ele>51.023</ele><time>2026-04-17T08:12:44Z</time></trkpt><trkpt lat="40.77681" lon=".54157"><ele>51.051</ele><time>2026-04-17T08:12:45Z</time></trkpt><trkpt lat="40.776803" lon=".54163"><ele>51.059</ele><time>2026-04-17T08:12:46Z</time></trkpt><trkpt lat="40.776799" lon=".541691"><ele>51.084</ele><time>2026-04-17T08:12:47Z</time></trkpt><trkpt lat="40.776796" lon=".541749"><ele>51.007</ele><time>2026-04-17T08:12:48Z</time></trkpt><trkpt lat="40.776794" lon=".541804"><ele>51.017</ele><time>2026-04-17T08:12:49Z</time></trkpt><trkpt lat="40.776793" lon=".541866"><ele>51.009</ele><time>2026-04-17T08:12:50Z</time></trkpt><trkpt lat="40.776791" lon=".541908"><ele>51.040</ele><time>2026-04-17T08:12:51Z</time></trkpt><trkpt lat="40.77679" lon=".541958"><ele>51.064</ele><time>2026-04-17T08:12:52Z</time></trkpt><trkpt lat="40.77679" lon=".542004"><ele>51.478</ele><time>2026-04-17T08:12:53Z</time></trkpt><trkpt lat="40.776788" lon=".542055"><ele>51.421</ele><time>2026-04-17T08:12:54Z</time></trkpt><trkpt lat="40.77679" lon=".54209"><ele>51.492</ele><time>2026-04-17T08:12:55Z</time></trkpt><trkpt lat="40.776795" lon=".542135"><ele>51.698</ele><time>2026-04-17T08:12:56Z</time></trkpt><trkpt lat="40.776804" lon=".542187"><ele>51.819</ele><time>2026-04-17T08:12:57Z</time></trkpt><trkpt lat="40.776815" lon=".542235"><ele>52.247</ele><time>2026-04-17T08:12:58Z</time></trkpt><trkpt lat="40.776825" lon=".542273"><ele>52.475</ele><time>2026-04-17T08:12:59Z</time></trkpt><trkpt lat="40.776838" lon=".54232"><ele>52.645</ele><time>2026-04-17T08:13:00Z</time></trkpt><trkpt lat="40.776862" lon=".542413"><ele>53.047</ele><time>2026-04-17T08:13:02Z</time></trkpt><trkpt lat="40.77688" lon=".542502"><ele>53.211</ele><time>2026-04-17T08:13:04Z</time></trkpt><trkpt lat="40.776901" lon=".542588"><ele>53.609</ele><time>2026-04-17T08:13:06Z</time></trkpt><trkpt lat="40.776912" lon=".542629"><ele>53.816</ele><time>2026-04-17T08:13:07Z</time></trkpt><trkpt lat="40.776923" lon=".542679"><ele>54.060</ele><time>2026-04-17T08:13:08Z</time></trkpt><trkpt lat="40.776931" lon=".542712"><ele>54.464</ele><time>2026-04-17T08:13:09Z</time></trkpt><trkpt lat="40.776944" lon=".542751"><ele>54.897</ele><time>2026-04-17T08:13:10Z</time></trkpt><trkpt lat="40.776958" lon=".542798"><ele>55.418</ele><time>2026-04-17T08:13:11Z</time></trkpt><trkpt lat="40.776968" lon=".542842"><ele>55.824</ele><time>2026-04-17T08:13:12Z</time></trkpt><trkpt lat="40.776977" lon=".542876"><ele>56.275</ele><time>2026-04-17T08:13:13Z</time></trkpt><trkpt lat="40.776989" lon=".54292"><ele>56.473</ele><time>2026-04-17T08:13:14Z</time></trkpt><trkpt lat="40.777" lon=".542965"><ele>56.891</ele><time>2026-04-17T08:13:15Z</time></trkpt><trkpt lat="40.777011" lon=".543019"><ele>57.284</ele><time>2026-04-17T08:13:16Z</time></trkpt><trkpt lat="40.777017" lon=".543064"><ele>57.207</ele><time>2026-04-17T08:13:17Z</time></trkpt><trkpt lat="40.777017" lon=".543101"><ele>57.417</ele><time>2026-04-17T08:13:18Z</time></trkpt><trkpt lat="40.777014" lon=".54315"><ele>57.609</ele><time>2026-04-17T08:13:19Z</time></trkpt><trkpt lat="40.777008" lon=".543189"><ele>57.630</ele><time>2026-04-17T08:13:20Z</time></trkpt><trkpt lat="40.777002" lon=".543227"><ele>57.814</ele><time>2026-04-17T08:13:21Z</time></trkpt><trkpt lat="40.776998" lon=".543259"><ele>58.078</ele><time>2026-04-17T08:13:22Z</time></trkpt><trkpt lat="40.776991" lon=".543299"><ele>58.221</ele><time>2026-04-17T08:13:23Z</time></trkpt><trkpt lat="40.776984" lon=".543338"><ele>58.242</ele><time>2026-04-17T08:13:24Z</time></trkpt><trkpt lat="40.776975" lon=".543383"><ele>58.678</ele><time>2026-04-17T08:13:25Z</time></trkpt><trkpt lat="40.77697" lon=".543412"><ele>58.899</ele><time>2026-04-17T08:13:26Z</time></trkpt><trkpt lat="40.776965" lon=".543452"><ele>59.267</ele><time>2026-04-17T08:13:27Z</time></trkpt><trkpt lat="40.776962" lon=".543498"><ele>59.485</ele><time>2026-04-17T08:13:28Z</time></trkpt><trkpt lat="40.776958" lon=".543537"><ele>59.868</ele><time>2026-04-17T08:13:29Z</time></trkpt><trkpt lat="40.776952" lon=".543574"><ele>59.842</ele><time>2026-04-17T08:13:30Z</time></trkpt><trkpt lat="40.776949" lon=".543604"><ele>60.026</ele><time>2026-04-17T08:13:31Z</time></trkpt><trkpt lat="40.776945" lon=".543639"><ele>60.209</ele><time>2026-04-17T08:13:32Z</time></trkpt><trkpt lat="40.776937" lon=".543677"><ele>60.218</ele><time>2026-04-17T08:13:33Z</time></trkpt><trkpt lat="40.776931" lon=".543718"><ele>60.632</ele><time>2026-04-17T08:13:34Z</time></trkpt><trkpt lat="40.776923" lon=".543759"><ele>61.066</ele><time>2026-04-17T08:13:35Z</time></trkpt><trkpt lat="40.776914" lon=".543796"><ele>61.249</ele><time>2026-04-17T08:13:36Z</time></trkpt><trkpt lat="40.776903" lon=".543839"><ele>61.440</ele><time>2026-04-17T08:13:37Z</time></trkpt><trkpt lat="40.776894" lon=".543879"><ele>61.676</ele><time>2026-04-17T08:13:38Z</time></trkpt><trkpt lat="40.776887" lon=".543907"><ele>61.847</ele><time>2026-04-17T08:13:39Z</time></trkpt><trkpt lat="40.776881" lon=".543944"><ele>62.275</ele><time>2026-04-17T08:13:40Z</time></trkpt><trkpt lat="40.776875" lon=".54399"><ele>62.453</ele><time>2026-04-17T08:13:41Z</time></trkpt><trkpt lat="40.776872" lon=".544023"><ele>62.668</ele><time>2026-04-17T08:13:42Z</time></trkpt><trkpt lat="40.776867" lon=".54407"><ele>62.842</ele><time>2026-04-17T08:13:43Z</time></trkpt><trkpt lat="40.776862" lon=".544102"><ele>63.026</ele><time>2026-04-17T08:13:44Z</time></trkpt><trkpt lat="40.776852" lon=".544144"><ele>63.209</ele><time>2026-04-17T08:13:45Z</time></trkpt><trkpt lat="40.776843" lon=".544195"><ele>63.488</ele><time>2026-04-17T08:13:46Z</time></trkpt><trkpt lat="40.776835" lon=".54423"><ele>63.822</ele><time>2026-04-17T08:13:47Z</time></trkpt><trkpt lat="40.776826" lon=".544275"><ele>64.036</ele><time>2026-04-17T08:13:48Z</time></trkpt><trkpt lat="40.776818" lon=".544321"><ele>64.269</ele><time>2026-04-17T08:13:49Z</time></trkpt><trkpt lat="40.776812" lon=".544366"><ele>64.480</ele><time>2026-04-17T08:13:50Z</time></trkpt><trkpt lat="40.776803" lon=".544411"><ele>64.426</ele><time>2026-04-17T08:13:51Z</time></trkpt><trkpt lat="40.776795" lon=".544455"><ele>64.617</ele><time>2026-04-17T08:13:52Z</time></trkpt><trkpt lat="40.77679" lon=".544502"><ele>64.625</ele><time>2026-04-17T08:13:53Z</time></trkpt><trkpt lat="40.776789" lon=".544551"><ele>65.093</ele><time>2026-04-17T08:13:54Z</time></trkpt><trkpt lat="40.776787" lon=".54461"><ele>65.081</ele><time>2026-04-17T08:13:55Z</time></trkpt><trkpt lat="40.776784" lon=".544658"><ele>65.461</ele><time>2026-04-17T08:13:56Z</time></trkpt><trkpt lat="40.776779" lon=".544706"><ele>65.417</ele><time>2026-04-17T08:13:57Z</time></trkpt><trkpt lat="40.776773" lon=".544754"><ele>65.609</ele><time>2026-04-17T08:13:58Z</time></trkpt><trkpt lat="40.776766" lon=".5448"><ele>65.630</ele><time>2026-04-17T08:13:59Z</time></trkpt><trkpt lat="40.77676" lon=".544847"><ele>65.884</ele><time>2026-04-17T08:14:00Z</time></trkpt><trkpt lat="40.776752" lon=".544895"><ele>65.818</ele><time>2026-04-17T08:14:01Z</time></trkpt><trkpt lat="40.776742" lon=".54494"><ele>66.091</ele><time>2026-04-17T08:14:02Z</time></trkpt><trkpt lat="40.776731" lon=".544985"><ele>66.072</ele><time>2026-04-17T08:14:03Z</time></trkpt><trkpt lat="40.776723" lon=".545029"><ele>66.038</ele><time>2026-04-17T08:14:04Z</time></trkpt><trkpt lat="40.776716" lon=".545071"><ele>66.469</ele><time>2026-04-17T08:14:05Z</time></trkpt><trkpt lat="40.776709" lon=".545113"><ele>66.657</ele><time>2026-04-17T08:14:06Z</time></trkpt><trkpt lat="40.776703" lon=".545148"><ele>66.895</ele><time>2026-04-17T08:14:07Z</time></trkpt><trkpt lat="40.776699" lon=".545196"><ele>67.031</ele><time>2026-04-17T08:14:08Z</time></trkpt><trkpt lat="40.7767" lon=".545255"><ele>67.261</ele><time>2026-04-17T08:14:09Z</time></trkpt><trkpt lat="40.776702" lon=".545303"><ele>67.607</ele><time>2026-04-17T08:14:10Z</time></trkpt><trkpt lat="40.776706" lon=".545342"><ele>67.609</ele><time>2026-04-17T08:14:11Z</time></trkpt><trkpt lat="40.776713" lon=".5454"><ele>68.435</ele><time>2026-04-17T08:14:12Z</time></trkpt><trkpt lat="40.776719" lon=".54545"><ele>68.839</ele><time>2026-04-17T08:14:13Z</time></trkpt><trkpt lat="40.776725" lon=".54549"><ele>69.293</ele><time>2026-04-17T08:14:14Z</time></trkpt><trkpt lat="40.776728" lon=".545537"><ele>69.426</ele><time>2026-04-17T08:14:15Z</time></trkpt><trkpt lat="40.776733" lon=".545583"><ele>70.077</ele><time>2026-04-17T08:14:16Z</time></trkpt><trkpt lat="40.77674" lon=".545637"><ele>70.453</ele><time>2026-04-17T08:14:17Z</time></trkpt><trkpt lat="40.776745" lon=".545683"><ele>70.674</ele><time>2026-04-17T08:14:18Z</time></trkpt><trkpt lat="40.776752" lon=".545729"><ele>71.212</ele><time>2026-04-17T08:14:19Z</time></trkpt><trkpt lat="40.77676" lon=".545764"><ele>71.630</ele><time>2026-04-17T08:14:20Z</time></trkpt><trkpt lat="40.776773" lon=".545815"><ele>72.039</ele><time>2026-04-17T08:14:21Z</time></trkpt><trkpt lat="40.776785" lon=".54586"><ele>72.201</ele><time>2026-04-17T08:14:22Z</time></trkpt><trkpt lat="40.776796" lon=".545903"><ele>73.421</ele><time>2026-04-17T08:14:23Z</time></trkpt><trkpt lat="40.776803" lon=".545947"><ele>74.009</ele><time>2026-04-17T08:14:24Z</time></trkpt><trkpt lat="40.776807" lon=".545992"><ele>75.075</ele><time>2026-04-17T08:14:25Z</time></trkpt><trkpt lat="40.77681" lon=".546041"><ele>75.659</ele><time>2026-04-17T08:14:26Z</time></trkpt><trkpt lat="40.77681" lon=".546088"><ele>75.873</ele><time>2026-04-17T08:14:27Z</time></trkpt><trkpt lat="40.776809" lon=".546136"><ele>76.266</ele><time>2026-04-17T08:14:28Z</time></trkpt><trkpt lat="40.776808" lon=".546184"><ele>76.657</ele><time>2026-04-17T08:14:29Z</time></trkpt><trkpt lat="40.776807" lon=".546231"><ele>77.413</ele><time>2026-04-17T08:14:30Z</time></trkpt><trkpt lat="40.776806" lon=".546279"><ele>77.834</ele><time>2026-04-17T08:14:31Z</time></trkpt><trkpt lat="40.776803" lon=".546328"><ele>78.642</ele><time>2026-04-17T08:14:32Z</time></trkpt><trkpt lat="40.7768" lon=".546369"><ele>79.290</ele><time>2026-04-17T08:14:33Z</time></trkpt><trkpt lat="40.776794" lon=".546429"><ele>79.614</ele><time>2026-04-17T08:14:34Z</time></trkpt><trkpt lat="40.77679" lon=".546468"><ele>80.654</ele><time>2026-04-17T08:14:35Z</time></trkpt><trkpt lat="40.776787" lon=".546525"><ele>81.209</ele><time>2026-04-17T08:14:36Z</time></trkpt><trkpt lat="40.776786" lon=".546561"><ele>82.009</ele><time>2026-04-17T08:14:37Z</time></trkpt><trkpt lat="40.776785" lon=".546608"><ele>82.073</ele><time>2026-04-17T08:14:38Z</time></trkpt><trkpt lat="40.776787" lon=".546662"><ele>82.497</ele><time>2026-04-17T08:14:39Z</time></trkpt><trkpt lat="40.776793" lon=".546706"><ele>82.681</ele><time>2026-04-17T08:14:40Z</time></trkpt><trkpt lat="40.776801" lon=".546749"><ele>82.814</ele><time>2026-04-17T08:14:41Z</time></trkpt><trkpt lat="40.776811" lon=".546782"><ele>83.015</ele><time>2026-04-17T08:14:42Z</time></trkpt><trkpt lat="40.776825" lon=".546829"><ele>83.041</ele><time>2026-04-17T08:14:43Z</time></trkpt><trkpt lat="40.776838" lon=".546865"><ele>83.492</ele><time>2026-04-17T08:14:44Z</time></trkpt><trkpt lat="40.776853" lon=".546899"><ele>83.610</ele><time>2026-04-17T08:14:45Z</time></trkpt><trkpt lat="40.776866" lon=".546924"><ele>83.868</ele><time>2026-04-17T08:14:46Z</time></trkpt><trkpt lat="40.77688" lon=".546953"><ele>83.843</ele><time>2026-04-17T08:14:47Z</time></trkpt><trkpt lat="40.7769" lon=".546983"><ele>84.064</ele><time>2026-04-17T08:14:48Z</time></trkpt><trkpt lat="40.776922" lon=".54701"><ele>84.210</ele><time>2026-04-17T08:14:49Z</time></trkpt><trkpt lat="40.77694" lon=".547032"><ele>84.409</ele><time>2026-04-17T08:14:50Z</time></trkpt><trkpt lat="40.776966" lon=".547065"><ele>84.876</ele><time>2026-04-17T08:14:51Z</time></trkpt><trkpt lat="40.776988" lon=".547087"><ele>85.050</ele><time>2026-04-17T08:14:52Z</time></trkpt><trkpt lat="40.777011" lon=".547109"><ele>85.494</ele><time>2026-04-17T08:14:53Z</time></trkpt><trkpt lat="40.777037" lon=".547131"><ele>85.457</ele><time>2026-04-17T08:14:54Z</time></trkpt><trkpt lat="40.777057" lon=".547148"><ele>85.848</ele><time>2026-04-17T08:14:55Z</time></trkpt><trkpt lat="40.777087" lon=".547171"><ele>85.834</ele><time>2026-04-17T08:14:56Z</time></trkpt><trkpt lat="40.777106" lon=".547188"><ele>86.635</ele><time>2026-04-17T08:14:57Z</time></trkpt><trkpt lat="40.777126" lon=".547211"><ele>87.083</ele><time>2026-04-17T08:14:58Z</time></trkpt><trkpt lat="40.777146" lon=".547234"><ele>87.611</ele><time>2026-04-17T08:14:59Z</time></trkpt><trkpt lat="40.777168" lon=".547256"><ele>88.425</ele><time>2026-04-17T08:15:00Z</time></trkpt><trkpt lat="40.777194" lon=".54728"><ele>88.626</ele><time>2026-04-17T08:15:01Z</time></trkpt><trkpt lat="40.777224" lon=".54731"><ele>89.008</ele><time>2026-04-17T08:15:02Z</time></trkpt><trkpt lat="40.777247" lon=".547337"><ele>89.409</ele><time>2026-04-17T08:15:03Z</time></trkpt><trkpt lat="40.777265" lon=".54736"><ele>90.094</ele><time>2026-04-17T08:15:04Z</time></trkpt><trkpt lat="40.777293" lon=".547393"><ele>90.458</ele><time>2026-04-17T08:15:05Z</time></trkpt><trkpt lat="40.777318" lon=".547418"><ele>90.682</ele><time>2026-04-17T08:15:06Z</time></trkpt><trkpt lat="40.777336" lon=".547439"><ele>90.815</ele><time>2026-04-17T08:15:07Z</time></trkpt><trkpt lat="40.77736" lon=".547467"><ele>91.216</ele><time>2026-04-17T08:15:08Z</time></trkpt><trkpt lat="40.777381" lon=".54749"><ele>91.412</ele><time>2026-04-17T08:15:09Z</time></trkpt><trkpt lat="40.777399" lon=".547511"><ele>91.643</ele><time>2026-04-17T08:15:10Z</time></trkpt><trkpt lat="40.777426" lon=".547543"><ele>91.881</ele><time>2026-04-17T08:15:11Z</time></trkpt><trkpt lat="40.77744" lon=".547567"><ele>92.079</ele><time>2026-04-17T08:15:12Z</time></trkpt><trkpt lat="40.777456" lon=".547597"><ele>92.491</ele><time>2026-04-17T08:15:13Z</time></trkpt><trkpt lat="40.777472" lon=".547633"><ele>92.481</ele><time>2026-04-17T08:15:14Z</time></trkpt><trkpt lat="40.777485" lon=".547666"><ele>93.019</ele><time>2026-04-17T08:15:15Z</time></trkpt><trkpt lat="40.777496" lon=".547693"><ele>93.209</ele><time>2026-04-17T08:15:16Z</time></trkpt><trkpt lat="40.777508" lon=".547724"><ele>93.491</ele><time>2026-04-17T08:15:17Z</time></trkpt><trkpt lat="40.777522" lon=".547756"><ele>93.665</ele><time>2026-04-17T08:15:18Z</time></trkpt><trkpt lat="40.777536" lon=".547793"><ele>93.689</ele><time>2026-04-17T08:15:19Z</time></trkpt><trkpt lat="40.777547" lon=".547822"><ele>94.062</ele><time>2026-04-17T08:15:20Z</time></trkpt><trkpt lat="40.777558" lon=".547847"><ele>94.233</ele><time>2026-04-17T08:15:21Z</time></trkpt><trkpt lat="40.777569" lon=".547867"><ele>94.629</ele><time>2026-04-17T08:15:22Z</time></trkpt><trkpt lat="40.777587" lon=".547897"><ele>94.860</ele><time>2026-04-17T08:15:23Z</time></trkpt><trkpt lat="40.777603" lon=".547922"><ele>95.048</ele><time>2026-04-17T08:15:24Z</time></trkpt><trkpt lat="40.777623" lon=".547946"><ele>95.426</ele><time>2026-04-17T08:15:25Z</time></trkpt><trkpt lat="40.777645" lon=".547973"><ele>95.821</ele><time>2026-04-17T08:15:26Z</time></trkpt><trkpt lat="40.777662" lon=".547994"><ele>96.241</ele><time>2026-04-17T08:15:27Z</time></trkpt><trkpt lat="40.777681" lon=".548023"><ele>96.405</ele><time>2026-04-17T08:15:28Z</time></trkpt><trkpt lat="40.777696" lon=".548045"><ele>96.809</ele><time>2026-04-17T08:15:29Z</time></trkpt><trkpt lat="40.777713" lon=".548069"><ele>97.014</ele><time>2026-04-17T08:15:30Z</time></trkpt><trkpt lat="40.777729" lon=".548089"><ele>97.228</ele><time>2026-04-17T08:15:31Z</time></trkpt><trkpt lat="40.777747" lon=".548118"><ele>97.432</ele><time>2026-04-17T08:15:32Z</time></trkpt><trkpt lat="40.777764" lon=".548148"><ele>97.845</ele><time>2026-04-17T08:15:33Z</time></trkpt><trkpt lat="40.777776" lon=".548178"><ele>97.836</ele><time>2026-04-17T08:15:34Z</time></trkpt><trkpt lat="40.777783" lon=".548206"><ele>98.482</ele><time>2026-04-17T08:15:35Z</time></trkpt><trkpt lat="40.777791" lon=".548241"><ele>98.853</ele><time>2026-04-17T08:15:36Z</time></trkpt><trkpt lat="40.777793" lon=".548284"><ele>99.211</ele><time>2026-04-17T08:15:37Z</time></trkpt><trkpt lat="40.777793" lon=".548323"><ele>100.039</ele><time>2026-04-17T08:15:38Z</time></trkpt><trkpt lat="40.777794" lon=".548356"><ele>100.264</ele><time>2026-04-17T08:15:39Z</time></trkpt><trkpt lat="40.777798" lon=".548395"><ele>100.606</ele><time>2026-04-17T08:15:40Z</time></trkpt><trkpt lat="40.777804" lon=".548439"><ele>100.816</ele><time>2026-04-17T08:15:41Z</time></trkpt><trkpt lat="40.777809" lon=".54847"><ele>101.009</ele><time>2026-04-17T08:15:42Z</time></trkpt><trkpt lat="40.777814" lon=".548499"><ele>101.268</ele><time>2026-04-17T08:15:43Z</time></trkpt><trkpt lat="40.77782" lon=".548524"><ele>101.452</ele><time>2026-04-17T08:15:44Z</time></trkpt><trkpt lat="40.777831" lon=".548561"><ele>101.426</ele><time>2026-04-17T08:15:45Z</time></trkpt><trkpt lat="40.777838" lon=".548609"><ele>101.659</ele><time>2026-04-17T08:15:46Z</time></trkpt><trkpt lat="40.777839" lon=".54865"><ele>101.860</ele><time>2026-04-17T08:15:47Z</time></trkpt><trkpt lat="40.777836" lon=".548685"><ele>102.046</ele><time>2026-04-17T08:15:48Z</time></trkpt><trkpt lat="40.777824" lon=".548738"><ele>102.087</ele><time>2026-04-17T08:15:49Z</time></trkpt><trkpt lat="40.777813" lon=".548783"><ele>102.245</ele><time>2026-04-17T08:15:50Z</time></trkpt><trkpt lat="40.777803" lon=".548815"><ele>102.273</ele><time>2026-04-17T08:15:51Z</time></trkpt><trkpt lat="40.77779" lon=".548855"><ele>102.217</ele><time>2026-04-17T08:15:52Z</time></trkpt><trkpt lat="40.777777" lon=".548894"><ele>102.487</ele><time>2026-04-17T08:15:53Z</time></trkpt><trkpt lat="40.777764" lon=".548934"><ele>102.415</ele><time>2026-04-17T08:15:54Z</time></trkpt><trkpt lat="40.777745" lon=".548984"><ele>102.409</ele><time>2026-04-17T08:15:55Z</time></trkpt><trkpt lat="40.777726" lon=".549024"><ele>102.473</ele><time>2026-04-17T08:15:56Z</time></trkpt><trkpt lat="40.777704" lon=".549079"><ele>102.487</ele><time>2026-04-17T08:15:57Z</time></trkpt><trkpt lat="40.77769" lon=".549159"><ele>102.421</ele><time>2026-04-17T08:15:58Z</time></trkpt><trkpt lat="40.777695" lon=".549235"><ele>102.494</ele><time>2026-04-17T08:15:59Z</time></trkpt><trkpt lat="40.777713" lon=".549309"><ele>102.415</ele><time>2026-04-17T08:16:00Z</time></trkpt><trkpt lat="40.777732" lon=".549367"><ele>102.061</ele><time>2026-04-17T08:16:01Z</time></trkpt><trkpt lat="40.777763" lon=".549445"><ele>101.892</ele><time>2026-04-17T08:16:02Z</time></trkpt><trkpt lat="40.777787" lon=".549498"><ele>101.470</ele><time>2026-04-17T08:16:03Z</time></trkpt><trkpt lat="40.777807" lon=".549542"><ele>101.478</ele><time>2026-04-17T08:16:04Z</time></trkpt><trkpt lat="40.777827" lon=".54958"><ele>101.221</ele><time>2026-04-17T08:16:05Z</time></trkpt><trkpt lat="40.777845" lon=".549608"><ele>101.241</ele><time>2026-04-17T08:16:06Z</time></trkpt><trkpt lat="40.777877" lon=".549646"><ele>101.205</ele><time>2026-04-17T08:16:07Z</time></trkpt><trkpt lat="40.777907" lon=".549671"><ele>101.209</ele><time>2026-04-17T08:16:08Z</time></trkpt><trkpt lat="40.777936" lon=".549696"><ele>101.694</ele><time>2026-04-17T08:16:09Z</time></trkpt><trkpt lat="40.777981" lon=".549746"><ele>103.098</ele><time>2026-04-17T08:16:11Z</time></trkpt><trkpt lat="40.778001" lon=".549765"><ele>103.442</ele><time>2026-04-17T08:16:12Z</time></trkpt><trkpt lat="40.77802" lon=".549779"><ele>103.655</ele><time>2026-04-17T08:16:13Z</time></trkpt><trkpt lat="40.778041" lon=".549795"><ele>104.626</ele><time>2026-04-17T08:16:14Z</time></trkpt><trkpt lat="40.778062" lon=".549808"><ele>105.282</ele><time>2026-04-17T08:16:15Z</time></trkpt><trkpt lat="40.778082" lon=".549817"><ele>106.013</ele><time>2026-04-17T08:16:16Z</time></trkpt><trkpt lat="40.778103" lon=".549814"><ele>106.641</ele><time>2026-04-17T08:16:17Z</time></trkpt><trkpt lat="40.778123" lon=".549803"><ele>107.419</ele><time>2026-04-17T08:16:18Z</time></trkpt><trkpt lat="40.778142" lon=".54979"><ele>108.012</ele><time>2026-04-17T08:16:19Z</time></trkpt><trkpt lat="40.778168" lon=".549776"><ele>108.432</ele><time>2026-04-17T08:16:20Z</time></trkpt><trkpt lat="40.7782" lon=".549765"><ele>108.805</ele><time>2026-04-17T08:16:21Z</time></trkpt><trkpt lat="40.778236" lon=".54976"><ele>109.009</ele><time>2026-04-17T08:16:22Z</time></trkpt><trkpt lat="40.778265" lon=".549762"><ele>109.443</ele><time>2026-04-17T08:16:23Z</time></trkpt><trkpt lat="40.778302" lon=".549784"><ele>109.437</ele><time>2026-04-17T08:16:24Z</time></trkpt><trkpt lat="40.778328" lon=".549817"><ele>109.871</ele><time>2026-04-17T08:16:25Z</time></trkpt><trkpt lat="40.778349" lon=".549857"><ele>109.864</ele><time>2026-04-17T08:16:26Z</time></trkpt><trkpt lat="40.778368" lon=".549896"><ele>110.275</ele><time>2026-04-17T08:16:27Z</time></trkpt><trkpt lat="40.778386" lon=".549936"><ele>110.461</ele><time>2026-04-17T08:16:28Z</time></trkpt><trkpt lat="40.778401" lon=".549977"><ele>110.692</ele><time>2026-04-17T08:16:29Z</time></trkpt><trkpt lat="40.778417" lon=".550021"><ele>110.810</ele><time>2026-04-17T08:16:30Z</time></trkpt><trkpt lat="40.778431" lon=".550065"><ele>110.888</ele><time>2026-04-17T08:16:31Z</time></trkpt><trkpt lat="40.778442" lon=".550101"><ele>110.881</ele><time>2026-04-17T08:16:32Z</time></trkpt><trkpt lat="40.77846" lon=".550155"><ele>110.861</ele><time>2026-04-17T08:16:33Z</time></trkpt><trkpt lat="40.778473" lon=".550199"><ele>111.017</ele><time>2026-04-17T08:16:34Z</time></trkpt><trkpt lat="40.778486" lon=".550242"><ele>111.009</ele><time>2026-04-17T08:16:35Z</time></trkpt><trkpt lat="40.778498" lon=".550277"><ele>111.230</ele><time>2026-04-17T08:16:36Z</time></trkpt><trkpt lat="40.778516" lon=".550328"><ele>111.224</ele><time>2026-04-17T08:16:37Z</time></trkpt><trkpt lat="40.778533" lon=".550372"><ele>111.258</ele><time>2026-04-17T08:16:38Z</time></trkpt><trkpt lat="40.778553" lon=".550412"><ele>111.261</ele><time>2026-04-17T08:16:39Z</time></trkpt><trkpt lat="40.778578" lon=".550446"><ele>111.442</ele><time>2026-04-17T08:16:40Z</time></trkpt><trkpt lat="40.7786" lon=".550469"><ele>111.468</ele><time>2026-04-17T08:16:41Z</time></trkpt><trkpt lat="40.778634" lon=".550498"><ele>111.429</ele><time>2026-04-17T08:16:42Z</time></trkpt><trkpt lat="40.778663" lon=".550522"><ele>111.467</ele><time>2026-04-17T08:16:43Z</time></trkpt><trkpt lat="40.778694" lon=".550549"><ele>111.445</ele><time>2026-04-17T08:16:44Z</time></trkpt><trkpt lat="40.77872" lon=".550571"><ele>111.414</ele><time>2026-04-17T08:16:45Z</time></trkpt><trkpt lat="40.77876" lon=".550605"><ele>111.454</ele><time>2026-04-17T08:16:46Z</time></trkpt><trkpt lat="40.778794" lon=".550638"><ele>111.409</ele><time>2026-04-17T08:16:47Z</time></trkpt><trkpt lat="40.778836" lon=".550675"><ele>111.409</ele><time>2026-04-17T08:16:48Z</time></trkpt><trkpt lat="40.778872" lon=".550705"><ele>111.453</ele><time>2026-04-17T08:16:49Z</time></trkpt><trkpt lat="40.778918" lon=".550739"><ele>111.457</ele><time>2026-04-17T08:16:50Z</time></trkpt><trkpt lat="40.778974" lon=".55077"><ele>111.471</ele><time>2026-04-17T08:16:51Z</time></trkpt><trkpt lat="40.779012" lon=".550794"><ele>111.484</ele><time>2026-04-17T08:16:52Z</time></trkpt><trkpt lat="40.779041" lon=".550821"><ele>111.425</ele><time>2026-04-17T08:16:53Z</time></trkpt><trkpt lat="40.779063" lon=".55085"><ele>111.451</ele><time>2026-04-17T08:16:54Z</time></trkpt><trkpt lat="40.779075" lon=".550886"><ele>111.452</ele><time>2026-04-17T08:16:55Z</time></trkpt><trkpt lat="40.779085" lon=".550925"><ele>111.450</ele><time>2026-04-17T08:16:56Z</time></trkpt><trkpt lat="40.779098" lon=".550964"><ele>111.818</ele><time>2026-04-17T08:16:57Z</time></trkpt><trkpt lat="40.779111" lon=".551"><ele>112.081</ele><time>2026-04-17T08:16:58Z</time></trkpt><trkpt lat="40.779127" lon=".551032"><ele>113.661</ele><time>2026-04-17T08:16:59Z</time></trkpt><trkpt lat="40.779144" lon=".551064"><ele>114.017</ele><time>2026-04-17T08:17:00Z</time></trkpt><trkpt lat="40.779161" lon=".551095"><ele>114.809</ele><time>2026-04-17T08:17:01Z</time></trkpt><trkpt lat="40.779181" lon=".551125"><ele>116.050</ele><time>2026-04-17T08:17:02Z</time></trkpt><trkpt lat="40.779198" lon=".55115"><ele>116.484</ele><time>2026-04-17T08:17:03Z</time></trkpt><trkpt lat="40.779223" lon=".551191"><ele>117.098</ele><time>2026-04-17T08:17:04Z</time></trkpt><trkpt lat="40.779242" lon=".551227"><ele>117.271</ele><time>2026-04-17T08:17:05Z</time></trkpt><trkpt lat="40.779262" lon=".551265"><ele>117.612</ele><time>2026-04-17T08:17:06Z</time></trkpt><trkpt lat="40.779283" lon=".551298"><ele>117.858</ele><time>2026-04-17T08:17:07Z</time></trkpt><trkpt lat="40.779304" lon=".551327"><ele>118.229</ele><time>2026-04-17T08:17:08Z</time></trkpt><trkpt lat="40.779322" lon=".551356"><ele>118.667</ele><time>2026-04-17T08:17:09Z</time></trkpt><trkpt lat="40.779336" lon=".551391"><ele>119.445</ele><time>2026-04-17T08:17:10Z</time></trkpt><trkpt lat="40.77935" lon=".551431"><ele>120.298</ele><time>2026-04-17T08:17:11Z</time></trkpt><trkpt lat="40.779369" lon=".551469"><ele>120.615</ele><time>2026-04-17T08:17:12Z</time></trkpt><trkpt lat="40.779391" lon=".551509"><ele>121.226</ele><time>2026-04-17T08:17:13Z</time></trkpt><trkpt lat="40.77941" lon=".551555"><ele>121.409</ele><time>2026-04-17T08:17:14Z</time></trkpt><trkpt lat="40.779422" lon=".551603"><ele>121.821</ele><time>2026-04-17T08:17:15Z</time></trkpt><trkpt lat="40.779433" lon=".551648"><ele>121.895</ele><time>2026-04-17T08:17:16Z</time></trkpt><trkpt lat="40.779444" lon=".55169"><ele>122.069</ele><time>2026-04-17T08:17:17Z</time></trkpt><trkpt lat="40.779455" lon=".551729"><ele>122.262</ele><time>2026-04-17T08:17:18Z</time></trkpt><trkpt lat="40.779466" lon=".551766"><ele>122.623</ele><time>2026-04-17T08:17:19Z</time></trkpt><trkpt lat="40.779476" lon=".551803"><ele>122.649</ele><time>2026-04-17T08:17:20Z</time></trkpt><trkpt lat="40.779488" lon=".551838"><ele>123.270</ele><time>2026-04-17T08:17:21Z</time></trkpt><trkpt lat="40.779497" lon=".55186"><ele>124.648</ele><time>2026-04-17T08:17:22Z</time></trkpt><trkpt lat="40.779505" lon=".551868"><ele>125.256</ele><time>2026-04-17T08:17:23Z</time></trkpt><trkpt lat="40.779511" lon=".551876"><ele>125.872</ele><time>2026-04-17T08:17:24Z</time></trkpt><trkpt lat="40.779513" lon=".55188"><ele>126.013</ele><time>2026-04-17T08:17:25Z</time></trkpt><trkpt lat="40.779513" lon=".55188"><ele>126.614</ele><time>2026-04-17T08:17:26Z</time></trkpt><trkpt lat="40.779513" lon=".55188"><ele>127.009</ele><time>2026-04-17T08:17:27Z</time></trkpt><trkpt lat="40.77952" lon=".55191"><ele>127.629</ele><time>2026-04-17T08:17:48Z</time></trkpt><trkpt lat="40.779529" lon=".551935"><ele>127.643</ele><time>2026-04-17T08:17:49Z</time></trkpt><trkpt lat="40.779539" lon=".551965"><ele>127.897</ele><time>2026-04-17T08:17:50Z</time></trkpt><trkpt lat="40.77955" lon=".551999"><ele>127.880</ele><time>2026-04-17T08:17:51Z</time></trkpt><trkpt lat="40.779562" lon=".552036"><ele>127.631</ele><time>2026-04-17T08:17:52Z</time></trkpt><trkpt lat="40.779574" lon=".552075"><ele>127.677</ele><time>2026-04-17T08:17:53Z</time></trkpt><trkpt lat="40.779584" lon=".552117"><ele>127.818</ele><time>2026-04-17T08:17:54Z</time></trkpt><trkpt lat="40.779601" lon=".552207"><ele>128.216</ele><time>2026-04-17T08:17:56Z</time></trkpt><trkpt lat="40.779606" lon=".552249"><ele>128.244</ele><time>2026-04-17T08:17:57Z</time></trkpt><trkpt lat="40.779627" lon=".552366"><ele>129.673</ele><time>2026-04-17T08:18:00Z</time></trkpt><trkpt lat="40.779635" lon=".552404"><ele>129.885</ele><time>2026-04-17T08:18:01Z</time></trkpt><trkpt lat="40.779649" lon=".552482"><ele>130.813</ele><time>2026-04-17T08:18:03Z</time></trkpt><trkpt lat="40.779656" lon=".552516"><ele>131.009</ele><time>2026-04-17T08:18:04Z</time></trkpt><trkpt lat="40.779665" lon=".552562"><ele>131.049</ele><time>2026-04-17T08:18:05Z</time></trkpt><trkpt lat="40.779672" lon=".552597"><ele>131.293</ele><time>2026-04-17T08:18:06Z</time></trkpt><trkpt lat="40.779681" lon=".552635"><ele>131.657</ele><time>2026-04-17T08:18:07Z</time></trkpt><trkpt lat="40.779689" lon=".552675"><ele>131.810</ele><time>2026-04-17T08:18:08Z</time></trkpt><trkpt lat="40.779701" lon=".552709"><ele>132.281</ele><time>2026-04-17T08:18:09Z</time></trkpt><trkpt lat="40.779722" lon=".552734"><ele>132.427</ele><time>2026-04-17T08:18:10Z</time></trkpt><trkpt lat="40.779743" lon=".55276"><ele>132.868</ele><time>2026-04-17T08:18:11Z</time></trkpt><trkpt lat="40.779763" lon=".55279"><ele>133.216</ele><time>2026-04-17T08:18:12Z</time></trkpt><trkpt lat="40.779779" lon=".552819"><ele>133.244</ele><time>2026-04-17T08:18:13Z</time></trkpt><trkpt lat="40.779792" lon=".552853"><ele>133.882</ele><time>2026-04-17T08:18:14Z</time></trkpt><trkpt lat="40.7798" lon=".552885"><ele>134.243</ele><time>2026-04-17T08:18:15Z</time></trkpt><trkpt lat="40.779808" lon=".552909"><ele>135.217</ele><time>2026-04-17T08:18:16Z</time></trkpt><trkpt lat="40.779817" lon=".55292"><ele>135.609</ele><time>2026-04-17T08:18:17Z</time></trkpt><trkpt lat="40.779822" lon=".55292"><ele>136.430</ele><time>2026-04-17T08:18:18Z</time></trkpt><trkpt lat="40.779824" lon=".552923"><ele>136.644</ele><time>2026-04-17T08:18:19Z</time></trkpt><trkpt lat="40.779831" lon=".55293"><ele>137.218</ele><time>2026-04-17T08:18:20Z</time></trkpt><trkpt lat="40.779837" lon=".552941"><ele>137.611</ele><time>2026-04-17T08:18:21Z</time></trkpt><trkpt lat="40.779851" lon=".552965"><ele>137.892</ele><time>2026-04-17T08:18:22Z</time></trkpt><trkpt lat="40.779865" lon=".552996"><ele>138.028</ele><time>2026-04-17T08:18:23Z</time></trkpt><trkpt lat="40.779878" lon=".553035"><ele>138.259</ele><time>2026-04-17T08:18:24Z</time></trkpt><trkpt lat="40.779893" lon=".553077"><ele>138.227</ele><time>2026-04-17T08:18:25Z</time></trkpt><trkpt lat="40.779909" lon=".553117"><ele>138.465</ele><time>2026-04-17T08:18:26Z</time></trkpt><trkpt lat="40.779929" lon=".553155"><ele>138.474</ele><time>2026-04-17T08:18:27Z</time></trkpt><trkpt lat="40.779952" lon=".553191"><ele>138.456</ele><time>2026-04-17T08:18:28Z</time></trkpt><trkpt lat="40.779977" lon=".553226"><ele>138.421</ele><time>2026-04-17T08:18:29Z</time></trkpt><trkpt lat="40.780001" lon=".553262"><ele>138.409</ele><time>2026-04-17T08:18:30Z</time></trkpt><trkpt lat="40.780019" lon=".553302"><ele>138.639</ele><time>2026-04-17T08:18:31Z</time></trkpt><trkpt lat="40.78003" lon=".553343"><ele>138.853</ele><time>2026-04-17T08:18:32Z</time></trkpt><trkpt lat="40.780036" lon=".553383"><ele>139.097</ele><time>2026-04-17T08:18:33Z</time></trkpt><trkpt lat="40.780037" lon=".553428"><ele>139.040</ele><time>2026-04-17T08:18:34Z</time></trkpt><trkpt lat="40.780036" lon=".553473"><ele>139.061</ele><time>2026-04-17T08:18:35Z</time></trkpt><trkpt lat="40.780033" lon=".553521"><ele>139.477</ele><time>2026-04-17T08:18:36Z</time></trkpt><trkpt lat="40.780025" lon=".553568"><ele>139.688</ele><time>2026-04-17T08:18:37Z</time></trkpt><trkpt lat="40.78002" lon=".553609"><ele>140.026</ele><time>2026-04-17T08:18:38Z</time></trkpt><trkpt lat="40.780021" lon=".553646"><ele>140.464</ele><time>2026-04-17T08:18:39Z</time></trkpt><trkpt lat="40.780022" lon=".553682"><ele>140.413</ele><time>2026-04-17T08:18:40Z</time></trkpt><trkpt lat="40.780023" lon=".553722"><ele>140.643</ele><time>2026-04-17T08:18:41Z</time></trkpt><trkpt lat="40.780019" lon=".553771"><ele>140.607</ele><time>2026-04-17T08:18:42Z</time></trkpt><trkpt lat="40.780013" lon=".553823"><ele>140.609</ele><time>2026-04-17T08:18:43Z</time></trkpt><trkpt lat="40.780003" lon=".55387"><ele>140.683</ele><time>2026-04-17T08:18:44Z</time></trkpt><trkpt lat="40.77999" lon=".55392"><ele>140.637</ele><time>2026-04-17T08:18:45Z</time></trkpt><trkpt lat="40.77998" lon=".553973"><ele>141.471</ele><time>2026-04-17T08:18:46Z</time></trkpt><trkpt lat="40.779975" lon=".55403"><ele>141.664</ele><time>2026-04-17T08:18:47Z</time></trkpt><trkpt lat="40.77997" lon=".554089"><ele>141.015</ele><time>2026-04-17T08:18:48Z</time></trkpt><trkpt lat="40.779965" lon=".554155"><ele>141.481</ele><time>2026-04-17T08:18:49Z</time></trkpt><trkpt lat="40.779965" lon=".554225"><ele>141.282</ele><time>2026-04-17T08:18:50Z</time></trkpt><trkpt lat="40.779973" lon=".554296"><ele>140.820</ele><time>2026-04-17T08:18:51Z</time></trkpt><trkpt lat="40.779985" lon=".554373"><ele>140.638</ele><time>2026-04-17T08:18:52Z</time></trkpt><trkpt lat="40.779988" lon=".554447"><ele>140.493</ele><time>2026-04-17T08:18:53Z</time></trkpt><trkpt lat="40.779984" lon=".554517"><ele>140.065</ele><time>2026-04-17T08:18:54Z</time></trkpt><trkpt lat="40.779969" lon=".55458"><ele>139.621</ele><time>2026-04-17T08:18:55Z</time></trkpt><trkpt lat="40.779956" lon=".554625"><ele>139.409</ele><time>2026-04-17T08:18:56Z</time></trkpt><trkpt lat="40.779938" lon=".554662"><ele>139.211</ele><time>2026-04-17T08:18:57Z</time></trkpt><trkpt lat="40.779911" lon=".554701"><ele>139.235</ele><time>2026-04-17T08:18:58Z</time></trkpt><trkpt lat="40.77989" lon=".554748"><ele>138.849</ele><time>2026-04-17T08:18:59Z</time></trkpt><trkpt lat="40.779797" lon=".554957"><ele>138.842</ele><time>2026-04-17T08:19:02Z</time></trkpt><trkpt lat="40.779777" lon=".555033"><ele>138.883</ele><time>2026-04-17T08:19:03Z</time></trkpt><trkpt lat="40.779713" lon=".555221"><ele>138.229</ele><time>2026-04-17T08:19:07Z</time></trkpt><trkpt lat="40.779713" lon=".555221"><ele>137.890</ele><time>2026-04-17T08:19:08Z</time></trkpt><trkpt lat="40.779713" lon=".555221"><ele>137.678</ele><time>2026-04-17T08:19:09Z</time></trkpt><trkpt lat="40.779713" lon=".555215"><ele>137.446</ele><time>2026-04-17T08:19:10Z</time></trkpt><trkpt lat="40.779684" lon=".555289"><ele>137.078</ele><time>2026-04-17T08:19:51Z</time></trkpt><trkpt lat="40.779673" lon=".555317"><ele>137.033</ele><time>2026-04-17T08:19:52Z</time></trkpt><trkpt lat="40.779668" lon=".555353"><ele>136.826</ele><time>2026-04-17T08:19:53Z</time></trkpt><trkpt lat="40.779633" lon=".555513"><ele>136.609</ele><time>2026-04-17T08:19:56Z</time></trkpt><trkpt lat="40.779608" lon=".55559"><ele>136.479</ele><time>2026-04-17T08:19:57Z</time></trkpt><trkpt lat="40.779573" lon=".555743"><ele>135.073</ele><time>2026-04-17T08:19:59Z</time></trkpt><trkpt lat="40.779541" lon=".555831"><ele>134.037</ele><time>2026-04-17T08:20:00Z</time></trkpt><trkpt lat="40.779509" lon=".555916"><ele>133.080</ele><time>2026-04-17T08:20:01Z</time></trkpt><trkpt lat="40.779492" lon=".556008"><ele>131.811</ele><time>2026-04-17T08:20:02Z</time></trkpt><trkpt lat="40.77949" lon=".556082"><ele>131.287</ele><time>2026-04-17T08:20:03Z</time></trkpt><trkpt lat="40.779483" lon=".556196"><ele>130.888</ele><time>2026-04-17T08:20:04Z</time></trkpt><trkpt lat="40.779479" lon=".556294"><ele>130.226</ele><time>2026-04-17T08:20:05Z</time></trkpt><trkpt lat="40.779469" lon=".556391"><ele>130.024</ele><time>2026-04-17T08:20:06Z</time></trkpt><trkpt lat="40.779464" lon=".556476"><ele>129.625</ele><time>2026-04-17T08:20:07Z</time></trkpt><trkpt lat="40.779449" lon=".55656"><ele>129.626</ele><time>2026-04-17T08:20:08Z</time></trkpt><trkpt lat="40.779426" lon=".556647"><ele>129.408</ele><time>2026-04-17T08:20:09Z</time></trkpt><trkpt lat="40.779414" lon=".556729"><ele>129.409</ele><time>2026-04-17T08:20:10Z</time></trkpt><trkpt lat="40.779399" lon=".55681"><ele>129.294</ele><time>2026-04-17T08:20:11Z</time></trkpt><trkpt lat="40.779373" lon=".556878"><ele>129.068</ele><time>2026-04-17T08:20:12Z</time></trkpt><trkpt lat="40.779263" lon=".557065"><ele>129.212</ele><time>2026-04-17T08:20:15Z</time></trkpt><trkpt lat="40.779233" lon=".557132"><ele>129.655</ele><time>2026-04-17T08:20:16Z</time></trkpt><trkpt lat="40.779207" lon=".557198"><ele>129.696</ele><time>2026-04-17T08:20:17Z</time></trkpt><trkpt lat="40.779179" lon=".557267"><ele>129.652</ele><time>2026-04-17T08:20:18Z</time></trkpt><trkpt lat="40.779133" lon=".557407"><ele>129.863</ele><time>2026-04-17T08:20:20Z</time></trkpt><trkpt lat="40.779046" lon=".557864"><ele>130.011</ele><time>2026-04-17T08:20:26Z</time></trkpt><trkpt lat="40.779032" lon=".557946"><ele>130.039</ele><time>2026-04-17T08:20:27Z</time></trkpt><trkpt lat="40.779017" lon=".558107"><ele>129.436</ele><time>2026-04-17T08:20:29Z</time></trkpt><trkpt lat="40.779026" lon=".558183"><ele>128.817</ele><time>2026-04-17T08:20:30Z</time></trkpt><trkpt lat="40.779045" lon=".558255"><ele>128.618</ele><time>2026-04-17T08:20:31Z</time></trkpt><trkpt lat="40.779074" lon=".558319"><ele>128.409</ele><time>2026-04-17T08:20:32Z</time></trkpt><trkpt lat="40.779109" lon=".558377"><ele>128.225</ele><time>2026-04-17T08:20:33Z</time></trkpt><trkpt lat="40.779146" lon=".558434"><ele>128.269</ele><time>2026-04-17T08:20:34Z</time></trkpt><trkpt lat="40.779183" lon=".558492"><ele>128.093</ele><time>2026-04-17T08:20:35Z</time></trkpt><trkpt lat="40.779218" lon=".558551"><ele>128.036</ele><time>2026-04-17T08:20:36Z</time></trkpt><trkpt lat="40.779252" lon=".558608"><ele>128.027</ele><time>2026-04-17T08:20:37Z</time></trkpt><trkpt lat="40.779289" lon=".558662"><ele>128.083</ele><time>2026-04-17T08:20:38Z</time></trkpt><trkpt lat="40.779331" lon=".55871"><ele>128.084</ele><time>2026-04-17T08:20:39Z</time></trkpt><trkpt lat="40.779374" lon=".558757"><ele>128.072</ele><time>2026-04-17T08:20:40Z</time></trkpt><trkpt lat="40.779421" lon=".558797"><ele>128.050</ele><time>2026-04-17T08:20:41Z</time></trkpt><trkpt lat="40.779472" lon=".558824"><ele>128.024</ele><time>2026-04-17T08:20:42Z</time></trkpt><trkpt lat="40.779513" lon=".558842"><ele>127.804</ele><time>2026-04-17T08:20:43Z</time></trkpt><trkpt lat="40.779566" lon=".558876"><ele>127.814</ele><time>2026-04-17T08:20:44Z</time></trkpt><trkpt lat="40.779607" lon=".558909"><ele>127.809</ele><time>2026-04-17T08:20:45Z</time></trkpt><trkpt lat="40.779649" lon=".558944"><ele>127.854</ele><time>2026-04-17T08:20:46Z</time></trkpt><trkpt lat="40.779697" lon=".558973"><ele>127.848</ele><time>2026-04-17T08:20:47Z</time></trkpt><trkpt lat="40.77981" lon=".558969"><ele>127.612</ele><time>2026-04-17T08:20:49Z</time></trkpt><trkpt lat="40.779867" lon=".558939"><ele>127.435</ele><time>2026-04-17T08:20:50Z</time></trkpt><trkpt lat="40.779975" lon=".55888"><ele>127.456</ele><time>2026-04-17T08:20:52Z</time></trkpt><trkpt lat="40.780044" lon=".558851"><ele>127.472</ele><time>2026-04-17T08:20:53Z</time></trkpt><trkpt lat="40.780096" lon=".558849"><ele>127.083</ele><time>2026-04-17T08:20:54Z</time></trkpt><trkpt lat="40.780135" lon=".558868"><ele>127.061</ele><time>2026-04-17T08:20:55Z</time></trkpt><trkpt lat="40.780155" lon=".558902"><ele>127.099</ele><time>2026-04-17T08:20:56Z</time></trkpt><trkpt lat="40.780171" lon=".55895"><ele>126.645</ele><time>2026-04-17T08:20:57Z</time></trkpt><trkpt lat="40.780189" lon=".55901"><ele>126.647</ele><time>2026-04-17T08:20:58Z</time></trkpt><trkpt lat="40.780218" lon=".559081"><ele>126.411</ele><time>2026-04-17T08:20:59Z</time></trkpt><trkpt lat="40.780239" lon=".559159"><ele>126.409</ele><time>2026-04-17T08:21:00Z</time></trkpt><trkpt lat="40.780214" lon=".559303"><ele>126.426</ele><time>2026-04-17T08:21:02Z</time></trkpt><trkpt lat="40.780193" lon=".559355"><ele>126.470</ele><time>2026-04-17T08:21:03Z</time></trkpt><trkpt lat="40.780175" lon=".559404"><ele>126.414</ele><time>2026-04-17T08:21:04Z</time></trkpt><trkpt lat="40.78016" lon=".559451"><ele>126.477</ele><time>2026-04-17T08:21:05Z</time></trkpt><trkpt lat="40.78015" lon=".559498"><ele>126.658</ele><time>2026-04-17T08:21:06Z</time></trkpt><trkpt lat="40.780145" lon=".559536"><ele>126.684</ele><time>2026-04-17T08:21:07Z</time></trkpt><trkpt lat="40.78014" lon=".559588"><ele>126.685</ele><time>2026-04-17T08:21:08Z</time></trkpt><trkpt lat="40.780133" lon=".559631"><ele>126.823</ele><time>2026-04-17T08:21:09Z</time></trkpt><trkpt lat="40.780127" lon=".559678"><ele>127.621</ele><time>2026-04-17T08:21:10Z</time></trkpt><trkpt lat="40.780121" lon=".55973"><ele>127.855</ele><time>2026-04-17T08:21:11Z</time></trkpt><trkpt lat="40.780117" lon=".559786"><ele>128.207</ele><time>2026-04-17T08:21:12Z</time></trkpt><trkpt lat="40.780122" lon=".559835"><ele>128.417</ele><time>2026-04-17T08:21:13Z</time></trkpt><trkpt lat="40.780139" lon=".559871"><ele>128.409</ele><time>2026-04-17T08:21:14Z</time></trkpt><trkpt lat="40.780162" lon=".559899"><ele>128.857</ele><time>2026-04-17T08:21:15Z</time></trkpt><trkpt lat="40.780188" lon=".55993"><ele>128.821</ele><time>2026-04-17T08:21:16Z</time></trkpt><trkpt lat="40.780216" lon=".559967"><ele>129.035</ele><time>2026-04-17T08:21:17Z</time></trkpt><trkpt lat="40.780316" lon=".560113"><ele>129.218</ele><time>2026-04-17T08:21:20Z</time></trkpt><trkpt lat="40.780447" lon=".560268"><ele>129.259</ele><time>2026-04-17T08:21:23Z</time></trkpt><trkpt lat="40.780502" lon=".560311"><ele>129.265</ele><time>2026-04-17T08:21:24Z</time></trkpt><trkpt lat="40.780564" lon=".560346"><ele>129.256</ele><time>2026-04-17T08:21:25Z</time></trkpt><trkpt lat="40.780687" lon=".560414"><ele>128.084</ele><time>2026-04-17T08:21:27Z</time></trkpt><trkpt lat="40.780744" lon=".560459"><ele>126.852</ele><time>2026-04-17T08:21:28Z</time></trkpt><trkpt lat="40.780788" lon=".560517"><ele>126.491</ele><time>2026-04-17T08:21:29Z</time></trkpt><trkpt lat="40.780807" lon=".56059"><ele>126.281</ele><time>2026-04-17T08:21:30Z</time></trkpt><trkpt lat="40.780804" lon=".560661"><ele>126.019</ele><time>2026-04-17T08:21:31Z</time></trkpt><trkpt lat="40.78079" lon=".560727"><ele>125.809</ele><time>2026-04-17T08:21:32Z</time></trkpt><trkpt lat="40.780773" lon=".560786"><ele>125.821</ele><time>2026-04-17T08:21:33Z</time></trkpt><trkpt lat="40.780754" lon=".560843"><ele>125.815</ele><time>2026-04-17T08:21:34Z</time></trkpt><trkpt lat="40.780734" lon=".560895"><ele>126.089</ele><time>2026-04-17T08:21:35Z</time></trkpt><trkpt lat="40.780716" lon=".560945"><ele>126.072</ele><time>2026-04-17T08:21:36Z</time></trkpt><trkpt lat="40.780706" lon=".560983"><ele>126.463</ele><time>2026-04-17T08:21:37Z</time></trkpt><trkpt lat="40.780698" lon=".561044"><ele>126.889</ele><time>2026-04-17T08:21:38Z</time></trkpt><trkpt lat="40.780702" lon=".561098"><ele>127.070</ele><time>2026-04-17T08:21:39Z</time></trkpt><trkpt lat="40.780712" lon=".561152"><ele>127.238</ele><time>2026-04-17T08:21:40Z</time></trkpt><trkpt lat="40.780726" lon=".56121"><ele>127.216</ele><time>2026-04-17T08:21:41Z</time></trkpt><trkpt lat="40.780739" lon=".561271"><ele>127.419</ele><time>2026-04-17T08:21:42Z</time></trkpt><trkpt lat="40.780751" lon=".561331"><ele>127.609</ele><time>2026-04-17T08:21:43Z</time></trkpt><trkpt lat="40.780772" lon=".561434"><ele>127.819</ele><time>2026-04-17T08:21:45Z</time></trkpt><trkpt lat="40.780783" lon=".56148"><ele>128.009</ele><time>2026-04-17T08:21:46Z</time></trkpt><trkpt lat="40.780797" lon=".561525"><ele>128.263</ele><time>2026-04-17T08:21:47Z</time></trkpt><trkpt lat="40.780814" lon=".561567"><ele>128.487</ele><time>2026-04-17T08:21:48Z</time></trkpt><trkpt lat="40.78084" lon=".561605"><ele>128.651</ele><time>2026-04-17T08:21:49Z</time></trkpt><trkpt lat="40.780873" lon=".561634"><ele>128.614</ele><time>2026-04-17T08:21:50Z</time></trkpt><trkpt lat="40.780912" lon=".56166"><ele>128.875</ele><time>2026-04-17T08:21:51Z</time></trkpt><trkpt lat="40.780953" lon=".561682"><ele>128.831</ele><time>2026-04-17T08:21:52Z</time></trkpt><trkpt lat="40.780994" lon=".561703"><ele>129.082</ele><time>2026-04-17T08:21:53Z</time></trkpt><trkpt lat="40.781033" lon=".561731"><ele>129.230</ele><time>2026-04-17T08:21:54Z</time></trkpt><trkpt lat="40.781069" lon=".561762"><ele>129.258</ele><time>2026-04-17T08:21:55Z</time></trkpt><trkpt lat="40.78112" lon=".561841"><ele>129.623</ele><time>2026-04-17T08:21:57Z</time></trkpt><trkpt lat="40.781137" lon=".561894"><ele>129.683</ele><time>2026-04-17T08:21:58Z</time></trkpt><trkpt lat="40.781154" lon=".561951"><ele>129.611</ele><time>2026-04-17T08:21:59Z</time></trkpt><trkpt lat="40.781176" lon=".562006"><ele>129.809</ele><time>2026-04-17T08:22:00Z</time></trkpt><trkpt lat="40.781208" lon=".562052"><ele>129.874</ele><time>2026-04-17T08:22:01Z</time></trkpt><trkpt lat="40.78125" lon=".56209"><ele>129.878</ele><time>2026-04-17T08:22:02Z</time></trkpt><trkpt lat="40.781297" lon=".562115"><ele>129.812</ele><time>2026-04-17T08:22:03Z</time></trkpt><trkpt lat="40.781348" lon=".562128"><ele>129.685</ele><time>2026-04-17T08:22:04Z</time></trkpt><trkpt lat="40.781399" lon=".562133"><ele>129.216</ele><time>2026-04-17T08:22:05Z</time></trkpt><trkpt lat="40.781444" lon=".562132"><ele>129.022</ele><time>2026-04-17T08:22:06Z</time></trkpt><trkpt lat="40.781483" lon=".562122"><ele>128.213</ele><time>2026-04-17T08:22:07Z</time></trkpt><trkpt lat="40.781516" lon=".562108"><ele>128.071</ele><time>2026-04-17T08:22:08Z</time></trkpt><trkpt lat="40.781547" lon=".562097"><ele>127.479</ele><time>2026-04-17T08:22:09Z</time></trkpt><trkpt lat="40.781584" lon=".562098"><ele>127.462</ele><time>2026-04-17T08:22:10Z</time></trkpt><trkpt lat="40.781622" lon=".562097"><ele>126.883</ele><time>2026-04-17T08:22:11Z</time></trkpt><trkpt lat="40.781662" lon=".562091"><ele>126.011</ele><time>2026-04-17T08:22:12Z</time></trkpt><trkpt lat="40.781709" lon=".562087"><ele>125.809</ele><time>2026-04-17T08:22:13Z</time></trkpt><trkpt lat="40.781758" lon=".562091"><ele>125.618</ele><time>2026-04-17T08:22:14Z</time></trkpt><trkpt lat="40.781821" lon=".56213"><ele>124.672</ele><time>2026-04-17T08:22:16Z</time></trkpt><trkpt lat="40.781845" lon=".562154"><ele>124.436</ele><time>2026-04-17T08:22:17Z</time></trkpt><trkpt lat="40.781906" lon=".562198"><ele>123.699</ele><time>2026-04-17T08:22:19Z</time></trkpt><trkpt lat="40.78194" lon=".562204"><ele>123.410</ele><time>2026-04-17T08:22:20Z</time></trkpt><trkpt lat="40.781977" lon=".562201"><ele>123.046</ele><time>2026-04-17T08:22:21Z</time></trkpt><trkpt lat="40.78202" lon=".562187"><ele>122.897</ele><time>2026-04-17T08:22:22Z</time></trkpt><trkpt lat="40.782056" lon=".562166"><ele>122.685</ele><time>2026-04-17T08:22:23Z</time></trkpt><trkpt lat="40.78209" lon=".56215"><ele>122.223</ele><time>2026-04-17T08:22:24Z</time></trkpt><trkpt lat="40.782135" lon=".562141"><ele>121.849</ele><time>2026-04-17T08:22:25Z</time></trkpt><trkpt lat="40.782188" lon=".562139"><ele>121.602</ele><time>2026-04-17T08:22:26Z</time></trkpt><trkpt lat="40.782248" lon=".56215"><ele>121.022</ele><time>2026-04-17T08:22:27Z</time></trkpt><trkpt lat="40.782303" lon=".562174"><ele>120.809</ele><time>2026-04-17T08:22:28Z</time></trkpt><trkpt lat="40.782338" lon=".562207"><ele>120.456</ele><time>2026-04-17T08:22:29Z</time></trkpt><trkpt lat="40.782352" lon=".562242"><ele>120.420</ele><time>2026-04-17T08:22:30Z</time></trkpt><trkpt lat="40.782356" lon=".562272"><ele>120.414</ele><time>2026-04-17T08:22:31Z</time></trkpt><trkpt lat="40.782349" lon=".562302"><ele>120.467</ele><time>2026-04-17T08:22:32Z</time></trkpt><trkpt lat="40.782332" lon=".562315"><ele>120.458</ele><time>2026-04-17T08:22:33Z</time></trkpt><trkpt lat="40.782315" lon=".562333"><ele>120.424</ele><time>2026-04-17T08:22:34Z</time></trkpt><trkpt lat="40.782299" lon=".562353"><ele>120.415</ele><time>2026-04-17T08:22:35Z</time></trkpt><trkpt lat="40.782296" lon=".56236"><ele>120.423</ele><time>2026-04-17T08:22:36Z</time></trkpt><trkpt lat="40.782296" lon=".56236"><ele>120.661</ele><time>2026-04-17T08:22:37Z</time></trkpt><trkpt lat="40.782296" lon=".56236"><ele>120.892</ele><time>2026-04-17T08:22:38Z</time></trkpt><trkpt lat="40.782296" lon=".56236"><ele>121.673</ele><time>2026-04-17T08:22:39Z</time></trkpt><trkpt lat="40.782296" lon=".56236"><ele>121.820</ele><time>2026-04-17T08:22:40Z</time></trkpt><trkpt lat="40.782291" lon=".56237"><ele>122.009</ele><time>2026-04-17T08:22:41Z</time></trkpt><trkpt lat="40.782254" lon=".562416"><ele>122.671</ele><time>2026-04-17T08:22:45Z</time></trkpt><trkpt lat="40.782243" lon=".562428"><ele>122.825</ele><time>2026-04-17T08:22:46Z</time></trkpt><trkpt lat="40.782223" lon=".56245"><ele>122.859</ele><time>2026-04-17T08:22:47Z</time></trkpt><trkpt lat="40.782202" lon=".56247"><ele>123.072</ele><time>2026-04-17T08:22:48Z</time></trkpt><trkpt lat="40.782179" lon=".562506"><ele>123.033</ele><time>2026-04-17T08:22:49Z</time></trkpt><trkpt lat="40.782155" lon=".562546"><ele>123.299</ele><time>2026-04-17T08:22:50Z</time></trkpt><trkpt lat="40.782135" lon=".562613"><ele>123.440</ele><time>2026-04-17T08:22:52Z</time></trkpt><trkpt lat="40.782119" lon=".562643"><ele>123.488</ele><time>2026-04-17T08:22:53Z</time></trkpt><trkpt lat="40.782094" lon=".562677"><ele>124.026</ele><time>2026-04-17T08:22:54Z</time></trkpt><trkpt lat="40.782068" lon=".562701"><ele>124.426</ele><time>2026-04-17T08:22:55Z</time></trkpt><trkpt lat="40.782034" lon=".562736"><ele>124.647</ele><time>2026-04-17T08:22:56Z</time></trkpt><trkpt lat="40.782005" lon=".562757"><ele>124.811</ele><time>2026-04-17T08:22:57Z</time></trkpt><trkpt lat="40.781989" lon=".562789"><ele>125.009</ele><time>2026-04-17T08:22:58Z</time></trkpt><trkpt lat="40.781985" lon=".562824"><ele>125.424</ele><time>2026-04-17T08:22:59Z</time></trkpt><trkpt lat="40.78199" lon=".562857"><ele>125.688</ele><time>2026-04-17T08:23:00Z</time></trkpt><trkpt lat="40.782" lon=".562895"><ele>125.832</ele><time>2026-04-17T08:23:01Z</time></trkpt><trkpt lat="40.782013" lon=".562937"><ele>126.085</ele><time>2026-04-17T08:23:02Z</time></trkpt><trkpt lat="40.782033" lon=".562971"><ele>126.476</ele><time>2026-04-17T08:23:03Z</time></trkpt><trkpt lat="40.782053" lon=".562996"><ele>126.872</ele><time>2026-04-17T08:23:04Z</time></trkpt><trkpt lat="40.782068" lon=".563026"><ele>126.893</ele><time>2026-04-17T08:23:05Z</time></trkpt><trkpt lat="40.782072" lon=".563061"><ele>127.041</ele><time>2026-04-17T08:23:06Z</time></trkpt><trkpt lat="40.782074" lon=".5631"><ele>127.079</ele><time>2026-04-17T08:23:07Z</time></trkpt><trkpt lat="40.782074" lon=".563141"><ele>127.216</ele><time>2026-04-17T08:23:08Z</time></trkpt><trkpt lat="40.782072" lon=".563179"><ele>127.276</ele><time>2026-04-17T08:23:09Z</time></trkpt><trkpt lat="40.782064" lon=".563209"><ele>127.613</ele><time>2026-04-17T08:23:10Z</time></trkpt><trkpt lat="40.782051" lon=".563236"><ele>127.609</ele><time>2026-04-17T08:23:11Z</time></trkpt><trkpt lat="40.782036" lon=".563261"><ele>127.813</ele><time>2026-04-17T08:23:12Z</time></trkpt><trkpt lat="40.782028" lon=".563281"><ele>128.277</ele><time>2026-04-17T08:23:13Z</time></trkpt><trkpt lat="40.782023" lon=".563303"><ele>128.691</ele><time>2026-04-17T08:23:14Z</time></trkpt><trkpt lat="40.782014" lon=".563333"><ele>129.424</ele><time>2026-04-17T08:23:15Z</time></trkpt><trkpt lat="40.782002" lon=".563362"><ele>129.695</ele><time>2026-04-17T08:23:16Z</time></trkpt><trkpt lat="40.781984" lon=".563384"><ele>130.061</ele><time>2026-04-17T08:23:17Z</time></trkpt><trkpt lat="40.781965" lon=".5634"><ele>130.242</ele><time>2026-04-17T08:23:18Z</time></trkpt><trkpt lat="40.781944" lon=".563413"><ele>130.820</ele><time>2026-04-17T08:23:19Z</time></trkpt><trkpt lat="40.781915" lon=".563422"><ele>131.078</ele><time>2026-04-17T08:23:20Z</time></trkpt><trkpt lat="40.781879" lon=".563432"><ele>132.032</ele><time>2026-04-17T08:23:21Z</time></trkpt><trkpt lat="40.781845" lon=".563449"><ele>132.492</ele><time>2026-04-17T08:23:22Z</time></trkpt><trkpt lat="40.781819" lon=".563475"><ele>132.611</ele><time>2026-04-17T08:23:23Z</time></trkpt><trkpt lat="40.781801" lon=".563506"><ele>133.009</ele><time>2026-04-17T08:23:24Z</time></trkpt><trkpt lat="40.781786" lon=".56354"><ele>133.215</ele><time>2026-04-17T08:23:25Z</time></trkpt><trkpt lat="40.781782" lon=".563566"><ele>133.499</ele><time>2026-04-17T08:23:26Z</time></trkpt><trkpt lat="40.781789" lon=".563584"><ele>133.693</ele><time>2026-04-17T08:23:27Z</time></trkpt><trkpt lat="40.781796" lon=".563597"><ele>134.246</ele><time>2026-04-17T08:23:28Z</time></trkpt><trkpt lat="40.781805" lon=".563613"><ele>134.677</ele><time>2026-04-17T08:23:29Z</time></trkpt><trkpt lat="40.78182" lon=".563631"><ele>135.253</ele><time>2026-04-17T08:23:30Z</time></trkpt><trkpt lat="40.78184" lon=".56365"><ele>135.644</ele><time>2026-04-17T08:23:31Z</time></trkpt><trkpt lat="40.781862" lon=".563665"><ele>135.882</ele><time>2026-04-17T08:23:32Z</time></trkpt><trkpt lat="40.781883" lon=".563678"><ele>136.010</ele><time>2026-04-17T08:23:33Z</time></trkpt><trkpt lat="40.781904" lon=".563694"><ele>136.032</ele><time>2026-04-17T08:23:34Z</time></trkpt><trkpt lat="40.781923" lon=".563718"><ele>136.292</ele><time>2026-04-17T08:23:35Z</time></trkpt><trkpt lat="40.781934" lon=".56375"><ele>136.411</ele><time>2026-04-17T08:23:36Z</time></trkpt><trkpt lat="40.781943" lon=".563789"><ele>136.609</ele><time>2026-04-17T08:23:37Z</time></trkpt><trkpt lat="40.781955" lon=".563832"><ele>136.825</ele><time>2026-04-17T08:23:38Z</time></trkpt><trkpt lat="40.781971" lon=".563872"><ele>137.069</ele><time>2026-04-17T08:23:39Z</time></trkpt><trkpt lat="40.781985" lon=".563906"><ele>137.443</ele><time>2026-04-17T08:23:40Z</time></trkpt><trkpt lat="40.781998" lon=".563936"><ele>137.656</ele><time>2026-04-17T08:23:41Z</time></trkpt><trkpt lat="40.782009" lon=".563969"><ele>138.017</ele><time>2026-04-17T08:23:42Z</time></trkpt><trkpt lat="40.782019" lon=".564004"><ele>138.073</ele><time>2026-04-17T08:23:43Z</time></trkpt><trkpt lat="40.782027" lon=".564041"><ele>138.484</ele><time>2026-04-17T08:23:44Z</time></trkpt><trkpt lat="40.782034" lon=".56408"><ele>138.642</ele><time>2026-04-17T08:23:45Z</time></trkpt><trkpt lat="40.782043" lon=".56412"><ele>138.820</ele><time>2026-04-17T08:23:46Z</time></trkpt><trkpt lat="40.782058" lon=".564159"><ele>139.072</ele><time>2026-04-17T08:23:47Z</time></trkpt><trkpt lat="40.782075" lon=".564196"><ele>139.013</ele><time>2026-04-17T08:23:48Z</time></trkpt><trkpt lat="40.782083" lon=".564228"><ele>139.414</ele><time>2026-04-17T08:23:49Z</time></trkpt><trkpt lat="40.78208" lon=".564264"><ele>139.409</ele><time>2026-04-17T08:23:50Z</time></trkpt><trkpt lat="40.782071" lon=".564307"><ele>139.659</ele><time>2026-04-17T08:23:51Z</time></trkpt><trkpt lat="40.782066" lon=".564351"><ele>139.823</ele><time>2026-04-17T08:23:52Z</time></trkpt><trkpt lat="40.78207" lon=".564395"><ele>140.077</ele><time>2026-04-17T08:23:53Z</time></trkpt><trkpt lat="40.782083" lon=".564435"><ele>140.220</ele><time>2026-04-17T08:23:54Z</time></trkpt><trkpt lat="40.782103" lon=".564472"><ele>140.411</ele><time>2026-04-17T08:23:55Z</time></trkpt><trkpt lat="40.782125" lon=".564507"><ele>140.467</ele><time>2026-04-17T08:23:56Z</time></trkpt><trkpt lat="40.782147" lon=".56454"><ele>140.678</ele><time>2026-04-17T08:23:57Z</time></trkpt><trkpt lat="40.782162" lon=".564575"><ele>140.896</ele><time>2026-04-17T08:23:58Z</time></trkpt><trkpt lat="40.782166" lon=".564615"><ele>140.814</ele><time>2026-04-17T08:23:59Z</time></trkpt><trkpt lat="40.782173" lon=".564653"><ele>141.052</ele><time>2026-04-17T08:24:00Z</time></trkpt><trkpt lat="40.782187" lon=".564688"><ele>141.053</ele><time>2026-04-17T08:24:01Z</time></trkpt><trkpt lat="40.782201" lon=".564717"><ele>141.408</ele><time>2026-04-17T08:24:02Z</time></trkpt><trkpt lat="40.782214" lon=".564742"><ele>141.409</ele><time>2026-04-17T08:24:03Z</time></trkpt><trkpt lat="40.782218" lon=".564768"><ele>141.837</ele><time>2026-04-17T08:24:04Z</time></trkpt><trkpt lat="40.782214" lon=".564796"><ele>142.291</ele><time>2026-04-17T08:24:05Z</time></trkpt><trkpt lat="40.782209" lon=".564823"><ele>142.425</ele><time>2026-04-17T08:24:06Z</time></trkpt><trkpt lat="40.782207" lon=".564851"><ele>143.058</ele><time>2026-04-17T08:24:07Z</time></trkpt><trkpt lat="40.78221" lon=".564878"><ele>143.229</ele><time>2026-04-17T08:24:08Z</time></trkpt><trkpt lat="40.782221" lon=".5649"><ele>143.815</ele><time>2026-04-17T08:24:09Z</time></trkpt><trkpt lat="40.782233" lon=".564925"><ele>144.486</ele><time>2026-04-17T08:24:10Z</time></trkpt><trkpt lat="40.782244" lon=".564953"><ele>145.064</ele><time>2026-04-17T08:24:11Z</time></trkpt><trkpt lat="40.782247" lon=".564987"><ele>145.242</ele><time>2026-04-17T08:24:12Z</time></trkpt><trkpt lat="40.782251" lon=".565027"><ele>145.666</ele><time>2026-04-17T08:24:13Z</time></trkpt><trkpt lat="40.782262" lon=".565067"><ele>146.029</ele><time>2026-04-17T08:24:14Z</time></trkpt><trkpt lat="40.782272" lon=".565108"><ele>146.421</ele><time>2026-04-17T08:24:15Z</time></trkpt><trkpt lat="40.782277" lon=".565149"><ele>146.609</ele><time>2026-04-17T08:24:16Z</time></trkpt><trkpt lat="40.782283" lon=".565188"><ele>146.848</ele><time>2026-04-17T08:24:17Z</time></trkpt><trkpt lat="40.782291" lon=".56522"><ele>147.292</ele><time>2026-04-17T08:24:18Z</time></trkpt><trkpt lat="40.782298" lon=".56525"><ele>147.646</ele><time>2026-04-17T08:24:19Z</time></trkpt><trkpt lat="40.782301" lon=".56528"><ele>148.229</ele><time>2026-04-17T08:24:20Z</time></trkpt><trkpt lat="40.782303" lon=".565313"><ele>148.690</ele><time>2026-04-17T08:24:21Z</time></trkpt><trkpt lat="40.782302" lon=".565342"><ele>148.886</ele><time>2026-04-17T08:24:22Z</time></trkpt><trkpt lat="40.782294" lon=".56537"><ele>149.827</ele><time>2026-04-17T08:24:23Z</time></trkpt><trkpt lat="40.782289" lon=".565397"><ele>150.075</ele><time>2026-04-17T08:24:24Z</time></trkpt><trkpt lat="40.782293" lon=".565427"><ele>151.023</ele><time>2026-04-17T08:24:25Z</time></trkpt><trkpt lat="40.782302" lon=".565451"><ele>151.243</ele><time>2026-04-17T08:24:26Z</time></trkpt><trkpt lat="40.782315" lon=".565466"><ele>151.864</ele><time>2026-04-17T08:24:27Z</time></trkpt><trkpt lat="40.782334" lon=".565472"><ele>152.010</ele><time>2026-04-17T08:24:28Z</time></trkpt><trkpt lat="40.782363" lon=".565473"><ele>152.209</ele><time>2026-04-17T08:24:29Z</time></trkpt><trkpt lat="40.782397" lon=".565476"><ele>152.496</ele><time>2026-04-17T08:24:30Z</time></trkpt><trkpt lat="40.782436" lon=".565486"><ele>152.410</ele><time>2026-04-17T08:24:31Z</time></trkpt><trkpt lat="40.782475" lon=".565514"><ele>152.414</ele><time>2026-04-17T08:24:32Z</time></trkpt><trkpt lat="40.782514" lon=".565564"><ele>152.487</ele><time>2026-04-17T08:24:33Z</time></trkpt><trkpt lat="40.782559" lon=".565628"><ele>152.438</ele><time>2026-04-17T08:24:34Z</time></trkpt><trkpt lat="40.782612" lon=".565698"><ele>152.454</ele><time>2026-04-17T08:24:35Z</time></trkpt><trkpt lat="40.782677" lon=".565769"><ele>152.465</ele><time>2026-04-17T08:24:36Z</time></trkpt><trkpt lat="40.782751" lon=".565841"><ele>152.093</ele><time>2026-04-17T08:24:37Z</time></trkpt><trkpt lat="40.782834" lon=".565916"><ele>150.451</ele><time>2026-04-17T08:24:38Z</time></trkpt><trkpt lat="40.782919" lon=".565994"><ele>148.439</ele><time>2026-04-17T08:24:39Z</time></trkpt><trkpt lat="40.782988" lon=".56608"><ele>147.601</ele><time>2026-04-17T08:24:40Z</time></trkpt><trkpt lat="40.783037" lon=".566173"><ele>146.021</ele><time>2026-04-17T08:24:41Z</time></trkpt><trkpt lat="40.783055" lon=".566262"><ele>145.609</ele><time>2026-04-17T08:24:42Z</time></trkpt><trkpt lat="40.783058" lon=".566339"><ele>145.075</ele><time>2026-04-17T08:24:43Z</time></trkpt><trkpt lat="40.78306" lon=".566404"><ele>145.069</ele><time>2026-04-17T08:24:44Z</time></trkpt><trkpt lat="40.783061" lon=".566457"><ele>144.863</ele><time>2026-04-17T08:24:45Z</time></trkpt><trkpt lat="40.783065" lon=".566502"><ele>144.846</ele><time>2026-04-17T08:24:46Z</time></trkpt><trkpt lat="40.783072" lon=".566545"><ele>144.877</ele><time>2026-04-17T08:24:47Z</time></trkpt><trkpt lat="40.783082" lon=".566588"><ele>145.853</ele><time>2026-04-17T08:24:48Z</time></trkpt><trkpt lat="40.783094" lon=".566633"><ele>146.274</ele><time>2026-04-17T08:24:49Z</time></trkpt><trkpt lat="40.783108" lon=".566678"><ele>147.442</ele><time>2026-04-17T08:24:50Z</time></trkpt><trkpt lat="40.783142" lon=".566761"><ele>148.620</ele><time>2026-04-17T08:24:52Z</time></trkpt><trkpt lat="40.783162" lon=".566798"><ele>148.891</ele><time>2026-04-17T08:24:53Z</time></trkpt><trkpt lat="40.783183" lon=".566831"><ele>149.681</ele><time>2026-04-17T08:24:54Z</time></trkpt><trkpt lat="40.783206" lon=".566863"><ele>150.019</ele><time>2026-04-17T08:24:55Z</time></trkpt><trkpt lat="40.783305" lon=".56699"><ele>151.409</ele><time>2026-04-17T08:24:59Z</time></trkpt><trkpt lat="40.783406" lon=".567075"><ele>152.081</ele><time>2026-04-17T08:25:02Z</time></trkpt><trkpt lat="40.783447" lon=".567096"><ele>152.015</ele><time>2026-04-17T08:25:03Z</time></trkpt><trkpt lat="40.783492" lon=".567115"><ele>152.279</ele><time>2026-04-17T08:25:04Z</time></trkpt><trkpt lat="40.783539" lon=".567134"><ele>152.282</ele><time>2026-04-17T08:25:05Z</time></trkpt><trkpt lat="40.783587" lon=".567158"><ele>152.233</ele><time>2026-04-17T08:25:06Z</time></trkpt><trkpt lat="40.783638" lon=".567186"><ele>152.269</ele><time>2026-04-17T08:25:07Z</time></trkpt><trkpt lat="40.783689" lon=".567219"><ele>152.090</ele><time>2026-04-17T08:25:08Z</time></trkpt><trkpt lat="40.783741" lon=".567252"><ele>152.018</ele><time>2026-04-17T08:25:09Z</time></trkpt><trkpt lat="40.783797" lon=".567281"><ele>151.856</ele><time>2026-04-17T08:25:10Z</time></trkpt><trkpt lat="40.78386" lon=".567305"><ele>151.833</ele><time>2026-04-17T08:25:11Z</time></trkpt><trkpt lat="40.783929" lon=".567324"><ele>151.223</ele><time>2026-04-17T08:25:12Z</time></trkpt><trkpt lat="40.784002" lon=".567343"><ele>150.815</ele><time>2026-04-17T08:25:13Z</time></trkpt><trkpt lat="40.784072" lon=".567361"><ele>150.409</ele><time>2026-04-17T08:25:14Z</time></trkpt><trkpt lat="40.784147" lon=".567383"><ele>149.895</ele><time>2026-04-17T08:25:15Z</time></trkpt><trkpt lat="40.784227" lon=".567406"><ele>149.459</ele><time>2026-04-17T08:25:16Z</time></trkpt><trkpt lat="40.784312" lon=".567429"><ele>149.013</ele><time>2026-04-17T08:25:17Z</time></trkpt><trkpt lat="40.784484" lon=".567474"><ele>147.826</ele><time>2026-04-17T08:25:19Z</time></trkpt><trkpt lat="40.784635" lon=".567571"><ele>146.277</ele><time>2026-04-17T08:25:21Z</time></trkpt><trkpt lat="40.784688" lon=".567632"><ele>144.863</ele><time>2026-04-17T08:25:22Z</time></trkpt><trkpt lat="40.784757" lon=".567737"><ele>144.474</ele><time>2026-04-17T08:25:23Z</time></trkpt><trkpt lat="40.784805" lon=".567831"><ele>143.832</ele><time>2026-04-17T08:25:24Z</time></trkpt><trkpt lat="40.784857" lon=".567925"><ele>143.470</ele><time>2026-04-17T08:25:25Z</time></trkpt><trkpt lat="40.784918" lon=".568007"><ele>143.059</ele><time>2026-04-17T08:25:26Z</time></trkpt><trkpt lat="40.784984" lon=".568073"><ele>142.603</ele><time>2026-04-17T08:25:27Z</time></trkpt><trkpt lat="40.785126" lon=".568156"><ele>142.023</ele><time>2026-04-17T08:25:29Z</time></trkpt><trkpt lat="40.785197" lon=".568159"><ele>141.809</ele><time>2026-04-17T08:25:30Z</time></trkpt><trkpt lat="40.785274" lon=".568129"><ele>141.497</ele><time>2026-04-17T08:25:31Z</time></trkpt><trkpt lat="40.785352" lon=".568087"><ele>141.461</ele><time>2026-04-17T08:25:32Z</time></trkpt><trkpt lat="40.78543" lon=".568041"><ele>141.215</ele><time>2026-04-17T08:25:33Z</time></trkpt><trkpt lat="40.785505" lon=".56799"><ele>141.048</ele><time>2026-04-17T08:25:34Z</time></trkpt><trkpt lat="40.785573" lon=".567936"><ele>140.829</ele><time>2026-04-17T08:25:35Z</time></trkpt><trkpt lat="40.785631" lon=".567873"><ele>140.875</ele><time>2026-04-17T08:25:36Z</time></trkpt><trkpt lat="40.785677" lon=".567794"><ele>140.416</ele><time>2026-04-17T08:25:37Z</time></trkpt><trkpt lat="40.785713" lon=".567703"><ele>140.014</ele><time>2026-04-17T08:25:38Z</time></trkpt><trkpt lat="40.785743" lon=".567607"><ele>140.052</ele><time>2026-04-17T08:25:39Z</time></trkpt><trkpt lat="40.785772" lon=".567512"><ele>139.613</ele><time>2026-04-17T08:25:40Z</time></trkpt><trkpt lat="40.785802" lon=".567423"><ele>139.643</ele><time>2026-04-17T08:25:41Z</time></trkpt><trkpt lat="40.785829" lon=".567334"><ele>139.607</ele><time>2026-04-17T08:25:42Z</time></trkpt><trkpt lat="40.785886" lon=".567178"><ele>139.609</ele><time>2026-04-17T08:25:44Z</time></trkpt><trkpt lat="40.785917" lon=".567123"><ele>139.673</ele><time>2026-04-17T08:25:45Z</time></trkpt><trkpt lat="40.785949" lon=".567084"><ele>139.837</ele><time>2026-04-17T08:25:46Z</time></trkpt><trkpt lat="40.785981" lon=".567053"><ele>140.091</ele><time>2026-04-17T08:25:47Z</time></trkpt><trkpt lat="40.78601" lon=".56703"><ele>140.284</ele><time>2026-04-17T08:25:48Z</time></trkpt><trkpt lat="40.786034" lon=".567012"><ele>140.885</ele><time>2026-04-17T08:25:49Z</time></trkpt><trkpt lat="40.786058" lon=".566998"><ele>141.091</ele><time>2026-04-17T08:25:50Z</time></trkpt><trkpt lat="40.78608" lon=".566988"><ele>141.842</ele><time>2026-04-17T08:25:51Z</time></trkpt><trkpt lat="40.786103" lon=".566979"><ele>142.630</ele><time>2026-04-17T08:25:52Z</time></trkpt><trkpt lat="40.786121" lon=".566967"><ele>143.478</ele><time>2026-04-17T08:25:53Z</time></trkpt><trkpt lat="40.786146" lon=".566957"><ele>143.898</ele><time>2026-04-17T08:25:54Z</time></trkpt><trkpt lat="40.786179" lon=".566945"><ele>144.815</ele><time>2026-04-17T08:25:55Z</time></trkpt><trkpt lat="40.786255" lon=".566924"><ele>145.826</ele><time>2026-04-17T08:25:57Z</time></trkpt><trkpt lat="40.786295" lon=".566913"><ele>146.409</ele><time>2026-04-17T08:25:58Z</time></trkpt><trkpt lat="40.786377" lon=".56689"><ele>147.081</ele><time>2026-04-17T08:26:00Z</time></trkpt><trkpt lat="40.786418" lon=".56688"><ele>147.085</ele><time>2026-04-17T08:26:01Z</time></trkpt><trkpt lat="40.78646" lon=".566868"><ele>147.479</ele><time>2026-04-17T08:26:02Z</time></trkpt><trkpt lat="40.786502" lon=".566861"><ele>147.652</ele><time>2026-04-17T08:26:03Z</time></trkpt><trkpt lat="40.786542" lon=".566856"><ele>147.853</ele><time>2026-04-17T08:26:04Z</time></trkpt><trkpt lat="40.786578" lon=".566852"><ele>148.279</ele><time>2026-04-17T08:26:05Z</time></trkpt><trkpt lat="40.786614" lon=".56685"><ele>148.260</ele><time>2026-04-17T08:26:06Z</time></trkpt><trkpt lat="40.786647" lon=".566852"><ele>148.418</ele><time>2026-04-17T08:26:07Z</time></trkpt><trkpt lat="40.786679" lon=".566857"><ele>148.626</ele><time>2026-04-17T08:26:08Z</time></trkpt><trkpt lat="40.786709" lon=".566863"><ele>148.859</ele><time>2026-04-17T08:26:09Z</time></trkpt><trkpt lat="40.78674" lon=".566868"><ele>149.003</ele><time>2026-04-17T08:26:10Z</time></trkpt><trkpt lat="40.78677" lon=".566873"><ele>149.423</ele><time>2026-04-17T08:26:11Z</time></trkpt><trkpt lat="40.7868" lon=".566881"><ele>149.809</ele><time>2026-04-17T08:26:12Z</time></trkpt><trkpt lat="40.786831" lon=".566889"><ele>150.477</ele><time>2026-04-17T08:26:13Z</time></trkpt><trkpt lat="40.786863" lon=".566897"><ele>150.681</ele><time>2026-04-17T08:26:14Z</time></trkpt><trkpt lat="40.786896" lon=".566906"><ele>151.045</ele><time>2026-04-17T08:26:15Z</time></trkpt><trkpt lat="40.786935" lon=".566914"><ele>151.228</ele><time>2026-04-17T08:26:16Z</time></trkpt><trkpt lat="40.786978" lon=".566921"><ele>151.299</ele><time>2026-04-17T08:26:17Z</time></trkpt><trkpt lat="40.787021" lon=".566926"><ele>151.475</ele><time>2026-04-17T08:26:18Z</time></trkpt><trkpt lat="40.787062" lon=".566931"><ele>151.466</ele><time>2026-04-17T08:26:19Z</time></trkpt><trkpt lat="40.787107" lon=".56694"><ele>151.654</ele><time>2026-04-17T08:26:20Z</time></trkpt><trkpt lat="40.78715" lon=".566951"><ele>151.672</ele><time>2026-04-17T08:26:21Z</time></trkpt><trkpt lat="40.78719" lon=".566966"><ele>151.672</ele><time>2026-04-17T08:26:22Z</time></trkpt><trkpt lat="40.787226" lon=".566982"><ele>151.613</ele><time>2026-04-17T08:26:23Z</time></trkpt><trkpt lat="40.787261" lon=".567002"><ele>151.614</ele><time>2026-04-17T08:26:24Z</time></trkpt><trkpt lat="40.787297" lon=".567025"><ele>151.809</ele><time>2026-04-17T08:26:25Z</time></trkpt><trkpt lat="40.787335" lon=".567047"><ele>151.869</ele><time>2026-04-17T08:26:26Z</time></trkpt><trkpt lat="40.787378" lon=".567068"><ele>151.833</ele><time>2026-04-17T08:26:27Z</time></trkpt><trkpt lat="40.78742" lon=".567083"><ele>151.817</ele><time>2026-04-17T08:26:28Z</time></trkpt><trkpt lat="40.787463" lon=".567094"><ele>151.820</ele><time>2026-04-17T08:26:29Z</time></trkpt><trkpt lat="40.787507" lon=".567099"><ele>152.021</ele><time>2026-04-17T08:26:30Z</time></trkpt><trkpt lat="40.787551" lon=".567096"><ele>152.067</ele><time>2026-04-17T08:26:31Z</time></trkpt><trkpt lat="40.787594" lon=".567087"><ele>152.088</ele><time>2026-04-17T08:26:32Z</time></trkpt><trkpt lat="40.787635" lon=".567075"><ele>152.216</ele><time>2026-04-17T08:26:33Z</time></trkpt><trkpt lat="40.787675" lon=".567062"><ele>152.264</ele><time>2026-04-17T08:26:34Z</time></trkpt><trkpt lat="40.787714" lon=".567047"><ele>152.269</ele><time>2026-04-17T08:26:35Z</time></trkpt><trkpt lat="40.787755" lon=".56703"><ele>152.004</ele><time>2026-04-17T08:26:36Z</time></trkpt><trkpt lat="40.787797" lon=".567009"><ele>152.024</ele><time>2026-04-17T08:26:37Z</time></trkpt><trkpt lat="40.787838" lon=".566982"><ele>152.209</ele><time>2026-04-17T08:26:38Z</time></trkpt><trkpt lat="40.78788" lon=".56695"><ele>152.488</ele><time>2026-04-17T08:26:39Z</time></trkpt><trkpt lat="40.787921" lon=".566918"><ele>152.422</ele><time>2026-04-17T08:26:40Z</time></trkpt><trkpt lat="40.78796" lon=".566884"><ele>152.686</ele><time>2026-04-17T08:26:41Z</time></trkpt><trkpt lat="40.787994" lon=".566853"><ele>152.679</ele><time>2026-04-17T08:26:42Z</time></trkpt><trkpt lat="40.788028" lon=".566823"><ele>152.870</ele><time>2026-04-17T08:26:43Z</time></trkpt><trkpt lat="40.788058" lon=".566794"><ele>152.856</ele><time>2026-04-17T08:26:44Z</time></trkpt><trkpt lat="40.788087" lon=".56676"><ele>152.827</ele><time>2026-04-17T08:26:45Z</time></trkpt><trkpt lat="40.788138" lon=".566686"><ele>153.265</ele><time>2026-04-17T08:26:47Z</time></trkpt><trkpt lat="40.788159" lon=".566649"><ele>153.893</ele><time>2026-04-17T08:26:48Z</time></trkpt><trkpt lat="40.788181" lon=".566616"><ele>154.068</ele><time>2026-04-17T08:26:49Z</time></trkpt><trkpt lat="40.788208" lon=".56658"><ele>154.642</ele><time>2026-04-17T08:26:50Z</time></trkpt><trkpt lat="40.788236" lon=".566545"><ele>155.026</ele><time>2026-04-17T08:26:51Z</time></trkpt><trkpt lat="40.788266" lon=".566511"><ele>155.609</ele><time>2026-04-17T08:26:52Z</time></trkpt><trkpt lat="40.7883" lon=".566484"><ele>156.088</ele><time>2026-04-17T08:26:53Z</time></trkpt><trkpt lat="40.788338" lon=".566462"><ele>156.652</ele><time>2026-04-17T08:26:54Z</time></trkpt><trkpt lat="40.788378" lon=".566443"><ele>156.826</ele><time>2026-04-17T08:26:55Z</time></trkpt><trkpt lat="40.788422" lon=".566424"><ele>157.239</ele><time>2026-04-17T08:26:56Z</time></trkpt><trkpt lat="40.788469" lon=".566401"><ele>157.630</ele><time>2026-04-17T08:26:57Z</time></trkpt><trkpt lat="40.788519" lon=".566374"><ele>157.666</ele><time>2026-04-17T08:26:58Z</time></trkpt><trkpt lat="40.788577" lon=".566342"><ele>157.657</ele><time>2026-04-17T08:26:59Z</time></trkpt><trkpt lat="40.788613" lon=".566317"><ele>157.665</ele><time>2026-04-17T08:27:00Z</time></trkpt><trkpt lat="40.788652" lon=".566287"><ele>157.833</ele><time>2026-04-17T08:27:01Z</time></trkpt><trkpt lat="40.788685" lon=".566262"><ele>158.099</ele><time>2026-04-17T08:27:02Z</time></trkpt><trkpt lat="40.788718" lon=".566249"><ele>158.007</ele><time>2026-04-17T08:27:03Z</time></trkpt><trkpt lat="40.788747" lon=".566244"><ele>158.027</ele><time>2026-04-17T08:27:04Z</time></trkpt><trkpt lat="40.788779" lon=".566242"><ele>158.209</ele><time>2026-04-17T08:27:05Z</time></trkpt><trkpt lat="40.788815" lon=".566238"><ele>158.451</ele><time>2026-04-17T08:27:06Z</time></trkpt><trkpt lat="40.788849" lon=".566239"><ele>158.655</ele><time>2026-04-17T08:27:07Z</time></trkpt><trkpt lat="40.788873" lon=".566238"><ele>159.259</ele><time>2026-04-17T08:27:08Z</time></trkpt><trkpt lat="40.788895" lon=".566238"><ele>159.662</ele><time>2026-04-17T08:27:09Z</time></trkpt><trkpt lat="40.788916" lon=".56624"><ele>160.013</ele><time>2026-04-17T08:27:10Z</time></trkpt><trkpt lat="40.788941" lon=".566247"><ele>160.239</ele><time>2026-04-17T08:27:11Z</time></trkpt><trkpt lat="40.788968" lon=".566256"><ele>160.470</ele><time>2026-04-17T08:27:12Z</time></trkpt><trkpt lat="40.788989" lon=".566269"><ele>160.698</ele><time>2026-04-17T08:27:13Z</time></trkpt><trkpt lat="40.789018" lon=".566287"><ele>160.846</ele><time>2026-04-17T08:27:14Z</time></trkpt><trkpt lat="40.789043" lon=".56632"><ele>161.091</ele><time>2026-04-17T08:27:15Z</time></trkpt><trkpt lat="40.789054" lon=".566359"><ele>161.081</ele><time>2026-04-17T08:27:16Z</time></trkpt><trkpt lat="40.789048" lon=".566405"><ele>161.219</ele><time>2026-04-17T08:27:17Z</time></trkpt><trkpt lat="40.789031" lon=".566447"><ele>161.209</ele><time>2026-04-17T08:27:18Z</time></trkpt><trkpt lat="40.789008" lon=".566481"><ele>161.281</ele><time>2026-04-17T08:27:19Z</time></trkpt><trkpt lat="40.788987" lon=".566514"><ele>161.295</ele><time>2026-04-17T08:27:20Z</time></trkpt><trkpt lat="40.788977" lon=".566546"><ele>161.459</ele><time>2026-04-17T08:27:21Z</time></trkpt><trkpt lat="40.788977" lon=".566579"><ele>161.472</ele><time>2026-04-17T08:27:22Z</time></trkpt><trkpt lat="40.788983" lon=".56661"><ele>161.423</ele><time>2026-04-17T08:27:23Z</time></trkpt><trkpt lat="40.789" lon=".566634"><ele>161.489</ele><time>2026-04-17T08:27:24Z</time></trkpt><trkpt lat="40.789023" lon=".566647"><ele>161.630</ele><time>2026-04-17T08:27:25Z</time></trkpt><trkpt lat="40.789051" lon=".566654"><ele>162.288</ele><time>2026-04-17T08:27:26Z</time></trkpt><trkpt lat="40.78908" lon=".566656"><ele>162.616</ele><time>2026-04-17T08:27:27Z</time></trkpt><trkpt lat="40.789106" lon=".566663"><ele>163.024</ele><time>2026-04-17T08:27:28Z</time></trkpt><trkpt lat="40.789132" lon=".566678"><ele>163.204</ele><time>2026-04-17T08:27:29Z</time></trkpt><trkpt lat="40.789162" lon=".566697"><ele>163.814</ele><time>2026-04-17T08:27:30Z</time></trkpt><trkpt lat="40.78919" lon=".566719"><ele>164.209</ele><time>2026-04-17T08:27:31Z</time></trkpt><trkpt lat="40.789218" lon=".566741"><ele>164.274</ele><time>2026-04-17T08:27:32Z</time></trkpt><trkpt lat="40.789246" lon=".566761"><ele>164.678</ele><time>2026-04-17T08:27:33Z</time></trkpt><trkpt lat="40.789276" lon=".56678"><ele>164.862</ele><time>2026-04-17T08:27:34Z</time></trkpt><trkpt lat="40.789309" lon=".566795"><ele>165.285</ele><time>2026-04-17T08:27:35Z</time></trkpt><trkpt lat="40.789344" lon=".566808"><ele>165.416</ele><time>2026-04-17T08:27:36Z</time></trkpt><trkpt lat="40.78938" lon=".566818"><ele>165.672</ele><time>2026-04-17T08:27:37Z</time></trkpt><trkpt lat="40.789416" lon=".566824"><ele>165.863</ele><time>2026-04-17T08:27:38Z</time></trkpt><trkpt lat="40.78945" lon=".566828"><ele>165.831</ele><time>2026-04-17T08:27:39Z</time></trkpt><trkpt lat="40.789486" lon=".56683"><ele>166.019</ele><time>2026-04-17T08:27:40Z</time></trkpt><trkpt lat="40.789521" lon=".566833"><ele>166.063</ele><time>2026-04-17T08:27:41Z</time></trkpt><trkpt lat="40.789553" lon=".566836"><ele>166.244</ele><time>2026-04-17T08:27:42Z</time></trkpt><trkpt lat="40.789582" lon=".566835"><ele>166.218</ele><time>2026-04-17T08:27:43Z</time></trkpt><trkpt lat="40.789611" lon=".566834"><ele>166.409</ele><time>2026-04-17T08:27:44Z</time></trkpt><trkpt lat="40.789643" lon=".566831"><ele>166.478</ele><time>2026-04-17T08:27:45Z</time></trkpt><trkpt lat="40.789671" lon=".56683"><ele>166.812</ele><time>2026-04-17T08:27:46Z</time></trkpt><trkpt lat="40.789702" lon=".566829"><ele>167.226</ele><time>2026-04-17T08:27:47Z</time></trkpt><trkpt lat="40.789731" lon=".566827"><ele>167.429</ele><time>2026-04-17T08:27:48Z</time></trkpt><trkpt lat="40.789755" lon=".566825"><ele>167.840</ele><time>2026-04-17T08:27:49Z</time></trkpt><trkpt lat="40.789771" lon=".566823"><ele>168.016</ele><time>2026-04-17T08:27:50Z</time></trkpt><trkpt lat="40.789786" lon=".566823"><ele>168.817</ele><time>2026-04-17T08:27:51Z</time></trkpt><trkpt lat="40.789799" lon=".566824"><ele>169.455</ele><time>2026-04-17T08:27:52Z</time></trkpt><trkpt lat="40.789812" lon=".566833"><ele>170.673</ele><time>2026-04-17T08:27:53Z</time></trkpt><trkpt lat="40.789824" lon=".566844"><ele>171.082</ele><time>2026-04-17T08:27:54Z</time></trkpt><trkpt lat="40.789841" lon=".566857"><ele>171.643</ele><time>2026-04-17T08:27:55Z</time></trkpt><trkpt lat="40.789862" lon=".566869"><ele>172.017</ele><time>2026-04-17T08:27:56Z</time></trkpt><trkpt lat="40.789886" lon=".566881"><ele>172.209</ele><time>2026-04-17T08:27:57Z</time></trkpt><trkpt lat="40.789911" lon=".566889"><ele>172.610</ele><time>2026-04-17T08:27:58Z</time></trkpt><trkpt lat="40.789936" lon=".566896"><ele>172.864</ele><time>2026-04-17T08:27:59Z</time></trkpt><trkpt lat="40.78996" lon=".566899"><ele>173.038</ele><time>2026-04-17T08:28:00Z</time></trkpt><trkpt lat="40.789978" lon=".5669"><ele>173.481</ele><time>2026-04-17T08:28:01Z</time></trkpt><trkpt lat="40.790002" lon=".566903"><ele>173.632</ele><time>2026-04-17T08:28:02Z</time></trkpt><trkpt lat="40.790028" lon=".566904"><ele>173.878</ele><time>2026-04-17T08:28:03Z</time></trkpt><trkpt lat="40.790051" lon=".566902"><ele>174.069</ele><time>2026-04-17T08:28:04Z</time></trkpt><trkpt lat="40.790073" lon=".566899"><ele>174.277</ele><time>2026-04-17T08:28:05Z</time></trkpt><trkpt lat="40.790097" lon=".566904"><ele>174.425</ele><time>2026-04-17T08:28:06Z</time></trkpt><trkpt lat="40.79012" lon=".566914"><ele>175.054</ele><time>2026-04-17T08:28:07Z</time></trkpt><trkpt lat="40.790144" lon=".566923"><ele>175.056</ele><time>2026-04-17T08:28:08Z</time></trkpt><trkpt lat="40.790165" lon=".566934"><ele>175.411</ele><time>2026-04-17T08:28:09Z</time></trkpt><trkpt lat="40.790187" lon=".566948"><ele>175.409</ele><time>2026-04-17T08:28:10Z</time></trkpt><trkpt lat="40.790205" lon=".566966"><ele>175.647</ele><time>2026-04-17T08:28:11Z</time></trkpt><trkpt lat="40.790219" lon=".566985"><ele>175.811</ele><time>2026-04-17T08:28:12Z</time></trkpt><trkpt lat="40.790233" lon=".567005"><ele>176.235</ele><time>2026-04-17T08:28:13Z</time></trkpt><trkpt lat="40.790246" lon=".567024"><ele>176.488</ele><time>2026-04-17T08:28:14Z</time></trkpt><trkpt lat="40.790258" lon=".567041"><ele>176.439</ele><time>2026-04-17T08:28:15Z</time></trkpt><trkpt lat="40.790273" lon=".567061"><ele>176.855</ele><time>2026-04-17T08:28:16Z</time></trkpt><trkpt lat="40.790287" lon=".567081"><ele>177.266</ele><time>2026-04-17T08:28:17Z</time></trkpt><trkpt lat="40.790297" lon=".567103"><ele>177.644</ele><time>2026-04-17T08:28:18Z</time></trkpt><trkpt lat="40.790309" lon=".567126"><ele>177.822</ele><time>2026-04-17T08:28:19Z</time></trkpt><trkpt lat="40.790321" lon=".567149"><ele>178.064</ele><time>2026-04-17T08:28:20Z</time></trkpt><trkpt lat="40.790334" lon=".567173"><ele>178.206</ele><time>2026-04-17T08:28:21Z</time></trkpt><trkpt lat="40.790346" lon=".567195"><ele>178.416</ele><time>2026-04-17T08:28:22Z</time></trkpt><trkpt lat="40.790358" lon=".567219"><ele>179.009</ele><time>2026-04-17T08:28:23Z</time></trkpt><trkpt lat="40.790372" lon=".567244"><ele>179.288</ele><time>2026-04-17T08:28:24Z</time></trkpt><trkpt lat="40.790389" lon=".567266"><ele>179.632</ele><time>2026-04-17T08:28:25Z</time></trkpt><trkpt lat="40.790407" lon=".567288"><ele>179.826</ele><time>2026-04-17T08:28:26Z</time></trkpt><trkpt lat="40.790424" lon=".567311"><ele>180.089</ele><time>2026-04-17T08:28:27Z</time></trkpt><trkpt lat="40.790442" lon=".567337"><ele>180.090</ele><time>2026-04-17T08:28:28Z</time></trkpt><trkpt lat="40.790457" lon=".567361"><ele>180.216</ele><time>2026-04-17T08:28:29Z</time></trkpt><trkpt lat="40.790471" lon=".567385"><ele>180.227</ele><time>2026-04-17T08:28:30Z</time></trkpt><trkpt lat="40.790489" lon=".56741"><ele>180.435</ele><time>2026-04-17T08:28:31Z</time></trkpt><trkpt lat="40.790509" lon=".567432"><ele>180.613</ele><time>2026-04-17T08:28:32Z</time></trkpt><trkpt lat="40.790528" lon=".567451"><ele>181.081</ele><time>2026-04-17T08:28:33Z</time></trkpt><trkpt lat="40.790547" lon=".567471"><ele>181.461</ele><time>2026-04-17T08:28:34Z</time></trkpt><trkpt lat="40.79057" lon=".567492"><ele>181.617</ele><time>2026-04-17T08:28:35Z</time></trkpt><trkpt lat="40.790592" lon=".567515"><ele>181.809</ele><time>2026-04-17T08:28:36Z</time></trkpt><trkpt lat="40.79061" lon=".567536"><ele>182.040</ele><time>2026-04-17T08:28:37Z</time></trkpt><trkpt lat="40.790628" lon=".567558"><ele>182.464</ele><time>2026-04-17T08:28:38Z</time></trkpt><trkpt lat="40.790644" lon=".56758"><ele>182.898</ele><time>2026-04-17T08:28:39Z</time></trkpt><trkpt lat="40.790661" lon=".567603"><ele>183.031</ele><time>2026-04-17T08:28:40Z</time></trkpt><trkpt lat="40.790675" lon=".567624"><ele>183.442</ele><time>2026-04-17T08:28:41Z</time></trkpt><trkpt lat="40.790689" lon=".567647"><ele>183.638</ele><time>2026-04-17T08:28:42Z</time></trkpt><trkpt lat="40.790701" lon=".567671"><ele>184.049</ele><time>2026-04-17T08:28:43Z</time></trkpt><trkpt lat="40.790715" lon=".567695"><ele>184.017</ele><time>2026-04-17T08:28:44Z</time></trkpt><trkpt lat="40.790732" lon=".567716"><ele>184.455</ele><time>2026-04-17T08:28:45Z</time></trkpt><trkpt lat="40.79075" lon=".56774"><ele>184.628</ele><time>2026-04-17T08:28:46Z</time></trkpt><trkpt lat="40.790767" lon=".567763"><ele>185.089</ele><time>2026-04-17T08:28:47Z</time></trkpt><trkpt lat="40.790784" lon=".567786"><ele>185.217</ele><time>2026-04-17T08:28:48Z</time></trkpt><trkpt lat="40.790801" lon=".567809"><ele>185.609</ele><time>2026-04-17T08:28:49Z</time></trkpt><trkpt lat="40.790821" lon=".567832"><ele>186.074</ele><time>2026-04-17T08:28:50Z</time></trkpt><trkpt lat="40.79084" lon=".567855"><ele>186.278</ele><time>2026-04-17T08:28:51Z</time></trkpt><trkpt lat="40.790855" lon=".56788"><ele>186.862</ele><time>2026-04-17T08:28:52Z</time></trkpt><trkpt lat="40.790868" lon=".567905"><ele>186.855</ele><time>2026-04-17T08:28:53Z</time></trkpt><trkpt lat="40.790884" lon=".56793"><ele>187.456</ele><time>2026-04-17T08:28:54Z</time></trkpt><trkpt lat="40.790901" lon=".567953"><ele>187.832</ele><time>2026-04-17T08:28:55Z</time></trkpt><trkpt lat="40.790917" lon=".567977"><ele>188.213</ele><time>2026-04-17T08:28:56Z</time></trkpt><trkpt lat="40.790937" lon=".567996"><ele>188.611</ele><time>2026-04-17T08:28:57Z</time></trkpt><trkpt lat="40.790962" lon=".568015"><ele>188.819</ele><time>2026-04-17T08:28:58Z</time></trkpt><trkpt lat="40.790988" lon=".568026"><ele>189.441</ele><time>2026-04-17T08:28:59Z</time></trkpt><trkpt lat="40.791015" lon=".568026"><ele>189.681</ele><time>2026-04-17T08:29:00Z</time></trkpt><trkpt lat="40.791042" lon=".568027"><ele>190.209</ele><time>2026-04-17T08:29:01Z</time></trkpt><trkpt lat="40.791066" lon=".568028"><ele>190.209</ele><time>2026-04-17T08:29:02Z</time></trkpt><trkpt lat="40.791086" lon=".568038"><ele>190.616</ele><time>2026-04-17T08:29:03Z</time></trkpt><trkpt lat="40.791098" lon=".568062"><ele>190.660</ele><time>2026-04-17T08:29:04Z</time></trkpt><trkpt lat="40.7911" lon=".568095"><ele>191.084</ele><time>2026-04-17T08:29:05Z</time></trkpt><trkpt lat="40.791096" lon=".568129"><ele>191.697</ele><time>2026-04-17T08:29:06Z</time></trkpt><trkpt lat="40.79109" lon=".568165"><ele>191.838</ele><time>2026-04-17T08:29:07Z</time></trkpt><trkpt lat="40.791083" lon=".568202"><ele>192.494</ele><time>2026-04-17T08:29:08Z</time></trkpt><trkpt lat="40.791079" lon=".56824"><ele>193.075</ele><time>2026-04-17T08:29:09Z</time></trkpt><trkpt lat="40.79108" lon=".568278"><ele>193.653</ele><time>2026-04-17T08:29:10Z</time></trkpt><trkpt lat="40.791086" lon=".568319"><ele>193.831</ele><time>2026-04-17T08:29:11Z</time></trkpt><trkpt lat="40.791095" lon=".568357"><ele>194.294</ele><time>2026-04-17T08:29:12Z</time></trkpt><trkpt lat="40.791108" lon=".568393"><ele>194.457</ele><time>2026-04-17T08:29:13Z</time></trkpt><trkpt lat="40.791122" lon=".568424"><ele>194.822</ele><time>2026-04-17T08:29:14Z</time></trkpt><trkpt lat="40.791136" lon=".568449"><ele>195.409</ele><time>2026-04-17T08:29:15Z</time></trkpt><trkpt lat="40.79115" lon=".568475"><ele>195.671</ele><time>2026-04-17T08:29:16Z</time></trkpt><trkpt lat="40.791163" lon=".568502"><ele>196.085</ele><time>2026-04-17T08:29:17Z</time></trkpt><trkpt lat="40.791173" lon=".568531"><ele>196.249</ele><time>2026-04-17T08:29:18Z</time></trkpt><trkpt lat="40.791185" lon=".568557"><ele>196.682</ele><time>2026-04-17T08:29:19Z</time></trkpt><trkpt lat="40.791201" lon=".568582"><ele>196.893</ele><time>2026-04-17T08:29:20Z</time></trkpt><trkpt lat="40.791218" lon=".568609"><ele>197.279</ele><time>2026-04-17T08:29:21Z</time></trkpt><trkpt lat="40.791234" lon=".568638"><ele>197.450</ele><time>2026-04-17T08:29:22Z</time></trkpt><trkpt lat="40.791248" lon=".568666"><ele>197.678</ele><time>2026-04-17T08:29:23Z</time></trkpt><trkpt lat="40.791259" lon=".568694"><ele>198.286</ele><time>2026-04-17T08:29:24Z</time></trkpt><trkpt lat="40.791271" lon=".568722"><ele>198.236</ele><time>2026-04-17T08:29:25Z</time></trkpt><trkpt lat="40.791285" lon=".568749"><ele>198.617</ele><time>2026-04-17T08:29:26Z</time></trkpt><trkpt lat="40.791295" lon=".568772"><ele>198.818</ele><time>2026-04-17T08:29:27Z</time></trkpt><trkpt lat="40.791302" lon=".568794"><ele>199.409</ele><time>2026-04-17T08:29:28Z</time></trkpt><trkpt lat="40.791312" lon=".56882"><ele>199.415</ele><time>2026-04-17T08:29:29Z</time></trkpt><trkpt lat="40.791327" lon=".568843"><ele>199.849</ele><time>2026-04-17T08:29:30Z</time></trkpt><trkpt lat="40.79134" lon=".568857"><ele>200.293</ele><time>2026-04-17T08:29:31Z</time></trkpt><trkpt lat="40.791358" lon=".568869"><ele>200.666</ele><time>2026-04-17T08:29:32Z</time></trkpt><trkpt lat="40.791374" lon=".568865"><ele>201.267</ele><time>2026-04-17T08:29:33Z</time></trkpt><trkpt lat="40.791385" lon=".568844"><ele>201.493</ele><time>2026-04-17T08:29:34Z</time></trkpt><trkpt lat="40.79139" lon=".568814"><ele>202.054</ele><time>2026-04-17T08:29:35Z</time></trkpt><trkpt lat="40.79139" lon=".568781"><ele>202.252</ele><time>2026-04-17T08:29:36Z</time></trkpt><trkpt lat="40.79139" lon=".568749"><ele>202.680</ele><time>2026-04-17T08:29:37Z</time></trkpt><trkpt lat="40.791388" lon=".568719"><ele>202.854</ele><time>2026-04-17T08:29:38Z</time></trkpt><trkpt lat="40.791391" lon=".568693"><ele>203.256</ele><time>2026-04-17T08:29:39Z</time></trkpt><trkpt lat="40.791396" lon=".568668"><ele>203.611</ele><time>2026-04-17T08:29:40Z</time></trkpt><trkpt lat="40.7914" lon=".56864"><ele>203.609</ele><time>2026-04-17T08:29:41Z</time></trkpt><trkpt lat="40.791406" lon=".568614"><ele>204.277</ele><time>2026-04-17T08:29:42Z</time></trkpt><trkpt lat="40.791413" lon=".568587"><ele>204.621</ele><time>2026-04-17T08:29:43Z</time></trkpt><trkpt lat="40.791416" lon=".568563"><ele>205.295</ele><time>2026-04-17T08:29:44Z</time></trkpt><trkpt lat="40.791419" lon=".568537"><ele>205.498</ele><time>2026-04-17T08:29:45Z</time></trkpt><trkpt lat="40.791422" lon=".568508"><ele>205.839</ele><time>2026-04-17T08:29:46Z</time></trkpt><trkpt lat="40.791429" lon=".568477"><ele>205.885</ele><time>2026-04-17T08:29:47Z</time></trkpt><trkpt lat="40.791442" lon=".568451"><ele>206.086</ele><time>2026-04-17T08:29:48Z</time></trkpt><trkpt lat="40.791463" lon=".568432"><ele>206.024</ele><time>2026-04-17T08:29:49Z</time></trkpt><trkpt lat="40.791489" lon=".568422"><ele>206.422</ele><time>2026-04-17T08:29:50Z</time></trkpt><trkpt lat="40.791514" lon=".568422"><ele>206.485</ele><time>2026-04-17T08:29:51Z</time></trkpt><trkpt lat="40.791536" lon=".568434"><ele>206.689</ele><time>2026-04-17T08:29:52Z</time></trkpt><trkpt lat="40.791556" lon=".568453"><ele>206.817</ele><time>2026-04-17T08:29:53Z</time></trkpt><trkpt lat="40.791573" lon=".568474"><ele>206.809</ele><time>2026-04-17T08:29:54Z</time></trkpt><trkpt lat="40.791591" lon=".568495"><ele>206.820</ele><time>2026-04-17T08:29:55Z</time></trkpt><trkpt lat="40.791604" lon=".568519"><ele>207.294</ele><time>2026-04-17T08:29:56Z</time></trkpt><trkpt lat="40.791616" lon=".568547"><ele>207.448</ele><time>2026-04-17T08:29:57Z</time></trkpt><trkpt lat="40.791625" lon=".568568"><ele>207.451</ele><time>2026-04-17T08:29:58Z</time></trkpt><trkpt lat="40.791636" lon=".568596"><ele>207.682</ele><time>2026-04-17T08:29:59Z</time></trkpt><trkpt lat="40.791645" lon=".568626"><ele>208.048</ele><time>2026-04-17T08:30:00Z</time></trkpt><trkpt lat="40.791652" lon=".568655"><ele>208.069</ele><time>2026-04-17T08:30:01Z</time></trkpt><trkpt lat="40.791657" lon=".568686"><ele>208.277</ele><time>2026-04-17T08:30:02Z</time></trkpt><trkpt lat="40.791662" lon=".568715"><ele>208.495</ele><time>2026-04-17T08:30:03Z</time></trkpt><trkpt lat="40.791668" lon=".568744"><ele>208.652</ele><time>2026-04-17T08:30:04Z</time></trkpt><trkpt lat="40.791676" lon=".568771"><ele>209.253</ele><time>2026-04-17T08:30:05Z</time></trkpt><trkpt lat="40.791685" lon=".568797"><ele>209.408</ele><time>2026-04-17T08:30:06Z</time></trkpt><trkpt lat="40.791692" lon=".568822"><ele>209.809</ele><time>2026-04-17T08:30:07Z</time></trkpt><trkpt lat="40.7917" lon=".568849"><ele>210.037</ele><time>2026-04-17T08:30:08Z</time></trkpt><trkpt lat="40.79171" lon=".56887"><ele>210.281</ele><time>2026-04-17T08:30:09Z</time></trkpt><trkpt lat="40.791718" lon=".568895"><ele>210.255</ele><time>2026-04-17T08:30:10Z</time></trkpt><trkpt lat="40.791728" lon=".568919"><ele>210.658</ele><time>2026-04-17T08:30:11Z</time></trkpt><trkpt lat="40.791741" lon=".568945"><ele>210.879</ele><time>2026-04-17T08:30:12Z</time></trkpt><trkpt lat="40.791756" lon=".56897"><ele>211.235</ele><time>2026-04-17T08:30:13Z</time></trkpt><trkpt lat="40.791772" lon=".568993"><ele>211.476</ele><time>2026-04-17T08:30:14Z</time></trkpt><trkpt lat="40.791789" lon=".569016"><ele>211.684</ele><time>2026-04-17T08:30:15Z</time></trkpt><trkpt lat="40.791806" lon=".569038"><ele>211.882</ele><time>2026-04-17T08:30:16Z</time></trkpt><trkpt lat="40.791823" lon=".569058"><ele>212.021</ele><time>2026-04-17T08:30:17Z</time></trkpt><trkpt lat="40.791843" lon=".569075"><ele>212.241</ele><time>2026-04-17T08:30:18Z</time></trkpt><trkpt lat="40.791864" lon=".569093"><ele>212.405</ele><time>2026-04-17T08:30:19Z</time></trkpt><trkpt lat="40.791882" lon=".569115"><ele>212.609</ele><time>2026-04-17T08:30:20Z</time></trkpt><trkpt lat="40.791899" lon=".569139"><ele>212.824</ele><time>2026-04-17T08:30:21Z</time></trkpt><trkpt lat="40.791917" lon=".569163"><ele>213.248</ele><time>2026-04-17T08:30:22Z</time></trkpt><trkpt lat="40.791935" lon=".569182"><ele>213.672</ele><time>2026-04-17T08:30:23Z</time></trkpt><trkpt lat="40.791953" lon=".569203"><ele>213.855</ele><time>2026-04-17T08:30:24Z</time></trkpt><trkpt lat="40.791968" lon=".569224"><ele>214.086</ele><time>2026-04-17T08:30:25Z</time></trkpt><trkpt lat="40.791984" lon=".569245"><ele>214.092</ele><time>2026-04-17T08:30:26Z</time></trkpt><trkpt lat="40.791998" lon=".569269"><ele>214.643</ele><time>2026-04-17T08:30:27Z</time></trkpt><trkpt lat="40.792015" lon=".569293"><ele>214.851</ele><time>2026-04-17T08:30:28Z</time></trkpt><trkpt lat="40.792035" lon=".569314"><ele>215.619</ele><time>2026-04-17T08:30:29Z</time></trkpt><trkpt lat="40.792054" lon=".569331"><ele>215.821</ele><time>2026-04-17T08:30:30Z</time></trkpt><trkpt lat="40.792071" lon=".569345"><ele>216.641</ele><time>2026-04-17T08:30:31Z</time></trkpt><trkpt lat="40.792089" lon=".569362"><ele>217.205</ele><time>2026-04-17T08:30:32Z</time></trkpt><trkpt lat="40.792109" lon=".569382"><ele>217.409</ele><time>2026-04-17T08:30:33Z</time></trkpt><trkpt lat="40.792128" lon=".569403"><ele>217.814</ele><time>2026-04-17T08:30:34Z</time></trkpt><trkpt lat="40.792146" lon=".569425"><ele>217.668</ele><time>2026-04-17T08:30:35Z</time></trkpt><trkpt lat="40.792163" lon=".569446"><ele>218.032</ele><time>2026-04-17T08:30:36Z</time></trkpt><trkpt lat="40.792179" lon=".56947"><ele>218.225</ele><time>2026-04-17T08:30:37Z</time></trkpt><trkpt lat="40.792194" lon=".569495"><ele>218.616</ele><time>2026-04-17T08:30:38Z</time></trkpt><trkpt lat="40.792208" lon=".569518"><ele>219.022</ele><time>2026-04-17T08:30:39Z</time></trkpt><trkpt lat="40.792221" lon=".569542"><ele>219.233</ele><time>2026-04-17T08:30:40Z</time></trkpt><trkpt lat="40.792235" lon=".569565"><ele>219.441</ele><time>2026-04-17T08:30:41Z</time></trkpt><trkpt lat="40.79225" lon=".569585"><ele>219.649</ele><time>2026-04-17T08:30:42Z</time></trkpt><trkpt lat="40.792267" lon=".569604"><ele>219.819</ele><time>2026-04-17T08:30:43Z</time></trkpt><trkpt lat="40.792285" lon=".569621"><ele>220.009</ele><time>2026-04-17T08:30:44Z</time></trkpt><trkpt lat="40.792307" lon=".569637"><ele>220.619</ele><time>2026-04-17T08:30:45Z</time></trkpt><trkpt lat="40.792329" lon=".569649"><ele>220.809</ele><time>2026-04-17T08:30:46Z</time></trkpt><trkpt lat="40.792351" lon=".569659"><ele>221.463</ele><time>2026-04-17T08:30:47Z</time></trkpt><trkpt lat="40.792371" lon=".569673"><ele>221.647</ele><time>2026-04-17T08:30:48Z</time></trkpt><trkpt lat="40.792392" lon=".569688"><ele>221.851</ele><time>2026-04-17T08:30:49Z</time></trkpt><trkpt lat="40.792409" lon=".569699"><ele>222.094</ele><time>2026-04-17T08:30:50Z</time></trkpt><trkpt lat="40.792427" lon=".569708"><ele>222.245</ele><time>2026-04-17T08:30:51Z</time></trkpt><trkpt lat="40.79245" lon=".569726"><ele>222.441</ele><time>2026-04-17T08:30:52Z</time></trkpt><trkpt lat="40.79247" lon=".569747"><ele>222.662</ele><time>2026-04-17T08:30:53Z</time></trkpt><trkpt lat="40.792489" lon=".569765"><ele>222.660</ele><time>2026-04-17T08:30:54Z</time></trkpt><trkpt lat="40.792511" lon=".56978"><ele>222.688</ele><time>2026-04-17T08:30:55Z</time></trkpt><trkpt lat="40.792533" lon=".569796"><ele>222.879</ele><time>2026-04-17T08:30:56Z</time></trkpt><trkpt lat="40.792555" lon=".56981"><ele>222.805</ele><time>2026-04-17T08:30:57Z</time></trkpt><trkpt lat="40.792578" lon=".569819"><ele>222.825</ele><time>2026-04-17T08:30:58Z</time></trkpt><trkpt lat="40.792601" lon=".569827"><ele>223.009</ele><time>2026-04-17T08:30:59Z</time></trkpt><trkpt lat="40.792624" lon=".569834"><ele>223.289</ele><time>2026-04-17T08:31:00Z</time></trkpt><trkpt lat="40.792646" lon=".569839"><ele>223.433</ele><time>2026-04-17T08:31:01Z</time></trkpt><trkpt lat="40.79267" lon=".569841"><ele>223.447</ele><time>2026-04-17T08:31:02Z</time></trkpt><trkpt lat="40.792694" lon=".569845"><ele>223.660</ele><time>2026-04-17T08:31:03Z</time></trkpt><trkpt lat="40.79272" lon=".569853"><ele>223.691</ele><time>2026-04-17T08:31:04Z</time></trkpt><trkpt lat="40.792749" lon=".569863"><ele>223.657</ele><time>2026-04-17T08:31:05Z</time></trkpt><trkpt lat="40.792777" lon=".569874"><ele>223.698</ele><time>2026-04-17T08:31:06Z</time></trkpt><trkpt lat="40.792805" lon=".569883"><ele>223.636</ele><time>2026-04-17T08:31:07Z</time></trkpt><trkpt lat="40.792841" lon=".569887"><ele>223.634</ele><time>2026-04-17T08:31:08Z</time></trkpt><trkpt lat="40.792871" lon=".569886"><ele>223.641</ele><time>2026-04-17T08:31:09Z</time></trkpt><trkpt lat="40.792894" lon=".569881"><ele>223.681</ele><time>2026-04-17T08:31:10Z</time></trkpt><trkpt lat="40.792921" lon=".569874"><ele>223.609</ele><time>2026-04-17T08:31:11Z</time></trkpt><trkpt lat="40.792948" lon=".569866"><ele>223.609</ele><time>2026-04-17T08:31:12Z</time></trkpt><trkpt lat="40.792978" lon=".569861"><ele>223.626</ele><time>2026-04-17T08:31:13Z</time></trkpt><trkpt lat="40.793001" lon=".569862"><ele>223.620</ele><time>2026-04-17T08:31:14Z</time></trkpt><trkpt lat="40.793017" lon=".56986"><ele>223.684</ele><time>2026-04-17T08:31:15Z</time></trkpt><trkpt lat="40.793037" lon=".569857"><ele>223.617</ele><time>2026-04-17T08:31:16Z</time></trkpt><trkpt lat="40.793063" lon=".569852"><ele>223.648</ele><time>2026-04-17T08:31:17Z</time></trkpt><trkpt lat="40.793082" lon=".569847"><ele>223.854</ele><time>2026-04-17T08:31:18Z</time></trkpt><trkpt lat="40.793132" lon=".569835"><ele>224.025</ele><time>2026-04-17T08:31:20Z</time></trkpt><trkpt lat="40.793155" lon=".569832"><ele>224.233</ele><time>2026-04-17T08:31:21Z</time></trkpt><trkpt lat="40.793171" lon=".569832"><ele>224.411</ele><time>2026-04-17T08:31:22Z</time></trkpt><trkpt lat="40.793205" lon=".569834"><ele>224.867</ele><time>2026-04-17T08:31:24Z</time></trkpt><trkpt lat="40.793228" lon=".569835"><ele>224.881</ele><time>2026-04-17T08:31:25Z</time></trkpt><trkpt lat="40.793251" lon=".569838"><ele>225.219</ele><time>2026-04-17T08:31:26Z</time></trkpt><trkpt lat="40.793348" lon=".569856"><ele>226.609</ele><time>2026-04-17T08:31:30Z</time></trkpt><trkpt lat="40.793371" lon=".569859"><ele>226.828</ele><time>2026-04-17T08:31:31Z</time></trkpt><trkpt lat="40.793395" lon=".569858"><ele>226.892</ele><time>2026-04-17T08:31:32Z</time></trkpt><trkpt lat="40.793413" lon=".569857"><ele>227.286</ele><time>2026-04-17T08:31:33Z</time></trkpt><trkpt lat="40.793439" lon=".569852"><ele>227.419</ele><time>2026-04-17T08:31:34Z</time></trkpt><trkpt lat="40.79347" lon=".569852"><ele>228.260</ele><time>2026-04-17T08:31:35Z</time></trkpt><trkpt lat="40.793491" lon=".56986"><ele>228.496</ele><time>2026-04-17T08:31:36Z</time></trkpt><trkpt lat="40.793514" lon=".569868"><ele>229.017</ele><time>2026-04-17T08:31:37Z</time></trkpt><trkpt lat="40.793534" lon=".569872"><ele>229.075</ele><time>2026-04-17T08:31:38Z</time></trkpt><trkpt lat="40.793562" lon=".569871"><ele>229.473</ele><time>2026-04-17T08:31:39Z</time></trkpt><trkpt lat="40.793595" lon=".569867"><ele>230.016</ele><time>2026-04-17T08:31:40Z</time></trkpt><trkpt lat="40.793622" lon=".569859"><ele>230.476</ele><time>2026-04-17T08:31:41Z</time></trkpt><trkpt lat="40.793643" lon=".569852"><ele>230.613</ele><time>2026-04-17T08:31:42Z</time></trkpt><trkpt lat="40.793673" lon=".569843"><ele>230.809</ele><time>2026-04-17T08:31:43Z</time></trkpt><trkpt lat="40.793701" lon=".569836"><ele>231.263</ele><time>2026-04-17T08:31:44Z</time></trkpt><trkpt lat="40.793728" lon=".569834"><ele>231.497</ele><time>2026-04-17T08:31:45Z</time></trkpt><trkpt lat="40.793754" lon=".569837"><ele>231.671</ele><time>2026-04-17T08:31:46Z</time></trkpt><trkpt lat="40.793783" lon=".569844"><ele>232.094</ele><time>2026-04-17T08:31:47Z</time></trkpt><trkpt lat="40.793815" lon=".569856"><ele>232.055</ele><time>2026-04-17T08:31:48Z</time></trkpt><trkpt lat="40.793845" lon=".569867"><ele>232.451</ele><time>2026-04-17T08:31:49Z</time></trkpt><trkpt lat="40.793878" lon=".569873"><ele>232.472</ele><time>2026-04-17T08:31:50Z</time></trkpt><trkpt lat="40.793912" lon=".569878"><ele>232.630</ele><time>2026-04-17T08:31:51Z</time></trkpt><trkpt lat="40.793943" lon=".569879"><ele>232.818</ele><time>2026-04-17T08:31:52Z</time></trkpt><trkpt lat="40.793972" lon=".569877"><ele>233.055</ele><time>2026-04-17T08:31:53Z</time></trkpt><trkpt lat="40.793997" lon=".569866"><ele>233.007</ele><time>2026-04-17T08:31:54Z</time></trkpt><trkpt lat="40.794023" lon=".569851"><ele>233.217</ele><time>2026-04-17T08:31:55Z</time></trkpt><trkpt lat="40.794048" lon=".569837"><ele>233.209</ele><time>2026-04-17T08:31:56Z</time></trkpt><trkpt lat="40.794072" lon=".569822"><ele>233.437</ele><time>2026-04-17T08:31:57Z</time></trkpt><trkpt lat="40.794096" lon=".569808"><ele>233.661</ele><time>2026-04-17T08:31:58Z</time></trkpt><trkpt lat="40.794118" lon=".56979"><ele>233.615</ele><time>2026-04-17T08:31:59Z</time></trkpt><trkpt lat="40.794137" lon=".569772"><ele>234.018</ele><time>2026-04-17T08:32:00Z</time></trkpt><trkpt lat="40.794148" lon=".569753"><ele>234.239</ele><time>2026-04-17T08:32:01Z</time></trkpt><trkpt lat="40.794156" lon=".569728"><ele>234.835</ele><time>2026-04-17T08:32:02Z</time></trkpt><trkpt lat="40.794158" lon=".569695"><ele>234.836</ele><time>2026-04-17T08:32:03Z</time></trkpt><trkpt lat="40.794161" lon=".569661"><ele>235.224</ele><time>2026-04-17T08:32:04Z</time></trkpt><trkpt lat="40.794162" lon=".569627"><ele>235.852</ele><time>2026-04-17T08:32:05Z</time></trkpt><trkpt lat="40.794162" lon=".569598"><ele>236.282</ele><time>2026-04-17T08:32:06Z</time></trkpt><trkpt lat="40.794171" lon=".569575"><ele>236.643</ele><time>2026-04-17T08:32:07Z</time></trkpt><trkpt lat="40.794176" lon=".569549"><ele>236.817</ele><time>2026-04-17T08:32:08Z</time></trkpt><trkpt lat="40.794178" lon=".569521"><ele>237.609</ele><time>2026-04-17T08:32:09Z</time></trkpt><trkpt lat="40.794186" lon=".569492"><ele>237.810</ele><time>2026-04-17T08:32:10Z</time></trkpt><trkpt lat="40.794192" lon=".569461"><ele>238.464</ele><time>2026-04-17T08:32:11Z</time></trkpt><trkpt lat="40.794195" lon=".569427"><ele>238.648</ele><time>2026-04-17T08:32:12Z</time></trkpt><trkpt lat="40.794196" lon=".569398"><ele>239.021</ele><time>2026-04-17T08:32:13Z</time></trkpt><trkpt lat="40.794199" lon=".569375"><ele>240.062</ele><time>2026-04-17T08:32:14Z</time></trkpt><trkpt lat="40.794205" lon=".569349"><ele>240.658</ele><time>2026-04-17T08:32:15Z</time></trkpt><trkpt lat="40.794211" lon=".569322"><ele>241.639</ele><time>2026-04-17T08:32:16Z</time></trkpt><trkpt lat="40.794217" lon=".569296"><ele>241.827</ele><time>2026-04-17T08:32:17Z</time></trkpt><trkpt lat="40.794225" lon=".56927"><ele>242.495</ele><time>2026-04-17T08:32:18Z</time></trkpt><trkpt lat="40.794228" lon=".569245"><ele>242.846</ele><time>2026-04-17T08:32:19Z</time></trkpt><trkpt lat="40.794235" lon=".569222"><ele>243.688</ele><time>2026-04-17T08:32:20Z</time></trkpt><trkpt lat="40.794241" lon=".569199"><ele>244.016</ele><time>2026-04-17T08:32:21Z</time></trkpt><trkpt lat="40.794246" lon=".569172"><ele>244.209</ele><time>2026-04-17T08:32:22Z</time></trkpt><trkpt lat="40.794254" lon=".569148"><ele>244.436</ele><time>2026-04-17T08:32:23Z</time></trkpt><trkpt lat="40.79426" lon=".569123"><ele>244.620</ele><time>2026-04-17T08:32:24Z</time></trkpt><trkpt lat="40.794266" lon=".569101"><ele>245.034</ele><time>2026-04-17T08:32:25Z</time></trkpt><trkpt lat="40.794274" lon=".569081"><ele>245.077</ele><time>2026-04-17T08:32:26Z</time></trkpt><trkpt lat="40.794279" lon=".569058"><ele>245.268</ele><time>2026-04-17T08:32:27Z</time></trkpt><trkpt lat="40.794284" lon=".569033"><ele>245.414</ele><time>2026-04-17T08:32:28Z</time></trkpt><trkpt lat="40.794287" lon=".569008"><ele>245.825</ele><time>2026-04-17T08:32:29Z</time></trkpt><trkpt lat="40.794289" lon=".568985"><ele>246.473</ele><time>2026-04-17T08:32:30Z</time></trkpt><trkpt lat="40.794293" lon=".568958"><ele>246.621</ele><time>2026-04-17T08:32:31Z</time></trkpt><trkpt lat="40.794298" lon=".56893"><ele>246.867</ele><time>2026-04-17T08:32:32Z</time></trkpt><trkpt lat="40.794301" lon=".568903"><ele>247.081</ele><time>2026-04-17T08:32:33Z</time></trkpt><trkpt lat="40.794305" lon=".568876"><ele>247.219</ele><time>2026-04-17T08:32:34Z</time></trkpt><trkpt lat="40.794308" lon=".56885"><ele>247.209</ele><time>2026-04-17T08:32:35Z</time></trkpt><trkpt lat="40.794313" lon=".568825"><ele>247.498</ele><time>2026-04-17T08:32:36Z</time></trkpt><trkpt lat="40.79432" lon=".568801"><ele>247.642</ele><time>2026-04-17T08:32:37Z</time></trkpt><trkpt lat="40.794328" lon=".568775"><ele>248.056</ele><time>2026-04-17T08:32:38Z</time></trkpt><trkpt lat="40.794336" lon=".568751"><ele>248.849</ele><time>2026-04-17T08:32:39Z</time></trkpt><trkpt lat="40.794346" lon=".568727"><ele>249.230</ele><time>2026-04-17T08:32:40Z</time></trkpt><trkpt lat="40.794356" lon=".568704"><ele>249.626</ele><time>2026-04-17T08:32:41Z</time></trkpt><trkpt lat="40.794364" lon=".568682"><ele>249.847</ele><time>2026-04-17T08:32:42Z</time></trkpt><trkpt lat="40.79437" lon=".56866"><ele>250.015</ele><time>2026-04-17T08:32:43Z</time></trkpt><trkpt lat="40.794379" lon=".568638"><ele>250.413</ele><time>2026-04-17T08:32:44Z</time></trkpt><trkpt lat="40.794391" lon=".568622"><ele>251.082</ele><time>2026-04-17T08:32:45Z</time></trkpt><trkpt lat="40.7944" lon=".568604"><ele>251.243</ele><time>2026-04-17T08:32:46Z</time></trkpt><trkpt lat="40.794408" lon=".568581"><ele>251.617</ele><time>2026-04-17T08:32:47Z</time></trkpt><trkpt lat="40.794417" lon=".56856"><ele>251.809</ele><time>2026-04-17T08:32:48Z</time></trkpt><trkpt lat="40.794424" lon=".568536"><ele>251.880</ele><time>2026-04-17T08:32:49Z</time></trkpt><trkpt lat="40.794433" lon=".568513"><ele>251.864</ele><time>2026-04-17T08:32:50Z</time></trkpt><trkpt lat="40.794441" lon=".568489"><ele>252.028</ele><time>2026-04-17T08:32:51Z</time></trkpt><trkpt lat="40.794439" lon=".568466"><ele>252.231</ele><time>2026-04-17T08:32:52Z</time></trkpt><trkpt lat="40.794432" lon=".568452"><ele>252.222</ele><time>2026-04-17T08:32:53Z</time></trkpt><trkpt lat="40.794427" lon=".568435"><ele>252.428</ele><time>2026-04-17T08:32:54Z</time></trkpt><trkpt lat="40.794421" lon=".568417"><ele>252.849</ele><time>2026-04-17T08:32:55Z</time></trkpt><trkpt lat="40.794416" lon=".5684"><ele>253.077</ele><time>2026-04-17T08:32:56Z</time></trkpt><trkpt lat="40.794413" lon=".568377"><ele>253.255</ele><time>2026-04-17T08:32:57Z</time></trkpt><trkpt lat="40.794411" lon=".568347"><ele>253.268</ele><time>2026-04-17T08:32:58Z</time></trkpt><trkpt lat="40.79441" lon=".568316"><ele>253.442</ele><time>2026-04-17T08:32:59Z</time></trkpt><trkpt lat="40.794413" lon=".568287"><ele>253.626</ele><time>2026-04-17T08:33:00Z</time></trkpt><trkpt lat="40.794419" lon=".568259"><ele>253.809</ele><time>2026-04-17T08:33:01Z</time></trkpt><trkpt lat="40.794423" lon=".568233"><ele>254.288</ele><time>2026-04-17T08:33:02Z</time></trkpt><trkpt lat="40.794431" lon=".568212"><ele>254.432</ele><time>2026-04-17T08:33:03Z</time></trkpt><trkpt lat="40.794444" lon=".568182"><ele>255.086</ele><time>2026-04-17T08:33:04Z</time></trkpt><trkpt lat="40.794451" lon=".568158"><ele>255.219</ele><time>2026-04-17T08:33:05Z</time></trkpt><trkpt lat="40.794456" lon=".568132"><ele>255.680</ele><time>2026-04-17T08:33:06Z</time></trkpt><trkpt lat="40.794459" lon=".568105"><ele>255.636</ele><time>2026-04-17T08:33:07Z</time></trkpt><trkpt lat="40.79446" lon=".568075"><ele>256.467</ele><time>2026-04-17T08:33:08Z</time></trkpt><trkpt lat="40.79446" lon=".568051"><ele>256.615</ele><time>2026-04-17T08:33:09Z</time></trkpt><trkpt lat="40.79446" lon=".568018"><ele>256.833</ele><time>2026-04-17T08:33:10Z</time></trkpt><trkpt lat="40.794459" lon=".567995"><ele>256.835</ele><time>2026-04-17T08:33:11Z</time></trkpt><trkpt lat="40.794457" lon=".567964"><ele>257.086</ele><time>2026-04-17T08:33:12Z</time></trkpt><trkpt lat="40.794454" lon=".567928"><ele>257.414</ele><time>2026-04-17T08:33:13Z</time></trkpt><trkpt lat="40.794449" lon=".567886"><ele>257.409</ele><time>2026-04-17T08:33:14Z</time></trkpt><trkpt lat="40.794445" lon=".567859"><ele>258.015</ele><time>2026-04-17T08:33:15Z</time></trkpt><trkpt lat="40.794447" lon=".567825"><ele>258.089</ele><time>2026-04-17T08:33:16Z</time></trkpt><trkpt lat="40.794459" lon=".567799"><ele>258.223</ele><time>2026-04-17T08:33:17Z</time></trkpt><trkpt lat="40.794478" lon=".567784"><ele>258.226</ele><time>2026-04-17T08:33:18Z</time></trkpt><trkpt lat="40.794508" lon=".567775"><ele>258.477</ele><time>2026-04-17T08:33:19Z</time></trkpt><trkpt lat="40.794536" lon=".567778"><ele>258.423</ele><time>2026-04-17T08:33:20Z</time></trkpt><trkpt lat="40.794557" lon=".567778"><ele>258.664</ele><time>2026-04-17T08:33:21Z</time></trkpt><trkpt lat="40.794582" lon=".567778"><ele>258.882</ele><time>2026-04-17T08:33:22Z</time></trkpt><trkpt lat="40.794609" lon=".56778"><ele>258.860</ele><time>2026-04-17T08:33:23Z</time></trkpt><trkpt lat="40.794639" lon=".567784"><ele>258.855</ele><time>2026-04-17T08:33:24Z</time></trkpt><trkpt lat="40.794661" lon=".567782"><ele>258.807</ele><time>2026-04-17T08:33:25Z</time></trkpt><trkpt lat="40.794687" lon=".567785"><ele>258.817</ele><time>2026-04-17T08:33:26Z</time></trkpt><trkpt lat="40.794716" lon=".567783"><ele>258.809</ele><time>2026-04-17T08:33:27Z</time></trkpt><trkpt lat="40.794733" lon=".567783"><ele>259.027</ele><time>2026-04-17T08:33:28Z</time></trkpt><trkpt lat="40.79476" lon=".567777"><ele>259.011</ele><time>2026-04-17T08:33:29Z</time></trkpt><trkpt lat="40.794781" lon=".567769"><ele>259.065</ele><time>2026-04-17T08:33:30Z</time></trkpt><trkpt lat="40.794808" lon=".567759"><ele>259.288</ele><time>2026-04-17T08:33:31Z</time></trkpt><trkpt lat="40.794841" lon=".567744"><ele>259.259</ele><time>2026-04-17T08:33:32Z</time></trkpt><trkpt lat="40.794864" lon=".567732"><ele>259.225</ele><time>2026-04-17T08:33:33Z</time></trkpt><trkpt lat="40.794895" lon=".567716"><ele>259.296</ele><time>2026-04-17T08:33:34Z</time></trkpt><trkpt lat="40.794924" lon=".567704"><ele>259.414</ele><time>2026-04-17T08:33:35Z</time></trkpt><trkpt lat="40.794959" lon=".567692"><ele>259.462</ele><time>2026-04-17T08:33:36Z</time></trkpt><trkpt lat="40.794981" lon=".567683"><ele>259.448</ele><time>2026-04-17T08:33:37Z</time></trkpt><trkpt lat="40.795016" lon=".567665"><ele>259.461</ele><time>2026-04-17T08:33:38Z</time></trkpt><trkpt lat="40.795038" lon=".567654"><ele>259.417</ele><time>2026-04-17T08:33:39Z</time></trkpt><trkpt lat="40.795066" lon=".567646"><ele>259.409</ele><time>2026-04-17T08:33:40Z</time></trkpt><trkpt lat="40.795098" lon=".567639"><ele>259.416</ele><time>2026-04-17T08:33:41Z</time></trkpt><trkpt lat="40.795124" lon=".567637"><ele>259.690</ele><time>2026-04-17T08:33:42Z</time></trkpt><trkpt lat="40.795141" lon=".567633"><ele>259.634</ele><time>2026-04-17T08:33:43Z</time></trkpt><trkpt lat="40.795161" lon=".567628"><ele>259.657</ele><time>2026-04-17T08:33:44Z</time></trkpt><trkpt lat="40.795189" lon=".567623"><ele>259.688</ele><time>2026-04-17T08:33:45Z</time></trkpt><trkpt lat="40.79527" lon=".567619"><ele>260.044</ele><time>2026-04-17T08:33:47Z</time></trkpt><trkpt lat="40.79543" lon=".567641"><ele>260.065</ele><time>2026-04-17T08:33:51Z</time></trkpt><trkpt lat="40.795532" lon=".567665"><ele>259.653</ele><time>2026-04-17T08:33:53Z</time></trkpt><trkpt lat="40.795631" lon=".567668"><ele>259.471</ele><time>2026-04-17T08:33:55Z</time></trkpt><trkpt lat="40.795681" lon=".56768"><ele>259.067</ele><time>2026-04-17T08:33:56Z</time></trkpt><trkpt lat="40.79572" lon=".567691"><ele>259.081</ele><time>2026-04-17T08:33:57Z</time></trkpt><trkpt lat="40.795748" lon=".567701"><ele>258.819</ele><time>2026-04-17T08:33:58Z</time></trkpt><trkpt lat="40.795786" lon=".567722"><ele>258.409</ele><time>2026-04-17T08:33:59Z</time></trkpt><trkpt lat="40.79582" lon=".567743"><ele>258.688</ele><time>2026-04-17T08:34:00Z</time></trkpt><trkpt lat="40.795855" lon=".567766"><ele>258.812</ele><time>2026-04-17T08:34:01Z</time></trkpt><trkpt lat="40.795965" lon=".567886"><ele>259.256</ele><time>2026-04-17T08:34:04Z</time></trkpt><trkpt lat="40.795987" lon=".567938"><ele>259.419</ele><time>2026-04-17T08:34:05Z</time></trkpt><trkpt lat="40.796011" lon=".567983"><ele>259.460</ele><time>2026-04-17T08:34:06Z</time></trkpt><trkpt lat="40.796036" lon=".568016"><ele>259.246</ele><time>2026-04-17T08:34:07Z</time></trkpt><trkpt lat="40.796054" lon=".56805"><ele>259.247</ele><time>2026-04-17T08:34:08Z</time></trkpt><trkpt lat="40.796068" lon=".56808"><ele>259.445</ele><time>2026-04-17T08:34:09Z</time></trkpt><trkpt lat="40.796086" lon=".568118"><ele>259.613</ele><time>2026-04-17T08:34:10Z</time></trkpt><trkpt lat="40.796106" lon=".568162"><ele>259.648</ele><time>2026-04-17T08:34:11Z</time></trkpt><trkpt lat="40.796126" lon=".568199"><ele>259.461</ele><time>2026-04-17T08:34:12Z</time></trkpt><trkpt lat="40.796167" lon=".56827"><ele>259.617</ele><time>2026-04-17T08:34:14Z</time></trkpt><trkpt lat="40.796209" lon=".568383"><ele>259.609</ele><time>2026-04-17T08:34:17Z</time></trkpt><trkpt lat="40.79623" lon=".56842"><ele>259.856</ele><time>2026-04-17T08:34:18Z</time></trkpt><trkpt lat="40.796245" lon=".568449"><ele>259.880</ele><time>2026-04-17T08:34:19Z</time></trkpt><trkpt lat="40.796258" lon=".568478"><ele>259.854</ele><time>2026-04-17T08:34:20Z</time></trkpt><trkpt lat="40.796284" lon=".568532"><ele>260.477</ele><time>2026-04-17T08:34:22Z</time></trkpt><trkpt lat="40.796298" lon=".568563"><ele>260.858</ele><time>2026-04-17T08:34:23Z</time></trkpt><trkpt lat="40.796309" lon=".568598"><ele>261.044</ele><time>2026-04-17T08:34:24Z</time></trkpt><trkpt lat="40.796323" lon=".568634"><ele>261.255</ele><time>2026-04-17T08:34:25Z</time></trkpt><trkpt lat="40.796383" lon=".568755"><ele>261.243</ele><time>2026-04-17T08:34:28Z</time></trkpt><trkpt lat="40.796418" lon=".568843"><ele>261.471</ele><time>2026-04-17T08:34:30Z</time></trkpt><trkpt lat="40.796421" lon=".568938"><ele>261.419</ele><time>2026-04-17T08:34:32Z</time></trkpt><trkpt lat="40.79642" lon=".568983"><ele>261.409</ele><time>2026-04-17T08:34:33Z</time></trkpt><trkpt lat="40.796422" lon=".569028"><ele>261.419</ele><time>2026-04-17T08:34:34Z</time></trkpt><trkpt lat="40.796434" lon=".569069"><ele>261.409</ele><time>2026-04-17T08:34:35Z</time></trkpt><trkpt lat="40.796454" lon=".569098"><ele>261.463</ele><time>2026-04-17T08:34:36Z</time></trkpt><trkpt lat="40.796477" lon=".569116"><ele>261.487</ele><time>2026-04-17T08:34:37Z</time></trkpt><trkpt lat="40.796504" lon=".569127"><ele>261.411</ele><time>2026-04-17T08:34:38Z</time></trkpt><trkpt lat="40.796534" lon=".569131"><ele>261.834</ele><time>2026-04-17T08:34:39Z</time></trkpt><trkpt lat="40.796559" lon=".569126"><ele>262.245</ele><time>2026-04-17T08:34:40Z</time></trkpt><trkpt lat="40.796585" lon=".569115"><ele>262.681</ele><time>2026-04-17T08:34:41Z</time></trkpt><trkpt lat="40.796612" lon=".569099"><ele>262.862</ele><time>2026-04-17T08:34:42Z</time></trkpt><trkpt lat="40.796641" lon=".569077"><ele>263.020</ele><time>2026-04-17T08:34:43Z</time></trkpt><trkpt lat="40.796671" lon=".569055"><ele>263.048</ele><time>2026-04-17T08:34:44Z</time></trkpt><trkpt lat="40.796697" lon=".569021"><ele>263.285</ele><time>2026-04-17T08:34:45Z</time></trkpt><trkpt lat="40.796723" lon=".568981"><ele>263.489</ele><time>2026-04-17T08:34:46Z</time></trkpt><trkpt lat="40.796754" lon=".568937"><ele>263.417</ele><time>2026-04-17T08:34:47Z</time></trkpt><trkpt lat="40.796789" lon=".568894"><ele>263.409</ele><time>2026-04-17T08:34:48Z</time></trkpt><trkpt lat="40.796825" lon=".56885"><ele>263.450</ele><time>2026-04-17T08:34:49Z</time></trkpt><trkpt lat="40.796858" lon=".568803"><ele>263.244</ele><time>2026-04-17T08:34:50Z</time></trkpt><trkpt lat="40.796891" lon=".568759"><ele>263.278</ele><time>2026-04-17T08:34:51Z</time></trkpt><trkpt lat="40.796928" lon=".568723"><ele>263.061</ele><time>2026-04-17T08:34:52Z</time></trkpt><trkpt lat="40.796972" lon=".568701"><ele>262.852</ele><time>2026-04-17T08:34:53Z</time></trkpt><trkpt lat="40.797017" lon=".568697"><ele>262.888</ele><time>2026-04-17T08:34:54Z</time></trkpt><trkpt lat="40.797056" lon=".568716"><ele>262.619</ele><time>2026-04-17T08:34:55Z</time></trkpt><trkpt lat="40.797127" lon=".568776"><ele>262.497</ele><time>2026-04-17T08:34:57Z</time></trkpt><trkpt lat="40.797163" lon=".568803"><ele>262.495</ele><time>2026-04-17T08:34:58Z</time></trkpt><trkpt lat="40.797202" lon=".56883"><ele>262.272</ele><time>2026-04-17T08:34:59Z</time></trkpt><trkpt lat="40.797237" lon=".568857"><ele>262.213</ele><time>2026-04-17T08:35:00Z</time></trkpt><trkpt lat="40.797267" lon=".568888"><ele>262.414</ele><time>2026-04-17T08:35:01Z</time></trkpt><trkpt lat="40.79729" lon=".568913"><ele>262.409</ele><time>2026-04-17T08:35:02Z</time></trkpt><trkpt lat="40.797316" lon=".568925"><ele>262.629</ele><time>2026-04-17T08:35:03Z</time></trkpt><trkpt lat="40.797346" lon=".568934"><ele>262.823</ele><time>2026-04-17T08:35:04Z</time></trkpt><trkpt lat="40.797378" lon=".568941"><ele>262.847</ele><time>2026-04-17T08:35:05Z</time></trkpt><trkpt lat="40.797415" lon=".568943"><ele>263.060</ele><time>2026-04-17T08:35:06Z</time></trkpt><trkpt lat="40.797452" lon=".568935"><ele>263.021</ele><time>2026-04-17T08:35:07Z</time></trkpt><trkpt lat="40.797523" lon=".568919"><ele>263.487</ele><time>2026-04-17T08:35:09Z</time></trkpt><trkpt lat="40.797596" lon=".568943"><ele>263.648</ele><time>2026-04-17T08:35:11Z</time></trkpt><trkpt lat="40.797631" lon=".568963"><ele>263.816</ele><time>2026-04-17T08:35:12Z</time></trkpt><trkpt lat="40.797664" lon=".568986"><ele>263.864</ele><time>2026-04-17T08:35:13Z</time></trkpt><trkpt lat="40.797697" lon=".569021"><ele>263.892</ele><time>2026-04-17T08:35:14Z</time></trkpt><trkpt lat="40.797714" lon=".569065"><ele>263.873</ele><time>2026-04-17T08:35:15Z</time></trkpt><trkpt lat="40.797716" lon=".569115"><ele>263.820</ele><time>2026-04-17T08:35:16Z</time></trkpt><trkpt lat="40.797705" lon=".569235"><ele>263.809</ele><time>2026-04-17T08:35:18Z</time></trkpt><trkpt lat="40.797687" lon=".569304"><ele>263.651</ele><time>2026-04-17T08:35:19Z</time></trkpt><trkpt lat="40.797675" lon=".569372"><ele>263.625</ele><time>2026-04-17T08:35:20Z</time></trkpt><trkpt lat="40.797679" lon=".569508"><ele>262.489</ele><time>2026-04-17T08:35:22Z</time></trkpt><trkpt lat="40.797687" lon=".569567"><ele>262.022</ele><time>2026-04-17T08:35:23Z</time></trkpt><trkpt lat="40.797704" lon=".569611"><ele>261.633</ele><time>2026-04-17T08:35:24Z</time></trkpt><trkpt lat="40.797722" lon=".569637"><ele>261.459</ele><time>2026-04-17T08:35:25Z</time></trkpt><trkpt lat="40.797737" lon=".569654"><ele>261.480</ele><time>2026-04-17T08:35:26Z</time></trkpt><trkpt lat="40.797747" lon=".569673"><ele>261.488</ele><time>2026-04-17T08:35:27Z</time></trkpt><trkpt lat="40.79775" lon=".569684"><ele>261.476</ele><time>2026-04-17T08:35:28Z</time></trkpt><trkpt lat="40.79775" lon=".569684"><ele>261.661</ele><time>2026-04-17T08:35:29Z</time></trkpt><trkpt lat="40.79775" lon=".569684"><ele>262.221</ele><time>2026-04-17T08:35:31Z</time></trkpt><trkpt lat="40.797749" lon=".569751"><ele>263.613</ele><time>2026-04-17T08:35:44Z</time></trkpt><trkpt lat="40.797732" lon=".569816"><ele>263.609</ele><time>2026-04-17T08:35:46Z</time></trkpt><trkpt lat="40.797711" lon=".56991"><ele>263.638</ele><time>2026-04-17T08:35:49Z</time></trkpt><trkpt lat="40.797705" lon=".569928"><ele>263.662</ele><time>2026-04-17T08:35:50Z</time></trkpt><trkpt lat="40.797698" lon=".569951"><ele>263.676</ele><time>2026-04-17T08:35:51Z</time></trkpt><trkpt lat="40.797686" lon=".569978"><ele>263.679</ele><time>2026-04-17T08:35:52Z</time></trkpt><trkpt lat="40.797632" lon=".570043"><ele>263.690</ele><time>2026-04-17T08:35:55Z</time></trkpt><trkpt lat="40.797611" lon=".570068"><ele>263.646</ele><time>2026-04-17T08:35:56Z</time></trkpt><trkpt lat="40.797559" lon=".570144"><ele>263.867</ele><time>2026-04-17T08:35:59Z</time></trkpt><trkpt lat="40.797514" lon=".570227"><ele>264.225</ele><time>2026-04-17T08:36:02Z</time></trkpt><trkpt lat="40.797509" lon=".570251"><ele>264.263</ele><time>2026-04-17T08:36:03Z</time></trkpt><trkpt lat="40.797504" lon=".570272"><ele>264.443</ele><time>2026-04-17T08:36:04Z</time></trkpt><trkpt lat="40.797498" lon=".570295"><ele>264.864</ele><time>2026-04-17T08:36:05Z</time></trkpt><trkpt lat="40.797494" lon=".570314"><ele>264.810</ele><time>2026-04-17T08:36:06Z</time></trkpt><trkpt lat="40.797495" lon=".57034"><ele>265.209</ele><time>2026-04-17T08:36:07Z</time></trkpt><trkpt lat="40.797518" lon=".570367"><ele>265.876</ele><time>2026-04-17T08:36:09Z</time></trkpt><trkpt lat="40.797538" lon=".570383"><ele>266.020</ele><time>2026-04-17T08:36:10Z</time></trkpt><trkpt lat="40.797555" lon=".570401"><ele>266.434</ele><time>2026-04-17T08:36:11Z</time></trkpt><trkpt lat="40.797568" lon=".570412"><ele>266.637</ele><time>2026-04-17T08:36:12Z</time></trkpt><trkpt lat="40.797605" lon=".570439"><ele>267.038</ele><time>2026-04-17T08:36:14Z</time></trkpt><trkpt lat="40.797626" lon=".570453"><ele>267.274</ele><time>2026-04-17T08:36:15Z</time></trkpt><trkpt lat="40.797644" lon=".570469"><ele>267.485</ele><time>2026-04-17T08:36:16Z</time></trkpt><trkpt lat="40.797661" lon=".570483"><ele>267.653</ele><time>2026-04-17T08:36:17Z</time></trkpt><trkpt lat="40.797679" lon=".570496"><ele>267.631</ele><time>2026-04-17T08:36:18Z</time></trkpt><trkpt lat="40.797696" lon=".570507"><ele>267.893</ele><time>2026-04-17T08:36:19Z</time></trkpt><trkpt lat="40.797713" lon=".57052"><ele>267.865</ele><time>2026-04-17T08:36:20Z</time></trkpt><trkpt lat="40.797733" lon=".57053"><ele>268.021</ele><time>2026-04-17T08:36:21Z</time></trkpt><trkpt lat="40.797754" lon=".570535"><ele>268.009</ele><time>2026-04-17T08:36:22Z</time></trkpt><trkpt lat="40.797772" lon=".570541"><ele>268.271</ele><time>2026-04-17T08:36:23Z</time></trkpt><trkpt lat="40.797789" lon=".570553"><ele>268.455</ele><time>2026-04-17T08:36:24Z</time></trkpt><trkpt lat="40.797809" lon=".570571"><ele>268.429</ele><time>2026-04-17T08:36:25Z</time></trkpt><trkpt lat="40.797829" lon=".570592"><ele>268.672</ele><time>2026-04-17T08:36:26Z</time></trkpt><trkpt lat="40.797851" lon=".570616"><ele>268.693</ele><time>2026-04-17T08:36:27Z</time></trkpt><trkpt lat="40.797875" lon=".570635"><ele>268.829</ele><time>2026-04-17T08:36:28Z</time></trkpt><trkpt lat="40.797896" lon=".570651"><ele>268.810</ele><time>2026-04-17T08:36:29Z</time></trkpt><trkpt lat="40.797917" lon=".570664"><ele>268.878</ele><time>2026-04-17T08:36:30Z</time></trkpt><trkpt lat="40.797934" lon=".570679"><ele>268.846</ele><time>2026-04-17T08:36:31Z</time></trkpt><trkpt lat="40.79795" lon=".570696"><ele>268.876</ele><time>2026-04-17T08:36:32Z</time></trkpt><trkpt lat="40.797965" lon=".570712"><ele>268.890</ele><time>2026-04-17T08:36:33Z</time></trkpt><trkpt lat="40.797983" lon=".570726"><ele>269.019</ele><time>2026-04-17T08:36:34Z</time></trkpt><trkpt lat="40.798001" lon=".570737"><ele>269.009</ele><time>2026-04-17T08:36:35Z</time></trkpt><trkpt lat="40.798017" lon=".570751"><ele>269.289</ele><time>2026-04-17T08:36:36Z</time></trkpt><trkpt lat="40.798031" lon=".570765"><ele>269.253</ele><time>2026-04-17T08:36:37Z</time></trkpt><trkpt lat="40.798046" lon=".570779"><ele>269.417</ele><time>2026-04-17T08:36:38Z</time></trkpt><trkpt lat="40.798064" lon=".570795"><ele>269.460</ele><time>2026-04-17T08:36:39Z</time></trkpt><trkpt lat="40.798083" lon=".570805"><ele>269.411</ele><time>2026-04-17T08:36:40Z</time></trkpt><trkpt lat="40.798101" lon=".570806"><ele>269.617</ele><time>2026-04-17T08:36:41Z</time></trkpt><trkpt lat="40.798118" lon=".570801"><ele>270.078</ele><time>2026-04-17T08:36:42Z</time></trkpt><trkpt lat="40.798138" lon=".570793"><ele>270.276</ele><time>2026-04-17T08:36:43Z</time></trkpt><trkpt lat="40.798156" lon=".570787"><ele>270.424</ele><time>2026-04-17T08:36:44Z</time></trkpt><trkpt lat="40.798173" lon=".570781"><ele>271.024</ele><time>2026-04-17T08:36:45Z</time></trkpt><trkpt lat="40.798195" lon=".570768"><ele>271.204</ele><time>2026-04-17T08:36:46Z</time></trkpt><trkpt lat="40.798212" lon=".570752"><ele>271.614</ele><time>2026-04-17T08:36:47Z</time></trkpt><trkpt lat="40.798226" lon=".570731"><ele>271.809</ele><time>2026-04-17T08:36:48Z</time></trkpt><trkpt lat="40.798239" lon=".570711"><ele>272.054</ele><time>2026-04-17T08:36:49Z</time></trkpt><trkpt lat="40.798252" lon=".570693"><ele>272.068</ele><time>2026-04-17T08:36:50Z</time></trkpt><trkpt lat="40.798265" lon=".570675"><ele>272.292</ele><time>2026-04-17T08:36:51Z</time></trkpt><trkpt lat="40.798277" lon=".570655"><ele>272.675</ele><time>2026-04-17T08:36:52Z</time></trkpt><trkpt lat="40.798288" lon=".57063"><ele>272.826</ele><time>2026-04-17T08:36:53Z</time></trkpt><trkpt lat="40.798293" lon=".570601"><ele>273.432</ele><time>2026-04-17T08:36:54Z</time></trkpt><trkpt lat="40.798294" lon=".570578"><ele>273.613</ele><time>2026-04-17T08:36:55Z</time></trkpt><trkpt lat="40.798294" lon=".57055"><ele>273.881</ele><time>2026-04-17T08:36:56Z</time></trkpt><trkpt lat="40.798291" lon=".570524"><ele>274.269</ele><time>2026-04-17T08:36:57Z</time></trkpt><trkpt lat="40.798289" lon=".570497"><ele>274.635</ele><time>2026-04-17T08:36:58Z</time></trkpt><trkpt lat="40.798284" lon=".570469"><ele>274.886</ele><time>2026-04-17T08:36:59Z</time></trkpt><trkpt lat="40.79828" lon=".570439"><ele>274.814</ele><time>2026-04-17T08:37:00Z</time></trkpt><trkpt lat="40.798278" lon=".570409"><ele>274.809</ele><time>2026-04-17T08:37:01Z</time></trkpt><trkpt lat="40.798274" lon=".570377"><ele>275.035</ele><time>2026-04-17T08:37:02Z</time></trkpt><trkpt lat="40.79827" lon=".570348"><ele>275.099</ele><time>2026-04-17T08:37:03Z</time></trkpt><trkpt lat="40.798266" lon=".570318"><ele>275.053</ele><time>2026-04-17T08:37:04Z</time></trkpt><trkpt lat="40.798263" lon=".570286"><ele>275.096</ele><time>2026-04-17T08:37:05Z</time></trkpt><trkpt lat="40.798261" lon=".570254"><ele>275.447</ele><time>2026-04-17T08:37:06Z</time></trkpt><trkpt lat="40.798259" lon=".570222"><ele>275.673</ele><time>2026-04-17T08:37:07Z</time></trkpt><trkpt lat="40.798259" lon=".570193"><ele>275.654</ele><time>2026-04-17T08:37:08Z</time></trkpt><trkpt lat="40.798258" lon=".570161"><ele>275.812</ele><time>2026-04-17T08:37:09Z</time></trkpt><trkpt lat="40.79826" lon=".570128"><ele>275.830</ele><time>2026-04-17T08:37:10Z</time></trkpt><trkpt lat="40.798259" lon=".570087"><ele>276.089</ele><time>2026-04-17T08:37:11Z</time></trkpt><trkpt lat="40.798254" lon=".570059"><ele>276.006</ele><time>2026-04-17T08:37:12Z</time></trkpt><trkpt lat="40.798249" lon=".570023"><ele>276.026</ele><time>2026-04-17T08:37:13Z</time></trkpt><trkpt lat="40.798242" lon=".569989"><ele>276.009</ele><time>2026-04-17T08:37:14Z</time></trkpt><trkpt lat="40.798232" lon=".569955"><ele>276.020</ele><time>2026-04-17T08:37:15Z</time></trkpt><trkpt lat="40.798221" lon=".569921"><ele>276.034</ele><time>2026-04-17T08:37:16Z</time></trkpt><trkpt lat="40.798206" lon=".569884"><ele>276.228</ele><time>2026-04-17T08:37:17Z</time></trkpt><trkpt lat="40.798182" lon=".569848"><ele>276.291</ele><time>2026-04-17T08:37:18Z</time></trkpt><trkpt lat="40.798152" lon=".569816"><ele>276.292</ele><time>2026-04-17T08:37:19Z</time></trkpt><trkpt lat="40.798125" lon=".569787"><ele>276.058</ele><time>2026-04-17T08:37:20Z</time></trkpt><trkpt lat="40.798107" lon=".569752"><ele>276.019</ele><time>2026-04-17T08:37:21Z</time></trkpt><trkpt lat="40.798101" lon=".569714"><ele>276.087</ele><time>2026-04-17T08:37:22Z</time></trkpt><trkpt lat="40.798095" lon=".569667"><ele>276.075</ele><time>2026-04-17T08:37:23Z</time></trkpt><trkpt lat="40.79809" lon=".569639"><ele>276.095</ele><time>2026-04-17T08:37:24Z</time></trkpt><trkpt lat="40.798085" lon=".569607"><ele>276.049</ele><time>2026-04-17T08:37:25Z</time></trkpt><trkpt lat="40.798082" lon=".56958"><ele>275.823</ele><time>2026-04-17T08:37:26Z</time></trkpt><trkpt lat="40.798081" lon=".569552"><ele>275.809</ele><time>2026-04-17T08:37:27Z</time></trkpt><trkpt lat="40.798084" lon=".569526"><ele>275.831</ele><time>2026-04-17T08:37:28Z</time></trkpt><trkpt lat="40.798093" lon=".569503"><ele>276.035</ele><time>2026-04-17T08:37:29Z</time></trkpt><trkpt lat="40.798101" lon=".569474"><ele>276.219</ele><time>2026-04-17T08:37:30Z</time></trkpt><trkpt lat="40.798116" lon=".569424"><ele>276.422</ele><time>2026-04-17T08:37:32Z</time></trkpt><trkpt lat="40.798125" lon=".569399"><ele>276.883</ele><time>2026-04-17T08:37:33Z</time></trkpt><trkpt lat="40.798134" lon=".569374"><ele>276.819</ele><time>2026-04-17T08:37:34Z</time></trkpt><trkpt lat="40.798141" lon=".569353"><ele>277.240</ele><time>2026-04-17T08:37:35Z</time></trkpt><trkpt lat="40.79815" lon=".569325"><ele>277.298</ele><time>2026-04-17T08:37:36Z</time></trkpt><trkpt lat="40.798182" lon=".569192"><ele>278.856</ele><time>2026-04-17T08:37:40Z</time></trkpt><trkpt lat="40.798217" lon=".569107"><ele>279.874</ele><time>2026-04-17T08:37:43Z</time></trkpt><trkpt lat="40.798224" lon=".569085"><ele>280.856</ele><time>2026-04-17T08:37:44Z</time></trkpt><trkpt lat="40.798232" lon=".56906"><ele>281.021</ele><time>2026-04-17T08:37:45Z</time></trkpt><trkpt lat="40.798241" lon=".569038"><ele>281.409</ele><time>2026-04-17T08:37:46Z</time></trkpt><trkpt lat="40.798251" lon=".569014"><ele>282.039</ele><time>2026-04-17T08:37:47Z</time></trkpt><trkpt lat="40.798261" lon=".568987"><ele>282.243</ele><time>2026-04-17T08:37:48Z</time></trkpt><trkpt lat="40.79827" lon=".568961"><ele>282.637</ele><time>2026-04-17T08:37:49Z</time></trkpt><trkpt lat="40.79828" lon=".568937"><ele>283.010</ele><time>2026-04-17T08:37:50Z</time></trkpt><trkpt lat="40.798291" lon=".568914"><ele>283.641</ele><time>2026-04-17T08:37:51Z</time></trkpt><trkpt lat="40.7983" lon=".568889"><ele>283.867</ele><time>2026-04-17T08:37:52Z</time></trkpt><trkpt lat="40.798306" lon=".568856"><ele>284.438</ele><time>2026-04-17T08:37:53Z</time></trkpt><trkpt lat="40.798308" lon=".568832"><ele>284.666</ele><time>2026-04-17T08:37:54Z</time></trkpt><trkpt lat="40.79831" lon=".568796"><ele>285.094</ele><time>2026-04-17T08:37:55Z</time></trkpt><trkpt lat="40.79831" lon=".568769"><ele>285.423</ele><time>2026-04-17T08:37:56Z</time></trkpt><trkpt lat="40.798313" lon=".568744"><ele>285.883</ele><time>2026-04-17T08:37:57Z</time></trkpt><trkpt lat="40.798317" lon=".568723"><ele>286.411</ele><time>2026-04-17T08:37:58Z</time></trkpt><trkpt lat="40.798329" lon=".568691"><ele>286.809</ele><time>2026-04-17T08:37:59Z</time></trkpt><trkpt lat="40.79835" lon=".568674"><ele>287.454</ele><time>2026-04-17T08:38:00Z</time></trkpt><trkpt lat="40.798375" lon=".568668"><ele>287.648</ele><time>2026-04-17T08:38:01Z</time></trkpt><trkpt lat="40.798394" lon=".568668"><ele>288.082</ele><time>2026-04-17T08:38:02Z</time></trkpt><trkpt lat="40.798417" lon=".568659"><ele>288.285</ele><time>2026-04-17T08:38:03Z</time></trkpt><trkpt lat="40.798444" lon=".568646"><ele>288.846</ele><time>2026-04-17T08:38:04Z</time></trkpt><trkpt lat="40.798467" lon=".568636"><ele>289.232</ele><time>2026-04-17T08:38:05Z</time></trkpt><trkpt lat="40.79849" lon=".56863"><ele>289.853</ele><time>2026-04-17T08:38:06Z</time></trkpt><trkpt lat="40.798511" lon=".568628"><ele>290.411</ele><time>2026-04-17T08:38:07Z</time></trkpt><trkpt lat="40.798531" lon=".568623"><ele>290.869</ele><time>2026-04-17T08:38:08Z</time></trkpt><trkpt lat="40.798552" lon=".56862"><ele>291.471</ele><time>2026-04-17T08:38:09Z</time></trkpt><trkpt lat="40.798571" lon=".568621"><ele>291.641</ele><time>2026-04-17T08:38:10Z</time></trkpt><trkpt lat="40.79859" lon=".568624"><ele>292.215</ele><time>2026-04-17T08:38:11Z</time></trkpt><trkpt lat="40.798606" lon=".568626"><ele>292.409</ele><time>2026-04-17T08:38:12Z</time></trkpt><trkpt lat="40.798629" lon=".568629"><ele>292.869</ele><time>2026-04-17T08:38:13Z</time></trkpt><trkpt lat="40.798647" lon=".568635"><ele>293.083</ele><time>2026-04-17T08:38:14Z</time></trkpt><trkpt lat="40.798662" lon=".568639"><ele>293.277</ele><time>2026-04-17T08:38:15Z</time></trkpt><trkpt lat="40.798684" lon=".568641"><ele>293.410</ele><time>2026-04-17T08:38:16Z</time></trkpt><trkpt lat="40.798698" lon=".56864"><ele>293.481</ele><time>2026-04-17T08:38:17Z</time></trkpt><trkpt lat="40.798714" lon=".568644"><ele>293.667</ele><time>2026-04-17T08:38:18Z</time></trkpt><trkpt lat="40.798734" lon=".568648"><ele>293.678</ele><time>2026-04-17T08:38:19Z</time></trkpt><trkpt lat="40.798751" lon=".568647"><ele>293.886</ele><time>2026-04-17T08:38:20Z</time></trkpt><trkpt lat="40.798765" lon=".568642"><ele>294.054</ele><time>2026-04-17T08:38:21Z</time></trkpt><trkpt lat="40.798782" lon=".568631"><ele>294.051</ele><time>2026-04-17T08:38:22Z</time></trkpt><trkpt lat="40.798791" lon=".568616"><ele>294.601</ele><time>2026-04-17T08:38:23Z</time></trkpt><trkpt lat="40.798798" lon=".568598"><ele>294.811</ele><time>2026-04-17T08:38:24Z</time></trkpt><trkpt lat="40.798797" lon=".568583"><ele>295.209</ele><time>2026-04-17T08:38:25Z</time></trkpt><trkpt lat="40.79879" lon=".568569"><ele>295.287</ele><time>2026-04-17T08:38:26Z</time></trkpt><trkpt lat="40.798777" lon=".568555"><ele>295.691</ele><time>2026-04-17T08:38:27Z</time></trkpt><trkpt lat="40.798758" lon=".56855"><ele>295.655</ele><time>2026-04-17T08:38:28Z</time></trkpt><trkpt lat="40.798742" lon=".568549"><ele>295.868</ele><time>2026-04-17T08:38:29Z</time></trkpt><trkpt lat="40.798725" lon=".568545"><ele>296.229</ele><time>2026-04-17T08:38:30Z</time></trkpt><trkpt lat="40.79871" lon=".568531"><ele>296.495</ele><time>2026-04-17T08:38:31Z</time></trkpt><trkpt lat="40.798698" lon=".568519"><ele>296.836</ele><time>2026-04-17T08:38:32Z</time></trkpt><trkpt lat="40.798682" lon=".568504"><ele>297.074</ele><time>2026-04-17T08:38:33Z</time></trkpt><trkpt lat="40.798668" lon=".568486"><ele>297.232</ele><time>2026-04-17T08:38:34Z</time></trkpt><trkpt lat="40.798652" lon=".568465"><ele>297.491</ele><time>2026-04-17T08:38:35Z</time></trkpt><trkpt lat="40.798643" lon=".568449"><ele>297.681</ele><time>2026-04-17T08:38:36Z</time></trkpt><trkpt lat="40.798636" lon=".568419"><ele>297.619</ele><time>2026-04-17T08:38:37Z</time></trkpt><trkpt lat="40.798633" lon=".568395"><ele>298.009</ele><time>2026-04-17T08:38:38Z</time></trkpt><trkpt lat="40.798632" lon=".568366"><ele>298.691</ele><time>2026-04-17T08:38:39Z</time></trkpt><trkpt lat="40.798639" lon=".568338"><ele>298.855</ele><time>2026-04-17T08:38:40Z</time></trkpt><trkpt lat="40.798652" lon=".56832"><ele>299.099</ele><time>2026-04-17T08:38:41Z</time></trkpt><trkpt lat="40.798667" lon=".56831"><ele>299.022</ele><time>2026-04-17T08:38:42Z</time></trkpt><trkpt lat="40.798692" lon=".5683"><ele>299.213</ele><time>2026-04-17T08:38:43Z</time></trkpt><trkpt lat="40.798708" lon=".568295"><ele>299.439</ele><time>2026-04-17T08:38:44Z</time></trkpt><trkpt lat="40.798735" lon=".568293"><ele>299.850</ele><time>2026-04-17T08:38:45Z</time></trkpt><trkpt lat="40.798753" lon=".568293"><ele>300.288</ele><time>2026-04-17T08:38:46Z</time></trkpt><trkpt lat="40.798769" lon=".568292"><ele>301.016</ele><time>2026-04-17T08:38:47Z</time></trkpt><trkpt lat="40.798788" lon=".568293"><ele>301.454</ele><time>2026-04-17T08:38:48Z</time></trkpt><trkpt lat="40.798807" lon=".568291"><ele>301.656</ele><time>2026-04-17T08:38:49Z</time></trkpt><trkpt lat="40.798819" lon=".56829"><ele>302.211</ele><time>2026-04-17T08:38:50Z</time></trkpt><trkpt lat="40.798837" lon=".568289"><ele>302.609</ele><time>2026-04-17T08:38:51Z</time></trkpt><trkpt lat="40.798856" lon=".568285"><ele>303.027</ele><time>2026-04-17T08:38:52Z</time></trkpt><trkpt lat="40.798874" lon=".56828"><ele>303.061</ele><time>2026-04-17T08:38:53Z</time></trkpt><trkpt lat="40.798891" lon=".568275"><ele>303.275</ele><time>2026-04-17T08:38:54Z</time></trkpt><trkpt lat="40.798909" lon=".568269"><ele>303.448</ele><time>2026-04-17T08:38:55Z</time></trkpt><trkpt lat="40.798927" lon=".568265"><ele>303.639</ele><time>2026-04-17T08:38:56Z</time></trkpt><trkpt lat="40.798944" lon=".568262"><ele>304.025</ele><time>2026-04-17T08:38:57Z</time></trkpt><trkpt lat="40.79896" lon=".568259"><ele>304.026</ele><time>2026-04-17T08:38:58Z</time></trkpt><trkpt lat="40.798978" lon=".568257"><ele>304.284</ele><time>2026-04-17T08:38:59Z</time></trkpt><trkpt lat="40.798996" lon=".568253"><ele>304.242</ele><time>2026-04-17T08:39:00Z</time></trkpt><trkpt lat="40.799014" lon=".568246"><ele>304.688</ele><time>2026-04-17T08:39:01Z</time></trkpt><trkpt lat="40.799032" lon=".56824"><ele>304.624</ele><time>2026-04-17T08:39:02Z</time></trkpt><trkpt lat="40.799051" lon=".568232"><ele>304.826</ele><time>2026-04-17T08:39:03Z</time></trkpt><trkpt lat="40.799068" lon=".568225"><ele>305.009</ele><time>2026-04-17T08:39:04Z</time></trkpt><trkpt lat="40.799086" lon=".568219"><ele>305.210</ele><time>2026-04-17T08:39:05Z</time></trkpt><trkpt lat="40.799104" lon=".568213"><ele>305.474</ele><time>2026-04-17T08:39:06Z</time></trkpt><trkpt lat="40.799122" lon=".568207"><ele>305.478</ele><time>2026-04-17T08:39:07Z</time></trkpt><trkpt lat="40.799142" lon=".5682"><ele>306.021</ele><time>2026-04-17T08:39:08Z</time></trkpt><trkpt lat="40.799162" lon=".56819"><ele>306.062</ele><time>2026-04-17T08:39:09Z</time></trkpt><trkpt lat="40.799182" lon=".568179"><ele>306.248</ele><time>2026-04-17T08:39:10Z</time></trkpt><trkpt lat="40.799204" lon=".56817"><ele>306.419</ele><time>2026-04-17T08:39:11Z</time></trkpt><trkpt lat="40.79923" lon=".568162"><ele>306.497</ele><time>2026-04-17T08:39:12Z</time></trkpt><trkpt lat="40.799262" lon=".568151"><ele>306.415</ele><time>2026-04-17T08:39:13Z</time></trkpt><trkpt lat="40.799296" lon=".568136"><ele>306.474</ele><time>2026-04-17T08:39:14Z</time></trkpt><trkpt lat="40.79933" lon=".568122"><ele>306.456</ele><time>2026-04-17T08:39:15Z</time></trkpt><trkpt lat="40.799361" lon=".568105"><ele>306.221</ele><time>2026-04-17T08:39:16Z</time></trkpt><trkpt lat="40.79939" lon=".568087"><ele>306.209</ele><time>2026-04-17T08:39:17Z</time></trkpt><trkpt lat="40.799417" lon=".568067"><ele>306.299</ele><time>2026-04-17T08:39:18Z</time></trkpt><trkpt lat="40.799443" lon=".568044"><ele>306.013</ele><time>2026-04-17T08:39:19Z</time></trkpt><trkpt lat="40.799466" lon=".56802"><ele>306.047</ele><time>2026-04-17T08:39:20Z</time></trkpt><trkpt lat="40.79949" lon=".567993"><ele>306.020</ele><time>2026-04-17T08:39:21Z</time></trkpt><trkpt lat="40.79951" lon=".567961"><ele>306.041</ele><time>2026-04-17T08:39:22Z</time></trkpt><trkpt lat="40.799527" lon=".567926"><ele>306.027</ele><time>2026-04-17T08:39:23Z</time></trkpt><trkpt lat="40.799545" lon=".567888"><ele>306.068</ele><time>2026-04-17T08:39:24Z</time></trkpt><trkpt lat="40.799563" lon=".567847"><ele>306.096</ele><time>2026-04-17T08:39:25Z</time></trkpt><trkpt lat="40.799581" lon=".5678"><ele>306.044</ele><time>2026-04-17T08:39:26Z</time></trkpt><trkpt lat="40.799635" lon=".567683"><ele>306.012</ele><time>2026-04-17T08:39:28Z</time></trkpt><trkpt lat="40.799666" lon=".567627"><ele>305.832</ele><time>2026-04-17T08:39:29Z</time></trkpt><trkpt lat="40.799742" lon=".567548"><ele>304.805</ele><time>2026-04-17T08:39:31Z</time></trkpt><trkpt lat="40.799794" lon=".567548"><ele>304.409</ele><time>2026-04-17T08:39:32Z</time></trkpt><trkpt lat="40.799847" lon=".567564"><ele>303.813</ele><time>2026-04-17T08:39:33Z</time></trkpt><trkpt lat="40.7999" lon=".567582"><ele>303.657</ele><time>2026-04-17T08:39:34Z</time></trkpt><trkpt lat="40.799954" lon=".567589"><ele>302.451</ele><time>2026-04-17T08:39:35Z</time></trkpt><trkpt lat="40.800007" lon=".567585"><ele>302.014</ele><time>2026-04-17T08:39:36Z</time></trkpt><trkpt lat="40.800056" lon=".567586"><ele>301.415</ele><time>2026-04-17T08:39:37Z</time></trkpt><trkpt lat="40.800099" lon=".567589"><ele>301.221</ele><time>2026-04-17T08:39:38Z</time></trkpt><trkpt lat="40.800137" lon=".567591"><ele>301.032</ele><time>2026-04-17T08:39:39Z</time></trkpt><trkpt lat="40.800169" lon=".567587"><ele>301.020</ele><time>2026-04-17T08:39:40Z</time></trkpt><trkpt lat="40.800198" lon=".567579"><ele>301.078</ele><time>2026-04-17T08:39:41Z</time></trkpt><trkpt lat="40.800221" lon=".567568"><ele>301.089</ele><time>2026-04-17T08:39:42Z</time></trkpt><trkpt lat="40.800243" lon=".567552"><ele>301.006</ele><time>2026-04-17T08:39:43Z</time></trkpt><trkpt lat="40.800265" lon=".567536"><ele>301.426</ele><time>2026-04-17T08:39:44Z</time></trkpt><trkpt lat="40.800288" lon=".567518"><ele>301.809</ele><time>2026-04-17T08:39:45Z</time></trkpt><trkpt lat="40.800332" lon=".56747"><ele>302.610</ele><time>2026-04-17T08:39:47Z</time></trkpt><trkpt lat="40.800379" lon=".567424"><ele>303.864</ele><time>2026-04-17T08:39:49Z</time></trkpt><trkpt lat="40.800434" lon=".567382"><ele>304.428</ele><time>2026-04-17T08:39:51Z</time></trkpt><trkpt lat="40.800495" lon=".567356"><ele>305.431</ele><time>2026-04-17T08:39:53Z</time></trkpt><trkpt lat="40.800552" lon=".567338"><ele>306.822</ele><time>2026-04-17T08:39:55Z</time></trkpt><trkpt lat="40.800569" lon=".567333"><ele>307.238</ele><time>2026-04-17T08:39:56Z</time></trkpt><trkpt lat="40.800599" lon=".567328"><ele>307.839</ele><time>2026-04-17T08:39:57Z</time></trkpt><trkpt lat="40.800619" lon=".567322"><ele>308.287</ele><time>2026-04-17T08:39:58Z</time></trkpt><trkpt lat="40.80064" lon=".567314"><ele>308.645</ele><time>2026-04-17T08:39:59Z</time></trkpt><trkpt lat="40.800658" lon=".567302"><ele>309.234</ele><time>2026-04-17T08:40:00Z</time></trkpt><trkpt lat="40.800674" lon=".567285"><ele>309.655</ele><time>2026-04-17T08:40:01Z</time></trkpt><trkpt lat="40.800691" lon=".567267"><ele>310.010</ele><time>2026-04-17T08:40:02Z</time></trkpt><trkpt lat="40.80071" lon=".567247"><ele>310.009</ele><time>2026-04-17T08:40:03Z</time></trkpt><trkpt lat="40.800726" lon=".567234"><ele>310.415</ele><time>2026-04-17T08:40:04Z</time></trkpt><trkpt lat="40.800751" lon=".567216"><ele>310.479</ele><time>2026-04-17T08:40:05Z</time></trkpt><trkpt lat="40.800771" lon=".567201"><ele>310.613</ele><time>2026-04-17T08:40:06Z</time></trkpt><trkpt lat="40.800787" lon=".567187"><ele>310.826</ele><time>2026-04-17T08:40:07Z</time></trkpt><trkpt lat="40.800806" lon=".567171"><ele>310.867</ele><time>2026-04-17T08:40:08Z</time></trkpt><trkpt lat="40.800826" lon=".567156"><ele>311.053</ele><time>2026-04-17T08:40:09Z</time></trkpt><trkpt lat="40.800849" lon=".567139"><ele>311.254</ele><time>2026-04-17T08:40:10Z</time></trkpt><trkpt lat="40.800865" lon=".567129"><ele>311.412</ele><time>2026-04-17T08:40:11Z</time></trkpt><trkpt lat="40.800886" lon=".567115"><ele>311.660</ele><time>2026-04-17T08:40:12Z</time></trkpt><trkpt lat="40.800906" lon=".567096"><ele>312.064</ele><time>2026-04-17T08:40:13Z</time></trkpt><trkpt lat="40.800921" lon=".567078"><ele>312.406</ele><time>2026-04-17T08:40:14Z</time></trkpt><trkpt lat="40.800942" lon=".567058"><ele>312.816</ele><time>2026-04-17T08:40:15Z</time></trkpt><trkpt lat="40.800962" lon=".567045"><ele>313.009</ele><time>2026-04-17T08:40:16Z</time></trkpt><trkpt lat="40.800987" lon=".567031"><ele>313.298</ele><time>2026-04-17T08:40:17Z</time></trkpt><trkpt lat="40.801011" lon=".567024"><ele>313.832</ele><time>2026-04-17T08:40:18Z</time></trkpt><trkpt lat="40.801035" lon=".567015"><ele>313.876</ele><time>2026-04-17T08:40:19Z</time></trkpt><trkpt lat="40.80106" lon=".567006"><ele>314.039</ele><time>2026-04-17T08:40:20Z</time></trkpt><trkpt lat="40.801084" lon=".566998"><ele>314.250</ele><time>2026-04-17T08:40:21Z</time></trkpt><trkpt lat="40.801107" lon=".566991"><ele>314.616</ele><time>2026-04-17T08:40:22Z</time></trkpt><trkpt lat="40.801128" lon=".566982"><ele>315.027</ele><time>2026-04-17T08:40:23Z</time></trkpt><trkpt lat="40.801151" lon=".566976"><ele>315.265</ele><time>2026-04-17T08:40:24Z</time></trkpt><trkpt lat="40.801178" lon=".566973"><ele>315.463</ele><time>2026-04-17T08:40:25Z</time></trkpt><trkpt lat="40.801203" lon=".566971"><ele>315.474</ele><time>2026-04-17T08:40:26Z</time></trkpt><trkpt lat="40.80123" lon=".566969"><ele>315.656</ele><time>2026-04-17T08:40:27Z</time></trkpt><trkpt lat="40.801256" lon=".566965"><ele>315.621</ele><time>2026-04-17T08:40:28Z</time></trkpt><trkpt lat="40.801284" lon=".566958"><ele>315.809</ele><time>2026-04-17T08:40:29Z</time></trkpt><trkpt lat="40.801318" lon=".56695"><ele>315.899</ele><time>2026-04-17T08:40:30Z</time></trkpt><trkpt lat="40.801358" lon=".566938"><ele>315.813</ele><time>2026-04-17T08:40:31Z</time></trkpt><trkpt lat="40.801405" lon=".566926"><ele>315.857</ele><time>2026-04-17T08:40:32Z</time></trkpt><trkpt lat="40.801459" lon=".566929"><ele>315.870</ele><time>2026-04-17T08:40:33Z</time></trkpt><trkpt lat="40.801507" lon=".566954"><ele>315.691</ele><time>2026-04-17T08:40:34Z</time></trkpt><trkpt lat="40.801547" lon=".566992"><ele>315.637</ele><time>2026-04-17T08:40:35Z</time></trkpt><trkpt lat="40.801585" lon=".567025"><ele>315.658</ele><time>2026-04-17T08:40:36Z</time></trkpt><trkpt lat="40.801624" lon=".567045"><ele>315.616</ele><time>2026-04-17T08:40:37Z</time></trkpt><trkpt lat="40.801659" lon=".567058"><ele>315.414</ele><time>2026-04-17T08:40:38Z</time></trkpt><trkpt lat="40.801692" lon=".567077"><ele>315.497</ele><time>2026-04-17T08:40:39Z</time></trkpt><trkpt lat="40.80171" lon=".56709"><ele>315.423</ele><time>2026-04-17T08:40:40Z</time></trkpt><trkpt lat="40.80173" lon=".567102"><ele>315.225</ele><time>2026-04-17T08:40:41Z</time></trkpt><trkpt lat="40.801749" lon=".567111"><ele>315.209</ele><time>2026-04-17T08:40:42Z</time></trkpt><trkpt lat="40.801768" lon=".567114"><ele>315.261</ele><time>2026-04-17T08:40:43Z</time></trkpt><trkpt lat="40.801788" lon=".567103"><ele>315.425</ele><time>2026-04-17T08:40:44Z</time></trkpt><trkpt lat="40.8018" lon=".567079"><ele>315.649</ele><time>2026-04-17T08:40:45Z</time></trkpt><trkpt lat="40.801803" lon=".56705"><ele>315.632</ele><time>2026-04-17T08:40:46Z</time></trkpt><trkpt lat="40.801804" lon=".566982"><ele>316.453</ele><time>2026-04-17T08:40:48Z</time></trkpt><trkpt lat="40.801805" lon=".566955"><ele>316.699</ele><time>2026-04-17T08:40:49Z</time></trkpt><trkpt lat="40.801804" lon=".566919"><ele>317.040</ele><time>2026-04-17T08:40:50Z</time></trkpt><trkpt lat="40.801792" lon=".566705"><ele>318.078</ele><time>2026-04-17T08:40:56Z</time></trkpt><trkpt lat="40.801791" lon=".566671"><ele>318.286</ele><time>2026-04-17T08:40:57Z</time></trkpt><trkpt lat="40.801791" lon=".566637"><ele>318.287</ele><time>2026-04-17T08:40:58Z</time></trkpt><trkpt lat="40.801791" lon=".566595"><ele>318.442</ele><time>2026-04-17T08:40:59Z</time></trkpt><trkpt lat="40.801792" lon=".56656"><ele>318.426</ele><time>2026-04-17T08:41:00Z</time></trkpt><trkpt lat="40.801793" lon=".566526"><ele>318.809</ele><time>2026-04-17T08:41:01Z</time></trkpt><trkpt lat="40.801795" lon=".566493"><ele>319.020</ele><time>2026-04-17T08:41:02Z</time></trkpt><trkpt lat="40.801799" lon=".566468"><ele>319.294</ele><time>2026-04-17T08:41:03Z</time></trkpt><trkpt lat="40.801807" lon=".56643"><ele>319.488</ele><time>2026-04-17T08:41:04Z</time></trkpt><trkpt lat="40.801812" lon=".566398"><ele>319.661</ele><time>2026-04-17T08:41:05Z</time></trkpt><trkpt lat="40.801818" lon=".566365"><ele>320.092</ele><time>2026-04-17T08:41:06Z</time></trkpt><trkpt lat="40.801823" lon=".566333"><ele>320.258</ele><time>2026-04-17T08:41:07Z</time></trkpt><trkpt lat="40.801827" lon=".566309"><ele>320.669</ele><time>2026-04-17T08:41:08Z</time></trkpt><trkpt lat="40.801838" lon=".566277"><ele>320.877</ele><time>2026-04-17T08:41:09Z</time></trkpt><trkpt lat="40.801852" lon=".566253"><ele>321.025</ele><time>2026-04-17T08:41:10Z</time></trkpt><trkpt lat="40.801864" lon=".566229"><ele>321.039</ele><time>2026-04-17T08:41:11Z</time></trkpt><trkpt lat="40.801875" lon=".566209"><ele>321.201</ele><time>2026-04-17T08:41:12Z</time></trkpt><trkpt lat="40.801892" lon=".566186"><ele>321.221</ele><time>2026-04-17T08:41:13Z</time></trkpt><trkpt lat="40.801913" lon=".566163"><ele>321.409</ele><time>2026-04-17T08:41:14Z</time></trkpt><trkpt lat="40.801932" lon=".56615"><ele>321.815</ele><time>2026-04-17T08:41:15Z</time></trkpt><trkpt lat="40.801951" lon=".566141"><ele>322.019</ele><time>2026-04-17T08:41:16Z</time></trkpt><trkpt lat="40.801972" lon=".566132"><ele>322.223</ele><time>2026-04-17T08:41:17Z</time></trkpt><trkpt lat="40.801995" lon=".566124"><ele>322.436</ele><time>2026-04-17T08:41:18Z</time></trkpt><trkpt lat="40.802017" lon=".566114"><ele>322.687</ele><time>2026-04-17T08:41:19Z</time></trkpt><trkpt lat="40.802038" lon=".566106"><ele>322.663</ele><time>2026-04-17T08:41:20Z</time></trkpt><trkpt lat="40.802063" lon=".566094"><ele>322.854</ele><time>2026-04-17T08:41:21Z</time></trkpt><trkpt lat="40.802093" lon=".566082"><ele>323.022</ele><time>2026-04-17T08:41:22Z</time></trkpt><trkpt lat="40.802121" lon=".566074"><ele>323.080</ele><time>2026-04-17T08:41:23Z</time></trkpt><trkpt lat="40.802148" lon=".566063"><ele>323.284</ele><time>2026-04-17T08:41:24Z</time></trkpt><trkpt lat="40.802176" lon=".566049"><ele>323.207</ele><time>2026-04-17T08:41:25Z</time></trkpt><trkpt lat="40.802203" lon=".566033"><ele>323.417</ele><time>2026-04-17T08:41:26Z</time></trkpt><trkpt lat="40.802234" lon=".566015"><ele>323.409</ele><time>2026-04-17T08:41:27Z</time></trkpt><trkpt lat="40.802262" lon=".565999"><ele>323.670</ele><time>2026-04-17T08:41:28Z</time></trkpt><trkpt lat="40.802287" lon=".565984"><ele>323.664</ele><time>2026-04-17T08:41:29Z</time></trkpt><trkpt lat="40.802314" lon=".565969"><ele>323.688</ele><time>2026-04-17T08:41:30Z</time></trkpt><trkpt lat="40.80234" lon=".565952"><ele>323.621</ele><time>2026-04-17T08:41:31Z</time></trkpt><trkpt lat="40.802367" lon=".565931"><ele>323.642</ele><time>2026-04-17T08:41:32Z</time></trkpt><trkpt lat="40.802396" lon=".565908"><ele>323.698</ele><time>2026-04-17T08:41:33Z</time></trkpt><trkpt lat="40.802425" lon=".565886"><ele>323.639</ele><time>2026-04-17T08:41:34Z</time></trkpt><trkpt lat="40.802455" lon=".565861"><ele>323.627</ele><time>2026-04-17T08:41:35Z</time></trkpt><trkpt lat="40.802487" lon=".565838"><ele>323.645</ele><time>2026-04-17T08:41:36Z</time></trkpt><trkpt lat="40.80252" lon=".565819"><ele>323.676</ele><time>2026-04-17T08:41:37Z</time></trkpt><trkpt lat="40.802553" lon=".565801"><ele>323.890</ele><time>2026-04-17T08:41:38Z</time></trkpt><trkpt lat="40.802587" lon=".565785"><ele>323.819</ele><time>2026-04-17T08:41:39Z</time></trkpt><trkpt lat="40.802619" lon=".565772"><ele>323.809</ele><time>2026-04-17T08:41:40Z</time></trkpt><trkpt lat="40.802649" lon=".565762"><ele>323.839</ele><time>2026-04-17T08:41:41Z</time></trkpt><trkpt lat="40.802678" lon=".565753"><ele>323.883</ele><time>2026-04-17T08:41:42Z</time></trkpt><trkpt lat="40.802752" lon=".565741"><ele>324.017</ele><time>2026-04-17T08:41:45Z</time></trkpt><trkpt lat="40.802785" lon=".565732"><ele>324.220</ele><time>2026-04-17T08:41:46Z</time></trkpt><trkpt lat="40.802809" lon=".565726"><ele>324.491</ele><time>2026-04-17T08:41:47Z</time></trkpt><trkpt lat="40.802838" lon=".565721"><ele>324.847</ele><time>2026-04-17T08:41:48Z</time></trkpt><trkpt lat="40.802874" lon=".565719"><ele>325.088</ele><time>2026-04-17T08:41:49Z</time></trkpt><trkpt lat="40.8029" lon=".56572"><ele>325.246</ele><time>2026-04-17T08:41:50Z</time></trkpt><trkpt lat="40.80293" lon=".56573"><ele>325.684</ele><time>2026-04-17T08:41:51Z</time></trkpt><trkpt lat="40.802963" lon=".565748"><ele>325.853</ele><time>2026-04-17T08:41:52Z</time></trkpt><trkpt lat="40.802989" lon=".565766"><ele>326.204</ele><time>2026-04-17T08:41:53Z</time></trkpt><trkpt lat="40.803044" lon=".565805"><ele>326.814</ele><time>2026-04-17T08:41:55Z</time></trkpt><trkpt lat="40.803072" lon=".565829"><ele>327.009</ele><time>2026-04-17T08:41:56Z</time></trkpt><trkpt lat="40.803092" lon=".56585"><ele>327.097</ele><time>2026-04-17T08:41:57Z</time></trkpt><trkpt lat="40.803121" lon=".565885"><ele>327.271</ele><time>2026-04-17T08:41:58Z</time></trkpt><trkpt lat="40.803144" lon=".565914"><ele>327.285</ele><time>2026-04-17T08:41:59Z</time></trkpt><trkpt lat="40.803168" lon=".565938"><ele>327.418</ele><time>2026-04-17T08:42:00Z</time></trkpt><trkpt lat="40.803193" lon=".565961"><ele>327.429</ele><time>2026-04-17T08:42:01Z</time></trkpt><trkpt lat="40.80322" lon=".565981"><ele>327.445</ele><time>2026-04-17T08:42:02Z</time></trkpt><trkpt lat="40.80325" lon=".565999"><ele>327.686</ele><time>2026-04-17T08:42:03Z</time></trkpt><trkpt lat="40.80328" lon=".566015"><ele>327.654</ele><time>2026-04-17T08:42:04Z</time></trkpt><trkpt lat="40.803309" lon=".566031"><ele>327.662</ele><time>2026-04-17T08:42:05Z</time></trkpt><trkpt lat="40.803333" lon=".566038"><ele>327.614</ele><time>2026-04-17T08:42:06Z</time></trkpt><trkpt lat="40.803367" lon=".566043"><ele>327.654</ele><time>2026-04-17T08:42:07Z</time></trkpt><trkpt lat="40.803399" lon=".566039"><ele>327.609</ele><time>2026-04-17T08:42:08Z</time></trkpt><trkpt lat="40.803429" lon=".56603"><ele>327.609</ele><time>2026-04-17T08:42:09Z</time></trkpt><trkpt lat="40.803462" lon=".566019"><ele>328.043</ele><time>2026-04-17T08:42:10Z</time></trkpt><trkpt lat="40.803493" lon=".56601"><ele>328.247</ele><time>2026-04-17T08:42:11Z</time></trkpt><trkpt lat="40.803524" lon=".565999"><ele>328.411</ele><time>2026-04-17T08:42:12Z</time></trkpt><trkpt lat="40.803553" lon=".565989"><ele>328.654</ele><time>2026-04-17T08:42:13Z</time></trkpt><trkpt lat="40.803583" lon=".565982"><ele>328.825</ele><time>2026-04-17T08:42:14Z</time></trkpt><trkpt lat="40.803613" lon=".565977"><ele>329.091</ele><time>2026-04-17T08:42:15Z</time></trkpt><trkpt lat="40.803643" lon=".565977"><ele>329.292</ele><time>2026-04-17T08:42:16Z</time></trkpt><trkpt lat="40.803674" lon=".565977"><ele>329.230</ele><time>2026-04-17T08:42:17Z</time></trkpt><trkpt lat="40.803707" lon=".565981"><ele>329.498</ele><time>2026-04-17T08:42:18Z</time></trkpt><trkpt lat="40.80374" lon=".565985"><ele>329.674</ele><time>2026-04-17T08:42:19Z</time></trkpt><trkpt lat="40.803774" lon=".565987"><ele>329.856</ele><time>2026-04-17T08:42:20Z</time></trkpt><trkpt lat="40.803809" lon=".565988"><ele>330.021</ele><time>2026-04-17T08:42:21Z</time></trkpt><trkpt lat="40.803883" lon=".565979"><ele>330.009</ele><time>2026-04-17T08:42:22Z</time></trkpt><trkpt lat="40.803883" lon=".565979"><ele>330.059</ele><time>2026-04-17T08:42:23Z</time></trkpt><trkpt lat="40.803912" lon=".565968"><ele>329.813</ele><time>2026-04-17T08:42:24Z</time></trkpt><trkpt lat="40.803954" lon=".565951"><ele>330.067</ele><time>2026-04-17T08:42:25Z</time></trkpt><trkpt lat="40.803991" lon=".565937"><ele>330.070</ele><time>2026-04-17T08:42:26Z</time></trkpt><trkpt lat="40.80403" lon=".56593"><ele>330.081</ele><time>2026-04-17T08:42:27Z</time></trkpt><trkpt lat="40.804068" lon=".565926"><ele>330.027</ele><time>2026-04-17T08:42:28Z</time></trkpt><trkpt lat="40.804108" lon=".565922"><ele>330.088</ele><time>2026-04-17T08:42:29Z</time></trkpt><trkpt lat="40.804155" lon=".565921"><ele>330.016</ele><time>2026-04-17T08:42:30Z</time></trkpt><trkpt lat="40.804207" lon=".56592"><ele>330.084</ele><time>2026-04-17T08:42:31Z</time></trkpt><trkpt lat="40.804263" lon=".565919"><ele>330.067</ele><time>2026-04-17T08:42:32Z</time></trkpt><trkpt lat="40.804325" lon=".565919"><ele>329.881</ele><time>2026-04-17T08:42:33Z</time></trkpt><trkpt lat="40.804389" lon=".565927"><ele>329.819</ele><time>2026-04-17T08:42:34Z</time></trkpt><trkpt lat="40.804454" lon=".565939"><ele>329.609</ele><time>2026-04-17T08:42:35Z</time></trkpt><trkpt lat="40.804519" lon=".565937"><ele>329.448</ele><time>2026-04-17T08:42:36Z</time></trkpt><trkpt lat="40.804641" lon=".565891"><ele>329.052</ele><time>2026-04-17T08:42:38Z</time></trkpt><trkpt lat="40.804696" lon=".565861"><ele>328.846</ele><time>2026-04-17T08:42:39Z</time></trkpt><trkpt lat="40.804748" lon=".565835"><ele>328.859</ele><time>2026-04-17T08:42:40Z</time></trkpt><trkpt lat="40.804796" lon=".565819"><ele>328.860</ele><time>2026-04-17T08:42:41Z</time></trkpt><trkpt lat="40.804831" lon=".565814"><ele>328.816</ele><time>2026-04-17T08:42:42Z</time></trkpt><trkpt lat="40.804857" lon=".565822"><ele>329.217</ele><time>2026-04-17T08:42:43Z</time></trkpt><trkpt lat="40.80488" lon=".565835"><ele>329.215</ele><time>2026-04-17T08:42:44Z</time></trkpt><trkpt lat="40.804906" lon=".56585"><ele>329.433</ele><time>2026-04-17T08:42:45Z</time></trkpt><trkpt lat="40.804934" lon=".565863"><ele>329.678</ele><time>2026-04-17T08:42:46Z</time></trkpt><trkpt lat="40.804961" lon=".565875"><ele>330.033</ele><time>2026-04-17T08:42:47Z</time></trkpt><trkpt lat="40.805016" lon=".5659"><ele>330.826</ele><time>2026-04-17T08:42:49Z</time></trkpt><trkpt lat="40.805038" lon=".565907"><ele>331.609</ele><time>2026-04-17T08:42:50Z</time></trkpt><trkpt lat="40.805065" lon=".565916"><ele>332.019</ele><time>2026-04-17T08:42:51Z</time></trkpt><trkpt lat="40.80513" lon=".565934"><ele>332.633</ele><time>2026-04-17T08:42:52Z</time></trkpt><trkpt lat="40.805158" lon=".565938"><ele>333.067</ele><time>2026-04-17T08:42:53Z</time></trkpt><trkpt lat="40.805214" lon=".565944"><ele>334.260</ele><time>2026-04-17T08:42:55Z</time></trkpt><trkpt lat="40.805244" lon=".565945"><ele>334.491</ele><time>2026-04-17T08:42:56Z</time></trkpt><trkpt lat="40.805273" lon=".565946"><ele>334.687</ele><time>2026-04-17T08:42:57Z</time></trkpt><trkpt lat="40.805302" lon=".565946"><ele>335.078</ele><time>2026-04-17T08:42:58Z</time></trkpt><trkpt lat="40.805323" lon=".565942"><ele>336.276</ele><time>2026-04-17T08:42:59Z</time></trkpt><trkpt lat="40.805352" lon=".565931"><ele>336.684</ele><time>2026-04-17T08:43:00Z</time></trkpt><trkpt lat="40.80537" lon=".565914"><ele>337.288</ele><time>2026-04-17T08:43:01Z</time></trkpt><trkpt lat="40.805378" lon=".565893"><ele>337.824</ele><time>2026-04-17T08:43:02Z</time></trkpt><trkpt lat="40.805384" lon=".565868"><ele>338.226</ele><time>2026-04-17T08:43:03Z</time></trkpt><trkpt lat="40.805394" lon=".565841"><ele>338.809</ele><time>2026-04-17T08:43:04Z</time></trkpt><trkpt lat="40.805409" lon=".565816"><ele>339.010</ele><time>2026-04-17T08:43:05Z</time></trkpt><trkpt lat="40.805426" lon=".565799"><ele>339.864</ele><time>2026-04-17T08:43:06Z</time></trkpt><trkpt lat="40.805441" lon=".565796"><ele>340.268</ele><time>2026-04-17T08:43:07Z</time></trkpt><trkpt lat="40.805461" lon=".565799"><ele>340.611</ele><time>2026-04-17T08:43:08Z</time></trkpt><trkpt lat="40.805484" lon=".565815"><ele>341.212</ele><time>2026-04-17T08:43:09Z</time></trkpt><trkpt lat="40.805499" lon=".565835"><ele>341.868</ele><time>2026-04-17T08:43:10Z</time></trkpt><trkpt lat="40.805514" lon=".565855"><ele>342.489</ele><time>2026-04-17T08:43:11Z</time></trkpt><trkpt lat="40.805532" lon=".565876"><ele>342.457</ele><time>2026-04-17T08:43:12Z</time></trkpt><trkpt lat="40.805551" lon=".565895"><ele>342.895</ele><time>2026-04-17T08:43:13Z</time></trkpt><trkpt lat="40.805569" lon=".565913"><ele>343.059</ele><time>2026-04-17T08:43:14Z</time></trkpt><trkpt lat="40.80559" lon=".565932"><ele>343.203</ele><time>2026-04-17T08:43:15Z</time></trkpt><trkpt lat="40.805612" lon=".565952"><ele>343.423</ele><time>2026-04-17T08:43:16Z</time></trkpt><trkpt lat="40.805629" lon=".565965"><ele>343.609</ele><time>2026-04-17T08:43:17Z</time></trkpt><trkpt lat="40.805656" lon=".565982"><ele>343.877</ele><time>2026-04-17T08:43:18Z</time></trkpt><trkpt lat="40.805679" lon=".56599"><ele>344.441</ele><time>2026-04-17T08:43:19Z</time></trkpt><trkpt lat="40.805705" lon=".565994"><ele>345.255</ele><time>2026-04-17T08:43:20Z</time></trkpt><trkpt lat="40.80573" lon=".565992"><ele>345.678</ele><time>2026-04-17T08:43:21Z</time></trkpt><trkpt lat="40.80575" lon=".565995"><ele>346.279</ele><time>2026-04-17T08:43:22Z</time></trkpt><trkpt lat="40.805769" lon=".566003"><ele>346.445</ele><time>2026-04-17T08:43:23Z</time></trkpt><trkpt lat="40.805789" lon=".566012"><ele>346.856</ele><time>2026-04-17T08:43:24Z</time></trkpt><trkpt lat="40.805808" lon=".566022"><ele>347.014</ele><time>2026-04-17T08:43:25Z</time></trkpt><trkpt lat="40.805826" lon=".566036"><ele>347.462</ele><time>2026-04-17T08:43:26Z</time></trkpt><trkpt lat="40.805842" lon=".566052"><ele>347.681</ele><time>2026-04-17T08:43:27Z</time></trkpt><trkpt lat="40.805859" lon=".566068"><ele>347.861</ele><time>2026-04-17T08:43:28Z</time></trkpt><trkpt lat="40.80588" lon=".566082"><ele>348.017</ele><time>2026-04-17T08:43:29Z</time></trkpt><trkpt lat="40.805903" lon=".566094"><ele>348.209</ele><time>2026-04-17T08:43:30Z</time></trkpt><trkpt lat="40.805927" lon=".56611"><ele>348.610</ele><time>2026-04-17T08:43:31Z</time></trkpt><trkpt lat="40.805948" lon=".566122"><ele>348.844</ele><time>2026-04-17T08:43:32Z</time></trkpt><trkpt lat="40.805969" lon=".566134"><ele>349.478</ele><time>2026-04-17T08:43:33Z</time></trkpt><trkpt lat="40.805992" lon=".566145"><ele>349.681</ele><time>2026-04-17T08:43:34Z</time></trkpt><trkpt lat="40.806009" lon=".566152"><ele>349.862</ele><time>2026-04-17T08:43:35Z</time></trkpt><trkpt lat="40.806035" lon=".566162"><ele>350.088</ele><time>2026-04-17T08:43:36Z</time></trkpt><trkpt lat="40.80606" lon=".566169"><ele>350.089</ele><time>2026-04-17T08:43:37Z</time></trkpt><trkpt lat="40.806087" lon=".566177"><ele>350.467</ele><time>2026-04-17T08:43:38Z</time></trkpt><trkpt lat="40.806114" lon=".566189"><ele>350.635</ele><time>2026-04-17T08:43:39Z</time></trkpt><trkpt lat="40.80614" lon=".566201"><ele>351.048</ele><time>2026-04-17T08:43:40Z</time></trkpt><trkpt lat="40.806164" lon=".566213"><ele>351.261</ele><time>2026-04-17T08:43:41Z</time></trkpt><trkpt lat="40.806187" lon=".566226"><ele>351.417</ele><time>2026-04-17T08:43:42Z</time></trkpt><trkpt lat="40.806206" lon=".566236"><ele>351.609</ele><time>2026-04-17T08:43:43Z</time></trkpt><trkpt lat="40.806229" lon=".566249"><ele>351.666</ele><time>2026-04-17T08:43:44Z</time></trkpt><trkpt lat="40.806256" lon=".566261"><ele>351.830</ele><time>2026-04-17T08:43:45Z</time></trkpt><trkpt lat="40.806281" lon=".566268"><ele>351.844</ele><time>2026-04-17T08:43:46Z</time></trkpt><trkpt lat="40.8063" lon=".566274"><ele>352.067</ele><time>2026-04-17T08:43:47Z</time></trkpt><trkpt lat="40.806322" lon=".566283"><ele>352.268</ele><time>2026-04-17T08:43:48Z</time></trkpt><trkpt lat="40.806344" lon=".566292"><ele>352.434</ele><time>2026-04-17T08:43:49Z</time></trkpt><trkpt lat="40.806372" lon=".566304"><ele>352.695</ele><time>2026-04-17T08:43:50Z</time></trkpt><trkpt lat="40.806396" lon=".566314"><ele>352.653</ele><time>2026-04-17T08:43:51Z</time></trkpt><trkpt lat="40.80642" lon=".566325"><ele>352.841</ele><time>2026-04-17T08:43:52Z</time></trkpt><trkpt lat="40.806443" lon=".566335"><ele>353.063</ele><time>2026-04-17T08:43:53Z</time></trkpt><trkpt lat="40.806469" lon=".566346"><ele>353.244</ele><time>2026-04-17T08:43:54Z</time></trkpt><trkpt lat="40.806496" lon=".566359"><ele>353.618</ele><time>2026-04-17T08:43:55Z</time></trkpt><trkpt lat="40.806517" lon=".566371"><ele>354.009</ele><time>2026-04-17T08:43:56Z</time></trkpt><trkpt lat="40.806543" lon=".566388"><ele>354.278</ele><time>2026-04-17T08:43:57Z</time></trkpt><trkpt lat="40.80657" lon=".566412"><ele>354.452</ele><time>2026-04-17T08:43:58Z</time></trkpt><trkpt lat="40.806587" lon=".566428"><ele>354.696</ele><time>2026-04-17T08:43:59Z</time></trkpt><trkpt lat="40.806607" lon=".566454"><ele>354.889</ele><time>2026-04-17T08:44:00Z</time></trkpt><trkpt lat="40.80662" lon=".566473"><ele>355.250</ele><time>2026-04-17T08:44:01Z</time></trkpt><trkpt lat="40.806627" lon=".566486"><ele>355.446</ele><time>2026-04-17T08:44:02Z</time></trkpt><trkpt lat="40.806636" lon=".566503"><ele>355.687</ele><time>2026-04-17T08:44:03Z</time></trkpt><trkpt lat="40.806645" lon=".566514"><ele>355.815</ele><time>2026-04-17T08:44:04Z</time></trkpt><trkpt lat="40.806651" lon=".566527"><ele>356.433</ele><time>2026-04-17T08:44:05Z</time></trkpt><trkpt lat="40.806656" lon=".566537"><ele>356.867</ele><time>2026-04-17T08:44:06Z</time></trkpt><trkpt lat="40.806658" lon=".566546"><ele>357.281</ele><time>2026-04-17T08:44:07Z</time></trkpt><trkpt lat="40.806662" lon=".566558"><ele>357.219</ele><time>2026-04-17T08:44:08Z</time></trkpt><trkpt lat="40.806669" lon=".56657"><ele>357.409</ele><time>2026-04-17T08:44:09Z</time></trkpt><trkpt lat="40.806671" lon=".566587"><ele>357.478</ele><time>2026-04-17T08:44:10Z</time></trkpt><trkpt lat="40.806668" lon=".566604"><ele>357.432</ele><time>2026-04-17T08:44:11Z</time></trkpt><trkpt lat="40.806662" lon=".566623"><ele>357.696</ele><time>2026-04-17T08:44:12Z</time></trkpt><trkpt lat="40.806655" lon=".566635"><ele>357.699</ele><time>2026-04-17T08:44:13Z</time></trkpt><trkpt lat="40.806641" lon=".566641"><ele>357.890</ele><time>2026-04-17T08:44:14Z</time></trkpt><trkpt lat="40.806626" lon=".566629"><ele>357.856</ele><time>2026-04-17T08:44:15Z</time></trkpt><trkpt lat="40.806612" lon=".56661"><ele>357.817</ele><time>2026-04-17T08:44:16Z</time></trkpt><trkpt lat="40.806594" lon=".566591"><ele>358.095</ele><time>2026-04-17T08:44:17Z</time></trkpt><trkpt lat="40.806576" lon=".566582"><ele>358.023</ele><time>2026-04-17T08:44:18Z</time></trkpt><trkpt lat="40.806546" lon=".566584"><ele>358.083</ele><time>2026-04-17T08:44:19Z</time></trkpt><trkpt lat="40.806525" lon=".56661"><ele>358.025</ele><time>2026-04-17T08:44:20Z</time></trkpt><trkpt lat="40.806525" lon=".566649"><ele>358.217</ele><time>2026-04-17T08:44:21Z</time></trkpt><trkpt lat="40.806541" lon=".56669"><ele>358.209</ele><time>2026-04-17T08:44:22Z</time></trkpt><trkpt lat="40.806554" lon=".56672"><ele>358.460</ele><time>2026-04-17T08:44:23Z</time></trkpt><trkpt lat="40.806568" lon=".566764"><ele>358.424</ele><time>2026-04-17T08:44:24Z</time></trkpt><trkpt lat="40.806579" lon=".566795"><ele>358.448</ele><time>2026-04-17T08:44:25Z</time></trkpt><trkpt lat="40.806589" lon=".566826"><ele>359.031</ele><time>2026-04-17T08:44:26Z</time></trkpt><trkpt lat="40.806598" lon=".566856"><ele>359.682</ele><time>2026-04-17T08:44:27Z</time></trkpt><trkpt lat="40.806602" lon=".56688"><ele>360.248</ele><time>2026-04-17T08:44:28Z</time></trkpt><trkpt lat="40.806607" lon=".566917"><ele>360.679</ele><time>2026-04-17T08:44:29Z</time></trkpt><trkpt lat="40.80661" lon=".566952"><ele>361.057</ele><time>2026-04-17T08:44:30Z</time></trkpt><trkpt lat="40.806613" lon=".566985"><ele>361.625</ele><time>2026-04-17T08:44:31Z</time></trkpt><trkpt lat="40.806617" lon=".567018"><ele>362.268</ele><time>2026-04-17T08:44:32Z</time></trkpt><trkpt lat="40.806621" lon=".56705"><ele>362.442</ele><time>2026-04-17T08:44:33Z</time></trkpt><trkpt lat="40.806626" lon=".567083"><ele>362.826</ele><time>2026-04-17T08:44:34Z</time></trkpt><trkpt lat="40.80663" lon=".567116"><ele>363.209</ele><time>2026-04-17T08:44:35Z</time></trkpt><trkpt lat="40.806634" lon=".56715"><ele>363.648</ele><time>2026-04-17T08:44:36Z</time></trkpt><trkpt lat="40.806638" lon=".567184"><ele>364.092</ele><time>2026-04-17T08:44:37Z</time></trkpt><trkpt lat="40.806642" lon=".567217"><ele>364.286</ele><time>2026-04-17T08:44:38Z</time></trkpt><trkpt lat="40.806648" lon=".567243"><ele>364.499</ele><time>2026-04-17T08:44:39Z</time></trkpt><trkpt lat="40.806656" lon=".567276"><ele>364.690</ele><time>2026-04-17T08:44:40Z</time></trkpt><trkpt lat="40.806661" lon=".567311"><ele>365.236</ele><time>2026-04-17T08:44:41Z</time></trkpt><trkpt lat="40.806667" lon=".567345"><ele>365.467</ele><time>2026-04-17T08:44:42Z</time></trkpt><trkpt lat="40.806676" lon=".567385"><ele>366.015</ele><time>2026-04-17T08:44:43Z</time></trkpt><trkpt lat="40.806683" lon=".567411"><ele>366.453</ele><time>2026-04-17T08:44:44Z</time></trkpt><trkpt lat="40.80669" lon=".567451"><ele>366.836</ele><time>2026-04-17T08:44:45Z</time></trkpt><trkpt lat="40.806698" lon=".567485"><ele>367.417</ele><time>2026-04-17T08:44:46Z</time></trkpt><trkpt lat="40.806705" lon=".567519"><ele>367.418</ele><time>2026-04-17T08:44:47Z</time></trkpt><trkpt lat="40.806711" lon=".567555"><ele>367.809</ele><time>2026-04-17T08:44:48Z</time></trkpt><trkpt lat="40.806712" lon=".567589"><ele>368.215</ele><time>2026-04-17T08:44:49Z</time></trkpt><trkpt lat="40.806713" lon=".567623"><ele>368.869</ele><time>2026-04-17T08:44:50Z</time></trkpt><trkpt lat="40.806714" lon=".567655"><ele>369.293</ele><time>2026-04-17T08:44:51Z</time></trkpt><trkpt lat="40.806722" lon=".567683"><ele>369.476</ele><time>2026-04-17T08:44:52Z</time></trkpt><trkpt lat="40.806734" lon=".567702"><ele>369.817</ele><time>2026-04-17T08:44:53Z</time></trkpt><trkpt lat="40.806757" lon=".567725"><ele>370.033</ele><time>2026-04-17T08:44:54Z</time></trkpt><trkpt lat="40.806776" lon=".56774"><ele>370.454</ele><time>2026-04-17T08:44:55Z</time></trkpt><trkpt lat="40.806798" lon=".567751"><ele>370.662</ele><time>2026-04-17T08:44:56Z</time></trkpt><trkpt lat="40.806817" lon=".567757"><ele>370.860</ele><time>2026-04-17T08:44:57Z</time></trkpt><trkpt lat="40.806845" lon=".567765"><ele>370.874</ele><time>2026-04-17T08:44:58Z</time></trkpt><trkpt lat="40.806867" lon=".56777"><ele>371.256</ele><time>2026-04-17T08:44:59Z</time></trkpt><trkpt lat="40.80689" lon=".567776"><ele>371.421</ele><time>2026-04-17T08:45:00Z</time></trkpt><trkpt lat="40.806915" lon=".56778"><ele>371.409</ele><time>2026-04-17T08:45:01Z</time></trkpt><trkpt lat="40.806935" lon=".567784"><ele>371.659</ele><time>2026-04-17T08:45:02Z</time></trkpt><trkpt lat="40.806967" lon=".56779"><ele>371.883</ele><time>2026-04-17T08:45:03Z</time></trkpt><trkpt lat="40.806997" lon=".567792"><ele>372.277</ele><time>2026-04-17T08:45:04Z</time></trkpt><trkpt lat="40.807028" lon=".567794"><ele>372.490</ele><time>2026-04-17T08:45:05Z</time></trkpt><trkpt lat="40.807057" lon=".5678"><ele>372.891</ele><time>2026-04-17T08:45:06Z</time></trkpt><trkpt lat="40.807089" lon=".567806"><ele>372.827</ele><time>2026-04-17T08:45:07Z</time></trkpt><trkpt lat="40.807119" lon=".56781"><ele>373.038</ele><time>2026-04-17T08:45:08Z</time></trkpt><trkpt lat="40.807149" lon=".567815"><ele>373.096</ele><time>2026-04-17T08:45:09Z</time></trkpt><trkpt lat="40.807184" lon=".56782"><ele>373.094</ele><time>2026-04-17T08:45:10Z</time></trkpt><trkpt lat="40.80722" lon=".567825"><ele>373.092</ele><time>2026-04-17T08:45:11Z</time></trkpt><trkpt lat="40.80728" lon=".567833"><ele>373.073</ele><time>2026-04-17T08:45:12Z</time></trkpt><trkpt lat="40.807343" lon=".567838"><ele>373.020</ele><time>2026-04-17T08:45:13Z</time></trkpt><trkpt lat="40.807407" lon=".567844"><ele>373.009</ele><time>2026-04-17T08:45:14Z</time></trkpt><trkpt lat="40.807458" lon=".567838"><ele>372.661</ele><time>2026-04-17T08:45:15Z</time></trkpt><trkpt lat="40.80751" lon=".567833"><ele>372.455</ele><time>2026-04-17T08:45:16Z</time></trkpt><trkpt lat="40.807612" lon=".567821"><ele>372.099</ele><time>2026-04-17T08:45:17Z</time></trkpt><trkpt lat="40.807665" lon=".567813"><ele>371.042</ele><time>2026-04-17T08:45:18Z</time></trkpt><trkpt lat="40.807718" lon=".567805"><ele>370.663</ele><time>2026-04-17T08:45:19Z</time></trkpt><trkpt lat="40.807824" lon=".567789"><ele>369.419</ele><time>2026-04-17T08:45:20Z</time></trkpt><trkpt lat="40.807893" lon=".56781"><ele>368.240</ele><time>2026-04-17T08:45:21Z</time></trkpt><trkpt lat="40.807962" lon=".567834"><ele>366.658</ele><time>2026-04-17T08:45:22Z</time></trkpt><trkpt lat="40.808068" lon=".567856"><ele>365.436</ele><time>2026-04-17T08:45:24Z</time></trkpt><trkpt lat="40.80811" lon=".567851"><ele>364.815</ele><time>2026-04-17T08:45:25Z</time></trkpt><trkpt lat="40.808152" lon=".567844"><ele>364.465</ele><time>2026-04-17T08:45:26Z</time></trkpt><trkpt lat="40.808196" lon=".567825"><ele>362.811</ele><time>2026-04-17T08:45:27Z</time></trkpt><trkpt lat="40.808231" lon=".567797"><ele>362.209</ele><time>2026-04-17T08:45:28Z</time></trkpt><trkpt lat="40.808278" lon=".567759"><ele>361.253</ele><time>2026-04-17T08:45:29Z</time></trkpt><trkpt lat="40.808319" lon=".567735"><ele>361.097</ele><time>2026-04-17T08:45:30Z</time></trkpt><trkpt lat="40.808358" lon=".56772"><ele>360.661</ele><time>2026-04-17T08:45:31Z</time></trkpt><trkpt lat="40.808393" lon=".567719"><ele>360.224</ele><time>2026-04-17T08:45:32Z</time></trkpt><trkpt lat="40.808423" lon=".567726"><ele>359.295</ele><time>2026-04-17T08:45:33Z</time></trkpt><trkpt lat="40.808457" lon=".567726"><ele>358.451</ele><time>2026-04-17T08:45:34Z</time></trkpt><trkpt lat="40.808494" lon=".567713"><ele>358.082</ele><time>2026-04-17T08:45:35Z</time></trkpt><trkpt lat="40.808571" lon=".567657"><ele>357.040</ele><time>2026-04-17T08:45:37Z</time></trkpt><trkpt lat="40.808638" lon=".567597"><ele>356.248</ele><time>2026-04-17T08:45:38Z</time></trkpt><trkpt lat="40.808687" lon=".567539"><ele>356.071</ele><time>2026-04-17T08:45:39Z</time></trkpt><trkpt lat="40.808726" lon=".567486"><ele>354.641</ele><time>2026-04-17T08:45:40Z</time></trkpt><trkpt lat="40.808847" lon=".567325"><ele>352.015</ele><time>2026-04-17T08:45:42Z</time></trkpt><trkpt lat="40.808909" lon=".567242"><ele>350.609</ele><time>2026-04-17T08:45:43Z</time></trkpt><trkpt lat="40.809025" lon=".567066"><ele>348.649</ele><time>2026-04-17T08:45:45Z</time></trkpt><trkpt lat="40.809095" lon=".566932"><ele>348.283</ele><time>2026-04-17T08:45:46Z</time></trkpt><trkpt lat="40.809162" lon=".56676"><ele>347.617</ele><time>2026-04-17T08:45:47Z</time></trkpt><trkpt lat="40.809228" lon=".566588"><ele>345.820</ele><time>2026-04-17T08:45:49Z</time></trkpt><trkpt lat="40.809306" lon=".566347"><ele>343.421</ele><time>2026-04-17T08:45:51Z</time></trkpt><trkpt lat="40.809345" lon=".566258"><ele>342.217</ele><time>2026-04-17T08:45:52Z</time></trkpt><trkpt lat="40.809397" lon=".566188"><ele>341.898</ele><time>2026-04-17T08:45:53Z</time></trkpt><trkpt lat="40.809451" lon=".566146"><ele>341.266</ele><time>2026-04-17T08:45:54Z</time></trkpt><trkpt lat="40.809534" lon=".566079"><ele>340.834</ele><time>2026-04-17T08:45:55Z</time></trkpt><trkpt lat="40.809597" lon=".566012"><ele>340.462</ele><time>2026-04-17T08:45:56Z</time></trkpt><trkpt lat="40.809644" lon=".565935"><ele>340.083</ele><time>2026-04-17T08:45:57Z</time></trkpt><trkpt lat="40.80968" lon=".565852"><ele>339.411</ele><time>2026-04-17T08:45:58Z</time></trkpt><trkpt lat="40.809711" lon=".565769"><ele>339.009</ele><time>2026-04-17T08:45:59Z</time></trkpt><trkpt lat="40.809744" lon=".565696"><ele>338.848</ele><time>2026-04-17T08:46:00Z</time></trkpt><trkpt lat="40.809785" lon=".565642"><ele>337.442</ele><time>2026-04-17T08:46:01Z</time></trkpt><trkpt lat="40.809839" lon=".565613"><ele>336.846</ele><time>2026-04-17T08:46:02Z</time></trkpt><trkpt lat="40.809892" lon=".565612"><ele>335.279</ele><time>2026-04-17T08:46:03Z</time></trkpt><trkpt lat="40.809941" lon=".565626"><ele>334.680</ele><time>2026-04-17T08:46:04Z</time></trkpt><trkpt lat="40.809983" lon=".565664"><ele>333.856</ele><time>2026-04-17T08:46:05Z</time></trkpt><trkpt lat="40.810017" lon=".565731"><ele>333.267</ele><time>2026-04-17T08:46:06Z</time></trkpt><trkpt lat="40.810035" lon=".565799"><ele>332.485</ele><time>2026-04-17T08:46:07Z</time></trkpt><trkpt lat="40.810039" lon=".565854"><ele>331.853</ele><time>2026-04-17T08:46:08Z</time></trkpt><trkpt lat="40.810038" lon=".565901"><ele>331.888</ele><time>2026-04-17T08:46:09Z</time></trkpt><trkpt lat="40.810039" lon=".565939"><ele>331.624</ele><time>2026-04-17T08:46:10Z</time></trkpt><trkpt lat="40.81004" lon=".565974"><ele>331.626</ele><time>2026-04-17T08:46:11Z</time></trkpt><trkpt lat="40.810042" lon=".566005"><ele>331.809</ele><time>2026-04-17T08:46:12Z</time></trkpt><trkpt lat="40.810044" lon=".566034"><ele>332.010</ele><time>2026-04-17T08:46:13Z</time></trkpt><trkpt lat="40.810045" lon=".566064"><ele>332.464</ele><time>2026-04-17T08:46:14Z</time></trkpt><trkpt lat="40.810054" lon=".566099"><ele>332.888</ele><time>2026-04-17T08:46:15Z</time></trkpt><trkpt lat="40.810061" lon=".56613"><ele>333.851</ele><time>2026-04-17T08:46:16Z</time></trkpt><trkpt lat="40.81007" lon=".56616"><ele>335.032</ele><time>2026-04-17T08:46:17Z</time></trkpt><trkpt lat="40.810071" lon=".566214"><ele>336.448</ele><time>2026-04-17T08:46:19Z</time></trkpt><trkpt lat="40.810072" lon=".566244"><ele>337.069</ele><time>2026-04-17T08:46:20Z</time></trkpt><trkpt lat="40.810076" lon=".566277"><ele>338.287</ele><time>2026-04-17T08:46:21Z</time></trkpt><trkpt lat="40.810085" lon=".566324"><ele>338.625</ele><time>2026-04-17T08:46:22Z</time></trkpt><trkpt lat="40.810099" lon=".566361"><ele>339.896</ele><time>2026-04-17T08:46:23Z</time></trkpt><trkpt lat="40.810113" lon=".5664"><ele>341.231</ele><time>2026-04-17T08:46:24Z</time></trkpt><trkpt lat="40.810123" lon=".566491"><ele>342.624</ele><time>2026-04-17T08:46:26Z</time></trkpt><trkpt lat="40.81013" lon=".566581"><ele>343.809</ele><time>2026-04-17T08:46:28Z</time></trkpt><trkpt lat="40.810136" lon=".566619"><ele>344.281</ele><time>2026-04-17T08:46:29Z</time></trkpt><trkpt lat="40.810151" lon=".566673"><ele>345.215</ele><time>2026-04-17T08:46:30Z</time></trkpt><trkpt lat="40.810161" lon=".566723"><ele>345.419</ele><time>2026-04-17T08:46:31Z</time></trkpt><trkpt lat="40.810176" lon=".56677"><ele>346.252</ele><time>2026-04-17T08:46:32Z</time></trkpt><trkpt lat="40.810189" lon=".566819"><ele>347.233</ele><time>2026-04-17T08:46:33Z</time></trkpt><trkpt lat="40.810203" lon=".566867"><ele>347.289</ele><time>2026-04-17T08:46:34Z</time></trkpt><trkpt lat="40.810216" lon=".566908"><ele>348.060</ele><time>2026-04-17T08:46:35Z</time></trkpt><trkpt lat="40.810224" lon=".566947"><ele>348.078</ele><time>2026-04-17T08:46:36Z</time></trkpt><trkpt lat="40.810231" lon=".56699"><ele>348.856</ele><time>2026-04-17T08:46:37Z</time></trkpt><trkpt lat="40.81024" lon=".567032"><ele>349.276</ele><time>2026-04-17T08:46:38Z</time></trkpt><trkpt lat="40.810257" lon=".567068"><ele>349.690</ele><time>2026-04-17T08:46:39Z</time></trkpt><trkpt lat="40.810266" lon=".567103"><ele>350.019</ele><time>2026-04-17T08:46:40Z</time></trkpt><trkpt lat="40.81028" lon=".56714"><ele>350.609</ele><time>2026-04-17T08:46:41Z</time></trkpt><trkpt lat="40.810295" lon=".567177"><ele>350.829</ele><time>2026-04-17T08:46:42Z</time></trkpt><trkpt lat="40.810314" lon=".567211"><ele>351.253</ele><time>2026-04-17T08:46:43Z</time></trkpt><trkpt lat="40.810333" lon=".567249"><ele>351.667</ele><time>2026-04-17T08:46:44Z</time></trkpt><trkpt lat="40.810346" lon=".567291"><ele>351.850</ele><time>2026-04-17T08:46:45Z</time></trkpt><trkpt lat="40.810358" lon=".567334"><ele>352.651</ele><time>2026-04-17T08:46:46Z</time></trkpt><trkpt lat="40.81036" lon=".567366"><ele>353.047</ele><time>2026-04-17T08:46:47Z</time></trkpt><trkpt lat="40.810361" lon=".5674"><ele>353.448</ele><time>2026-04-17T08:46:48Z</time></trkpt><trkpt lat="40.810368" lon=".567434"><ele>354.296</ele><time>2026-04-17T08:46:49Z</time></trkpt><trkpt lat="40.810372" lon=".567467"><ele>354.444</ele><time>2026-04-17T08:46:50Z</time></trkpt><trkpt lat="40.810373" lon=".567494"><ele>354.658</ele><time>2026-04-17T08:46:51Z</time></trkpt><trkpt lat="40.810377" lon=".567537"><ele>354.652</ele><time>2026-04-17T08:46:52Z</time></trkpt><trkpt lat="40.810388" lon=".567572"><ele>354.617</ele><time>2026-04-17T08:46:53Z</time></trkpt><trkpt lat="40.810399" lon=".567605"><ele>354.809</ele><time>2026-04-17T08:46:54Z</time></trkpt><trkpt lat="40.810408" lon=".56764"><ele>354.887</ele><time>2026-04-17T08:46:55Z</time></trkpt><trkpt lat="40.810416" lon=".567678"><ele>355.031</ele><time>2026-04-17T08:46:56Z</time></trkpt><trkpt lat="40.810426" lon=".567715"><ele>355.095</ele><time>2026-04-17T08:46:57Z</time></trkpt><trkpt lat="40.810431" lon=".567754"><ele>355.018</ele><time>2026-04-17T08:46:58Z</time></trkpt><trkpt lat="40.810445" lon=".567795"><ele>355.089</ele><time>2026-04-17T08:46:59Z</time></trkpt><trkpt lat="40.810462" lon=".567844"><ele>355.215</ele><time>2026-04-17T08:47:00Z</time></trkpt><trkpt lat="40.810483" lon=".567898"><ele>355.296</ele><time>2026-04-17T08:47:01Z</time></trkpt><trkpt lat="40.810511" lon=".567948"><ele>355.284</ele><time>2026-04-17T08:47:02Z</time></trkpt><trkpt lat="40.810543" lon=".567997"><ele>355.242</ele><time>2026-04-17T08:47:03Z</time></trkpt><trkpt lat="40.81058" lon=".568048"><ele>355.045</ele><time>2026-04-17T08:47:04Z</time></trkpt><trkpt lat="40.810628" lon=".56809"><ele>355.247</ele><time>2026-04-17T08:47:05Z</time></trkpt><trkpt lat="40.810683" lon=".568114"><ele>354.811</ele><time>2026-04-17T08:47:06Z</time></trkpt><trkpt lat="40.810732" lon=".56812"><ele>354.609</ele><time>2026-04-17T08:47:07Z</time></trkpt><trkpt lat="40.810783" lon=".568125"><ele>354.426</ele><time>2026-04-17T08:47:08Z</time></trkpt><trkpt lat="40.810837" lon=".568137"><ele>354.280</ele><time>2026-04-17T08:47:09Z</time></trkpt><trkpt lat="40.810895" lon=".568161"><ele>354.084</ele><time>2026-04-17T08:47:10Z</time></trkpt><trkpt lat="40.810951" lon=".568197"><ele>352.677</ele><time>2026-04-17T08:47:11Z</time></trkpt><trkpt lat="40.811003" lon=".568238"><ele>351.018</ele><time>2026-04-17T08:47:12Z</time></trkpt><trkpt lat="40.811047" lon=".56828"><ele>349.484</ele><time>2026-04-17T08:47:13Z</time></trkpt><trkpt lat="40.811082" lon=".568325"><ele>348.825</ele><time>2026-04-17T08:47:14Z</time></trkpt><trkpt lat="40.811109" lon=".568366"><ele>348.683</ele><time>2026-04-17T08:47:15Z</time></trkpt><trkpt lat="40.811131" lon=".568399"><ele>348.461</ele><time>2026-04-17T08:47:16Z</time></trkpt><trkpt lat="40.811148" lon=".56843"><ele>348.442</ele><time>2026-04-17T08:47:17Z</time></trkpt><trkpt lat="40.811167" lon=".568462"><ele>348.622</ele><time>2026-04-17T08:47:18Z</time></trkpt><trkpt lat="40.811185" lon=".568495"><ele>348.814</ele><time>2026-04-17T08:47:19Z</time></trkpt><trkpt lat="40.811203" lon=".56853"><ele>349.009</ele><time>2026-04-17T08:47:20Z</time></trkpt><trkpt lat="40.811221" lon=".568566"><ele>349.466</ele><time>2026-04-17T08:47:21Z</time></trkpt><trkpt lat="40.811243" lon=".568603"><ele>350.260</ele><time>2026-04-17T08:47:22Z</time></trkpt><trkpt lat="40.811267" lon=".568643"><ele>350.664</ele><time>2026-04-17T08:47:23Z</time></trkpt><trkpt lat="40.811359" lon=".568808"><ele>351.857</ele><time>2026-04-17T08:47:27Z</time></trkpt><trkpt lat="40.811391" lon=".568874"><ele>352.268</ele><time>2026-04-17T08:47:29Z</time></trkpt><trkpt lat="40.81141" lon=".568981"><ele>353.044</ele><time>2026-04-17T08:47:32Z</time></trkpt><trkpt lat="40.811413" lon=".569017"><ele>353.045</ele><time>2026-04-17T08:47:33Z</time></trkpt><trkpt lat="40.811411" lon=".56905"><ele>353.863</ele><time>2026-04-17T08:47:34Z</time></trkpt><trkpt lat="40.811408" lon=".569084"><ele>354.071</ele><time>2026-04-17T08:47:35Z</time></trkpt><trkpt lat="40.81141" lon=".569117"><ele>354.455</ele><time>2026-04-17T08:47:36Z</time></trkpt><trkpt lat="40.811421" lon=".569146"><ele>354.807</ele><time>2026-04-17T08:47:37Z</time></trkpt><trkpt lat="40.811436" lon=".56917"><ele>355.217</ele><time>2026-04-17T08:47:38Z</time></trkpt><trkpt lat="40.811449" lon=".569191"><ele>355.409</ele><time>2026-04-17T08:47:39Z</time></trkpt><trkpt lat="40.811466" lon=".569212"><ele>355.837</ele><time>2026-04-17T08:47:40Z</time></trkpt><trkpt lat="40.811486" lon=".569229"><ele>356.251</ele><time>2026-04-17T08:47:41Z</time></trkpt><trkpt lat="40.811508" lon=".569243"><ele>356.495</ele><time>2026-04-17T08:47:42Z</time></trkpt><trkpt lat="40.811534" lon=".569254"><ele>356.868</ele><time>2026-04-17T08:47:43Z</time></trkpt><trkpt lat="40.811559" lon=".569265"><ele>357.059</ele><time>2026-04-17T08:47:44Z</time></trkpt><trkpt lat="40.81158" lon=".569278"><ele>357.685</ele><time>2026-04-17T08:47:45Z</time></trkpt><trkpt lat="40.811604" lon=".569294"><ele>357.616</ele><time>2026-04-17T08:47:46Z</time></trkpt><trkpt lat="40.81163" lon=".569318"><ele>358.074</ele><time>2026-04-17T08:47:47Z</time></trkpt><trkpt lat="40.811656" lon=".569342"><ele>358.252</ele><time>2026-04-17T08:47:48Z</time></trkpt><trkpt lat="40.811683" lon=".569366"><ele>358.474</ele><time>2026-04-17T08:47:49Z</time></trkpt><trkpt lat="40.81171" lon=".569387"><ele>358.656</ele><time>2026-04-17T08:47:50Z</time></trkpt><trkpt lat="40.811737" lon=".569408"><ele>358.621</ele><time>2026-04-17T08:47:51Z</time></trkpt><trkpt lat="40.811764" lon=".569434"><ele>358.609</ele><time>2026-04-17T08:47:52Z</time></trkpt><trkpt lat="40.811794" lon=".569461"><ele>358.829</ele><time>2026-04-17T08:47:53Z</time></trkpt><trkpt lat="40.811828" lon=".569488"><ele>359.053</ele><time>2026-04-17T08:47:54Z</time></trkpt><trkpt lat="40.811863" lon=".569518"><ele>359.217</ele><time>2026-04-17T08:47:55Z</time></trkpt><trkpt lat="40.811905" lon=".569551"><ele>359.490</ele><time>2026-04-17T08:47:56Z</time></trkpt><trkpt lat="40.811953" lon=".569581"><ele>359.051</ele><time>2026-04-17T08:47:57Z</time></trkpt><trkpt lat="40.812003" lon=".569621"><ele>359.087</ele><time>2026-04-17T08:47:58Z</time></trkpt><trkpt lat="40.812045" lon=".569667"><ele>358.878</ele><time>2026-04-17T08:47:59Z</time></trkpt><trkpt lat="40.812087" lon=".569707"><ele>358.846</ele><time>2026-04-17T08:48:00Z</time></trkpt><trkpt lat="40.81213" lon=".569739"><ele>358.474</ele><time>2026-04-17T08:48:01Z</time></trkpt><trkpt lat="40.812172" lon=".569771"><ele>358.276</ele><time>2026-04-17T08:48:02Z</time></trkpt><trkpt lat="40.812215" lon=".569798"><ele>357.290</ele><time>2026-04-17T08:48:03Z</time></trkpt><trkpt lat="40.812251" lon=".569829"><ele>356.419</ele><time>2026-04-17T08:48:04Z</time></trkpt><trkpt lat="40.81229" lon=".569859"><ele>355.209</ele><time>2026-04-17T08:48:05Z</time></trkpt><trkpt lat="40.81233" lon=".569887"><ele>354.649</ele><time>2026-04-17T08:48:06Z</time></trkpt><trkpt lat="40.812364" lon=".569918"><ele>354.473</ele><time>2026-04-17T08:48:07Z</time></trkpt><trkpt lat="40.812396" lon=".569955"><ele>354.027</ele><time>2026-04-17T08:48:08Z</time></trkpt><trkpt lat="40.812426" lon=".569989"><ele>353.830</ele><time>2026-04-17T08:48:09Z</time></trkpt><trkpt lat="40.812467" lon=".570041"><ele>353.661</ele><time>2026-04-17T08:48:10Z</time></trkpt><trkpt lat="40.812529" lon=".570126"><ele>353.617</ele><time>2026-04-17T08:48:12Z</time></trkpt><trkpt lat="40.812548" lon=".570159"><ele>353.668</ele><time>2026-04-17T08:48:13Z</time></trkpt><trkpt lat="40.812566" lon=".570186"><ele>353.646</ele><time>2026-04-17T08:48:14Z</time></trkpt><trkpt lat="40.812581" lon=".570215"><ele>353.864</ele><time>2026-04-17T08:48:15Z</time></trkpt><trkpt lat="40.812595" lon=".570248"><ele>353.881</ele><time>2026-04-17T08:48:16Z</time></trkpt><trkpt lat="40.812612" lon=".570277"><ele>354.261</ele><time>2026-04-17T08:48:17Z</time></trkpt><trkpt lat="40.812631" lon=".570298"><ele>354.217</ele><time>2026-04-17T08:48:18Z</time></trkpt><trkpt lat="40.812649" lon=".570314"><ele>354.609</ele><time>2026-04-17T08:48:19Z</time></trkpt><trkpt lat="40.812665" lon=".570335"><ele>354.840</ele><time>2026-04-17T08:48:20Z</time></trkpt><trkpt lat="40.812684" lon=".570353"><ele>355.424</ele><time>2026-04-17T08:48:21Z</time></trkpt><trkpt lat="40.812704" lon=".570365"><ele>355.628</ele><time>2026-04-17T08:48:22Z</time></trkpt><trkpt lat="40.812721" lon=".570371"><ele>355.861</ele><time>2026-04-17T08:48:23Z</time></trkpt><trkpt lat="40.812738" lon=".570376"><ele>356.032</ele><time>2026-04-17T08:48:24Z</time></trkpt><trkpt lat="40.812757" lon=".570384"><ele>356.298</ele><time>2026-04-17T08:48:25Z</time></trkpt><trkpt lat="40.812782" lon=".570395"><ele>356.669</ele><time>2026-04-17T08:48:26Z</time></trkpt><trkpt lat="40.81281" lon=".570409"><ele>356.647</ele><time>2026-04-17T08:48:27Z</time></trkpt><trkpt lat="40.812836" lon=".570416"><ele>356.625</ele><time>2026-04-17T08:48:28Z</time></trkpt><trkpt lat="40.812863" lon=".570427"><ele>356.837</ele><time>2026-04-17T08:48:29Z</time></trkpt><trkpt lat="40.81292" lon=".57045"><ele>356.849</ele><time>2026-04-17T08:48:31Z</time></trkpt><trkpt lat="40.813059" lon=".570527"><ele>356.013</ele><time>2026-04-17T08:48:35Z</time></trkpt><trkpt lat="40.813123" lon=".570567"><ele>356.009</ele><time>2026-04-17T08:48:37Z</time></trkpt><trkpt lat="40.813146" lon=".570574"><ele>356.015</ele><time>2026-04-17T08:48:38Z</time></trkpt><trkpt lat="40.813167" lon=".570579"><ele>356.079</ele><time>2026-04-17T08:48:39Z</time></trkpt><trkpt lat="40.813194" lon=".570587"><ele>356.093</ele><time>2026-04-17T08:48:40Z</time></trkpt><trkpt lat="40.813248" lon=".570612"><ele>356.286</ele><time>2026-04-17T08:48:42Z</time></trkpt><trkpt lat="40.813317" lon=".570649"><ele>357.027</ele><time>2026-04-17T08:48:45Z</time></trkpt><trkpt lat="40.813334" lon=".570646"><ele>357.453</ele><time>2026-04-17T08:48:46Z</time></trkpt><trkpt lat="40.813359" lon=".570641"><ele>357.634</ele><time>2026-04-17T08:48:47Z</time></trkpt><trkpt lat="40.81339" lon=".570651"><ele>357.882</ele><time>2026-04-17T08:48:48Z</time></trkpt><trkpt lat="40.813413" lon=".570663"><ele>358.480</ele><time>2026-04-17T08:48:49Z</time></trkpt><trkpt lat="40.813448" lon=".570686"><ele>358.878</ele><time>2026-04-17T08:48:50Z</time></trkpt><trkpt lat="40.81347" lon=".5707"><ele>359.633</ele><time>2026-04-17T08:48:51Z</time></trkpt><trkpt lat="40.81349" lon=".570708"><ele>359.826</ele><time>2026-04-17T08:48:52Z</time></trkpt><trkpt lat="40.813501" lon=".570711"><ele>360.409</ele><time>2026-04-17T08:48:53Z</time></trkpt><trkpt lat="40.813513" lon=".570716"><ele>360.619</ele><time>2026-04-17T08:48:54Z</time></trkpt><trkpt lat="40.813532" lon=".57073"><ele>361.283</ele><time>2026-04-17T08:48:55Z</time></trkpt><trkpt lat="40.813537" lon=".570737"><ele>361.437</ele><time>2026-04-17T08:48:56Z</time></trkpt><trkpt lat="40.813551" lon=".570738"><ele>362.030</ele><time>2026-04-17T08:48:57Z</time></trkpt><trkpt lat="40.813574" lon=".570746"><ele>362.661</ele><time>2026-04-17T08:48:58Z</time></trkpt><trkpt lat="40.81359" lon=".570758"><ele>362.877</ele><time>2026-04-17T08:48:59Z</time></trkpt><trkpt lat="40.813603" lon=".570773"><ele>363.248</ele><time>2026-04-17T08:49:00Z</time></trkpt><trkpt lat="40.813613" lon=".570784"><ele>363.296</ele><time>2026-04-17T08:49:01Z</time></trkpt><trkpt lat="40.813623" lon=".570794"><ele>363.664</ele><time>2026-04-17T08:49:02Z</time></trkpt><trkpt lat="40.813636" lon=".570798"><ele>363.818</ele><time>2026-04-17T08:49:03Z</time></trkpt><trkpt lat="40.813649" lon=".570804"><ele>364.898</ele><time>2026-04-17T08:49:04Z</time></trkpt><trkpt lat="40.813666" lon=".570812"><ele>365.217</ele><time>2026-04-17T08:49:05Z</time></trkpt><trkpt lat="40.813682" lon=".570818"><ele>365.609</ele><time>2026-04-17T08:49:06Z</time></trkpt><trkpt lat="40.813698" lon=".570828"><ele>366.043</ele><time>2026-04-17T08:49:07Z</time></trkpt><trkpt lat="40.81371" lon=".570836"><ele>366.277</ele><time>2026-04-17T08:49:08Z</time></trkpt><trkpt lat="40.813722" lon=".570843"><ele>366.861</ele><time>2026-04-17T08:49:09Z</time></trkpt><trkpt lat="40.813735" lon=".570855"><ele>367.014</ele><time>2026-04-17T08:49:10Z</time></trkpt><trkpt lat="40.813735" lon=".570855"><ele>367.445</ele><time>2026-04-17T08:49:11Z</time></trkpt><trkpt lat="40.813767" lon=".570869"><ele>367.691</ele><time>2026-04-17T08:49:12Z</time></trkpt><trkpt lat="40.813795" lon=".570879"><ele>367.872</ele><time>2026-04-17T08:49:13Z</time></trkpt><trkpt lat="40.813808" lon=".570886"><ele>367.890</ele><time>2026-04-17T08:49:14Z</time></trkpt><trkpt lat="40.81382" lon=".570893"><ele>367.888</ele><time>2026-04-17T08:49:15Z</time></trkpt><trkpt lat="40.813845" lon=".570899"><ele>368.027</ele><time>2026-04-17T08:49:16Z</time></trkpt><trkpt lat="40.813868" lon=".570906"><ele>368.068</ele><time>2026-04-17T08:49:17Z</time></trkpt><trkpt lat="40.813894" lon=".570914"><ele>368.014</ele><time>2026-04-17T08:49:18Z</time></trkpt><trkpt lat="40.813929" lon=".570918"><ele>368.009</ele><time>2026-04-17T08:49:19Z</time></trkpt><trkpt lat="40.813961" lon=".570916"><ele>368.024</ele><time>2026-04-17T08:49:20Z</time></trkpt><trkpt lat="40.813997" lon=".570916"><ele>368.038</ele><time>2026-04-17T08:49:21Z</time></trkpt><trkpt lat="40.814038" lon=".570922"><ele>368.052</ele><time>2026-04-17T08:49:22Z</time></trkpt><trkpt lat="40.814088" lon=".570936"><ele>368.075</ele><time>2026-04-17T08:49:23Z</time></trkpt><trkpt lat="40.814123" lon=".570937"><ele>367.626</ele><time>2026-04-17T08:49:24Z</time></trkpt><trkpt lat="40.814166" lon=".570933"><ele>367.052</ele><time>2026-04-17T08:49:25Z</time></trkpt><trkpt lat="40.81421" lon=".570934"><ele>366.873</ele><time>2026-04-17T08:49:26Z</time></trkpt><trkpt lat="40.81425" lon=".57094"><ele>365.821</ele><time>2026-04-17T08:49:27Z</time></trkpt><trkpt lat="40.814281" lon=".570949"><ele>365.419</ele><time>2026-04-17T08:49:28Z</time></trkpt><trkpt lat="40.814318" lon=".57095"><ele>364.699</ele><time>2026-04-17T08:49:29Z</time></trkpt><trkpt lat="40.814355" lon=".570942"><ele>364.407</ele><time>2026-04-17T08:49:30Z</time></trkpt><trkpt lat="40.814391" lon=".570931"><ele>364.027</ele><time>2026-04-17T08:49:31Z</time></trkpt><trkpt lat="40.814425" lon=".570915"><ele>363.609</ele><time>2026-04-17T08:49:32Z</time></trkpt><trkpt lat="40.814452" lon=".570906"><ele>363.461</ele><time>2026-04-17T08:49:33Z</time></trkpt><trkpt lat="40.8145" lon=".570901"><ele>363.035</ele><time>2026-04-17T08:49:34Z</time></trkpt><trkpt lat="40.814549" lon=".570888"><ele>362.699</ele><time>2026-04-17T08:49:35Z</time></trkpt><trkpt lat="40.814581" lon=".57088"><ele>361.832</ele><time>2026-04-17T08:49:36Z</time></trkpt><trkpt lat="40.81466" lon=".570835"><ele>361.093</ele><time>2026-04-17T08:49:38Z</time></trkpt><trkpt lat="40.814694" lon=".570819"><ele>360.699</ele><time>2026-04-17T08:49:39Z</time></trkpt><trkpt lat="40.814719" lon=".570803"><ele>359.650</ele><time>2026-04-17T08:49:40Z</time></trkpt><trkpt lat="40.81474" lon=".570787"><ele>358.618</ele><time>2026-04-17T08:49:41Z</time></trkpt><trkpt lat="40.814754" lon=".570764"><ele>358.246</ele><time>2026-04-17T08:49:42Z</time></trkpt><trkpt lat="40.814803" lon=".57068"><ele>357.476</ele><time>2026-04-17T08:49:44Z</time></trkpt><trkpt lat="40.814819" lon=".570646"><ele>356.690</ele><time>2026-04-17T08:49:45Z</time></trkpt><trkpt lat="40.814867" lon=".570588"><ele>355.019</ele><time>2026-04-17T08:49:47Z</time></trkpt><trkpt lat="40.814889" lon=".570563"><ele>354.009</ele><time>2026-04-17T08:49:49Z</time></trkpt><trkpt lat="40.814926" lon=".57056"><ele>352.469</ele><time>2026-04-17T08:49:50Z</time></trkpt><trkpt lat="40.814952" lon=".57057"><ele>351.693</ele><time>2026-04-17T08:49:51Z</time></trkpt><trkpt lat="40.814976" lon=".570581"><ele>350.457</ele><time>2026-04-17T08:49:52Z</time></trkpt><trkpt lat="40.815019" lon=".57058"><ele>349.810</ele><time>2026-04-17T08:49:53Z</time></trkpt><trkpt lat="40.815074" lon=".570583"><ele>349.431</ele><time>2026-04-17T08:49:54Z</time></trkpt><trkpt lat="40.815133" lon=".5706"><ele>349.247</ele><time>2026-04-17T08:49:55Z</time></trkpt><trkpt lat="40.815195" lon=".570629"><ele>348.218</ele><time>2026-04-17T08:49:56Z</time></trkpt><trkpt lat="40.815255" lon=".570668"><ele>347.426</ele><time>2026-04-17T08:49:57Z</time></trkpt><trkpt lat="40.815318" lon=".570726"><ele>346.034</ele><time>2026-04-17T08:49:58Z</time></trkpt><trkpt lat="40.815389" lon=".570797"><ele>344.021</ele><time>2026-04-17T08:49:59Z</time></trkpt><trkpt lat="40.815461" lon=".570872"><ele>343.441</ele><time>2026-04-17T08:50:00Z</time></trkpt><trkpt lat="40.815528" lon=".570945"><ele>342.405</ele><time>2026-04-17T08:50:01Z</time></trkpt><trkpt lat="40.815655" lon=".571078"><ele>340.809</ele><time>2026-04-17T08:50:03Z</time></trkpt><trkpt lat="40.815713" lon=".571144"><ele>338.414</ele><time>2026-04-17T08:50:04Z</time></trkpt><trkpt lat="40.815771" lon=".571203"><ele>335.698</ele><time>2026-04-17T08:50:05Z</time></trkpt><trkpt lat="40.815827" lon=".571248"><ele>334.652</ele><time>2026-04-17T08:50:06Z</time></trkpt><trkpt lat="40.815891" lon=".571271"><ele>332.675</ele><time>2026-04-17T08:50:07Z</time></trkpt><trkpt lat="40.815954" lon=".571276"><ele>331.076</ele><time>2026-04-17T08:50:08Z</time></trkpt><trkpt lat="40.816044" lon=".57128"><ele>330.042</ele><time>2026-04-17T08:50:09Z</time></trkpt><trkpt lat="40.816113" lon=".571281"><ele>328.623</ele><time>2026-04-17T08:50:10Z</time></trkpt><trkpt lat="40.816171" lon=".571276"><ele>328.031</ele><time>2026-04-17T08:50:11Z</time></trkpt><trkpt lat="40.816205" lon=".571269"><ele>327.449</ele><time>2026-04-17T08:50:12Z</time></trkpt><trkpt lat="40.816214" lon=".571266"><ele>327.232</ele><time>2026-04-17T08:50:13Z</time></trkpt><trkpt lat="40.816214" lon=".571266"><ele>327.292</ele><time>2026-04-17T08:50:14Z</time></trkpt><trkpt lat="40.816214" lon=".571266"><ele>327.011</ele><time>2026-04-17T08:50:15Z</time></trkpt><trkpt lat="40.816298" lon=".57127"><ele>327.809</ele><time>2026-04-17T08:51:31Z</time></trkpt><trkpt lat="40.816332" lon=".571268"><ele>327.855</ele><time>2026-04-17T08:51:32Z</time></trkpt><trkpt lat="40.816359" lon=".571268"><ele>327.879</ele><time>2026-04-17T08:51:33Z</time></trkpt><trkpt lat="40.816604" lon=".571316"><ele>328.013</ele><time>2026-04-17T08:51:39Z</time></trkpt><trkpt lat="40.816688" lon=".571343"><ele>328.016</ele><time>2026-04-17T08:51:41Z</time></trkpt><trkpt lat="40.816725" lon=".57136"><ele>328.267</ele><time>2026-04-17T08:51:42Z</time></trkpt><trkpt lat="40.816839" lon=".571431"><ele>328.693</ele><time>2026-04-17T08:51:45Z</time></trkpt><trkpt lat="40.816877" lon=".571456"><ele>328.674</ele><time>2026-04-17T08:51:46Z</time></trkpt><trkpt lat="40.817033" lon=".571551"><ele>329.472</ele><time>2026-04-17T08:51:50Z</time></trkpt><trkpt lat="40.817115" lon=".571611"><ele>329.640</ele><time>2026-04-17T08:51:52Z</time></trkpt><trkpt lat="40.817158" lon=".571637"><ele>329.697</ele><time>2026-04-17T08:51:53Z</time></trkpt><trkpt lat="40.817426" lon=".571792"><ele>330.023</ele><time>2026-04-17T08:51:59Z</time></trkpt><trkpt lat="40.81768" lon=".571999"><ele>329.225</ele><time>2026-04-17T08:52:04Z</time></trkpt><trkpt lat="40.817936" lon=".572243"><ele>328.209</ele><time>2026-04-17T08:52:08Z</time></trkpt><trkpt lat="40.818006" lon=".572316"><ele>327.611</ele><time>2026-04-17T08:52:09Z</time></trkpt><trkpt lat="40.818067" lon=".57238"><ele>327.085</ele><time>2026-04-17T08:52:10Z</time></trkpt><trkpt lat="40.818125" lon=".572504"><ele>325.429</ele><time>2026-04-17T08:52:12Z</time></trkpt><trkpt lat="40.818116" lon=".572545"><ele>324.682</ele><time>2026-04-17T08:52:13Z</time></trkpt><trkpt lat="40.818091" lon=".57258"><ele>323.893</ele><time>2026-04-17T08:52:14Z</time></trkpt><trkpt lat="40.818048" lon=".572596"><ele>323.419</ele><time>2026-04-17T08:52:15Z</time></trkpt><trkpt lat="40.818011" lon=".572583"><ele>323.210</ele><time>2026-04-17T08:52:16Z</time></trkpt><trkpt lat="40.81796" lon=".572562"><ele>322.848</ele><time>2026-04-17T08:52:17Z</time></trkpt><trkpt lat="40.817907" lon=".57254"><ele>322.646</ele><time>2026-04-17T08:52:18Z</time></trkpt><trkpt lat="40.817853" lon=".572534"><ele>322.293</ele><time>2026-04-17T08:52:19Z</time></trkpt><trkpt lat="40.817737" lon=".572551"><ele>322.065</ele><time>2026-04-17T08:52:21Z</time></trkpt><trkpt lat="40.817673" lon=".572545"><ele>322.021</ele><time>2026-04-17T08:52:22Z</time></trkpt><trkpt lat="40.8176" lon=".572519"><ele>321.609</ele><time>2026-04-17T08:52:23Z</time></trkpt><trkpt lat="40.817521" lon=".572492"><ele>321.491</ele><time>2026-04-17T08:52:24Z</time></trkpt><trkpt lat="40.817444" lon=".572485"><ele>320.415</ele><time>2026-04-17T08:52:25Z</time></trkpt><trkpt lat="40.817353" lon=".572499"><ele>319.689</ele><time>2026-04-17T08:52:26Z</time></trkpt><trkpt lat="40.817289" lon=".572524"><ele>319.412</ele><time>2026-04-17T08:52:27Z</time></trkpt><trkpt lat="40.817205" lon=".572565"><ele>318.673</ele><time>2026-04-17T08:52:28Z</time></trkpt><trkpt lat="40.81711" lon=".572621"><ele>317.899</ele><time>2026-04-17T08:52:29Z</time></trkpt><trkpt lat="40.817038" lon=".572672"><ele>316.470</ele><time>2026-04-17T08:52:30Z</time></trkpt><trkpt lat="40.816987" lon=".57271"><ele>315.838</ele><time>2026-04-17T08:52:31Z</time></trkpt><trkpt lat="40.816917" lon=".572753"><ele>314.846</ele><time>2026-04-17T08:52:32Z</time></trkpt><trkpt lat="40.816874" lon=".572755"><ele>314.663</ele><time>2026-04-17T08:52:33Z</time></trkpt><trkpt lat="40.816816" lon=".572728"><ele>313.244</ele><time>2026-04-17T08:52:34Z</time></trkpt><trkpt lat="40.816758" lon=".572652"><ele>312.418</ele><time>2026-04-17T08:52:35Z</time></trkpt><trkpt lat="40.816732" lon=".572557"><ele>312.209</ele><time>2026-04-17T08:52:36Z</time></trkpt><trkpt lat="40.816705" lon=".572358"><ele>311.288</ele><time>2026-04-17T08:52:38Z</time></trkpt><trkpt lat="40.816678" lon=".572228"><ele>310.462</ele><time>2026-04-17T08:52:39Z</time></trkpt><trkpt lat="40.816648" lon=".572123"><ele>310.296</ele><time>2026-04-17T08:52:40Z</time></trkpt><trkpt lat="40.816607" lon=".572017"><ele>309.299</ele><time>2026-04-17T08:52:41Z</time></trkpt><trkpt lat="40.816565" lon=".571936"><ele>308.670</ele><time>2026-04-17T08:52:42Z</time></trkpt><trkpt lat="40.816483" lon=".571831"><ele>307.436</ele><time>2026-04-17T08:52:43Z</time></trkpt><trkpt lat="40.816407" lon=".571758"><ele>306.677</ele><time>2026-04-17T08:52:44Z</time></trkpt><trkpt lat="40.816331" lon=".571711"><ele>306.245</ele><time>2026-04-17T08:52:45Z</time></trkpt><trkpt lat="40.81626" lon=".571699"><ele>305.663</ele><time>2026-04-17T08:52:46Z</time></trkpt><trkpt lat="40.816189" lon=".571705"><ele>305.237</ele><time>2026-04-17T08:52:47Z</time></trkpt><trkpt lat="40.816128" lon=".571726"><ele>304.649</ele><time>2026-04-17T08:52:48Z</time></trkpt><trkpt lat="40.816094" lon=".571784"><ele>304.413</ele><time>2026-04-17T08:52:49Z</time></trkpt><trkpt lat="40.816026" lon=".57186"><ele>304.009</ele><time>2026-04-17T08:52:50Z</time></trkpt><trkpt lat="40.815954" lon=".571936"><ele>303.495</ele><time>2026-04-17T08:52:51Z</time></trkpt><trkpt lat="40.815888" lon=".571993"><ele>302.469</ele><time>2026-04-17T08:52:52Z</time></trkpt><trkpt lat="40.815792" lon=".572009"><ele>301.253</ele><time>2026-04-17T08:52:53Z</time></trkpt><trkpt lat="40.815699" lon=".571995"><ele>301.016</ele><time>2026-04-17T08:52:54Z</time></trkpt><trkpt lat="40.815627" lon=".571976"><ele>300.497</ele><time>2026-04-17T08:52:55Z</time></trkpt><trkpt lat="40.81552" lon=".571935"><ele>300.033</ele><time>2026-04-17T08:52:56Z</time></trkpt><trkpt lat="40.815429" lon=".571903"><ele>299.434</ele><time>2026-04-17T08:52:57Z</time></trkpt><trkpt lat="40.815328" lon=".571893"><ele>299.282</ele><time>2026-04-17T08:52:58Z</time></trkpt><trkpt lat="40.815227" lon=".571894"><ele>298.230</ele><time>2026-04-17T08:52:59Z</time></trkpt><trkpt lat="40.815125" lon=".571909"><ele>296.493</ele><time>2026-04-17T08:53:00Z</time></trkpt><trkpt lat="40.814952" lon=".572003"><ele>295.065</ele><time>2026-04-17T08:53:02Z</time></trkpt><trkpt lat="40.814888" lon=".572076"><ele>294.221</ele><time>2026-04-17T08:53:03Z</time></trkpt><trkpt lat="40.81484" lon=".572154"><ele>293.009</ele><time>2026-04-17T08:53:04Z</time></trkpt><trkpt lat="40.814795" lon=".572281"><ele>291.411</ele><time>2026-04-17T08:53:05Z</time></trkpt><trkpt lat="40.814796" lon=".572413"><ele>289.625</ele><time>2026-04-17T08:53:06Z</time></trkpt><trkpt lat="40.814807" lon=".572538"><ele>288.819</ele><time>2026-04-17T08:53:07Z</time></trkpt><trkpt lat="40.814813" lon=".572696"><ele>287.072</ele><time>2026-04-17T08:53:08Z</time></trkpt><trkpt lat="40.814822" lon=".572854"><ele>286.263</ele><time>2026-04-17T08:53:09Z</time></trkpt><trkpt lat="40.814848" lon=".573003"><ele>285.819</ele><time>2026-04-17T08:53:10Z</time></trkpt><trkpt lat="40.814894" lon=".573169"><ele>284.610</ele><time>2026-04-17T08:53:11Z</time></trkpt><trkpt lat="40.814936" lon=".573303"><ele>283.638</ele><time>2026-04-17T08:53:12Z</time></trkpt><trkpt lat="40.814968" lon=".573399"><ele>280.646</ele><time>2026-04-17T08:53:13Z</time></trkpt><trkpt lat="40.815006" lon=".573501"><ele>278.422</ele><time>2026-04-17T08:53:14Z</time></trkpt><trkpt lat="40.815066" lon=".573584"><ele>276.062</ele><time>2026-04-17T08:53:15Z</time></trkpt><trkpt lat="40.815109" lon=".573615"><ele>275.208</ele><time>2026-04-17T08:53:16Z</time></trkpt><trkpt lat="40.81514" lon=".573593"><ele>273.209</ele><time>2026-04-17T08:53:17Z</time></trkpt><trkpt lat="40.815159" lon=".57354"><ele>272.244</ele><time>2026-04-17T08:53:18Z</time></trkpt><trkpt lat="40.815171" lon=".573465"><ele>271.848</ele><time>2026-04-17T08:53:19Z</time></trkpt><trkpt lat="40.815153" lon=".573383"><ele>271.232</ele><time>2026-04-17T08:53:20Z</time></trkpt><trkpt lat="40.815127" lon=".573291"><ele>271.025</ele><time>2026-04-17T08:53:21Z</time></trkpt><trkpt lat="40.815106" lon=".573193"><ele>270.416</ele><time>2026-04-17T08:53:22Z</time></trkpt><trkpt lat="40.815099" lon=".573085"><ele>270.072</ele><time>2026-04-17T08:53:23Z</time></trkpt><trkpt lat="40.815102" lon=".572984"><ele>269.263</ele><time>2026-04-17T08:53:24Z</time></trkpt><trkpt lat="40.815176" lon=".572884"><ele>268.091</ele><time>2026-04-17T08:53:26Z</time></trkpt><trkpt lat="40.815229" lon=".572902"><ele>266.649</ele><time>2026-04-17T08:53:27Z</time></trkpt><trkpt lat="40.815287" lon=".572943"><ele>266.279</ele><time>2026-04-17T08:53:28Z</time></trkpt><trkpt lat="40.815357" lon=".572992"><ele>265.405</ele><time>2026-04-17T08:53:29Z</time></trkpt><trkpt lat="40.815435" lon=".573035"><ele>264.625</ele><time>2026-04-17T08:53:30Z</time></trkpt><trkpt lat="40.815522" lon=".573078"><ele>263.809</ele><time>2026-04-17T08:53:31Z</time></trkpt><trkpt lat="40.815613" lon=".573141"><ele>263.269</ele><time>2026-04-17T08:53:32Z</time></trkpt><trkpt lat="40.815693" lon=".573218"><ele>262.083</ele><time>2026-04-17T08:53:33Z</time></trkpt><trkpt lat="40.815755" lon=".573313"><ele>261.827</ele><time>2026-04-17T08:53:34Z</time></trkpt><trkpt lat="40.815792" lon=".573426"><ele>260.420</ele><time>2026-04-17T08:53:35Z</time></trkpt><trkpt lat="40.815808" lon=".573546"><ele>259.061</ele><time>2026-04-17T08:53:36Z</time></trkpt><trkpt lat="40.815822" lon=".573665"><ele>258.067</ele><time>2026-04-17T08:53:37Z</time></trkpt><trkpt lat="40.815847" lon=".573787"><ele>255.898</ele><time>2026-04-17T08:53:38Z</time></trkpt><trkpt lat="40.815881" lon=".573913"><ele>255.466</ele><time>2026-04-17T08:53:39Z</time></trkpt><trkpt lat="40.815917" lon=".57404"><ele>254.484</ele><time>2026-04-17T08:53:40Z</time></trkpt><trkpt lat="40.815992" lon=".574301"><ele>252.225</ele><time>2026-04-17T08:53:42Z</time></trkpt><trkpt lat="40.81603" lon=".574442"><ele>250.826</ele><time>2026-04-17T08:53:43Z</time></trkpt><trkpt lat="40.816067" lon=".574585"><ele>249.608</ele><time>2026-04-17T08:53:44Z</time></trkpt><trkpt lat="40.816108" lon=".574726"><ele>247.809</ele><time>2026-04-17T08:53:45Z</time></trkpt><trkpt lat="40.816155" lon=".574857"><ele>247.274</ele><time>2026-04-17T08:53:46Z</time></trkpt><trkpt lat="40.816216" lon=".574962"><ele>245.668</ele><time>2026-04-17T08:53:47Z</time></trkpt><trkpt lat="40.81629" lon=".575036"><ele>244.852</ele><time>2026-04-17T08:53:48Z</time></trkpt><trkpt lat="40.81637" lon=".57509"><ele>244.015</ele><time>2026-04-17T08:53:49Z</time></trkpt><trkpt lat="40.816438" lon=".575114"><ele>243.676</ele><time>2026-04-17T08:53:50Z</time></trkpt><trkpt lat="40.81654" lon=".575142"><ele>242.072</ele><time>2026-04-17T08:53:51Z</time></trkpt><trkpt lat="40.816611" lon=".575186"><ele>241.043</ele><time>2026-04-17T08:53:52Z</time></trkpt><trkpt lat="40.816663" lon=".57525"><ele>240.831</ele><time>2026-04-17T08:53:53Z</time></trkpt><trkpt lat="40.816693" lon=".575328"><ele>240.069</ele><time>2026-04-17T08:53:54Z</time></trkpt><trkpt lat="40.816696" lon=".575407"><ele>239.625</ele><time>2026-04-17T08:53:55Z</time></trkpt><trkpt lat="40.816676" lon=".575478"><ele>239.026</ele><time>2026-04-17T08:53:56Z</time></trkpt><trkpt lat="40.816635" lon=".575536"><ele>238.608</ele><time>2026-04-17T08:53:57Z</time></trkpt><trkpt lat="40.816568" lon=".57556"><ele>238.009</ele><time>2026-04-17T08:53:58Z</time></trkpt><trkpt lat="40.816493" lon=".575584"><ele>237.864</ele><time>2026-04-17T08:53:59Z</time></trkpt><trkpt lat="40.816417" lon=".57563"><ele>237.428</ele><time>2026-04-17T08:54:00Z</time></trkpt><trkpt lat="40.816346" lon=".575697"><ele>236.042</ele><time>2026-04-17T08:54:01Z</time></trkpt><trkpt lat="40.816274" lon=".575775"><ele>235.485</ele><time>2026-04-17T08:54:02Z</time></trkpt><trkpt lat="40.816199" lon=".575863"><ele>234.656</ele><time>2026-04-17T08:54:03Z</time></trkpt><trkpt lat="40.81597" lon=".576125"><ele>233.012</ele><time>2026-04-17T08:54:06Z</time></trkpt><trkpt lat="40.815887" lon=".576208"><ele>232.093</ele><time>2026-04-17T08:54:07Z</time></trkpt><trkpt lat="40.815714" lon=".576355"><ele>228.621</ele><time>2026-04-17T08:54:09Z</time></trkpt><trkpt lat="40.81562" lon=".576399"><ele>227.299</ele><time>2026-04-17T08:54:10Z</time></trkpt><trkpt lat="40.815522" lon=".576409"><ele>226.658</ele><time>2026-04-17T08:54:11Z</time></trkpt><trkpt lat="40.815423" lon=".576382"><ele>225.652</ele><time>2026-04-17T08:54:12Z</time></trkpt><trkpt lat="40.815323" lon=".576343"><ele>225.217</ele><time>2026-04-17T08:54:13Z</time></trkpt><trkpt lat="40.815221" lon=".576302"><ele>224.609</ele><time>2026-04-17T08:54:14Z</time></trkpt><trkpt lat="40.815117" lon=".576255"><ele>224.457</ele><time>2026-04-17T08:54:15Z</time></trkpt><trkpt lat="40.815011" lon=".576218"><ele>223.831</ele><time>2026-04-17T08:54:16Z</time></trkpt><trkpt lat="40.814906" lon=".576213"><ele>223.065</ele><time>2026-04-17T08:54:17Z</time></trkpt><trkpt lat="40.814821" lon=".576227"><ele>221.698</ele><time>2026-04-17T08:54:18Z</time></trkpt><trkpt lat="40.814703" lon=".576282"><ele>220.479</ele><time>2026-04-17T08:54:19Z</time></trkpt><trkpt lat="40.814616" lon=".576355"><ele>219.875</ele><time>2026-04-17T08:54:20Z</time></trkpt><trkpt lat="40.814532" lon=".57643"><ele>217.816</ele><time>2026-04-17T08:54:21Z</time></trkpt><trkpt lat="40.814464" lon=".576499"><ele>217.014</ele><time>2026-04-17T08:54:22Z</time></trkpt><trkpt lat="40.814407" lon=".576566"><ele>216.232</ele><time>2026-04-17T08:54:23Z</time></trkpt><trkpt lat="40.814356" lon=".576635"><ele>216.029</ele><time>2026-04-17T08:54:24Z</time></trkpt><trkpt lat="40.814309" lon=".576705"><ele>215.800</ele><time>2026-04-17T08:54:25Z</time></trkpt><trkpt lat="40.814264" lon=".576773"><ele>215.820</ele><time>2026-04-17T08:54:26Z</time></trkpt><trkpt lat="40.814232" lon=".57683"><ele>215.809</ele><time>2026-04-17T08:54:27Z</time></trkpt><trkpt lat="40.814189" lon=".576913"><ele>215.844</ele><time>2026-04-17T08:54:28Z</time></trkpt><trkpt lat="40.814156" lon=".576981"><ele>215.878</ele><time>2026-04-17T08:54:29Z</time></trkpt><trkpt lat="40.814121" lon=".57705"><ele>216.892</ele><time>2026-04-17T08:54:30Z</time></trkpt><trkpt lat="40.814082" lon=".577121"><ele>217.245</ele><time>2026-04-17T08:54:31Z</time></trkpt><trkpt lat="40.81395" lon=".577329"><ele>218.266</ele><time>2026-04-17T08:54:34Z</time></trkpt><trkpt lat="40.81381" lon=".577545"><ele>218.412</ele><time>2026-04-17T08:54:37Z</time></trkpt><trkpt lat="40.813503" lon=".577972"><ele>216.893</ele><time>2026-04-17T08:54:43Z</time></trkpt><trkpt lat="40.813443" lon=".578034"><ele>216.211</ele><time>2026-04-17T08:54:44Z</time></trkpt><trkpt lat="40.81332" lon=".57816"><ele>215.819</ele><time>2026-04-17T08:54:46Z</time></trkpt><trkpt lat="40.813144" lon=".578396"><ele>215.478</ele><time>2026-04-17T08:54:49Z</time></trkpt><trkpt lat="40.813076" lon=".578469"><ele>215.033</ele><time>2026-04-17T08:54:50Z</time></trkpt><trkpt lat="40.812912" lon=".578587"><ele>214.426</ele><time>2026-04-17T08:54:52Z</time></trkpt><trkpt lat="40.812716" lon=".578678"><ele>213.209</ele><time>2026-04-17T08:54:54Z</time></trkpt><trkpt lat="40.812517" lon=".578745"><ele>212.099</ele><time>2026-04-17T08:54:56Z</time></trkpt><trkpt lat="40.812438" lon=".578772"><ele>210.883</ele><time>2026-04-17T08:54:57Z</time></trkpt><trkpt lat="40.81232" lon=".578817"><ele>210.097</ele><time>2026-04-17T08:54:58Z</time></trkpt><trkpt lat="40.812228" lon=".578864"><ele>209.060</ele><time>2026-04-17T08:54:59Z</time></trkpt><trkpt lat="40.812145" lon=".578928"><ele>208.451</ele><time>2026-04-17T08:55:00Z</time></trkpt><trkpt lat="40.812074" lon=".579001"><ele>207.267</ele><time>2026-04-17T08:55:01Z</time></trkpt><trkpt lat="40.812023" lon=".57906"><ele>206.688</ele><time>2026-04-17T08:55:02Z</time></trkpt><trkpt lat="40.811962" lon=".57913"><ele>206.456</ele><time>2026-04-17T08:55:03Z</time></trkpt><trkpt lat="40.811891" lon=".579208"><ele>206.234</ele><time>2026-04-17T08:55:04Z</time></trkpt><trkpt lat="40.811834" lon=".579275"><ele>206.235</ele><time>2026-04-17T08:55:05Z</time></trkpt><trkpt lat="40.811791" lon=".579332"><ele>206.286</ele><time>2026-04-17T08:55:06Z</time></trkpt><trkpt lat="40.811733" lon=".57942"><ele>206.214</ele><time>2026-04-17T08:55:07Z</time></trkpt><trkpt lat="40.811697" lon=".579478"><ele>206.609</ele><time>2026-04-17T08:55:08Z</time></trkpt><trkpt lat="40.811654" lon=".579551"><ele>206.635</ele><time>2026-04-17T08:55:09Z</time></trkpt><trkpt lat="40.811603" lon=".579638"><ele>207.259</ele><time>2026-04-17T08:55:10Z</time></trkpt><trkpt lat="40.811562" lon=".579709"><ele>207.643</ele><time>2026-04-17T08:55:11Z</time></trkpt><trkpt lat="40.811483" lon=".579856"><ele>207.896</ele><time>2026-04-17T08:55:13Z</time></trkpt><trkpt lat="40.811442" lon=".579935"><ele>208.037</ele><time>2026-04-17T08:55:14Z</time></trkpt><trkpt lat="40.811404" lon=".580014"><ele>208.013</ele><time>2026-04-17T08:55:15Z</time></trkpt><trkpt lat="40.811373" lon=".580077"><ele>208.044</ele><time>2026-04-17T08:55:16Z</time></trkpt><trkpt lat="40.811117" lon=".58047"><ele>207.242</ele><time>2026-04-17T08:55:21Z</time></trkpt><trkpt lat="40.810871" lon=".580908"><ele>205.430</ele><time>2026-04-17T08:55:26Z</time></trkpt><trkpt lat="40.810828" lon=".581004"><ele>205.057</ele><time>2026-04-17T08:55:27Z</time></trkpt><trkpt lat="40.810746" lon=".581201"><ele>204.400</ele><time>2026-04-17T08:55:29Z</time></trkpt><trkpt lat="40.810609" lon=".581608"><ele>202.820</ele><time>2026-04-17T08:55:33Z</time></trkpt><trkpt lat="40.810514" lon=".58188"><ele>202.009</ele><time>2026-04-17T08:55:36Z</time></trkpt><trkpt lat="40.81048" lon=".581964"><ele>202.047</ele><time>2026-04-17T08:55:37Z</time></trkpt><trkpt lat="40.810445" lon=".58205"><ele>201.881</ele><time>2026-04-17T08:55:38Z</time></trkpt><trkpt lat="40.810416" lon=".582123"><ele>201.835</ele><time>2026-04-17T08:55:39Z</time></trkpt><trkpt lat="40.810207" lon=".582761"><ele>201.698</ele><time>2026-04-17T08:55:45Z</time></trkpt><trkpt lat="40.81012" lon=".582983"><ele>200.639</ele><time>2026-04-17T08:55:47Z</time></trkpt><trkpt lat="40.810026" lon=".583232"><ele>199.215</ele><time>2026-04-17T08:55:49Z</time></trkpt><trkpt lat="40.809981" lon=".583365"><ele>198.886</ele><time>2026-04-17T08:55:50Z</time></trkpt><trkpt lat="40.809899" lon=".583654"><ele>197.814</ele><time>2026-04-17T08:55:52Z</time></trkpt><trkpt lat="40.809864" lon=".583806"><ele>196.662</ele><time>2026-04-17T08:55:53Z</time></trkpt><trkpt lat="40.809832" lon=".583961"><ele>195.697</ele><time>2026-04-17T08:55:54Z</time></trkpt><trkpt lat="40.80978" lon=".584267"><ele>192.423</ele><time>2026-04-17T08:55:56Z</time></trkpt><trkpt lat="40.809758" lon=".584415"><ele>191.025</ele><time>2026-04-17T08:55:57Z</time></trkpt><trkpt lat="40.809736" lon=".584559"><ele>188.409</ele><time>2026-04-17T08:55:58Z</time></trkpt><trkpt lat="40.809718" lon=".5847"><ele>186.831</ele><time>2026-04-17T08:55:59Z</time></trkpt><trkpt lat="40.809704" lon=".584838"><ele>185.245</ele><time>2026-04-17T08:56:00Z</time></trkpt><trkpt lat="40.809694" lon=".584945"><ele>184.229</ele><time>2026-04-17T08:56:01Z</time></trkpt><trkpt lat="40.80968" lon=".585103"><ele>183.862</ele><time>2026-04-17T08:56:02Z</time></trkpt><trkpt lat="40.809673" lon=".585232"><ele>183.613</ele><time>2026-04-17T08:56:03Z</time></trkpt><trkpt lat="40.809667" lon=".585357"><ele>183.479</ele><time>2026-04-17T08:56:04Z</time></trkpt><trkpt lat="40.809655" lon=".585479"><ele>183.220</ele><time>2026-04-17T08:56:05Z</time></trkpt><trkpt lat="40.809642" lon=".585572"><ele>183.288</ele><time>2026-04-17T08:56:06Z</time></trkpt><trkpt lat="40.80962" lon=".585709"><ele>183.226</ele><time>2026-04-17T08:56:07Z</time></trkpt><trkpt lat="40.809596" lon=".585819"><ele>183.058</ele><time>2026-04-17T08:56:08Z</time></trkpt><trkpt lat="40.809568" lon=".585927"><ele>183.052</ele><time>2026-04-17T08:56:09Z</time></trkpt><trkpt lat="40.809536" lon=".586029"><ele>183.017</ele><time>2026-04-17T08:56:10Z</time></trkpt><trkpt lat="40.809507" lon=".586108"><ele>183.009</ele><time>2026-04-17T08:56:11Z</time></trkpt><trkpt lat="40.809457" lon=".586215"><ele>182.877</ele><time>2026-04-17T08:56:12Z</time></trkpt><trkpt lat="40.809409" lon=".586296"><ele>182.861</ele><time>2026-04-17T08:56:13Z</time></trkpt><trkpt lat="40.809368" lon=".586355"><ele>182.825</ele><time>2026-04-17T08:56:14Z</time></trkpt><trkpt lat="40.8093" lon=".586435"><ele>182.698</ele><time>2026-04-17T08:56:15Z</time></trkpt><trkpt lat="40.809241" lon=".586496"><ele>182.699</ele><time>2026-04-17T08:56:16Z</time></trkpt><trkpt lat="40.809182" lon=".586554"><ele>182.485</ele><time>2026-04-17T08:56:17Z</time></trkpt><trkpt lat="40.808995" lon=".5867"><ele>182.486</ele><time>2026-04-17T08:56:20Z</time></trkpt><trkpt lat="40.808931" lon=".586738"><ele>182.474</ele><time>2026-04-17T08:56:21Z</time></trkpt><trkpt lat="40.808866" lon=".58677"><ele>182.482</ele><time>2026-04-17T08:56:22Z</time></trkpt><trkpt lat="40.808798" lon=".586793"><ele>182.473</ele><time>2026-04-17T08:56:23Z</time></trkpt><trkpt lat="40.808728" lon=".586809"><ele>182.485</ele><time>2026-04-17T08:56:24Z</time></trkpt><trkpt lat="40.80866" lon=".58682"><ele>182.613</ele><time>2026-04-17T08:56:25Z</time></trkpt><trkpt lat="40.808592" lon=".586831"><ele>182.609</ele><time>2026-04-17T08:56:26Z</time></trkpt><trkpt lat="40.808525" lon=".586848"><ele>182.669</ele><time>2026-04-17T08:56:27Z</time></trkpt><trkpt lat="40.808459" lon=".586873"><ele>182.813</ele><time>2026-04-17T08:56:28Z</time></trkpt><trkpt lat="40.808333" lon=".586965"><ele>183.037</ele><time>2026-04-17T08:56:30Z</time></trkpt><trkpt lat="40.808276" lon=".587027"><ele>183.030</ele><time>2026-04-17T08:56:31Z</time></trkpt><trkpt lat="40.808224" lon=".5871"><ele>183.061</ele><time>2026-04-17T08:56:32Z</time></trkpt><trkpt lat="40.808182" lon=".587182"><ele>183.067</ele><time>2026-04-17T08:56:33Z</time></trkpt><trkpt lat="40.808147" lon=".587265"><ele>182.818</ele><time>2026-04-17T08:56:34Z</time></trkpt><trkpt lat="40.808111" lon=".587342"><ele>182.636</ele><time>2026-04-17T08:56:35Z</time></trkpt><trkpt lat="40.808027" lon=".587459"><ele>182.664</ele><time>2026-04-17T08:56:37Z</time></trkpt><trkpt lat="40.807982" lon=".587507"><ele>182.627</ele><time>2026-04-17T08:56:38Z</time></trkpt><trkpt lat="40.807935" lon=".587556"><ele>182.868</ele><time>2026-04-17T08:56:39Z</time></trkpt><trkpt lat="40.807888" lon=".587602"><ele>182.814</ele><time>2026-04-17T08:56:40Z</time></trkpt><trkpt lat="40.807847" lon=".587648"><ele>183.009</ele><time>2026-04-17T08:56:41Z</time></trkpt><trkpt lat="40.807811" lon=".587697"><ele>183.094</ele><time>2026-04-17T08:56:42Z</time></trkpt><trkpt lat="40.807775" lon=".587747"><ele>183.458</ele><time>2026-04-17T08:56:43Z</time></trkpt><trkpt lat="40.807736" lon=".587793"><ele>183.612</ele><time>2026-04-17T08:56:44Z</time></trkpt><trkpt lat="40.807649" lon=".587879"><ele>185.485</ele><time>2026-04-17T08:56:46Z</time></trkpt><trkpt lat="40.807454" lon=".588056"><ele>186.666</ele><time>2026-04-17T08:56:50Z</time></trkpt><trkpt lat="40.807387" lon=".588121"><ele>186.662</ele><time>2026-04-17T08:56:51Z</time></trkpt><trkpt lat="40.807329" lon=".58818"><ele>186.633</ele><time>2026-04-17T08:56:52Z</time></trkpt><trkpt lat="40.807272" lon=".58824"><ele>186.481</ele><time>2026-04-17T08:56:53Z</time></trkpt><trkpt lat="40.807214" lon=".588303"><ele>186.459</ele><time>2026-04-17T08:56:54Z</time></trkpt><trkpt lat="40.807154" lon=".588364"><ele>186.291</ele><time>2026-04-17T08:56:55Z</time></trkpt><trkpt lat="40.807096" lon=".588424"><ele>186.081</ele><time>2026-04-17T08:56:56Z</time></trkpt><trkpt lat="40.807037" lon=".588481"><ele>185.619</ele><time>2026-04-17T08:56:57Z</time></trkpt><trkpt lat="40.806977" lon=".588536"><ele>185.209</ele><time>2026-04-17T08:56:58Z</time></trkpt><trkpt lat="40.806913" lon=".588597"><ele>184.681</ele><time>2026-04-17T08:56:59Z</time></trkpt><trkpt lat="40.806851" lon=".588664"><ele>184.295</ele><time>2026-04-17T08:57:00Z</time></trkpt><trkpt lat="40.806795" lon=".588742"><ele>184.059</ele><time>2026-04-17T08:57:01Z</time></trkpt><trkpt lat="40.806747" lon=".588831"><ele>183.842</ele><time>2026-04-17T08:57:02Z</time></trkpt><trkpt lat="40.806715" lon=".588932"><ele>183.813</ele><time>2026-04-17T08:57:03Z</time></trkpt><trkpt lat="40.806682" lon=".589029"><ele>183.639</ele><time>2026-04-17T08:57:04Z</time></trkpt><trkpt lat="40.806634" lon=".589112"><ele>183.690</ele><time>2026-04-17T08:57:05Z</time></trkpt><trkpt lat="40.806574" lon=".589176"><ele>183.228</ele><time>2026-04-17T08:57:06Z</time></trkpt><trkpt lat="40.806515" lon=".589234"><ele>183.056</ele><time>2026-04-17T08:57:07Z</time></trkpt><trkpt lat="40.806459" lon=".589302"><ele>182.627</ele><time>2026-04-17T08:57:08Z</time></trkpt><trkpt lat="40.806398" lon=".589372"><ele>182.268</ele><time>2026-04-17T08:57:09Z</time></trkpt><trkpt lat="40.806326" lon=".589431"><ele>181.614</ele><time>2026-04-17T08:57:10Z</time></trkpt><trkpt lat="40.80617" lon=".589546"><ele>181.209</ele><time>2026-04-17T08:57:12Z</time></trkpt><trkpt lat="40.806109" lon=".589624"><ele>180.614</ele><time>2026-04-17T08:57:13Z</time></trkpt><trkpt lat="40.806066" lon=".589703"><ele>180.458</ele><time>2026-04-17T08:57:14Z</time></trkpt><trkpt lat="40.806032" lon=".589775"><ele>180.032</ele><time>2026-04-17T08:57:15Z</time></trkpt><trkpt lat="40.806002" lon=".589838"><ele>180.045</ele><time>2026-04-17T08:57:16Z</time></trkpt><trkpt lat="40.805973" lon=".589895"><ele>179.816</ele><time>2026-04-17T08:57:17Z</time></trkpt><trkpt lat="40.805939" lon=".589943"><ele>179.872</ele><time>2026-04-17T08:57:18Z</time></trkpt><trkpt lat="40.805906" lon=".589978"><ele>179.893</ele><time>2026-04-17T08:57:19Z</time></trkpt><trkpt lat="40.805871" lon=".590006"><ele>179.841</ele><time>2026-04-17T08:57:20Z</time></trkpt><trkpt lat="40.805835" lon=".590026"><ele>180.429</ele><time>2026-04-17T08:57:21Z</time></trkpt><trkpt lat="40.805795" lon=".590045"><ele>181.633</ele><time>2026-04-17T08:57:22Z</time></trkpt><trkpt lat="40.805755" lon=".590062"><ele>182.023</ele><time>2026-04-17T08:57:23Z</time></trkpt><trkpt lat="40.805714" lon=".590081"><ele>183.615</ele><time>2026-04-17T08:57:24Z</time></trkpt><trkpt lat="40.805671" lon=".590097"><ele>184.009</ele><time>2026-04-17T08:57:25Z</time></trkpt><trkpt lat="40.805622" lon=".59011"><ele>185.295</ele><time>2026-04-17T08:57:26Z</time></trkpt><trkpt lat="40.805513" lon=".590131"><ele>186.219</ele><time>2026-04-17T08:57:28Z</time></trkpt><trkpt lat="40.805399" lon=".59017"><ele>186.673</ele><time>2026-04-17T08:57:30Z</time></trkpt><trkpt lat="40.8053" lon=".59026"><ele>186.856</ele><time>2026-04-17T08:57:32Z</time></trkpt><trkpt lat="40.805259" lon=".59031"><ele>186.827</ele><time>2026-04-17T08:57:33Z</time></trkpt><trkpt lat="40.805225" lon=".590354"><ele>186.853</ele><time>2026-04-17T08:57:34Z</time></trkpt><trkpt lat="40.805194" lon=".590398"><ele>187.014</ele><time>2026-04-17T08:57:35Z</time></trkpt><trkpt lat="40.805165" lon=".590443"><ele>187.232</ele><time>2026-04-17T08:57:36Z</time></trkpt><trkpt lat="40.805138" lon=".590484"><ele>187.220</ele><time>2026-04-17T08:57:37Z</time></trkpt><trkpt lat="40.80511" lon=".590528"><ele>187.619</ele><time>2026-04-17T08:57:38Z</time></trkpt><trkpt lat="40.805081" lon=".590569"><ele>187.809</ele><time>2026-04-17T08:57:39Z</time></trkpt><trkpt lat="40.805051" lon=".590612"><ele>188.619</ele><time>2026-04-17T08:57:40Z</time></trkpt><trkpt lat="40.805019" lon=".590654"><ele>189.009</ele><time>2026-04-17T08:57:41Z</time></trkpt><trkpt lat="40.804984" lon=".590697"><ele>190.093</ele><time>2026-04-17T08:57:42Z</time></trkpt><trkpt lat="40.804946" lon=".590745"><ele>190.457</ele><time>2026-04-17T08:57:43Z</time></trkpt><trkpt lat="40.804908" lon=".590798"><ele>190.841</ele><time>2026-04-17T08:57:44Z</time></trkpt><trkpt lat="40.804878" lon=".590842"><ele>191.254</ele><time>2026-04-17T08:57:45Z</time></trkpt><trkpt lat="40.804837" lon=".590907"><ele>191.425</ele><time>2026-04-17T08:57:46Z</time></trkpt><trkpt lat="40.804813" lon=".590946"><ele>191.691</ele><time>2026-04-17T08:57:47Z</time></trkpt><trkpt lat="40.804783" lon=".590994"><ele>191.872</ele><time>2026-04-17T08:57:48Z</time></trkpt><trkpt lat="40.804749" lon=".59105"><ele>192.090</ele><time>2026-04-17T08:57:49Z</time></trkpt><trkpt lat="40.80472" lon=".591092"><ele>192.028</ele><time>2026-04-17T08:57:50Z</time></trkpt><trkpt lat="40.804694" lon=".591125"><ele>192.428</ele><time>2026-04-17T08:57:51Z</time></trkpt><trkpt lat="40.804649" lon=".591172"><ele>192.489</ele><time>2026-04-17T08:57:52Z</time></trkpt><trkpt lat="40.804602" lon=".591206"><ele>192.417</ele><time>2026-04-17T08:57:53Z</time></trkpt><trkpt lat="40.804551" lon=".591233"><ele>192.409</ele><time>2026-04-17T08:57:54Z</time></trkpt><trkpt lat="40.804492" lon=".591253"><ele>192.424</ele><time>2026-04-17T08:57:55Z</time></trkpt><trkpt lat="40.804428" lon=".591269"><ele>192.468</ele><time>2026-04-17T08:57:56Z</time></trkpt><trkpt lat="40.804362" lon=".591283"><ele>192.492</ele><time>2026-04-17T08:57:57Z</time></trkpt><trkpt lat="40.80429" lon=".5913"><ele>192.425</ele><time>2026-04-17T08:57:58Z</time></trkpt><trkpt lat="40.804214" lon=".591321"><ele>192.226</ele><time>2026-04-17T08:57:59Z</time></trkpt><trkpt lat="40.804137" lon=".59134"><ele>192.062</ele><time>2026-04-17T08:58:00Z</time></trkpt><trkpt lat="40.804058" lon=".591364"><ele>192.023</ele><time>2026-04-17T08:58:01Z</time></trkpt><trkpt lat="40.803977" lon=".591391"><ele>191.611</ele><time>2026-04-17T08:58:02Z</time></trkpt><trkpt lat="40.803891" lon=".591409"><ele>190.899</ele><time>2026-04-17T08:58:03Z</time></trkpt><trkpt lat="40.803804" lon=".591408"><ele>190.496</ele><time>2026-04-17T08:58:04Z</time></trkpt><trkpt lat="40.803719" lon=".59139"><ele>189.831</ele><time>2026-04-17T08:58:05Z</time></trkpt><trkpt lat="40.803639" lon=".591362"><ele>189.624</ele><time>2026-04-17T08:58:06Z</time></trkpt><trkpt lat="40.803562" lon=".591336"><ele>189.409</ele><time>2026-04-17T08:58:07Z</time></trkpt><trkpt lat="40.803488" lon=".591316"><ele>188.841</ele><time>2026-04-17T08:58:08Z</time></trkpt><trkpt lat="40.803416" lon=".591293"><ele>188.065</ele><time>2026-04-17T08:58:09Z</time></trkpt><trkpt lat="40.803343" lon=".59127"><ele>187.829</ele><time>2026-04-17T08:58:10Z</time></trkpt><trkpt lat="40.803268" lon=".591255"><ele>187.282</ele><time>2026-04-17T08:58:11Z</time></trkpt><trkpt lat="40.80319" lon=".591253"><ele>186.873</ele><time>2026-04-17T08:58:12Z</time></trkpt><trkpt lat="40.803115" lon=".591268"><ele>186.899</ele><time>2026-04-17T08:58:13Z</time></trkpt><trkpt lat="40.803045" lon=".591294"><ele>186.640</ele><time>2026-04-17T08:58:14Z</time></trkpt><trkpt lat="40.802982" lon=".591326"><ele>186.488</ele><time>2026-04-17T08:58:15Z</time></trkpt><trkpt lat="40.802923" lon=".591359"><ele>186.476</ele><time>2026-04-17T08:58:16Z</time></trkpt><trkpt lat="40.802863" lon=".591394"><ele>186.453</ele><time>2026-04-17T08:58:17Z</time></trkpt><trkpt lat="40.802805" lon=".591424"><ele>186.404</ele><time>2026-04-17T08:58:18Z</time></trkpt><trkpt lat="40.802748" lon=".591454"><ele>186.414</ele><time>2026-04-17T08:58:19Z</time></trkpt><trkpt lat="40.80269" lon=".591486"><ele>186.409</ele><time>2026-04-17T08:58:20Z</time></trkpt><trkpt lat="40.802632" lon=".591527"><ele>186.427</ele><time>2026-04-17T08:58:21Z</time></trkpt><trkpt lat="40.802522" lon=".591642"><ele>186.461</ele><time>2026-04-17T08:58:23Z</time></trkpt><trkpt lat="40.802343" lon=".591861"><ele>186.485</ele><time>2026-04-17T08:58:26Z</time></trkpt><trkpt lat="40.802273" lon=".591923"><ele>186.238</ele><time>2026-04-17T08:58:27Z</time></trkpt><trkpt lat="40.802204" lon=".591974"><ele>185.639</ele><time>2026-04-17T08:58:28Z</time></trkpt><trkpt lat="40.802133" lon=".592013"><ele>184.895</ele><time>2026-04-17T08:58:29Z</time></trkpt><trkpt lat="40.80206" lon=".592043"><ele>183.886</ele><time>2026-04-17T08:58:30Z</time></trkpt><trkpt lat="40.801985" lon=".592067"><ele>183.274</ele><time>2026-04-17T08:58:31Z</time></trkpt><trkpt lat="40.801911" lon=".592087"><ele>182.622</ele><time>2026-04-17T08:58:32Z</time></trkpt><trkpt lat="40.801834" lon=".592107"><ele>182.669</ele><time>2026-04-17T08:58:33Z</time></trkpt><trkpt lat="40.801674" lon=".592155"><ele>182.204</ele><time>2026-04-17T08:58:35Z</time></trkpt><trkpt lat="40.801175" lon=".592257"><ele>181.424</ele><time>2026-04-17T08:58:41Z</time></trkpt><trkpt lat="40.800916" lon=".592281"><ele>180.409</ele><time>2026-04-17T08:58:44Z</time></trkpt><trkpt lat="40.800628" lon=".592285"><ele>179.238</ele><time>2026-04-17T08:58:47Z</time></trkpt><trkpt lat="40.800315" lon=".592303"><ele>177.642</ele><time>2026-04-17T08:58:50Z</time></trkpt><trkpt lat="40.800105" lon=".592312"><ele>176.686</ele><time>2026-04-17T08:58:52Z</time></trkpt><trkpt lat="40.800027" lon=".592302"><ele>176.439</ele><time>2026-04-17T08:58:53Z</time></trkpt><trkpt lat="40.799919" lon=".592253"><ele>174.890</ele><time>2026-04-17T08:58:54Z</time></trkpt><trkpt lat="40.799854" lon=".592199"><ele>173.656</ele><time>2026-04-17T08:58:55Z</time></trkpt><trkpt lat="40.799758" lon=".592117"><ele>173.427</ele><time>2026-04-17T08:58:56Z</time></trkpt><trkpt lat="40.799675" lon=".59206"><ele>171.815</ele><time>2026-04-17T08:58:57Z</time></trkpt><trkpt lat="40.799591" lon=".592021"><ele>171.493</ele><time>2026-04-17T08:58:58Z</time></trkpt><trkpt lat="40.799507" lon=".591998"><ele>170.863</ele><time>2026-04-17T08:58:59Z</time></trkpt><trkpt lat="40.799418" lon=".591993"><ele>170.244</ele><time>2026-04-17T08:59:00Z</time></trkpt><trkpt lat="40.799346" lon=".591992"><ele>169.818</ele><time>2026-04-17T08:59:01Z</time></trkpt><trkpt lat="40.799236" lon=".591989"><ele>169.409</ele><time>2026-04-17T08:59:02Z</time></trkpt><trkpt lat="40.799061" lon=".591999"><ele>168.288</ele><time>2026-04-17T08:59:04Z</time></trkpt><trkpt lat="40.798987" lon=".592033"><ele>168.282</ele><time>2026-04-17T08:59:05Z</time></trkpt><trkpt lat="40.798923" lon=".592084"><ele>168.266</ele><time>2026-04-17T08:59:06Z</time></trkpt><trkpt lat="40.798862" lon=".592138"><ele>168.069</ele><time>2026-04-17T08:59:07Z</time></trkpt><trkpt lat="40.7988" lon=".592187"><ele>168.250</ele><time>2026-04-17T08:59:08Z</time></trkpt><trkpt lat="40.798734" lon=".592234"><ele>168.286</ele><time>2026-04-17T08:59:09Z</time></trkpt><trkpt lat="40.798681" lon=".592271"><ele>168.237</ele><time>2026-04-17T08:59:10Z</time></trkpt><trkpt lat="40.798456" lon=".592406"><ele>168.235</ele><time>2026-04-17T08:59:13Z</time></trkpt><trkpt lat="40.798018" lon=".592532"><ele>168.453</ele><time>2026-04-17T08:59:19Z</time></trkpt><trkpt lat="40.797868" lon=".592556"><ele>168.264</ele><time>2026-04-17T08:59:21Z</time></trkpt><trkpt lat="40.797803" lon=".59256"><ele>168.206</ele><time>2026-04-17T08:59:22Z</time></trkpt><trkpt lat="40.79774" lon=".592562"><ele>168.216</ele><time>2026-04-17T08:59:23Z</time></trkpt><trkpt lat="40.797679" lon=".592564"><ele>168.409</ele><time>2026-04-17T08:59:24Z</time></trkpt><trkpt lat="40.797615" lon=".592567"><ele>168.458</ele><time>2026-04-17T08:59:25Z</time></trkpt><trkpt lat="40.797552" lon=".592572"><ele>168.662</ele><time>2026-04-17T08:59:26Z</time></trkpt><trkpt lat="40.797268" lon=".592626"><ele>168.276</ele><time>2026-04-17T08:59:30Z</time></trkpt><trkpt lat="40.796838" lon=".592743"><ele>166.889</ele><time>2026-04-17T08:59:35Z</time></trkpt><trkpt lat="40.796657" lon=".592799"><ele>165.650</ele><time>2026-04-17T08:59:37Z</time></trkpt><trkpt lat="40.79649" lon=".592822"><ele>164.286</ele><time>2026-04-17T08:59:39Z</time></trkpt><trkpt lat="40.796376" lon=".592812"><ele>163.487</ele><time>2026-04-17T08:59:40Z</time></trkpt><trkpt lat="40.796285" lon=".592779"><ele>163.085</ele><time>2026-04-17T08:59:41Z</time></trkpt><trkpt lat="40.796125" lon=".592663"><ele>161.863</ele><time>2026-04-17T08:59:43Z</time></trkpt><trkpt lat="40.796039" lon=".592626"><ele>161.212</ele><time>2026-04-17T08:59:44Z</time></trkpt><trkpt lat="40.795969" lon=".592614"><ele>161.032</ele><time>2026-04-17T08:59:45Z</time></trkpt><trkpt lat="40.795863" lon=".592617"><ele>160.405</ele><time>2026-04-17T08:59:46Z</time></trkpt><trkpt lat="40.795774" lon=".592633"><ele>159.609</ele><time>2026-04-17T08:59:47Z</time></trkpt><trkpt lat="40.795679" lon=".592654"><ele>159.253</ele><time>2026-04-17T08:59:48Z</time></trkpt><trkpt lat="40.795579" lon=".592679"><ele>158.667</ele><time>2026-04-17T08:59:49Z</time></trkpt><trkpt lat="40.795372" lon=".592735"><ele>157.671</ele><time>2026-04-17T08:59:51Z</time></trkpt><trkpt lat="40.795268" lon=".592779"><ele>157.454</ele><time>2026-04-17T08:59:52Z</time></trkpt><trkpt lat="40.795163" lon=".592832"><ele>156.695</ele><time>2026-04-17T08:59:53Z</time></trkpt><trkpt lat="40.794943" lon=".592909"><ele>155.211</ele><time>2026-04-17T08:59:55Z</time></trkpt><trkpt lat="40.794852" lon=".592932"><ele>153.842</ele><time>2026-04-17T08:59:56Z</time></trkpt><trkpt lat="40.794607" lon=".593013"><ele>152.040</ele><time>2026-04-17T08:59:58Z</time></trkpt><trkpt lat="40.794508" lon=".593064"><ele>151.248</ele><time>2026-04-17T08:59:59Z</time></trkpt><trkpt lat="40.794419" lon=".593136"><ele>149.823</ele><time>2026-04-17T09:00:00Z</time></trkpt><trkpt lat="40.794338" lon=".593237"><ele>149.083</ele><time>2026-04-17T09:00:01Z</time></trkpt><trkpt lat="40.794253" lon=".593347"><ele>147.811</ele><time>2026-04-17T09:00:02Z</time></trkpt><trkpt lat="40.794163" lon=".593455"><ele>146.809</ele><time>2026-04-17T09:00:03Z</time></trkpt><trkpt lat="40.794071" lon=".593559"><ele>146.294</ele><time>2026-04-17T09:00:04Z</time></trkpt><trkpt lat="40.793979" lon=".593657"><ele>144.618</ele><time>2026-04-17T09:00:05Z</time></trkpt><trkpt lat="40.793886" lon=".593752"><ele>143.272</ele><time>2026-04-17T09:00:06Z</time></trkpt><trkpt lat="40.79379" lon=".59384"><ele>141.875</ele><time>2026-04-17T09:00:07Z</time></trkpt><trkpt lat="40.793688" lon=".593913"><ele>141.256</ele><time>2026-04-17T09:00:08Z</time></trkpt><trkpt lat="40.793582" lon=".593976"><ele>140.412</ele><time>2026-04-17T09:00:09Z</time></trkpt><trkpt lat="40.793274" lon=".59415"><ele>139.093</ele><time>2026-04-17T09:00:12Z</time></trkpt><trkpt lat="40.792958" lon=".594241"><ele>138.051</ele><time>2026-04-17T09:00:15Z</time></trkpt><trkpt lat="40.79286" lon=".594261"><ele>137.629</ele><time>2026-04-17T09:00:16Z</time></trkpt><trkpt lat="40.792762" lon=".594279"><ele>137.224</ele><time>2026-04-17T09:00:17Z</time></trkpt><trkpt lat="40.792668" lon=".594296"><ele>136.604</ele><time>2026-04-17T09:00:18Z</time></trkpt><trkpt lat="40.792576" lon=".59431"><ele>136.414</ele><time>2026-04-17T09:00:19Z</time></trkpt><trkpt lat="40.792484" lon=".594322"><ele>136.209</ele><time>2026-04-17T09:00:20Z</time></trkpt><trkpt lat="40.79239" lon=".594327"><ele>135.844</ele><time>2026-04-17T09:00:21Z</time></trkpt><trkpt lat="40.792296" lon=".594319"><ele>135.888</ele><time>2026-04-17T09:00:22Z</time></trkpt><trkpt lat="40.7922" lon=".594307"><ele>135.492</ele><time>2026-04-17T09:00:23Z</time></trkpt><trkpt lat="40.792025" lon=".594265"><ele>134.825</ele><time>2026-04-17T09:00:25Z</time></trkpt><trkpt lat="40.791862" lon=".594174"><ele>134.686</ele><time>2026-04-17T09:00:27Z</time></trkpt><trkpt lat="40.791706" lon=".594114"><ele>134.452</ele><time>2026-04-17T09:00:29Z</time></trkpt><trkpt lat="40.79165" lon=".594066"><ele>134.293</ele><time>2026-04-17T09:00:30Z</time></trkpt><trkpt lat="40.791618" lon=".593992"><ele>134.251</ele><time>2026-04-17T09:00:31Z</time></trkpt><trkpt lat="40.791604" lon=".59391"><ele>134.069</ele><time>2026-04-17T09:00:32Z</time></trkpt><trkpt lat="40.791595" lon=".593829"><ele>134.015</ele><time>2026-04-17T09:00:33Z</time></trkpt><trkpt lat="40.791581" lon=".59375"><ele>134.065</ele><time>2026-04-17T09:00:34Z</time></trkpt><trkpt lat="40.791551" lon=".593675"><ele>134.011</ele><time>2026-04-17T09:00:35Z</time></trkpt><trkpt lat="40.791506" lon=".593618"><ele>134.209</ele><time>2026-04-17T09:00:36Z</time></trkpt><trkpt lat="40.791448" lon=".593581"><ele>134.013</ele><time>2026-04-17T09:00:37Z</time></trkpt><trkpt lat="40.791385" lon=".593569"><ele>134.097</ele><time>2026-04-17T09:00:38Z</time></trkpt><trkpt lat="40.791319" lon=".59358"><ele>134.221</ele><time>2026-04-17T09:00:39Z</time></trkpt><trkpt lat="40.791188" lon=".593623"><ele>134.294</ele><time>2026-04-17T09:00:41Z</time></trkpt><trkpt lat="40.791118" lon=".593638"><ele>134.465</ele><time>2026-04-17T09:00:42Z</time></trkpt><trkpt lat="40.791045" lon=".593652"><ele>134.671</ele><time>2026-04-17T09:00:43Z</time></trkpt><trkpt lat="40.790972" lon=".593674"><ele>134.642</ele><time>2026-04-17T09:00:44Z</time></trkpt><trkpt lat="40.79083" lon=".593775"><ele>134.230</ele><time>2026-04-17T09:00:46Z</time></trkpt><trkpt lat="40.790764" lon=".593849"><ele>133.818</ele><time>2026-04-17T09:00:47Z</time></trkpt><trkpt lat="40.790697" lon=".593928"><ele>133.614</ele><time>2026-04-17T09:00:48Z</time></trkpt><trkpt lat="40.790624" lon=".594003"><ele>133.454</ele><time>2026-04-17T09:00:49Z</time></trkpt><trkpt lat="40.790546" lon=".594075"><ele>132.209</ele><time>2026-04-17T09:00:50Z</time></trkpt><trkpt lat="40.790382" lon=".594199"><ele>131.409</ele><time>2026-04-17T09:00:52Z</time></trkpt><trkpt lat="40.790303" lon=".594268"><ele>130.483</ele><time>2026-04-17T09:00:53Z</time></trkpt><trkpt lat="40.790233" lon=".594349"><ele>129.427</ele><time>2026-04-17T09:00:54Z</time></trkpt><trkpt lat="40.790167" lon=".594439"><ele>129.031</ele><time>2026-04-17T09:00:55Z</time></trkpt><trkpt lat="40.790035" lon=".59461"><ele>128.884</ele><time>2026-04-17T09:00:57Z</time></trkpt><trkpt lat="40.789877" lon=".594714"><ele>128.065</ele><time>2026-04-17T09:00:59Z</time></trkpt><trkpt lat="40.789701" lon=".594741"><ele>127.411</ele><time>2026-04-17T09:01:01Z</time></trkpt><trkpt lat="40.789611" lon=".594746"><ele>127.042</ele><time>2026-04-17T09:01:02Z</time></trkpt><trkpt lat="40.78952" lon=".594754"><ele>126.450</ele><time>2026-04-17T09:01:03Z</time></trkpt><trkpt lat="40.789431" lon=".594769"><ele>126.268</ele><time>2026-04-17T09:01:04Z</time></trkpt><trkpt lat="40.789342" lon=".594799"><ele>126.036</ele><time>2026-04-17T09:01:05Z</time></trkpt><trkpt lat="40.78926" lon=".594842"><ele>125.617</ele><time>2026-04-17T09:01:06Z</time></trkpt><trkpt lat="40.789179" lon=".594895"><ele>125.418</ele><time>2026-04-17T09:01:07Z</time></trkpt><trkpt lat="40.789102" lon=".594956"><ele>125.009</ele><time>2026-04-17T09:01:08Z</time></trkpt><trkpt lat="40.788946" lon=".595101"><ele>124.265</ele><time>2026-04-17T09:01:10Z</time></trkpt><trkpt lat="40.788781" lon=".595248"><ele>123.419</ele><time>2026-04-17T09:01:12Z</time></trkpt><trkpt lat="40.788714" lon=".595333"><ele>123.053</ele><time>2026-04-17T09:01:13Z</time></trkpt><trkpt lat="40.788652" lon=".595417"><ele>122.836</ele><time>2026-04-17T09:01:14Z</time></trkpt><trkpt lat="40.788593" lon=".595493"><ele>122.247</ele><time>2026-04-17T09:01:15Z</time></trkpt><trkpt lat="40.788535" lon=".59556"><ele>122.263</ele><time>2026-04-17T09:01:16Z</time></trkpt><trkpt lat="40.788474" lon=".595612"><ele>122.014</ele><time>2026-04-17T09:01:17Z</time></trkpt><trkpt lat="40.788412" lon=".595655"><ele>122.042</ele><time>2026-04-17T09:01:18Z</time></trkpt><trkpt lat="40.788349" lon=".595692"><ele>122.030</ele><time>2026-04-17T09:01:19Z</time></trkpt><trkpt lat="40.788292" lon=".59573"><ele>122.046</ele><time>2026-04-17T09:01:20Z</time></trkpt><trkpt lat="40.788239" lon=".595769"><ele>122.088</ele><time>2026-04-17T09:01:21Z</time></trkpt><trkpt lat="40.78819" lon=".595814"><ele>122.616</ele><time>2026-04-17T09:01:22Z</time></trkpt><trkpt lat="40.788138" lon=".595859"><ele>123.009</ele><time>2026-04-17T09:01:23Z</time></trkpt><trkpt lat="40.788083" lon=".595897"><ele>123.616</ele><time>2026-04-17T09:01:24Z</time></trkpt><trkpt lat="40.788025" lon=".595921"><ele>124.080</ele><time>2026-04-17T09:01:25Z</time></trkpt><trkpt lat="40.787966" lon=".595928"><ele>124.894</ele><time>2026-04-17T09:01:26Z</time></trkpt><trkpt lat="40.787906" lon=".595924"><ele>125.077</ele><time>2026-04-17T09:01:27Z</time></trkpt><trkpt lat="40.787845" lon=".595909"><ele>125.448</ele><time>2026-04-17T09:01:28Z</time></trkpt><trkpt lat="40.787787" lon=".595886"><ele>125.624</ele><time>2026-04-17T09:01:29Z</time></trkpt><trkpt lat="40.787733" lon=".595855"><ele>125.845</ele><time>2026-04-17T09:01:30Z</time></trkpt><trkpt lat="40.787679" lon=".595826"><ele>126.033</ele><time>2026-04-17T09:01:31Z</time></trkpt><trkpt lat="40.787528" lon=".595727"><ele>126.891</ele><time>2026-04-17T09:01:34Z</time></trkpt><trkpt lat="40.787474" lon=".5957"><ele>127.035</ele><time>2026-04-17T09:01:35Z</time></trkpt><trkpt lat="40.787416" lon=".595678"><ele>127.086</ele><time>2026-04-17T09:01:36Z</time></trkpt><trkpt lat="40.787355" lon=".595662"><ele>127.014</ele><time>2026-04-17T09:01:37Z</time></trkpt><trkpt lat="40.78729" lon=".595654"><ele>127.009</ele><time>2026-04-17T09:01:38Z</time></trkpt><trkpt lat="40.787152" lon=".59565"><ele>127.285</ele><time>2026-04-17T09:01:40Z</time></trkpt><trkpt lat="40.787079" lon=".595649"><ele>127.259</ele><time>2026-04-17T09:01:41Z</time></trkpt><trkpt lat="40.787006" lon=".595641"><ele>127.293</ele><time>2026-04-17T09:01:42Z</time></trkpt><trkpt lat="40.786936" lon=".595613"><ele>127.276</ele><time>2026-04-17T09:01:43Z</time></trkpt><trkpt lat="40.78687" lon=".595572"><ele>127.037</ele><time>2026-04-17T09:01:44Z</time></trkpt><trkpt lat="40.786809" lon=".59552"><ele>127.073</ele><time>2026-04-17T09:01:45Z</time></trkpt><trkpt lat="40.786747" lon=".595461"><ele>126.484</ele><time>2026-04-17T09:01:46Z</time></trkpt><trkpt lat="40.786682" lon=".595404"><ele>126.272</ele><time>2026-04-17T09:01:47Z</time></trkpt><trkpt lat="40.786612" lon=".595347"><ele>126.030</ele><time>2026-04-17T09:01:48Z</time></trkpt><trkpt lat="40.786539" lon=".595295"><ele>125.643</ele><time>2026-04-17T09:01:49Z</time></trkpt><trkpt lat="40.786392" lon=".595229"><ele>125.264</ele><time>2026-04-17T09:01:51Z</time></trkpt><trkpt lat="40.786325" lon=".595221"><ele>125.410</ele><time>2026-04-17T09:01:52Z</time></trkpt><trkpt lat="40.78626" lon=".595228"><ele>125.409</ele><time>2026-04-17T09:01:53Z</time></trkpt><trkpt lat="40.786194" lon=".595242"><ele>125.256</ele><time>2026-04-17T09:01:54Z</time></trkpt><trkpt lat="40.786128" lon=".595261"><ele>125.260</ele><time>2026-04-17T09:01:55Z</time></trkpt><trkpt lat="40.786059" lon=".595275"><ele>125.274</ele><time>2026-04-17T09:01:56Z</time></trkpt><trkpt lat="40.78592" lon=".595283"><ele>125.247</ele><time>2026-04-17T09:01:58Z</time></trkpt><trkpt lat="40.785853" lon=".595256"><ele>125.288</ele><time>2026-04-17T09:01:59Z</time></trkpt><trkpt lat="40.785791" lon=".595214"><ele>125.254</ele><time>2026-04-17T09:02:00Z</time></trkpt><trkpt lat="40.78573" lon=".59517"><ele>125.275</ele><time>2026-04-17T09:02:01Z</time></trkpt><trkpt lat="40.785665" lon=".595134"><ele>125.293</ele><time>2026-04-17T09:02:02Z</time></trkpt><trkpt lat="40.785594" lon=".595114"><ele>125.461</ele><time>2026-04-17T09:02:03Z</time></trkpt><trkpt lat="40.785522" lon=".595107"><ele>125.479</ele><time>2026-04-17T09:02:04Z</time></trkpt><trkpt lat="40.785305" lon=".595119"><ele>125.205</ele><time>2026-04-17T09:02:07Z</time></trkpt><trkpt lat="40.785234" lon=".595108"><ele>125.225</ele><time>2026-04-17T09:02:08Z</time></trkpt><trkpt lat="40.785169" lon=".595076"><ele>125.209</ele><time>2026-04-17T09:02:09Z</time></trkpt><trkpt lat="40.785057" lon=".594961"><ele>125.449</ele><time>2026-04-17T09:02:11Z</time></trkpt><trkpt lat="40.785003" lon=".594892"><ele>125.483</ele><time>2026-04-17T09:02:12Z</time></trkpt><trkpt lat="40.784947" lon=".594825"><ele>125.497</ele><time>2026-04-17T09:02:13Z</time></trkpt><trkpt lat="40.784889" lon=".594759"><ele>125.420</ele><time>2026-04-17T09:02:14Z</time></trkpt><trkpt lat="40.784546" lon=".594339"><ele>125.481</ele><time>2026-04-17T09:02:20Z</time></trkpt><trkpt lat="40.78436" lon=".594162"><ele>125.647</ele><time>2026-04-17T09:02:23Z</time></trkpt><trkpt lat="40.784238" lon=".594082"><ele>125.828</ele><time>2026-04-17T09:02:25Z</time></trkpt><trkpt lat="40.784179" lon=".594045"><ele>126.026</ele><time>2026-04-17T09:02:26Z</time></trkpt><trkpt lat="40.784121" lon=".594008"><ele>126.044</ele><time>2026-04-17T09:02:27Z</time></trkpt><trkpt lat="40.784062" lon=".59397"><ele>126.264</ele><time>2026-04-17T09:02:28Z</time></trkpt><trkpt lat="40.784001" lon=".593933"><ele>126.406</ele><time>2026-04-17T09:02:29Z</time></trkpt><trkpt lat="40.78394" lon=".593894"><ele>126.816</ele><time>2026-04-17T09:02:30Z</time></trkpt><trkpt lat="40.783749" lon=".593789"><ele>127.609</ele><time>2026-04-17T09:02:33Z</time></trkpt><trkpt lat="40.783686" lon=".593753"><ele>127.688</ele><time>2026-04-17T09:02:34Z</time></trkpt><trkpt lat="40.783321" lon=".593558"><ele>127.882</ele><time>2026-04-17T09:02:39Z</time></trkpt><trkpt lat="40.783236" lon=".593524"><ele>127.816</ele><time>2026-04-17T09:02:40Z</time></trkpt><trkpt lat="40.783148" lon=".593489"><ele>127.049</ele><time>2026-04-17T09:02:41Z</time></trkpt><trkpt lat="40.78306" lon=".593451"><ele>126.870</ele><time>2026-04-17T09:02:42Z</time></trkpt><trkpt lat="40.782973" lon=".593408"><ele>126.246</ele><time>2026-04-17T09:02:43Z</time></trkpt><trkpt lat="40.782807" lon=".593324"><ele>125.297</ele><time>2026-04-17T09:02:45Z</time></trkpt><trkpt lat="40.782741" lon=".593287"><ele>125.095</ele><time>2026-04-17T09:02:46Z</time></trkpt><trkpt lat="40.782689" lon=".593254"><ele>124.263</ele><time>2026-04-17T09:02:47Z</time></trkpt><trkpt lat="40.782651" lon=".59322"><ele>123.826</ele><time>2026-04-17T09:02:48Z</time></trkpt><trkpt lat="40.78263" lon=".593181"><ele>123.647</ele><time>2026-04-17T09:02:49Z</time></trkpt><trkpt lat="40.78263" lon=".593131"><ele>122.611</ele><time>2026-04-17T09:02:50Z</time></trkpt><trkpt lat="40.78265" lon=".593085"><ele>122.209</ele><time>2026-04-17T09:02:51Z</time></trkpt><trkpt lat="40.782684" lon=".593061"><ele>121.844</ele><time>2026-04-17T09:02:52Z</time></trkpt><trkpt lat="40.782723" lon=".593043"><ele>121.628</ele><time>2026-04-17T09:02:53Z</time></trkpt><trkpt lat="40.782765" lon=".593027"><ele>121.422</ele><time>2026-04-17T09:02:54Z</time></trkpt><trkpt lat="40.782852" lon=".593001"><ele>121.265</ele><time>2026-04-17T09:02:56Z</time></trkpt><trkpt lat="40.782899" lon=".592983"><ele>121.236</ele><time>2026-04-17T09:02:57Z</time></trkpt><trkpt lat="40.782949" lon=".592967"><ele>121.252</ele><time>2026-04-17T09:02:58Z</time></trkpt><trkpt lat="40.783266" lon=".592805"><ele>120.883</ele><time>2026-04-17T09:03:04Z</time></trkpt><trkpt lat="40.783364" lon=".592729"><ele>120.861</ele><time>2026-04-17T09:03:06Z</time></trkpt><trkpt lat="40.783543" lon=".592536"><ele>120.899</ele><time>2026-04-17T09:03:10Z</time></trkpt><trkpt lat="40.783581" lon=".592476"><ele>121.086</ele><time>2026-04-17T09:03:11Z</time></trkpt><trkpt lat="40.78368" lon=".592257"><ele>121.460</ele><time>2026-04-17T09:03:14Z</time></trkpt><trkpt lat="40.783764" lon=".59213"><ele>122.026</ele><time>2026-04-17T09:03:16Z</time></trkpt><trkpt lat="40.783866" lon=".592029"><ele>122.609</ele><time>2026-04-17T09:03:18Z</time></trkpt><trkpt lat="40.783922" lon=".591978"><ele>123.010</ele><time>2026-04-17T09:03:19Z</time></trkpt><trkpt lat="40.784217" lon=".591674"><ele>123.644</ele><time>2026-04-17T09:03:24Z</time></trkpt><trkpt lat="40.784385" lon=".591497"><ele>124.028</ele><time>2026-04-17T09:03:27Z</time></trkpt><trkpt lat="40.784439" lon=".59144"><ele>124.011</ele><time>2026-04-17T09:03:28Z</time></trkpt><trkpt lat="40.784492" lon=".591379"><ele>124.252</ele><time>2026-04-17T09:03:29Z</time></trkpt><trkpt lat="40.784543" lon=".591314"><ele>124.458</ele><time>2026-04-17T09:03:30Z</time></trkpt><trkpt lat="40.784595" lon=".591249"><ele>124.699</ele><time>2026-04-17T09:03:31Z</time></trkpt><trkpt lat="40.784644" lon=".591188"><ele>124.877</ele><time>2026-04-17T09:03:32Z</time></trkpt><trkpt lat="40.784699" lon=".591133"><ele>124.835</ele><time>2026-04-17T09:03:33Z</time></trkpt><trkpt lat="40.784762" lon=".591089"><ele>124.899</ele><time>2026-04-17T09:03:34Z</time></trkpt><trkpt lat="40.784824" lon=".591043"><ele>124.807</ele><time>2026-04-17T09:03:35Z</time></trkpt><trkpt lat="40.78488" lon=".590984"><ele>124.827</ele><time>2026-04-17T09:03:36Z</time></trkpt><trkpt lat="40.784933" lon=".590915"><ele>124.809</ele><time>2026-04-17T09:03:37Z</time></trkpt><trkpt lat="40.784982" lon=".590837"><ele>124.421</ele><time>2026-04-17T09:03:38Z</time></trkpt><trkpt lat="40.785029" lon=".590756"><ele>124.265</ele><time>2026-04-17T09:03:39Z</time></trkpt><trkpt lat="40.785072" lon=".59068"><ele>123.849</ele><time>2026-04-17T09:03:40Z</time></trkpt><trkpt lat="40.78512" lon=".590621"><ele>123.612</ele><time>2026-04-17T09:03:41Z</time></trkpt><trkpt lat="40.785172" lon=".590583"><ele>123.483</ele><time>2026-04-17T09:03:42Z</time></trkpt><trkpt lat="40.785224" lon=".590558"><ele>123.289</ele><time>2026-04-17T09:03:43Z</time></trkpt><trkpt lat="40.785277" lon=".59054"><ele>122.810</ele><time>2026-04-17T09:03:44Z</time></trkpt><trkpt lat="40.785346" lon=".590558"><ele>122.648</ele><time>2026-04-17T09:03:45Z</time></trkpt><trkpt lat="40.785412" lon=".590572"><ele>122.276</ele><time>2026-04-17T09:03:46Z</time></trkpt><trkpt lat="40.785476" lon=".590568"><ele>122.064</ele><time>2026-04-17T09:03:47Z</time></trkpt><trkpt lat="40.785519" lon=".590527"><ele>121.806</ele><time>2026-04-17T09:03:48Z</time></trkpt><trkpt lat="40.785544" lon=".590455"><ele>121.416</ele><time>2026-04-17T09:03:49Z</time></trkpt><trkpt lat="40.785556" lon=".590375"><ele>121.009</ele><time>2026-04-17T09:03:50Z</time></trkpt><trkpt lat="40.785555" lon=".590298"><ele>120.028</ele><time>2026-04-17T09:03:51Z</time></trkpt><trkpt lat="40.785535" lon=".590223"><ele>119.612</ele><time>2026-04-17T09:03:52Z</time></trkpt><trkpt lat="40.785512" lon=".59016"><ele>119.046</ele><time>2026-04-17T09:03:53Z</time></trkpt><trkpt lat="40.785491" lon=".590106"><ele>118.879</ele><time>2026-04-17T09:03:54Z</time></trkpt><trkpt lat="40.785475" lon=".59006"><ele>118.660</ele><time>2026-04-17T09:03:55Z</time></trkpt><trkpt lat="40.785456" lon=".590014"><ele>118.696</ele><time>2026-04-17T09:03:56Z</time></trkpt><trkpt lat="40.785434" lon=".589969"><ele>118.637</ele><time>2026-04-17T09:03:57Z</time></trkpt><trkpt lat="40.785405" lon=".589929"><ele>118.675</ele><time>2026-04-17T09:03:58Z</time></trkpt><trkpt lat="40.785371" lon=".589898"><ele>118.633</ele><time>2026-04-17T09:03:59Z</time></trkpt><trkpt lat="40.785333" lon=".589877"><ele>118.865</ele><time>2026-04-17T09:04:00Z</time></trkpt><trkpt lat="40.785296" lon=".589865"><ele>118.868</ele><time>2026-04-17T09:04:01Z</time></trkpt><trkpt lat="40.785258" lon=".589857"><ele>119.214</ele><time>2026-04-17T09:04:02Z</time></trkpt><trkpt lat="40.785218" lon=".589851"><ele>119.409</ele><time>2026-04-17T09:04:03Z</time></trkpt><trkpt lat="40.78518" lon=".589847"><ele>120.238</ele><time>2026-04-17T09:04:04Z</time></trkpt><trkpt lat="40.785143" lon=".589847"><ele>120.632</ele><time>2026-04-17T09:04:05Z</time></trkpt><trkpt lat="40.785106" lon=".589848"><ele>120.626</ele><time>2026-04-17T09:04:06Z</time></trkpt><trkpt lat="40.785066" lon=".589849"><ele>121.259</ele><time>2026-04-17T09:04:07Z</time></trkpt><trkpt lat="40.784985" lon=".589837"><ele>122.470</ele><time>2026-04-17T09:04:09Z</time></trkpt><trkpt lat="40.784864" lon=".589818"><ele>123.496</ele><time>2026-04-17T09:04:12Z</time></trkpt><trkpt lat="40.784784" lon=".589826"><ele>124.067</ele><time>2026-04-17T09:04:14Z</time></trkpt><trkpt lat="40.784696" lon=".589857"><ele>124.475</ele><time>2026-04-17T09:04:16Z</time></trkpt><trkpt lat="40.784649" lon=".589872"><ele>124.623</ele><time>2026-04-17T09:04:17Z</time></trkpt><trkpt lat="40.784608" lon=".589885"><ele>124.841</ele><time>2026-04-17T09:04:18Z</time></trkpt><trkpt lat="40.784568" lon=".589899"><ele>125.081</ele><time>2026-04-17T09:04:19Z</time></trkpt><trkpt lat="40.78453" lon=".589916"><ele>125.209</ele><time>2026-04-17T09:04:20Z</time></trkpt><trkpt lat="40.784491" lon=".589936"><ele>125.809</ele><time>2026-04-17T09:04:21Z</time></trkpt><trkpt lat="40.784449" lon=".589957"><ele>126.086</ele><time>2026-04-17T09:04:22Z</time></trkpt><trkpt lat="40.784408" lon=".589979"><ele>126.260</ele><time>2026-04-17T09:04:23Z</time></trkpt><trkpt lat="40.784365" lon=".590001"><ele>126.484</ele><time>2026-04-17T09:04:24Z</time></trkpt><trkpt lat="40.78432" lon=".590025"><ele>126.627</ele><time>2026-04-17T09:04:25Z</time></trkpt><trkpt lat="40.784275" lon=".590044"><ele>126.688</ele><time>2026-04-17T09:04:26Z</time></trkpt><trkpt lat="40.784232" lon=".590056"><ele>126.864</ele><time>2026-04-17T09:04:27Z</time></trkpt><trkpt lat="40.784188" lon=".59006"><ele>126.845</ele><time>2026-04-17T09:04:28Z</time></trkpt><trkpt lat="40.784141" lon=".59006"><ele>127.433</ele><time>2026-04-17T09:04:29Z</time></trkpt><trkpt lat="40.784094" lon=".590053"><ele>127.631</ele><time>2026-04-17T09:04:30Z</time></trkpt><trkpt lat="40.784051" lon=".590035"><ele>127.858</ele><time>2026-04-17T09:04:31Z</time></trkpt><trkpt lat="40.784018" lon=".589999"><ele>128.052</ele><time>2026-04-17T09:04:32Z</time></trkpt><trkpt lat="40.784" lon=".589946"><ele>128.217</ele><time>2026-04-17T09:04:33Z</time></trkpt><trkpt lat="40.784" lon=".589881"><ele>128.409</ele><time>2026-04-17T09:04:34Z</time></trkpt><trkpt lat="40.784023" lon=".589813"><ele>128.417</ele><time>2026-04-17T09:04:35Z</time></trkpt><trkpt lat="40.784052" lon=".589749"><ele>128.611</ele><time>2026-04-17T09:04:36Z</time></trkpt><trkpt lat="40.784082" lon=".589685"><ele>128.685</ele><time>2026-04-17T09:04:37Z</time></trkpt><trkpt lat="40.784114" lon=".589614"><ele>128.638</ele><time>2026-04-17T09:04:38Z</time></trkpt><trkpt lat="40.784135" lon=".589535"><ele>128.679</ele><time>2026-04-17T09:04:39Z</time></trkpt><trkpt lat="40.784143" lon=".589446"><ele>128.615</ele><time>2026-04-17T09:04:40Z</time></trkpt><trkpt lat="40.784145" lon=".589355"><ele>128.426</ele><time>2026-04-17T09:04:41Z</time></trkpt><trkpt lat="40.784149" lon=".589259"><ele>128.294</ele><time>2026-04-17T09:04:42Z</time></trkpt><trkpt lat="40.78416" lon=".589169"><ele>128.042</ele><time>2026-04-17T09:04:43Z</time></trkpt><trkpt lat="40.784176" lon=".589081"><ele>128.066</ele><time>2026-04-17T09:04:44Z</time></trkpt><trkpt lat="40.784175" lon=".589"><ele>127.229</ele><time>2026-04-17T09:04:45Z</time></trkpt><trkpt lat="40.784152" lon=".588934"><ele>127.021</ele><time>2026-04-17T09:04:46Z</time></trkpt><trkpt lat="40.784108" lon=".588902"><ele>126.609</ele><time>2026-04-17T09:04:47Z</time></trkpt><trkpt lat="40.784067" lon=".588893"><ele>126.098</ele><time>2026-04-17T09:04:48Z</time></trkpt><trkpt lat="40.784031" lon=".588908"><ele>125.882</ele><time>2026-04-17T09:04:49Z</time></trkpt><trkpt lat="40.783989" lon=".588943"><ele>125.656</ele><time>2026-04-17T09:04:50Z</time></trkpt><trkpt lat="40.783941" lon=".588984"><ele>125.639</ele><time>2026-04-17T09:04:51Z</time></trkpt><trkpt lat="40.783841" lon=".58906"><ele>125.460</ele><time>2026-04-17T09:04:53Z</time></trkpt><trkpt lat="40.783786" lon=".589094"><ele>125.496</ele><time>2026-04-17T09:04:54Z</time></trkpt><trkpt lat="40.783727" lon=".589123"><ele>125.497</ele><time>2026-04-17T09:04:55Z</time></trkpt><trkpt lat="40.783607" lon=".589129"><ele>125.645</ele><time>2026-04-17T09:04:57Z</time></trkpt><trkpt lat="40.783559" lon=".589097"><ele>126.273</ele><time>2026-04-17T09:04:58Z</time></trkpt><trkpt lat="40.783527" lon=".589044"><ele>127.047</ele><time>2026-04-17T09:04:59Z</time></trkpt><trkpt lat="40.783517" lon=".58884"><ele>127.429</ele><time>2026-04-17T09:05:02Z</time></trkpt><trkpt lat="40.783526" lon=".58871"><ele>128.421</ele><time>2026-04-17T09:05:04Z</time></trkpt><trkpt lat="40.78353" lon=".588647"><ele>128.609</ele><time>2026-04-17T09:05:05Z</time></trkpt><trkpt lat="40.783532" lon=".588584"><ele>129.696</ele><time>2026-04-17T09:05:06Z</time></trkpt><trkpt lat="40.783534" lon=".58852"><ele>130.080</ele><time>2026-04-17T09:05:07Z</time></trkpt><trkpt lat="40.783537" lon=".588455"><ele>130.614</ele><time>2026-04-17T09:05:08Z</time></trkpt><trkpt lat="40.783542" lon=".588389"><ele>131.097</ele><time>2026-04-17T09:05:09Z</time></trkpt><trkpt lat="40.783548" lon=".588324"><ele>132.278</ele><time>2026-04-17T09:05:10Z</time></trkpt><trkpt lat="40.783554" lon=".588258"><ele>132.834</ele><time>2026-04-17T09:05:11Z</time></trkpt><trkpt lat="40.783559" lon=".588191"><ele>133.245</ele><time>2026-04-17T09:05:12Z</time></trkpt><trkpt lat="40.783568" lon=".588122"><ele>133.663</ele><time>2026-04-17T09:05:13Z</time></trkpt><trkpt lat="40.783574" lon=".588055"><ele>133.611</ele><time>2026-04-17T09:05:14Z</time></trkpt><trkpt lat="40.783584" lon=".587992"><ele>134.037</ele><time>2026-04-17T09:05:15Z</time></trkpt><trkpt lat="40.783596" lon=".587931"><ele>134.049</ele><time>2026-04-17T09:05:16Z</time></trkpt><trkpt lat="40.783611" lon=".587874"><ele>134.413</ele><time>2026-04-17T09:05:17Z</time></trkpt><trkpt lat="40.783626" lon=".587813"><ele>134.609</ele><time>2026-04-17T09:05:18Z</time></trkpt><trkpt lat="40.783639" lon=".587752"><ele>134.895</ele><time>2026-04-17T09:05:19Z</time></trkpt><trkpt lat="40.783651" lon=".587689"><ele>135.029</ele><time>2026-04-17T09:05:20Z</time></trkpt><trkpt lat="40.783661" lon=".587626"><ele>135.423</ele><time>2026-04-17T09:05:21Z</time></trkpt><trkpt lat="40.783665" lon=".587564"><ele>136.066</ele><time>2026-04-17T09:05:22Z</time></trkpt><trkpt lat="40.783655" lon=".587504"><ele>136.417</ele><time>2026-04-17T09:05:23Z</time></trkpt><trkpt lat="40.783628" lon=".587452"><ele>137.273</ele><time>2026-04-17T09:05:24Z</time></trkpt><trkpt lat="40.783589" lon=".587415"><ele>137.424</ele><time>2026-04-17T09:05:25Z</time></trkpt><trkpt lat="40.783549" lon=".587389"><ele>138.062</ele><time>2026-04-17T09:05:26Z</time></trkpt><trkpt lat="40.783507" lon=".587373"><ele>138.270</ele><time>2026-04-17T09:05:27Z</time></trkpt><trkpt lat="40.783466" lon=".587361"><ele>138.676</ele><time>2026-04-17T09:05:28Z</time></trkpt><trkpt lat="40.783427" lon=".587348"><ele>139.090</ele><time>2026-04-17T09:05:29Z</time></trkpt><trkpt lat="40.783393" lon=".587326"><ele>139.819</ele><time>2026-04-17T09:05:30Z</time></trkpt><trkpt lat="40.783365" lon=".587294"><ele>140.409</ele><time>2026-04-17T09:05:31Z</time></trkpt><trkpt lat="40.783346" lon=".587249"><ele>140.629</ele><time>2026-04-17T09:05:32Z</time></trkpt><trkpt lat="40.783342" lon=".587197"><ele>141.273</ele><time>2026-04-17T09:05:33Z</time></trkpt><trkpt lat="40.783353" lon=".587146"><ele>141.457</ele><time>2026-04-17T09:05:34Z</time></trkpt><trkpt lat="40.783376" lon=".5871"><ele>141.650</ele><time>2026-04-17T09:05:35Z</time></trkpt><trkpt lat="40.783403" lon=".587056"><ele>141.851</ele><time>2026-04-17T09:05:36Z</time></trkpt><trkpt lat="40.783428" lon=".587013"><ele>142.267</ele><time>2026-04-17T09:05:37Z</time></trkpt><trkpt lat="40.783452" lon=".586971"><ele>142.818</ele><time>2026-04-17T09:05:38Z</time></trkpt><trkpt lat="40.783475" lon=".586931"><ele>143.056</ele><time>2026-04-17T09:05:39Z</time></trkpt><trkpt lat="40.783495" lon=".586894"><ele>143.294</ele><time>2026-04-17T09:05:40Z</time></trkpt><trkpt lat="40.783512" lon=".586856"><ele>143.256</ele><time>2026-04-17T09:05:41Z</time></trkpt><trkpt lat="40.783529" lon=".586816"><ele>143.859</ele><time>2026-04-17T09:05:42Z</time></trkpt><trkpt lat="40.783545" lon=".586774"><ele>144.014</ele><time>2026-04-17T09:05:43Z</time></trkpt><trkpt lat="40.783562" lon=".586732"><ele>144.609</ele><time>2026-04-17T09:05:44Z</time></trkpt><trkpt lat="40.78358" lon=".586691"><ele>144.867</ele><time>2026-04-17T09:05:45Z</time></trkpt><trkpt lat="40.783602" lon=".586649"><ele>145.481</ele><time>2026-04-17T09:05:46Z</time></trkpt><trkpt lat="40.783625" lon=".586613"><ele>145.815</ele><time>2026-04-17T09:05:47Z</time></trkpt><trkpt lat="40.783643" lon=".586578"><ele>146.058</ele><time>2026-04-17T09:05:48Z</time></trkpt><trkpt lat="40.783662" lon=".586545"><ele>146.499</ele><time>2026-04-17T09:05:49Z</time></trkpt><trkpt lat="40.783681" lon=".586514"><ele>146.655</ele><time>2026-04-17T09:05:50Z</time></trkpt><trkpt lat="40.783699" lon=".586482"><ele>147.036</ele><time>2026-04-17T09:05:51Z</time></trkpt><trkpt lat="40.783717" lon=".58645"><ele>147.264</ele><time>2026-04-17T09:05:52Z</time></trkpt><trkpt lat="40.783737" lon=".586415"><ele>147.682</ele><time>2026-04-17T09:05:53Z</time></trkpt><trkpt lat="40.783758" lon=".586378"><ele>147.869</ele><time>2026-04-17T09:05:54Z</time></trkpt><trkpt lat="40.783781" lon=".586343"><ele>148.404</ele><time>2026-04-17T09:05:55Z</time></trkpt><trkpt lat="40.783804" lon=".586306"><ele>148.824</ele><time>2026-04-17T09:05:56Z</time></trkpt><trkpt lat="40.783826" lon=".586272"><ele>148.809</ele><time>2026-04-17T09:05:57Z</time></trkpt><trkpt lat="40.78385" lon=".586239"><ele>149.088</ele><time>2026-04-17T09:05:58Z</time></trkpt><trkpt lat="40.78387" lon=".586215"><ele>149.252</ele><time>2026-04-17T09:05:59Z</time></trkpt><trkpt lat="40.783899" lon=".586179"><ele>149.476</ele><time>2026-04-17T09:06:00Z</time></trkpt><trkpt lat="40.783924" lon=".58615"><ele>149.679</ele><time>2026-04-17T09:06:01Z</time></trkpt><trkpt lat="40.783949" lon=".586122"><ele>149.870</ele><time>2026-04-17T09:06:02Z</time></trkpt><trkpt lat="40.783972" lon=".586094"><ele>149.836</ele><time>2026-04-17T09:06:03Z</time></trkpt><trkpt lat="40.783995" lon=".586065"><ele>150.247</ele><time>2026-04-17T09:06:04Z</time></trkpt><trkpt lat="40.784017" lon=".586039"><ele>150.655</ele><time>2026-04-17T09:06:05Z</time></trkpt><trkpt lat="40.784041" lon=".586016"><ele>150.893</ele><time>2026-04-17T09:06:06Z</time></trkpt><trkpt lat="40.784067" lon=".585994"><ele>151.286</ele><time>2026-04-17T09:06:07Z</time></trkpt><trkpt lat="40.784093" lon=".585972"><ele>151.660</ele><time>2026-04-17T09:06:08Z</time></trkpt><trkpt lat="40.784122" lon=".585948"><ele>152.426</ele><time>2026-04-17T09:06:09Z</time></trkpt><trkpt lat="40.784152" lon=".585923"><ele>152.609</ele><time>2026-04-17T09:06:10Z</time></trkpt><trkpt lat="40.784184" lon=".585898"><ele>153.260</ele><time>2026-04-17T09:06:11Z</time></trkpt><trkpt lat="40.784215" lon=".585875"><ele>153.484</ele><time>2026-04-17T09:06:12Z</time></trkpt><trkpt lat="40.784244" lon=".58585"><ele>153.658</ele><time>2026-04-17T09:06:13Z</time></trkpt><trkpt lat="40.784272" lon=".585824"><ele>154.071</ele><time>2026-04-17T09:06:14Z</time></trkpt><trkpt lat="40.784303" lon=".585796"><ele>154.292</ele><time>2026-04-17T09:06:15Z</time></trkpt><trkpt lat="40.784333" lon=".585772"><ele>154.488</ele><time>2026-04-17T09:06:16Z</time></trkpt><trkpt lat="40.784363" lon=".585747"><ele>154.449</ele><time>2026-04-17T09:06:17Z</time></trkpt><trkpt lat="40.784393" lon=".585717"><ele>155.017</ele><time>2026-04-17T09:06:18Z</time></trkpt><trkpt lat="40.784423" lon=".585688"><ele>155.235</ele><time>2026-04-17T09:06:19Z</time></trkpt><trkpt lat="40.784454" lon=".585659"><ele>155.679</ele><time>2026-04-17T09:06:20Z</time></trkpt><trkpt lat="40.784483" lon=".585628"><ele>156.005</ele><time>2026-04-17T09:06:21Z</time></trkpt><trkpt lat="40.784509" lon=".585592"><ele>156.025</ele><time>2026-04-17T09:06:22Z</time></trkpt><trkpt lat="40.78453" lon=".585551"><ele>156.609</ele><time>2026-04-17T09:06:23Z</time></trkpt><trkpt lat="40.784546" lon=".585507"><ele>157.099</ele><time>2026-04-17T09:06:24Z</time></trkpt><trkpt lat="40.784562" lon=".585461"><ele>157.423</ele><time>2026-04-17T09:06:25Z</time></trkpt><trkpt lat="40.784578" lon=".585412"><ele>157.667</ele><time>2026-04-17T09:06:26Z</time></trkpt><trkpt lat="40.784594" lon=".585366"><ele>157.820</ele><time>2026-04-17T09:06:27Z</time></trkpt><trkpt lat="40.78461" lon=".585319"><ele>158.261</ele><time>2026-04-17T09:06:28Z</time></trkpt><trkpt lat="40.784624" lon=".585274"><ele>158.697</ele><time>2026-04-17T09:06:29Z</time></trkpt><trkpt lat="40.784638" lon=".585228"><ele>159.088</ele><time>2026-04-17T09:06:30Z</time></trkpt><trkpt lat="40.784652" lon=".585181"><ele>159.246</ele><time>2026-04-17T09:06:31Z</time></trkpt><trkpt lat="40.784664" lon=".585135"><ele>159.644</ele><time>2026-04-17T09:06:32Z</time></trkpt><trkpt lat="40.784674" lon=".58509"><ele>159.857</ele><time>2026-04-17T09:06:33Z</time></trkpt><trkpt lat="40.784685" lon=".585042"><ele>160.200</ele><time>2026-04-17T09:06:34Z</time></trkpt><trkpt lat="40.784694" lon=".584992"><ele>160.420</ele><time>2026-04-17T09:06:35Z</time></trkpt><trkpt lat="40.784703" lon=".584944"><ele>160.809</ele><time>2026-04-17T09:06:36Z</time></trkpt><trkpt lat="40.784713" lon=".584893"><ele>161.027</ele><time>2026-04-17T09:06:37Z</time></trkpt><trkpt lat="40.784722" lon=".584839"><ele>161.471</ele><time>2026-04-17T09:06:38Z</time></trkpt><trkpt lat="40.78473" lon=".584785"><ele>161.635</ele><time>2026-04-17T09:06:39Z</time></trkpt><trkpt lat="40.784737" lon=".584732"><ele>161.898</ele><time>2026-04-17T09:06:40Z</time></trkpt><trkpt lat="40.784744" lon=".584683"><ele>162.219</ele><time>2026-04-17T09:06:41Z</time></trkpt><trkpt lat="40.784752" lon=".584635"><ele>162.225</ele><time>2026-04-17T09:06:42Z</time></trkpt><trkpt lat="40.784766" lon=".584593"><ele>162.416</ele><time>2026-04-17T09:06:43Z</time></trkpt><trkpt lat="40.784781" lon=".584554"><ele>162.824</ele><time>2026-04-17T09:06:44Z</time></trkpt><trkpt lat="40.784803" lon=".584514"><ele>163.092</ele><time>2026-04-17T09:06:45Z</time></trkpt><trkpt lat="40.784829" lon=".584473"><ele>163.269</ele><time>2026-04-17T09:06:46Z</time></trkpt><trkpt lat="40.784856" lon=".584433"><ele>163.604</ele><time>2026-04-17T09:06:47Z</time></trkpt><trkpt lat="40.78488" lon=".584393"><ele>164.024</ele><time>2026-04-17T09:06:48Z</time></trkpt><trkpt lat="40.784904" lon=".584353"><ele>164.009</ele><time>2026-04-17T09:06:49Z</time></trkpt><trkpt lat="40.784927" lon=".58431"><ele>164.478</ele><time>2026-04-17T09:06:50Z</time></trkpt><trkpt lat="40.78495" lon=".584266"><ele>164.452</ele><time>2026-04-17T09:06:51Z</time></trkpt><trkpt lat="40.784973" lon=".58422"><ele>164.666</ele><time>2026-04-17T09:06:52Z</time></trkpt><trkpt lat="40.784997" lon=".584172"><ele>164.849</ele><time>2026-04-17T09:06:53Z</time></trkpt><trkpt lat="40.785019" lon=".584127"><ele>165.030</ele><time>2026-04-17T09:06:54Z</time></trkpt><trkpt lat="40.785041" lon=".584081"><ele>165.066</ele><time>2026-04-17T09:06:55Z</time></trkpt><trkpt lat="40.785062" lon=".584035"><ele>165.217</ele><time>2026-04-17T09:06:56Z</time></trkpt><trkpt lat="40.785082" lon=".583991"><ele>165.455</ele><time>2026-04-17T09:06:57Z</time></trkpt><trkpt lat="40.7851" lon=".583948"><ele>165.473</ele><time>2026-04-17T09:06:58Z</time></trkpt><trkpt lat="40.785119" lon=".583904"><ele>165.647</ele><time>2026-04-17T09:06:59Z</time></trkpt><trkpt lat="40.785136" lon=".583861"><ele>165.629</ele><time>2026-04-17T09:07:00Z</time></trkpt><trkpt lat="40.785149" lon=".583817"><ele>165.821</ele><time>2026-04-17T09:07:01Z</time></trkpt><trkpt lat="40.785163" lon=".583775"><ele>165.809</ele><time>2026-04-17T09:07:02Z</time></trkpt><trkpt lat="40.785182" lon=".583736"><ele>166.036</ele><time>2026-04-17T09:07:03Z</time></trkpt><trkpt lat="40.785205" lon=".583701"><ele>166.270</ele><time>2026-04-17T09:07:04Z</time></trkpt><trkpt lat="40.785232" lon=".583667"><ele>166.214</ele><time>2026-04-17T09:07:05Z</time></trkpt><trkpt lat="40.785258" lon=".583632"><ele>166.467</ele><time>2026-04-17T09:07:06Z</time></trkpt><trkpt lat="40.785284" lon=".583596"><ele>166.478</ele><time>2026-04-17T09:07:07Z</time></trkpt><trkpt lat="40.78531" lon=".58356"><ele>166.874</ele><time>2026-04-17T09:07:08Z</time></trkpt><trkpt lat="40.785338" lon=".583527"><ele>166.875</ele><time>2026-04-17T09:07:09Z</time></trkpt><trkpt lat="40.785366" lon=".583495"><ele>167.013</ele><time>2026-04-17T09:07:10Z</time></trkpt><trkpt lat="40.785394" lon=".583465"><ele>167.241</ele><time>2026-04-17T09:07:11Z</time></trkpt><trkpt lat="40.785423" lon=".583434"><ele>167.424</ele><time>2026-04-17T09:07:12Z</time></trkpt><trkpt lat="40.785452" lon=".583404"><ele>167.604</ele><time>2026-04-17T09:07:13Z</time></trkpt><trkpt lat="40.785483" lon=".583373"><ele>167.614</ele><time>2026-04-17T09:07:14Z</time></trkpt><trkpt lat="40.785514" lon=".583344"><ele>167.609</ele><time>2026-04-17T09:07:15Z</time></trkpt><trkpt lat="40.785545" lon=".583314"><ele>167.854</ele><time>2026-04-17T09:07:16Z</time></trkpt><trkpt lat="40.785579" lon=".583285"><ele>167.868</ele><time>2026-04-17T09:07:17Z</time></trkpt><trkpt lat="40.785612" lon=".583258"><ele>167.852</ele><time>2026-04-17T09:07:18Z</time></trkpt><trkpt lat="40.785645" lon=".583227"><ele>168.035</ele><time>2026-04-17T09:07:19Z</time></trkpt><trkpt lat="40.785677" lon=".583195"><ele>168.046</ele><time>2026-04-17T09:07:20Z</time></trkpt><trkpt lat="40.78571" lon=".583163"><ele>168.282</ele><time>2026-04-17T09:07:21Z</time></trkpt><trkpt lat="40.785742" lon=".583129"><ele>168.263</ele><time>2026-04-17T09:07:22Z</time></trkpt><trkpt lat="40.785774" lon=".583094"><ele>168.431</ele><time>2026-04-17T09:07:23Z</time></trkpt><trkpt lat="40.785806" lon=".583058"><ele>168.899</ele><time>2026-04-17T09:07:24Z</time></trkpt><trkpt lat="40.785838" lon=".58302"><ele>169.079</ele><time>2026-04-17T09:07:25Z</time></trkpt><trkpt lat="40.785871" lon=".582983"><ele>169.205</ele><time>2026-04-17T09:07:26Z</time></trkpt><trkpt lat="40.785901" lon=".582945"><ele>169.425</ele><time>2026-04-17T09:07:27Z</time></trkpt><trkpt lat="40.785925" lon=".582908"><ele>169.609</ele><time>2026-04-17T09:07:28Z</time></trkpt><trkpt lat="40.785948" lon=".582873"><ele>169.659</ele><time>2026-04-17T09:07:29Z</time></trkpt><trkpt lat="40.785971" lon=".582838"><ele>169.623</ele><time>2026-04-17T09:07:30Z</time></trkpt><trkpt lat="40.785996" lon=".582805"><ele>169.837</ele><time>2026-04-17T09:07:31Z</time></trkpt><trkpt lat="40.786022" lon=".582773"><ele>169.820</ele><time>2026-04-17T09:07:32Z</time></trkpt><trkpt lat="40.786048" lon=".582739"><ele>170.031</ele><time>2026-04-17T09:07:33Z</time></trkpt><trkpt lat="40.786074" lon=".582706"><ele>170.267</ele><time>2026-04-17T09:07:34Z</time></trkpt><trkpt lat="40.786101" lon=".582675"><ele>170.898</ele><time>2026-04-17T09:07:35Z</time></trkpt><trkpt lat="40.786129" lon=".582646"><ele>171.016</ele><time>2026-04-17T09:07:36Z</time></trkpt><trkpt lat="40.786158" lon=".582617"><ele>171.254</ele><time>2026-04-17T09:07:37Z</time></trkpt><trkpt lat="40.786188" lon=".582591"><ele>171.495</ele><time>2026-04-17T09:07:38Z</time></trkpt><trkpt lat="40.786219" lon=".582566"><ele>171.649</ele><time>2026-04-17T09:07:39Z</time></trkpt><trkpt lat="40.786251" lon=".582541"><ele>171.823</ele><time>2026-04-17T09:07:40Z</time></trkpt><trkpt lat="40.786285" lon=".582516"><ele>172.009</ele><time>2026-04-17T09:07:41Z</time></trkpt><trkpt lat="40.786316" lon=".582484"><ele>172.451</ele><time>2026-04-17T09:07:42Z</time></trkpt><trkpt lat="40.786347" lon=".582452"><ele>172.475</ele><time>2026-04-17T09:07:43Z</time></trkpt><trkpt lat="40.786382" lon=".582423"><ele>172.839</ele><time>2026-04-17T09:07:44Z</time></trkpt><trkpt lat="40.786418" lon=".582399"><ele>172.812</ele><time>2026-04-17T09:07:45Z</time></trkpt><trkpt lat="40.786456" lon=".582379"><ele>172.883</ele><time>2026-04-17T09:07:46Z</time></trkpt><trkpt lat="40.786495" lon=".582364"><ele>172.889</ele><time>2026-04-17T09:07:47Z</time></trkpt><trkpt lat="40.786532" lon=".582354"><ele>172.820</ele><time>2026-04-17T09:07:48Z</time></trkpt><trkpt lat="40.786569" lon=".582346"><ele>173.018</ele><time>2026-04-17T09:07:49Z</time></trkpt><trkpt lat="40.786607" lon=".582339"><ele>173.086</ele><time>2026-04-17T09:07:50Z</time></trkpt><trkpt lat="40.786644" lon=".582331"><ele>173.285</ele><time>2026-04-17T09:07:51Z</time></trkpt><trkpt lat="40.786675" lon=".582325"><ele>173.289</ele><time>2026-04-17T09:07:52Z</time></trkpt><trkpt lat="40.786721" lon=".582316"><ele>173.417</ele><time>2026-04-17T09:07:53Z</time></trkpt><trkpt lat="40.786757" lon=".582305"><ele>173.409</ele><time>2026-04-17T09:07:54Z</time></trkpt><trkpt lat="40.786792" lon=".582292"><ele>173.650</ele><time>2026-04-17T09:07:55Z</time></trkpt><trkpt lat="40.786827" lon=".582277"><ele>173.674</ele><time>2026-04-17T09:07:56Z</time></trkpt><trkpt lat="40.78686" lon=".582255"><ele>173.618</ele><time>2026-04-17T09:07:57Z</time></trkpt><trkpt lat="40.786893" lon=".582226"><ele>173.851</ele><time>2026-04-17T09:07:58Z</time></trkpt><trkpt lat="40.786926" lon=".58219"><ele>174.042</ele><time>2026-04-17T09:07:59Z</time></trkpt><trkpt lat="40.786958" lon=".582153"><ele>174.248</ele><time>2026-04-17T09:08:00Z</time></trkpt><trkpt lat="40.786992" lon=".582115"><ele>174.229</ele><time>2026-04-17T09:08:01Z</time></trkpt><trkpt lat="40.787028" lon=".582075"><ele>174.467</ele><time>2026-04-17T09:08:02Z</time></trkpt><trkpt lat="40.787066" lon=".582031"><ele>174.445</ele><time>2026-04-17T09:08:03Z</time></trkpt><trkpt lat="40.787106" lon=".581988"><ele>174.665</ele><time>2026-04-17T09:08:04Z</time></trkpt><trkpt lat="40.787146" lon=".581945"><ele>174.868</ele><time>2026-04-17T09:08:05Z</time></trkpt><trkpt lat="40.787188" lon=".5819"><ele>174.814</ele><time>2026-04-17T09:08:06Z</time></trkpt><trkpt lat="40.787233" lon=".581855"><ele>175.009</ele><time>2026-04-17T09:08:07Z</time></trkpt><trkpt lat="40.78728" lon=".581808"><ele>175.018</ele><time>2026-04-17T09:08:08Z</time></trkpt><trkpt lat="40.787327" lon=".58176"><ele>175.082</ele><time>2026-04-17T09:08:09Z</time></trkpt><trkpt lat="40.787371" lon=".581705"><ele>175.096</ele><time>2026-04-17T09:08:10Z</time></trkpt><trkpt lat="40.787408" lon=".581642"><ele>175.099</ele><time>2026-04-17T09:08:11Z</time></trkpt><trkpt lat="40.787441" lon=".581572"><ele>175.090</ele><time>2026-04-17T09:08:12Z</time></trkpt><trkpt lat="40.787471" lon=".581497"><ele>174.896</ele><time>2026-04-17T09:08:13Z</time></trkpt><trkpt lat="40.787503" lon=".581422"><ele>174.687</ele><time>2026-04-17T09:08:14Z</time></trkpt><trkpt lat="40.787537" lon=".581348"><ele>174.435</ele><time>2026-04-17T09:08:15Z</time></trkpt><trkpt lat="40.787572" lon=".58127"><ele>174.243</ele><time>2026-04-17T09:08:16Z</time></trkpt><trkpt lat="40.78769" lon=".581028"><ele>173.842</ele><time>2026-04-17T09:08:19Z</time></trkpt><trkpt lat="40.787991" lon=".580536"><ele>172.422</ele><time>2026-04-17T09:08:25Z</time></trkpt><trkpt lat="40.788035" lon=".580445"><ele>172.014</ele><time>2026-04-17T09:08:26Z</time></trkpt><trkpt lat="40.788068" lon=".580352"><ele>171.209</ele><time>2026-04-17T09:08:27Z</time></trkpt><trkpt lat="40.788083" lon=".580255"><ele>171.096</ele><time>2026-04-17T09:08:28Z</time></trkpt><trkpt lat="40.788073" lon=".58016"><ele>170.630</ele><time>2026-04-17T09:08:29Z</time></trkpt><trkpt lat="40.788046" lon=".580075"><ele>170.654</ele><time>2026-04-17T09:08:30Z</time></trkpt><trkpt lat="40.788017" lon=".580003"><ele>170.477</ele><time>2026-04-17T09:08:31Z</time></trkpt><trkpt lat="40.787994" lon=".579931"><ele>170.478</ele><time>2026-04-17T09:08:32Z</time></trkpt><trkpt lat="40.787987" lon=".579861"><ele>170.464</ele><time>2026-04-17T09:08:33Z</time></trkpt><trkpt lat="40.787994" lon=".579797"><ele>170.475</ele><time>2026-04-17T09:08:34Z</time></trkpt><trkpt lat="40.788013" lon=".579744"><ele>170.693</ele><time>2026-04-17T09:08:35Z</time></trkpt><trkpt lat="40.788039" lon=".579693"><ele>170.841</ele><time>2026-04-17T09:08:36Z</time></trkpt><trkpt lat="40.78807" lon=".579643"><ele>171.038</ele><time>2026-04-17T09:08:37Z</time></trkpt><trkpt lat="40.788104" lon=".579594"><ele>171.870</ele><time>2026-04-17T09:08:38Z</time></trkpt><trkpt lat="40.78814" lon=".579543"><ele>172.217</ele><time>2026-04-17T09:08:39Z</time></trkpt><trkpt lat="40.788179" lon=".579485"><ele>172.409</ele><time>2026-04-17T09:08:40Z</time></trkpt><trkpt lat="40.788218" lon=".579419"><ele>172.615</ele><time>2026-04-17T09:08:41Z</time></trkpt><trkpt lat="40.788265" lon=".579279"><ele>173.049</ele><time>2026-04-17T09:08:43Z</time></trkpt><trkpt lat="40.788261" lon=".579207"><ele>173.053</ele><time>2026-04-17T09:08:44Z</time></trkpt><trkpt lat="40.788242" lon=".57914"><ele>173.026</ele><time>2026-04-17T09:08:45Z</time></trkpt><trkpt lat="40.788212" lon=".579074"><ele>173.297</ele><time>2026-04-17T09:08:46Z</time></trkpt><trkpt lat="40.788152" lon=".578956"><ele>173.643</ele><time>2026-04-17T09:08:48Z</time></trkpt><trkpt lat="40.788109" lon=".57888"><ele>174.024</ele><time>2026-04-17T09:08:49Z</time></trkpt><trkpt lat="40.788067" lon=".578819"><ele>174.252</ele><time>2026-04-17T09:08:50Z</time></trkpt><trkpt lat="40.787971" lon=".578692"><ele>174.670</ele><time>2026-04-17T09:08:52Z</time></trkpt><trkpt lat="40.787921" lon=".578624"><ele>174.639</ele><time>2026-04-17T09:08:53Z</time></trkpt><trkpt lat="40.78782" lon=".578468"><ele>174.601</ele><time>2026-04-17T09:08:55Z</time></trkpt><trkpt lat="40.787732" lon=".578281"><ele>174.021</ele><time>2026-04-17T09:08:57Z</time></trkpt><trkpt lat="40.7877" lon=".578196"><ele>173.809</ele><time>2026-04-17T09:08:58Z</time></trkpt><trkpt lat="40.787684" lon=".578114"><ele>173.235</ele><time>2026-04-17T09:08:59Z</time></trkpt><trkpt lat="40.787682" lon=".578038"><ele>172.899</ele><time>2026-04-17T09:09:00Z</time></trkpt><trkpt lat="40.787698" lon=".577974"><ele>172.053</ele><time>2026-04-17T09:09:01Z</time></trkpt><trkpt lat="40.787728" lon=".577918"><ele>171.496</ele><time>2026-04-17T09:09:02Z</time></trkpt><trkpt lat="40.78776" lon=".577854"><ele>170.457</ele><time>2026-04-17T09:09:03Z</time></trkpt><trkpt lat="40.787785" lon=".577777"><ele>169.863</ele><time>2026-04-17T09:09:04Z</time></trkpt><trkpt lat="40.787793" lon=".577697"><ele>169.444</ele><time>2026-04-17T09:09:05Z</time></trkpt><trkpt lat="40.787778" lon=".577622"><ele>169.072</ele><time>2026-04-17T09:09:06Z</time></trkpt><trkpt lat="40.787741" lon=".57757"><ele>168.850</ele><time>2026-04-17T09:09:07Z</time></trkpt><trkpt lat="40.787689" lon=".577541"><ele>168.696</ele><time>2026-04-17T09:09:08Z</time></trkpt><trkpt lat="40.787631" lon=".577531"><ele>168.631</ele><time>2026-04-17T09:09:09Z</time></trkpt><trkpt lat="40.787512" lon=".577532"><ele>168.424</ele><time>2026-04-17T09:09:11Z</time></trkpt><trkpt lat="40.787457" lon=".577542"><ele>168.409</ele><time>2026-04-17T09:09:12Z</time></trkpt><trkpt lat="40.787405" lon=".577552"><ele>168.481</ele><time>2026-04-17T09:09:13Z</time></trkpt><trkpt lat="40.787357" lon=".577556"><ele>168.215</ele><time>2026-04-17T09:09:14Z</time></trkpt><trkpt lat="40.787314" lon=".577556"><ele>168.259</ele><time>2026-04-17T09:09:15Z</time></trkpt><trkpt lat="40.787272" lon=".577555"><ele>168.272</ele><time>2026-04-17T09:09:16Z</time></trkpt><trkpt lat="40.787231" lon=".57755"><ele>168.223</ele><time>2026-04-17T09:09:17Z</time></trkpt><trkpt lat="40.787192" lon=".577543"><ele>168.489</ele><time>2026-04-17T09:09:18Z</time></trkpt><trkpt lat="40.787152" lon=".577528"><ele>168.820</ele><time>2026-04-17T09:09:19Z</time></trkpt><trkpt lat="40.787069" lon=".57749"><ele>171.078</ele><time>2026-04-17T09:09:21Z</time></trkpt><trkpt lat="40.787023" lon=".577464"><ele>171.676</ele><time>2026-04-17T09:09:22Z</time></trkpt><trkpt lat="40.786939" lon=".577395"><ele>172.411</ele><time>2026-04-17T09:09:24Z</time></trkpt><trkpt lat="40.786894" lon=".577366"><ele>172.621</ele><time>2026-04-17T09:09:25Z</time></trkpt><trkpt lat="40.786843" lon=".577354"><ele>173.003</ele><time>2026-04-17T09:09:26Z</time></trkpt><trkpt lat="40.786793" lon=".577363"><ele>173.209</ele><time>2026-04-17T09:09:27Z</time></trkpt><trkpt lat="40.786746" lon=".577386"><ele>173.473</ele><time>2026-04-17T09:09:28Z</time></trkpt><trkpt lat="40.7867" lon=".577421"><ele>173.437</ele><time>2026-04-17T09:09:29Z</time></trkpt><trkpt lat="40.786622" lon=".57753"><ele>173.661</ele><time>2026-04-17T09:09:31Z</time></trkpt><trkpt lat="40.786593" lon=".577598"><ele>173.664</ele><time>2026-04-17T09:09:32Z</time></trkpt><trkpt lat="40.786563" lon=".577666"><ele>173.655</ele><time>2026-04-17T09:09:33Z</time></trkpt><trkpt lat="40.786532" lon=".577733"><ele>173.621</ele><time>2026-04-17T09:09:34Z</time></trkpt><trkpt lat="40.786501" lon=".577801"><ele>173.442</ele><time>2026-04-17T09:09:35Z</time></trkpt><trkpt lat="40.786468" lon=".577865"><ele>173.420</ele><time>2026-04-17T09:09:36Z</time></trkpt><trkpt lat="40.786433" lon=".577927"><ele>173.498</ele><time>2026-04-17T09:09:37Z</time></trkpt><trkpt lat="40.786394" lon=".577988"><ele>173.472</ele><time>2026-04-17T09:09:38Z</time></trkpt><trkpt lat="40.786349" lon=".578039"><ele>173.413</ele><time>2026-04-17T09:09:39Z</time></trkpt><trkpt lat="40.786288" lon=".578076"><ele>173.414</ele><time>2026-04-17T09:09:40Z</time></trkpt><trkpt lat="40.786218" lon=".578107"><ele>173.209</ele><time>2026-04-17T09:09:41Z</time></trkpt><trkpt lat="40.786142" lon=".578144"><ele>173.069</ele><time>2026-04-17T09:09:42Z</time></trkpt><trkpt lat="40.786067" lon=".578186"><ele>173.023</ele><time>2026-04-17T09:09:43Z</time></trkpt><trkpt lat="40.786001" lon=".57824"><ele>172.427</ele><time>2026-04-17T09:09:44Z</time></trkpt><trkpt lat="40.785943" lon=".578308"><ele>172.230</ele><time>2026-04-17T09:09:45Z</time></trkpt><trkpt lat="40.785895" lon=".578384"><ele>171.641</ele><time>2026-04-17T09:09:46Z</time></trkpt><trkpt lat="40.785854" lon=".578462"><ele>171.087</ele><time>2026-04-17T09:09:47Z</time></trkpt><trkpt lat="40.785816" lon=".578545"><ele>170.438</ele><time>2026-04-17T09:09:48Z</time></trkpt><trkpt lat="40.785778" lon=".578624"><ele>169.866</ele><time>2026-04-17T09:09:49Z</time></trkpt><trkpt lat="40.785738" lon=".578696"><ele>169.694</ele><time>2026-04-17T09:09:50Z</time></trkpt><trkpt lat="40.785694" lon=".578767"><ele>169.233</ele><time>2026-04-17T09:09:51Z</time></trkpt><trkpt lat="40.785598" lon=".578913"><ele>168.823</ele><time>2026-04-17T09:09:53Z</time></trkpt><trkpt lat="40.785557" lon=".579001"><ele>168.615</ele><time>2026-04-17T09:09:54Z</time></trkpt><trkpt lat="40.78551" lon=".579091"><ele>168.409</ele><time>2026-04-17T09:09:55Z</time></trkpt><trkpt lat="40.785383" lon=".579284"><ele>167.025</ele><time>2026-04-17T09:09:58Z</time></trkpt><trkpt lat="40.785364" lon=".579334"><ele>166.629</ele><time>2026-04-17T09:09:59Z</time></trkpt><trkpt lat="40.785361" lon=".579379"><ele>165.253</ele><time>2026-04-17T09:10:00Z</time></trkpt><trkpt lat="40.78538" lon=".579421"><ele>164.026</ele><time>2026-04-17T09:10:01Z</time></trkpt><trkpt lat="40.785411" lon=".57946"><ele>162.847</ele><time>2026-04-17T09:10:02Z</time></trkpt><trkpt lat="40.785442" lon=".57951"><ele>162.223</ele><time>2026-04-17T09:10:03Z</time></trkpt><trkpt lat="40.785473" lon=".579623"><ele>161.684</ele><time>2026-04-17T09:10:05Z</time></trkpt><trkpt lat="40.785464" lon=".579668"><ele>161.462</ele><time>2026-04-17T09:10:06Z</time></trkpt><trkpt lat="40.785439" lon=".579695"><ele>161.290</ele><time>2026-04-17T09:10:07Z</time></trkpt><trkpt lat="40.785406" lon=".579703"><ele>161.018</ele><time>2026-04-17T09:10:08Z</time></trkpt><trkpt lat="40.785265" lon=".579709"><ele>160.698</ele><time>2026-04-17T09:10:11Z</time></trkpt><trkpt lat="40.785159" lon=".579694"><ele>159.617</ele><time>2026-04-17T09:10:13Z</time></trkpt><trkpt lat="40.785119" lon=".579652"><ele>159.009</ele><time>2026-04-17T09:10:14Z</time></trkpt><trkpt lat="40.785095" lon=".579597"><ele>158.853</ele><time>2026-04-17T09:10:15Z</time></trkpt><trkpt lat="40.785079" lon=".579536"><ele>158.277</ele><time>2026-04-17T09:10:16Z</time></trkpt><trkpt lat="40.785062" lon=".579473"><ele>158.021</ele><time>2026-04-17T09:10:17Z</time></trkpt><trkpt lat="40.785032" lon=".579421"><ele>157.864</ele><time>2026-04-17T09:10:18Z</time></trkpt><trkpt lat="40.784985" lon=".579389"><ele>157.655</ele><time>2026-04-17T09:10:19Z</time></trkpt><trkpt lat="40.784927" lon=".579374"><ele>157.611</ele><time>2026-04-17T09:10:20Z</time></trkpt><trkpt lat="40.784865" lon=".579368"><ele>157.422</ele><time>2026-04-17T09:10:21Z</time></trkpt><trkpt lat="40.7848" lon=".579359"><ele>157.230</ele><time>2026-04-17T09:10:22Z</time></trkpt><trkpt lat="40.784734" lon=".579347"><ele>157.018</ele><time>2026-04-17T09:10:23Z</time></trkpt><trkpt lat="40.784664" lon=".579337"><ele>157.026</ele><time>2026-04-17T09:10:24Z</time></trkpt><trkpt lat="40.784528" lon=".579303"><ele>156.647</ele><time>2026-04-17T09:10:26Z</time></trkpt><trkpt lat="40.7844" lon=".579243"><ele>155.611</ele><time>2026-04-17T09:10:28Z</time></trkpt><trkpt lat="40.784331" lon=".579213"><ele>155.409</ele><time>2026-04-17T09:10:29Z</time></trkpt><trkpt lat="40.784185" lon=".579181"><ele>155.254</ele><time>2026-04-17T09:10:31Z</time></trkpt><trkpt lat="40.784115" lon=".579186"><ele>155.068</ele><time>2026-04-17T09:10:32Z</time></trkpt><trkpt lat="40.784056" lon=".579214"><ele>155.072</ele><time>2026-04-17T09:10:33Z</time></trkpt><trkpt lat="40.784011" lon=".579261"><ele>154.835</ele><time>2026-04-17T09:10:34Z</time></trkpt><trkpt lat="40.783972" lon=".579319"><ele>154.836</ele><time>2026-04-17T09:10:35Z</time></trkpt><trkpt lat="40.783934" lon=".579377"><ele>155.042</ele><time>2026-04-17T09:10:36Z</time></trkpt><trkpt lat="40.783894" lon=".579433"><ele>155.013</ele><time>2026-04-17T09:10:37Z</time></trkpt><trkpt lat="40.783855" lon=".579488"><ele>155.011</ele><time>2026-04-17T09:10:38Z</time></trkpt><trkpt lat="40.783785" lon=".579594"><ele>155.289</ele><time>2026-04-17T09:10:40Z</time></trkpt><trkpt lat="40.78375" lon=".579647"><ele>155.449</ele><time>2026-04-17T09:10:41Z</time></trkpt><trkpt lat="40.783714" lon=".579694"><ele>155.602</ele><time>2026-04-17T09:10:42Z</time></trkpt><trkpt lat="40.783677" lon=".579737"><ele>155.822</ele><time>2026-04-17T09:10:43Z</time></trkpt><trkpt lat="40.783639" lon=".579778"><ele>156.009</ele><time>2026-04-17T09:10:44Z</time></trkpt><trkpt lat="40.783596" lon=".579819"><ele>156.476</ele><time>2026-04-17T09:10:45Z</time></trkpt><trkpt lat="40.78355" lon=".579862"><ele>156.860</ele><time>2026-04-17T09:10:46Z</time></trkpt><trkpt lat="40.783503" lon=".579911"><ele>156.874</ele><time>2026-04-17T09:10:47Z</time></trkpt><trkpt lat="40.78342" lon=".580027"><ele>157.277</ele><time>2026-04-17T09:10:49Z</time></trkpt><trkpt lat="40.783382" lon=".580087"><ele>157.278</ele><time>2026-04-17T09:10:50Z</time></trkpt><trkpt lat="40.783346" lon=".580148"><ele>157.274</ele><time>2026-04-17T09:10:51Z</time></trkpt><trkpt lat="40.783307" lon=".580207"><ele>157.255</ele><time>2026-04-17T09:10:52Z</time></trkpt><trkpt lat="40.783184" lon=".580387"><ele>157.233</ele><time>2026-04-17T09:10:55Z</time></trkpt><trkpt lat="40.78315" lon=".580458"><ele>157.251</ele><time>2026-04-17T09:10:56Z</time></trkpt><trkpt lat="40.783084" lon=".580595"><ele>157.436</ele><time>2026-04-17T09:10:58Z</time></trkpt><trkpt lat="40.782999" lon=".580707"><ele>157.417</ele><time>2026-04-17T09:11:00Z</time></trkpt><trkpt lat="40.782945" lon=".580748"><ele>157.418</ele><time>2026-04-17T09:11:01Z</time></trkpt><trkpt lat="40.782884" lon=".580782"><ele>157.209</ele><time>2026-04-17T09:11:02Z</time></trkpt><trkpt lat="40.782817" lon=".580811"><ele>157.235</ele><time>2026-04-17T09:11:03Z</time></trkpt><trkpt lat="40.782746" lon=".580829"><ele>157.059</ele><time>2026-04-17T09:11:04Z</time></trkpt><trkpt lat="40.782677" lon=".580849"><ele>156.833</ele><time>2026-04-17T09:11:05Z</time></trkpt><trkpt lat="40.782577" lon=".580932"><ele>156.846</ele><time>2026-04-17T09:11:07Z</time></trkpt><trkpt lat="40.782543" lon=".580991"><ele>156.037</ele><time>2026-04-17T09:11:08Z</time></trkpt><trkpt lat="40.782508" lon=".581049"><ele>155.683</ele><time>2026-04-17T09:11:09Z</time></trkpt><trkpt lat="40.782466" lon=".581103"><ele>155.214</ele><time>2026-04-17T09:11:10Z</time></trkpt><trkpt lat="40.782417" lon=".581155"><ele>155.062</ele><time>2026-04-17T09:11:11Z</time></trkpt><trkpt lat="40.782364" lon=".581207"><ele>155.060</ele><time>2026-04-17T09:11:12Z</time></trkpt><trkpt lat="40.782188" lon=".581368"><ele>154.445</ele><time>2026-04-17T09:11:15Z</time></trkpt><trkpt lat="40.782057" lon=".581458"><ele>154.047</ele><time>2026-04-17T09:11:17Z</time></trkpt><trkpt lat="40.781986" lon=".581492"><ele>153.611</ele><time>2026-04-17T09:11:18Z</time></trkpt><trkpt lat="40.781912" lon=".581515"><ele>153.209</ele><time>2026-04-17T09:11:19Z</time></trkpt><trkpt lat="40.781837" lon=".581525"><ele>153.026</ele><time>2026-04-17T09:11:20Z</time></trkpt><trkpt lat="40.781765" lon=".581528"><ele>152.690</ele><time>2026-04-17T09:11:21Z</time></trkpt><trkpt lat="40.781696" lon=".581544"><ele>152.254</ele><time>2026-04-17T09:11:22Z</time></trkpt><trkpt lat="40.781549" lon=".5816"><ele>151.627</ele><time>2026-04-17T09:11:24Z</time></trkpt><trkpt lat="40.781387" lon=".581619"><ele>151.058</ele><time>2026-04-17T09:11:26Z</time></trkpt><trkpt lat="40.781119" lon=".581577"><ele>149.454</ele><time>2026-04-17T09:11:29Z</time></trkpt><trkpt lat="40.781019" lon=".581549"><ele>149.065</ele><time>2026-04-17T09:11:30Z</time></trkpt><trkpt lat="40.780916" lon=".58152"><ele>147.243</ele><time>2026-04-17T09:11:31Z</time></trkpt><trkpt lat="40.780707" lon=".581477"><ele>145.451</ele><time>2026-04-17T09:11:33Z</time></trkpt><trkpt lat="40.780605" lon=".581481"><ele>144.841</ele><time>2026-04-17T09:11:34Z</time></trkpt><trkpt lat="40.780507" lon=".581496"><ele>143.281</ele><time>2026-04-17T09:11:35Z</time></trkpt><trkpt lat="40.780407" lon=".581514"><ele>142.409</ele><time>2026-04-17T09:11:36Z</time></trkpt><trkpt lat="40.780305" lon=".581527"><ele>142.009</ele><time>2026-04-17T09:11:37Z</time></trkpt><trkpt lat="40.780205" lon=".581538"><ele>141.286</ele><time>2026-04-17T09:11:38Z</time></trkpt><trkpt lat="40.780108" lon=".581555"><ele>141.060</ele><time>2026-04-17T09:11:39Z</time></trkpt><trkpt lat="40.779912" lon=".581599"><ele>139.844</ele><time>2026-04-17T09:11:41Z</time></trkpt><trkpt lat="40.779629" lon=".581693"><ele>138.067</ele><time>2026-04-17T09:11:44Z</time></trkpt><trkpt lat="40.779549" lon=".581744"><ele>137.248</ele><time>2026-04-17T09:11:45Z</time></trkpt><trkpt lat="40.779476" lon=".5818"><ele>137.234</ele><time>2026-04-17T09:11:46Z</time></trkpt><trkpt lat="40.77941" lon=".58185"><ele>137.085</ele><time>2026-04-17T09:11:47Z</time></trkpt><trkpt lat="40.779345" lon=".581897"><ele>136.833</ele><time>2026-04-17T09:11:48Z</time></trkpt><trkpt lat="40.779281" lon=".581944"><ele>136.811</ele><time>2026-04-17T09:11:49Z</time></trkpt><trkpt lat="40.779221" lon=".581992"><ele>136.843</ele><time>2026-04-17T09:11:50Z</time></trkpt><trkpt lat="40.779159" lon=".582042"><ele>136.864</ele><time>2026-04-17T09:11:51Z</time></trkpt><trkpt lat="40.779093" lon=".58209"><ele>137.410</ele><time>2026-04-17T09:11:52Z</time></trkpt><trkpt lat="40.779021" lon=".582126"><ele>137.809</ele><time>2026-04-17T09:11:53Z</time></trkpt><trkpt lat="40.778951" lon=".582153"><ele>138.046</ele><time>2026-04-17T09:11:54Z</time></trkpt><trkpt lat="40.778821" lon=".582208"><ele>138.690</ele><time>2026-04-17T09:11:56Z</time></trkpt><trkpt lat="40.778758" lon=".582247"><ele>138.654</ele><time>2026-04-17T09:11:57Z</time></trkpt><trkpt lat="40.778692" lon=".582291"><ele>138.887</ele><time>2026-04-17T09:11:58Z</time></trkpt><trkpt lat="40.778555" lon=".58238"><ele>138.838</ele><time>2026-04-17T09:12:00Z</time></trkpt><trkpt lat="40.778402" lon=".582462"><ele>138.444</ele><time>2026-04-17T09:12:02Z</time></trkpt><trkpt lat="40.778328" lon=".582517"><ele>138.415</ele><time>2026-04-17T09:12:03Z</time></trkpt><trkpt lat="40.778114" lon=".582719"><ele>137.633</ele><time>2026-04-17T09:12:06Z</time></trkpt><trkpt lat="40.778032" lon=".582766"><ele>136.821</ele><time>2026-04-17T09:12:07Z</time></trkpt><trkpt lat="40.777948" lon=".582799"><ele>136.422</ele><time>2026-04-17T09:12:08Z</time></trkpt><trkpt lat="40.77786" lon=".582819"><ele>134.862</ele><time>2026-04-17T09:12:09Z</time></trkpt><trkpt lat="40.777681" lon=".582849"><ele>133.808</ele><time>2026-04-17T09:12:11Z</time></trkpt><trkpt lat="40.777501" lon=".582895"><ele>133.209</ele><time>2026-04-17T09:12:13Z</time></trkpt><trkpt lat="40.777415" lon=".582922"><ele>132.614</ele><time>2026-04-17T09:12:14Z</time></trkpt><trkpt lat="40.777249" lon=".582979"><ele>132.048</ele><time>2026-04-17T09:12:16Z</time></trkpt><trkpt lat="40.77717" lon=".583016"><ele>131.672</ele><time>2026-04-17T09:12:17Z</time></trkpt><trkpt lat="40.777028" lon=".583098"><ele>131.075</ele><time>2026-04-17T09:12:19Z</time></trkpt><trkpt lat="40.776966" lon=".583134"><ele>131.066</ele><time>2026-04-17T09:12:20Z</time></trkpt><trkpt lat="40.776906" lon=".583167"><ele>131.092</ele><time>2026-04-17T09:12:21Z</time></trkpt><trkpt lat="40.776845" lon=".583196"><ele>131.023</ele><time>2026-04-17T09:12:22Z</time></trkpt><trkpt lat="40.776781" lon=".58322"><ele>131.491</ele><time>2026-04-17T09:12:23Z</time></trkpt><trkpt lat="40.776717" lon=".583241"><ele>131.849</ele><time>2026-04-17T09:12:24Z</time></trkpt><trkpt lat="40.776512" lon=".583297"><ele>132.864</ele><time>2026-04-17T09:12:27Z</time></trkpt><trkpt lat="40.77645" lon=".583313"><ele>133.006</ele><time>2026-04-17T09:12:28Z</time></trkpt><trkpt lat="40.776389" lon=".583329"><ele>133.016</ele><time>2026-04-17T09:12:29Z</time></trkpt><trkpt lat="40.77633" lon=".583349"><ele>133.009</ele><time>2026-04-17T09:12:30Z</time></trkpt><trkpt lat="40.776273" lon=".583366"><ele>133.218</ele><time>2026-04-17T09:12:31Z</time></trkpt><trkpt lat="40.776218" lon=".583378"><ele>133.452</ele><time>2026-04-17T09:12:32Z</time></trkpt><trkpt lat="40.776162" lon=".583391"><ele>133.686</ele><time>2026-04-17T09:12:33Z</time></trkpt><trkpt lat="40.776108" lon=".583408"><ele>133.659</ele><time>2026-04-17T09:12:34Z</time></trkpt><trkpt lat="40.776055" lon=".583427"><ele>133.650</ele><time>2026-04-17T09:12:35Z</time></trkpt><trkpt lat="40.776007" lon=".583456"><ele>133.816</ele><time>2026-04-17T09:12:36Z</time></trkpt><trkpt lat="40.77597" lon=".583494"><ele>134.077</ele><time>2026-04-17T09:12:37Z</time></trkpt><trkpt lat="40.775955" lon=".583526"><ele>134.085</ele><time>2026-04-17T09:12:38Z</time></trkpt><trkpt lat="40.775961" lon=".583554"><ele>134.213</ele><time>2026-04-17T09:12:39Z</time></trkpt><trkpt lat="40.775976" lon=".583579"><ele>134.499</ele><time>2026-04-17T09:12:40Z</time></trkpt><trkpt lat="40.775984" lon=".58361"><ele>134.607</ele><time>2026-04-17T09:12:41Z</time></trkpt><trkpt lat="40.775988" lon=".583649"><ele>134.627</ele><time>2026-04-17T09:12:42Z</time></trkpt><trkpt lat="40.775998" lon=".583692"><ele>134.609</ele><time>2026-04-17T09:12:43Z</time></trkpt><trkpt lat="40.775993" lon=".583914"><ele>134.861</ele><time>2026-04-17T09:12:47Z</time></trkpt><trkpt lat="40.775986" lon=".583983"><ele>134.895</ele><time>2026-04-17T09:12:48Z</time></trkpt><trkpt lat="40.775971" lon=".584263"><ele>134.269</ele><time>2026-04-17T09:12:52Z</time></trkpt><trkpt lat="40.77597" lon=".584336"><ele>134.042</ele><time>2026-04-17T09:12:53Z</time></trkpt><trkpt lat="40.776041" lon=".584594"><ele>133.653</ele><time>2026-04-17T09:12:57Z</time></trkpt><trkpt lat="40.776051" lon=".584648"><ele>133.419</ele><time>2026-04-17T09:12:58Z</time></trkpt><trkpt lat="40.776042" lon=".584696"><ele>133.260</ele><time>2026-04-17T09:12:59Z</time></trkpt><trkpt lat="40.776018" lon=".584742"><ele>133.278</ele><time>2026-04-17T09:13:00Z</time></trkpt><trkpt lat="40.775984" lon=".584783"><ele>133.076</ele><time>2026-04-17T09:13:01Z</time></trkpt><trkpt lat="40.775943" lon=".584821"><ele>132.683</ele><time>2026-04-17T09:13:02Z</time></trkpt><trkpt lat="40.775897" lon=".584861"><ele>132.425</ele><time>2026-04-17T09:13:03Z</time></trkpt><trkpt lat="40.775852" lon=".584901"><ele>132.217</ele><time>2026-04-17T09:13:04Z</time></trkpt><trkpt lat="40.775811" lon=".584938"><ele>132.009</ele><time>2026-04-17T09:13:05Z</time></trkpt><trkpt lat="40.775773" lon=".584969"><ele>131.610</ele><time>2026-04-17T09:13:06Z</time></trkpt><trkpt lat="40.775749" lon=".585001"><ele>131.454</ele><time>2026-04-17T09:13:07Z</time></trkpt><trkpt lat="40.775743" lon=".585035"><ele>129.818</ele><time>2026-04-17T09:13:08Z</time></trkpt><trkpt lat="40.77576" lon=".58506"><ele>129.031</ele><time>2026-04-17T09:13:09Z</time></trkpt><trkpt lat="40.775788" lon=".585071"><ele>128.662</ele><time>2026-04-17T09:13:10Z</time></trkpt><trkpt lat="40.775818" lon=".585074"><ele>128.228</ele><time>2026-04-17T09:13:11Z</time></trkpt><trkpt lat="40.775851" lon=".585071"><ele>128.089</ele><time>2026-04-17T09:13:12Z</time></trkpt><trkpt lat="40.775884" lon=".585064"><ele>127.697</ele><time>2026-04-17T09:13:13Z</time></trkpt><trkpt lat="40.775919" lon=".58505"><ele>127.625</ele><time>2026-04-17T09:13:14Z</time></trkpt><trkpt lat="40.775955" lon=".585032"><ele>127.422</ele><time>2026-04-17T09:13:15Z</time></trkpt><trkpt lat="40.776131" lon=".584934"><ele>127.062</ele><time>2026-04-17T09:13:19Z</time></trkpt><trkpt lat="40.776169" lon=".58491"><ele>126.808</ele><time>2026-04-17T09:13:20Z</time></trkpt><trkpt lat="40.776215" lon=".58494"><ele>126.609</ele><time>2026-04-17T09:13:22Z</time></trkpt><trkpt lat="40.77622" lon=".584989"><ele>126.484</ele><time>2026-04-17T09:13:23Z</time></trkpt><trkpt lat="40.776217" lon=".585129"><ele>126.258</ele><time>2026-04-17T09:13:25Z</time></trkpt><trkpt lat="40.776213" lon=".585296"><ele>126.042</ele><time>2026-04-17T09:13:27Z</time></trkpt><trkpt lat="40.776244" lon=".585474"><ele>126.015</ele><time>2026-04-17T09:13:29Z</time></trkpt><trkpt lat="40.776292" lon=".585646"><ele>125.836</ele><time>2026-04-17T09:13:31Z</time></trkpt><trkpt lat="40.776349" lon=".585899"><ele>125.492</ele><time>2026-04-17T09:13:34Z</time></trkpt><trkpt lat="40.776438" lon=".586207"><ele>124.883</ele><time>2026-04-17T09:13:38Z</time></trkpt><trkpt lat="40.776462" lon=".586257"><ele>124.811</ele><time>2026-04-17T09:13:39Z</time></trkpt><trkpt lat="40.776485" lon=".586287"><ele>124.889</ele><time>2026-04-17T09:13:40Z</time></trkpt><trkpt lat="40.776512" lon=".586293"><ele>124.882</ele><time>2026-04-17T09:13:41Z</time></trkpt><trkpt lat="40.776538" lon=".586283"><ele>124.643</ele><time>2026-04-17T09:13:42Z</time></trkpt><trkpt lat="40.776561" lon=".586256"><ele>124.617</ele><time>2026-04-17T09:13:43Z</time></trkpt><trkpt lat="40.776585" lon=".586223"><ele>124.409</ele><time>2026-04-17T09:13:44Z</time></trkpt><trkpt lat="40.776616" lon=".58619"><ele>124.260</ele><time>2026-04-17T09:13:45Z</time></trkpt><trkpt lat="40.77665" lon=".586154"><ele>124.274</ele><time>2026-04-17T09:13:46Z</time></trkpt><trkpt lat="40.776676" lon=".58611"><ele>123.888</ele><time>2026-04-17T09:13:47Z</time></trkpt><trkpt lat="40.776697" lon=".586065"><ele>123.871</ele><time>2026-04-17T09:13:48Z</time></trkpt><trkpt lat="40.776717" lon=".586024"><ele>123.682</ele><time>2026-04-17T09:13:49Z</time></trkpt><trkpt lat="40.776739" lon=".585987"><ele>123.658</ele><time>2026-04-17T09:13:50Z</time></trkpt><trkpt lat="40.776765" lon=".585955"><ele>123.639</ele><time>2026-04-17T09:13:51Z</time></trkpt><trkpt lat="40.776793" lon=".585923"><ele>123.487</ele><time>2026-04-17T09:13:52Z</time></trkpt><trkpt lat="40.77682" lon=".585894"><ele>123.425</ele><time>2026-04-17T09:13:53Z</time></trkpt><trkpt lat="40.776848" lon=".585877"><ele>123.417</ele><time>2026-04-17T09:13:54Z</time></trkpt><trkpt lat="40.776873" lon=".585878"><ele>123.487</ele><time>2026-04-17T09:13:55Z</time></trkpt><trkpt lat="40.776887" lon=".585896"><ele>123.415</ele><time>2026-04-17T09:13:56Z</time></trkpt><trkpt lat="40.77689" lon=".58592"><ele>123.409</ele><time>2026-04-17T09:13:57Z</time></trkpt><trkpt lat="40.776885" lon=".585962"><ele>123.453</ele><time>2026-04-17T09:13:58Z</time></trkpt><trkpt lat="40.776873" lon=".586014"><ele>123.427</ele><time>2026-04-17T09:13:59Z</time></trkpt><trkpt lat="40.776854" lon=".586065"><ele>123.491</ele><time>2026-04-17T09:14:00Z</time></trkpt><trkpt lat="40.776797" lon=".586172"><ele>123.244</ele><time>2026-04-17T09:14:02Z</time></trkpt><trkpt lat="40.776763" lon=".586223"><ele>123.035</ele><time>2026-04-17T09:14:03Z</time></trkpt><trkpt lat="40.776699" lon=".58632"><ele>121.611</ele><time>2026-04-17T09:14:05Z</time></trkpt><trkpt lat="40.776666" lon=".586368"><ele>121.292</ele><time>2026-04-17T09:14:06Z</time></trkpt><trkpt lat="40.776632" lon=".586417"><ele>120.850</ele><time>2026-04-17T09:14:07Z</time></trkpt><trkpt lat="40.776593" lon=".586467"><ele>120.438</ele><time>2026-04-17T09:14:08Z</time></trkpt><trkpt lat="40.776452" lon=".586665"><ele>120.023</ele><time>2026-04-17T09:14:12Z</time></trkpt><trkpt lat="40.776371" lon=".58681"><ele>120.283</ele><time>2026-04-17T09:14:15Z</time></trkpt><trkpt lat="40.776359" lon=".586844"><ele>120.411</ele><time>2026-04-17T09:14:16Z</time></trkpt><trkpt lat="40.776342" lon=".58687"><ele>120.409</ele><time>2026-04-17T09:14:17Z</time></trkpt><trkpt lat="40.77632" lon=".586893"><ele>120.494</ele><time>2026-04-17T09:14:18Z</time></trkpt><trkpt lat="40.776296" lon=".586918"><ele>120.288</ele><time>2026-04-17T09:14:19Z</time></trkpt><trkpt lat="40.776234" lon=".586953"><ele>120.022</ele><time>2026-04-17T09:14:21Z</time></trkpt><trkpt lat="40.776194" lon=".586955"><ele>119.835</ele><time>2026-04-17T09:14:22Z</time></trkpt><trkpt lat="40.77616" lon=".586955"><ele>119.456</ele><time>2026-04-17T09:14:23Z</time></trkpt><trkpt lat="40.776141" lon=".58697"><ele>119.292</ele><time>2026-04-17T09:14:24Z</time></trkpt><trkpt lat="40.776139" lon=".587001"><ele>118.873</ele><time>2026-04-17T09:14:25Z</time></trkpt><trkpt lat="40.776148" lon=".587035"><ele>118.631</ele><time>2026-04-17T09:14:26Z</time></trkpt><trkpt lat="40.776169" lon=".587054"><ele>118.429</ele><time>2026-04-17T09:14:27Z</time></trkpt><trkpt lat="40.77619" lon=".587075"><ele>118.086</ele><time>2026-04-17T09:14:28Z</time></trkpt><trkpt lat="40.77621" lon=".587144"><ele>117.060</ele><time>2026-04-17T09:14:30Z</time></trkpt><trkpt lat="40.776202" lon=".587175"><ele>116.826</ele><time>2026-04-17T09:14:31Z</time></trkpt><trkpt lat="40.776197" lon=".587201"><ele>116.609</ele><time>2026-04-17T09:14:32Z</time></trkpt><trkpt lat="40.7762" lon=".587226"><ele>116.270</ele><time>2026-04-17T09:14:33Z</time></trkpt><trkpt lat="40.776209" lon=".587253"><ele>115.854</ele><time>2026-04-17T09:14:34Z</time></trkpt><trkpt lat="40.776226" lon=".587286"><ele>114.858</ele><time>2026-04-17T09:14:35Z</time></trkpt><trkpt lat="40.776254" lon=".587362"><ele>112.881</ele><time>2026-04-17T09:14:37Z</time></trkpt><trkpt lat="40.776249" lon=".587387"><ele>112.292</ele><time>2026-04-17T09:14:38Z</time></trkpt><trkpt lat="40.776236" lon=".587395"><ele>111.228</ele><time>2026-04-17T09:14:39Z</time></trkpt><trkpt lat="40.77622" lon=".587385"><ele>110.639</ele><time>2026-04-17T09:14:40Z</time></trkpt><trkpt lat="40.776196" lon=".587375"><ele>109.817</ele><time>2026-04-17T09:14:41Z</time></trkpt><trkpt lat="40.776171" lon=".587373"><ele>109.415</ele><time>2026-04-17T09:14:42Z</time></trkpt><trkpt lat="40.77615" lon=".587381"><ele>109.454</ele><time>2026-04-17T09:14:43Z</time></trkpt><trkpt lat="40.776132" lon=".587396"><ele>109.056</ele><time>2026-04-17T09:14:44Z</time></trkpt><trkpt lat="40.776114" lon=".587419"><ele>109.011</ele><time>2026-04-17T09:14:45Z</time></trkpt><trkpt lat="40.776101" lon=".587444"><ele>108.809</ele><time>2026-04-17T09:14:46Z</time></trkpt><trkpt lat="40.776101" lon=".587465"><ele>108.837</ele><time>2026-04-17T09:14:47Z</time></trkpt><trkpt lat="40.77611" lon=".587487"><ele>108.691</ele><time>2026-04-17T09:14:48Z</time></trkpt><trkpt lat="40.776114" lon=".587513"><ele>108.625</ele><time>2026-04-17T09:14:49Z</time></trkpt><trkpt lat="40.776113" lon=".58754"><ele>108.268</ele><time>2026-04-17T09:14:50Z</time></trkpt><trkpt lat="40.776115" lon=".587576"><ele>107.889</ele><time>2026-04-17T09:14:51Z</time></trkpt><trkpt lat="40.776115" lon=".587613"><ele>107.655</ele><time>2026-04-17T09:14:52Z</time></trkpt><trkpt lat="40.776114" lon=".587643"><ele>107.076</ele><time>2026-04-17T09:14:53Z</time></trkpt><trkpt lat="40.776122" lon=".587669"><ele>106.624</ele><time>2026-04-17T09:14:54Z</time></trkpt><trkpt lat="40.776132" lon=".587697"><ele>105.422</ele><time>2026-04-17T09:14:55Z</time></trkpt><trkpt lat="40.776136" lon=".587732"><ele>105.036</ele><time>2026-04-17T09:14:56Z</time></trkpt><trkpt lat="40.776135" lon=".58777"><ele>104.217</ele><time>2026-04-17T09:14:57Z</time></trkpt><trkpt lat="40.776126" lon=".587842"><ele>103.218</ele><time>2026-04-17T09:14:59Z</time></trkpt><trkpt lat="40.776124" lon=".587879"><ele>101.609</ele><time>2026-04-17T09:15:00Z</time></trkpt><trkpt lat="40.776124" lon=".587914"><ele>101.215</ele><time>2026-04-17T09:15:01Z</time></trkpt><trkpt lat="40.776135" lon=".587946"><ele>100.279</ele><time>2026-04-17T09:15:02Z</time></trkpt><trkpt lat="40.776138" lon=".58798"><ele>99.443</ele><time>2026-04-17T09:15:03Z</time></trkpt><trkpt lat="40.776137" lon=".588016"><ele>98.256</ele><time>2026-04-17T09:15:04Z</time></trkpt><trkpt lat="40.776139" lon=".588062"><ele>97.827</ele><time>2026-04-17T09:15:05Z</time></trkpt><trkpt lat="40.77614" lon=".588117"><ele>97.273</ele><time>2026-04-17T09:15:06Z</time></trkpt><trkpt lat="40.776133" lon=".588159"><ele>96.694</ele><time>2026-04-17T09:15:07Z</time></trkpt><trkpt lat="40.77612" lon=".588183"><ele>96.472</ele><time>2026-04-17T09:15:08Z</time></trkpt><trkpt lat="40.776103" lon=".588201"><ele>95.850</ele><time>2026-04-17T09:15:09Z</time></trkpt><trkpt lat="40.776091" lon=".58823"><ele>95.692</ele><time>2026-04-17T09:15:10Z</time></trkpt><trkpt lat="40.776082" lon=".588271"><ele>95.073</ele><time>2026-04-17T09:15:11Z</time></trkpt><trkpt lat="40.776066" lon=".588311"><ele>94.220</ele><time>2026-04-17T09:15:12Z</time></trkpt><trkpt lat="40.776044" lon=".58834"><ele>93.609</ele><time>2026-04-17T09:15:13Z</time></trkpt><trkpt lat="40.776024" lon=".588356"><ele>93.241</ele><time>2026-04-17T09:15:14Z</time></trkpt><trkpt lat="40.776004" lon=".588375"><ele>92.855</ele><time>2026-04-17T09:15:15Z</time></trkpt><trkpt lat="40.77598" lon=".588418"><ele>92.419</ele><time>2026-04-17T09:15:16Z</time></trkpt><trkpt lat="40.77596" lon=".588463"><ele>92.242</ele><time>2026-04-17T09:15:17Z</time></trkpt><trkpt lat="40.775952" lon=".588496"><ele>91.693</ele><time>2026-04-17T09:15:18Z</time></trkpt><trkpt lat="40.775947" lon=".588514"><ele>91.229</ele><time>2026-04-17T09:15:19Z</time></trkpt><trkpt lat="40.775929" lon=".588517"><ele>90.270</ele><time>2026-04-17T09:15:20Z</time></trkpt><trkpt lat="40.775894" lon=".588512"><ele>89.678</ele><time>2026-04-17T09:15:21Z</time></trkpt><trkpt lat="40.775847" lon=".588518"><ele>88.676</ele><time>2026-04-17T09:15:22Z</time></trkpt><trkpt lat="40.775772" lon=".588547"><ele>87.496</ele><time>2026-04-17T09:15:24Z</time></trkpt><trkpt lat="40.775742" lon=".588589"><ele>86.631</ele><time>2026-04-17T09:15:25Z</time></trkpt><trkpt lat="40.775704" lon=".588682"><ele>85.424</ele><time>2026-04-17T09:15:27Z</time></trkpt><trkpt lat="40.775685" lon=".588704"><ele>84.809</ele><time>2026-04-17T09:15:28Z</time></trkpt><trkpt lat="40.775653" lon=".588726"><ele>84.021</ele><time>2026-04-17T09:15:29Z</time></trkpt><trkpt lat="40.77562" lon=".588762"><ele>83.425</ele><time>2026-04-17T09:15:30Z</time></trkpt><trkpt lat="40.77559" lon=".588822"><ele>81.889</ele><time>2026-04-17T09:15:31Z</time></trkpt><trkpt lat="40.775569" lon=".588884"><ele>81.282</ele><time>2026-04-17T09:15:32Z</time></trkpt><trkpt lat="40.775578" lon=".588948"><ele>79.613</ele><time>2026-04-17T09:15:33Z</time></trkpt><trkpt lat="40.775601" lon=".58901"><ele>78.899</ele><time>2026-04-17T09:15:34Z</time></trkpt><trkpt lat="40.775619" lon=".589057"><ele>78.620</ele><time>2026-04-17T09:15:35Z</time></trkpt><trkpt lat="40.775632" lon=".589072"><ele>78.488</ele><time>2026-04-17T09:15:36Z</time></trkpt><trkpt lat="40.775647" lon=".58907"><ele>78.466</ele><time>2026-04-17T09:15:37Z</time></trkpt><trkpt lat="40.775662" lon=".589067"><ele>78.498</ele><time>2026-04-17T09:15:38Z</time></trkpt><trkpt lat="40.775675" lon=".589064"><ele>78.415</ele><time>2026-04-17T09:15:39Z</time></trkpt><trkpt lat="40.775688" lon=".58906"><ele>78.426</ele><time>2026-04-17T09:15:40Z</time></trkpt><trkpt lat="40.775698" lon=".589054"><ele>78.609</ele><time>2026-04-17T09:15:41Z</time></trkpt><trkpt lat="40.775708" lon=".589046"><ele>79.071</ele><time>2026-04-17T09:15:42Z</time></trkpt><trkpt lat="40.77573" lon=".589026"><ele>79.675</ele><time>2026-04-17T09:15:44Z</time></trkpt><trkpt lat="40.775778" lon=".588942"><ele>80.419</ele><time>2026-04-17T09:15:47Z</time></trkpt><trkpt lat="40.77586" lon=".588867"><ele>80.842</ele><time>2026-04-17T09:15:51Z</time></trkpt><trkpt lat="40.77589" lon=".588852"><ele>81.213</ele><time>2026-04-17T09:15:52Z</time></trkpt><trkpt lat="40.775919" lon=".588837"><ele>81.279</ele><time>2026-04-17T09:15:53Z</time></trkpt><trkpt lat="40.775978" lon=".5888"><ele>81.860</ele><time>2026-04-17T09:15:55Z</time></trkpt><trkpt lat="40.776079" lon=".58874"><ele>83.088</ele><time>2026-04-17T09:15:59Z</time></trkpt><trkpt lat="40.776101" lon=".588719"><ele>83.256</ele><time>2026-04-17T09:16:00Z</time></trkpt><trkpt lat="40.776122" lon=".588693"><ele>83.427</ele><time>2026-04-17T09:16:01Z</time></trkpt><trkpt lat="40.776154" lon=".588636"><ele>83.868</ele><time>2026-04-17T09:16:03Z</time></trkpt><trkpt lat="40.776169" lon=".588614"><ele>84.014</ele><time>2026-04-17T09:16:04Z</time></trkpt><trkpt lat="40.776183" lon=".588593"><ele>84.409</ele><time>2026-04-17T09:16:05Z</time></trkpt><trkpt lat="40.776194" lon=".588568"><ele>84.654</ele><time>2026-04-17T09:16:06Z</time></trkpt><trkpt lat="40.776208" lon=".588544"><ele>84.858</ele><time>2026-04-17T09:16:07Z</time></trkpt><trkpt lat="40.776227" lon=".588528"><ele>85.262</ele><time>2026-04-17T09:16:08Z</time></trkpt><trkpt lat="40.77625" lon=".588514"><ele>85.455</ele><time>2026-04-17T09:16:09Z</time></trkpt><trkpt lat="40.776274" lon=".588493"><ele>86.096</ele><time>2026-04-17T09:16:10Z</time></trkpt><trkpt lat="40.776299" lon=".58847"><ele>86.222</ele><time>2026-04-17T09:16:11Z</time></trkpt><trkpt lat="40.776324" lon=".588448"><ele>87.023</ele><time>2026-04-17T09:16:12Z</time></trkpt><trkpt lat="40.77635" lon=".588431"><ele>87.451</ele><time>2026-04-17T09:16:13Z</time></trkpt><trkpt lat="40.776375" lon=".588417"><ele>87.659</ele><time>2026-04-17T09:16:14Z</time></trkpt><trkpt lat="40.776401" lon=".588419"><ele>87.857</ele><time>2026-04-17T09:16:15Z</time></trkpt><trkpt lat="40.776428" lon=".588426"><ele>88.000</ele><time>2026-04-17T09:16:16Z</time></trkpt><trkpt lat="40.776452" lon=".588417"><ele>88.020</ele><time>2026-04-17T09:16:17Z</time></trkpt><trkpt lat="40.776473" lon=".588396"><ele>88.209</ele><time>2026-04-17T09:16:18Z</time></trkpt><trkpt lat="40.776494" lon=".588372"><ele>88.277</ele><time>2026-04-17T09:16:19Z</time></trkpt><trkpt lat="40.776513" lon=".588356"><ele>88.281</ele><time>2026-04-17T09:16:20Z</time></trkpt><trkpt lat="40.776535" lon=".588347"><ele>88.225</ele><time>2026-04-17T09:16:21Z</time></trkpt><trkpt lat="40.776559" lon=".58834"><ele>88.288</ele><time>2026-04-17T09:16:22Z</time></trkpt><trkpt lat="40.776586" lon=".588326"><ele>88.289</ele><time>2026-04-17T09:16:23Z</time></trkpt><trkpt lat="40.77661" lon=".588307"><ele>88.295</ele><time>2026-04-17T09:16:24Z</time></trkpt><trkpt lat="40.776628" lon=".588286"><ele>88.236</ele><time>2026-04-17T09:16:25Z</time></trkpt><trkpt lat="40.776643" lon=".588261"><ele>88.284</ele><time>2026-04-17T09:16:26Z</time></trkpt><trkpt lat="40.77666" lon=".588235"><ele>88.262</ele><time>2026-04-17T09:16:27Z</time></trkpt><trkpt lat="40.776683" lon=".588209"><ele>88.432</ele><time>2026-04-17T09:16:28Z</time></trkpt><trkpt lat="40.776709" lon=".588182"><ele>88.492</ele><time>2026-04-17T09:16:29Z</time></trkpt><trkpt lat="40.776733" lon=".588148"><ele>88.411</ele><time>2026-04-17T09:16:30Z</time></trkpt><trkpt lat="40.776756" lon=".588115"><ele>88.409</ele><time>2026-04-17T09:16:31Z</time></trkpt><trkpt lat="40.776781" lon=".588095"><ele>88.435</ele><time>2026-04-17T09:16:32Z</time></trkpt><trkpt lat="40.776807" lon=".588093"><ele>88.419</ele><time>2026-04-17T09:16:33Z</time></trkpt><trkpt lat="40.776829" lon=".588114"><ele>88.483</ele><time>2026-04-17T09:16:34Z</time></trkpt><trkpt lat="40.776852" lon=".588145"><ele>88.486</ele><time>2026-04-17T09:16:35Z</time></trkpt><trkpt lat="40.776869" lon=".58819"><ele>88.487</ele><time>2026-04-17T09:16:36Z</time></trkpt><trkpt lat="40.776882" lon=".588249"><ele>88.293</ele><time>2026-04-17T09:16:37Z</time></trkpt><trkpt lat="40.776895" lon=".588314"><ele>88.284</ele><time>2026-04-17T09:16:38Z</time></trkpt><trkpt lat="40.776909" lon=".588374"><ele>88.062</ele><time>2026-04-17T09:16:39Z</time></trkpt><trkpt lat="40.776934" lon=".588422"><ele>87.690</ele><time>2026-04-17T09:16:40Z</time></trkpt><trkpt lat="40.776961" lon=".588471"><ele>87.249</ele><time>2026-04-17T09:16:41Z</time></trkpt><trkpt lat="40.776986" lon=".588519"><ele>86.402</ele><time>2026-04-17T09:16:42Z</time></trkpt><trkpt lat="40.777011" lon=".588566"><ele>84.822</ele><time>2026-04-17T09:16:43Z</time></trkpt><trkpt lat="40.777025" lon=".58862"><ele>83.009</ele><time>2026-04-17T09:16:44Z</time></trkpt><trkpt lat="40.77703" lon=".588671"><ele>82.246</ele><time>2026-04-17T09:16:45Z</time></trkpt><trkpt lat="40.777026" lon=".588716"><ele>81.690</ele><time>2026-04-17T09:16:46Z</time></trkpt><trkpt lat="40.777017" lon=".588762"><ele>81.424</ele><time>2026-04-17T09:16:47Z</time></trkpt><trkpt lat="40.777013" lon=".588804"><ele>81.217</ele><time>2026-04-17T09:16:48Z</time></trkpt><trkpt lat="40.777016" lon=".588835"><ele>81.218</ele><time>2026-04-17T09:16:49Z</time></trkpt><trkpt lat="40.777022" lon=".588856"><ele>81.254</ele><time>2026-04-17T09:16:50Z</time></trkpt><trkpt lat="40.777025" lon=".58887"><ele>81.215</ele><time>2026-04-17T09:16:51Z</time></trkpt><trkpt lat="40.777026" lon=".588888"><ele>81.233</ele><time>2026-04-17T09:16:52Z</time></trkpt><trkpt lat="40.777022" lon=".588908"><ele>81.251</ele><time>2026-04-17T09:16:53Z</time></trkpt><trkpt lat="40.777012" lon=".588923"><ele>81.296</ele><time>2026-04-17T09:16:54Z</time></trkpt><trkpt lat="40.777003" lon=".588931"><ele>81.431</ele><time>2026-04-17T09:16:55Z</time></trkpt><trkpt lat="40.776971" lon=".588939"><ele>81.624</ele><time>2026-04-17T09:16:57Z</time></trkpt><trkpt lat="40.776922" lon=".588988"><ele>81.609</ele><time>2026-04-17T09:17:00Z</time></trkpt><trkpt lat="40.776908" lon=".589006"><ele>81.671</ele><time>2026-04-17T09:17:01Z</time></trkpt><trkpt lat="40.776896" lon=".589021"><ele>81.455</ele><time>2026-04-17T09:17:02Z</time></trkpt><trkpt lat="40.776886" lon=".589036"><ele>81.439</ele><time>2026-04-17T09:17:03Z</time></trkpt><trkpt lat="40.776882" lon=".589052"><ele>81.262</ele><time>2026-04-17T09:17:04Z</time></trkpt><trkpt lat="40.776886" lon=".589068"><ele>81.033</ele><time>2026-04-17T09:17:05Z</time></trkpt><trkpt lat="40.776898" lon=".589077"><ele>80.849</ele><time>2026-04-17T09:17:06Z</time></trkpt><trkpt lat="40.776965" lon=".589068"><ele>80.810</ele><time>2026-04-17T09:17:10Z</time></trkpt><trkpt lat="40.776978" lon=".589065"><ele>81.038</ele><time>2026-04-17T09:17:11Z</time></trkpt><trkpt lat="40.77699" lon=".589074"><ele>81.096</ele><time>2026-04-17T09:17:12Z</time></trkpt><trkpt lat="40.776991" lon=".589089"><ele>81.293</ele><time>2026-04-17T09:17:13Z</time></trkpt><trkpt lat="40.77698" lon=".589105"><ele>81.465</ele><time>2026-04-17T09:17:14Z</time></trkpt><trkpt lat="40.776964" lon=".589123"><ele>81.621</ele><time>2026-04-17T09:17:15Z</time></trkpt><trkpt lat="40.776893" lon=".589201"><ele>82.209</ele><time>2026-04-17T09:17:18Z</time></trkpt><trkpt lat="40.776867" lon=".589238"><ele>82.261</ele><time>2026-04-17T09:17:19Z</time></trkpt><trkpt lat="40.776839" lon=".589285"><ele>82.265</ele><time>2026-04-17T09:17:20Z</time></trkpt><trkpt lat="40.776715" lon=".589552"><ele>81.819</ele><time>2026-04-17T09:17:24Z</time></trkpt><trkpt lat="40.776696" lon=".589751"><ele>80.692</ele><time>2026-04-17T09:17:26Z</time></trkpt><trkpt lat="40.776701" lon=".589857"><ele>79.853</ele><time>2026-04-17T09:17:27Z</time></trkpt><trkpt lat="40.776702" lon=".589961"><ele>79.269</ele><time>2026-04-17T09:17:28Z</time></trkpt><trkpt lat="40.776695" lon=".590062"><ele>77.890</ele><time>2026-04-17T09:17:29Z</time></trkpt><trkpt lat="40.776686" lon=".590156"><ele>77.078</ele><time>2026-04-17T09:17:30Z</time></trkpt><trkpt lat="40.776678" lon=".590248"><ele>76.486</ele><time>2026-04-17T09:17:31Z</time></trkpt><trkpt lat="40.77667" lon=".590337"><ele>75.881</ele><time>2026-04-17T09:17:32Z</time></trkpt><trkpt lat="40.776661" lon=".590424"><ele>75.861</ele><time>2026-04-17T09:17:33Z</time></trkpt><trkpt lat="40.77665" lon=".590506"><ele>75.617</ele><time>2026-04-17T09:17:34Z</time></trkpt><trkpt lat="40.776628" lon=".590581"><ele>75.409</ele><time>2026-04-17T09:17:35Z</time></trkpt><trkpt lat="40.776597" lon=".590643"><ele>75.270</ele><time>2026-04-17T09:17:36Z</time></trkpt><trkpt lat="40.776554" lon=".590682"><ele>75.254</ele><time>2026-04-17T09:17:37Z</time></trkpt><trkpt lat="40.776511" lon=".590693"><ele>75.078</ele><time>2026-04-17T09:17:38Z</time></trkpt><trkpt lat="40.776481" lon=".590694"><ele>75.041</ele><time>2026-04-17T09:17:39Z</time></trkpt><trkpt lat="40.776466" lon=".590696"><ele>75.242</ele><time>2026-04-17T09:17:40Z</time></trkpt><trkpt lat="40.776464" lon=".590705"><ele>75.498</ele><time>2026-04-17T09:17:41Z</time></trkpt><trkpt lat="40.776468" lon=".590716"><ele>75.419</ele><time>2026-04-17T09:17:42Z</time></trkpt><trkpt lat="40.77648" lon=".590728"><ele>75.687</ele><time>2026-04-17T09:17:43Z</time></trkpt><trkpt lat="40.776494" lon=".590743"><ele>75.615</ele><time>2026-04-17T09:17:44Z</time></trkpt><trkpt lat="40.776516" lon=".59081"><ele>75.616</ele><time>2026-04-17T09:17:46Z</time></trkpt><trkpt lat="40.776552" lon=".590907"><ele>75.676</ele><time>2026-04-17T09:17:48Z</time></trkpt><trkpt lat="40.77659" lon=".590929"><ele>75.613</ele><time>2026-04-17T09:17:49Z</time></trkpt><trkpt lat="40.776631" lon=".590938"><ele>75.609</ele><time>2026-04-17T09:17:50Z</time></trkpt><trkpt lat="40.77667" lon=".590946"><ele>75.413</ele><time>2026-04-17T09:17:51Z</time></trkpt><trkpt lat="40.776873" lon=".591006"><ele>74.057</ele><time>2026-04-17T09:17:56Z</time></trkpt><trkpt lat="40.776918" lon=".591017"><ele>74.041</ele><time>2026-04-17T09:17:57Z</time></trkpt><trkpt lat="40.777057" lon=".591048"><ele>73.884</ele><time>2026-04-17T09:18:00Z</time></trkpt><trkpt lat="40.777251" lon=".591042"><ele>73.865</ele><time>2026-04-17T09:18:04Z</time></trkpt><trkpt lat="40.777301" lon=".591029"><ele>73.841</ele><time>2026-04-17T09:18:05Z</time></trkpt><trkpt lat="40.777391" lon=".590973"><ele>73.862</ele><time>2026-04-17T09:18:07Z</time></trkpt><trkpt lat="40.77743" lon=".590938"><ele>73.820</ele><time>2026-04-17T09:18:08Z</time></trkpt><trkpt lat="40.777567" lon=".590815"><ele>73.858</ele><time>2026-04-17T09:18:12Z</time></trkpt><trkpt lat="40.777597" lon=".590792"><ele>73.847</ele><time>2026-04-17T09:18:13Z</time></trkpt><trkpt lat="40.777626" lon=".590772"><ele>74.029</ele><time>2026-04-17T09:18:14Z</time></trkpt><trkpt lat="40.777656" lon=".590752"><ele>74.221</ele><time>2026-04-17T09:18:15Z</time></trkpt><trkpt lat="40.777685" lon=".59073"><ele>74.209</ele><time>2026-04-17T09:18:16Z</time></trkpt><trkpt lat="40.777711" lon=".590706"><ele>74.856</ele><time>2026-04-17T09:18:17Z</time></trkpt><trkpt lat="40.777737" lon=".59068"><ele>75.290</ele><time>2026-04-17T09:18:18Z</time></trkpt><trkpt lat="40.777765" lon=".590656"><ele>75.664</ele><time>2026-04-17T09:18:19Z</time></trkpt><trkpt lat="40.777793" lon=".590633"><ele>75.877</ele><time>2026-04-17T09:18:20Z</time></trkpt><trkpt lat="40.77782" lon=".590612"><ele>76.448</ele><time>2026-04-17T09:18:21Z</time></trkpt><trkpt lat="40.777848" lon=".59059"><ele>76.634</ele><time>2026-04-17T09:18:22Z</time></trkpt><trkpt lat="40.777877" lon=".590566"><ele>77.245</ele><time>2026-04-17T09:18:23Z</time></trkpt><trkpt lat="40.777907" lon=".590542"><ele>77.653</ele><time>2026-04-17T09:18:24Z</time></trkpt><trkpt lat="40.777967" lon=".590503"><ele>78.871</ele><time>2026-04-17T09:18:26Z</time></trkpt><trkpt lat="40.777998" lon=".590486"><ele>79.272</ele><time>2026-04-17T09:18:27Z</time></trkpt><trkpt lat="40.778032" lon=".590471"><ele>79.813</ele><time>2026-04-17T09:18:28Z</time></trkpt><trkpt lat="40.778068" lon=".590459"><ele>80.014</ele><time>2026-04-17T09:18:29Z</time></trkpt><trkpt lat="40.778103" lon=".590454"><ele>80.609</ele><time>2026-04-17T09:18:30Z</time></trkpt><trkpt lat="40.778135" lon=".590454"><ele>81.069</ele><time>2026-04-17T09:18:31Z</time></trkpt><trkpt lat="40.778166" lon=".590452"><ele>81.673</ele><time>2026-04-17T09:18:32Z</time></trkpt><trkpt lat="40.778196" lon=".59045"><ele>82.497</ele><time>2026-04-17T09:18:33Z</time></trkpt><trkpt lat="40.778228" lon=".590451"><ele>82.650</ele><time>2026-04-17T09:18:34Z</time></trkpt><trkpt lat="40.778259" lon=".590457"><ele>83.071</ele><time>2026-04-17T09:18:35Z</time></trkpt><trkpt lat="40.77829" lon=".590467"><ele>83.467</ele><time>2026-04-17T09:18:36Z</time></trkpt><trkpt lat="40.778322" lon=".590479"><ele>84.238</ele><time>2026-04-17T09:18:37Z</time></trkpt><trkpt lat="40.778352" lon=".590494"><ele>84.646</ele><time>2026-04-17T09:18:38Z</time></trkpt><trkpt lat="40.778381" lon=".590512"><ele>85.284</ele><time>2026-04-17T09:18:39Z</time></trkpt><trkpt lat="40.77841" lon=".590531"><ele>85.857</ele><time>2026-04-17T09:18:40Z</time></trkpt><trkpt lat="40.778438" lon=".590552"><ele>86.000</ele><time>2026-04-17T09:18:41Z</time></trkpt><trkpt lat="40.778463" lon=".590576"><ele>86.220</ele><time>2026-04-17T09:18:42Z</time></trkpt><trkpt lat="40.778488" lon=".590602"><ele>86.409</ele><time>2026-04-17T09:18:43Z</time></trkpt><trkpt lat="40.778512" lon=".590628"><ele>86.667</ele><time>2026-04-17T09:18:44Z</time></trkpt><trkpt lat="40.778535" lon=".59065"><ele>86.851</ele><time>2026-04-17T09:18:45Z</time></trkpt><trkpt lat="40.778559" lon=".59067"><ele>87.245</ele><time>2026-04-17T09:18:46Z</time></trkpt><trkpt lat="40.778582" lon=".590689"><ele>87.478</ele><time>2026-04-17T09:18:47Z</time></trkpt><trkpt lat="40.778604" lon=".590706"><ele>87.699</ele><time>2026-04-17T09:18:48Z</time></trkpt><trkpt lat="40.778626" lon=".590723"><ele>88.235</ele><time>2026-04-17T09:18:49Z</time></trkpt><trkpt lat="40.778647" lon=".590741"><ele>88.426</ele><time>2026-04-17T09:18:50Z</time></trkpt><trkpt lat="40.778668" lon=".590757"><ele>88.844</ele><time>2026-04-17T09:18:51Z</time></trkpt><trkpt lat="40.778689" lon=".590774"><ele>89.012</ele><time>2026-04-17T09:18:52Z</time></trkpt><trkpt lat="40.778712" lon=".590792"><ele>89.641</ele><time>2026-04-17T09:18:53Z</time></trkpt><trkpt lat="40.778735" lon=".590809"><ele>89.881</ele><time>2026-04-17T09:18:54Z</time></trkpt><trkpt lat="40.778759" lon=".590824"><ele>90.609</ele><time>2026-04-17T09:18:55Z</time></trkpt><trkpt lat="40.778783" lon=".590838"><ele>91.009</ele><time>2026-04-17T09:18:56Z</time></trkpt><trkpt lat="40.778806" lon=".590853"><ele>91.686</ele><time>2026-04-17T09:18:57Z</time></trkpt><trkpt lat="40.778828" lon=".590866"><ele>92.080</ele><time>2026-04-17T09:18:58Z</time></trkpt><trkpt lat="40.77885" lon=".590878"><ele>92.414</ele><time>2026-04-17T09:18:59Z</time></trkpt><trkpt lat="40.778874" lon=".590887"><ele>93.047</ele><time>2026-04-17T09:19:00Z</time></trkpt><trkpt lat="40.778899" lon=".590897"><ele>93.418</ele><time>2026-04-17T09:19:01Z</time></trkpt><trkpt lat="40.778924" lon=".590903"><ele>94.044</ele><time>2026-04-17T09:19:02Z</time></trkpt><trkpt lat="40.778949" lon=".590906"><ele>94.285</ele><time>2026-04-17T09:19:03Z</time></trkpt><trkpt lat="40.778975" lon=".590908"><ele>94.623</ele><time>2026-04-17T09:19:04Z</time></trkpt><trkpt lat="40.778999" lon=".590907"><ele>94.821</ele><time>2026-04-17T09:19:05Z</time></trkpt><trkpt lat="40.779026" lon=".590906"><ele>95.279</ele><time>2026-04-17T09:19:06Z</time></trkpt><trkpt lat="40.779051" lon=".590905"><ele>96.205</ele><time>2026-04-17T09:19:07Z</time></trkpt><trkpt lat="40.77908" lon=".590903"><ele>96.625</ele><time>2026-04-17T09:19:08Z</time></trkpt><trkpt lat="40.779105" lon=".590902"><ele>97.209</ele><time>2026-04-17T09:19:09Z</time></trkpt><trkpt lat="40.779128" lon=".590901"><ele>97.439</ele><time>2026-04-17T09:19:10Z</time></trkpt><trkpt lat="40.77915" lon=".5909"><ele>98.233</ele><time>2026-04-17T09:19:11Z</time></trkpt><trkpt lat="40.779172" lon=".5909"><ele>98.697</ele><time>2026-04-17T09:19:12Z</time></trkpt><trkpt lat="40.779198" lon=".590902"><ele>99.470</ele><time>2026-04-17T09:19:13Z</time></trkpt><trkpt lat="40.779224" lon=".590905"><ele>100.021</ele><time>2026-04-17T09:19:14Z</time></trkpt><trkpt lat="40.77925" lon=".590912"><ele>100.427</ele><time>2026-04-17T09:19:15Z</time></trkpt><trkpt lat="40.779276" lon=".590921"><ele>101.068</ele><time>2026-04-17T09:19:16Z</time></trkpt><trkpt lat="40.7793" lon=".590932"><ele>101.246</ele><time>2026-04-17T09:19:17Z</time></trkpt><trkpt lat="40.779321" lon=".590942"><ele>102.044</ele><time>2026-04-17T09:19:18Z</time></trkpt><trkpt lat="40.779342" lon=".590953"><ele>102.483</ele><time>2026-04-17T09:19:19Z</time></trkpt><trkpt lat="40.779364" lon=".590967"><ele>103.025</ele><time>2026-04-17T09:19:20Z</time></trkpt><trkpt lat="40.779387" lon=".590982"><ele>103.217</ele><time>2026-04-17T09:19:21Z</time></trkpt><trkpt lat="40.779408" lon=".591"><ele>103.809</ele><time>2026-04-17T09:19:22Z</time></trkpt><trkpt lat="40.77943" lon=".591019"><ele>104.410</ele><time>2026-04-17T09:19:23Z</time></trkpt><trkpt lat="40.779451" lon=".591035"><ele>104.634</ele><time>2026-04-17T09:19:24Z</time></trkpt><trkpt lat="40.779472" lon=".591051"><ele>105.018</ele><time>2026-04-17T09:19:25Z</time></trkpt><trkpt lat="40.779494" lon=".591064"><ele>105.221</ele><time>2026-04-17T09:19:26Z</time></trkpt><trkpt lat="40.779514" lon=".591078"><ele>105.432</ele><time>2026-04-17T09:19:27Z</time></trkpt><trkpt lat="40.779536" lon=".59109"><ele>105.438</ele><time>2026-04-17T09:19:28Z</time></trkpt><trkpt lat="40.779556" lon=".591094"><ele>105.859</ele><time>2026-04-17T09:19:29Z</time></trkpt><trkpt lat="40.779581" lon=".591098"><ele>106.097</ele><time>2026-04-17T09:19:30Z</time></trkpt><trkpt lat="40.779598" lon=".591098"><ele>106.295</ele><time>2026-04-17T09:19:31Z</time></trkpt><trkpt lat="40.779613" lon=".591098"><ele>106.683</ele><time>2026-04-17T09:19:32Z</time></trkpt><trkpt lat="40.779627" lon=".591099"><ele>106.625</ele><time>2026-04-17T09:19:33Z</time></trkpt><trkpt lat="40.779643" lon=".591097"><ele>107.017</ele><time>2026-04-17T09:19:34Z</time></trkpt><trkpt lat="40.779656" lon=".591095"><ele>107.209</ele><time>2026-04-17T09:19:35Z</time></trkpt><trkpt lat="40.779675" lon=".59109"><ele>107.610</ele><time>2026-04-17T09:19:36Z</time></trkpt><trkpt lat="40.779695" lon=".591084"><ele>107.854</ele><time>2026-04-17T09:19:37Z</time></trkpt><trkpt lat="40.779712" lon=".59108"><ele>108.098</ele><time>2026-04-17T09:19:38Z</time></trkpt><trkpt lat="40.779729" lon=".591075"><ele>108.261</ele><time>2026-04-17T09:19:39Z</time></trkpt><trkpt lat="40.779746" lon=".591068"><ele>108.242</ele><time>2026-04-17T09:19:40Z</time></trkpt><trkpt lat="40.779762" lon=".591061"><ele>108.448</ele><time>2026-04-17T09:19:41Z</time></trkpt><trkpt lat="40.779778" lon=".591052"><ele>108.459</ele><time>2026-04-17T09:19:42Z</time></trkpt><trkpt lat="40.779789" lon=".591042"><ele>108.677</ele><time>2026-04-17T09:19:43Z</time></trkpt><trkpt lat="40.779798" lon=".591034"><ele>108.635</ele><time>2026-04-17T09:19:44Z</time></trkpt><trkpt lat="40.779808" lon=".591026"><ele>108.691</ele><time>2026-04-17T09:19:45Z</time></trkpt><trkpt lat="40.779823" lon=".591013"><ele>108.881</ele><time>2026-04-17T09:19:46Z</time></trkpt><trkpt lat="40.779837" lon=".591001"><ele>108.819</ele><time>2026-04-17T09:19:47Z</time></trkpt><trkpt lat="40.779849" lon=".590993"><ele>108.809</ele><time>2026-04-17T09:19:48Z</time></trkpt><trkpt lat="40.779863" lon=".590983"><ele>108.891</ele><time>2026-04-17T09:19:49Z</time></trkpt><trkpt lat="40.779875" lon=".590974"><ele>109.055</ele><time>2026-04-17T09:19:50Z</time></trkpt><trkpt lat="40.779886" lon=".590965"><ele>109.049</ele><time>2026-04-17T09:19:51Z</time></trkpt><trkpt lat="40.779897" lon=".590955"><ele>109.012</ele><time>2026-04-17T09:19:52Z</time></trkpt><trkpt lat="40.779911" lon=".590941"><ele>109.013</ele><time>2026-04-17T09:19:53Z</time></trkpt><trkpt lat="40.779925" lon=".590924"><ele>109.059</ele><time>2026-04-17T09:19:54Z</time></trkpt><trkpt lat="40.779937" lon=".590905"><ele>109.090</ele><time>2026-04-17T09:19:55Z</time></trkpt><trkpt lat="40.779949" lon=".590885"><ele>109.218</ele><time>2026-04-17T09:19:56Z</time></trkpt><trkpt lat="40.77996" lon=".590864"><ele>109.446</ele><time>2026-04-17T09:19:57Z</time></trkpt><trkpt lat="40.779967" lon=".590841"><ele>109.436</ele><time>2026-04-17T09:19:58Z</time></trkpt><trkpt lat="40.779973" lon=".59082"><ele>109.617</ele><time>2026-04-17T09:19:59Z</time></trkpt><trkpt lat="40.77998" lon=".590802"><ele>109.818</ele><time>2026-04-17T09:20:00Z</time></trkpt><trkpt lat="40.779985" lon=".590787"><ele>110.009</ele><time>2026-04-17T09:20:01Z</time></trkpt><trkpt lat="40.779988" lon=".590768"><ele>110.215</ele><time>2026-04-17T09:20:02Z</time></trkpt><trkpt lat="40.779991" lon=".590745"><ele>110.639</ele><time>2026-04-17T09:20:03Z</time></trkpt><trkpt lat="40.779998" lon=".590725"><ele>110.653</ele><time>2026-04-17T09:20:04Z</time></trkpt><trkpt lat="40.78" lon=".590704"><ele>110.816</ele><time>2026-04-17T09:20:05Z</time></trkpt><trkpt lat="40.78" lon=".590681"><ele>111.037</ele><time>2026-04-17T09:20:06Z</time></trkpt><trkpt lat="40.780005" lon=".590656"><ele>111.263</ele><time>2026-04-17T09:20:07Z</time></trkpt><trkpt lat="40.78001" lon=".590631"><ele>111.474</ele><time>2026-04-17T09:20:08Z</time></trkpt><trkpt lat="40.780008" lon=".590602"><ele>111.622</ele><time>2026-04-17T09:20:09Z</time></trkpt><trkpt lat="40.780009" lon=".590577"><ele>111.650</ele><time>2026-04-17T09:20:10Z</time></trkpt><trkpt lat="40.780012" lon=".590552"><ele>111.815</ele><time>2026-04-17T09:20:11Z</time></trkpt><trkpt lat="40.780014" lon=".590523"><ele>111.865</ele><time>2026-04-17T09:20:12Z</time></trkpt><trkpt lat="40.780018" lon=".590494"><ele>112.211</ele><time>2026-04-17T09:20:13Z</time></trkpt><trkpt lat="40.780024" lon=".590463"><ele>112.609</ele><time>2026-04-17T09:20:14Z</time></trkpt><trkpt lat="40.780028" lon=".590432"><ele>112.813</ele><time>2026-04-17T09:20:15Z</time></trkpt><trkpt lat="40.780035" lon=".590403"><ele>113.257</ele><time>2026-04-17T09:20:16Z</time></trkpt><trkpt lat="40.780043" lon=".590375"><ele>113.431</ele><time>2026-04-17T09:20:17Z</time></trkpt><trkpt lat="40.780051" lon=".590348"><ele>113.414</ele><time>2026-04-17T09:20:18Z</time></trkpt><trkpt lat="40.780059" lon=".590321"><ele>113.895</ele><time>2026-04-17T09:20:19Z</time></trkpt><trkpt lat="40.78007" lon=".590294"><ele>113.831</ele><time>2026-04-17T09:20:20Z</time></trkpt><trkpt lat="40.780079" lon=".590265"><ele>114.082</ele><time>2026-04-17T09:20:21Z</time></trkpt><trkpt lat="40.780089" lon=".590236"><ele>114.460</ele><time>2026-04-17T09:20:22Z</time></trkpt><trkpt lat="40.780098" lon=".590207"><ele>114.618</ele><time>2026-04-17T09:20:23Z</time></trkpt><trkpt lat="40.780106" lon=".590178"><ele>115.422</ele><time>2026-04-17T09:20:24Z</time></trkpt><trkpt lat="40.780115" lon=".590148"><ele>115.662</ele><time>2026-04-17T09:20:25Z</time></trkpt><trkpt lat="40.780124" lon=".590119"><ele>116.008</ele><time>2026-04-17T09:20:26Z</time></trkpt><trkpt lat="40.780137" lon=".590096"><ele>116.209</ele><time>2026-04-17T09:20:27Z</time></trkpt><trkpt lat="40.78015" lon=".590069"><ele>116.634</ele><time>2026-04-17T09:20:28Z</time></trkpt><trkpt lat="40.780165" lon=".590043"><ele>117.038</ele><time>2026-04-17T09:20:29Z</time></trkpt><trkpt lat="40.78018" lon=".590017"><ele>117.692</ele><time>2026-04-17T09:20:30Z</time></trkpt><trkpt lat="40.780195" lon=".589991"><ele>118.215</ele><time>2026-04-17T09:20:31Z</time></trkpt><trkpt lat="40.780208" lon=".589962"><ele>118.416</ele><time>2026-04-17T09:20:32Z</time></trkpt><trkpt lat="40.780225" lon=".589934"><ele>118.622</ele><time>2026-04-17T09:20:33Z</time></trkpt><trkpt lat="40.780242" lon=".589908"><ele>118.613</ele><time>2026-04-17T09:20:34Z</time></trkpt><trkpt lat="40.780256" lon=".58988"><ele>118.811</ele><time>2026-04-17T09:20:35Z</time></trkpt><trkpt lat="40.780272" lon=".589849"><ele>118.889</ele><time>2026-04-17T09:20:36Z</time></trkpt><trkpt lat="40.78029" lon=".589817"><ele>119.015</ele><time>2026-04-17T09:20:37Z</time></trkpt><trkpt lat="40.780309" lon=".589786"><ele>119.065</ele><time>2026-04-17T09:20:38Z</time></trkpt><trkpt lat="40.780326" lon=".589759"><ele>119.011</ele><time>2026-04-17T09:20:39Z</time></trkpt><trkpt lat="40.780341" lon=".589731"><ele>119.409</ele><time>2026-04-17T09:20:40Z</time></trkpt><trkpt lat="40.780356" lon=".589702"><ele>119.693</ele><time>2026-04-17T09:20:41Z</time></trkpt><trkpt lat="40.780371" lon=".589674"><ele>120.057</ele><time>2026-04-17T09:20:42Z</time></trkpt><trkpt lat="40.780385" lon=".589644"><ele>120.261</ele><time>2026-04-17T09:20:43Z</time></trkpt><trkpt lat="40.7804" lon=".589612"><ele>120.874</ele><time>2026-04-17T09:20:44Z</time></trkpt><trkpt lat="40.780416" lon=".589578"><ele>121.265</ele><time>2026-04-17T09:20:45Z</time></trkpt><trkpt lat="40.780432" lon=".589544"><ele>121.661</ele><time>2026-04-17T09:20:46Z</time></trkpt><trkpt lat="40.780449" lon=".589512"><ele>121.872</ele><time>2026-04-17T09:20:47Z</time></trkpt><trkpt lat="40.780466" lon=".589479"><ele>122.030</ele><time>2026-04-17T09:20:48Z</time></trkpt><trkpt lat="40.780483" lon=".589446"><ele>122.698</ele><time>2026-04-17T09:20:49Z</time></trkpt><trkpt lat="40.780502" lon=".589413"><ele>122.864</ele><time>2026-04-17T09:20:50Z</time></trkpt><trkpt lat="40.780519" lon=".589382"><ele>123.206</ele><time>2026-04-17T09:20:51Z</time></trkpt><trkpt lat="40.780536" lon=".589352"><ele>123.616</ele><time>2026-04-17T09:20:52Z</time></trkpt><trkpt lat="40.78055" lon=".589326"><ele>124.009</ele><time>2026-04-17T09:20:53Z</time></trkpt><trkpt lat="40.780566" lon=".589298"><ele>124.218</ele><time>2026-04-17T09:20:54Z</time></trkpt><trkpt lat="40.780583" lon=".589272"><ele>124.692</ele><time>2026-04-17T09:20:55Z</time></trkpt><trkpt lat="40.780603" lon=".589247"><ele>125.666</ele><time>2026-04-17T09:20:56Z</time></trkpt><trkpt lat="40.780624" lon=".589223"><ele>125.829</ele><time>2026-04-17T09:20:57Z</time></trkpt><trkpt lat="40.780643" lon=".589202"><ele>126.270</ele><time>2026-04-17T09:20:58Z</time></trkpt><trkpt lat="40.780663" lon=".589185"><ele>126.436</ele><time>2026-04-17T09:20:59Z</time></trkpt><trkpt lat="40.780684" lon=".58917"><ele>127.647</ele><time>2026-04-17T09:21:00Z</time></trkpt><trkpt lat="40.780702" lon=".589153"><ele>128.025</ele><time>2026-04-17T09:21:01Z</time></trkpt><trkpt lat="40.78072" lon=".589136"><ele>128.613</ele><time>2026-04-17T09:21:02Z</time></trkpt><trkpt lat="40.780733" lon=".589116"><ele>129.049</ele><time>2026-04-17T09:21:03Z</time></trkpt><trkpt lat="40.780742" lon=".58909"><ele>129.402</ele><time>2026-04-17T09:21:04Z</time></trkpt><trkpt lat="40.780744" lon=".589063"><ele>129.622</ele><time>2026-04-17T09:21:05Z</time></trkpt><trkpt lat="40.780738" lon=".58904"><ele>129.809</ele><time>2026-04-17T09:21:06Z</time></trkpt><trkpt lat="40.780728" lon=".589021"><ele>130.266</ele><time>2026-04-17T09:21:07Z</time></trkpt><trkpt lat="40.780723" lon=".588994"><ele>130.640</ele><time>2026-04-17T09:21:08Z</time></trkpt><trkpt lat="40.78072" lon=".58896"><ele>131.044</ele><time>2026-04-17T09:21:09Z</time></trkpt><trkpt lat="40.780718" lon=".588925"><ele>131.237</ele><time>2026-04-17T09:21:10Z</time></trkpt><trkpt lat="40.780719" lon=".588888"><ele>131.618</ele><time>2026-04-17T09:21:11Z</time></trkpt><trkpt lat="40.78073" lon=".588854"><ele>131.874</ele><time>2026-04-17T09:21:12Z</time></trkpt><trkpt lat="40.780745" lon=".588822"><ele>132.215</ele><time>2026-04-17T09:21:13Z</time></trkpt><trkpt lat="40.780761" lon=".588791"><ele>132.693</ele><time>2026-04-17T09:21:14Z</time></trkpt><trkpt lat="40.780777" lon=".588761"><ele>133.011</ele><time>2026-04-17T09:21:15Z</time></trkpt><trkpt lat="40.780795" lon=".588736"><ele>133.694</ele><time>2026-04-17T09:21:16Z</time></trkpt><trkpt lat="40.780816" lon=".588716"><ele>133.857</ele><time>2026-04-17T09:21:17Z</time></trkpt><trkpt lat="40.780838" lon=".5887"><ele>134.622</ele><time>2026-04-17T09:21:18Z</time></trkpt><trkpt lat="40.780862" lon=".588683"><ele>134.809</ele><time>2026-04-17T09:21:19Z</time></trkpt><trkpt lat="40.780882" lon=".588662"><ele>135.411</ele><time>2026-04-17T09:21:20Z</time></trkpt><trkpt lat="40.780901" lon=".588643"><ele>136.035</ele><time>2026-04-17T09:21:21Z</time></trkpt><trkpt lat="40.780917" lon=".588626"><ele>136.299</ele><time>2026-04-17T09:21:22Z</time></trkpt><trkpt lat="40.780928" lon=".588611"><ele>136.832</ele><time>2026-04-17T09:21:23Z</time></trkpt><trkpt lat="40.780945" lon=".588596"><ele>137.293</ele><time>2026-04-17T09:21:24Z</time></trkpt><trkpt lat="40.780963" lon=".588584"><ele>137.639</ele><time>2026-04-17T09:21:25Z</time></trkpt><trkpt lat="40.780978" lon=".58858"><ele>138.030</ele><time>2026-04-17T09:21:26Z</time></trkpt><trkpt lat="40.780991" lon=".588588"><ele>138.288</ele><time>2026-04-17T09:21:27Z</time></trkpt><trkpt lat="40.781006" lon=".588603"><ele>138.636</ele><time>2026-04-17T09:21:28Z</time></trkpt><trkpt lat="40.781017" lon=".588625"><ele>139.026</ele><time>2026-04-17T09:21:29Z</time></trkpt><trkpt lat="40.781029" lon=".588659"><ele>139.047</ele><time>2026-04-17T09:21:30Z</time></trkpt><trkpt lat="40.781052" lon=".588697"><ele>139.011</ele><time>2026-04-17T09:21:31Z</time></trkpt><trkpt lat="40.781083" lon=".588731"><ele>139.209</ele><time>2026-04-17T09:21:32Z</time></trkpt><trkpt lat="40.781124" lon=".58876"><ele>139.284</ele><time>2026-04-17T09:21:33Z</time></trkpt><trkpt lat="40.781173" lon=".588782"><ele>139.278</ele><time>2026-04-17T09:21:34Z</time></trkpt><trkpt lat="40.781218" lon=".588812"><ele>139.282</ele><time>2026-04-17T09:21:35Z</time></trkpt><trkpt lat="40.781256" lon=".588852"><ele>138.285</ele><time>2026-04-17T09:21:36Z</time></trkpt><trkpt lat="40.781278" lon=".588895"><ele>137.676</ele><time>2026-04-17T09:21:37Z</time></trkpt><trkpt lat="40.78128" lon=".588939"><ele>136.092</ele><time>2026-04-17T09:21:38Z</time></trkpt><trkpt lat="40.781268" lon=".588981"><ele>135.223</ele><time>2026-04-17T09:21:39Z</time></trkpt><trkpt lat="40.781249" lon=".589018"><ele>134.861</ele><time>2026-04-17T09:21:40Z</time></trkpt><trkpt lat="40.781227" lon=".589044"><ele>134.429</ele><time>2026-04-17T09:21:41Z</time></trkpt><trkpt lat="40.781209" lon=".589063"><ele>134.063</ele><time>2026-04-17T09:21:42Z</time></trkpt><trkpt lat="40.781205" lon=".589083"><ele>133.044</ele><time>2026-04-17T09:21:43Z</time></trkpt><trkpt lat="40.781204" lon=".589107"><ele>132.618</ele><time>2026-04-17T09:21:44Z</time></trkpt><trkpt lat="40.781199" lon=".58913"><ele>132.209</ele><time>2026-04-17T09:21:45Z</time></trkpt><trkpt lat="40.781182" lon=".589152"><ele>132.048</ele><time>2026-04-17T09:21:46Z</time></trkpt><trkpt lat="40.781135" lon=".589216"><ele>131.642</ele><time>2026-04-17T09:21:48Z</time></trkpt><trkpt lat="40.781112" lon=".589256"><ele>131.256</ele><time>2026-04-17T09:21:49Z</time></trkpt><trkpt lat="40.781095" lon=".589303"><ele>131.039</ele><time>2026-04-17T09:21:50Z</time></trkpt><trkpt lat="40.781083" lon=".589346"><ele>130.810</ele><time>2026-04-17T09:21:51Z</time></trkpt><trkpt lat="40.781072" lon=".58937"><ele>130.426</ele><time>2026-04-17T09:21:52Z</time></trkpt><trkpt lat="40.781055" lon=".589379"><ele>130.077</ele><time>2026-04-17T09:21:53Z</time></trkpt><trkpt lat="40.781031" lon=".589372"><ele>129.465</ele><time>2026-04-17T09:21:54Z</time></trkpt><trkpt lat="40.781006" lon=".58935"><ele>128.413</ele><time>2026-04-17T09:21:55Z</time></trkpt><trkpt lat="40.780969" lon=".589316"><ele>126.841</ele><time>2026-04-17T09:21:57Z</time></trkpt><trkpt lat="40.78095" lon=".589313"><ele>126.481</ele><time>2026-04-17T09:21:58Z</time></trkpt><trkpt lat="40.780931" lon=".589323"><ele>126.209</ele><time>2026-04-17T09:21:59Z</time></trkpt><trkpt lat="40.780907" lon=".589343"><ele>126.009</ele><time>2026-04-17T09:22:00Z</time></trkpt><trkpt lat="40.780876" lon=".589363"><ele>125.896</ele><time>2026-04-17T09:22:01Z</time></trkpt><trkpt lat="40.78085" lon=".589387"><ele>125.860</ele><time>2026-04-17T09:22:02Z</time></trkpt><trkpt lat="40.780822" lon=".589413"><ele>125.654</ele><time>2026-04-17T09:22:03Z</time></trkpt><trkpt lat="40.780795" lon=".589441"><ele>125.457</ele><time>2026-04-17T09:22:04Z</time></trkpt><trkpt lat="40.78067" lon=".589593"><ele>125.058</ele><time>2026-04-17T09:22:08Z</time></trkpt><trkpt lat="40.780602" lon=".589681"><ele>124.654</ele><time>2026-04-17T09:22:10Z</time></trkpt><trkpt lat="40.780535" lon=".589781"><ele>124.085</ele><time>2026-04-17T09:22:12Z</time></trkpt><trkpt lat="40.78048" lon=".589916"><ele>123.693</ele><time>2026-04-17T09:22:14Z</time></trkpt><trkpt lat="40.780461" lon=".589988"><ele>123.471</ele><time>2026-04-17T09:22:15Z</time></trkpt><trkpt lat="40.780422" lon=".590114"><ele>123.226</ele><time>2026-04-17T09:22:17Z</time></trkpt><trkpt lat="40.780403" lon=".59025"><ele>122.447</ele><time>2026-04-17T09:22:19Z</time></trkpt><trkpt lat="40.780382" lon=".590309"><ele>120.811</ele><time>2026-04-17T09:22:20Z</time></trkpt><trkpt lat="40.780348" lon=".590361"><ele>119.609</ele><time>2026-04-17T09:22:21Z</time></trkpt><trkpt lat="40.780309" lon=".5904"><ele>118.694</ele><time>2026-04-17T09:22:22Z</time></trkpt><trkpt lat="40.780281" lon=".590445"><ele>118.248</ele><time>2026-04-17T09:22:23Z</time></trkpt><trkpt lat="40.780254" lon=".590508"><ele>117.422</ele><time>2026-04-17T09:22:24Z</time></trkpt><trkpt lat="40.780228" lon=".59058"><ele>117.085</ele><time>2026-04-17T09:22:25Z</time></trkpt><trkpt lat="40.780195" lon=".590646"><ele>115.856</ele><time>2026-04-17T09:22:26Z</time></trkpt><trkpt lat="40.780156" lon=".590699"><ele>115.472</ele><time>2026-04-17T09:22:27Z</time></trkpt><trkpt lat="40.780121" lon=".590743"><ele>114.673</ele><time>2026-04-17T09:22:28Z</time></trkpt><trkpt lat="40.780093" lon=".590788"><ele>113.471</ele><time>2026-04-17T09:22:29Z</time></trkpt><trkpt lat="40.780066" lon=".590834"><ele>113.099</ele><time>2026-04-17T09:22:30Z</time></trkpt><trkpt lat="40.780035" lon=".590874"><ele>112.626</ele><time>2026-04-17T09:22:31Z</time></trkpt><trkpt lat="40.779997" lon=".590903"><ele>112.647</ele><time>2026-04-17T09:22:32Z</time></trkpt><trkpt lat="40.779956" lon=".590931"><ele>112.211</ele><time>2026-04-17T09:22:33Z</time></trkpt><trkpt lat="40.77991" lon=".590958"><ele>112.209</ele><time>2026-04-17T09:22:34Z</time></trkpt><trkpt lat="40.779765" lon=".591048"><ele>111.294</ele><time>2026-04-17T09:22:37Z</time></trkpt><trkpt lat="40.779662" lon=".5911"><ele>110.458</ele><time>2026-04-17T09:22:39Z</time></trkpt><trkpt lat="40.779618" lon=".591141"><ele>109.832</ele><time>2026-04-17T09:22:40Z</time></trkpt><trkpt lat="40.77958" lon=".591187"><ele>109.845</ele><time>2026-04-17T09:22:41Z</time></trkpt><trkpt lat="40.779562" lon=".591234"><ele>109.476</ele><time>2026-04-17T09:22:42Z</time></trkpt><trkpt lat="40.77956" lon=".591277"><ele>109.242</ele><time>2026-04-17T09:22:43Z</time></trkpt><trkpt lat="40.779561" lon=".591319"><ele>109.223</ele><time>2026-04-17T09:22:44Z</time></trkpt><trkpt lat="40.779561" lon=".59136"><ele>109.211</ele><time>2026-04-17T09:22:45Z</time></trkpt><trkpt lat="40.77956" lon=".591402"><ele>109.259</ele><time>2026-04-17T09:22:46Z</time></trkpt><trkpt lat="40.779559" lon=".591446"><ele>109.658</ele><time>2026-04-17T09:22:47Z</time></trkpt><trkpt lat="40.779554" lon=".591521"><ele>110.252</ele><time>2026-04-17T09:22:49Z</time></trkpt><trkpt lat="40.779549" lon=".591578"><ele>111.017</ele><time>2026-04-17T09:22:51Z</time></trkpt><trkpt lat="40.779539" lon=".591596"><ele>111.409</ele><time>2026-04-17T09:22:52Z</time></trkpt><trkpt lat="40.779522" lon=".591608"><ele>112.067</ele><time>2026-04-17T09:22:53Z</time></trkpt><trkpt lat="40.779505" lon=".591616"><ele>112.621</ele><time>2026-04-17T09:22:54Z</time></trkpt><trkpt lat="40.779491" lon=".591621"><ele>112.835</ele><time>2026-04-17T09:22:55Z</time></trkpt><trkpt lat="40.779477" lon=".591624"><ele>113.478</ele><time>2026-04-17T09:22:56Z</time></trkpt><trkpt lat="40.77946" lon=".591618"><ele>113.859</ele><time>2026-04-17T09:22:57Z</time></trkpt><trkpt lat="40.779449" lon=".591604"><ele>114.215</ele><time>2026-04-17T09:22:58Z</time></trkpt><trkpt lat="40.779443" lon=".591585"><ele>114.616</ele><time>2026-04-17T09:22:59Z</time></trkpt><trkpt lat="40.779436" lon=".591563"><ele>114.874</ele><time>2026-04-17T09:23:00Z</time></trkpt><trkpt lat="40.779424" lon=".591542"><ele>115.072</ele><time>2026-04-17T09:23:01Z</time></trkpt><trkpt lat="40.779384" lon=".59153"><ele>115.455</ele><time>2026-04-17T09:23:03Z</time></trkpt><trkpt lat="40.779368" lon=".591522"><ele>115.607</ele><time>2026-04-17T09:23:04Z</time></trkpt><trkpt lat="40.779352" lon=".59151"><ele>115.817</ele><time>2026-04-17T09:23:05Z</time></trkpt><trkpt lat="40.779333" lon=".5915"><ele>115.809</ele><time>2026-04-17T09:23:06Z</time></trkpt><trkpt lat="40.779312" lon=".591497"><ele>116.027</ele><time>2026-04-17T09:23:07Z</time></trkpt><trkpt lat="40.77929" lon=".591488"><ele>116.271</ele><time>2026-04-17T09:23:08Z</time></trkpt><trkpt lat="40.779268" lon=".591469"><ele>116.685</ele><time>2026-04-17T09:23:09Z</time></trkpt><trkpt lat="40.779246" lon=".591457"><ele>116.838</ele><time>2026-04-17T09:23:10Z</time></trkpt><trkpt lat="40.779219" lon=".591451"><ele>116.899</ele><time>2026-04-17T09:23:11Z</time></trkpt><trkpt lat="40.779198" lon=".591459"><ele>117.075</ele><time>2026-04-17T09:23:12Z</time></trkpt><trkpt lat="40.779176" lon=".591473"><ele>117.016</ele><time>2026-04-17T09:23:13Z</time></trkpt><trkpt lat="40.779153" lon=".591486"><ele>117.454</ele><time>2026-04-17T09:23:14Z</time></trkpt><trkpt lat="40.779133" lon=".591496"><ele>117.462</ele><time>2026-04-17T09:23:15Z</time></trkpt><trkpt lat="40.779112" lon=".591502"><ele>117.618</ele><time>2026-04-17T09:23:16Z</time></trkpt><trkpt lat="40.779089" lon=".591506"><ele>117.698</ele><time>2026-04-17T09:23:17Z</time></trkpt><trkpt lat="40.779063" lon=".59151"><ele>117.617</ele><time>2026-04-17T09:23:18Z</time></trkpt><trkpt lat="40.779031" lon=".591522"><ele>117.609</ele><time>2026-04-17T09:23:19Z</time></trkpt><trkpt lat="40.778999" lon=".59154"><ele>117.623</ele><time>2026-04-17T09:23:20Z</time></trkpt><trkpt lat="40.77898" lon=".591548"><ele>117.827</ele><time>2026-04-17T09:23:21Z</time></trkpt><trkpt lat="40.778958" lon=".591556"><ele>117.871</ele><time>2026-04-17T09:23:22Z</time></trkpt><trkpt lat="40.778931" lon=".591564"><ele>117.834</ele><time>2026-04-17T09:23:23Z</time></trkpt><trkpt lat="40.778901" lon=".591574"><ele>117.855</ele><time>2026-04-17T09:23:24Z</time></trkpt><trkpt lat="40.77887" lon=".591592"><ele>117.871</ele><time>2026-04-17T09:23:25Z</time></trkpt><trkpt lat="40.778848" lon=".591611"><ele>117.872</ele><time>2026-04-17T09:23:26Z</time></trkpt><trkpt lat="40.778815" lon=".591629"><ele>117.620</ele><time>2026-04-17T09:23:27Z</time></trkpt><trkpt lat="40.778772" lon=".591644"><ele>117.618</ele><time>2026-04-17T09:23:28Z</time></trkpt><trkpt lat="40.778728" lon=".591668"><ele>117.628</ele><time>2026-04-17T09:23:29Z</time></trkpt><trkpt lat="40.778686" lon=".591692"><ele>117.689</ele><time>2026-04-17T09:23:30Z</time></trkpt><trkpt lat="40.778642" lon=".591692"><ele>117.617</ele><time>2026-04-17T09:23:31Z</time></trkpt><trkpt lat="40.778606" lon=".591677"><ele>117.609</ele><time>2026-04-17T09:23:32Z</time></trkpt><trkpt lat="40.778558" lon=".59167"><ele>117.624</ele><time>2026-04-17T09:23:33Z</time></trkpt><trkpt lat="40.778505" lon=".591674"><ele>117.218</ele><time>2026-04-17T09:23:34Z</time></trkpt><trkpt lat="40.778448" lon=".591674"><ele>117.232</ele><time>2026-04-17T09:23:35Z</time></trkpt><trkpt lat="40.778395" lon=".591669"><ele>116.885</ele><time>2026-04-17T09:23:36Z</time></trkpt><trkpt lat="40.778303" lon=".591649"><ele>116.286</ele><time>2026-04-17T09:23:39Z</time></trkpt><trkpt lat="40.778284" lon=".591655"><ele>116.032</ele><time>2026-04-17T09:23:40Z</time></trkpt><trkpt lat="40.778252" lon=".591671"><ele>115.883</ele><time>2026-04-17T09:23:41Z</time></trkpt><trkpt lat="40.778219" lon=".591695"><ele>115.621</ele><time>2026-04-17T09:23:42Z</time></trkpt><trkpt lat="40.778179" lon=".591724"><ele>115.239</ele><time>2026-04-17T09:23:43Z</time></trkpt><trkpt lat="40.778143" lon=".591748"><ele>114.812</ele><time>2026-04-17T09:23:44Z</time></trkpt><trkpt lat="40.778096" lon=".591767"><ele>114.632</ele><time>2026-04-17T09:23:45Z</time></trkpt><trkpt lat="40.778045" lon=".591799"><ele>114.205</ele><time>2026-04-17T09:23:46Z</time></trkpt><trkpt lat="40.777953" lon=".591869"><ele>114.009</ele><time>2026-04-17T09:23:48Z</time></trkpt><trkpt lat="40.777915" lon=".591893"><ele>113.873</ele><time>2026-04-17T09:23:49Z</time></trkpt><trkpt lat="40.777883" lon=".591912"><ele>113.457</ele><time>2026-04-17T09:23:50Z</time></trkpt><trkpt lat="40.777854" lon=".59193"><ele>113.071</ele><time>2026-04-17T09:23:51Z</time></trkpt><trkpt lat="40.77783" lon=".591939"><ele>112.414</ele><time>2026-04-17T09:23:52Z</time></trkpt><trkpt lat="40.77781" lon=".591933"><ele>111.855</ele><time>2026-04-17T09:23:53Z</time></trkpt><trkpt lat="40.77779" lon=".591909"><ele>111.451</ele><time>2026-04-17T09:23:54Z</time></trkpt><trkpt lat="40.777775" lon=".591893"><ele>110.692</ele><time>2026-04-17T09:23:55Z</time></trkpt><trkpt lat="40.777759" lon=".591895"><ele>110.430</ele><time>2026-04-17T09:23:56Z</time></trkpt><trkpt lat="40.777739" lon=".591909"><ele>109.818</ele><time>2026-04-17T09:23:57Z</time></trkpt><trkpt lat="40.777717" lon=".591929"><ele>109.646</ele><time>2026-04-17T09:23:58Z</time></trkpt><trkpt lat="40.777644" lon=".591982"><ele>108.888</ele><time>2026-04-17T09:24:00Z</time></trkpt><trkpt lat="40.777597" lon=".592012"><ele>108.616</ele><time>2026-04-17T09:24:01Z</time></trkpt><trkpt lat="40.777551" lon=".592028"><ele>108.009</ele><time>2026-04-17T09:24:02Z</time></trkpt><trkpt lat="40.777461" lon=".592009"><ele>107.256</ele><time>2026-04-17T09:24:04Z</time></trkpt><trkpt lat="40.777429" lon=".591984"><ele>107.030</ele><time>2026-04-17T09:24:05Z</time></trkpt><trkpt lat="40.777389" lon=".591964"><ele>106.674</ele><time>2026-04-17T09:24:06Z</time></trkpt><trkpt lat="40.7773" lon=".591942"><ele>106.227</ele><time>2026-04-17T09:24:08Z</time></trkpt><trkpt lat="40.777254" lon=".591899"><ele>106.258</ele><time>2026-04-17T09:24:09Z</time></trkpt><trkpt lat="40.777199" lon=".591851"><ele>106.024</ele><time>2026-04-17T09:24:10Z</time></trkpt><trkpt lat="40.777145" lon=".59182"><ele>105.615</ele><time>2026-04-17T09:24:11Z</time></trkpt><trkpt lat="40.777042" lon=".591786"><ele>105.423</ele><time>2026-04-17T09:24:13Z</time></trkpt><trkpt lat="40.776997" lon=".591766"><ele>105.251</ele><time>2026-04-17T09:24:14Z</time></trkpt><trkpt lat="40.776937" lon=".591756"><ele>103.427</ele><time>2026-04-17T09:24:15Z</time></trkpt><trkpt lat="40.776882" lon=".591743"><ele>102.268</ele><time>2026-04-17T09:24:16Z</time></trkpt><trkpt lat="40.776845" lon=".59173"><ele>100.814</ele><time>2026-04-17T09:24:17Z</time></trkpt><trkpt lat="40.776807" lon=".591701"><ele>100.209</ele><time>2026-04-17T09:24:18Z</time></trkpt><trkpt lat="40.776761" lon=".591674"><ele>100.084</ele><time>2026-04-17T09:24:19Z</time></trkpt><trkpt lat="40.776722" lon=".591663"><ele>99.648</ele><time>2026-04-17T09:24:20Z</time></trkpt><trkpt lat="40.77669" lon=".591644"><ele>99.242</ele><time>2026-04-17T09:24:21Z</time></trkpt><trkpt lat="40.776657" lon=".591622"><ele>98.685</ele><time>2026-04-17T09:24:22Z</time></trkpt><trkpt lat="40.776638" lon=".591602"><ele>98.486</ele><time>2026-04-17T09:24:23Z</time></trkpt><trkpt lat="40.776619" lon=".591581"><ele>98.272</ele><time>2026-04-17T09:24:24Z</time></trkpt><trkpt lat="40.776578" lon=".591554"><ele>98.223</ele><time>2026-04-17T09:24:25Z</time></trkpt><trkpt lat="40.776481" lon=".591503"><ele>97.681</ele><time>2026-04-17T09:24:27Z</time></trkpt><trkpt lat="40.776436" lon=".591504"><ele>97.479</ele><time>2026-04-17T09:24:28Z</time></trkpt><trkpt lat="40.776398" lon=".591505"><ele>97.029</ele><time>2026-04-17T09:24:29Z</time></trkpt><trkpt lat="40.776372" lon=".591496"><ele>96.800</ele><time>2026-04-17T09:24:30Z</time></trkpt><trkpt lat="40.776357" lon=".591475"><ele>96.620</ele><time>2026-04-17T09:24:31Z</time></trkpt><trkpt lat="40.776339" lon=".591443"><ele>96.609</ele><time>2026-04-17T09:24:32Z</time></trkpt><trkpt lat="40.776311" lon=".591417"><ele>96.074</ele><time>2026-04-17T09:24:33Z</time></trkpt><trkpt lat="40.776277" lon=".591401"><ele>95.878</ele><time>2026-04-17T09:24:34Z</time></trkpt><trkpt lat="40.776234" lon=".591395"><ele>95.212</ele><time>2026-04-17T09:24:35Z</time></trkpt><trkpt lat="40.776154" lon=".591395"><ele>93.825</ele><time>2026-04-17T09:24:37Z</time></trkpt><trkpt lat="40.776116" lon=".591405"><ele>93.076</ele><time>2026-04-17T09:24:38Z</time></trkpt><trkpt lat="40.776074" lon=".591411"><ele>92.832</ele><time>2026-04-17T09:24:39Z</time></trkpt><trkpt lat="40.77603" lon=".591424"><ele>92.413</ele><time>2026-04-17T09:24:40Z</time></trkpt><trkpt lat="40.77594" lon=".591458"><ele>92.231</ele><time>2026-04-17T09:24:42Z</time></trkpt><trkpt lat="40.775897" lon=".591483"><ele>92.219</ele><time>2026-04-17T09:24:43Z</time></trkpt><trkpt lat="40.775813" lon=".591527"><ele>91.665</ele><time>2026-04-17T09:24:45Z</time></trkpt><trkpt lat="40.775771" lon=".591535"><ele>91.668</ele><time>2026-04-17T09:24:46Z</time></trkpt><trkpt lat="40.775731" lon=".591524"><ele>91.614</ele><time>2026-04-17T09:24:47Z</time></trkpt><trkpt lat="40.775689" lon=".591506"><ele>91.409</ele><time>2026-04-17T09:24:48Z</time></trkpt><trkpt lat="40.775645" lon=".591497"><ele>91.468</ele><time>2026-04-17T09:24:49Z</time></trkpt><trkpt lat="40.7756" lon=".591494"><ele>91.432</ele><time>2026-04-17T09:24:50Z</time></trkpt><trkpt lat="40.775552" lon=".591498"><ele>91.276</ele><time>2026-04-17T09:24:51Z</time></trkpt><trkpt lat="40.775503" lon=".591502"><ele>91.029</ele><time>2026-04-17T09:24:52Z</time></trkpt><trkpt lat="40.775459" lon=".591522"><ele>91.030</ele><time>2026-04-17T09:24:53Z</time></trkpt><trkpt lat="40.77538" lon=".591554"><ele>90.686</ele><time>2026-04-17T09:24:55Z</time></trkpt><trkpt lat="40.775347" lon=".591579"><ele>90.287</ele><time>2026-04-17T09:24:56Z</time></trkpt><trkpt lat="40.775308" lon=".591601"><ele>90.285</ele><time>2026-04-17T09:24:57Z</time></trkpt><trkpt lat="40.775274" lon=".591607"><ele>89.823</ele><time>2026-04-17T09:24:58Z</time></trkpt><trkpt lat="40.775207" lon=".59165"><ele>89.477</ele><time>2026-04-17T09:25:00Z</time></trkpt><trkpt lat="40.775176" lon=".591677"><ele>89.461</ele><time>2026-04-17T09:25:01Z</time></trkpt><trkpt lat="40.775144" lon=".591703"><ele>89.427</ele><time>2026-04-17T09:25:02Z</time></trkpt><trkpt lat="40.775082" lon=".591739"><ele>89.609</ele><time>2026-04-17T09:25:04Z</time></trkpt><trkpt lat="40.775028" lon=".59177"><ele>89.619</ele><time>2026-04-17T09:25:06Z</time></trkpt><trkpt lat="40.774996" lon=".591792"><ele>89.643</ele><time>2026-04-17T09:25:07Z</time></trkpt><trkpt lat="40.774963" lon=".591821"><ele>89.847</ele><time>2026-04-17T09:25:08Z</time></trkpt><trkpt lat="40.774877" lon=".591862"><ele>90.240</ele><time>2026-04-17T09:25:11Z</time></trkpt><trkpt lat="40.774846" lon=".591845"><ele>90.431</ele><time>2026-04-17T09:25:12Z</time></trkpt><trkpt lat="40.774825" lon=".591802"><ele>90.497</ele><time>2026-04-17T09:25:13Z</time></trkpt><trkpt lat="40.774794" lon=".591701"><ele>90.218</ele><time>2026-04-17T09:25:16Z</time></trkpt><trkpt lat="40.77479" lon=".591614"><ele>89.696</ele><time>2026-04-17T09:25:18Z</time></trkpt><trkpt lat="40.77477" lon=".591584"><ele>89.654</ele><time>2026-04-17T09:25:19Z</time></trkpt><trkpt lat="40.77474" lon=".591575"><ele>89.475</ele><time>2026-04-17T09:25:20Z</time></trkpt><trkpt lat="40.774698" lon=".591569"><ele>89.028</ele><time>2026-04-17T09:25:21Z</time></trkpt><trkpt lat="40.774634" lon=".591553"><ele>88.420</ele><time>2026-04-17T09:25:22Z</time></trkpt><trkpt lat="40.774581" lon=".591536"><ele>87.609</ele><time>2026-04-17T09:25:23Z</time></trkpt><trkpt lat="40.774541" lon=".591542"><ele>87.419</ele><time>2026-04-17T09:25:24Z</time></trkpt><trkpt lat="40.774517" lon=".591548"><ele>86.463</ele><time>2026-04-17T09:25:25Z</time></trkpt><trkpt lat="40.774494" lon=".591542"><ele>85.617</ele><time>2026-04-17T09:25:26Z</time></trkpt><trkpt lat="40.774455" lon=".591532"><ele>85.270</ele><time>2026-04-17T09:25:27Z</time></trkpt><trkpt lat="40.774418" lon=".591534"><ele>84.621</ele><time>2026-04-17T09:25:28Z</time></trkpt><trkpt lat="40.774388" lon=".591524"><ele>84.667</ele><time>2026-04-17T09:25:29Z</time></trkpt><trkpt lat="40.774368" lon=".591506"><ele>84.438</ele><time>2026-04-17T09:25:30Z</time></trkpt><trkpt lat="40.774352" lon=".59149"><ele>84.236</ele><time>2026-04-17T09:25:31Z</time></trkpt><trkpt lat="40.774344" lon=".591471"><ele>84.054</ele><time>2026-04-17T09:25:32Z</time></trkpt><trkpt lat="40.774344" lon=".591451"><ele>84.095</ele><time>2026-04-17T09:25:33Z</time></trkpt><trkpt lat="40.774352" lon=".591425"><ele>83.849</ele><time>2026-04-17T09:25:34Z</time></trkpt><trkpt lat="40.774368" lon=".591395"><ele>83.623</ele><time>2026-04-17T09:25:35Z</time></trkpt><trkpt lat="40.774395" lon=".591356"><ele>83.609</ele><time>2026-04-17T09:25:36Z</time></trkpt><trkpt lat="40.774462" lon=".591302"><ele>83.611</ele><time>2026-04-17T09:25:38Z</time></trkpt><trkpt lat="40.774488" lon=".591281"><ele>83.235</ele><time>2026-04-17T09:25:39Z</time></trkpt><trkpt lat="40.77451" lon=".591262"><ele>82.689</ele><time>2026-04-17T09:25:40Z</time></trkpt><trkpt lat="40.774529" lon=".591248"><ele>81.832</ele><time>2026-04-17T09:25:41Z</time></trkpt><trkpt lat="40.774541" lon=".59123"><ele>81.473</ele><time>2026-04-17T09:25:42Z</time></trkpt><trkpt lat="40.774543" lon=".591204"><ele>80.089</ele><time>2026-04-17T09:25:43Z</time></trkpt><trkpt lat="40.774533" lon=".591187"><ele>79.070</ele><time>2026-04-17T09:25:44Z</time></trkpt><trkpt lat="40.774511" lon=".591184"><ele>78.848</ele><time>2026-04-17T09:25:45Z</time></trkpt><trkpt lat="40.774484" lon=".591188"><ele>78.666</ele><time>2026-04-17T09:25:46Z</time></trkpt><trkpt lat="40.774451" lon=".591186"><ele>78.697</ele><time>2026-04-17T09:25:47Z</time></trkpt><trkpt lat="40.774412" lon=".591175"><ele>78.223</ele><time>2026-04-17T09:25:48Z</time></trkpt><trkpt lat="40.774378" lon=".591156"><ele>78.025</ele><time>2026-04-17T09:25:49Z</time></trkpt><trkpt lat="40.774347" lon=".591123"><ele>77.209</ele><time>2026-04-17T09:25:50Z</time></trkpt><trkpt lat="40.774308" lon=".591079"><ele>76.241</ele><time>2026-04-17T09:25:51Z</time></trkpt><trkpt lat="40.774283" lon=".591032"><ele>76.085</ele><time>2026-04-17T09:25:52Z</time></trkpt><trkpt lat="40.774271" lon=".590975"><ele>75.439</ele><time>2026-04-17T09:25:53Z</time></trkpt><trkpt lat="40.774259" lon=".590913"><ele>75.042</ele><time>2026-04-17T09:25:54Z</time></trkpt><trkpt lat="40.774251" lon=".590862"><ele>74.423</ele><time>2026-04-17T09:25:55Z</time></trkpt><trkpt lat="40.774242" lon=".590798"><ele>74.239</ele><time>2026-04-17T09:25:56Z</time></trkpt><trkpt lat="40.774241" lon=".590717"><ele>73.680</ele><time>2026-04-17T09:25:57Z</time></trkpt><trkpt lat="40.774245" lon=".59064"><ele>73.248</ele><time>2026-04-17T09:25:58Z</time></trkpt><trkpt lat="40.774249" lon=".590555"><ele>71.886</ele><time>2026-04-17T09:25:59Z</time></trkpt><trkpt lat="40.774251" lon=".590476"><ele>70.869</ele><time>2026-04-17T09:26:00Z</time></trkpt><trkpt lat="40.77425" lon=".590407"><ele>70.204</ele><time>2026-04-17T09:26:01Z</time></trkpt><trkpt lat="40.774249" lon=".590348"><ele>69.424</ele><time>2026-04-17T09:26:02Z</time></trkpt><trkpt lat="40.774258" lon=".59028"><ele>69.209</ele><time>2026-04-17T09:26:03Z</time></trkpt><trkpt lat="40.774269" lon=".590214"><ele>69.098</ele><time>2026-04-17T09:26:04Z</time></trkpt><trkpt lat="40.774277" lon=".590167"><ele>68.882</ele><time>2026-04-17T09:26:05Z</time></trkpt><trkpt lat="40.774289" lon=".590136"><ele>68.496</ele><time>2026-04-17T09:26:06Z</time></trkpt><trkpt lat="40.774292" lon=".59011"><ele>68.459</ele><time>2026-04-17T09:26:07Z</time></trkpt><trkpt lat="40.774286" lon=".59009"><ele>68.490</ele><time>2026-04-17T09:26:08Z</time></trkpt><trkpt lat="40.774265" lon=".590079"><ele>68.456</ele><time>2026-04-17T09:26:09Z</time></trkpt><trkpt lat="40.774241" lon=".590095"><ele>68.457</ele><time>2026-04-17T09:26:10Z</time></trkpt><trkpt lat="40.774212" lon=".590111"><ele>68.425</ele><time>2026-04-17T09:26:11Z</time></trkpt><trkpt lat="40.77418" lon=".590129"><ele>68.483</ele><time>2026-04-17T09:26:12Z</time></trkpt><trkpt lat="40.774062" lon=".590188"><ele>68.475</ele><time>2026-04-17T09:26:15Z</time></trkpt><trkpt lat="40.774013" lon=".590203"><ele>68.428</ele><time>2026-04-17T09:26:16Z</time></trkpt><trkpt lat="40.773907" lon=".590221"><ele>68.020</ele><time>2026-04-17T09:26:18Z</time></trkpt><trkpt lat="40.773795" lon=".590252"><ele>67.209</ele><time>2026-04-17T09:26:20Z</time></trkpt><trkpt lat="40.773739" lon=".590276"><ele>67.049</ele><time>2026-04-17T09:26:21Z</time></trkpt><trkpt lat="40.77351" lon=".590428"><ele>65.613</ele><time>2026-04-17T09:26:25Z</time></trkpt><trkpt lat="40.773317" lon=".59054"><ele>64.847</ele><time>2026-04-17T09:26:28Z</time></trkpt><trkpt lat="40.773243" lon=".590552"><ele>64.620</ele><time>2026-04-17T09:26:29Z</time></trkpt><trkpt lat="40.773163" lon=".590546"><ele>64.641</ele><time>2026-04-17T09:26:30Z</time></trkpt><trkpt lat="40.773079" lon=".590526"><ele>64.037</ele><time>2026-04-17T09:26:31Z</time></trkpt><trkpt lat="40.772992" lon=".590503"><ele>63.648</ele><time>2026-04-17T09:26:32Z</time></trkpt><trkpt lat="40.772905" lon=".590475"><ele>63.026</ele><time>2026-04-17T09:26:33Z</time></trkpt><trkpt lat="40.772656" lon=".590341"><ele>61.254</ele><time>2026-04-17T09:26:36Z</time></trkpt><trkpt lat="40.772578" lon=".590287"><ele>60.692</ele><time>2026-04-17T09:26:37Z</time></trkpt><trkpt lat="40.772502" lon=".590229"><ele>59.273</ele><time>2026-04-17T09:26:38Z</time></trkpt><trkpt lat="40.772359" lon=".5901"><ele>58.420</ele><time>2026-04-17T09:26:40Z</time></trkpt><trkpt lat="40.772298" lon=".590023"><ele>58.209</ele><time>2026-04-17T09:26:41Z</time></trkpt><trkpt lat="40.772245" lon=".589936"><ele>58.021</ele><time>2026-04-17T09:26:42Z</time></trkpt><trkpt lat="40.772165" lon=".589747"><ele>57.835</ele><time>2026-04-17T09:26:44Z</time></trkpt><trkpt lat="40.772134" lon=".589645"><ele>57.819</ele><time>2026-04-17T09:26:45Z</time></trkpt><trkpt lat="40.772105" lon=".589543"><ele>57.892</ele><time>2026-04-17T09:26:46Z</time></trkpt><trkpt lat="40.772073" lon=".589444"><ele>57.633</ele><time>2026-04-17T09:26:47Z</time></trkpt><trkpt lat="40.772036" lon=".589349"><ele>57.699</ele><time>2026-04-17T09:26:48Z</time></trkpt><trkpt lat="40.771997" lon=".589252"><ele>57.690</ele><time>2026-04-17T09:26:49Z</time></trkpt><trkpt lat="40.77192" lon=".589055"><ele>57.228</ele><time>2026-04-17T09:26:51Z</time></trkpt><trkpt lat="40.771847" lon=".58886"><ele>56.826</ele><time>2026-04-17T09:26:53Z</time></trkpt><trkpt lat="40.771647" lon=".588397"><ele>55.663</ele><time>2026-04-17T09:26:58Z</time></trkpt><trkpt lat="40.771436" lon=".588104"><ele>55.644</ele><time>2026-04-17T09:27:02Z</time></trkpt><trkpt lat="40.771378" lon=".588041"><ele>55.618</ele><time>2026-04-17T09:27:03Z</time></trkpt><trkpt lat="40.771317" lon=".58798"><ele>55.609</ele><time>2026-04-17T09:27:04Z</time></trkpt><trkpt lat="40.771254" lon=".587922"><ele>55.678</ele><time>2026-04-17T09:27:05Z</time></trkpt><trkpt lat="40.770968" lon=".587713"><ele>55.442</ele><time>2026-04-17T09:27:09Z</time></trkpt><trkpt lat="40.77074" lon=".587571"><ele>54.276</ele><time>2026-04-17T09:27:12Z</time></trkpt><trkpt lat="40.770572" lon=".587477"><ele>53.659</ele><time>2026-04-17T09:27:14Z</time></trkpt><trkpt lat="40.770497" lon=".58742"><ele>53.450</ele><time>2026-04-17T09:27:15Z</time></trkpt><trkpt lat="40.770432" lon=".587358"><ele>53.256</ele><time>2026-04-17T09:27:16Z</time></trkpt><trkpt lat="40.770374" lon=".587293"><ele>52.687</ele><time>2026-04-17T09:27:17Z</time></trkpt><trkpt lat="40.770321" lon=".587226"><ele>52.485</ele><time>2026-04-17T09:27:18Z</time></trkpt><trkpt lat="40.770269" lon=".587159"><ele>52.293</ele><time>2026-04-17T09:27:19Z</time></trkpt><trkpt lat="40.770214" lon=".587094"><ele>52.284</ele><time>2026-04-17T09:27:20Z</time></trkpt><trkpt lat="40.77016" lon=".587032"><ele>52.007</ele><time>2026-04-17T09:27:21Z</time></trkpt><trkpt lat="40.770116" lon=".586974"><ele>51.817</ele><time>2026-04-17T09:27:22Z</time></trkpt><trkpt lat="40.770088" lon=".586916"><ele>51.609</ele><time>2026-04-17T09:27:23Z</time></trkpt><trkpt lat="40.770077" lon=".586853"><ele>51.440</ele><time>2026-04-17T09:27:24Z</time></trkpt><trkpt lat="40.770083" lon=".586789"><ele>51.474</ele><time>2026-04-17T09:27:25Z</time></trkpt><trkpt lat="40.770105" lon=".586736"><ele>51.668</ele><time>2026-04-17T09:27:26Z</time></trkpt><trkpt lat="40.770139" lon=".586694"><ele>51.821</ele><time>2026-04-17T09:27:27Z</time></trkpt><trkpt lat="40.770175" lon=".586657"><ele>51.862</ele><time>2026-04-17T09:27:28Z</time></trkpt><trkpt lat="40.770211" lon=".586616"><ele>52.088</ele><time>2026-04-17T09:27:29Z</time></trkpt><trkpt lat="40.770245" lon=".58657"><ele>52.099</ele><time>2026-04-17T09:27:30Z</time></trkpt><trkpt lat="40.770277" lon=".586519"><ele>52.047</ele><time>2026-04-17T09:27:31Z</time></trkpt><trkpt lat="40.770307" lon=".586461"><ele>52.295</ele><time>2026-04-17T09:27:32Z</time></trkpt><trkpt lat="40.7704" lon=".586274"><ele>52.859</ele><time>2026-04-17T09:27:35Z</time></trkpt><trkpt lat="40.770436" lon=".586218"><ele>53.003</ele><time>2026-04-17T09:27:36Z</time></trkpt><trkpt lat="40.770509" lon=".5861"><ele>53.223</ele><time>2026-04-17T09:27:38Z</time></trkpt><trkpt lat="40.770631" lon=".585913"><ele>53.609</ele><time>2026-04-17T09:27:41Z</time></trkpt><trkpt lat="40.770704" lon=".585749"><ele>53.677</ele><time>2026-04-17T09:27:43Z</time></trkpt><trkpt lat="40.770756" lon=".585459"><ele>53.251</ele><time>2026-04-17T09:27:46Z</time></trkpt><trkpt lat="40.770762" lon=".585361"><ele>53.035</ele><time>2026-04-17T09:27:47Z</time></trkpt><trkpt lat="40.77076" lon=".585263"><ele>52.418</ele><time>2026-04-17T09:27:48Z</time></trkpt><trkpt lat="40.770751" lon=".58517"><ele>52.229</ele><time>2026-04-17T09:27:49Z</time></trkpt><trkpt lat="40.77073" lon=".585086"><ele>52.045</ele><time>2026-04-17T09:27:50Z</time></trkpt><trkpt lat="40.770697" lon=".585015"><ele>51.826</ele><time>2026-04-17T09:27:51Z</time></trkpt><trkpt lat="40.770659" lon=".584954"><ele>51.884</ele><time>2026-04-17T09:27:52Z</time></trkpt><trkpt lat="40.770619" lon=".584902"><ele>51.862</ele><time>2026-04-17T09:27:53Z</time></trkpt><trkpt lat="40.770581" lon=".584851"><ele>51.849</ele><time>2026-04-17T09:27:54Z</time></trkpt><trkpt lat="40.770544" lon=".584799"><ele>51.802</ele><time>2026-04-17T09:27:55Z</time></trkpt><trkpt lat="40.770506" lon=".584748"><ele>51.822</ele><time>2026-04-17T09:27:56Z</time></trkpt><trkpt lat="40.77047" lon=".584694"><ele>52.009</ele><time>2026-04-17T09:27:57Z</time></trkpt><trkpt lat="40.770345" lon=".58441"><ele>52.416</ele><time>2026-04-17T09:28:01Z</time></trkpt><trkpt lat="40.770338" lon=".584204"><ele>52.410</ele><time>2026-04-17T09:28:03Z</time></trkpt><trkpt lat="40.770345" lon=".584091"><ele>52.214</ele><time>2026-04-17T09:28:04Z</time></trkpt><trkpt lat="40.770353" lon=".583976"><ele>52.067</ele><time>2026-04-17T09:28:05Z</time></trkpt><trkpt lat="40.770361" lon=".583858"><ele>50.688</ele><time>2026-04-17T09:28:06Z</time></trkpt><trkpt lat="40.770363" lon=".583737"><ele>49.684</ele><time>2026-04-17T09:28:07Z</time></trkpt><trkpt lat="40.77036" lon=".583481"><ele>47.865</ele><time>2026-04-17T09:28:09Z</time></trkpt><trkpt lat="40.770369" lon=".583258"><ele>46.463</ele><time>2026-04-17T09:28:11Z</time></trkpt><trkpt lat="40.770377" lon=".583132"><ele>46.211</ele><time>2026-04-17T09:28:12Z</time></trkpt><trkpt lat="40.770374" lon=".58305"><ele>46.052</ele><time>2026-04-17T09:28:13Z</time></trkpt><trkpt lat="40.770353" lon=".582989"><ele>45.853</ele><time>2026-04-17T09:28:14Z</time></trkpt><trkpt lat="40.770326" lon=".582955"><ele>45.808</ele><time>2026-04-17T09:28:15Z</time></trkpt><trkpt lat="40.770278" lon=".582918"><ele>45.809</ele><time>2026-04-17T09:28:16Z</time></trkpt><trkpt lat="40.770228" lon=".582896"><ele>45.847</ele><time>2026-04-17T09:28:17Z</time></trkpt><trkpt lat="40.770176" lon=".582878"><ele>45.851</ele><time>2026-04-17T09:28:18Z</time></trkpt><trkpt lat="40.770119" lon=".582862"><ele>46.025</ele><time>2026-04-17T09:28:19Z</time></trkpt><trkpt lat="40.770063" lon=".582856"><ele>46.438</ele><time>2026-04-17T09:28:20Z</time></trkpt><trkpt lat="40.770008" lon=".582863"><ele>46.869</ele><time>2026-04-17T09:28:21Z</time></trkpt><trkpt lat="40.769958" lon=".58288"><ele>47.235</ele><time>2026-04-17T09:28:22Z</time></trkpt><trkpt lat="40.769913" lon=".582897"><ele>47.666</ele><time>2026-04-17T09:28:23Z</time></trkpt><trkpt lat="40.769871" lon=".582909"><ele>47.824</ele><time>2026-04-17T09:28:24Z</time></trkpt><trkpt lat="40.769829" lon=".58292"><ele>48.482</ele><time>2026-04-17T09:28:25Z</time></trkpt><trkpt lat="40.769788" lon=".582928"><ele>48.698</ele><time>2026-04-17T09:28:26Z</time></trkpt><trkpt lat="40.769748" lon=".582934"><ele>49.215</ele><time>2026-04-17T09:28:27Z</time></trkpt><trkpt lat="40.769706" lon=".582944"><ele>49.426</ele><time>2026-04-17T09:28:28Z</time></trkpt><trkpt lat="40.769663" lon=".582959"><ele>49.809</ele><time>2026-04-17T09:28:29Z</time></trkpt><trkpt lat="40.76957" lon=".582987"><ele>50.481</ele><time>2026-04-17T09:28:31Z</time></trkpt><trkpt lat="40.769462" lon=".583007"><ele>51.225</ele><time>2026-04-17T09:28:33Z</time></trkpt><trkpt lat="40.769346" lon=".583011"><ele>51.429</ele><time>2026-04-17T09:28:35Z</time></trkpt><trkpt lat="40.769229" lon=".58299"><ele>51.452</ele><time>2026-04-17T09:28:37Z</time></trkpt><trkpt lat="40.769172" lon=".582973"><ele>51.233</ele><time>2026-04-17T09:28:38Z</time></trkpt><trkpt lat="40.769115" lon=".582956"><ele>51.289</ele><time>2026-04-17T09:28:39Z</time></trkpt><trkpt lat="40.769059" lon=".582943"><ele>51.290</ele><time>2026-04-17T09:28:40Z</time></trkpt><trkpt lat="40.769005" lon=".582935"><ele>51.048</ele><time>2026-04-17T09:28:41Z</time></trkpt><trkpt lat="40.768953" lon=".582933"><ele>51.066</ele><time>2026-04-17T09:28:42Z</time></trkpt><trkpt lat="40.768905" lon=".58293"><ele>51.027</ele><time>2026-04-17T09:28:43Z</time></trkpt><trkpt lat="40.76886" lon=".582922"><ele>51.068</ele><time>2026-04-17T09:28:44Z</time></trkpt><trkpt lat="40.768818" lon=".582905"><ele>51.214</ele><time>2026-04-17T09:28:45Z</time></trkpt><trkpt lat="40.768771" lon=".582886"><ele>51.409</ele><time>2026-04-17T09:28:46Z</time></trkpt><trkpt lat="40.768725" lon=".582864"><ele>52.014</ele><time>2026-04-17T09:28:47Z</time></trkpt><trkpt lat="40.768679" lon=".582841"><ele>52.078</ele><time>2026-04-17T09:28:48Z</time></trkpt><trkpt lat="40.768635" lon=".582821"><ele>52.492</ele><time>2026-04-17T09:28:49Z</time></trkpt><trkpt lat="40.76859" lon=".582799"><ele>52.625</ele><time>2026-04-17T09:28:50Z</time></trkpt><trkpt lat="40.768543" lon=".582775"><ele>52.876</ele><time>2026-04-17T09:28:51Z</time></trkpt><trkpt lat="40.768492" lon=".582747"><ele>52.822</ele><time>2026-04-17T09:28:52Z</time></trkpt><trkpt lat="40.768439" lon=".582715"><ele>53.063</ele><time>2026-04-17T09:28:53Z</time></trkpt><trkpt lat="40.768381" lon=".582679"><ele>53.221</ele><time>2026-04-17T09:28:54Z</time></trkpt><trkpt lat="40.768316" lon=".582644"><ele>53.219</ele><time>2026-04-17T09:28:55Z</time></trkpt><trkpt lat="40.768265" lon=".582616"><ele>53.295</ele><time>2026-04-17T09:28:56Z</time></trkpt><trkpt lat="40.768187" lon=".582571"><ele>52.849</ele><time>2026-04-17T09:28:57Z</time></trkpt><trkpt lat="40.768125" lon=".58253"><ele>52.423</ele><time>2026-04-17T09:28:58Z</time></trkpt><trkpt lat="40.768065" lon=".58248"><ele>52.009</ele><time>2026-04-17T09:28:59Z</time></trkpt><trkpt lat="40.768" lon=".582416"><ele>51.621</ele><time>2026-04-17T09:29:00Z</time></trkpt><trkpt lat="40.767935" lon=".582346"><ele>50.825</ele><time>2026-04-17T09:29:01Z</time></trkpt><trkpt lat="40.76787" lon=".58228"><ele>50.639</ele><time>2026-04-17T09:29:02Z</time></trkpt><trkpt lat="40.76775" lon=".582157"><ele>49.452</ele><time>2026-04-17T09:29:04Z</time></trkpt><trkpt lat="40.767693" lon=".582093"><ele>48.613</ele><time>2026-04-17T09:29:05Z</time></trkpt><trkpt lat="40.767632" lon=".582033"><ele>48.269</ele><time>2026-04-17T09:29:06Z</time></trkpt><trkpt lat="40.767403" lon=".581782"><ele>47.480</ele><time>2026-04-17T09:29:10Z</time></trkpt><trkpt lat="40.767357" lon=".581711"><ele>47.418</ele><time>2026-04-17T09:29:11Z</time></trkpt><trkpt lat="40.767319" lon=".581632"><ele>47.296</ele><time>2026-04-17T09:29:12Z</time></trkpt><trkpt lat="40.767292" lon=".581552"><ele>47.052</ele><time>2026-04-17T09:29:13Z</time></trkpt><trkpt lat="40.767276" lon=".581468"><ele>47.053</ele><time>2026-04-17T09:29:14Z</time></trkpt><trkpt lat="40.767269" lon=".581391"><ele>46.808</ele><time>2026-04-17T09:29:15Z</time></trkpt><trkpt lat="40.767249" lon=".581331"><ele>46.809</ele><time>2026-04-17T09:29:16Z</time></trkpt><trkpt lat="40.767213" lon=".581298"><ele>46.827</ele><time>2026-04-17T09:29:17Z</time></trkpt><trkpt lat="40.767168" lon=".58128"><ele>46.821</ele><time>2026-04-17T09:29:18Z</time></trkpt><trkpt lat="40.767125" lon=".581256"><ele>46.865</ele><time>2026-04-17T09:29:19Z</time></trkpt><trkpt lat="40.767089" lon=".581221"><ele>46.868</ele><time>2026-04-17T09:29:20Z</time></trkpt><trkpt lat="40.767058" lon=".581173"><ele>47.089</ele><time>2026-04-17T09:29:21Z</time></trkpt><trkpt lat="40.767004" lon=".580991"><ele>47.495</ele><time>2026-04-17T09:29:24Z</time></trkpt><trkpt lat="40.766987" lon=".580932"><ele>47.616</ele><time>2026-04-17T09:29:25Z</time></trkpt><trkpt lat="40.766968" lon=".580871"><ele>47.634</ele><time>2026-04-17T09:29:26Z</time></trkpt><trkpt lat="40.766951" lon=".580809"><ele>47.622</ele><time>2026-04-17T09:29:27Z</time></trkpt><trkpt lat="40.766855" lon=".58064"><ele>47.631</ele><time>2026-04-17T09:29:30Z</time></trkpt><trkpt lat="40.766744" lon=".580489"><ele>47.861</ele><time>2026-04-17T09:29:33Z</time></trkpt><trkpt lat="40.766689" lon=".580357"><ele>47.807</ele><time>2026-04-17T09:29:35Z</time></trkpt><trkpt lat="40.766439" lon=".579831"><ele>47.409</ele><time>2026-04-17T09:29:43Z</time></trkpt><trkpt lat="40.766404" lon=".579762"><ele>47.265</ele><time>2026-04-17T09:29:44Z</time></trkpt><trkpt lat="40.766342" lon=".57962"><ele>47.079</ele><time>2026-04-17T09:29:46Z</time></trkpt><trkpt lat="40.766259" lon=".579493"><ele>46.623</ele><time>2026-04-17T09:29:48Z</time></trkpt><trkpt lat="40.766005" lon=".579186"><ele>45.886</ele><time>2026-04-17T09:29:53Z</time></trkpt><trkpt lat="40.765945" lon=".579131"><ele>46.057</ele><time>2026-04-17T09:29:54Z</time></trkpt><trkpt lat="40.76566" lon=".578863"><ele>44.613</ele><time>2026-04-17T09:29:59Z</time></trkpt><trkpt lat="40.765562" lon=".578726"><ele>44.024</ele><time>2026-04-17T09:30:01Z</time></trkpt><trkpt lat="40.765405" lon=".578491"><ele>43.872</ele><time>2026-04-17T09:30:04Z</time></trkpt><trkpt lat="40.76536" lon=".578403"><ele>43.450</ele><time>2026-04-17T09:30:05Z</time></trkpt><trkpt lat="40.765316" lon=".578308"><ele>43.256</ele><time>2026-04-17T09:30:06Z</time></trkpt><trkpt lat="40.765211" lon=".578101"><ele>42.459</ele><time>2026-04-17T09:30:08Z</time></trkpt><trkpt lat="40.765151" lon=".578004"><ele>42.014</ele><time>2026-04-17T09:30:09Z</time></trkpt><trkpt lat="40.76509" lon=".577911"><ele>41.809</ele><time>2026-04-17T09:30:10Z</time></trkpt><trkpt lat="40.76503" lon=".57782"><ele>40.017</ele><time>2026-04-17T09:30:11Z</time></trkpt><trkpt lat="40.764902" lon=".577653"><ele>39.041</ele><time>2026-04-17T09:30:13Z</time></trkpt><trkpt lat="40.764831" lon=".577576"><ele>37.465</ele><time>2026-04-17T09:30:14Z</time></trkpt><trkpt lat="40.76476" lon=".577495"><ele>36.648</ele><time>2026-04-17T09:30:15Z</time></trkpt><trkpt lat="40.76469" lon=".577406"><ele>35.439</ele><time>2026-04-17T09:30:16Z</time></trkpt><trkpt lat="40.764627" lon=".577315"><ele>35.055</ele><time>2026-04-17T09:30:17Z</time></trkpt><trkpt lat="40.764573" lon=".577212"><ele>34.246</ele><time>2026-04-17T09:30:18Z</time></trkpt><trkpt lat="40.764528" lon=".577096"><ele>34.054</ele><time>2026-04-17T09:30:19Z</time></trkpt><trkpt lat="40.764483" lon=".576859"><ele>32.812</ele><time>2026-04-17T09:30:21Z</time></trkpt><trkpt lat="40.764473" lon=".576732"><ele>32.219</ele><time>2026-04-17T09:30:22Z</time></trkpt><trkpt lat="40.764457" lon=".5766"><ele>31.409</ele><time>2026-04-17T09:30:23Z</time></trkpt><trkpt lat="40.764412" lon=".576354"><ele>30.019</ele><time>2026-04-17T09:30:25Z</time></trkpt><trkpt lat="40.764364" lon=".576265"><ele>29.009</ele><time>2026-04-17T09:30:26Z</time></trkpt><trkpt lat="40.764297" lon=".576223"><ele>27.853</ele><time>2026-04-17T09:30:27Z</time></trkpt><trkpt lat="40.764224" lon=".576213"><ele>27.497</ele><time>2026-04-17T09:30:28Z</time></trkpt><trkpt lat="40.764151" lon=".576215"><ele>26.851</ele><time>2026-04-17T09:30:29Z</time></trkpt><trkpt lat="40.764081" lon=".576225"><ele>26.884</ele><time>2026-04-17T09:30:30Z</time></trkpt><trkpt lat="40.764018" lon=".576242"><ele>26.685</ele><time>2026-04-17T09:30:31Z</time></trkpt><trkpt lat="40.763968" lon=".576259"><ele>26.631</ele><time>2026-04-17T09:30:32Z</time></trkpt><trkpt lat="40.763923" lon=".576282"><ele>26.692</ele><time>2026-04-17T09:30:33Z</time></trkpt><trkpt lat="40.763884" lon=".576307"><ele>26.860</ele><time>2026-04-17T09:30:34Z</time></trkpt><trkpt lat="40.763848" lon=".576336"><ele>26.878</ele><time>2026-04-17T09:30:35Z</time></trkpt><trkpt lat="40.763815" lon=".576361"><ele>27.285</ele><time>2026-04-17T09:30:36Z</time></trkpt><trkpt lat="40.763785" lon=".576387"><ele>27.489</ele><time>2026-04-17T09:30:37Z</time></trkpt><trkpt lat="40.763758" lon=".576416"><ele>28.417</ele><time>2026-04-17T09:30:38Z</time></trkpt><trkpt lat="40.763733" lon=".576447"><ele>29.209</ele><time>2026-04-17T09:30:39Z</time></trkpt><trkpt lat="40.763706" lon=".576481"><ele>29.420</ele><time>2026-04-17T09:30:40Z</time></trkpt><trkpt lat="40.763645" lon=".576543"><ele>30.214</ele><time>2026-04-17T09:30:42Z</time></trkpt><trkpt lat="40.76361" lon=".57657"><ele>30.618</ele><time>2026-04-17T09:30:43Z</time></trkpt><trkpt lat="40.763484" lon=".57665"><ele>31.091</ele><time>2026-04-17T09:30:46Z</time></trkpt><trkpt lat="40.763446" lon=".576688"><ele>31.012</ele><time>2026-04-17T09:30:47Z</time></trkpt><trkpt lat="40.763414" lon=".576746"><ele>31.078</ele><time>2026-04-17T09:30:48Z</time></trkpt><trkpt lat="40.7634" lon=".576823"><ele>31.069</ele><time>2026-04-17T09:30:49Z</time></trkpt><trkpt lat="40.763405" lon=".576905"><ele>31.027</ele><time>2026-04-17T09:30:50Z</time></trkpt><trkpt lat="40.763483" lon=".577197"><ele>30.845</ele><time>2026-04-17T09:30:54Z</time></trkpt><trkpt lat="40.763495" lon=".577252"><ele>30.644</ele><time>2026-04-17T09:30:55Z</time></trkpt><trkpt lat="40.763505" lon=".577296"><ele>30.605</ele><time>2026-04-17T09:30:56Z</time></trkpt><trkpt lat="40.763512" lon=".577334"><ele>30.615</ele><time>2026-04-17T09:30:57Z</time></trkpt><trkpt lat="40.763519" lon=".577369"><ele>30.609</ele><time>2026-04-17T09:30:58Z</time></trkpt><trkpt lat="40.763527" lon=".577405"><ele>30.646</ele><time>2026-04-17T09:30:59Z</time></trkpt><trkpt lat="40.763533" lon=".577443"><ele>30.890</ele><time>2026-04-17T09:31:00Z</time></trkpt><trkpt lat="40.763545" lon=".577527"><ele>31.854</ele><time>2026-04-17T09:31:02Z</time></trkpt><trkpt lat="40.763559" lon=".577625"><ele>33.067</ele><time>2026-04-17T09:31:04Z</time></trkpt><trkpt lat="40.763583" lon=".577732"><ele>33.658</ele><time>2026-04-17T09:31:06Z</time></trkpt><trkpt lat="40.76361" lon=".577833"><ele>34.094</ele><time>2026-04-17T09:31:08Z</time></trkpt><trkpt lat="40.763623" lon=".577882"><ele>34.055</ele><time>2026-04-17T09:31:09Z</time></trkpt><trkpt lat="40.763636" lon=".57793"><ele>34.293</ele><time>2026-04-17T09:31:10Z</time></trkpt><trkpt lat="40.76365" lon=".577977"><ele>34.411</ele><time>2026-04-17T09:31:11Z</time></trkpt><trkpt lat="40.763663" lon=".578021"><ele>34.658</ele><time>2026-04-17T09:31:12Z</time></trkpt><trkpt lat="40.763677" lon=".578063"><ele>34.852</ele><time>2026-04-17T09:31:13Z</time></trkpt><trkpt lat="40.763693" lon=".578101"><ele>35.017</ele><time>2026-04-17T09:31:14Z</time></trkpt><trkpt lat="40.763709" lon=".578139"><ele>35.209</ele><time>2026-04-17T09:31:15Z</time></trkpt><trkpt lat="40.763727" lon=".578177"><ele>35.457</ele><time>2026-04-17T09:31:16Z</time></trkpt><trkpt lat="40.763748" lon=".578214"><ele>36.021</ele><time>2026-04-17T09:31:17Z</time></trkpt><trkpt lat="40.763769" lon=".578252"><ele>36.265</ele><time>2026-04-17T09:31:18Z</time></trkpt><trkpt lat="40.763789" lon=".578292"><ele>36.498</ele><time>2026-04-17T09:31:19Z</time></trkpt><trkpt lat="40.76381" lon=".578331"><ele>36.639</ele><time>2026-04-17T09:31:20Z</time></trkpt><trkpt lat="40.763833" lon=".57837"><ele>37.015</ele><time>2026-04-17T09:31:21Z</time></trkpt><trkpt lat="40.763853" lon=".578409"><ele>37.696</ele><time>2026-04-17T09:31:22Z</time></trkpt><trkpt lat="40.763873" lon=".578448"><ele>38.054</ele><time>2026-04-17T09:31:23Z</time></trkpt><trkpt lat="40.763896" lon=".578489"><ele>38.432</ele><time>2026-04-17T09:31:24Z</time></trkpt><trkpt lat="40.763919" lon=".57853"><ele>38.696</ele><time>2026-04-17T09:31:25Z</time></trkpt><trkpt lat="40.763942" lon=".578572"><ele>38.831</ele><time>2026-04-17T09:31:26Z</time></trkpt><trkpt lat="40.763962" lon=".578615"><ele>38.824</ele><time>2026-04-17T09:31:27Z</time></trkpt><trkpt lat="40.763981" lon=".578657"><ele>39.209</ele><time>2026-04-17T09:31:28Z</time></trkpt><trkpt lat="40.763998" lon=".5787"><ele>39.421</ele><time>2026-04-17T09:31:29Z</time></trkpt><trkpt lat="40.764015" lon=".578741"><ele>39.675</ele><time>2026-04-17T09:31:30Z</time></trkpt><trkpt lat="40.764028" lon=".578782"><ele>39.869</ele><time>2026-04-17T09:31:31Z</time></trkpt><trkpt lat="40.764041" lon=".578823"><ele>39.852</ele><time>2026-04-17T09:31:32Z</time></trkpt><trkpt lat="40.764052" lon=".578867"><ele>40.293</ele><time>2026-04-17T09:31:33Z</time></trkpt><trkpt lat="40.764062" lon=".578911"><ele>40.259</ele><time>2026-04-17T09:31:34Z</time></trkpt><trkpt lat="40.764073" lon=".578957"><ele>40.620</ele><time>2026-04-17T09:31:35Z</time></trkpt><trkpt lat="40.764083" lon=".579004"><ele>40.838</ele><time>2026-04-17T09:31:36Z</time></trkpt><trkpt lat="40.764092" lon=".579049"><ele>41.046</ele><time>2026-04-17T09:31:37Z</time></trkpt><trkpt lat="40.764099" lon=".579095"><ele>41.253</ele><time>2026-04-17T09:31:38Z</time></trkpt><trkpt lat="40.764106" lon=".579141"><ele>41.604</ele><time>2026-04-17T09:31:39Z</time></trkpt><trkpt lat="40.764111" lon=".579188"><ele>41.814</ele><time>2026-04-17T09:31:40Z</time></trkpt><trkpt lat="40.764117" lon=".579235"><ele>42.009</ele><time>2026-04-17T09:31:41Z</time></trkpt><trkpt lat="40.764122" lon=".579283"><ele>42.457</ele><time>2026-04-17T09:31:42Z</time></trkpt><trkpt lat="40.764127" lon=".579333"><ele>42.681</ele><time>2026-04-17T09:31:43Z</time></trkpt><trkpt lat="40.764134" lon=".579381"><ele>42.875</ele><time>2026-04-17T09:31:44Z</time></trkpt><trkpt lat="40.764142" lon=".579428"><ele>43.048</ele><time>2026-04-17T09:31:45Z</time></trkpt><trkpt lat="40.764152" lon=".579475"><ele>43.249</ele><time>2026-04-17T09:31:46Z</time></trkpt><trkpt lat="40.76416" lon=".579522"><ele>43.485</ele><time>2026-04-17T09:31:47Z</time></trkpt><trkpt lat="40.764167" lon=".579572"><ele>43.446</ele><time>2026-04-17T09:31:48Z</time></trkpt><trkpt lat="40.764172" lon=".579621"><ele>43.864</ele><time>2026-04-17T09:31:49Z</time></trkpt><trkpt lat="40.764177" lon=".579669"><ele>44.072</ele><time>2026-04-17T09:31:50Z</time></trkpt><trkpt lat="40.764182" lon=".579714"><ele>44.234</ele><time>2026-04-17T09:31:51Z</time></trkpt><trkpt lat="40.764187" lon=".579761"><ele>44.255</ele><time>2026-04-17T09:31:52Z</time></trkpt><trkpt lat="40.764193" lon=".579807"><ele>44.610</ele><time>2026-04-17T09:31:53Z</time></trkpt><trkpt lat="40.764199" lon=".579852"><ele>44.809</ele><time>2026-04-17T09:31:54Z</time></trkpt><trkpt lat="40.764207" lon=".579898"><ele>45.075</ele><time>2026-04-17T09:31:55Z</time></trkpt><trkpt lat="40.764216" lon=".579942"><ele>45.299</ele><time>2026-04-17T09:31:56Z</time></trkpt><trkpt lat="40.764226" lon=".579986"><ele>45.473</ele><time>2026-04-17T09:31:57Z</time></trkpt><trkpt lat="40.764232" lon=".58003"><ele>46.046</ele><time>2026-04-17T09:31:58Z</time></trkpt><trkpt lat="40.764236" lon=".580072"><ele>46.037</ele><time>2026-04-17T09:31:59Z</time></trkpt><trkpt lat="40.764243" lon=".580114"><ele>46.413</ele><time>2026-04-17T09:32:00Z</time></trkpt><trkpt lat="40.764249" lon=".580155"><ele>46.484</ele><time>2026-04-17T09:32:01Z</time></trkpt><trkpt lat="40.76425" lon=".580196"><ele>46.852</ele><time>2026-04-17T09:32:02Z</time></trkpt><trkpt lat="40.764253" lon=".580239"><ele>47.010</ele><time>2026-04-17T09:32:03Z</time></trkpt><trkpt lat="40.764254" lon=".580285"><ele>47.243</ele><time>2026-04-17T09:32:04Z</time></trkpt><trkpt lat="40.764254" lon=".580329"><ele>47.664</ele><time>2026-04-17T09:32:05Z</time></trkpt><trkpt lat="40.764253" lon=".580375"><ele>47.810</ele><time>2026-04-17T09:32:06Z</time></trkpt><trkpt lat="40.76425" lon=".580418"><ele>48.009</ele><time>2026-04-17T09:32:07Z</time></trkpt><trkpt lat="40.764246" lon=".580462"><ele>48.246</ele><time>2026-04-17T09:32:08Z</time></trkpt><trkpt lat="40.764239" lon=".580504"><ele>48.480</ele><time>2026-04-17T09:32:09Z</time></trkpt><trkpt lat="40.764225" lon=".580543"><ele>48.474</ele><time>2026-04-17T09:32:10Z</time></trkpt><trkpt lat="40.764209" lon=".580579"><ele>48.637</ele><time>2026-04-17T09:32:11Z</time></trkpt><trkpt lat="40.764194" lon=".580608"><ele>48.888</ele><time>2026-04-17T09:32:12Z</time></trkpt><trkpt lat="40.76417" lon=".580653"><ele>49.054</ele><time>2026-04-17T09:32:13Z</time></trkpt><trkpt lat="40.764148" lon=".580697"><ele>49.215</ele><time>2026-04-17T09:32:14Z</time></trkpt><trkpt lat="40.764131" lon=".580733"><ele>49.423</ele><time>2026-04-17T09:32:15Z</time></trkpt><trkpt lat="40.764114" lon=".580779"><ele>49.891</ele><time>2026-04-17T09:32:16Z</time></trkpt><trkpt lat="40.764096" lon=".580834"><ele>50.034</ele><time>2026-04-17T09:32:17Z</time></trkpt><trkpt lat="40.764085" lon=".580871"><ele>50.255</ele><time>2026-04-17T09:32:18Z</time></trkpt><trkpt lat="40.76407" lon=".580923"><ele>50.610</ele><time>2026-04-17T09:32:19Z</time></trkpt><trkpt lat="40.764062" lon=".580966"><ele>50.609</ele><time>2026-04-17T09:32:20Z</time></trkpt><trkpt lat="40.764054" lon=".581002"><ele>50.875</ele><time>2026-04-17T09:32:21Z</time></trkpt><trkpt lat="40.764045" lon=".581052"><ele>51.039</ele><time>2026-04-17T09:32:22Z</time></trkpt><trkpt lat="40.764039" lon=".581094"><ele>51.483</ele><time>2026-04-17T09:32:23Z</time></trkpt><trkpt lat="40.764033" lon=".581136"><ele>51.696</ele><time>2026-04-17T09:32:24Z</time></trkpt><trkpt lat="40.764029" lon=".581179"><ele>52.057</ele><time>2026-04-17T09:32:25Z</time></trkpt><trkpt lat="40.764025" lon=".581219"><ele>52.063</ele><time>2026-04-17T09:32:26Z</time></trkpt><trkpt lat="40.764028" lon=".581253"><ele>52.214</ele><time>2026-04-17T09:32:27Z</time></trkpt><trkpt lat="40.764035" lon=".581284"><ele>52.622</ele><time>2026-04-17T09:32:28Z</time></trkpt><trkpt lat="40.764047" lon=".58131"><ele>52.630</ele><time>2026-04-17T09:32:29Z</time></trkpt><trkpt lat="40.764063" lon=".581333"><ele>52.816</ele><time>2026-04-17T09:32:30Z</time></trkpt><trkpt lat="40.764083" lon=".581343"><ele>53.076</ele><time>2026-04-17T09:32:31Z</time></trkpt><trkpt lat="40.764105" lon=".581349"><ele>53.213</ele><time>2026-04-17T09:32:32Z</time></trkpt><trkpt lat="40.764127" lon=".581353"><ele>53.209</ele><time>2026-04-17T09:32:33Z</time></trkpt><trkpt lat="40.764148" lon=".581351"><ele>53.453</ele><time>2026-04-17T09:32:34Z</time></trkpt><trkpt lat="40.764167" lon=".581347"><ele>53.457</ele><time>2026-04-17T09:32:35Z</time></trkpt><trkpt lat="40.76418" lon=".581343"><ele>53.631</ele><time>2026-04-17T09:32:36Z</time></trkpt><trkpt lat="40.764197" lon=".581335"><ele>53.854</ele><time>2026-04-17T09:32:37Z</time></trkpt><trkpt lat="40.764212" lon=".581327"><ele>53.885</ele><time>2026-04-17T09:32:38Z</time></trkpt><trkpt lat="40.764229" lon=".581318"><ele>53.881</ele><time>2026-04-17T09:32:39Z</time></trkpt><trkpt lat="40.764242" lon=".581315"><ele>54.012</ele><time>2026-04-17T09:32:40Z</time></trkpt><trkpt lat="40.764246" lon=".581317"><ele>54.270</ele><time>2026-04-17T09:32:41Z</time></trkpt><trkpt lat="40.764246" lon=".581317"><ele>54.268</ele><time>2026-04-17T09:32:42Z</time></trkpt><trkpt lat="40.764246" lon=".581317"><ele>54.294</ele><time>2026-04-17T09:32:43Z</time></trkpt><trkpt lat="40.764246" lon=".581317"><ele>55.057</ele><time>2026-04-17T09:32:44Z</time></trkpt><trkpt lat="40.764246" lon=".581317"><ele>55.422</ele><time>2026-04-17T09:32:45Z</time></trkpt><trkpt lat="40.764311" lon=".581363"><ele>57.609</ele><time>2026-04-17T09:33:01Z</time></trkpt><trkpt lat="40.76433" lon=".581382"><ele>57.871</ele><time>2026-04-17T09:33:02Z</time></trkpt><trkpt lat="40.764348" lon=".581398"><ele>57.865</ele><time>2026-04-17T09:33:03Z</time></trkpt><trkpt lat="40.764372" lon=".581413"><ele>58.089</ele><time>2026-04-17T09:33:04Z</time></trkpt><trkpt lat="40.7644" lon=".581429"><ele>58.242</ele><time>2026-04-17T09:33:05Z</time></trkpt><trkpt lat="40.764435" lon=".581446"><ele>58.483</ele><time>2026-04-17T09:33:06Z</time></trkpt><trkpt lat="40.764469" lon=".581465"><ele>58.829</ele><time>2026-04-17T09:33:07Z</time></trkpt><trkpt lat="40.764484" lon=".581481"><ele>59.270</ele><time>2026-04-17T09:33:08Z</time></trkpt><trkpt lat="40.764492" lon=".5815"><ele>59.278</ele><time>2026-04-17T09:33:09Z</time></trkpt><trkpt lat="40.764494" lon=".581512"><ele>59.886</ele><time>2026-04-17T09:33:10Z</time></trkpt><trkpt lat="40.764487" lon=".581527"><ele>60.411</ele><time>2026-04-17T09:33:11Z</time></trkpt><trkpt lat="40.764477" lon=".581535"><ele>60.421</ele><time>2026-04-17T09:33:12Z</time></trkpt><trkpt lat="40.764467" lon=".581532"><ele>60.803</ele><time>2026-04-17T09:33:13Z</time></trkpt><trkpt lat="40.764459" lon=".58152"><ele>61.009</ele><time>2026-04-17T09:33:14Z</time></trkpt><trkpt lat="40.764449" lon=".581511"><ele>61.083</ele><time>2026-04-17T09:33:15Z</time></trkpt><trkpt lat="40.764436" lon=".581502"><ele>61.037</ele><time>2026-04-17T09:33:16Z</time></trkpt><trkpt lat="40.764421" lon=".581483"><ele>61.291</ele><time>2026-04-17T09:33:17Z</time></trkpt><trkpt lat="40.764407" lon=".581471"><ele>61.494</ele><time>2026-04-17T09:33:18Z</time></trkpt><trkpt lat="40.764389" lon=".581455"><ele>61.445</ele><time>2026-04-17T09:33:19Z</time></trkpt><trkpt lat="40.764362" lon=".581444"><ele>61.641</ele><time>2026-04-17T09:33:20Z</time></trkpt><trkpt lat="40.764342" lon=".581443"><ele>61.612</ele><time>2026-04-17T09:33:21Z</time></trkpt><trkpt lat="40.764324" lon=".581448"><ele>61.850</ele><time>2026-04-17T09:33:22Z</time></trkpt><trkpt lat="40.764308" lon=".581459"><ele>61.838</ele><time>2026-04-17T09:33:23Z</time></trkpt><trkpt lat="40.764299" lon=".581476"><ele>62.064</ele><time>2026-04-17T09:33:24Z</time></trkpt><trkpt lat="40.764298" lon=".581482"><ele>62.006</ele><time>2026-04-17T09:33:25Z</time></trkpt><trkpt lat="40.764298" lon=".581482"><ele>62.216</ele><time>2026-04-17T09:33:26Z</time></trkpt><trkpt lat="40.764298" lon=".581482"><ele>62.409</ele><time>2026-04-17T09:33:27Z</time></trkpt><trkpt lat="40.764298" lon=".581482"><ele>62.628</ele><time>2026-04-17T09:33:28Z</time></trkpt><trkpt lat="40.764337" lon=".581514"><ele>63.462</ele><time>2026-04-17T09:33:34Z</time></trkpt><trkpt lat="40.764356" lon=".581529"><ele>63.416</ele><time>2026-04-17T09:33:35Z</time></trkpt><trkpt lat="40.764372" lon=".581544"><ele>63.649</ele><time>2026-04-17T09:33:36Z</time></trkpt><trkpt lat="40.764384" lon=".581558"><ele>63.610</ele><time>2026-04-17T09:33:37Z</time></trkpt><trkpt lat="40.764392" lon=".581573"><ele>63.616</ele><time>2026-04-17T09:33:38Z</time></trkpt><trkpt lat="40.76441" lon=".581589"><ele>63.697</ele><time>2026-04-17T09:33:39Z</time></trkpt><trkpt lat="40.764433" lon=".581613"><ele>63.615</ele><time>2026-04-17T09:33:40Z</time></trkpt><trkpt lat="40.764451" lon=".581631"><ele>63.633</ele><time>2026-04-17T09:33:41Z</time></trkpt><trkpt lat="40.764465" lon=".581644"><ele>63.855</ele><time>2026-04-17T09:33:42Z</time></trkpt><trkpt lat="40.764481" lon=".581652"><ele>63.807</ele><time>2026-04-17T09:33:43Z</time></trkpt><trkpt lat="40.764494" lon=".581659"><ele>64.017</ele><time>2026-04-17T09:33:44Z</time></trkpt><trkpt lat="40.764506" lon=".581665"><ele>64.009</ele><time>2026-04-17T09:33:45Z</time></trkpt><trkpt lat="40.764519" lon=".581675"><ele>64.027</ele><time>2026-04-17T09:33:46Z</time></trkpt><trkpt lat="40.764529" lon=".581687"><ele>64.481</ele><time>2026-04-17T09:33:47Z</time></trkpt><trkpt lat="40.764525" lon=".581697"><ele>64.455</ele><time>2026-04-17T09:33:48Z</time></trkpt><trkpt lat="40.764514" lon=".581701"><ele>64.848</ele><time>2026-04-17T09:33:49Z</time></trkpt><trkpt lat="40.764502" lon=".581714"><ele>65.099</ele><time>2026-04-17T09:33:50Z</time></trkpt><trkpt lat="40.764498" lon=".581726"><ele>65.625</ele><time>2026-04-17T09:33:51Z</time></trkpt><trkpt lat="40.764488" lon=".581727"><ele>66.276</ele><time>2026-04-17T09:33:52Z</time></trkpt><trkpt lat="40.764478" lon=".581727"><ele>66.464</ele><time>2026-04-17T09:33:53Z</time></trkpt><trkpt lat="40.764467" lon=".58172"><ele>66.612</ele><time>2026-04-17T09:33:54Z</time></trkpt><trkpt lat="40.764452" lon=".581713"><ele>66.617</ele><time>2026-04-17T09:33:55Z</time></trkpt><trkpt lat="40.764436" lon=".581703"><ele>66.887</ele><time>2026-04-17T09:33:56Z</time></trkpt><trkpt lat="40.764421" lon=".581688"><ele>66.815</ele><time>2026-04-17T09:33:57Z</time></trkpt><trkpt lat="40.764412" lon=".581675"><ele>66.809</ele><time>2026-04-17T09:33:58Z</time></trkpt><trkpt lat="40.764403" lon=".581662"><ele>66.833</ele><time>2026-04-17T09:33:59Z</time></trkpt><trkpt lat="40.764391" lon=".581652"><ele>67.017</ele><time>2026-04-17T09:34:00Z</time></trkpt><trkpt lat="40.764378" lon=".581644"><ele>67.231</ele><time>2026-04-17T09:34:01Z</time></trkpt><trkpt lat="40.764364" lon=".581639"><ele>67.264</ele><time>2026-04-17T09:34:02Z</time></trkpt><trkpt lat="40.764352" lon=".581637"><ele>67.285</ele><time>2026-04-17T09:34:03Z</time></trkpt><trkpt lat="40.764343" lon=".581641"><ele>67.211</ele><time>2026-04-17T09:34:04Z</time></trkpt><trkpt lat="40.76434" lon=".581646"><ele>67.472</ele><time>2026-04-17T09:34:05Z</time></trkpt><trkpt lat="40.76434" lon=".581646"><ele>67.440</ele><time>2026-04-17T09:34:06Z</time></trkpt><trkpt lat="40.76434" lon=".581646"><ele>67.898</ele><time>2026-04-17T09:34:07Z</time></trkpt><trkpt lat="40.76434" lon=".581646"><ele>68.084</ele><time>2026-04-17T09:34:08Z</time></trkpt><trkpt lat="40.76434" lon=".581646"><ele>68.007</ele><time>2026-04-17T09:34:09Z</time></trkpt><trkpt lat="40.76434" lon=".581646"><ele>68.417</ele><time>2026-04-17T09:34:10Z</time></trkpt><trkpt lat="40.76434" lon=".581646"><ele>68.609</ele><time>2026-04-17T09:34:12Z</time></trkpt><trkpt lat="40.76434" lon=".581646"><ele>68.860</ele><time>2026-04-17T09:34:13Z</time></trkpt><trkpt lat="40.76434" lon=".581646"><ele>68.884</ele><time>2026-04-17T09:34:14Z</time></trkpt><trkpt lat="40.764376" lon=".581727"><ele>69.868</ele><time>2026-04-17T09:34:41Z</time></trkpt><trkpt lat="40.764393" lon=".581755"><ele>70.061</ele><time>2026-04-17T09:34:42Z</time></trkpt><trkpt lat="40.764413" lon=".581783"><ele>70.072</ele><time>2026-04-17T09:34:43Z</time></trkpt><trkpt lat="40.764436" lon=".581811"><ele>70.018</ele><time>2026-04-17T09:34:44Z</time></trkpt><trkpt lat="40.764495" lon=".581878"><ele>69.889</ele><time>2026-04-17T09:34:47Z</time></trkpt><trkpt lat="40.764503" lon=".58188"><ele>69.857</ele><time>2026-04-17T09:34:48Z</time></trkpt><trkpt lat="40.764506" lon=".581881"><ele>70.035</ele><time>2026-04-17T09:34:49Z</time></trkpt><trkpt lat="40.764506" lon=".581881"><ele>70.088</ele><time>2026-04-17T09:34:50Z</time></trkpt><trkpt lat="40.764506" lon=".581881"><ele>70.224</ele><time>2026-04-17T09:34:51Z</time></trkpt><trkpt lat="40.764463" lon=".581881"><ele>70.426</ele><time>2026-04-17T09:35:12Z</time></trkpt><trkpt lat="40.76442" lon=".581873"><ele>70.409</ele><time>2026-04-17T09:35:14Z</time></trkpt><trkpt lat="40.764315" lon=".581879"><ele>70.830</ele><time>2026-04-17T09:35:19Z</time></trkpt><trkpt lat="40.764294" lon=".581887"><ele>71.024</ele><time>2026-04-17T09:35:20Z</time></trkpt><trkpt lat="40.764278" lon=".581897"><ele>71.028</ele><time>2026-04-17T09:35:21Z</time></trkpt><trkpt lat="40.764266" lon=".581911"><ele>71.441</ele><time>2026-04-17T09:35:22Z</time></trkpt><trkpt lat="40.764258" lon=".581933"><ele>72.452</ele><time>2026-04-17T09:35:23Z</time></trkpt><trkpt lat="40.76425" lon=".581957"><ele>72.858</ele><time>2026-04-17T09:35:24Z</time></trkpt><trkpt lat="40.764241" lon=".581981"><ele>73.499</ele><time>2026-04-17T09:35:25Z</time></trkpt><trkpt lat="40.764235" lon=".582"><ele>73.887</ele><time>2026-04-17T09:35:26Z</time></trkpt><trkpt lat="40.764229" lon=".582015"><ele>74.445</ele><time>2026-04-17T09:35:27Z</time></trkpt><trkpt lat="40.764224" lon=".582035"><ele>75.039</ele><time>2026-04-17T09:35:28Z</time></trkpt><trkpt lat="40.764218" lon=".582053"><ele>75.801</ele><time>2026-04-17T09:35:29Z</time></trkpt><trkpt lat="40.764213" lon=".582072"><ele>76.021</ele><time>2026-04-17T09:35:30Z</time></trkpt><trkpt lat="40.764207" lon=".58209"><ele>76.209</ele><time>2026-04-17T09:35:31Z</time></trkpt><trkpt lat="40.764202" lon=".582113"><ele>76.495</ele><time>2026-04-17T09:35:32Z</time></trkpt><trkpt lat="40.764197" lon=".58213"><ele>76.679</ele><time>2026-04-17T09:35:33Z</time></trkpt><trkpt lat="40.764191" lon=".582152"><ele>76.863</ele><time>2026-04-17T09:35:34Z</time></trkpt><trkpt lat="40.764189" lon=".582172"><ele>76.896</ele><time>2026-04-17T09:35:35Z</time></trkpt><trkpt lat="40.76419" lon=".58219"><ele>76.887</ele><time>2026-04-17T09:35:36Z</time></trkpt><trkpt lat="40.764192" lon=".582207"><ele>76.853</ele><time>2026-04-17T09:35:37Z</time></trkpt><trkpt lat="40.76419" lon=".582223"><ele>77.034</ele><time>2026-04-17T09:35:38Z</time></trkpt><trkpt lat="40.764186" lon=".582237"><ele>77.032</ele><time>2026-04-17T09:35:39Z</time></trkpt><trkpt lat="40.764184" lon=".582252"><ele>77.020</ele><time>2026-04-17T09:35:40Z</time></trkpt><trkpt lat="40.764181" lon=".582263"><ele>77.248</ele><time>2026-04-17T09:35:41Z</time></trkpt><trkpt lat="40.764172" lon=".582281"><ele>77.261</ele><time>2026-04-17T09:35:42Z</time></trkpt><trkpt lat="40.764167" lon=".582299"><ele>77.217</ele><time>2026-04-17T09:35:43Z</time></trkpt><trkpt lat="40.764165" lon=".582318"><ele>77.209</ele><time>2026-04-17T09:35:44Z</time></trkpt><trkpt lat="40.764162" lon=".582337"><ele>77.476</ele><time>2026-04-17T09:35:45Z</time></trkpt><trkpt lat="40.764163" lon=".582345"><ele>77.410</ele><time>2026-04-17T09:35:46Z</time></trkpt><trkpt lat="40.764161" lon=".582351"><ele>77.444</ele><time>2026-04-17T09:35:47Z</time></trkpt><trkpt lat="40.764162" lon=".582354"><ele>77.497</ele><time>2026-04-17T09:35:48Z</time></trkpt><trkpt lat="40.764159" lon=".582378"><ele>77.658</ele><time>2026-04-17T09:35:50Z</time></trkpt><trkpt lat="40.76415" lon=".582393"><ele>77.654</ele><time>2026-04-17T09:35:51Z</time></trkpt><trkpt lat="40.764143" lon=".582417"><ele>77.635</ele><time>2026-04-17T09:35:52Z</time></trkpt><trkpt lat="40.764141" lon=".582445"><ele>77.673</ele><time>2026-04-17T09:35:53Z</time></trkpt><trkpt lat="40.764134" lon=".582475"><ele>77.881</ele><time>2026-04-17T09:35:54Z</time></trkpt><trkpt lat="40.764127" lon=".582503"><ele>77.813</ele><time>2026-04-17T09:35:55Z</time></trkpt><trkpt lat="40.764122" lon=".582527"><ele>77.843</ele><time>2026-04-17T09:35:56Z</time></trkpt><trkpt lat="40.76412" lon=".582545"><ele>78.007</ele><time>2026-04-17T09:35:57Z</time></trkpt><trkpt lat="40.76411" lon=".582559"><ele>78.009</ele><time>2026-04-17T09:35:58Z</time></trkpt><trkpt lat="40.764104" lon=".582576"><ele>78.213</ele><time>2026-04-17T09:35:59Z</time></trkpt><trkpt lat="40.764094" lon=".582592"><ele>78.257</ele><time>2026-04-17T09:36:00Z</time></trkpt><trkpt lat="40.764088" lon=".582621"><ele>78.481</ele><time>2026-04-17T09:36:01Z</time></trkpt><trkpt lat="40.764094" lon=".582643"><ele>78.424</ele><time>2026-04-17T09:36:03Z</time></trkpt><trkpt lat="40.764098" lon=".582637"><ele>78.835</ele><time>2026-04-17T09:36:04Z</time></trkpt><trkpt lat="40.764106" lon=".582632"><ele>79.011</ele><time>2026-04-17T09:36:05Z</time></trkpt><trkpt lat="40.764104" lon=".582625"><ele>79.222</ele><time>2026-04-17T09:36:06Z</time></trkpt><trkpt lat="40.764102" lon=".582623"><ele>79.420</ele><time>2026-04-17T09:36:07Z</time></trkpt><trkpt lat="40.764102" lon=".582623"><ele>79.658</ele><time>2026-04-17T09:36:08Z</time></trkpt><trkpt lat="40.764124" lon=".58257"><ele>80.226</ele><time>2026-04-17T09:36:13Z</time></trkpt><trkpt lat="40.764132" lon=".582547"><ele>80.247</ele><time>2026-04-17T09:36:14Z</time></trkpt><trkpt lat="40.764138" lon=".582524"><ele>80.211</ele><time>2026-04-17T09:36:15Z</time></trkpt><trkpt lat="40.764145" lon=".582503"><ele>80.209</ele><time>2026-04-17T09:36:16Z</time></trkpt><trkpt lat="40.764152" lon=".582482"><ele>80.074</ele><time>2026-04-17T09:36:17Z</time></trkpt><trkpt lat="40.764158" lon=".582459"><ele>80.028</ele><time>2026-04-17T09:36:18Z</time></trkpt><trkpt lat="40.764163" lon=".582438"><ele>80.032</ele><time>2026-04-17T09:36:19Z</time></trkpt><trkpt lat="40.764169" lon=".582418"><ele>80.055</ele><time>2026-04-17T09:36:20Z</time></trkpt><trkpt lat="40.764177" lon=".582396"><ele>80.046</ele><time>2026-04-17T09:36:21Z</time></trkpt><trkpt lat="40.764184" lon=".582377"><ele>80.432</ele><time>2026-04-17T09:36:22Z</time></trkpt><trkpt lat="40.764216" lon=".582315"><ele>80.883</ele><time>2026-04-17T09:36:26Z</time></trkpt><trkpt lat="40.764224" lon=".582304"><ele>80.851</ele><time>2026-04-17T09:36:27Z</time></trkpt><trkpt lat="40.764229" lon=".582293"><ele>81.069</ele><time>2026-04-17T09:36:28Z</time></trkpt><trkpt lat="40.764236" lon=".582285"><ele>81.277</ele><time>2026-04-17T09:36:29Z</time></trkpt><trkpt lat="40.764245" lon=".582279"><ele>81.261</ele><time>2026-04-17T09:36:30Z</time></trkpt><trkpt lat="40.764257" lon=".582274"><ele>81.427</ele><time>2026-04-17T09:36:31Z</time></trkpt><trkpt lat="40.764272" lon=".582272"><ele>81.409</ele><time>2026-04-17T09:36:32Z</time></trkpt><trkpt lat="40.764284" lon=".582277"><ele>81.679</ele><time>2026-04-17T09:36:33Z</time></trkpt><trkpt lat="40.764292" lon=".582285"><ele>81.843</ele><time>2026-04-17T09:36:34Z</time></trkpt><trkpt lat="40.764299" lon=".582293"><ele>81.877</ele><time>2026-04-17T09:36:35Z</time></trkpt><trkpt lat="40.7643" lon=".5823"><ele>82.010</ele><time>2026-04-17T09:36:36Z</time></trkpt><trkpt lat="40.7643" lon=".582301"><ele>82.081</ele><time>2026-04-17T09:36:37Z</time></trkpt><trkpt lat="40.7643" lon=".582305"><ele>82.297</ele><time>2026-04-17T09:36:38Z</time></trkpt><trkpt lat="40.764293" lon=".58231"><ele>82.218</ele><time>2026-04-17T09:36:39Z</time></trkpt><trkpt lat="40.764286" lon=".58232"><ele>82.416</ele><time>2026-04-17T09:36:40Z</time></trkpt><trkpt lat="40.76428" lon=".582331"><ele>82.684</ele><time>2026-04-17T09:36:41Z</time></trkpt><trkpt lat="40.764274" lon=".582342"><ele>82.816</ele><time>2026-04-17T09:36:42Z</time></trkpt><trkpt lat="40.764261" lon=".582374"><ele>83.076</ele><time>2026-04-17T09:36:44Z</time></trkpt><trkpt lat="40.764257" lon=".58239"><ele>83.213</ele><time>2026-04-17T09:36:45Z</time></trkpt><trkpt lat="40.764253" lon=".582409"><ele>83.409</ele><time>2026-04-17T09:36:46Z</time></trkpt><trkpt lat="40.764243" lon=".582438"><ele>83.883</ele><time>2026-04-17T09:36:47Z</time></trkpt><trkpt lat="40.764244" lon=".582465"><ele>83.857</ele><time>2026-04-17T09:36:48Z</time></trkpt><trkpt lat="40.764255" lon=".582493"><ele>83.861</ele><time>2026-04-17T09:36:49Z</time></trkpt><trkpt lat="40.764266" lon=".582516"><ele>83.824</ele><time>2026-04-17T09:36:50Z</time></trkpt><trkpt lat="40.764278" lon=".582533"><ele>84.095</ele><time>2026-04-17T09:36:51Z</time></trkpt><trkpt lat="40.764289" lon=".582545"><ele>84.291</ele><time>2026-04-17T09:36:52Z</time></trkpt><trkpt lat="40.764299" lon=".582562"><ele>84.462</ele><time>2026-04-17T09:36:53Z</time></trkpt><trkpt lat="40.76431" lon=".582579"><ele>84.640</ele><time>2026-04-17T09:36:54Z</time></trkpt><trkpt lat="40.76432" lon=".582598"><ele>85.088</ele><time>2026-04-17T09:36:55Z</time></trkpt><trkpt lat="40.764327" lon=".582622"><ele>85.665</ele><time>2026-04-17T09:36:56Z</time></trkpt><trkpt lat="40.764332" lon=".582644"><ele>86.068</ele><time>2026-04-17T09:36:57Z</time></trkpt><trkpt lat="40.764337" lon=".582668"><ele>86.614</ele><time>2026-04-17T09:36:58Z</time></trkpt><trkpt lat="40.764339" lon=".582693"><ele>86.809</ele><time>2026-04-17T09:36:59Z</time></trkpt><trkpt lat="40.764343" lon=".582714"><ele>87.428</ele><time>2026-04-17T09:37:00Z</time></trkpt><trkpt lat="40.764348" lon=".582746"><ele>87.452</ele><time>2026-04-17T09:37:01Z</time></trkpt><trkpt lat="40.76436" lon=".582787"><ele>87.656</ele><time>2026-04-17T09:37:02Z</time></trkpt><trkpt lat="40.764371" lon=".582818"><ele>87.629</ele><time>2026-04-17T09:37:03Z</time></trkpt><trkpt lat="40.764382" lon=".582845"><ele>87.610</ele><time>2026-04-17T09:37:04Z</time></trkpt><trkpt lat="40.764393" lon=".582871"><ele>87.656</ele><time>2026-04-17T09:37:05Z</time></trkpt><trkpt lat="40.764406" lon=".5829"><ele>87.637</ele><time>2026-04-17T09:37:06Z</time></trkpt><trkpt lat="40.764417" lon=".582927"><ele>87.645</ele><time>2026-04-17T09:37:07Z</time></trkpt><trkpt lat="40.764428" lon=".582952"><ele>87.623</ele><time>2026-04-17T09:37:08Z</time></trkpt><trkpt lat="40.764442" lon=".582978"><ele>87.885</ele><time>2026-04-17T09:37:09Z</time></trkpt><trkpt lat="40.764459" lon=".583"><ele>87.889</ele><time>2026-04-17T09:37:10Z</time></trkpt><trkpt lat="40.764473" lon=".583017"><ele>88.017</ele><time>2026-04-17T09:37:11Z</time></trkpt><trkpt lat="40.764484" lon=".583034"><ele>88.209</ele><time>2026-04-17T09:37:12Z</time></trkpt><trkpt lat="40.764492" lon=".583053"><ele>88.220</ele><time>2026-04-17T09:37:13Z</time></trkpt><trkpt lat="40.7645" lon=".583075"><ele>88.624</ele><time>2026-04-17T09:37:14Z</time></trkpt><trkpt lat="40.764513" lon=".583103"><ele>88.638</ele><time>2026-04-17T09:37:15Z</time></trkpt><trkpt lat="40.764526" lon=".583126"><ele>88.821</ele><time>2026-04-17T09:37:16Z</time></trkpt><trkpt lat="40.764538" lon=".583149"><ele>89.052</ele><time>2026-04-17T09:37:17Z</time></trkpt><trkpt lat="40.764548" lon=".583167"><ele>89.098</ele><time>2026-04-17T09:37:18Z</time></trkpt><trkpt lat="40.764562" lon=".58319"><ele>89.269</ele><time>2026-04-17T09:37:19Z</time></trkpt><trkpt lat="40.764576" lon=".583225"><ele>89.287</ele><time>2026-04-17T09:37:20Z</time></trkpt><trkpt lat="40.764588" lon=".583257"><ele>89.485</ele><time>2026-04-17T09:37:21Z</time></trkpt><trkpt lat="40.764603" lon=".583288"><ele>89.497</ele><time>2026-04-17T09:37:22Z</time></trkpt><trkpt lat="40.76462" lon=".583316"><ele>89.623</ele><time>2026-04-17T09:37:23Z</time></trkpt><trkpt lat="40.764638" lon=".583337"><ele>89.625</ele><time>2026-04-17T09:37:24Z</time></trkpt><trkpt lat="40.764653" lon=".583356"><ele>89.609</ele><time>2026-04-17T09:37:25Z</time></trkpt><trkpt lat="40.764664" lon=".583376"><ele>89.831</ele><time>2026-04-17T09:37:26Z</time></trkpt><trkpt lat="40.764674" lon=".583398"><ele>89.895</ele><time>2026-04-17T09:37:27Z</time></trkpt><trkpt lat="40.76468" lon=".583419"><ele>90.049</ele><time>2026-04-17T09:37:28Z</time></trkpt><trkpt lat="40.76469" lon=".583437"><ele>90.082</ele><time>2026-04-17T09:37:29Z</time></trkpt><trkpt lat="40.764704" lon=".583461"><ele>90.053</ele><time>2026-04-17T09:37:30Z</time></trkpt><trkpt lat="40.764716" lon=".583484"><ele>90.039</ele><time>2026-04-17T09:37:31Z</time></trkpt><trkpt lat="40.764732" lon=".583507"><ele>90.020</ele><time>2026-04-17T09:37:32Z</time></trkpt><trkpt lat="40.76475" lon=".583525"><ele>90.288</ele><time>2026-04-17T09:37:33Z</time></trkpt><trkpt lat="40.764769" lon=".583545"><ele>90.266</ele><time>2026-04-17T09:37:34Z</time></trkpt><trkpt lat="40.764787" lon=".583567"><ele>90.299</ele><time>2026-04-17T09:37:35Z</time></trkpt><trkpt lat="40.764806" lon=".583587"><ele>90.207</ele><time>2026-04-17T09:37:36Z</time></trkpt><trkpt lat="40.764898" lon=".583679"><ele>91.027</ele><time>2026-04-17T09:37:41Z</time></trkpt><trkpt lat="40.764915" lon=".583686"><ele>91.209</ele><time>2026-04-17T09:37:42Z</time></trkpt><trkpt lat="40.764933" lon=".583697"><ele>91.481</ele><time>2026-04-17T09:37:43Z</time></trkpt><trkpt lat="40.76495" lon=".583712"><ele>91.615</ele><time>2026-04-17T09:37:44Z</time></trkpt><trkpt lat="40.764979" lon=".583752"><ele>91.859</ele><time>2026-04-17T09:37:46Z</time></trkpt><trkpt lat="40.764993" lon=".583781"><ele>92.042</ele><time>2026-04-17T09:37:47Z</time></trkpt><trkpt lat="40.765009" lon=".583813"><ele>92.663</ele><time>2026-04-17T09:37:48Z</time></trkpt><trkpt lat="40.765051" lon=".583874"><ele>93.229</ele><time>2026-04-17T09:37:50Z</time></trkpt><trkpt lat="40.76507" lon=".583903"><ele>93.260</ele><time>2026-04-17T09:37:51Z</time></trkpt><trkpt lat="40.76509" lon=".583933"><ele>93.458</ele><time>2026-04-17T09:37:52Z</time></trkpt><trkpt lat="40.765108" lon=".583965"><ele>93.686</ele><time>2026-04-17T09:37:53Z</time></trkpt><trkpt lat="40.765126" lon=".584"><ele>93.684</ele><time>2026-04-17T09:37:54Z</time></trkpt><trkpt lat="40.76514" lon=".584035"><ele>93.607</ele><time>2026-04-17T09:37:55Z</time></trkpt><trkpt lat="40.765156" lon=".584066"><ele>93.617</ele><time>2026-04-17T09:37:56Z</time></trkpt><trkpt lat="40.765173" lon=".5841"><ele>93.609</ele><time>2026-04-17T09:37:57Z</time></trkpt><trkpt lat="40.765191" lon=".584134"><ele>93.680</ele><time>2026-04-17T09:37:58Z</time></trkpt><trkpt lat="40.765212" lon=".58417"><ele>93.454</ele><time>2026-04-17T09:37:59Z</time></trkpt><trkpt lat="40.765231" lon=".584208"><ele>93.468</ele><time>2026-04-17T09:38:00Z</time></trkpt><trkpt lat="40.765251" lon=".584248"><ele>93.691</ele><time>2026-04-17T09:38:01Z</time></trkpt><trkpt lat="40.765273" lon=".584287"><ele>93.692</ele><time>2026-04-17T09:38:02Z</time></trkpt><trkpt lat="40.765288" lon=".584325"><ele>93.668</ele><time>2026-04-17T09:38:03Z</time></trkpt><trkpt lat="40.765303" lon=".584388"><ele>93.669</ele><time>2026-04-17T09:38:04Z</time></trkpt><trkpt lat="40.765291" lon=".584435"><ele>93.647</ele><time>2026-04-17T09:38:05Z</time></trkpt><trkpt lat="40.765272" lon=".584482"><ele>93.635</ele><time>2026-04-17T09:38:06Z</time></trkpt><trkpt lat="40.765248" lon=".584529"><ele>93.668</ele><time>2026-04-17T09:38:07Z</time></trkpt><trkpt lat="40.765224" lon=".584576"><ele>93.642</ele><time>2026-04-17T09:38:08Z</time></trkpt><trkpt lat="40.765208" lon=".584624"><ele>93.626</ele><time>2026-04-17T09:38:09Z</time></trkpt><trkpt lat="40.765205" lon=".584665"><ele>93.609</ele><time>2026-04-17T09:38:10Z</time></trkpt><trkpt lat="40.765212" lon=".5847"><ele>93.628</ele><time>2026-04-17T09:38:11Z</time></trkpt><trkpt lat="40.765225" lon=".584732"><ele>93.652</ele><time>2026-04-17T09:38:12Z</time></trkpt><trkpt lat="40.765244" lon=".584765"><ele>93.656</ele><time>2026-04-17T09:38:13Z</time></trkpt><trkpt lat="40.765266" lon=".584796"><ele>93.679</ele><time>2026-04-17T09:38:14Z</time></trkpt><trkpt lat="40.765291" lon=".584827"><ele>93.850</ele><time>2026-04-17T09:38:15Z</time></trkpt><trkpt lat="40.765315" lon=".58486"><ele>93.846</ele><time>2026-04-17T09:38:16Z</time></trkpt><trkpt lat="40.765429" lon=".584986"><ele>95.037</ele><time>2026-04-17T09:38:20Z</time></trkpt><trkpt lat="40.765494" lon=".585027"><ele>96.025</ele><time>2026-04-17T09:38:22Z</time></trkpt><trkpt lat="40.765526" lon=".585045"><ele>96.473</ele><time>2026-04-17T09:38:23Z</time></trkpt><trkpt lat="40.765592" lon=".585085"><ele>97.613</ele><time>2026-04-17T09:38:25Z</time></trkpt><trkpt lat="40.765626" lon=".585102"><ele>98.243</ele><time>2026-04-17T09:38:26Z</time></trkpt><trkpt lat="40.76566" lon=".585117"><ele>98.807</ele><time>2026-04-17T09:38:27Z</time></trkpt><trkpt lat="40.765696" lon=".58513"><ele>98.809</ele><time>2026-04-17T09:38:28Z</time></trkpt><trkpt lat="40.765733" lon=".58514"><ele>99.253</ele><time>2026-04-17T09:38:29Z</time></trkpt><trkpt lat="40.765771" lon=".585148"><ele>99.287</ele><time>2026-04-17T09:38:30Z</time></trkpt><trkpt lat="40.76581" lon=".585159"><ele>99.461</ele><time>2026-04-17T09:38:31Z</time></trkpt><trkpt lat="40.765849" lon=".585172"><ele>99.494</ele><time>2026-04-17T09:38:32Z</time></trkpt><trkpt lat="40.765889" lon=".585186"><ele>99.615</ele><time>2026-04-17T09:38:33Z</time></trkpt><trkpt lat="40.765931" lon=".5852"><ele>99.681</ele><time>2026-04-17T09:38:34Z</time></trkpt><trkpt lat="40.765974" lon=".585213"><ele>99.652</ele><time>2026-04-17T09:38:35Z</time></trkpt><trkpt lat="40.766016" lon=".585224"><ele>99.640</ele><time>2026-04-17T09:38:36Z</time></trkpt><trkpt lat="40.76606" lon=".585236"><ele>99.638</ele><time>2026-04-17T09:38:37Z</time></trkpt><trkpt lat="40.766104" lon=".585249"><ele>99.685</ele><time>2026-04-17T09:38:38Z</time></trkpt><trkpt lat="40.766143" lon=".585264"><ele>99.489</ele><time>2026-04-17T09:38:39Z</time></trkpt><trkpt lat="40.766174" lon=".585289"><ele>99.217</ele><time>2026-04-17T09:38:40Z</time></trkpt><trkpt lat="40.766206" lon=".585328"><ele>99.209</ele><time>2026-04-17T09:38:41Z</time></trkpt><trkpt lat="40.766233" lon=".585379"><ele>99.090</ele><time>2026-04-17T09:38:42Z</time></trkpt><trkpt lat="40.766249" lon=".585432"><ele>98.824</ele><time>2026-04-17T09:38:43Z</time></trkpt><trkpt lat="40.766264" lon=".585474"><ele>98.688</ele><time>2026-04-17T09:38:44Z</time></trkpt><trkpt lat="40.766283" lon=".585508"><ele>98.431</ele><time>2026-04-17T09:38:45Z</time></trkpt><trkpt lat="40.766314" lon=".585552"><ele>97.622</ele><time>2026-04-17T09:38:46Z</time></trkpt><trkpt lat="40.766348" lon=".585608"><ele>96.888</ele><time>2026-04-17T09:38:47Z</time></trkpt><trkpt lat="40.766374" lon=".585657"><ele>96.219</ele><time>2026-04-17T09:38:48Z</time></trkpt><trkpt lat="40.766397" lon=".585696"><ele>95.227</ele><time>2026-04-17T09:38:49Z</time></trkpt><trkpt lat="40.766428" lon=".585741"><ele>94.655</ele><time>2026-04-17T09:38:50Z</time></trkpt><trkpt lat="40.766471" lon=".585794"><ele>93.627</ele><time>2026-04-17T09:38:51Z</time></trkpt><trkpt lat="40.766525" lon=".585852"><ele>92.668</ele><time>2026-04-17T09:38:52Z</time></trkpt><trkpt lat="40.766582" lon=".585902"><ele>92.214</ele><time>2026-04-17T09:38:53Z</time></trkpt><trkpt lat="40.766641" lon=".585925"><ele>91.409</ele><time>2026-04-17T09:38:54Z</time></trkpt><trkpt lat="40.766689" lon=".585921"><ele>90.864</ele><time>2026-04-17T09:38:55Z</time></trkpt><trkpt lat="40.766727" lon=".585909"><ele>89.478</ele><time>2026-04-17T09:38:56Z</time></trkpt><trkpt lat="40.766761" lon=".585897"><ele>87.672</ele><time>2026-04-17T09:38:57Z</time></trkpt><trkpt lat="40.766792" lon=".585892"><ele>84.665</ele><time>2026-04-17T09:38:58Z</time></trkpt><trkpt lat="40.766821" lon=".585897"><ele>83.496</ele><time>2026-04-17T09:38:59Z</time></trkpt><trkpt lat="40.766846" lon=".585908"><ele>83.242</ele><time>2026-04-17T09:39:00Z</time></trkpt><trkpt lat="40.766866" lon=".585929"><ele>83.043</ele><time>2026-04-17T09:39:01Z</time></trkpt><trkpt lat="40.766894" lon=".585958"><ele>82.861</ele><time>2026-04-17T09:39:02Z</time></trkpt><trkpt lat="40.766926" lon=".585995"><ele>82.619</ele><time>2026-04-17T09:39:03Z</time></trkpt><trkpt lat="40.766967" lon=".586038"><ele>82.469</ele><time>2026-04-17T09:39:04Z</time></trkpt><trkpt lat="40.767021" lon=".586078"><ele>82.404</ele><time>2026-04-17T09:39:05Z</time></trkpt><trkpt lat="40.767072" lon=".586125"><ele>82.224</ele><time>2026-04-17T09:39:06Z</time></trkpt><trkpt lat="40.767133" lon=".586293"><ele>81.409</ele><time>2026-04-17T09:39:08Z</time></trkpt><trkpt lat="40.767161" lon=".586396"><ele>80.818</ele><time>2026-04-17T09:39:09Z</time></trkpt><trkpt lat="40.767186" lon=".586503"><ele>79.812</ele><time>2026-04-17T09:39:10Z</time></trkpt><trkpt lat="40.767212" lon=".586602"><ele>79.446</ele><time>2026-04-17T09:39:11Z</time></trkpt><trkpt lat="40.767241" lon=".586691"><ele>78.279</ele><time>2026-04-17T09:39:12Z</time></trkpt><trkpt lat="40.767275" lon=".586759"><ele>77.280</ele><time>2026-04-17T09:39:13Z</time></trkpt><trkpt lat="40.767311" lon=".586804"><ele>76.036</ele><time>2026-04-17T09:39:14Z</time></trkpt><trkpt lat="40.76735" lon=".58682"><ele>75.647</ele><time>2026-04-17T09:39:15Z</time></trkpt><trkpt lat="40.767386" lon=".586817"><ele>75.095</ele><time>2026-04-17T09:39:16Z</time></trkpt><trkpt lat="40.767412" lon=".586807"><ele>74.473</ele><time>2026-04-17T09:39:17Z</time></trkpt><trkpt lat="40.767438" lon=".586812"><ele>74.464</ele><time>2026-04-17T09:39:18Z</time></trkpt><trkpt lat="40.767464" lon=".586831"><ele>74.406</ele><time>2026-04-17T09:39:19Z</time></trkpt><trkpt lat="40.76748" lon=".586847"><ele>74.416</ele><time>2026-04-17T09:39:20Z</time></trkpt><trkpt lat="40.767496" lon=".586864"><ele>74.409</ele><time>2026-04-17T09:39:21Z</time></trkpt><trkpt lat="40.767512" lon=".586885"><ele>74.418</ele><time>2026-04-17T09:39:22Z</time></trkpt><trkpt lat="40.76753" lon=".586914"><ele>74.442</ele><time>2026-04-17T09:39:23Z</time></trkpt><trkpt lat="40.767554" lon=".586943"><ele>74.696</ele><time>2026-04-17T09:39:24Z</time></trkpt><trkpt lat="40.767585" lon=".586961"><ele>74.679</ele><time>2026-04-17T09:39:25Z</time></trkpt><trkpt lat="40.767655" lon=".586957"><ele>74.610</ele><time>2026-04-17T09:39:27Z</time></trkpt><trkpt lat="40.767679" lon=".586966"><ele>74.446</ele><time>2026-04-17T09:39:28Z</time></trkpt><trkpt lat="40.767709" lon=".587033"><ele>74.457</ele><time>2026-04-17T09:39:30Z</time></trkpt><trkpt lat="40.767734" lon=".587082"><ele>74.455</ele><time>2026-04-17T09:39:31Z</time></trkpt><trkpt lat="40.767765" lon=".587133"><ele>74.213</ele><time>2026-04-17T09:39:32Z</time></trkpt><trkpt lat="40.767807" lon=".58721"><ele>73.627</ele><time>2026-04-17T09:39:34Z</time></trkpt><trkpt lat="40.767829" lon=".587237"><ele>73.068</ele><time>2026-04-17T09:39:35Z</time></trkpt><trkpt lat="40.767854" lon=".587263"><ele>73.014</ele><time>2026-04-17T09:39:36Z</time></trkpt><trkpt lat="40.767883" lon=".587295"><ele>72.409</ele><time>2026-04-17T09:39:37Z</time></trkpt><trkpt lat="40.767913" lon=".587314"><ele>72.294</ele><time>2026-04-17T09:39:38Z</time></trkpt><trkpt lat="40.767945" lon=".587329"><ele>71.218</ele><time>2026-04-17T09:39:39Z</time></trkpt><trkpt lat="40.768043" lon=".587415"><ele>70.092</ele><time>2026-04-17T09:39:42Z</time></trkpt><trkpt lat="40.768075" lon=".587433"><ele>69.695</ele><time>2026-04-17T09:39:43Z</time></trkpt><trkpt lat="40.768106" lon=".587437"><ele>68.866</ele><time>2026-04-17T09:39:44Z</time></trkpt><trkpt lat="40.768132" lon=".587446"><ele>68.252</ele><time>2026-04-17T09:39:45Z</time></trkpt><trkpt lat="40.768157" lon=".58745"><ele>67.653</ele><time>2026-04-17T09:39:46Z</time></trkpt><trkpt lat="40.768183" lon=".587435"><ele>67.451</ele><time>2026-04-17T09:39:47Z</time></trkpt><trkpt lat="40.768207" lon=".587395"><ele>66.839</ele><time>2026-04-17T09:39:48Z</time></trkpt><trkpt lat="40.768216" lon=".587363"><ele>66.656</ele><time>2026-04-17T09:39:49Z</time></trkpt><trkpt lat="40.768222" lon=".587336"><ele>65.659</ele><time>2026-04-17T09:39:50Z</time></trkpt><trkpt lat="40.768231" lon=".587314"><ele>65.014</ele><time>2026-04-17T09:39:51Z</time></trkpt><trkpt lat="40.768239" lon=".587307"><ele>64.809</ele><time>2026-04-17T09:39:52Z</time></trkpt><trkpt lat="40.768256" lon=".587305"><ele>64.697</ele><time>2026-04-17T09:39:53Z</time></trkpt><trkpt lat="40.768277" lon=".587319"><ele>64.491</ele><time>2026-04-17T09:39:54Z</time></trkpt><trkpt lat="40.768297" lon=".587346"><ele>64.415</ele><time>2026-04-17T09:39:55Z</time></trkpt><trkpt lat="40.768368" lon=".58751"><ele>63.828</ele><time>2026-04-17T09:39:58Z</time></trkpt><trkpt lat="40.768435" lon=".58757"><ele>62.689</ele><time>2026-04-17T09:40:01Z</time></trkpt><trkpt lat="40.768452" lon=".587541"><ele>62.265</ele><time>2026-04-17T09:40:02Z</time></trkpt><trkpt lat="40.76847" lon=".587497"><ele>62.056</ele><time>2026-04-17T09:40:03Z</time></trkpt><trkpt lat="40.768516" lon=".587395"><ele>61.474</ele><time>2026-04-17T09:40:05Z</time></trkpt><trkpt lat="40.768536" lon=".587332"><ele>61.292</ele><time>2026-04-17T09:40:06Z</time></trkpt><trkpt lat="40.76855" lon=".587263"><ele>60.656</ele><time>2026-04-17T09:40:07Z</time></trkpt><trkpt lat="40.768553" lon=".587194"><ele>60.459</ele><time>2026-04-17T09:40:08Z</time></trkpt><trkpt lat="40.768541" lon=".587135"><ele>59.814</ele><time>2026-04-17T09:40:09Z</time></trkpt><trkpt lat="40.768524" lon=".587097"><ele>59.809</ele><time>2026-04-17T09:40:10Z</time></trkpt><trkpt lat="40.768509" lon=".587083"><ele>59.497</ele><time>2026-04-17T09:40:11Z</time></trkpt><trkpt lat="40.768491" lon=".58708"><ele>59.441</ele><time>2026-04-17T09:40:12Z</time></trkpt><trkpt lat="40.768484" lon=".587081"><ele>59.215</ele><time>2026-04-17T09:40:13Z</time></trkpt><trkpt lat="40.768484" lon=".587081"><ele>59.288</ele><time>2026-04-17T09:40:14Z</time></trkpt><trkpt lat="40.768458" lon=".587085"><ele>59.439</ele><time>2026-04-17T09:40:15Z</time></trkpt><trkpt lat="40.76843" lon=".587096"><ele>59.685</ele><time>2026-04-17T09:40:16Z</time></trkpt><trkpt lat="40.768408" lon=".587114"><ele>59.686</ele><time>2026-04-17T09:40:17Z</time></trkpt><trkpt lat="40.768389" lon=".58713"><ele>59.854</ele><time>2026-04-17T09:40:18Z</time></trkpt><trkpt lat="40.76837" lon=".587139"><ele>59.832</ele><time>2026-04-17T09:40:19Z</time></trkpt><trkpt lat="40.768347" lon=".587148"><ele>60.471</ele><time>2026-04-17T09:40:20Z</time></trkpt><trkpt lat="40.768315" lon=".587161"><ele>61.441</ele><time>2026-04-17T09:40:21Z</time></trkpt><trkpt lat="40.768242" lon=".587202"><ele>62.415</ele><time>2026-04-17T09:40:23Z</time></trkpt><trkpt lat="40.768148" lon=".587251"><ele>63.609</ele><time>2026-04-17T09:40:27Z</time></trkpt><trkpt lat="40.768129" lon=".587267"><ele>63.859</ele><time>2026-04-17T09:40:28Z</time></trkpt><trkpt lat="40.768099" lon=".587272"><ele>64.463</ele><time>2026-04-17T09:40:29Z</time></trkpt><trkpt lat="40.768072" lon=".587269"><ele>65.027</ele><time>2026-04-17T09:40:30Z</time></trkpt><trkpt lat="40.768026" lon=".587252"><ele>65.890</ele><time>2026-04-17T09:40:32Z</time></trkpt><trkpt lat="40.767999" lon=".587242"><ele>66.091</ele><time>2026-04-17T09:40:33Z</time></trkpt><trkpt lat="40.767972" lon=".587237"><ele>66.677</ele><time>2026-04-17T09:40:34Z</time></trkpt><trkpt lat="40.767947" lon=".58723"><ele>66.868</ele><time>2026-04-17T09:40:35Z</time></trkpt><trkpt lat="40.767922" lon=".587221"><ele>67.476</ele><time>2026-04-17T09:40:36Z</time></trkpt><trkpt lat="40.767895" lon=".58721"><ele>67.694</ele><time>2026-04-17T09:40:37Z</time></trkpt><trkpt lat="40.767876" lon=".587194"><ele>67.811</ele><time>2026-04-17T09:40:38Z</time></trkpt><trkpt lat="40.767858" lon=".587177"><ele>68.621</ele><time>2026-04-17T09:40:39Z</time></trkpt><trkpt lat="40.767845" lon=".587154"><ele>68.603</ele><time>2026-04-17T09:40:40Z</time></trkpt><trkpt lat="40.767834" lon=".587125"><ele>68.809</ele><time>2026-04-17T09:40:41Z</time></trkpt><trkpt lat="40.767822" lon=".587088"><ele>69.273</ele><time>2026-04-17T09:40:42Z</time></trkpt><trkpt lat="40.767815" lon=".587052"><ele>69.667</ele><time>2026-04-17T09:40:43Z</time></trkpt><trkpt lat="40.76781" lon=".587017"><ele>70.261</ele><time>2026-04-17T09:40:44Z</time></trkpt><trkpt lat="40.767806" lon=".586982"><ele>70.494</ele><time>2026-04-17T09:40:45Z</time></trkpt><trkpt lat="40.767798" lon=".586949"><ele>70.665</ele><time>2026-04-17T09:40:46Z</time></trkpt><trkpt lat="40.767792" lon=".586916"><ele>70.811</ele><time>2026-04-17T09:40:47Z</time></trkpt><trkpt lat="40.767784" lon=".586879"><ele>71.462</ele><time>2026-04-17T09:40:48Z</time></trkpt><trkpt lat="40.767776" lon=".586847"><ele>72.070</ele><time>2026-04-17T09:40:49Z</time></trkpt><trkpt lat="40.767767" lon=".586818"><ele>72.848</ele><time>2026-04-17T09:40:50Z</time></trkpt><trkpt lat="40.767758" lon=".586789"><ele>73.057</ele><time>2026-04-17T09:40:51Z</time></trkpt><trkpt lat="40.767747" lon=".586759"><ele>73.400</ele><time>2026-04-17T09:40:52Z</time></trkpt><trkpt lat="40.767728" lon=".586727"><ele>73.620</ele><time>2026-04-17T09:40:53Z</time></trkpt><trkpt lat="40.767703" lon=".586698"><ele>74.209</ele><time>2026-04-17T09:40:54Z</time></trkpt><trkpt lat="40.767673" lon=".586678"><ele>74.867</ele><time>2026-04-17T09:40:55Z</time></trkpt><trkpt lat="40.76764" lon=".586664"><ele>74.881</ele><time>2026-04-17T09:40:56Z</time></trkpt><trkpt lat="40.767604" lon=".586658"><ele>75.015</ele><time>2026-04-17T09:40:57Z</time></trkpt><trkpt lat="40.767566" lon=".586651"><ele>75.058</ele><time>2026-04-17T09:40:58Z</time></trkpt><trkpt lat="40.767527" lon=".586638"><ele>75.099</ele><time>2026-04-17T09:40:59Z</time></trkpt><trkpt lat="40.76749" lon=".586618"><ele>75.045</ele><time>2026-04-17T09:41:00Z</time></trkpt><trkpt lat="40.767456" lon=".586589"><ele>75.096</ele><time>2026-04-17T09:41:01Z</time></trkpt><trkpt lat="40.767423" lon=".586554"><ele>75.084</ele><time>2026-04-17T09:41:02Z</time></trkpt><trkpt lat="40.767394" lon=".586515"><ele>75.062</ele><time>2026-04-17T09:41:03Z</time></trkpt><trkpt lat="40.767368" lon=".586477"><ele>75.074</ele><time>2026-04-17T09:41:04Z</time></trkpt><trkpt lat="40.767346" lon=".58644"><ele>75.056</ele><time>2026-04-17T09:41:05Z</time></trkpt><trkpt lat="40.767323" lon=".586413"><ele>75.021</ele><time>2026-04-17T09:41:06Z</time></trkpt><trkpt lat="40.767304" lon=".586386"><ele>75.009</ele><time>2026-04-17T09:41:07Z</time></trkpt><trkpt lat="40.767285" lon=".586361"><ele>75.089</ele><time>2026-04-17T09:41:08Z</time></trkpt><trkpt lat="40.76727" lon=".586336"><ele>75.033</ele><time>2026-04-17T09:41:09Z</time></trkpt><trkpt lat="40.767257" lon=".586313"><ele>75.267</ele><time>2026-04-17T09:41:10Z</time></trkpt><trkpt lat="40.767239" lon=".586286"><ele>75.440</ele><time>2026-04-17T09:41:11Z</time></trkpt><trkpt lat="40.767224" lon=".586257"><ele>75.871</ele><time>2026-04-17T09:41:12Z</time></trkpt><trkpt lat="40.76721" lon=".586225"><ele>76.077</ele><time>2026-04-17T09:41:13Z</time></trkpt><trkpt lat="40.767199" lon=".586194"><ele>76.278</ele><time>2026-04-17T09:41:14Z</time></trkpt><trkpt lat="40.767187" lon=".586161"><ele>76.436</ele><time>2026-04-17T09:41:15Z</time></trkpt><trkpt lat="40.767178" lon=".586129"><ele>76.654</ele><time>2026-04-17T09:41:16Z</time></trkpt><trkpt lat="40.767169" lon=".586099"><ele>77.436</ele><time>2026-04-17T09:41:17Z</time></trkpt><trkpt lat="40.767162" lon=".586069"><ele>77.617</ele><time>2026-04-17T09:41:18Z</time></trkpt><trkpt lat="40.767158" lon=".586038"><ele>78.218</ele><time>2026-04-17T09:41:19Z</time></trkpt><trkpt lat="40.767148" lon=".586006"><ele>78.809</ele><time>2026-04-17T09:41:20Z</time></trkpt><trkpt lat="40.767137" lon=".585975"><ele>79.035</ele><time>2026-04-17T09:41:21Z</time></trkpt><trkpt lat="40.767128" lon=".585943"><ele>79.619</ele><time>2026-04-17T09:41:22Z</time></trkpt><trkpt lat="40.76712" lon=".585914"><ele>79.883</ele><time>2026-04-17T09:41:23Z</time></trkpt><trkpt lat="40.767109" lon=".585884"><ele>80.246</ele><time>2026-04-17T09:41:24Z</time></trkpt><trkpt lat="40.767091" lon=".585857"><ele>80.447</ele><time>2026-04-17T09:41:25Z</time></trkpt><trkpt lat="40.767074" lon=".585831"><ele>80.843</ele><time>2026-04-17T09:41:26Z</time></trkpt><trkpt lat="40.767055" lon=".585809"><ele>80.824</ele><time>2026-04-17T09:41:27Z</time></trkpt><trkpt lat="40.767031" lon=".585792"><ele>81.242</ele><time>2026-04-17T09:41:28Z</time></trkpt><trkpt lat="40.767006" lon=".585781"><ele>81.610</ele><time>2026-04-17T09:41:29Z</time></trkpt><trkpt lat="40.766979" lon=".585771"><ele>81.635</ele><time>2026-04-17T09:41:30Z</time></trkpt><trkpt lat="40.766951" lon=".585763"><ele>82.086</ele><time>2026-04-17T09:41:31Z</time></trkpt><trkpt lat="40.766925" lon=".585753"><ele>82.014</ele><time>2026-04-17T09:41:32Z</time></trkpt><trkpt lat="40.766899" lon=".585736"><ele>82.209</ele><time>2026-04-17T09:41:33Z</time></trkpt><trkpt lat="40.766876" lon=".585707"><ele>82.295</ele><time>2026-04-17T09:41:34Z</time></trkpt><trkpt lat="40.766858" lon=".585674"><ele>82.249</ele><time>2026-04-17T09:41:35Z</time></trkpt><trkpt lat="40.766845" lon=".585642"><ele>82.243</ele><time>2026-04-17T09:41:36Z</time></trkpt><trkpt lat="40.76684" lon=".585619"><ele>82.486</ele><time>2026-04-17T09:41:37Z</time></trkpt><trkpt lat="40.766837" lon=".585601"><ele>82.657</ele><time>2026-04-17T09:41:38Z</time></trkpt><trkpt lat="40.766836" lon=".585594"><ele>82.623</ele><time>2026-04-17T09:41:39Z</time></trkpt><trkpt lat="40.766836" lon=".585594"><ele>82.854</ele><time>2026-04-17T09:41:40Z</time></trkpt><trkpt lat="40.766836" lon=".585594"><ele>82.892</ele><time>2026-04-17T09:41:41Z</time></trkpt><trkpt lat="40.766862" lon=".58556"><ele>84.850</ele><time>2026-04-17T09:42:18Z</time></trkpt><trkpt lat="40.766876" lon=".585533"><ele>84.843</ele><time>2026-04-17T09:42:19Z</time></trkpt><trkpt lat="40.766903" lon=".585438"><ele>84.864</ele><time>2026-04-17T09:42:22Z</time></trkpt><trkpt lat="40.766919" lon=".58542"><ele>84.810</ele><time>2026-04-17T09:42:23Z</time></trkpt><trkpt lat="40.766958" lon=".58539"><ele>84.809</ele><time>2026-04-17T09:42:25Z</time></trkpt><trkpt lat="40.766977" lon=".585388"><ele>84.826</ele><time>2026-04-17T09:42:26Z</time></trkpt><trkpt lat="40.766993" lon=".585396"><ele>84.620</ele><time>2026-04-17T09:42:27Z</time></trkpt><trkpt lat="40.767014" lon=".585402"><ele>84.424</ele><time>2026-04-17T09:42:28Z</time></trkpt><trkpt lat="40.767037" lon=".585405"><ele>84.217</ele><time>2026-04-17T09:42:29Z</time></trkpt><trkpt lat="40.767061" lon=".585404"><ele>84.278</ele><time>2026-04-17T09:42:30Z</time></trkpt><trkpt lat="40.767128" lon=".585396"><ele>84.014</ele><time>2026-04-17T09:42:32Z</time></trkpt><trkpt lat="40.767228" lon=".585371"><ele>83.655</ele><time>2026-04-17T09:42:35Z</time></trkpt><trkpt lat="40.76725" lon=".585369"><ele>83.053</ele><time>2026-04-17T09:42:36Z</time></trkpt><trkpt lat="40.767263" lon=".585362"><ele>82.261</ele><time>2026-04-17T09:42:37Z</time></trkpt><trkpt lat="40.767275" lon=".585343"><ele>81.875</ele><time>2026-04-17T09:42:38Z</time></trkpt><trkpt lat="40.767293" lon=".585309"><ele>80.228</ele><time>2026-04-17T09:42:39Z</time></trkpt><trkpt lat="40.76731" lon=".585279"><ele>79.420</ele><time>2026-04-17T09:42:40Z</time></trkpt><trkpt lat="40.767332" lon=".585254"><ele>78.209</ele><time>2026-04-17T09:42:41Z</time></trkpt><trkpt lat="40.767354" lon=".585246"><ele>77.879</ele><time>2026-04-17T09:42:42Z</time></trkpt><trkpt lat="40.767379" lon=".585251"><ele>77.293</ele><time>2026-04-17T09:42:43Z</time></trkpt><trkpt lat="40.767412" lon=".585257"><ele>76.437</ele><time>2026-04-17T09:42:44Z</time></trkpt><trkpt lat="40.767477" lon=".58528"><ele>75.850</ele><time>2026-04-17T09:42:46Z</time></trkpt><trkpt lat="40.767516" lon=".585305"><ele>75.691</ele><time>2026-04-17T09:42:47Z</time></trkpt><trkpt lat="40.767591" lon=".585355"><ele>75.047</ele><time>2026-04-17T09:42:49Z</time></trkpt><trkpt lat="40.767618" lon=".585369"><ele>74.228</ele><time>2026-04-17T09:42:50Z</time></trkpt><trkpt lat="40.767654" lon=".585372"><ele>73.886</ele><time>2026-04-17T09:42:51Z</time></trkpt><trkpt lat="40.767709" lon=".585358"><ele>73.254</ele><time>2026-04-17T09:42:52Z</time></trkpt><trkpt lat="40.767767" lon=".585335"><ele>73.063</ele><time>2026-04-17T09:42:53Z</time></trkpt><trkpt lat="40.767803" lon=".585331"><ele>72.644</ele><time>2026-04-17T09:42:54Z</time></trkpt><trkpt lat="40.767826" lon=".585338"><ele>72.018</ele><time>2026-04-17T09:42:55Z</time></trkpt><trkpt lat="40.767854" lon=".585333"><ele>71.609</ele><time>2026-04-17T09:42:56Z</time></trkpt><trkpt lat="40.767876" lon=".585324"><ele>71.288</ele><time>2026-04-17T09:42:57Z</time></trkpt><trkpt lat="40.767898" lon=".585342"><ele>70.632</ele><time>2026-04-17T09:42:58Z</time></trkpt><trkpt lat="40.767939" lon=".585361"><ele>69.656</ele><time>2026-04-17T09:42:59Z</time></trkpt><trkpt lat="40.767977" lon=".585373"><ele>69.299</ele><time>2026-04-17T09:43:00Z</time></trkpt><trkpt lat="40.768007" lon=".585371"><ele>68.610</ele><time>2026-04-17T09:43:01Z</time></trkpt><trkpt lat="40.768038" lon=".585368"><ele>68.646</ele><time>2026-04-17T09:43:02Z</time></trkpt><trkpt lat="40.768093" lon=".585387"><ele>68.077</ele><time>2026-04-17T09:43:03Z</time></trkpt><trkpt lat="40.768145" lon=".585404"><ele>67.465</ele><time>2026-04-17T09:43:04Z</time></trkpt><trkpt lat="40.768189" lon=".585402"><ele>67.213</ele><time>2026-04-17T09:43:05Z</time></trkpt><trkpt lat="40.768296" lon=".585384"><ele>66.619</ele><time>2026-04-17T09:43:07Z</time></trkpt><trkpt lat="40.768342" lon=".585389"><ele>65.809</ele><time>2026-04-17T09:43:08Z</time></trkpt><trkpt lat="40.768375" lon=".585412"><ele>64.619</ele><time>2026-04-17T09:43:09Z</time></trkpt><trkpt lat="40.768396" lon=".585458"><ele>64.009</ele><time>2026-04-17T09:43:10Z</time></trkpt><trkpt lat="40.768409" lon=".585504"><ele>63.253</ele><time>2026-04-17T09:43:11Z</time></trkpt><trkpt lat="40.768422" lon=".585549"><ele>62.867</ele><time>2026-04-17T09:43:12Z</time></trkpt><trkpt lat="40.768447" lon=".585579"><ele>62.011</ele><time>2026-04-17T09:43:13Z</time></trkpt><trkpt lat="40.768501" lon=".585608"><ele>61.854</ele><time>2026-04-17T09:43:14Z</time></trkpt><trkpt lat="40.768547" lon=".585642"><ele>61.635</ele><time>2026-04-17T09:43:15Z</time></trkpt><trkpt lat="40.768579" lon=".585685"><ele>61.451</ele><time>2026-04-17T09:43:16Z</time></trkpt><trkpt lat="40.768615" lon=".58573"><ele>61.452</ele><time>2026-04-17T09:43:17Z</time></trkpt><trkpt lat="40.768661" lon=".585777"><ele>61.050</ele><time>2026-04-17T09:43:18Z</time></trkpt><trkpt lat="40.768798" lon=".58586"><ele>59.868</ele><time>2026-04-17T09:43:21Z</time></trkpt><trkpt lat="40.768848" lon=".58589"><ele>58.063</ele><time>2026-04-17T09:43:22Z</time></trkpt><trkpt lat="40.768903" lon=".585913"><ele>57.444</ele><time>2026-04-17T09:43:23Z</time></trkpt><trkpt lat="40.768952" lon=".585923"><ele>56.618</ele><time>2026-04-17T09:43:24Z</time></trkpt><trkpt lat="40.769026" lon=".585996"><ele>55.209</ele><time>2026-04-17T09:43:27Z</time></trkpt><trkpt lat="40.769068" lon=".58603"><ele>55.278</ele><time>2026-04-17T09:43:28Z</time></trkpt><trkpt lat="40.76909" lon=".58605"><ele>55.052</ele><time>2026-04-17T09:43:29Z</time></trkpt><trkpt lat="40.769106" lon=".586067"><ele>55.036</ele><time>2026-04-17T09:43:30Z</time></trkpt><trkpt lat="40.769129" lon=".586072"><ele>54.869</ele><time>2026-04-17T09:43:31Z</time></trkpt><trkpt lat="40.769147" lon=".586066"><ele>54.840</ele><time>2026-04-17T09:43:32Z</time></trkpt><trkpt lat="40.769154" lon=".586072"><ele>54.866</ele><time>2026-04-17T09:43:33Z</time></trkpt><trkpt lat="40.769176" lon=".586078"><ele>54.857</ele><time>2026-04-17T09:43:34Z</time></trkpt><trkpt lat="40.769195" lon=".58609"><ele>55.495</ele><time>2026-04-17T09:43:35Z</time></trkpt><trkpt lat="40.769213" lon=".586102"><ele>56.093</ele><time>2026-04-17T09:43:36Z</time></trkpt><trkpt lat="40.769226" lon=".586136"><ele>56.278</ele><time>2026-04-17T09:43:37Z</time></trkpt><trkpt lat="40.769236" lon=".586165"><ele>56.833</ele><time>2026-04-17T09:43:38Z</time></trkpt><trkpt lat="40.769265" lon=".586196"><ele>57.026</ele><time>2026-04-17T09:43:39Z</time></trkpt><trkpt lat="40.769295" lon=".586232"><ele>57.209</ele><time>2026-04-17T09:43:40Z</time></trkpt><trkpt lat="40.769319" lon=".586271"><ele>57.429</ele><time>2026-04-17T09:43:41Z</time></trkpt><trkpt lat="40.76935" lon=".586332"><ele>58.013</ele><time>2026-04-17T09:43:43Z</time></trkpt><trkpt lat="40.769362" lon=".586368"><ele>58.087</ele><time>2026-04-17T09:43:44Z</time></trkpt><trkpt lat="40.769393" lon=".586407"><ele>58.250</ele><time>2026-04-17T09:43:46Z</time></trkpt><trkpt lat="40.76943" lon=".586392"><ele>58.271</ele><time>2026-04-17T09:43:47Z</time></trkpt><trkpt lat="40.769466" lon=".586375"><ele>58.267</ele><time>2026-04-17T09:43:48Z</time></trkpt><trkpt lat="40.769535" lon=".586371"><ele>57.838</ele><time>2026-04-17T09:43:50Z</time></trkpt><trkpt lat="40.769594" lon=".586424"><ele>56.656</ele><time>2026-04-17T09:43:52Z</time></trkpt><trkpt lat="40.769628" lon=".586467"><ele>56.414</ele><time>2026-04-17T09:43:53Z</time></trkpt><trkpt lat="40.769698" lon=".586565"><ele>55.642</ele><time>2026-04-17T09:43:55Z</time></trkpt><trkpt lat="40.769731" lon=".586624"><ele>55.022</ele><time>2026-04-17T09:43:56Z</time></trkpt><trkpt lat="40.769827" lon=".586861"><ele>53.814</ele><time>2026-04-17T09:44:00Z</time></trkpt><trkpt lat="40.76984" lon=".586881"><ele>53.009</ele><time>2026-04-17T09:44:01Z</time></trkpt><trkpt lat="40.769844" lon=".586885"><ele>52.876</ele><time>2026-04-17T09:44:02Z</time></trkpt><trkpt lat="40.769844" lon=".586885"><ele>52.470</ele><time>2026-04-17T09:44:03Z</time></trkpt><trkpt lat="40.769844" lon=".586885"><ele>52.474</ele><time>2026-04-17T09:44:04Z</time></trkpt><trkpt lat="40.769853" lon=".586935"><ele>52.657</ele><time>2026-04-17T09:44:24Z</time></trkpt><trkpt lat="40.769825" lon=".587028"><ele>52.678</ele><time>2026-04-17T09:44:27Z</time></trkpt><trkpt lat="40.769813" lon=".587062"><ele>52.874</ele><time>2026-04-17T09:44:28Z</time></trkpt><trkpt lat="40.769801" lon=".587098"><ele>53.015</ele><time>2026-04-17T09:44:29Z</time></trkpt><trkpt lat="40.76979" lon=".587132"><ele>53.283</ele><time>2026-04-17T09:44:30Z</time></trkpt><trkpt lat="40.769757" lon=".587235"><ele>53.411</ele><time>2026-04-17T09:44:33Z</time></trkpt><trkpt lat="40.769727" lon=".587305"><ele>53.475</ele><time>2026-04-17T09:44:35Z</time></trkpt><trkpt lat="40.769635" lon=".587455"><ele>53.628</ele><time>2026-04-17T09:44:40Z</time></trkpt><trkpt lat="40.769603" lon=".587548"><ele>53.820</ele><time>2026-04-17T09:44:43Z</time></trkpt><trkpt lat="40.769589" lon=".587575"><ele>54.009</ele><time>2026-04-17T09:44:44Z</time></trkpt><trkpt lat="40.769574" lon=".587603"><ele>54.239</ele><time>2026-04-17T09:44:45Z</time></trkpt><trkpt lat="40.769523" lon=".587673"><ele>54.623</ele><time>2026-04-17T09:44:48Z</time></trkpt><trkpt lat="40.769504" lon=".587695"><ele>54.867</ele><time>2026-04-17T09:44:49Z</time></trkpt><trkpt lat="40.769486" lon=".587717"><ele>55.020</ele><time>2026-04-17T09:44:50Z</time></trkpt><trkpt lat="40.769469" lon=".587739"><ele>55.421</ele><time>2026-04-17T09:44:51Z</time></trkpt><trkpt lat="40.769454" lon=".58776"><ele>55.497</ele><time>2026-04-17T09:44:52Z</time></trkpt><trkpt lat="40.769436" lon=".587779"><ele>55.888</ele><time>2026-04-17T09:44:53Z</time></trkpt><trkpt lat="40.769394" lon=".587816"><ele>56.296</ele><time>2026-04-17T09:44:55Z</time></trkpt><trkpt lat="40.769348" lon=".587841"><ele>56.424</ele><time>2026-04-17T09:44:57Z</time></trkpt><trkpt lat="40.769323" lon=".587849"><ele>56.672</ele><time>2026-04-17T09:44:58Z</time></trkpt><trkpt lat="40.769298" lon=".587855"><ele>56.813</ele><time>2026-04-17T09:44:59Z</time></trkpt><trkpt lat="40.769274" lon=".587857"><ele>57.014</ele><time>2026-04-17T09:45:00Z</time></trkpt><trkpt lat="40.769248" lon=".587858"><ele>57.409</ele><time>2026-04-17T09:45:01Z</time></trkpt><trkpt lat="40.769223" lon=".58786"><ele>58.039</ele><time>2026-04-17T09:45:02Z</time></trkpt><trkpt lat="40.769197" lon=".587862"><ele>58.253</ele><time>2026-04-17T09:45:03Z</time></trkpt><trkpt lat="40.769169" lon=".587865"><ele>58.447</ele><time>2026-04-17T09:45:04Z</time></trkpt><trkpt lat="40.76914" lon=".587866"><ele>58.640</ele><time>2026-04-17T09:45:05Z</time></trkpt><trkpt lat="40.769112" lon=".587863"><ele>59.011</ele><time>2026-04-17T09:45:06Z</time></trkpt><trkpt lat="40.769086" lon=".587858"><ele>59.227</ele><time>2026-04-17T09:45:07Z</time></trkpt><trkpt lat="40.769061" lon=".587853"><ele>59.488</ele><time>2026-04-17T09:45:08Z</time></trkpt><trkpt lat="40.769036" lon=".587846"><ele>59.646</ele><time>2026-04-17T09:45:09Z</time></trkpt><trkpt lat="40.769011" lon=".587839"><ele>59.874</ele><time>2026-04-17T09:45:10Z</time></trkpt><trkpt lat="40.768984" lon=".587832"><ele>60.093</ele><time>2026-04-17T09:45:11Z</time></trkpt><trkpt lat="40.768957" lon=".587825"><ele>60.065</ele><time>2026-04-17T09:45:12Z</time></trkpt><trkpt lat="40.768937" lon=".587816"><ele>60.221</ele><time>2026-04-17T09:45:13Z</time></trkpt><trkpt lat="40.768909" lon=".587799"><ele>60.409</ele><time>2026-04-17T09:45:14Z</time></trkpt><trkpt lat="40.768886" lon=".587782"><ele>60.631</ele><time>2026-04-17T09:45:15Z</time></trkpt><trkpt lat="40.768862" lon=".587769"><ele>60.645</ele><time>2026-04-17T09:45:16Z</time></trkpt><trkpt lat="40.76884" lon=".587754"><ele>60.889</ele><time>2026-04-17T09:45:17Z</time></trkpt><trkpt lat="40.768816" lon=".587744"><ele>61.272</ele><time>2026-04-17T09:45:18Z</time></trkpt><trkpt lat="40.768795" lon=".587734"><ele>61.233</ele><time>2026-04-17T09:45:19Z</time></trkpt><trkpt lat="40.768767" lon=".587719"><ele>61.669</ele><time>2026-04-17T09:45:20Z</time></trkpt><trkpt lat="40.768745" lon=".587707"><ele>61.630</ele><time>2026-04-17T09:45:21Z</time></trkpt><trkpt lat="40.768724" lon=".587694"><ele>61.828</ele><time>2026-04-17T09:45:22Z</time></trkpt><trkpt lat="40.768701" lon=".587683"><ele>62.266</ele><time>2026-04-17T09:45:23Z</time></trkpt><trkpt lat="40.76868" lon=".58767"><ele>62.213</ele><time>2026-04-17T09:45:24Z</time></trkpt><trkpt lat="40.768657" lon=".587659"><ele>62.443</ele><time>2026-04-17T09:45:25Z</time></trkpt><trkpt lat="40.768632" lon=".587658"><ele>62.407</ele><time>2026-04-17T09:45:26Z</time></trkpt><trkpt lat="40.768607" lon=".587663"><ele>62.409</ele><time>2026-04-17T09:45:27Z</time></trkpt><trkpt lat="40.768586" lon=".587677"><ele>62.413</ele><time>2026-04-17T09:45:28Z</time></trkpt><trkpt lat="40.768575" lon=".587694"><ele>62.497</ele><time>2026-04-17T09:45:29Z</time></trkpt><trkpt lat="40.768573" lon=".587702"><ele>62.451</ele><time>2026-04-17T09:45:30Z</time></trkpt><trkpt lat="40.768573" lon=".587702"><ele>62.424</ele><time>2026-04-17T09:45:31Z</time></trkpt><trkpt lat="40.768573" lon=".587702"><ele>62.435</ele><time>2026-04-17T09:45:32Z</time></trkpt><trkpt lat="40.768598" lon=".587714"><ele>63.031</ele><time>2026-04-17T09:47:36Z</time></trkpt><trkpt lat="40.768623" lon=".587727"><ele>63.022</ele><time>2026-04-17T09:47:37Z</time></trkpt><trkpt lat="40.768695" lon=".587787"><ele>63.070</ele><time>2026-04-17T09:47:40Z</time></trkpt><trkpt lat="40.768763" lon=".587865"><ele>63.058</ele><time>2026-04-17T09:47:43Z</time></trkpt><trkpt lat="40.768784" lon=".587892"><ele>63.245</ele><time>2026-04-17T09:47:44Z</time></trkpt><trkpt lat="40.768866" lon=".587975"><ele>64.247</ele><time>2026-04-17T09:47:48Z</time></trkpt><trkpt lat="40.768937" lon=".588031"><ele>65.011</ele><time>2026-04-17T09:47:51Z</time></trkpt><trkpt lat="40.768983" lon=".588064"><ele>65.409</ele><time>2026-04-17T09:47:53Z</time></trkpt><trkpt lat="40.769004" lon=".588081"><ele>65.816</ele><time>2026-04-17T09:47:54Z</time></trkpt><trkpt lat="40.769025" lon=".588098"><ele>66.050</ele><time>2026-04-17T09:47:55Z</time></trkpt><trkpt lat="40.769051" lon=".588112"><ele>66.284</ele><time>2026-04-17T09:47:56Z</time></trkpt><trkpt lat="40.769077" lon=".588123"><ele>66.457</ele><time>2026-04-17T09:47:57Z</time></trkpt><trkpt lat="40.769101" lon=".588132"><ele>66.488</ele><time>2026-04-17T09:47:58Z</time></trkpt><trkpt lat="40.769125" lon=".588144"><ele>66.634</ele><time>2026-04-17T09:47:59Z</time></trkpt><trkpt lat="40.769149" lon=".588157"><ele>66.875</ele><time>2026-04-17T09:48:00Z</time></trkpt><trkpt lat="40.769171" lon=".588169"><ele>67.263</ele><time>2026-04-17T09:48:01Z</time></trkpt><trkpt lat="40.769192" lon=".588183"><ele>67.411</ele><time>2026-04-17T09:48:02Z</time></trkpt><trkpt lat="40.769212" lon=".588198"><ele>67.614</ele><time>2026-04-17T09:48:03Z</time></trkpt><trkpt lat="40.769231" lon=".588213"><ele>67.854</ele><time>2026-04-17T09:48:04Z</time></trkpt><trkpt lat="40.769251" lon=".588225"><ele>68.209</ele><time>2026-04-17T09:48:05Z</time></trkpt><trkpt lat="40.769274" lon=".588235"><ele>68.409</ele><time>2026-04-17T09:48:06Z</time></trkpt><trkpt lat="40.769296" lon=".588246"><ele>68.613</ele><time>2026-04-17T09:48:07Z</time></trkpt><trkpt lat="40.769317" lon=".588258"><ele>69.067</ele><time>2026-04-17T09:48:08Z</time></trkpt><trkpt lat="40.769336" lon=".588271"><ele>69.631</ele><time>2026-04-17T09:48:09Z</time></trkpt><trkpt lat="40.769358" lon=".588285"><ele>70.274</ele><time>2026-04-17T09:48:10Z</time></trkpt><trkpt lat="40.769379" lon=".588302"><ele>70.435</ele><time>2026-04-17T09:48:11Z</time></trkpt><trkpt lat="40.769402" lon=".588319"><ele>70.861</ele><time>2026-04-17T09:48:12Z</time></trkpt><trkpt lat="40.769424" lon=".588335"><ele>71.232</ele><time>2026-04-17T09:48:13Z</time></trkpt><trkpt lat="40.769444" lon=".588352"><ele>71.250</ele><time>2026-04-17T09:48:14Z</time></trkpt><trkpt lat="40.769466" lon=".588365"><ele>71.428</ele><time>2026-04-17T09:48:15Z</time></trkpt><trkpt lat="40.76949" lon=".588379"><ele>71.672</ele><time>2026-04-17T09:48:16Z</time></trkpt><trkpt lat="40.769513" lon=".588395"><ele>71.813</ele><time>2026-04-17T09:48:17Z</time></trkpt><trkpt lat="40.769535" lon=".588412"><ele>71.814</ele><time>2026-04-17T09:48:18Z</time></trkpt><trkpt lat="40.769556" lon=".588427"><ele>72.209</ele><time>2026-04-17T09:48:19Z</time></trkpt><trkpt lat="40.76958" lon=".588444"><ele>72.299</ele><time>2026-04-17T09:48:20Z</time></trkpt><trkpt lat="40.769604" lon=".58846"><ele>72.673</ele><time>2026-04-17T09:48:21Z</time></trkpt><trkpt lat="40.769627" lon=".588476"><ele>72.857</ele><time>2026-04-17T09:48:22Z</time></trkpt><trkpt lat="40.76965" lon=".588493"><ele>73.020</ele><time>2026-04-17T09:48:23Z</time></trkpt><trkpt lat="40.769671" lon=".588511"><ele>73.081</ele><time>2026-04-17T09:48:24Z</time></trkpt><trkpt lat="40.769693" lon=".588528"><ele>73.277</ele><time>2026-04-17T09:48:25Z</time></trkpt><trkpt lat="40.769714" lon=".588546"><ele>73.448</ele><time>2026-04-17T09:48:26Z</time></trkpt><trkpt lat="40.769734" lon=".588567"><ele>73.486</ele><time>2026-04-17T09:48:27Z</time></trkpt><trkpt lat="40.76975" lon=".588593"><ele>73.874</ele><time>2026-04-17T09:48:28Z</time></trkpt><trkpt lat="40.769766" lon=".58862"><ele>74.082</ele><time>2026-04-17T09:48:29Z</time></trkpt><trkpt lat="40.769783" lon=".588648"><ele>74.443</ele><time>2026-04-17T09:48:30Z</time></trkpt><trkpt lat="40.769797" lon=".588676"><ele>74.817</ele><time>2026-04-17T09:48:31Z</time></trkpt><trkpt lat="40.769811" lon=".588705"><ele>74.809</ele><time>2026-04-17T09:48:32Z</time></trkpt><trkpt lat="40.769827" lon=".588731"><ele>75.670</ele><time>2026-04-17T09:48:33Z</time></trkpt><trkpt lat="40.769844" lon=".588755"><ele>76.024</ele><time>2026-04-17T09:48:34Z</time></trkpt><trkpt lat="40.769863" lon=".588778"><ele>76.418</ele><time>2026-04-17T09:48:35Z</time></trkpt><trkpt lat="40.769881" lon=".588804"><ele>76.651</ele><time>2026-04-17T09:48:36Z</time></trkpt><trkpt lat="40.769899" lon=".588832"><ele>77.012</ele><time>2026-04-17T09:48:37Z</time></trkpt><trkpt lat="40.769918" lon=".588858"><ele>77.228</ele><time>2026-04-17T09:48:38Z</time></trkpt><trkpt lat="40.769936" lon=".588887"><ele>77.239</ele><time>2026-04-17T09:48:39Z</time></trkpt><trkpt lat="40.769952" lon=".588921"><ele>77.457</ele><time>2026-04-17T09:48:40Z</time></trkpt><trkpt lat="40.769966" lon=".588956"><ele>77.655</ele><time>2026-04-17T09:48:41Z</time></trkpt><trkpt lat="40.769975" lon=".588994"><ele>77.678</ele><time>2026-04-17T09:48:42Z</time></trkpt><trkpt lat="40.769976" lon=".58903"><ele>77.833</ele><time>2026-04-17T09:48:43Z</time></trkpt><trkpt lat="40.769976" lon=".589065"><ele>78.026</ele><time>2026-04-17T09:48:44Z</time></trkpt><trkpt lat="40.769976" lon=".589104"><ele>78.009</ele><time>2026-04-17T09:48:45Z</time></trkpt><trkpt lat="40.769979" lon=".589145"><ele>78.419</ele><time>2026-04-17T09:48:46Z</time></trkpt><trkpt lat="40.769982" lon=".589187"><ele>78.693</ele><time>2026-04-17T09:48:47Z</time></trkpt><trkpt lat="40.769984" lon=".589229"><ele>78.637</ele><time>2026-04-17T09:48:48Z</time></trkpt><trkpt lat="40.769984" lon=".589273"><ele>78.840</ele><time>2026-04-17T09:48:49Z</time></trkpt><trkpt lat="40.76998" lon=".58932"><ele>78.631</ele><time>2026-04-17T09:48:50Z</time></trkpt><trkpt lat="40.769974" lon=".589372"><ele>78.897</ele><time>2026-04-17T09:48:51Z</time></trkpt><trkpt lat="40.76997" lon=".58943"><ele>78.638</ele><time>2026-04-17T09:48:52Z</time></trkpt><trkpt lat="40.769964" lon=".589493"><ele>78.896</ele><time>2026-04-17T09:48:53Z</time></trkpt><trkpt lat="40.769961" lon=".589558"><ele>78.674</ele><time>2026-04-17T09:48:54Z</time></trkpt><trkpt lat="40.769959" lon=".589626"><ele>78.443</ele><time>2026-04-17T09:48:55Z</time></trkpt><trkpt lat="40.769958" lon=".589695"><ele>78.264</ele><time>2026-04-17T09:48:56Z</time></trkpt><trkpt lat="40.769961" lon=".589765"><ele>78.410</ele><time>2026-04-17T09:48:57Z</time></trkpt><trkpt lat="40.76997" lon=".589834"><ele>78.009</ele><time>2026-04-17T09:48:58Z</time></trkpt><trkpt lat="40.769981" lon=".589902"><ele>77.866</ele><time>2026-04-17T09:48:59Z</time></trkpt><trkpt lat="40.769992" lon=".589976"><ele>77.810</ele><time>2026-04-17T09:49:00Z</time></trkpt><trkpt lat="40.770008" lon=".590051"><ele>77.844</ele><time>2026-04-17T09:49:01Z</time></trkpt><trkpt lat="40.770025" lon=".590125"><ele>77.697</ele><time>2026-04-17T09:49:02Z</time></trkpt><trkpt lat="40.770041" lon=".590199"><ele>77.438</ele><time>2026-04-17T09:49:03Z</time></trkpt><trkpt lat="40.77006" lon=".590435"><ele>77.084</ele><time>2026-04-17T09:49:06Z</time></trkpt><trkpt lat="40.770061" lon=".590596"><ele>76.465</ele><time>2026-04-17T09:49:08Z</time></trkpt><trkpt lat="40.770064" lon=".590905"><ele>75.293</ele><time>2026-04-17T09:49:12Z</time></trkpt><trkpt lat="40.77006" lon=".590988"><ele>75.011</ele><time>2026-04-17T09:49:13Z</time></trkpt><trkpt lat="40.770038" lon=".591253"><ele>74.451</ele><time>2026-04-17T09:49:16Z</time></trkpt><trkpt lat="40.770021" lon=".591343"><ele>74.201</ele><time>2026-04-17T09:49:17Z</time></trkpt><trkpt lat="40.770001" lon=".59143"><ele>73.011</ele><time>2026-04-17T09:49:18Z</time></trkpt><trkpt lat="40.76996" lon=".591592"><ele>72.009</ele><time>2026-04-17T09:49:20Z</time></trkpt><trkpt lat="40.769941" lon=".591671"><ele>71.647</ele><time>2026-04-17T09:49:21Z</time></trkpt><trkpt lat="40.769922" lon=".591748"><ele>71.641</ele><time>2026-04-17T09:49:22Z</time></trkpt><trkpt lat="40.769907" lon=".59182"><ele>71.485</ele><time>2026-04-17T09:49:23Z</time></trkpt><trkpt lat="40.769892" lon=".591892"><ele>71.448</ele><time>2026-04-17T09:49:24Z</time></trkpt><trkpt lat="40.769878" lon=".591959"><ele>71.659</ele><time>2026-04-17T09:49:25Z</time></trkpt><trkpt lat="40.769863" lon=".592025"><ele>71.895</ele><time>2026-04-17T09:49:26Z</time></trkpt><trkpt lat="40.769848" lon=".592088"><ele>72.076</ele><time>2026-04-17T09:49:27Z</time></trkpt><trkpt lat="40.76983" lon=".592148"><ele>72.264</ele><time>2026-04-17T09:49:28Z</time></trkpt><trkpt lat="40.76981" lon=".592204"><ele>72.662</ele><time>2026-04-17T09:49:29Z</time></trkpt><trkpt lat="40.769786" lon=".592255"><ele>73.086</ele><time>2026-04-17T09:49:30Z</time></trkpt><trkpt lat="40.769758" lon=".592304"><ele>73.260</ele><time>2026-04-17T09:49:31Z</time></trkpt><trkpt lat="40.769729" lon=".592349"><ele>73.826</ele><time>2026-04-17T09:49:32Z</time></trkpt><trkpt lat="40.769669" lon=".59243"><ele>74.209</ele><time>2026-04-17T09:49:34Z</time></trkpt><trkpt lat="40.76964" lon=".592467"><ele>74.450</ele><time>2026-04-17T09:49:35Z</time></trkpt><trkpt lat="40.769614" lon=".592503"><ele>74.824</ele><time>2026-04-17T09:49:36Z</time></trkpt><trkpt lat="40.769584" lon=".592596"><ele>75.018</ele><time>2026-04-17T09:49:38Z</time></trkpt><trkpt lat="40.769588" lon=".592643"><ele>75.411</ele><time>2026-04-17T09:49:39Z</time></trkpt><trkpt lat="40.769601" lon=".59269"><ele>75.482</ele><time>2026-04-17T09:49:40Z</time></trkpt><trkpt lat="40.769619" lon=".592737"><ele>76.228</ele><time>2026-04-17T09:49:41Z</time></trkpt><trkpt lat="40.769634" lon=".592788"><ele>76.489</ele><time>2026-04-17T09:49:42Z</time></trkpt><trkpt lat="40.769639" lon=".592841"><ele>76.877</ele><time>2026-04-17T09:49:43Z</time></trkpt><trkpt lat="40.769632" lon=".59289"><ele>77.025</ele><time>2026-04-17T09:49:44Z</time></trkpt><trkpt lat="40.769616" lon=".592932"><ele>77.478</ele><time>2026-04-17T09:49:45Z</time></trkpt><trkpt lat="40.769595" lon=".592968"><ele>77.833</ele><time>2026-04-17T09:49:46Z</time></trkpt><trkpt lat="40.769573" lon=".593006"><ele>78.026</ele><time>2026-04-17T09:49:47Z</time></trkpt><trkpt lat="40.769554" lon=".593046"><ele>78.209</ele><time>2026-04-17T09:49:48Z</time></trkpt><trkpt lat="40.769537" lon=".593087"><ele>78.439</ele><time>2026-04-17T09:49:49Z</time></trkpt><trkpt lat="40.769517" lon=".593125"><ele>78.863</ele><time>2026-04-17T09:49:50Z</time></trkpt><trkpt lat="40.769496" lon=".593167"><ele>79.077</ele><time>2026-04-17T09:49:51Z</time></trkpt><trkpt lat="40.769472" lon=".593205"><ele>79.220</ele><time>2026-04-17T09:49:52Z</time></trkpt><trkpt lat="40.769445" lon=".593239"><ele>79.411</ele><time>2026-04-17T09:49:53Z</time></trkpt><trkpt lat="40.76942" lon=".593274"><ele>79.827</ele><time>2026-04-17T09:49:54Z</time></trkpt><trkpt lat="40.769394" lon=".593311"><ele>80.218</ele><time>2026-04-17T09:49:55Z</time></trkpt><trkpt lat="40.769367" lon=".593349"><ele>80.416</ele><time>2026-04-17T09:49:56Z</time></trkpt><trkpt lat="40.769338" lon=".593387"><ele>80.654</ele><time>2026-04-17T09:49:57Z</time></trkpt><trkpt lat="40.769308" lon=".593425"><ele>80.871</ele><time>2026-04-17T09:49:58Z</time></trkpt><trkpt lat="40.769275" lon=".59346"><ele>81.241</ele><time>2026-04-17T09:49:59Z</time></trkpt><trkpt lat="40.769236" lon=".593486"><ele>81.615</ele><time>2026-04-17T09:50:00Z</time></trkpt><trkpt lat="40.769195" lon=".593493"><ele>81.809</ele><time>2026-04-17T09:50:01Z</time></trkpt><trkpt lat="40.769156" lon=".593487"><ele>82.039</ele><time>2026-04-17T09:50:02Z</time></trkpt><trkpt lat="40.769117" lon=".593469"><ele>82.213</ele><time>2026-04-17T09:50:03Z</time></trkpt><trkpt lat="40.769081" lon=".593442"><ele>82.497</ele><time>2026-04-17T09:50:04Z</time></trkpt><trkpt lat="40.769048" lon=".593407"><ele>82.410</ele><time>2026-04-17T09:50:05Z</time></trkpt><trkpt lat="40.769016" lon=".593366"><ele>82.831</ele><time>2026-04-17T09:50:06Z</time></trkpt><trkpt lat="40.768983" lon=".593322"><ele>82.867</ele><time>2026-04-17T09:50:07Z</time></trkpt><trkpt lat="40.768949" lon=".593277"><ele>83.478</ele><time>2026-04-17T09:50:08Z</time></trkpt><trkpt lat="40.768906" lon=".593234"><ele>83.456</ele><time>2026-04-17T09:50:09Z</time></trkpt><trkpt lat="40.768856" lon=".593198"><ele>83.684</ele><time>2026-04-17T09:50:10Z</time></trkpt><trkpt lat="40.768808" lon=".593173"><ele>83.897</ele><time>2026-04-17T09:50:11Z</time></trkpt><trkpt lat="40.768773" lon=".593152"><ele>83.823</ele><time>2026-04-17T09:50:12Z</time></trkpt><trkpt lat="40.76875" lon=".59313"><ele>83.825</ele><time>2026-04-17T09:50:13Z</time></trkpt><trkpt lat="40.768729" lon=".593103"><ele>83.809</ele><time>2026-04-17T09:50:14Z</time></trkpt><trkpt lat="40.768704" lon=".593071"><ele>84.071</ele><time>2026-04-17T09:50:15Z</time></trkpt><trkpt lat="40.768675" lon=".593036"><ele>84.035</ele><time>2026-04-17T09:50:16Z</time></trkpt><trkpt lat="40.768648" lon=".593"><ele>84.619</ele><time>2026-04-17T09:50:17Z</time></trkpt><trkpt lat="40.768622" lon=".592956"><ele>84.812</ele><time>2026-04-17T09:50:18Z</time></trkpt><trkpt lat="40.76859" lon=".592901"><ele>85.213</ele><time>2026-04-17T09:50:19Z</time></trkpt><trkpt lat="40.76855" lon=".592841"><ele>85.269</ele><time>2026-04-17T09:50:20Z</time></trkpt><trkpt lat="40.76851" lon=".592793"><ele>85.470</ele><time>2026-04-17T09:50:21Z</time></trkpt><trkpt lat="40.76847" lon=".592764"><ele>85.698</ele><time>2026-04-17T09:50:22Z</time></trkpt><trkpt lat="40.768434" lon=".592742"><ele>85.636</ele><time>2026-04-17T09:50:23Z</time></trkpt><trkpt lat="40.76841" lon=".592719"><ele>85.837</ele><time>2026-04-17T09:50:24Z</time></trkpt><trkpt lat="40.768392" lon=".592697"><ele>85.849</ele><time>2026-04-17T09:50:25Z</time></trkpt><trkpt lat="40.768379" lon=".592672"><ele>86.013</ele><time>2026-04-17T09:50:26Z</time></trkpt><trkpt lat="40.768356" lon=".592649"><ele>86.209</ele><time>2026-04-17T09:50:27Z</time></trkpt><trkpt lat="40.768319" lon=".592622"><ele>86.495</ele><time>2026-04-17T09:50:28Z</time></trkpt><trkpt lat="40.768278" lon=".592592"><ele>86.659</ele><time>2026-04-17T09:50:29Z</time></trkpt><trkpt lat="40.76824" lon=".59256"><ele>86.653</ele><time>2026-04-17T09:50:30Z</time></trkpt><trkpt lat="40.768206" lon=".592523"><ele>87.096</ele><time>2026-04-17T09:50:31Z</time></trkpt><trkpt lat="40.768173" lon=".592482"><ele>87.087</ele><time>2026-04-17T09:50:32Z</time></trkpt><trkpt lat="40.768147" lon=".592445"><ele>87.293</ele><time>2026-04-17T09:50:33Z</time></trkpt><trkpt lat="40.76811" lon=".592415"><ele>87.274</ele><time>2026-04-17T09:50:34Z</time></trkpt><trkpt lat="40.768067" lon=".59238"><ele>87.062</ele><time>2026-04-17T09:50:35Z</time></trkpt><trkpt lat="40.768024" lon=".592347"><ele>86.840</ele><time>2026-04-17T09:50:36Z</time></trkpt><trkpt lat="40.767981" lon=".592328"><ele>86.823</ele><time>2026-04-17T09:50:37Z</time></trkpt><trkpt lat="40.76795" lon=".592331"><ele>86.883</ele><time>2026-04-17T09:50:38Z</time></trkpt><trkpt lat="40.767926" lon=".592334"><ele>86.811</ele><time>2026-04-17T09:50:39Z</time></trkpt><trkpt lat="40.767898" lon=".592337"><ele>86.809</ele><time>2026-04-17T09:50:40Z</time></trkpt><trkpt lat="40.767867" lon=".592332"><ele>86.844</ele><time>2026-04-17T09:50:41Z</time></trkpt><trkpt lat="40.76783" lon=".59232"><ele>86.878</ele><time>2026-04-17T09:50:42Z</time></trkpt><trkpt lat="40.767784" lon=".592306"><ele>86.882</ele><time>2026-04-17T09:50:43Z</time></trkpt><trkpt lat="40.767727" lon=".592295"><ele>86.885</ele><time>2026-04-17T09:50:44Z</time></trkpt><trkpt lat="40.767671" lon=".592291"><ele>86.826</ele><time>2026-04-17T09:50:45Z</time></trkpt><trkpt lat="40.767617" lon=".592277"><ele>86.862</ele><time>2026-04-17T09:50:46Z</time></trkpt><trkpt lat="40.767568" lon=".592261"><ele>86.843</ele><time>2026-04-17T09:50:47Z</time></trkpt><trkpt lat="40.767477" lon=".592259"><ele>86.821</ele><time>2026-04-17T09:50:49Z</time></trkpt><trkpt lat="40.767427" lon=".592255"><ele>87.089</ele><time>2026-04-17T09:50:50Z</time></trkpt><trkpt lat="40.767389" lon=".59225"><ele>86.698</ele><time>2026-04-17T09:50:51Z</time></trkpt><trkpt lat="40.767312" lon=".592239"><ele>86.415</ele><time>2026-04-17T09:50:53Z</time></trkpt><trkpt lat="40.767276" lon=".59223"><ele>86.426</ele><time>2026-04-17T09:50:54Z</time></trkpt><trkpt lat="40.767234" lon=".592218"><ele>86.409</ele><time>2026-04-17T09:50:55Z</time></trkpt><trkpt lat="40.767186" lon=".5922"><ele>86.481</ele><time>2026-04-17T09:50:56Z</time></trkpt><trkpt lat="40.767131" lon=".592178"><ele>86.415</ele><time>2026-04-17T09:50:57Z</time></trkpt><trkpt lat="40.76701" lon=".592078"><ele>86.639</ele><time>2026-04-17T09:50:59Z</time></trkpt><trkpt lat="40.766866" lon=".591964"><ele>86.012</ele><time>2026-04-17T09:51:01Z</time></trkpt><trkpt lat="40.766804" lon=".591926"><ele>85.083</ele><time>2026-04-17T09:51:02Z</time></trkpt><trkpt lat="40.766719" lon=".591864"><ele>83.449</ele><time>2026-04-17T09:51:03Z</time></trkpt><trkpt lat="40.766623" lon=".591744"><ele>80.820</ele><time>2026-04-17T09:51:05Z</time></trkpt><trkpt lat="40.766586" lon=".591671"><ele>80.278</ele><time>2026-04-17T09:51:06Z</time></trkpt><trkpt lat="40.766551" lon=".591605"><ele>79.696</ele><time>2026-04-17T09:51:07Z</time></trkpt><trkpt lat="40.766522" lon=".591547"><ele>79.645</ele><time>2026-04-17T09:51:08Z</time></trkpt><trkpt lat="40.766498" lon=".591486"><ele>79.447</ele><time>2026-04-17T09:51:09Z</time></trkpt><trkpt lat="40.766485" lon=".591438"><ele>79.411</ele><time>2026-04-17T09:51:10Z</time></trkpt><trkpt lat="40.76648" lon=".591403"><ele>79.409</ele><time>2026-04-17T09:51:11Z</time></trkpt><trkpt lat="40.766468" lon=".591376"><ele>79.866</ele><time>2026-04-17T09:51:12Z</time></trkpt><trkpt lat="40.766449" lon=".591353"><ele>80.020</ele><time>2026-04-17T09:51:13Z</time></trkpt><trkpt lat="40.766444" lon=".591323"><ele>80.684</ele><time>2026-04-17T09:51:14Z</time></trkpt><trkpt lat="40.766455" lon=".591295"><ele>81.067</ele><time>2026-04-17T09:51:15Z</time></trkpt><trkpt lat="40.766465" lon=".591261"><ele>81.658</ele><time>2026-04-17T09:51:16Z</time></trkpt><trkpt lat="40.766451" lon=".591222"><ele>82.014</ele><time>2026-04-17T09:51:17Z</time></trkpt><trkpt lat="40.766431" lon=".591192"><ele>82.435</ele><time>2026-04-17T09:51:18Z</time></trkpt><trkpt lat="40.766422" lon=".591157"><ele>82.623</ele><time>2026-04-17T09:51:19Z</time></trkpt><trkpt lat="40.766416" lon=".591108"><ele>82.851</ele><time>2026-04-17T09:51:20Z</time></trkpt><trkpt lat="40.766424" lon=".591064"><ele>82.848</ele><time>2026-04-17T09:51:21Z</time></trkpt><trkpt lat="40.766494" lon=".590938"><ele>83.061</ele><time>2026-04-17T09:51:24Z</time></trkpt><trkpt lat="40.766529" lon=".590917"><ele>83.217</ele><time>2026-04-17T09:51:25Z</time></trkpt><trkpt lat="40.766566" lon=".590901"><ele>83.209</ele><time>2026-04-17T09:51:26Z</time></trkpt><trkpt lat="40.766601" lon=".590893"><ele>83.296</ele><time>2026-04-17T09:51:27Z</time></trkpt><trkpt lat="40.766649" lon=".59089"><ele>83.290</ele><time>2026-04-17T09:51:28Z</time></trkpt><trkpt lat="40.766691" lon=".590885"><ele>83.244</ele><time>2026-04-17T09:51:29Z</time></trkpt><trkpt lat="40.766729" lon=".590869"><ele>83.257</ele><time>2026-04-17T09:51:30Z</time></trkpt><trkpt lat="40.766752" lon=".590845"><ele>83.238</ele><time>2026-04-17T09:51:31Z</time></trkpt><trkpt lat="40.76678" lon=".590828"><ele>83.294</ele><time>2026-04-17T09:51:32Z</time></trkpt><trkpt lat="40.766808" lon=".590809"><ele>83.295</ele><time>2026-04-17T09:51:33Z</time></trkpt><trkpt lat="40.766827" lon=".590784"><ele>83.073</ele><time>2026-04-17T09:51:34Z</time></trkpt><trkpt lat="40.766841" lon=".590758"><ele>83.051</ele><time>2026-04-17T09:51:35Z</time></trkpt><trkpt lat="40.766855" lon=".590736"><ele>82.887</ele><time>2026-04-17T09:51:36Z</time></trkpt><trkpt lat="40.766877" lon=".590703"><ele>82.842</ele><time>2026-04-17T09:51:37Z</time></trkpt><trkpt lat="40.766959" lon=".59058"><ele>82.426</ele><time>2026-04-17T09:51:40Z</time></trkpt><trkpt lat="40.767052" lon=".590506"><ele>81.209</ele><time>2026-04-17T09:51:42Z</time></trkpt><trkpt lat="40.767113" lon=".590468"><ele>80.010</ele><time>2026-04-17T09:51:43Z</time></trkpt><trkpt lat="40.767178" lon=".590438"><ele>79.424</ele><time>2026-04-17T09:51:44Z</time></trkpt><trkpt lat="40.767242" lon=".590422"><ele>78.068</ele><time>2026-04-17T09:51:45Z</time></trkpt><trkpt lat="40.767305" lon=".590405"><ele>76.611</ele><time>2026-04-17T09:51:46Z</time></trkpt><trkpt lat="40.767355" lon=".590365"><ele>76.062</ele><time>2026-04-17T09:51:47Z</time></trkpt><trkpt lat="40.767399" lon=".590313"><ele>75.098</ele><time>2026-04-17T09:51:48Z</time></trkpt><trkpt lat="40.767439" lon=".590275"><ele>74.829</ele><time>2026-04-17T09:51:49Z</time></trkpt><trkpt lat="40.767473" lon=".590268"><ele>73.887</ele><time>2026-04-17T09:51:50Z</time></trkpt><trkpt lat="40.767505" lon=".590289"><ele>73.475</ele><time>2026-04-17T09:51:51Z</time></trkpt><trkpt lat="40.767536" lon=".590306"><ele>72.888</ele><time>2026-04-17T09:51:52Z</time></trkpt><trkpt lat="40.767565" lon=".590299"><ele>72.624</ele><time>2026-04-17T09:51:53Z</time></trkpt><trkpt lat="40.767584" lon=".590276"><ele>72.026</ele><time>2026-04-17T09:51:54Z</time></trkpt><trkpt lat="40.76761" lon=".590259"><ele>71.409</ele><time>2026-04-17T09:51:55Z</time></trkpt><trkpt lat="40.767642" lon=".590235"><ele>71.270</ele><time>2026-04-17T09:51:56Z</time></trkpt><trkpt lat="40.767673" lon=".590181"><ele>70.464</ele><time>2026-04-17T09:51:57Z</time></trkpt><trkpt lat="40.7677" lon=".590123"><ele>70.088</ele><time>2026-04-17T09:51:58Z</time></trkpt><trkpt lat="40.767714" lon=".590064"><ele>69.491</ele><time>2026-04-17T09:51:59Z</time></trkpt><trkpt lat="40.767707" lon=".590018"><ele>69.242</ele><time>2026-04-17T09:52:00Z</time></trkpt><trkpt lat="40.767678" lon=".589984"><ele>68.818</ele><time>2026-04-17T09:52:01Z</time></trkpt><trkpt lat="40.767643" lon=".58997"><ele>68.059</ele><time>2026-04-17T09:52:02Z</time></trkpt><trkpt lat="40.767603" lon=".589963"><ele>67.817</ele><time>2026-04-17T09:52:03Z</time></trkpt><trkpt lat="40.767556" lon=".589958"><ele>67.455</ele><time>2026-04-17T09:52:04Z</time></trkpt><trkpt lat="40.767503" lon=".589958"><ele>67.474</ele><time>2026-04-17T09:52:05Z</time></trkpt><trkpt lat="40.767446" lon=".589961"><ele>67.056</ele><time>2026-04-17T09:52:06Z</time></trkpt><trkpt lat="40.767389" lon=".589958"><ele>66.821</ele><time>2026-04-17T09:52:07Z</time></trkpt><trkpt lat="40.767282" lon=".589922"><ele>66.809</ele><time>2026-04-17T09:52:09Z</time></trkpt><trkpt lat="40.767244" lon=".589892"><ele>66.899</ele><time>2026-04-17T09:52:10Z</time></trkpt><trkpt lat="40.767209" lon=".589858"><ele>67.033</ele><time>2026-04-17T09:52:11Z</time></trkpt><trkpt lat="40.767169" lon=".589824"><ele>67.047</ele><time>2026-04-17T09:52:12Z</time></trkpt><trkpt lat="40.767129" lon=".589791"><ele>67.040</ele><time>2026-04-17T09:52:13Z</time></trkpt><trkpt lat="40.767084" lon=".589769"><ele>67.091</ele><time>2026-04-17T09:52:14Z</time></trkpt><trkpt lat="40.767037" lon=".589745"><ele>67.267</ele><time>2026-04-17T09:52:15Z</time></trkpt><trkpt lat="40.766944" lon=".58968"><ele>67.288</ele><time>2026-04-17T09:52:17Z</time></trkpt><trkpt lat="40.766899" lon=".589653"><ele>67.216</ele><time>2026-04-17T09:52:18Z</time></trkpt><trkpt lat="40.766855" lon=".589627"><ele>67.214</ele><time>2026-04-17T09:52:19Z</time></trkpt><trkpt lat="40.766813" lon=".589592"><ele>67.234</ele><time>2026-04-17T09:52:20Z</time></trkpt><trkpt lat="40.766773" lon=".589549"><ele>67.255</ele><time>2026-04-17T09:52:21Z</time></trkpt><trkpt lat="40.766694" lon=".58946"><ele>67.410</ele><time>2026-04-17T09:52:23Z</time></trkpt><trkpt lat="40.766609" lon=".589374"><ele>67.209</ele><time>2026-04-17T09:52:25Z</time></trkpt><trkpt lat="40.766571" lon=".589339"><ele>67.045</ele><time>2026-04-17T09:52:26Z</time></trkpt><trkpt lat="40.766545" lon=".58929"><ele>67.049</ele><time>2026-04-17T09:52:27Z</time></trkpt><trkpt lat="40.766517" lon=".589238"><ele>66.873</ele><time>2026-04-17T09:52:28Z</time></trkpt><trkpt lat="40.766491" lon=".589193"><ele>67.086</ele><time>2026-04-17T09:52:29Z</time></trkpt><trkpt lat="40.76646" lon=".589136"><ele>67.097</ele><time>2026-04-17T09:52:30Z</time></trkpt><trkpt lat="40.766435" lon=".58909"><ele>67.063</ele><time>2026-04-17T09:52:31Z</time></trkpt><trkpt lat="40.76641" lon=".589038"><ele>67.024</ele><time>2026-04-17T09:52:32Z</time></trkpt><trkpt lat="40.766394" lon=".588997"><ele>66.842</ele><time>2026-04-17T09:52:33Z</time></trkpt><trkpt lat="40.766372" lon=".588956"><ele>66.860</ele><time>2026-04-17T09:52:34Z</time></trkpt><trkpt lat="40.766336" lon=".588905"><ele>66.832</ele><time>2026-04-17T09:52:35Z</time></trkpt><trkpt lat="40.766302" lon=".588878"><ele>66.892</ele><time>2026-04-17T09:52:36Z</time></trkpt><trkpt lat="40.76627" lon=".588871"><ele>67.211</ele><time>2026-04-17T09:52:37Z</time></trkpt><trkpt lat="40.766238" lon=".588864"><ele>67.009</ele><time>2026-04-17T09:52:38Z</time></trkpt><trkpt lat="40.766215" lon=".588872"><ele>67.255</ele><time>2026-04-17T09:52:39Z</time></trkpt><trkpt lat="40.7662" lon=".588879"><ele>67.689</ele><time>2026-04-17T09:52:40Z</time></trkpt><trkpt lat="40.766181" lon=".588889"><ele>67.633</ele><time>2026-04-17T09:52:41Z</time></trkpt><trkpt lat="40.766155" lon=".588907"><ele>68.616</ele><time>2026-04-17T09:52:42Z</time></trkpt><trkpt lat="40.766125" lon=".588914"><ele>68.837</ele><time>2026-04-17T09:52:43Z</time></trkpt><trkpt lat="40.766097" lon=".588903"><ele>69.653</ele><time>2026-04-17T09:52:44Z</time></trkpt><trkpt lat="40.766052" lon=".588873"><ele>70.654</ele><time>2026-04-17T09:52:46Z</time></trkpt><trkpt lat="40.766023" lon=".588869"><ele>71.032</ele><time>2026-04-17T09:52:47Z</time></trkpt><trkpt lat="40.765989" lon=".588867"><ele>71.270</ele><time>2026-04-17T09:52:48Z</time></trkpt><trkpt lat="40.765952" lon=".588862"><ele>71.435</ele><time>2026-04-17T09:52:49Z</time></trkpt><trkpt lat="40.765913" lon=".588856"><ele>71.686</ele><time>2026-04-17T09:52:50Z</time></trkpt><trkpt lat="40.765876" lon=".588844"><ele>71.614</ele><time>2026-04-17T09:52:51Z</time></trkpt><trkpt lat="40.76584" lon=".588831"><ele>71.809</ele><time>2026-04-17T09:52:52Z</time></trkpt><trkpt lat="40.765807" lon=".588822"><ele>72.055</ele><time>2026-04-17T09:52:53Z</time></trkpt><trkpt lat="40.765773" lon=".58881"><ele>72.059</ele><time>2026-04-17T09:52:54Z</time></trkpt><trkpt lat="40.765742" lon=".588795"><ele>72.273</ele><time>2026-04-17T09:52:55Z</time></trkpt><trkpt lat="40.765709" lon=".58878"><ele>72.276</ele><time>2026-04-17T09:52:56Z</time></trkpt><trkpt lat="40.765675" lon=".588765"><ele>72.257</ele><time>2026-04-17T09:52:57Z</time></trkpt><trkpt lat="40.76564" lon=".588749"><ele>72.423</ele><time>2026-04-17T09:52:58Z</time></trkpt><trkpt lat="40.765604" lon=".588734"><ele>72.234</ele><time>2026-04-17T09:52:59Z</time></trkpt><trkpt lat="40.765567" lon=".588719"><ele>72.212</ele><time>2026-04-17T09:53:00Z</time></trkpt><trkpt lat="40.765529" lon=".588705"><ele>72.460</ele><time>2026-04-17T09:53:01Z</time></trkpt><trkpt lat="40.765488" lon=".58869"><ele>72.693</ele><time>2026-04-17T09:53:02Z</time></trkpt><trkpt lat="40.765448" lon=".588675"><ele>72.665</ele><time>2026-04-17T09:53:03Z</time></trkpt><trkpt lat="40.765408" lon=".58866"><ele>72.821</ele><time>2026-04-17T09:53:04Z</time></trkpt><trkpt lat="40.765367" lon=".588648"><ele>73.009</ele><time>2026-04-17T09:53:05Z</time></trkpt><trkpt lat="40.765323" lon=".588637"><ele>72.831</ele><time>2026-04-17T09:53:06Z</time></trkpt><trkpt lat="40.765278" lon=".588627"><ele>72.885</ele><time>2026-04-17T09:53:07Z</time></trkpt><trkpt lat="40.765233" lon=".588615"><ele>72.819</ele><time>2026-04-17T09:53:08Z</time></trkpt><trkpt lat="40.765188" lon=".588603"><ele>73.092</ele><time>2026-04-17T09:53:09Z</time></trkpt><trkpt lat="40.765143" lon=".588592"><ele>73.033</ele><time>2026-04-17T09:53:10Z</time></trkpt><trkpt lat="40.7651" lon=".588584"><ele>73.039</ele><time>2026-04-17T09:53:11Z</time></trkpt><trkpt lat="40.765055" lon=".588579"><ele>73.210</ele><time>2026-04-17T09:53:12Z</time></trkpt><trkpt lat="40.765012" lon=".588582"><ele>73.418</ele><time>2026-04-17T09:53:13Z</time></trkpt><trkpt lat="40.764971" lon=".588584"><ele>73.876</ele><time>2026-04-17T09:53:14Z</time></trkpt><trkpt lat="40.764927" lon=".588586"><ele>73.891</ele><time>2026-04-17T09:53:15Z</time></trkpt><trkpt lat="40.764883" lon=".588589"><ele>74.081</ele><time>2026-04-17T09:53:16Z</time></trkpt><trkpt lat="40.764839" lon=".588586"><ele>73.819</ele><time>2026-04-17T09:53:17Z</time></trkpt><trkpt lat="40.764796" lon=".588576"><ele>74.009</ele><time>2026-04-17T09:53:18Z</time></trkpt><trkpt lat="40.764753" lon=".588573"><ele>74.041</ele><time>2026-04-17T09:53:19Z</time></trkpt><trkpt lat="40.764714" lon=".58858"><ele>74.095</ele><time>2026-04-17T09:53:20Z</time></trkpt><trkpt lat="40.764677" lon=".588589"><ele>74.219</ele><time>2026-04-17T09:53:21Z</time></trkpt><trkpt lat="40.764637" lon=".588596"><ele>74.482</ele><time>2026-04-17T09:53:22Z</time></trkpt><trkpt lat="40.764597" lon=".588599"><ele>74.853</ele><time>2026-04-17T09:53:23Z</time></trkpt><trkpt lat="40.764557" lon=".588603"><ele>74.849</ele><time>2026-04-17T09:53:24Z</time></trkpt><trkpt lat="40.764518" lon=".588598"><ele>75.040</ele><time>2026-04-17T09:53:25Z</time></trkpt><trkpt lat="40.76448" lon=".588584"><ele>75.048</ele><time>2026-04-17T09:53:26Z</time></trkpt><trkpt lat="40.764441" lon=".588565"><ele>75.266</ele><time>2026-04-17T09:53:27Z</time></trkpt><trkpt lat="40.764402" lon=".588544"><ele>75.433</ele><time>2026-04-17T09:53:28Z</time></trkpt><trkpt lat="40.764361" lon=".588529"><ele>75.423</ele><time>2026-04-17T09:53:29Z</time></trkpt><trkpt lat="40.764318" lon=".58851"><ele>75.615</ele><time>2026-04-17T09:53:30Z</time></trkpt><trkpt lat="40.764273" lon=".588488"><ele>75.609</ele><time>2026-04-17T09:53:31Z</time></trkpt><trkpt lat="40.76423" lon=".588465"><ele>75.625</ele><time>2026-04-17T09:53:32Z</time></trkpt><trkpt lat="40.764192" lon=".588441"><ele>75.659</ele><time>2026-04-17T09:53:33Z</time></trkpt><trkpt lat="40.764155" lon=".58842"><ele>75.863</ele><time>2026-04-17T09:53:34Z</time></trkpt><trkpt lat="40.764117" lon=".588404"><ele>75.876</ele><time>2026-04-17T09:53:35Z</time></trkpt><trkpt lat="40.76408" lon=".588391"><ele>75.857</ele><time>2026-04-17T09:53:36Z</time></trkpt><trkpt lat="40.764045" lon=".588388"><ele>76.043</ele><time>2026-04-17T09:53:37Z</time></trkpt><trkpt lat="40.764015" lon=".588399"><ele>76.044</ele><time>2026-04-17T09:53:38Z</time></trkpt><trkpt lat="40.763991" lon=".588425"><ele>76.292</ele><time>2026-04-17T09:53:39Z</time></trkpt><trkpt lat="40.763977" lon=".588466"><ele>76.250</ele><time>2026-04-17T09:53:40Z</time></trkpt><trkpt lat="40.763975" lon=".588515"><ele>76.881</ele><time>2026-04-17T09:53:41Z</time></trkpt><trkpt lat="40.763984" lon=".588565"><ele>77.061</ele><time>2026-04-17T09:53:42Z</time></trkpt><trkpt lat="40.764002" lon=".588609"><ele>77.417</ele><time>2026-04-17T09:53:43Z</time></trkpt><trkpt lat="40.764026" lon=".58865"><ele>77.809</ele><time>2026-04-17T09:53:44Z</time></trkpt><trkpt lat="40.76405" lon=".588693"><ele>78.210</ele><time>2026-04-17T09:53:45Z</time></trkpt><trkpt lat="40.764065" lon=".588738"><ele>78.644</ele><time>2026-04-17T09:53:46Z</time></trkpt><trkpt lat="40.764074" lon=".588787"><ele>79.088</ele><time>2026-04-17T09:53:47Z</time></trkpt><trkpt lat="40.764076" lon=".588842"><ele>79.651</ele><time>2026-04-17T09:53:48Z</time></trkpt><trkpt lat="40.764071" lon=".588884"><ele>79.822</ele><time>2026-04-17T09:53:49Z</time></trkpt><trkpt lat="40.764056" lon=".588937"><ele>80.098</ele><time>2026-04-17T09:53:50Z</time></trkpt><trkpt lat="40.764039" lon=".588966"><ele>80.219</ele><time>2026-04-17T09:53:51Z</time></trkpt><trkpt lat="40.764013" lon=".588987"><ele>80.617</ele><time>2026-04-17T09:53:52Z</time></trkpt><trkpt lat="40.763979" lon=".58899"><ele>81.225</ele><time>2026-04-17T09:53:53Z</time></trkpt><trkpt lat="40.763939" lon=".588978"><ele>81.216</ele><time>2026-04-17T09:53:54Z</time></trkpt><trkpt lat="40.763898" lon=".58896"><ele>81.476</ele><time>2026-04-17T09:53:55Z</time></trkpt><trkpt lat="40.763857" lon=".588939"><ele>81.613</ele><time>2026-04-17T09:53:56Z</time></trkpt><trkpt lat="40.763816" lon=".588916"><ele>81.809</ele><time>2026-04-17T09:53:57Z</time></trkpt><trkpt lat="40.763775" lon=".588891"><ele>81.843</ele><time>2026-04-17T09:53:58Z</time></trkpt><trkpt lat="40.763733" lon=".588868"><ele>81.697</ele><time>2026-04-17T09:53:59Z</time></trkpt><trkpt lat="40.76369" lon=".588846"><ele>81.451</ele><time>2026-04-17T09:54:00Z</time></trkpt><trkpt lat="40.763645" lon=".588822"><ele>81.614</ele><time>2026-04-17T09:54:01Z</time></trkpt><trkpt lat="40.763603" lon=".588793"><ele>81.615</ele><time>2026-04-17T09:54:02Z</time></trkpt><trkpt lat="40.763562" lon=".588758"><ele>81.631</ele><time>2026-04-17T09:54:03Z</time></trkpt><trkpt lat="40.763522" lon=".588719"><ele>81.662</ele><time>2026-04-17T09:54:04Z</time></trkpt><trkpt lat="40.76348" lon=".58868"><ele>81.650</ele><time>2026-04-17T09:54:05Z</time></trkpt><trkpt lat="40.763437" lon=".588642"><ele>81.888</ele><time>2026-04-17T09:54:06Z</time></trkpt><trkpt lat="40.763403" lon=".58861"><ele>81.884</ele><time>2026-04-17T09:54:07Z</time></trkpt><trkpt lat="40.763352" lon=".588567"><ele>81.807</ele><time>2026-04-17T09:54:08Z</time></trkpt><trkpt lat="40.763308" lon=".588535"><ele>82.017</ele><time>2026-04-17T09:54:09Z</time></trkpt><trkpt lat="40.763273" lon=".58851"><ele>82.009</ele><time>2026-04-17T09:54:10Z</time></trkpt><trkpt lat="40.763225" lon=".588482"><ele>82.060</ele><time>2026-04-17T09:54:11Z</time></trkpt><trkpt lat="40.763167" lon=".588456"><ele>82.264</ele><time>2026-04-17T09:54:12Z</time></trkpt><trkpt lat="40.763119" lon=".58844"><ele>82.288</ele><time>2026-04-17T09:54:13Z</time></trkpt><trkpt lat="40.763068" lon=".588428"><ele>82.441</ele><time>2026-04-17T09:54:14Z</time></trkpt><trkpt lat="40.763018" lon=".58842"><ele>82.412</ele><time>2026-04-17T09:54:15Z</time></trkpt><trkpt lat="40.762966" lon=".588414"><ele>82.468</ele><time>2026-04-17T09:54:16Z</time></trkpt><trkpt lat="40.762912" lon=".58841"><ele>82.639</ele><time>2026-04-17T09:54:17Z</time></trkpt><trkpt lat="40.762856" lon=".588411"><ele>82.617</ele><time>2026-04-17T09:54:18Z</time></trkpt><trkpt lat="40.762799" lon=".588414"><ele>82.685</ele><time>2026-04-17T09:54:19Z</time></trkpt><trkpt lat="40.762753" lon=".588421"><ele>82.618</ele><time>2026-04-17T09:54:20Z</time></trkpt><trkpt lat="40.762622" lon=".588449"><ele>82.698</ele><time>2026-04-17T09:54:22Z</time></trkpt><trkpt lat="40.762299" lon=".588587"><ele>81.217</ele><time>2026-04-17T09:54:27Z</time></trkpt><trkpt lat="40.762241" lon=".588583"><ele>81.009</ele><time>2026-04-17T09:54:28Z</time></trkpt><trkpt lat="40.762201" lon=".588557"><ele>80.613</ele><time>2026-04-17T09:54:29Z</time></trkpt><trkpt lat="40.762147" lon=".588505"><ele>80.427</ele><time>2026-04-17T09:54:30Z</time></trkpt><trkpt lat="40.7621" lon=".58846"><ele>80.241</ele><time>2026-04-17T09:54:31Z</time></trkpt><trkpt lat="40.762048" lon=".588425"><ele>80.094</ele><time>2026-04-17T09:54:32Z</time></trkpt><trkpt lat="40.761992" lon=".588407"><ele>79.675</ele><time>2026-04-17T09:54:33Z</time></trkpt><trkpt lat="40.761878" lon=".588432"><ele>79.251</ele><time>2026-04-17T09:54:35Z</time></trkpt><trkpt lat="40.761824" lon=".588453"><ele>79.022</ele><time>2026-04-17T09:54:36Z</time></trkpt><trkpt lat="40.761779" lon=".588462"><ele>79.030</ele><time>2026-04-17T09:54:37Z</time></trkpt><trkpt lat="40.761712" lon=".58848"><ele>78.818</ele><time>2026-04-17T09:54:38Z</time></trkpt><trkpt lat="40.761601" lon=".588514"><ele>78.475</ele><time>2026-04-17T09:54:40Z</time></trkpt><trkpt lat="40.761544" lon=".588521"><ele>78.228</ele><time>2026-04-17T09:54:41Z</time></trkpt><trkpt lat="40.761429" lon=".588526"><ele>77.820</ele><time>2026-04-17T09:54:43Z</time></trkpt><trkpt lat="40.761334" lon=".588575"><ele>77.609</ele><time>2026-04-17T09:54:45Z</time></trkpt><trkpt lat="40.7613" lon=".588589"><ele>77.279</ele><time>2026-04-17T09:54:46Z</time></trkpt><trkpt lat="40.761251" lon=".588603"><ele>77.073</ele><time>2026-04-17T09:54:47Z</time></trkpt><trkpt lat="40.761218" lon=".588624"><ele>76.877</ele><time>2026-04-17T09:54:48Z</time></trkpt><trkpt lat="40.761189" lon=".588656"><ele>76.860</ele><time>2026-04-17T09:54:49Z</time></trkpt><trkpt lat="40.761155" lon=".588685"><ele>76.851</ele><time>2026-04-17T09:54:50Z</time></trkpt><trkpt lat="40.761117" lon=".588698"><ele>76.657</ele><time>2026-04-17T09:54:51Z</time></trkpt><trkpt lat="40.761081" lon=".588701"><ele>76.478</ele><time>2026-04-17T09:54:52Z</time></trkpt><trkpt lat="40.761047" lon=".588711"><ele>76.256</ele><time>2026-04-17T09:54:53Z</time></trkpt><trkpt lat="40.761012" lon=".588724"><ele>75.654</ele><time>2026-04-17T09:54:54Z</time></trkpt><trkpt lat="40.760978" lon=".588737"><ele>75.494</ele><time>2026-04-17T09:54:55Z</time></trkpt><trkpt lat="40.760927" lon=".588747"><ele>75.257</ele><time>2026-04-17T09:54:56Z</time></trkpt><trkpt lat="40.760883" lon=".588738"><ele>75.022</ele><time>2026-04-17T09:54:57Z</time></trkpt><trkpt lat="40.76079" lon=".588711"><ele>74.809</ele><time>2026-04-17T09:54:59Z</time></trkpt><trkpt lat="40.760741" lon=".588711"><ele>74.881</ele><time>2026-04-17T09:55:00Z</time></trkpt><trkpt lat="40.760641" lon=".588738"><ele>74.665</ele><time>2026-04-17T09:55:02Z</time></trkpt><trkpt lat="40.760535" lon=".58876"><ele>74.829</ele><time>2026-04-17T09:55:04Z</time></trkpt><trkpt lat="40.760433" lon=".588768"><ele>74.682</ele><time>2026-04-17T09:55:06Z</time></trkpt><trkpt lat="40.760331" lon=".588796"><ele>74.643</ele><time>2026-04-17T09:55:08Z</time></trkpt><trkpt lat="40.760224" lon=".588814"><ele>74.689</ele><time>2026-04-17T09:55:10Z</time></trkpt><trkpt lat="40.760109" lon=".58884"><ele>74.660</ele><time>2026-04-17T09:55:12Z</time></trkpt><trkpt lat="40.760003" lon=".588907"><ele>74.448</ele><time>2026-04-17T09:55:14Z</time></trkpt><trkpt lat="40.759946" lon=".588933"><ele>74.416</ele><time>2026-04-17T09:55:15Z</time></trkpt><trkpt lat="40.759764" lon=".58898"><ele>73.851</ele><time>2026-04-17T09:55:18Z</time></trkpt><trkpt lat="40.759646" lon=".589003"><ele>73.801</ele><time>2026-04-17T09:55:20Z</time></trkpt><trkpt lat="40.759536" lon=".589044"><ele>73.811</ele><time>2026-04-17T09:55:22Z</time></trkpt><trkpt lat="40.759484" lon=".589076"><ele>73.809</ele><time>2026-04-17T09:55:23Z</time></trkpt><trkpt lat="40.75938" lon=".589149"><ele>74.277</ele><time>2026-04-17T09:55:25Z</time></trkpt><trkpt lat="40.75928" lon=".589211"><ele>74.471</ele><time>2026-04-17T09:55:27Z</time></trkpt><trkpt lat="40.759233" lon=".589233"><ele>74.635</ele><time>2026-04-17T09:55:28Z</time></trkpt><trkpt lat="40.759194" lon=".589247"><ele>74.848</ele><time>2026-04-17T09:55:29Z</time></trkpt><trkpt lat="40.759144" lon=".58926"><ele>75.229</ele><time>2026-04-17T09:55:30Z</time></trkpt><trkpt lat="40.759089" lon=".589283"><ele>75.435</ele><time>2026-04-17T09:55:31Z</time></trkpt><trkpt lat="40.759049" lon=".589318"><ele>75.626</ele><time>2026-04-17T09:55:32Z</time></trkpt><trkpt lat="40.758932" lon=".589441"><ele>76.244</ele><time>2026-04-17T09:55:35Z</time></trkpt><trkpt lat="40.75889" lon=".589467"><ele>76.252</ele><time>2026-04-17T09:55:36Z</time></trkpt><trkpt lat="40.758853" lon=".589479"><ele>76.425</ele><time>2026-04-17T09:55:37Z</time></trkpt><trkpt lat="40.758822" lon=".5895"><ele>76.426</ele><time>2026-04-17T09:55:38Z</time></trkpt><trkpt lat="40.758792" lon=".589541"><ele>76.408</ele><time>2026-04-17T09:55:39Z</time></trkpt><trkpt lat="40.758766" lon=".589589"><ele>76.609</ele><time>2026-04-17T09:55:40Z</time></trkpt><trkpt lat="40.758738" lon=".589639"><ele>76.664</ele><time>2026-04-17T09:55:41Z</time></trkpt><trkpt lat="40.758701" lon=".589679"><ele>76.648</ele><time>2026-04-17T09:55:42Z</time></trkpt><trkpt lat="40.758661" lon=".589704"><ele>76.652</ele><time>2026-04-17T09:55:43Z</time></trkpt><trkpt lat="40.758621" lon=".589715"><ele>76.425</ele><time>2026-04-17T09:55:44Z</time></trkpt><trkpt lat="40.758586" lon=".589716"><ele>76.476</ele><time>2026-04-17T09:55:45Z</time></trkpt><trkpt lat="40.758557" lon=".589705"><ele>76.452</ele><time>2026-04-17T09:55:46Z</time></trkpt><trkpt lat="40.758539" lon=".589689"><ele>76.463</ele><time>2026-04-17T09:55:47Z</time></trkpt><trkpt lat="40.758525" lon=".589661"><ele>76.411</ele><time>2026-04-17T09:55:48Z</time></trkpt><trkpt lat="40.758524" lon=".589639"><ele>76.439</ele><time>2026-04-17T09:55:49Z</time></trkpt><trkpt lat="40.758522" lon=".589617"><ele>76.659</ele><time>2026-04-17T09:55:50Z</time></trkpt><trkpt lat="40.758519" lon=".589594"><ele>76.803</ele><time>2026-04-17T09:55:51Z</time></trkpt><trkpt lat="40.758521" lon=".589569"><ele>77.023</ele><time>2026-04-17T09:55:52Z</time></trkpt><trkpt lat="40.758526" lon=".589542"><ele>77.209</ele><time>2026-04-17T09:55:53Z</time></trkpt><trkpt lat="40.758537" lon=".5895"><ele>77.427</ele><time>2026-04-17T09:55:54Z</time></trkpt><trkpt lat="40.758557" lon=".589478"><ele>77.811</ele><time>2026-04-17T09:55:55Z</time></trkpt><trkpt lat="40.758585" lon=".589465"><ele>78.025</ele><time>2026-04-17T09:55:56Z</time></trkpt><trkpt lat="40.758615" lon=".589445"><ele>78.218</ele><time>2026-04-17T09:55:57Z</time></trkpt><trkpt lat="40.758644" lon=".589411"><ele>78.859</ele><time>2026-04-17T09:55:58Z</time></trkpt><trkpt lat="40.758672" lon=".589381"><ele>78.865</ele><time>2026-04-17T09:55:59Z</time></trkpt><trkpt lat="40.758746" lon=".58935"><ele>79.016</ele><time>2026-04-17T09:56:01Z</time></trkpt><trkpt lat="40.758788" lon=".58933"><ele>79.014</ele><time>2026-04-17T09:56:02Z</time></trkpt><trkpt lat="40.758826" lon=".589295"><ele>79.062</ele><time>2026-04-17T09:56:03Z</time></trkpt><trkpt lat="40.758866" lon=".58925"><ele>79.026</ele><time>2026-04-17T09:56:04Z</time></trkpt><trkpt lat="40.758901" lon=".589217"><ele>79.047</ele><time>2026-04-17T09:56:05Z</time></trkpt><trkpt lat="40.758952" lon=".58917"><ele>79.011</ele><time>2026-04-17T09:56:06Z</time></trkpt><trkpt lat="40.758998" lon=".589129"><ele>79.009</ele><time>2026-04-17T09:56:07Z</time></trkpt><trkpt lat="40.759048" lon=".589093"><ele>79.084</ele><time>2026-04-17T09:56:08Z</time></trkpt><trkpt lat="40.759099" lon=".589061"><ele>79.048</ele><time>2026-04-17T09:56:09Z</time></trkpt><trkpt lat="40.759151" lon=".589029"><ele>78.832</ele><time>2026-04-17T09:56:10Z</time></trkpt><trkpt lat="40.759204" lon=".589003"><ele>78.625</ele><time>2026-04-17T09:56:11Z</time></trkpt><trkpt lat="40.759255" lon=".588968"><ele>78.666</ele><time>2026-04-17T09:56:12Z</time></trkpt><trkpt lat="40.759305" lon=".588922"><ele>78.072</ele><time>2026-04-17T09:56:13Z</time></trkpt><trkpt lat="40.759348" lon=".588885"><ele>78.013</ele><time>2026-04-17T09:56:14Z</time></trkpt><trkpt lat="40.759473" lon=".588805"><ele>77.691</ele><time>2026-04-17T09:56:16Z</time></trkpt><trkpt lat="40.759529" lon=".588719"><ele>77.469</ele><time>2026-04-17T09:56:18Z</time></trkpt><trkpt lat="40.759535" lon=".588679"><ele>77.272</ele><time>2026-04-17T09:56:19Z</time></trkpt><trkpt lat="40.759547" lon=".588643"><ele>77.213</ele><time>2026-04-17T09:56:20Z</time></trkpt><trkpt lat="40.759577" lon=".588621"><ele>77.014</ele><time>2026-04-17T09:56:21Z</time></trkpt><trkpt lat="40.759609" lon=".588612"><ele>77.009</ele><time>2026-04-17T09:56:22Z</time></trkpt><trkpt lat="40.75966" lon=".588601"><ele>77.039</ele><time>2026-04-17T09:56:23Z</time></trkpt><trkpt lat="40.759708" lon=".588593"><ele>76.863</ele><time>2026-04-17T09:56:24Z</time></trkpt><trkpt lat="40.759759" lon=".588588"><ele>77.057</ele><time>2026-04-17T09:56:25Z</time></trkpt><trkpt lat="40.759811" lon=".58858"><ele>77.050</ele><time>2026-04-17T09:56:26Z</time></trkpt><trkpt lat="40.759911" lon=".588552"><ele>76.651</ele><time>2026-04-17T09:56:28Z</time></trkpt><trkpt lat="40.759959" lon=".588546"><ele>77.097</ele><time>2026-04-17T09:56:29Z</time></trkpt><trkpt lat="40.760003" lon=".588535"><ele>77.088</ele><time>2026-04-17T09:56:30Z</time></trkpt><trkpt lat="40.760029" lon=".588511"><ele>77.076</ele><time>2026-04-17T09:56:31Z</time></trkpt><trkpt lat="40.760052" lon=".588466"><ele>77.044</ele><time>2026-04-17T09:56:32Z</time></trkpt><trkpt lat="40.760067" lon=".58843"><ele>77.041</ele><time>2026-04-17T09:56:33Z</time></trkpt><trkpt lat="40.760096" lon=".588403"><ele>77.081</ele><time>2026-04-17T09:56:34Z</time></trkpt><trkpt lat="40.760133" lon=".588388"><ele>77.009</ele><time>2026-04-17T09:56:35Z</time></trkpt><trkpt lat="40.760173" lon=".58837"><ele>77.209</ele><time>2026-04-17T09:56:36Z</time></trkpt><trkpt lat="40.760214" lon=".588346"><ele>77.486</ele><time>2026-04-17T09:56:37Z</time></trkpt><trkpt lat="40.760261" lon=".588329"><ele>77.430</ele><time>2026-04-17T09:56:38Z</time></trkpt><trkpt lat="40.760369" lon=".588332"><ele>77.644</ele><time>2026-04-17T09:56:40Z</time></trkpt><trkpt lat="40.760426" lon=".58834"><ele>77.647</ele><time>2026-04-17T09:56:41Z</time></trkpt><trkpt lat="40.760479" lon=".588365"><ele>77.668</ele><time>2026-04-17T09:56:42Z</time></trkpt><trkpt lat="40.760531" lon=".588399"><ele>77.674</ele><time>2026-04-17T09:56:43Z</time></trkpt><trkpt lat="40.760574" lon=".588418"><ele>77.695</ele><time>2026-04-17T09:56:44Z</time></trkpt><trkpt lat="40.760633" lon=".58842"><ele>77.433</ele><time>2026-04-17T09:56:45Z</time></trkpt><trkpt lat="40.760676" lon=".588402"><ele>77.431</ele><time>2026-04-17T09:56:46Z</time></trkpt><trkpt lat="40.760715" lon=".588391"><ele>77.245</ele><time>2026-04-17T09:56:47Z</time></trkpt><trkpt lat="40.760748" lon=".588395"><ele>77.247</ele><time>2026-04-17T09:56:48Z</time></trkpt><trkpt lat="40.760776" lon=".588402"><ele>77.011</ele><time>2026-04-17T09:56:49Z</time></trkpt><trkpt lat="40.760804" lon=".588406"><ele>77.009</ele><time>2026-04-17T09:56:50Z</time></trkpt><trkpt lat="40.760837" lon=".588413"><ele>77.026</ele><time>2026-04-17T09:56:51Z</time></trkpt><trkpt lat="40.760869" lon=".588419"><ele>76.890</ele><time>2026-04-17T09:56:52Z</time></trkpt><trkpt lat="40.760895" lon=".58841"><ele>76.854</ele><time>2026-04-17T09:56:53Z</time></trkpt><trkpt lat="40.760928" lon=".588378"><ele>76.457</ele><time>2026-04-17T09:56:54Z</time></trkpt><trkpt lat="40.760933" lon=".58834"><ele>76.038</ele><time>2026-04-17T09:56:55Z</time></trkpt><trkpt lat="40.760928" lon=".588305"><ele>75.684</ele><time>2026-04-17T09:56:56Z</time></trkpt><trkpt lat="40.760925" lon=".588281"><ele>75.425</ele><time>2026-04-17T09:56:57Z</time></trkpt><trkpt lat="40.760936" lon=".588254"><ele>75.253</ele><time>2026-04-17T09:56:58Z</time></trkpt><trkpt lat="40.760957" lon=".588232"><ele>74.871</ele><time>2026-04-17T09:56:59Z</time></trkpt><trkpt lat="40.760981" lon=".588202"><ele>74.633</ele><time>2026-04-17T09:57:00Z</time></trkpt><trkpt lat="40.760998" lon=".588159"><ele>74.023</ele><time>2026-04-17T09:57:01Z</time></trkpt><trkpt lat="40.76102" lon=".588064"><ele>72.815</ele><time>2026-04-17T09:57:03Z</time></trkpt><trkpt lat="40.761016" lon=".588007"><ele>72.609</ele><time>2026-04-17T09:57:04Z</time></trkpt><trkpt lat="40.76102" lon=".58795"><ele>72.055</ele><time>2026-04-17T09:57:05Z</time></trkpt><trkpt lat="40.76104" lon=".587899"><ele>70.829</ele><time>2026-04-17T09:57:06Z</time></trkpt><trkpt lat="40.761073" lon=".587853"><ele>70.683</ele><time>2026-04-17T09:57:07Z</time></trkpt><trkpt lat="40.76111" lon=".587798"><ele>69.696</ele><time>2026-04-17T09:57:08Z</time></trkpt><trkpt lat="40.76114" lon=".58773"><ele>69.227</ele><time>2026-04-17T09:57:09Z</time></trkpt><trkpt lat="40.76117" lon=".587658"><ele>68.073</ele><time>2026-04-17T09:57:10Z</time></trkpt><trkpt lat="40.761195" lon=".587583"><ele>67.634</ele><time>2026-04-17T09:57:11Z</time></trkpt><trkpt lat="40.761209" lon=".587425"><ele>66.872</ele><time>2026-04-17T09:57:13Z</time></trkpt><trkpt lat="40.761219" lon=".58736"><ele>66.480</ele><time>2026-04-17T09:57:14Z</time></trkpt><trkpt lat="40.761216" lon=".587311"><ele>65.665</ele><time>2026-04-17T09:57:15Z</time></trkpt><trkpt lat="40.761198" lon=".587278"><ele>65.268</ele><time>2026-04-17T09:57:16Z</time></trkpt><trkpt lat="40.761169" lon=".587243"><ele>64.814</ele><time>2026-04-17T09:57:17Z</time></trkpt><trkpt lat="40.76115" lon=".587211"><ele>64.609</ele><time>2026-04-17T09:57:18Z</time></trkpt><trkpt lat="40.761139" lon=".587177"><ele>64.258</ele><time>2026-04-17T09:57:19Z</time></trkpt><trkpt lat="40.761129" lon=".587118"><ele>63.892</ele><time>2026-04-17T09:57:20Z</time></trkpt><trkpt lat="40.761111" lon=".587069"><ele>63.286</ele><time>2026-04-17T09:57:21Z</time></trkpt><trkpt lat="40.761082" lon=".587012"><ele>62.899</ele><time>2026-04-17T09:57:22Z</time></trkpt><trkpt lat="40.761053" lon=".586963"><ele>62.480</ele><time>2026-04-17T09:57:23Z</time></trkpt><trkpt lat="40.761026" lon=".586939"><ele>62.266</ele><time>2026-04-17T09:57:24Z</time></trkpt><trkpt lat="40.760997" lon=".586932"><ele>62.227</ele><time>2026-04-17T09:57:25Z</time></trkpt><trkpt lat="40.760968" lon=".586914"><ele>62.035</ele><time>2026-04-17T09:57:26Z</time></trkpt><trkpt lat="40.76095" lon=".586882"><ele>62.033</ele><time>2026-04-17T09:57:27Z</time></trkpt><trkpt lat="40.760944" lon=".586845"><ele>61.892</ele><time>2026-04-17T09:57:28Z</time></trkpt><trkpt lat="40.760946" lon=".586799"><ele>61.873</ele><time>2026-04-17T09:57:29Z</time></trkpt><trkpt lat="40.760928" lon=".586679"><ele>61.220</ele><time>2026-04-17T09:57:31Z</time></trkpt><trkpt lat="40.760909" lon=".586619"><ele>61.009</ele><time>2026-04-17T09:57:32Z</time></trkpt><trkpt lat="40.760889" lon=".586556"><ele>60.671</ele><time>2026-04-17T09:57:33Z</time></trkpt><trkpt lat="40.760832" lon=".586436"><ele>60.245</ele><time>2026-04-17T09:57:35Z</time></trkpt><trkpt lat="40.760789" lon=".586404"><ele>60.049</ele><time>2026-04-17T09:57:36Z</time></trkpt><trkpt lat="40.760759" lon=".586384"><ele>60.062</ele><time>2026-04-17T09:57:37Z</time></trkpt><trkpt lat="40.760734" lon=".586351"><ele>60.093</ele><time>2026-04-17T09:57:38Z</time></trkpt><trkpt lat="40.760719" lon=".586321"><ele>60.029</ele><time>2026-04-17T09:57:39Z</time></trkpt><trkpt lat="40.760697" lon=".586302"><ele>59.660</ele><time>2026-04-17T09:57:40Z</time></trkpt><trkpt lat="40.76067" lon=".586301"><ele>59.478</ele><time>2026-04-17T09:57:41Z</time></trkpt><trkpt lat="40.760639" lon=".586324"><ele>59.066</ele><time>2026-04-17T09:57:42Z</time></trkpt><trkpt lat="40.760607" lon=".586361"><ele>59.045</ele><time>2026-04-17T09:57:43Z</time></trkpt><trkpt lat="40.760556" lon=".586401"><ele>58.847</ele><time>2026-04-17T09:57:44Z</time></trkpt><trkpt lat="40.760495" lon=".586447"><ele>58.611</ele><time>2026-04-17T09:57:45Z</time></trkpt><trkpt lat="40.760428" lon=".586498"><ele>58.209</ele><time>2026-04-17T09:57:46Z</time></trkpt><trkpt lat="40.76036" lon=".586549"><ele>58.236</ele><time>2026-04-17T09:57:47Z</time></trkpt><trkpt lat="40.760233" lon=".58665"><ele>57.290</ele><time>2026-04-17T09:57:49Z</time></trkpt><trkpt lat="40.760108" lon=".586748"><ele>56.454</ele><time>2026-04-17T09:57:51Z</time></trkpt><trkpt lat="40.760046" lon=".586794"><ele>56.287</ele><time>2026-04-17T09:57:52Z</time></trkpt><trkpt lat="40.759991" lon=".586847"><ele>56.018</ele><time>2026-04-17T09:57:53Z</time></trkpt><trkpt lat="40.759945" lon=".586908"><ele>56.084</ele><time>2026-04-17T09:57:54Z</time></trkpt><trkpt lat="40.759896" lon=".586962"><ele>56.025</ele><time>2026-04-17T09:57:55Z</time></trkpt><trkpt lat="40.759786" lon=".587045"><ele>56.073</ele><time>2026-04-17T09:57:57Z</time></trkpt><trkpt lat="40.759731" lon=".587084"><ele>56.021</ele><time>2026-04-17T09:57:58Z</time></trkpt><trkpt lat="40.759675" lon=".587121"><ele>56.043</ele><time>2026-04-17T09:57:59Z</time></trkpt><trkpt lat="40.75962" lon=".587158"><ele>56.264</ele><time>2026-04-17T09:58:00Z</time></trkpt><trkpt lat="40.75957" lon=".587201"><ele>56.210</ele><time>2026-04-17T09:58:01Z</time></trkpt><trkpt lat="40.759523" lon=".587248"><ele>56.609</ele><time>2026-04-17T09:58:02Z</time></trkpt><trkpt lat="40.759475" lon=".58729"><ele>56.816</ele><time>2026-04-17T09:58:03Z</time></trkpt><trkpt lat="40.759431" lon=".587332"><ele>56.870</ele><time>2026-04-17T09:58:04Z</time></trkpt><trkpt lat="40.75939" lon=".58737"><ele>57.094</ele><time>2026-04-17T09:58:05Z</time></trkpt><trkpt lat="40.759351" lon=".587411"><ele>57.027</ele><time>2026-04-17T09:58:06Z</time></trkpt><trkpt lat="40.759316" lon=".587449"><ele>57.298</ele><time>2026-04-17T09:58:07Z</time></trkpt><trkpt lat="40.759287" lon=".587487"><ele>57.494</ele><time>2026-04-17T09:58:08Z</time></trkpt><trkpt lat="40.759262" lon=".587521"><ele>57.425</ele><time>2026-04-17T09:58:09Z</time></trkpt><trkpt lat="40.759239" lon=".58755"><ele>57.423</ele><time>2026-04-17T09:58:10Z</time></trkpt><trkpt lat="40.759214" lon=".587578"><ele>58.481</ele><time>2026-04-17T09:58:11Z</time></trkpt><trkpt lat="40.75919" lon=".587606"><ele>58.644</ele><time>2026-04-17T09:58:12Z</time></trkpt><trkpt lat="40.759168" lon=".587632"><ele>59.205</ele><time>2026-04-17T09:58:13Z</time></trkpt><trkpt lat="40.759147" lon=".58766"><ele>60.015</ele><time>2026-04-17T09:58:14Z</time></trkpt><trkpt lat="40.759103" lon=".587718"><ele>60.809</ele><time>2026-04-17T09:58:16Z</time></trkpt><trkpt lat="40.759082" lon=".587748"><ele>61.016</ele><time>2026-04-17T09:58:17Z</time></trkpt><trkpt lat="40.759062" lon=".587778"><ele>61.840</ele><time>2026-04-17T09:58:18Z</time></trkpt><trkpt lat="40.759039" lon=".587807"><ele>62.234</ele><time>2026-04-17T09:58:19Z</time></trkpt><trkpt lat="40.759014" lon=".587835"><ele>63.497</ele><time>2026-04-17T09:58:20Z</time></trkpt><trkpt lat="40.758989" lon=".587862"><ele>63.848</ele><time>2026-04-17T09:58:21Z</time></trkpt><trkpt lat="40.758967" lon=".587893"><ele>64.414</ele><time>2026-04-17T09:58:22Z</time></trkpt><trkpt lat="40.758945" lon=".587926"><ele>65.075</ele><time>2026-04-17T09:58:23Z</time></trkpt><trkpt lat="40.758923" lon=".587959"><ele>65.293</ele><time>2026-04-17T09:58:24Z</time></trkpt><trkpt lat="40.758899" lon=".58799"><ele>65.871</ele><time>2026-04-17T09:58:25Z</time></trkpt><trkpt lat="40.758876" lon=".588022"><ele>66.028</ele><time>2026-04-17T09:58:26Z</time></trkpt><trkpt lat="40.758855" lon=".588054"><ele>66.489</ele><time>2026-04-17T09:58:27Z</time></trkpt><trkpt lat="40.758837" lon=".588088"><ele>66.617</ele><time>2026-04-17T09:58:28Z</time></trkpt><trkpt lat="40.758823" lon=".588115"><ele>67.209</ele><time>2026-04-17T09:58:29Z</time></trkpt><trkpt lat="40.758804" lon=".588147"><ele>67.814</ele><time>2026-04-17T09:58:30Z</time></trkpt><trkpt lat="40.758778" lon=".588184"><ele>68.098</ele><time>2026-04-17T09:58:31Z</time></trkpt><trkpt lat="40.758753" lon=".588213"><ele>68.632</ele><time>2026-04-17T09:58:32Z</time></trkpt><trkpt lat="40.75873" lon=".58824"><ele>69.055</ele><time>2026-04-17T09:58:33Z</time></trkpt><trkpt lat="40.758711" lon=".588268"><ele>69.416</ele><time>2026-04-17T09:58:34Z</time></trkpt><trkpt lat="40.758692" lon=".588293"><ele>69.812</ele><time>2026-04-17T09:58:35Z</time></trkpt><trkpt lat="40.758673" lon=".588319"><ele>70.283</ele><time>2026-04-17T09:58:36Z</time></trkpt><trkpt lat="40.758656" lon=".588344"><ele>70.431</ele><time>2026-04-17T09:58:37Z</time></trkpt><trkpt lat="40.75864" lon=".588368"><ele>71.479</ele><time>2026-04-17T09:58:38Z</time></trkpt><trkpt lat="40.758626" lon=".588391"><ele>72.459</ele><time>2026-04-17T09:58:39Z</time></trkpt><trkpt lat="40.758609" lon=".588415"><ele>72.803</ele><time>2026-04-17T09:58:40Z</time></trkpt><trkpt lat="40.75859" lon=".58844"><ele>73.423</ele><time>2026-04-17T09:58:41Z</time></trkpt><trkpt lat="40.758572" lon=".588464"><ele>73.809</ele><time>2026-04-17T09:58:42Z</time></trkpt><trkpt lat="40.758556" lon=".588488"><ele>74.417</ele><time>2026-04-17T09:58:43Z</time></trkpt><trkpt lat="40.758541" lon=".588512"><ele>74.461</ele><time>2026-04-17T09:58:44Z</time></trkpt><trkpt lat="40.758528" lon=".588533"><ele>75.255</ele><time>2026-04-17T09:58:45Z</time></trkpt><trkpt lat="40.758513" lon=".588554"><ele>75.468</ele><time>2026-04-17T09:58:46Z</time></trkpt><trkpt lat="40.758496" lon=".588576"><ele>75.859</ele><time>2026-04-17T09:58:47Z</time></trkpt><trkpt lat="40.758478" lon=".588597"><ele>76.255</ele><time>2026-04-17T09:58:48Z</time></trkpt><trkpt lat="40.758461" lon=".58862"><ele>76.236</ele><time>2026-04-17T09:58:49Z</time></trkpt><trkpt lat="40.758445" lon=".588643"><ele>76.434</ele><time>2026-04-17T09:58:50Z</time></trkpt><trkpt lat="40.758428" lon=".588666"><ele>76.432</ele><time>2026-04-17T09:58:51Z</time></trkpt><trkpt lat="40.758408" lon=".588687"><ele>76.661</ele><time>2026-04-17T09:58:52Z</time></trkpt><trkpt lat="40.758388" lon=".58871"><ele>76.621</ele><time>2026-04-17T09:58:53Z</time></trkpt><trkpt lat="40.758367" lon=".588733"><ele>76.613</ele><time>2026-04-17T09:58:54Z</time></trkpt><trkpt lat="40.758345" lon=".588754"><ele>76.609</ele><time>2026-04-17T09:58:55Z</time></trkpt><trkpt lat="40.758325" lon=".588778"><ele>76.898</ele><time>2026-04-17T09:58:56Z</time></trkpt><trkpt lat="40.758306" lon=".588805"><ele>76.882</ele><time>2026-04-17T09:58:57Z</time></trkpt><trkpt lat="40.758283" lon=".588832"><ele>76.886</ele><time>2026-04-17T09:58:58Z</time></trkpt><trkpt lat="40.758257" lon=".588859"><ele>76.879</ele><time>2026-04-17T09:58:59Z</time></trkpt><trkpt lat="40.758226" lon=".588887"><ele>76.870</ele><time>2026-04-17T09:59:00Z</time></trkpt><trkpt lat="40.758184" lon=".588921"><ele>76.686</ele><time>2026-04-17T09:59:01Z</time></trkpt><trkpt lat="40.75813" lon=".588951"><ele>76.627</ele><time>2026-04-17T09:59:02Z</time></trkpt><trkpt lat="40.758072" lon=".588984"><ele>76.615</ele><time>2026-04-17T09:59:03Z</time></trkpt><trkpt lat="40.758008" lon=".589027"><ele>75.853</ele><time>2026-04-17T09:59:04Z</time></trkpt><trkpt lat="40.757941" lon=".589083"><ele>75.481</ele><time>2026-04-17T09:59:05Z</time></trkpt><trkpt lat="40.757874" lon=".589156"><ele>74.461</ele><time>2026-04-17T09:59:06Z</time></trkpt><trkpt lat="40.757809" lon=".589235"><ele>73.817</ele><time>2026-04-17T09:59:07Z</time></trkpt><trkpt lat="40.757743" lon=".589326"><ele>70.609</ele><time>2026-04-17T09:59:08Z</time></trkpt><trkpt lat="40.757681" lon=".589421"><ele>68.680</ele><time>2026-04-17T09:59:09Z</time></trkpt><trkpt lat="40.757618" lon=".589518"><ele>66.264</ele><time>2026-04-17T09:59:10Z</time></trkpt><trkpt lat="40.757556" lon=".589614"><ele>65.478</ele><time>2026-04-17T09:59:11Z</time></trkpt><trkpt lat="40.757495" lon=".589713"><ele>62.651</ele><time>2026-04-17T09:59:12Z</time></trkpt><trkpt lat="40.757437" lon=".589813"><ele>60.242</ele><time>2026-04-17T09:59:13Z</time></trkpt><trkpt lat="40.757332" lon=".590025"><ele>58.638</ele><time>2026-04-17T09:59:15Z</time></trkpt><trkpt lat="40.757286" lon=".590131"><ele>58.059</ele><time>2026-04-17T09:59:16Z</time></trkpt><trkpt lat="40.757243" lon=".590238"><ele>56.817</ele><time>2026-04-17T09:59:17Z</time></trkpt><trkpt lat="40.757204" lon=".590345"><ele>56.675</ele><time>2026-04-17T09:59:18Z</time></trkpt><trkpt lat="40.75717" lon=".590558"><ele>56.262</ele><time>2026-04-17T09:59:20Z</time></trkpt><trkpt lat="40.757182" lon=".590655"><ele>56.283</ele><time>2026-04-17T09:59:21Z</time></trkpt><trkpt lat="40.757212" lon=".59074"><ele>56.011</ele><time>2026-04-17T09:59:22Z</time></trkpt><trkpt lat="40.757252" lon=".59081"><ele>56.009</ele><time>2026-04-17T09:59:23Z</time></trkpt><trkpt lat="40.757292" lon=".590871"><ele>56.088</ele><time>2026-04-17T09:59:24Z</time></trkpt><trkpt lat="40.757328" lon=".590931"><ele>56.082</ele><time>2026-04-17T09:59:25Z</time></trkpt><trkpt lat="40.757359" lon=".59099"><ele>56.846</ele><time>2026-04-17T09:59:26Z</time></trkpt><trkpt lat="40.757376" lon=".591057"><ele>57.299</ele><time>2026-04-17T09:59:27Z</time></trkpt><trkpt lat="40.757365" lon=".591114"><ele>57.840</ele><time>2026-04-17T09:59:28Z</time></trkpt><trkpt lat="40.757337" lon=".591153"><ele>58.296</ele><time>2026-04-17T09:59:29Z</time></trkpt><trkpt lat="40.757304" lon=".591175"><ele>58.437</ele><time>2026-04-17T09:59:30Z</time></trkpt><trkpt lat="40.757269" lon=".591185"><ele>58.855</ele><time>2026-04-17T09:59:31Z</time></trkpt><trkpt lat="40.757237" lon=".591186"><ele>58.893</ele><time>2026-04-17T09:59:32Z</time></trkpt><trkpt lat="40.757207" lon=".591182"><ele>59.286</ele><time>2026-04-17T09:59:33Z</time></trkpt><trkpt lat="40.757179" lon=".591175"><ele>59.260</ele><time>2026-04-17T09:59:34Z</time></trkpt><trkpt lat="40.757152" lon=".591166"><ele>59.626</ele><time>2026-04-17T09:59:35Z</time></trkpt><trkpt lat="40.757125" lon=".591156"><ele>59.809</ele><time>2026-04-17T09:59:36Z</time></trkpt><trkpt lat="40.757099" lon=".591147"><ele>60.020</ele><time>2026-04-17T09:59:37Z</time></trkpt><trkpt lat="40.757073" lon=".591136"><ele>60.494</ele><time>2026-04-17T09:59:38Z</time></trkpt><trkpt lat="40.757048" lon=".591123"><ele>60.658</ele><time>2026-04-17T09:59:39Z</time></trkpt><trkpt lat="40.757025" lon=".591108"><ele>60.611</ele><time>2026-04-17T09:59:40Z</time></trkpt><trkpt lat="40.757001" lon=".591094"><ele>61.032</ele><time>2026-04-17T09:59:41Z</time></trkpt><trkpt lat="40.756976" lon=".591081"><ele>61.238</ele><time>2026-04-17T09:59:42Z</time></trkpt><trkpt lat="40.756951" lon=".591069"><ele>61.429</ele><time>2026-04-17T09:59:43Z</time></trkpt><trkpt lat="40.756926" lon=".591057"><ele>61.617</ele><time>2026-04-17T09:59:44Z</time></trkpt><trkpt lat="40.756898" lon=".591042"><ele>61.825</ele><time>2026-04-17T09:59:45Z</time></trkpt><trkpt lat="40.756869" lon=".591027"><ele>61.846</ele><time>2026-04-17T09:59:46Z</time></trkpt><trkpt lat="40.756676" lon=".59094"><ele>62.288</ele><time>2026-04-17T09:59:53Z</time></trkpt><trkpt lat="40.756645" lon=".590925"><ele>62.416</ele><time>2026-04-17T09:59:54Z</time></trkpt><trkpt lat="40.756611" lon=".590909"><ele>62.209</ele><time>2026-04-17T09:59:55Z</time></trkpt><trkpt lat="40.756575" lon=".590891"><ele>62.276</ele><time>2026-04-17T09:59:56Z</time></trkpt><trkpt lat="40.756537" lon=".590873"><ele>62.240</ele><time>2026-04-17T09:59:57Z</time></trkpt><trkpt lat="40.756495" lon=".590853"><ele>62.234</ele><time>2026-04-17T09:59:58Z</time></trkpt><trkpt lat="40.756449" lon=".590834"><ele>62.237</ele><time>2026-04-17T09:59:59Z</time></trkpt><trkpt lat="40.7564" lon=".590814"><ele>62.238</ele><time>2026-04-17T10:00:00Z</time></trkpt><trkpt lat="40.756345" lon=".5908"><ele>62.234</ele><time>2026-04-17T10:00:01Z</time></trkpt><trkpt lat="40.756216" lon=".590791"><ele>61.465</ele><time>2026-04-17T10:00:03Z</time></trkpt><trkpt lat="40.756073" lon=".59081"><ele>60.253</ele><time>2026-04-17T10:00:05Z</time></trkpt><trkpt lat="40.755953" lon=".590822"><ele>59.031</ele><time>2026-04-17T10:00:07Z</time></trkpt><trkpt lat="40.75591" lon=".590815"><ele>58.451</ele><time>2026-04-17T10:00:08Z</time></trkpt><trkpt lat="40.75588" lon=".590794"><ele>57.201</ele><time>2026-04-17T10:00:09Z</time></trkpt><trkpt lat="40.755863" lon=".590763"><ele>56.211</ele><time>2026-04-17T10:00:10Z</time></trkpt><trkpt lat="40.755856" lon=".59073"><ele>55.809</ele><time>2026-04-17T10:00:11Z</time></trkpt><trkpt lat="40.755862" lon=".5907"><ele>55.047</ele><time>2026-04-17T10:00:12Z</time></trkpt><trkpt lat="40.755879" lon=".590691"><ele>54.641</ele><time>2026-04-17T10:00:13Z</time></trkpt><trkpt lat="40.755899" lon=".59069"><ele>54.215</ele><time>2026-04-17T10:00:14Z</time></trkpt><trkpt lat="40.75592" lon=".590687"><ele>54.088</ele><time>2026-04-17T10:00:15Z</time></trkpt><trkpt lat="40.755943" lon=".590684"><ele>53.899</ele><time>2026-04-17T10:00:16Z</time></trkpt><trkpt lat="40.755965" lon=".590679"><ele>53.625</ele><time>2026-04-17T10:00:17Z</time></trkpt><trkpt lat="40.755991" lon=".590669"><ele>53.696</ele><time>2026-04-17T10:00:18Z</time></trkpt><trkpt lat="40.756079" lon=".590648"><ele>53.454</ele><time>2026-04-17T10:00:21Z</time></trkpt><trkpt lat="40.756313" lon=".590595"><ele>53.482</ele><time>2026-04-17T10:00:29Z</time></trkpt><trkpt lat="40.756402" lon=".590592"><ele>53.477</ele><time>2026-04-17T10:00:32Z</time></trkpt><trkpt lat="40.756508" lon=".590602"><ele>53.661</ele><time>2026-04-17T10:00:36Z</time></trkpt><trkpt lat="40.756532" lon=".590604"><ele>53.827</ele><time>2026-04-17T10:00:37Z</time></trkpt><trkpt lat="40.756556" lon=".590604"><ele>53.809</ele><time>2026-04-17T10:00:38Z</time></trkpt><trkpt lat="40.75658" lon=".590604"><ele>54.099</ele><time>2026-04-17T10:00:39Z</time></trkpt><trkpt lat="40.756603" lon=".5906"><ele>54.093</ele><time>2026-04-17T10:00:40Z</time></trkpt><trkpt lat="40.756625" lon=".590596"><ele>54.217</ele><time>2026-04-17T10:00:41Z</time></trkpt><trkpt lat="40.756645" lon=".59059"><ele>54.420</ele><time>2026-04-17T10:00:42Z</time></trkpt><trkpt lat="40.756666" lon=".59058"><ele>54.451</ele><time>2026-04-17T10:00:43Z</time></trkpt><trkpt lat="40.756683" lon=".590573"><ele>54.647</ele><time>2026-04-17T10:00:44Z</time></trkpt><trkpt lat="40.756703" lon=".590561"><ele>54.838</ele><time>2026-04-17T10:00:45Z</time></trkpt><trkpt lat="40.756726" lon=".590541"><ele>54.886</ele><time>2026-04-17T10:00:46Z</time></trkpt><trkpt lat="40.756743" lon=".590519"><ele>55.024</ele><time>2026-04-17T10:00:47Z</time></trkpt><trkpt lat="40.756787" lon=".590437"><ele>55.672</ele><time>2026-04-17T10:00:50Z</time></trkpt><trkpt lat="40.756801" lon=".590407"><ele>55.813</ele><time>2026-04-17T10:00:51Z</time></trkpt><trkpt lat="40.756897" lon=".590182"><ele>56.414</ele><time>2026-04-17T10:00:58Z</time></trkpt><trkpt lat="40.75694" lon=".590096"><ele>56.609</ele><time>2026-04-17T10:01:01Z</time></trkpt><trkpt lat="40.756972" lon=".590026"><ele>57.039</ele><time>2026-04-17T10:01:03Z</time></trkpt><trkpt lat="40.756982" lon=".590003"><ele>57.243</ele><time>2026-04-17T10:01:04Z</time></trkpt><trkpt lat="40.756993" lon=".589974"><ele>57.247</ele><time>2026-04-17T10:01:05Z</time></trkpt><trkpt lat="40.757006" lon=".589943"><ele>57.450</ele><time>2026-04-17T10:01:06Z</time></trkpt><trkpt lat="40.757023" lon=".589904"><ele>57.451</ele><time>2026-04-17T10:01:07Z</time></trkpt><trkpt lat="40.757035" lon=".589878"><ele>57.667</ele><time>2026-04-17T10:01:08Z</time></trkpt><trkpt lat="40.757053" lon=".589838"><ele>57.818</ele><time>2026-04-17T10:01:09Z</time></trkpt><trkpt lat="40.757063" lon=".589812"><ele>57.876</ele><time>2026-04-17T10:01:10Z</time></trkpt><trkpt lat="40.757075" lon=".589778"><ele>58.084</ele><time>2026-04-17T10:01:11Z</time></trkpt><trkpt lat="40.75709" lon=".589738"><ele>58.034</ele><time>2026-04-17T10:01:12Z</time></trkpt><trkpt lat="40.757103" lon=".589705"><ele>58.255</ele><time>2026-04-17T10:01:13Z</time></trkpt><trkpt lat="40.757116" lon=".589671"><ele>58.410</ele><time>2026-04-17T10:01:14Z</time></trkpt><trkpt lat="40.75713" lon=".589637"><ele>58.409</ele><time>2026-04-17T10:01:15Z</time></trkpt><trkpt lat="40.757143" lon=".589602"><ele>58.695</ele><time>2026-04-17T10:01:16Z</time></trkpt><trkpt lat="40.757156" lon=".589567"><ele>58.639</ele><time>2026-04-17T10:01:17Z</time></trkpt><trkpt lat="40.757167" lon=".589539"><ele>58.893</ele><time>2026-04-17T10:01:18Z</time></trkpt><trkpt lat="40.757183" lon=".589496"><ele>58.876</ele><time>2026-04-17T10:01:19Z</time></trkpt><trkpt lat="40.757197" lon=".58946"><ele>58.897</ele><time>2026-04-17T10:01:20Z</time></trkpt><trkpt lat="40.757209" lon=".589422"><ele>58.873</ele><time>2026-04-17T10:01:21Z</time></trkpt><trkpt lat="40.75722" lon=".589384"><ele>58.834</ele><time>2026-04-17T10:01:22Z</time></trkpt><trkpt lat="40.757231" lon=".589344"><ele>58.852</ele><time>2026-04-17T10:01:23Z</time></trkpt><trkpt lat="40.757244" lon=".589305"><ele>58.860</ele><time>2026-04-17T10:01:24Z</time></trkpt><trkpt lat="40.757256" lon=".589267"><ele>59.027</ele><time>2026-04-17T10:01:25Z</time></trkpt><trkpt lat="40.757269" lon=".589229"><ele>59.068</ele><time>2026-04-17T10:01:26Z</time></trkpt><trkpt lat="40.757282" lon=".589189"><ele>59.014</ele><time>2026-04-17T10:01:27Z</time></trkpt><trkpt lat="40.757348" lon=".588991"><ele>59.009</ele><time>2026-04-17T10:01:32Z</time></trkpt><trkpt lat="40.757519" lon=".588622"><ele>59.644</ele><time>2026-04-17T10:01:42Z</time></trkpt><trkpt lat="40.757536" lon=".588589"><ele>59.678</ele><time>2026-04-17T10:01:43Z</time></trkpt><trkpt lat="40.757554" lon=".588555"><ele>59.812</ele><time>2026-04-17T10:01:44Z</time></trkpt><trkpt lat="40.757571" lon=".588521"><ele>60.025</ele><time>2026-04-17T10:01:45Z</time></trkpt><trkpt lat="40.757591" lon=".588488"><ele>60.046</ele><time>2026-04-17T10:01:46Z</time></trkpt><trkpt lat="40.757698" lon=".588335"><ele>60.282</ele><time>2026-04-17T10:01:51Z</time></trkpt><trkpt lat="40.757859" lon=".588118"><ele>60.883</ele><time>2026-04-17T10:01:58Z</time></trkpt><trkpt lat="40.757906" lon=".588065"><ele>61.011</ele><time>2026-04-17T10:02:00Z</time></trkpt><trkpt lat="40.758167" lon=".587807"><ele>61.499</ele><time>2026-04-17T10:02:09Z</time></trkpt><trkpt lat="40.758497" lon=".587591"><ele>61.078</ele><time>2026-04-17T10:02:17Z</time></trkpt><trkpt lat="40.7586" lon=".587526"><ele>60.833</ele><time>2026-04-17T10:02:19Z</time></trkpt><trkpt lat="40.758797" lon=".587376"><ele>60.426</ele><time>2026-04-17T10:02:23Z</time></trkpt><trkpt lat="40.758847" lon=".587335"><ele>60.009</ele><time>2026-04-17T10:02:24Z</time></trkpt><trkpt lat="40.759113" lon=".587088"><ele>58.869</ele><time>2026-04-17T10:02:29Z</time></trkpt><trkpt lat="40.759379" lon=".586866"><ele>57.443</ele><time>2026-04-17T10:02:33Z</time></trkpt><trkpt lat="40.75943" lon=".586826"><ele>57.487</ele><time>2026-04-17T10:02:34Z</time></trkpt><trkpt lat="40.759566" lon=".586725"><ele>56.830</ele><time>2026-04-17T10:02:36Z</time></trkpt><trkpt lat="40.759686" lon=".586633"><ele>56.451</ele><time>2026-04-17T10:02:38Z</time></trkpt><trkpt lat="40.759859" lon=".58649"><ele>56.277</ele><time>2026-04-17T10:02:41Z</time></trkpt><trkpt lat="40.759914" lon=".586444"><ele>56.288</ele><time>2026-04-17T10:02:42Z</time></trkpt><trkpt lat="40.759969" lon=".5864"><ele>56.296</ele><time>2026-04-17T10:02:43Z</time></trkpt><trkpt lat="40.760023" lon=".586357"><ele>56.244</ele><time>2026-04-17T10:02:44Z</time></trkpt><trkpt lat="40.760076" lon=".586315"><ele>56.242</ele><time>2026-04-17T10:02:45Z</time></trkpt><trkpt lat="40.760129" lon=".586272"><ele>56.422</ele><time>2026-04-17T10:02:46Z</time></trkpt><trkpt lat="40.76018" lon=".58623"><ele>56.414</ele><time>2026-04-17T10:02:47Z</time></trkpt><trkpt lat="40.760231" lon=".586189"><ele>56.609</ele><time>2026-04-17T10:02:48Z</time></trkpt><trkpt lat="40.760278" lon=".586149"><ele>56.686</ele><time>2026-04-17T10:02:49Z</time></trkpt><trkpt lat="40.76032" lon=".586112"><ele>56.670</ele><time>2026-04-17T10:02:50Z</time></trkpt><trkpt lat="40.760357" lon=".586077"><ele>56.874</ele><time>2026-04-17T10:02:51Z</time></trkpt><trkpt lat="40.76039" lon=".586042"><ele>57.097</ele><time>2026-04-17T10:02:52Z</time></trkpt><trkpt lat="40.760418" lon=".586004"><ele>57.248</ele><time>2026-04-17T10:02:53Z</time></trkpt><trkpt lat="40.760434" lon=".585966"><ele>57.434</ele><time>2026-04-17T10:02:54Z</time></trkpt><trkpt lat="40.760438" lon=".585925"><ele>57.825</ele><time>2026-04-17T10:02:55Z</time></trkpt><trkpt lat="40.760433" lon=".585886"><ele>58.093</ele><time>2026-04-17T10:02:56Z</time></trkpt><trkpt lat="40.760424" lon=".585847"><ele>58.461</ele><time>2026-04-17T10:02:57Z</time></trkpt><trkpt lat="40.760414" lon=".585805"><ele>58.693</ele><time>2026-04-17T10:02:58Z</time></trkpt><trkpt lat="40.7604" lon=".58576"><ele>58.865</ele><time>2026-04-17T10:02:59Z</time></trkpt><trkpt lat="40.760385" lon=".585712"><ele>59.021</ele><time>2026-04-17T10:03:00Z</time></trkpt><trkpt lat="40.760363" lon=".585618"><ele>59.609</ele><time>2026-04-17T10:03:02Z</time></trkpt><trkpt lat="40.76035" lon=".585571"><ele>59.821</ele><time>2026-04-17T10:03:03Z</time></trkpt><trkpt lat="40.760337" lon=".585523"><ele>59.895</ele><time>2026-04-17T10:03:04Z</time></trkpt><trkpt lat="40.760284" lon=".585335"><ele>60.229</ele><time>2026-04-17T10:03:08Z</time></trkpt><trkpt lat="40.760273" lon=".585286"><ele>60.642</ele><time>2026-04-17T10:03:09Z</time></trkpt><trkpt lat="40.760263" lon=".585235"><ele>60.683</ele><time>2026-04-17T10:03:10Z</time></trkpt><trkpt lat="40.760251" lon=".585187"><ele>61.069</ele><time>2026-04-17T10:03:11Z</time></trkpt><trkpt lat="40.760238" lon=".585139"><ele>61.230</ele><time>2026-04-17T10:03:12Z</time></trkpt><trkpt lat="40.760223" lon=".585085"><ele>61.278</ele><time>2026-04-17T10:03:13Z</time></trkpt><trkpt lat="40.760212" lon=".585048"><ele>61.426</ele><time>2026-04-17T10:03:14Z</time></trkpt><trkpt lat="40.760199" lon=".585002"><ele>61.697</ele><time>2026-04-17T10:03:15Z</time></trkpt><trkpt lat="40.760183" lon=".58495"><ele>61.823</ele><time>2026-04-17T10:03:16Z</time></trkpt><trkpt lat="40.760166" lon=".584908"><ele>61.825</ele><time>2026-04-17T10:03:17Z</time></trkpt><trkpt lat="40.760154" lon=".584876"><ele>62.009</ele><time>2026-04-17T10:03:18Z</time></trkpt><trkpt lat="40.760139" lon=".584826"><ele>62.051</ele><time>2026-04-17T10:03:19Z</time></trkpt><trkpt lat="40.760129" lon=".584783"><ele>62.295</ele><time>2026-04-17T10:03:20Z</time></trkpt><trkpt lat="40.760116" lon=".584737"><ele>62.249</ele><time>2026-04-17T10:03:21Z</time></trkpt><trkpt lat="40.760108" lon=".584692"><ele>62.662</ele><time>2026-04-17T10:03:22Z</time></trkpt><trkpt lat="40.7601" lon=".584646"><ele>62.833</ele><time>2026-04-17T10:03:23Z</time></trkpt><trkpt lat="40.76009" lon=".584601"><ele>63.069</ele><time>2026-04-17T10:03:24Z</time></trkpt><trkpt lat="40.760079" lon=".584553"><ele>63.220</ele><time>2026-04-17T10:03:25Z</time></trkpt><trkpt lat="40.760069" lon=".584508"><ele>63.218</ele><time>2026-04-17T10:03:26Z</time></trkpt><trkpt lat="40.760058" lon=".584464"><ele>63.476</ele><time>2026-04-17T10:03:27Z</time></trkpt><trkpt lat="40.760048" lon=".584421"><ele>63.454</ele><time>2026-04-17T10:03:28Z</time></trkpt><trkpt lat="40.76004" lon=".584381"><ele>63.656</ele><time>2026-04-17T10:03:29Z</time></trkpt><trkpt lat="40.760031" lon=".584339"><ele>63.811</ele><time>2026-04-17T10:03:30Z</time></trkpt><trkpt lat="40.760023" lon=".584296"><ele>64.009</ele><time>2026-04-17T10:03:31Z</time></trkpt><trkpt lat="40.760015" lon=".58426"><ele>64.417</ele><time>2026-04-17T10:03:32Z</time></trkpt><trkpt lat="40.760002" lon=".584207"><ele>64.851</ele><time>2026-04-17T10:03:33Z</time></trkpt><trkpt lat="40.759988" lon=".584164"><ele>65.285</ele><time>2026-04-17T10:03:34Z</time></trkpt><trkpt lat="40.759973" lon=".584121"><ele>65.468</ele><time>2026-04-17T10:03:35Z</time></trkpt><trkpt lat="40.759962" lon=".584077"><ele>65.819</ele><time>2026-04-17T10:03:36Z</time></trkpt><trkpt lat="40.759956" lon=".584041"><ele>66.035</ele><time>2026-04-17T10:03:37Z</time></trkpt><trkpt lat="40.759953" lon=".583985"><ele>66.426</ele><time>2026-04-17T10:03:38Z</time></trkpt><trkpt lat="40.759955" lon=".583939"><ele>67.074</ele><time>2026-04-17T10:03:39Z</time></trkpt><trkpt lat="40.759961" lon=".583895"><ele>67.422</ele><time>2026-04-17T10:03:40Z</time></trkpt><trkpt lat="40.759969" lon=".583852"><ele>68.073</ele><time>2026-04-17T10:03:41Z</time></trkpt><trkpt lat="40.759982" lon=".58381"><ele>68.285</ele><time>2026-04-17T10:03:42Z</time></trkpt><trkpt lat="40.759998" lon=".583769"><ele>68.813</ele><time>2026-04-17T10:03:43Z</time></trkpt><trkpt lat="40.760016" lon=".583729"><ele>69.009</ele><time>2026-04-17T10:03:44Z</time></trkpt><trkpt lat="40.760033" lon=".583688"><ele>69.469</ele><time>2026-04-17T10:03:45Z</time></trkpt><trkpt lat="40.76005" lon=".583647"><ele>69.613</ele><time>2026-04-17T10:03:46Z</time></trkpt><trkpt lat="40.760064" lon=".583605"><ele>70.087</ele><time>2026-04-17T10:03:47Z</time></trkpt><trkpt lat="40.760074" lon=".58356"><ele>71.070</ele><time>2026-04-17T10:03:48Z</time></trkpt><trkpt lat="40.760084" lon=".583514"><ele>71.251</ele><time>2026-04-17T10:03:49Z</time></trkpt><trkpt lat="40.760095" lon=".583469"><ele>71.647</ele><time>2026-04-17T10:03:50Z</time></trkpt><trkpt lat="40.760108" lon=".583424"><ele>71.868</ele><time>2026-04-17T10:03:51Z</time></trkpt><trkpt lat="40.760121" lon=".583377"><ele>72.446</ele><time>2026-04-17T10:03:52Z</time></trkpt><trkpt lat="40.760134" lon=".583329"><ele>72.634</ele><time>2026-04-17T10:03:53Z</time></trkpt><trkpt lat="40.760146" lon=".583281"><ele>73.092</ele><time>2026-04-17T10:03:54Z</time></trkpt><trkpt lat="40.760156" lon=".583232"><ele>73.873</ele><time>2026-04-17T10:03:55Z</time></trkpt><trkpt lat="40.760166" lon=".583182"><ele>74.020</ele><time>2026-04-17T10:03:56Z</time></trkpt><trkpt lat="40.760178" lon=".583132"><ele>74.609</ele><time>2026-04-17T10:03:57Z</time></trkpt><trkpt lat="40.760189" lon=".583085"><ele>75.041</ele><time>2026-04-17T10:03:58Z</time></trkpt><trkpt lat="40.760199" lon=".583036"><ele>75.695</ele><time>2026-04-17T10:03:59Z</time></trkpt><trkpt lat="40.760208" lon=".582988"><ele>75.849</ele><time>2026-04-17T10:04:00Z</time></trkpt><trkpt lat="40.760218" lon=".582937"><ele>76.232</ele><time>2026-04-17T10:04:01Z</time></trkpt><trkpt lat="40.760226" lon=".582888"><ele>76.483</ele><time>2026-04-17T10:04:02Z</time></trkpt><trkpt lat="40.760233" lon=".58284"><ele>76.879</ele><time>2026-04-17T10:04:03Z</time></trkpt><trkpt lat="40.760238" lon=".582792"><ele>77.220</ele><time>2026-04-17T10:04:04Z</time></trkpt><trkpt lat="40.760245" lon=".582744"><ele>77.278</ele><time>2026-04-17T10:04:05Z</time></trkpt><trkpt lat="40.760253" lon=".582697"><ele>77.616</ele><time>2026-04-17T10:04:06Z</time></trkpt><trkpt lat="40.760261" lon=".582648"><ele>77.845</ele><time>2026-04-17T10:04:07Z</time></trkpt><trkpt lat="40.760268" lon=".5826"><ele>78.447</ele><time>2026-04-17T10:04:08Z</time></trkpt><trkpt lat="40.760269" lon=".582553"><ele>78.611</ele><time>2026-04-17T10:04:09Z</time></trkpt><trkpt lat="40.760263" lon=".582507"><ele>79.009</ele><time>2026-04-17T10:04:10Z</time></trkpt><trkpt lat="40.760246" lon=".582467"><ele>79.286</ele><time>2026-04-17T10:04:11Z</time></trkpt><trkpt lat="40.760218" lon=".582438"><ele>79.610</ele><time>2026-04-17T10:04:12Z</time></trkpt><trkpt lat="40.760183" lon=".582423"><ele>79.814</ele><time>2026-04-17T10:04:13Z</time></trkpt><trkpt lat="40.760144" lon=".582419"><ele>79.897</ele><time>2026-04-17T10:04:14Z</time></trkpt><trkpt lat="40.760106" lon=".582417"><ele>80.048</ele><time>2026-04-17T10:04:15Z</time></trkpt><trkpt lat="40.760067" lon=".582414"><ele>80.044</ele><time>2026-04-17T10:04:16Z</time></trkpt><trkpt lat="40.760027" lon=".582412"><ele>80.265</ele><time>2026-04-17T10:04:17Z</time></trkpt><trkpt lat="40.759989" lon=".582413"><ele>80.283</ele><time>2026-04-17T10:04:18Z</time></trkpt><trkpt lat="40.759949" lon=".582414"><ele>80.281</ele><time>2026-04-17T10:04:19Z</time></trkpt><trkpt lat="40.759911" lon=".582412"><ele>80.213</ele><time>2026-04-17T10:04:20Z</time></trkpt><trkpt lat="40.75987" lon=".582417"><ele>80.243</ele><time>2026-04-17T10:04:21Z</time></trkpt><trkpt lat="40.759829" lon=".582423"><ele>80.207</ele><time>2026-04-17T10:04:22Z</time></trkpt><trkpt lat="40.759788" lon=".582427"><ele>80.209</ele><time>2026-04-17T10:04:23Z</time></trkpt><trkpt lat="40.759746" lon=".582431"><ele>80.283</ele><time>2026-04-17T10:04:24Z</time></trkpt><trkpt lat="40.759704" lon=".582433"><ele>80.267</ele><time>2026-04-17T10:04:25Z</time></trkpt><trkpt lat="40.759662" lon=".582434"><ele>80.011</ele><time>2026-04-17T10:04:26Z</time></trkpt><trkpt lat="40.759621" lon=".582432"><ele>80.084</ele><time>2026-04-17T10:04:27Z</time></trkpt><trkpt lat="40.75958" lon=".582431"><ele>79.885</ele><time>2026-04-17T10:04:28Z</time></trkpt><trkpt lat="40.75954" lon=".582428"><ele>79.811</ele><time>2026-04-17T10:04:29Z</time></trkpt><trkpt lat="40.759501" lon=".582423"><ele>79.862</ele><time>2026-04-17T10:04:30Z</time></trkpt><trkpt lat="40.759462" lon=".58242"><ele>79.450</ele><time>2026-04-17T10:04:31Z</time></trkpt><trkpt lat="40.759424" lon=".58242"><ele>79.478</ele><time>2026-04-17T10:04:32Z</time></trkpt><trkpt lat="40.759386" lon=".582423"><ele>79.456</ele><time>2026-04-17T10:04:33Z</time></trkpt><trkpt lat="40.759349" lon=".582428"><ele>79.459</ele><time>2026-04-17T10:04:34Z</time></trkpt><trkpt lat="40.75931" lon=".582437"><ele>79.614</ele><time>2026-04-17T10:04:35Z</time></trkpt><trkpt lat="40.75927" lon=".582447"><ele>79.609</ele><time>2026-04-17T10:04:36Z</time></trkpt><trkpt lat="40.759231" lon=".582455"><ele>79.677</ele><time>2026-04-17T10:04:37Z</time></trkpt><trkpt lat="40.759151" lon=".582472"><ele>79.671</ele><time>2026-04-17T10:04:39Z</time></trkpt><trkpt lat="40.758954" lon=".58261"><ele>79.655</ele><time>2026-04-17T10:04:44Z</time></trkpt><trkpt lat="40.758931" lon=".58265"><ele>79.468</ele><time>2026-04-17T10:04:45Z</time></trkpt><trkpt lat="40.758906" lon=".582715"><ele>79.449</ele><time>2026-04-17T10:04:46Z</time></trkpt><trkpt lat="40.758891" lon=".582769"><ele>79.295</ele><time>2026-04-17T10:04:47Z</time></trkpt><trkpt lat="40.758873" lon=".58282"><ele>79.036</ele><time>2026-04-17T10:04:48Z</time></trkpt><trkpt lat="40.758854" lon=".582869"><ele>78.634</ele><time>2026-04-17T10:04:49Z</time></trkpt><trkpt lat="40.758762" lon=".583108"><ele>78.092</ele><time>2026-04-17T10:04:54Z</time></trkpt><trkpt lat="40.758745" lon=".583153"><ele>78.013</ele><time>2026-04-17T10:04:55Z</time></trkpt><trkpt lat="40.758727" lon=".583199"><ele>78.243</ele><time>2026-04-17T10:04:56Z</time></trkpt><trkpt lat="40.758698" lon=".583289"><ele>78.207</ele><time>2026-04-17T10:04:58Z</time></trkpt><trkpt lat="40.758687" lon=".583334"><ele>78.409</ele><time>2026-04-17T10:04:59Z</time></trkpt><trkpt lat="40.758678" lon=".583378"><ele>78.663</ele><time>2026-04-17T10:05:00Z</time></trkpt><trkpt lat="40.75867" lon=".58342"><ele>78.877</ele><time>2026-04-17T10:05:01Z</time></trkpt><trkpt lat="40.758664" lon=".583462"><ele>78.851</ele><time>2026-04-17T10:05:02Z</time></trkpt><trkpt lat="40.758663" lon=".583505"><ele>79.094</ele><time>2026-04-17T10:05:03Z</time></trkpt><trkpt lat="40.758666" lon=".583547"><ele>79.245</ele><time>2026-04-17T10:05:04Z</time></trkpt><trkpt lat="40.758669" lon=".583576"><ele>79.221</ele><time>2026-04-17T10:05:05Z</time></trkpt><trkpt lat="40.758673" lon=".583617"><ele>79.262</ele><time>2026-04-17T10:05:06Z</time></trkpt><trkpt lat="40.758675" lon=".583637"><ele>79.230</ele><time>2026-04-17T10:05:07Z</time></trkpt><trkpt lat="40.758678" lon=".583661"><ele>79.428</ele><time>2026-04-17T10:05:08Z</time></trkpt><trkpt lat="40.758683" lon=".583695"><ele>79.465</ele><time>2026-04-17T10:05:09Z</time></trkpt><trkpt lat="40.758687" lon=".583729"><ele>79.468</ele><time>2026-04-17T10:05:10Z</time></trkpt><trkpt lat="40.758685" lon=".583808"><ele>79.614</ele><time>2026-04-17T10:05:12Z</time></trkpt><trkpt lat="40.758671" lon=".583884"><ele>79.609</ele><time>2026-04-17T10:05:14Z</time></trkpt><trkpt lat="40.758655" lon=".583931"><ele>79.618</ele><time>2026-04-17T10:05:15Z</time></trkpt><trkpt lat="40.758637" lon=".583971"><ele>79.642</ele><time>2026-04-17T10:05:16Z</time></trkpt><trkpt lat="40.758615" lon=".584035"><ele>79.626</ele><time>2026-04-17T10:05:17Z</time></trkpt><trkpt lat="40.758611" lon=".584105"><ele>79.499</ele><time>2026-04-17T10:05:19Z</time></trkpt><trkpt lat="40.758592" lon=".584138"><ele>78.850</ele><time>2026-04-17T10:05:20Z</time></trkpt><trkpt lat="40.75857" lon=".584165"><ele>76.816</ele><time>2026-04-17T10:05:21Z</time></trkpt><trkpt lat="40.75856" lon=".584203"><ele>75.677</ele><time>2026-04-17T10:05:22Z</time></trkpt><trkpt lat="40.75856" lon=".584235"><ele>74.255</ele><time>2026-04-17T10:05:23Z</time></trkpt><trkpt lat="40.758549" lon=".584276"><ele>73.853</ele><time>2026-04-17T10:05:24Z</time></trkpt><trkpt lat="40.758526" lon=".584326"><ele>73.229</ele><time>2026-04-17T10:05:25Z</time></trkpt><trkpt lat="40.75852" lon=".584366"><ele>72.400</ele><time>2026-04-17T10:05:26Z</time></trkpt><trkpt lat="40.758519" lon=".584427"><ele>71.820</ele><time>2026-04-17T10:05:27Z</time></trkpt><trkpt lat="40.758517" lon=".584486"><ele>71.209</ele><time>2026-04-17T10:05:28Z</time></trkpt><trkpt lat="40.758479" lon=".5846"><ele>70.674</ele><time>2026-04-17T10:05:30Z</time></trkpt><trkpt lat="40.758448" lon=".58466"><ele>70.428</ele><time>2026-04-17T10:05:31Z</time></trkpt><trkpt lat="40.758416" lon=".584723"><ele>69.422</ele><time>2026-04-17T10:05:32Z</time></trkpt><trkpt lat="40.75838" lon=".584785"><ele>68.695</ele><time>2026-04-17T10:05:33Z</time></trkpt><trkpt lat="40.758353" lon=".584844"><ele>67.816</ele><time>2026-04-17T10:05:34Z</time></trkpt><trkpt lat="40.758306" lon=".584938"><ele>67.012</ele><time>2026-04-17T10:05:36Z</time></trkpt><trkpt lat="40.758282" lon=".58496"><ele>66.843</ele><time>2026-04-17T10:05:37Z</time></trkpt><trkpt lat="40.758259" lon=".584978"><ele>66.841</ele><time>2026-04-17T10:05:38Z</time></trkpt><trkpt lat="40.758233" lon=".585007"><ele>66.849</ele><time>2026-04-17T10:05:39Z</time></trkpt><trkpt lat="40.758208" lon=".585037"><ele>66.896</ele><time>2026-04-17T10:05:40Z</time></trkpt><trkpt lat="40.758198" lon=".585068"><ele>66.631</ele><time>2026-04-17T10:05:41Z</time></trkpt><trkpt lat="40.758193" lon=".585101"><ele>66.624</ele><time>2026-04-17T10:05:42Z</time></trkpt><trkpt lat="40.758183" lon=".585132"><ele>66.409</ele><time>2026-04-17T10:05:43Z</time></trkpt><trkpt lat="40.75817" lon=".585161"><ele>66.231</ele><time>2026-04-17T10:05:44Z</time></trkpt><trkpt lat="40.758153" lon=".585182"><ele>66.095</ele><time>2026-04-17T10:05:45Z</time></trkpt><trkpt lat="40.758134" lon=".585198"><ele>66.099</ele><time>2026-04-17T10:05:46Z</time></trkpt><trkpt lat="40.758112" lon=".585211"><ele>65.832</ele><time>2026-04-17T10:05:47Z</time></trkpt><trkpt lat="40.758083" lon=".585218"><ele>65.653</ele><time>2026-04-17T10:05:48Z</time></trkpt><trkpt lat="40.758058" lon=".585227"><ele>65.239</ele><time>2026-04-17T10:05:49Z</time></trkpt><trkpt lat="40.758051" lon=".585274"><ele>64.440</ele><time>2026-04-17T10:05:51Z</time></trkpt><trkpt lat="40.758067" lon=".58529"><ele>64.238</ele><time>2026-04-17T10:05:52Z</time></trkpt><trkpt lat="40.758086" lon=".585297"><ele>63.836</ele><time>2026-04-17T10:05:53Z</time></trkpt><trkpt lat="40.758108" lon=".585303"><ele>63.697</ele><time>2026-04-17T10:05:54Z</time></trkpt><trkpt lat="40.758125" lon=".58532"><ele>63.023</ele><time>2026-04-17T10:05:55Z</time></trkpt><trkpt lat="40.758118" lon=".585355"><ele>62.825</ele><time>2026-04-17T10:05:56Z</time></trkpt><trkpt lat="40.75807" lon=".585401"><ele>62.209</ele><time>2026-04-17T10:05:58Z</time></trkpt><trkpt lat="40.758037" lon=".585412"><ele>62.081</ele><time>2026-04-17T10:05:59Z</time></trkpt><trkpt lat="40.758002" lon=".585416"><ele>61.655</ele><time>2026-04-17T10:06:00Z</time></trkpt><trkpt lat="40.757977" lon=".585433"><ele>61.459</ele><time>2026-04-17T10:06:01Z</time></trkpt><trkpt lat="40.757966" lon=".58547"><ele>61.062</ele><time>2026-04-17T10:06:02Z</time></trkpt><trkpt lat="40.757949" lon=".585565"><ele>60.283</ele><time>2026-04-17T10:06:04Z</time></trkpt><trkpt lat="40.757886" lon=".585634"><ele>59.699</ele><time>2026-04-17T10:06:06Z</time></trkpt><trkpt lat="40.757839" lon=".585661"><ele>59.230</ele><time>2026-04-17T10:06:07Z</time></trkpt><trkpt lat="40.757792" lon=".58569"><ele>58.438</ele><time>2026-04-17T10:06:08Z</time></trkpt><trkpt lat="40.757744" lon=".585731"><ele>57.656</ele><time>2026-04-17T10:06:09Z</time></trkpt><trkpt lat="40.757697" lon=".585777"><ele>57.244</ele><time>2026-04-17T10:06:10Z</time></trkpt><trkpt lat="40.757654" lon=".585805"><ele>56.605</ele><time>2026-04-17T10:06:11Z</time></trkpt><trkpt lat="40.757607" lon=".585828"><ele>56.015</ele><time>2026-04-17T10:06:12Z</time></trkpt><trkpt lat="40.757564" lon=".585856"><ele>55.409</ele><time>2026-04-17T10:06:13Z</time></trkpt><trkpt lat="40.757534" lon=".585892"><ele>55.296</ele><time>2026-04-17T10:06:14Z</time></trkpt><trkpt lat="40.757513" lon=".585943"><ele>54.870</ele><time>2026-04-17T10:06:15Z</time></trkpt><trkpt lat="40.757502" lon=".586001"><ele>54.414</ele><time>2026-04-17T10:06:16Z</time></trkpt><trkpt lat="40.757497" lon=".586071"><ele>54.447</ele><time>2026-04-17T10:06:17Z</time></trkpt><trkpt lat="40.75747" lon=".586196"><ele>54.228</ele><time>2026-04-17T10:06:19Z</time></trkpt><trkpt lat="40.757457" lon=".586295"><ele>54.044</ele><time>2026-04-17T10:06:21Z</time></trkpt><trkpt lat="40.757457" lon=".586359"><ele>53.065</ele><time>2026-04-17T10:06:22Z</time></trkpt><trkpt lat="40.757458" lon=".586443"><ele>52.613</ele><time>2026-04-17T10:06:23Z</time></trkpt><trkpt lat="40.757459" lon=".586511"><ele>52.051</ele><time>2026-04-17T10:06:24Z</time></trkpt><trkpt lat="40.757465" lon=".586569"><ele>51.448</ele><time>2026-04-17T10:06:25Z</time></trkpt><trkpt lat="40.757477" lon=".586617"><ele>51.261</ele><time>2026-04-17T10:06:26Z</time></trkpt><trkpt lat="40.757482" lon=".586656"><ele>50.617</ele><time>2026-04-17T10:06:27Z</time></trkpt><trkpt lat="40.757473" lon=".586687"><ele>50.609</ele><time>2026-04-17T10:06:28Z</time></trkpt><trkpt lat="40.757459" lon=".586722"><ele>50.436</ele><time>2026-04-17T10:06:29Z</time></trkpt><trkpt lat="40.757453" lon=".586757"><ele>50.260</ele><time>2026-04-17T10:06:30Z</time></trkpt><trkpt lat="40.757441" lon=".586809"><ele>50.094</ele><time>2026-04-17T10:06:31Z</time></trkpt><trkpt lat="40.75741" lon=".586887"><ele>49.857</ele><time>2026-04-17T10:06:33Z</time></trkpt><trkpt lat="40.757399" lon=".586967"><ele>49.878</ele><time>2026-04-17T10:06:35Z</time></trkpt><trkpt lat="40.75741" lon=".587011"><ele>49.854</ele><time>2026-04-17T10:06:36Z</time></trkpt><trkpt lat="40.757415" lon=".587055"><ele>49.815</ele><time>2026-04-17T10:06:37Z</time></trkpt><trkpt lat="40.757409" lon=".587086"><ele>49.863</ele><time>2026-04-17T10:06:38Z</time></trkpt><trkpt lat="40.757401" lon=".587101"><ele>49.641</ele><time>2026-04-17T10:06:39Z</time></trkpt><trkpt lat="40.757394" lon=".587134"><ele>49.841</ele><time>2026-04-17T10:06:40Z</time></trkpt><trkpt lat="40.757393" lon=".58717"><ele>49.881</ele><time>2026-04-17T10:06:41Z</time></trkpt><trkpt lat="40.757381" lon=".587201"><ele>49.809</ele><time>2026-04-17T10:06:42Z</time></trkpt><trkpt lat="40.757294" lon=".587234"><ele>50.009</ele><time>2026-04-17T10:06:45Z</time></trkpt><trkpt lat="40.757238" lon=".587255"><ele>50.296</ele><time>2026-04-17T10:06:47Z</time></trkpt><trkpt lat="40.757169" lon=".587244"><ele>50.220</ele><time>2026-04-17T10:06:49Z</time></trkpt><trkpt lat="40.757075" lon=".587299"><ele>50.044</ele><time>2026-04-17T10:06:52Z</time></trkpt><trkpt lat="40.757063" lon=".587339"><ele>49.817</ele><time>2026-04-17T10:06:53Z</time></trkpt><trkpt lat="40.757038" lon=".587421"><ele>49.858</ele><time>2026-04-17T10:06:55Z</time></trkpt><trkpt lat="40.757024" lon=".58746"><ele>49.854</ele><time>2026-04-17T10:06:56Z</time></trkpt><trkpt lat="40.757012" lon=".587491"><ele>49.875</ele><time>2026-04-17T10:06:57Z</time></trkpt><trkpt lat="40.756985" lon=".587529"><ele>49.863</ele><time>2026-04-17T10:06:58Z</time></trkpt><trkpt lat="40.756956" lon=".58755"><ele>49.841</ele><time>2026-04-17T10:06:59Z</time></trkpt><trkpt lat="40.756932" lon=".587559"><ele>49.885</ele><time>2026-04-17T10:07:00Z</time></trkpt><trkpt lat="40.756896" lon=".587579"><ele>50.089</ele><time>2026-04-17T10:07:01Z</time></trkpt><trkpt lat="40.756862" lon=".587595"><ele>50.017</ele><time>2026-04-17T10:07:02Z</time></trkpt><trkpt lat="40.756828" lon=".587596"><ele>50.009</ele><time>2026-04-17T10:07:03Z</time></trkpt><trkpt lat="40.756794" lon=".587553"><ele>50.090</ele><time>2026-04-17T10:07:05Z</time></trkpt><trkpt lat="40.756787" lon=".587503"><ele>50.274</ele><time>2026-04-17T10:07:06Z</time></trkpt><trkpt lat="40.756761" lon=".587362"><ele>50.298</ele><time>2026-04-17T10:07:09Z</time></trkpt><trkpt lat="40.756742" lon=".587296"><ele>49.811</ele><time>2026-04-17T10:07:10Z</time></trkpt><trkpt lat="40.756681" lon=".58706"><ele>48.622</ele><time>2026-04-17T10:07:14Z</time></trkpt><trkpt lat="40.756666" lon=".586982"><ele>48.468</ele><time>2026-04-17T10:07:15Z</time></trkpt><trkpt lat="40.756653" lon=".586915"><ele>48.479</ele><time>2026-04-17T10:07:16Z</time></trkpt><trkpt lat="40.756637" lon=".586851"><ele>48.287</ele><time>2026-04-17T10:07:17Z</time></trkpt><trkpt lat="40.756623" lon=".586784"><ele>48.065</ele><time>2026-04-17T10:07:18Z</time></trkpt><trkpt lat="40.756612" lon=".586715"><ele>47.862</ele><time>2026-04-17T10:07:19Z</time></trkpt><trkpt lat="40.756599" lon=".586647"><ele>47.883</ele><time>2026-04-17T10:07:20Z</time></trkpt><trkpt lat="40.756578" lon=".586584"><ele>47.611</ele><time>2026-04-17T10:07:21Z</time></trkpt><trkpt lat="40.756558" lon=".586521"><ele>47.609</ele><time>2026-04-17T10:07:22Z</time></trkpt><trkpt lat="40.756523" lon=".586337"><ele>47.688</ele><time>2026-04-17T10:07:25Z</time></trkpt><trkpt lat="40.75651" lon=".586282"><ele>47.612</ele><time>2026-04-17T10:07:26Z</time></trkpt><trkpt lat="40.756494" lon=".586229"><ele>47.666</ele><time>2026-04-17T10:07:27Z</time></trkpt><trkpt lat="40.756475" lon=".58618"><ele>47.899</ele><time>2026-04-17T10:07:28Z</time></trkpt><trkpt lat="40.756459" lon=".586128"><ele>47.890</ele><time>2026-04-17T10:07:29Z</time></trkpt><trkpt lat="40.756446" lon=".586077"><ele>48.226</ele><time>2026-04-17T10:07:30Z</time></trkpt><trkpt lat="40.756437" lon=".586033"><ele>48.427</ele><time>2026-04-17T10:07:31Z</time></trkpt><trkpt lat="40.756411" lon=".585905"><ele>48.615</ele><time>2026-04-17T10:07:33Z</time></trkpt><trkpt lat="40.756372" lon=".585733"><ele>48.643</ele><time>2026-04-17T10:07:36Z</time></trkpt><trkpt lat="40.756327" lon=".585623"><ele>48.231</ele><time>2026-04-17T10:07:38Z</time></trkpt><trkpt lat="40.756237" lon=".585461"><ele>48.061</ele><time>2026-04-17T10:07:41Z</time></trkpt><trkpt lat="40.75621" lon=".585394"><ele>47.807</ele><time>2026-04-17T10:07:42Z</time></trkpt><trkpt lat="40.756198" lon=".585321"><ele>47.809</ele><time>2026-04-17T10:07:43Z</time></trkpt><trkpt lat="40.756203" lon=".58525"><ele>47.675</ele><time>2026-04-17T10:07:44Z</time></trkpt><trkpt lat="40.75622" lon=".585181"><ele>47.239</ele><time>2026-04-17T10:07:45Z</time></trkpt><trkpt lat="40.756243" lon=".585113"><ele>46.633</ele><time>2026-04-17T10:07:46Z</time></trkpt><trkpt lat="40.756266" lon=".585044"><ele>46.226</ele><time>2026-04-17T10:07:47Z</time></trkpt><trkpt lat="40.756281" lon=".584976"><ele>46.227</ele><time>2026-04-17T10:07:48Z</time></trkpt><trkpt lat="40.756316" lon=".584793"><ele>46.083</ele><time>2026-04-17T10:07:51Z</time></trkpt><trkpt lat="40.756328" lon=".584737"><ele>46.054</ele><time>2026-04-17T10:07:52Z</time></trkpt><trkpt lat="40.756338" lon=".584683"><ele>46.072</ele><time>2026-04-17T10:07:53Z</time></trkpt><trkpt lat="40.756351" lon=".584628"><ele>46.240</ele><time>2026-04-17T10:07:54Z</time></trkpt><trkpt lat="40.756365" lon=".584574"><ele>46.466</ele><time>2026-04-17T10:07:55Z</time></trkpt><trkpt lat="40.756405" lon=".584403"><ele>47.629</ele><time>2026-04-17T10:07:58Z</time></trkpt><trkpt lat="40.75642" lon=".584341"><ele>48.021</ele><time>2026-04-17T10:07:59Z</time></trkpt><trkpt lat="40.756455" lon=".584198"><ele>48.609</ele><time>2026-04-17T10:08:01Z</time></trkpt><trkpt lat="40.756474" lon=".584133"><ele>49.238</ele><time>2026-04-17T10:08:02Z</time></trkpt><trkpt lat="40.7565" lon=".584071"><ele>50.052</ele><time>2026-04-17T10:08:03Z</time></trkpt><trkpt lat="40.756534" lon=".584011"><ele>50.226</ele><time>2026-04-17T10:08:04Z</time></trkpt><trkpt lat="40.756576" lon=".583962"><ele>50.869</ele><time>2026-04-17T10:08:05Z</time></trkpt><trkpt lat="40.756622" lon=".583923"><ele>51.080</ele><time>2026-04-17T10:08:06Z</time></trkpt><trkpt lat="40.756658" lon=".583892"><ele>51.246</ele><time>2026-04-17T10:08:07Z</time></trkpt><trkpt lat="40.756712" lon=".583844"><ele>51.237</ele><time>2026-04-17T10:08:08Z</time></trkpt><trkpt lat="40.756758" lon=".583805"><ele>51.685</ele><time>2026-04-17T10:08:09Z</time></trkpt><trkpt lat="40.756793" lon=".583768"><ele>51.893</ele><time>2026-04-17T10:08:10Z</time></trkpt><trkpt lat="40.756827" lon=".583709"><ele>52.049</ele><time>2026-04-17T10:08:11Z</time></trkpt><trkpt lat="40.756848" lon=".583629"><ele>52.002</ele><time>2026-04-17T10:08:12Z</time></trkpt><trkpt lat="40.756838" lon=".583564"><ele>52.022</ele><time>2026-04-17T10:08:13Z</time></trkpt><trkpt lat="40.756814" lon=".5835"><ele>52.209</ele><time>2026-04-17T10:08:14Z</time></trkpt><trkpt lat="40.756792" lon=".58344"><ele>52.466</ele><time>2026-04-17T10:08:15Z</time></trkpt><trkpt lat="40.756771" lon=".583377"><ele>52.610</ele><time>2026-04-17T10:08:16Z</time></trkpt><trkpt lat="40.756753" lon=".583314"><ele>52.624</ele><time>2026-04-17T10:08:17Z</time></trkpt><trkpt lat="40.756734" lon=".583249"><ele>52.877</ele><time>2026-04-17T10:08:18Z</time></trkpt><trkpt lat="40.756713" lon=".583184"><ele>52.868</ele><time>2026-04-17T10:08:19Z</time></trkpt><trkpt lat="40.756696" lon=".583131"><ele>52.894</ele><time>2026-04-17T10:08:20Z</time></trkpt><trkpt lat="40.756673" lon=".583052"><ele>52.825</ele><time>2026-04-17T10:08:21Z</time></trkpt><trkpt lat="40.756653" lon=".582991"><ele>52.843</ele><time>2026-04-17T10:08:22Z</time></trkpt><trkpt lat="40.756629" lon=".582931"><ele>52.841</ele><time>2026-04-17T10:08:23Z</time></trkpt><trkpt lat="40.756599" lon=".58287"><ele>53.015</ele><time>2026-04-17T10:08:24Z</time></trkpt><trkpt lat="40.756568" lon=".582811"><ele>53.265</ele><time>2026-04-17T10:08:25Z</time></trkpt><trkpt lat="40.756536" lon=".582753"><ele>53.411</ele><time>2026-04-17T10:08:26Z</time></trkpt><trkpt lat="40.756503" lon=".582693"><ele>53.409</ele><time>2026-04-17T10:08:27Z</time></trkpt><trkpt lat="40.756473" lon=".582631"><ele>53.453</ele><time>2026-04-17T10:08:28Z</time></trkpt><trkpt lat="40.756447" lon=".58258"><ele>53.437</ele><time>2026-04-17T10:08:29Z</time></trkpt><trkpt lat="40.75641" lon=".582503"><ele>53.861</ele><time>2026-04-17T10:08:30Z</time></trkpt><trkpt lat="40.75638" lon=".582439"><ele>53.654</ele><time>2026-04-17T10:08:31Z</time></trkpt><trkpt lat="40.756355" lon=".582377"><ele>53.825</ele><time>2026-04-17T10:08:32Z</time></trkpt><trkpt lat="40.756328" lon=".582314"><ele>53.841</ele><time>2026-04-17T10:08:33Z</time></trkpt><trkpt lat="40.756296" lon=".582255"><ele>53.822</ele><time>2026-04-17T10:08:34Z</time></trkpt><trkpt lat="40.756261" lon=".582201"><ele>53.840</ele><time>2026-04-17T10:08:35Z</time></trkpt><trkpt lat="40.756224" lon=".582149"><ele>53.838</ele><time>2026-04-17T10:08:36Z</time></trkpt><trkpt lat="40.756194" lon=".582108"><ele>53.859</ele><time>2026-04-17T10:08:37Z</time></trkpt><trkpt lat="40.756151" lon=".582047"><ele>53.803</ele><time>2026-04-17T10:08:38Z</time></trkpt><trkpt lat="40.756115" lon=".581998"><ele>54.023</ele><time>2026-04-17T10:08:39Z</time></trkpt><trkpt lat="40.756072" lon=".581951"><ele>54.009</ele><time>2026-04-17T10:08:40Z</time></trkpt><trkpt lat="40.755983" lon=".581871"><ele>54.017</ele><time>2026-04-17T10:08:42Z</time></trkpt><trkpt lat="40.755913" lon=".581815"><ele>53.851</ele><time>2026-04-17T10:08:43Z</time></trkpt><trkpt lat="40.755854" lon=".581759"><ele>53.655</ele><time>2026-04-17T10:08:44Z</time></trkpt><trkpt lat="40.755777" lon=".581664"><ele>53.648</ele><time>2026-04-17T10:08:46Z</time></trkpt><trkpt lat="40.755738" lon=".581611"><ele>53.479</ele><time>2026-04-17T10:08:47Z</time></trkpt><trkpt lat="40.75571" lon=".581572"><ele>53.435</ele><time>2026-04-17T10:08:48Z</time></trkpt><trkpt lat="40.75568" lon=".581536"><ele>53.496</ele><time>2026-04-17T10:08:49Z</time></trkpt><trkpt lat="40.755646" lon=".581506"><ele>53.464</ele><time>2026-04-17T10:08:50Z</time></trkpt><trkpt lat="40.755608" lon=".581478"><ele>53.662</ele><time>2026-04-17T10:08:51Z</time></trkpt><trkpt lat="40.755494" lon=".581398"><ele>54.612</ele><time>2026-04-17T10:08:54Z</time></trkpt><trkpt lat="40.755465" lon=".581371"><ele>55.032</ele><time>2026-04-17T10:08:55Z</time></trkpt><trkpt lat="40.755421" lon=".581332"><ele>55.405</ele><time>2026-04-17T10:08:56Z</time></trkpt><trkpt lat="40.755362" lon=".581274"><ele>55.609</ele><time>2026-04-17T10:08:58Z</time></trkpt><trkpt lat="40.755311" lon=".581221"><ele>56.273</ele><time>2026-04-17T10:09:00Z</time></trkpt><trkpt lat="40.755291" lon=".581196"><ele>56.447</ele><time>2026-04-17T10:09:01Z</time></trkpt><trkpt lat="40.755271" lon=".58117"><ele>56.821</ele><time>2026-04-17T10:09:02Z</time></trkpt><trkpt lat="40.755256" lon=".58115"><ele>56.894</ele><time>2026-04-17T10:09:03Z</time></trkpt><trkpt lat="40.755236" lon=".581122"><ele>57.045</ele><time>2026-04-17T10:09:04Z</time></trkpt><trkpt lat="40.755226" lon=".581095"><ele>57.081</ele><time>2026-04-17T10:09:05Z</time></trkpt><trkpt lat="40.755216" lon=".581062"><ele>57.262</ele><time>2026-04-17T10:09:06Z</time></trkpt><trkpt lat="40.755206" lon=".581026"><ele>57.290</ele><time>2026-04-17T10:09:07Z</time></trkpt><trkpt lat="40.7552" lon=".580986"><ele>57.028</ele><time>2026-04-17T10:09:08Z</time></trkpt><trkpt lat="40.755201" lon=".580954"><ele>57.045</ele><time>2026-04-17T10:09:09Z</time></trkpt><trkpt lat="40.755202" lon=".58091"><ele>57.047</ele><time>2026-04-17T10:09:10Z</time></trkpt><trkpt lat="40.7552" lon=".580878"><ele>56.411</ele><time>2026-04-17T10:09:11Z</time></trkpt><trkpt lat="40.755196" lon=".580848"><ele>56.009</ele><time>2026-04-17T10:09:12Z</time></trkpt><trkpt lat="40.755188" lon=".580805"><ele>55.236</ele><time>2026-04-17T10:09:13Z</time></trkpt><trkpt lat="40.755175" lon=".580781"><ele>54.880</ele><time>2026-04-17T10:09:14Z</time></trkpt><trkpt lat="40.755156" lon=".580755"><ele>54.434</ele><time>2026-04-17T10:09:15Z</time></trkpt><trkpt lat="40.755142" lon=".580727"><ele>53.447</ele><time>2026-04-17T10:09:16Z</time></trkpt><trkpt lat="40.755139" lon=".580702"><ele>52.458</ele><time>2026-04-17T10:09:17Z</time></trkpt><trkpt lat="40.755145" lon=".580671"><ele>50.854</ele><time>2026-04-17T10:09:18Z</time></trkpt><trkpt lat="40.755155" lon=".580611"><ele>50.245</ele><time>2026-04-17T10:09:19Z</time></trkpt><trkpt lat="40.755161" lon=".580558"><ele>49.263</ele><time>2026-04-17T10:09:20Z</time></trkpt><trkpt lat="40.755159" lon=".580526"><ele>48.641</ele><time>2026-04-17T10:09:21Z</time></trkpt><trkpt lat="40.755145" lon=".580489"><ele>48.033</ele><time>2026-04-17T10:09:22Z</time></trkpt><trkpt lat="40.75512" lon=".58048"><ele>47.223</ele><time>2026-04-17T10:09:23Z</time></trkpt><trkpt lat="40.755094" lon=".580485"><ele>45.815</ele><time>2026-04-17T10:09:24Z</time></trkpt><trkpt lat="40.755061" lon=".580501"><ele>44.609</ele><time>2026-04-17T10:09:25Z</time></trkpt><trkpt lat="40.75498" lon=".580537"><ele>43.865</ele><time>2026-04-17T10:09:27Z</time></trkpt><trkpt lat="40.754923" lon=".580543"><ele>43.419</ele><time>2026-04-17T10:09:28Z</time></trkpt><trkpt lat="40.754848" lon=".580496"><ele>42.213</ele><time>2026-04-17T10:09:30Z</time></trkpt><trkpt lat="40.754739" lon=".580374"><ele>40.816</ele><time>2026-04-17T10:09:32Z</time></trkpt><trkpt lat="40.754672" lon=".580305"><ele>40.097</ele><time>2026-04-17T10:09:33Z</time></trkpt><trkpt lat="40.754613" lon=".580254"><ele>39.213</ele><time>2026-04-17T10:09:34Z</time></trkpt><trkpt lat="40.75452" lon=".580173"><ele>38.034</ele><time>2026-04-17T10:09:35Z</time></trkpt><trkpt lat="40.754444" lon=".580095"><ele>34.882</ele><time>2026-04-17T10:09:36Z</time></trkpt><trkpt lat="40.754317" lon=".579928"><ele>32.450</ele><time>2026-04-17T10:09:38Z</time></trkpt><trkpt lat="40.75421" lon=".579747"><ele>30.824</ele><time>2026-04-17T10:09:40Z</time></trkpt><trkpt lat="40.754194" lon=".579682"><ele>29.004</ele><time>2026-04-17T10:09:41Z</time></trkpt><trkpt lat="40.754197" lon=".579626"><ele>28.214</ele><time>2026-04-17T10:09:42Z</time></trkpt><trkpt lat="40.754209" lon=".57957"><ele>26.209</ele><time>2026-04-17T10:09:43Z</time></trkpt><trkpt lat="40.75423" lon=".579538"><ele>25.624</ele><time>2026-04-17T10:09:44Z</time></trkpt><trkpt lat="40.754258" lon=".579522"><ele>25.068</ele><time>2026-04-17T10:09:45Z</time></trkpt><trkpt lat="40.754289" lon=".579518"><ele>25.082</ele><time>2026-04-17T10:09:46Z</time></trkpt><trkpt lat="40.754311" lon=".579515"><ele>24.895</ele><time>2026-04-17T10:09:47Z</time></trkpt><trkpt lat="40.75434" lon=".579504"><ele>24.866</ele><time>2026-04-17T10:09:48Z</time></trkpt><trkpt lat="40.754364" lon=".579496"><ele>24.632</ele><time>2026-04-17T10:09:49Z</time></trkpt><trkpt lat="40.754387" lon=".579479"><ele>24.833</ele><time>2026-04-17T10:09:50Z</time></trkpt><trkpt lat="40.754404" lon=".579468"><ele>25.061</ele><time>2026-04-17T10:09:51Z</time></trkpt><trkpt lat="40.754425" lon=".579461"><ele>25.259</ele><time>2026-04-17T10:09:52Z</time></trkpt><trkpt lat="40.754443" lon=".579454"><ele>25.249</ele><time>2026-04-17T10:09:53Z</time></trkpt><trkpt lat="40.754504" lon=".579431"><ele>26.402</ele><time>2026-04-17T10:09:56Z</time></trkpt><trkpt lat="40.754528" lon=".579421"><ele>26.622</ele><time>2026-04-17T10:09:57Z</time></trkpt><trkpt lat="40.754547" lon=".57941"><ele>26.809</ele><time>2026-04-17T10:09:58Z</time></trkpt><trkpt lat="40.754566" lon=".5794"><ele>27.036</ele><time>2026-04-17T10:09:59Z</time></trkpt><trkpt lat="40.75458" lon=".579388"><ele>27.070</ele><time>2026-04-17T10:10:00Z</time></trkpt><trkpt lat="40.754597" lon=".579366"><ele>27.274</ele><time>2026-04-17T10:10:01Z</time></trkpt><trkpt lat="40.75461" lon=".579354"><ele>27.227</ele><time>2026-04-17T10:10:02Z</time></trkpt><trkpt lat="40.75463" lon=".579333"><ele>27.478</ele><time>2026-04-17T10:10:04Z</time></trkpt><trkpt lat="40.75464" lon=".579318"><ele>27.614</ele><time>2026-04-17T10:10:05Z</time></trkpt><trkpt lat="40.754652" lon=".579305"><ele>27.865</ele><time>2026-04-17T10:10:06Z</time></trkpt><trkpt lat="40.754662" lon=".579286"><ele>27.813</ele><time>2026-04-17T10:10:07Z</time></trkpt><trkpt lat="40.754676" lon=".57927"><ele>28.071</ele><time>2026-04-17T10:10:08Z</time></trkpt><trkpt lat="40.754691" lon=".579249"><ele>28.039</ele><time>2026-04-17T10:10:09Z</time></trkpt><trkpt lat="40.754708" lon=".579227"><ele>28.201</ele><time>2026-04-17T10:10:10Z</time></trkpt><trkpt lat="40.754723" lon=".579214"><ele>28.221</ele><time>2026-04-17T10:10:11Z</time></trkpt><trkpt lat="40.754736" lon=".579202"><ele>28.409</ele><time>2026-04-17T10:10:12Z</time></trkpt><trkpt lat="40.754747" lon=".579191"><ele>28.425</ele><time>2026-04-17T10:10:13Z</time></trkpt><trkpt lat="40.754765" lon=".579174"><ele>28.689</ele><time>2026-04-17T10:10:14Z</time></trkpt><trkpt lat="40.754832" lon=".579103"><ele>29.093</ele><time>2026-04-17T10:10:18Z</time></trkpt><trkpt lat="40.75495" lon=".579013"><ele>29.236</ele><time>2026-04-17T10:10:23Z</time></trkpt><trkpt lat="40.754974" lon=".578999"><ele>29.247</ele><time>2026-04-17T10:10:24Z</time></trkpt><trkpt lat="40.754999" lon=".578982"><ele>29.293</ele><time>2026-04-17T10:10:25Z</time></trkpt><trkpt lat="40.755116" lon=".578899"><ele>29.234</ele><time>2026-04-17T10:10:30Z</time></trkpt><trkpt lat="40.755136" lon=".578878"><ele>29.212</ele><time>2026-04-17T10:10:31Z</time></trkpt><trkpt lat="40.755153" lon=".578853"><ele>29.270</ele><time>2026-04-17T10:10:32Z</time></trkpt><trkpt lat="40.755173" lon=".57879"><ele>29.295</ele><time>2026-04-17T10:10:34Z</time></trkpt><trkpt lat="40.755171" lon=".578756"><ele>29.249</ele><time>2026-04-17T10:10:35Z</time></trkpt><trkpt lat="40.75516" lon=".57873"><ele>29.223</ele><time>2026-04-17T10:10:36Z</time></trkpt><trkpt lat="40.755131" lon=".578711"><ele>29.209</ele><time>2026-04-17T10:10:38Z</time></trkpt><trkpt lat="40.75512" lon=".578711"><ele>29.291</ele><time>2026-04-17T10:10:39Z</time></trkpt><trkpt lat="40.755102" lon=".578707"><ele>29.235</ele><time>2026-04-17T10:10:40Z</time></trkpt><trkpt lat="40.755089" lon=".578698"><ele>29.219</ele><time>2026-04-17T10:10:41Z</time></trkpt><trkpt lat="40.755079" lon=".578681"><ele>29.272</ele><time>2026-04-17T10:10:42Z</time></trkpt><trkpt lat="40.755039" lon=".578613"><ele>29.073</ele><time>2026-04-17T10:10:45Z</time></trkpt><trkpt lat="40.755024" lon=".57859"><ele>29.049</ele><time>2026-04-17T10:10:46Z</time></trkpt><trkpt lat="40.754912" lon=".57845"><ele>28.820</ele><time>2026-04-17T10:10:53Z</time></trkpt><trkpt lat="40.754723" lon=".578249"><ele>28.628</ele><time>2026-04-17T10:11:03Z</time></trkpt><trkpt lat="40.754672" lon=".578194"><ele>28.896</ele><time>2026-04-17T10:11:06Z</time></trkpt><trkpt lat="40.754653" lon=".578174"><ele>28.878</ele><time>2026-04-17T10:11:07Z</time></trkpt><trkpt lat="40.754637" lon=".578155"><ele>28.833</ele><time>2026-04-17T10:11:08Z</time></trkpt><trkpt lat="40.754625" lon=".578134"><ele>29.026</ele><time>2026-04-17T10:11:09Z</time></trkpt><trkpt lat="40.754612" lon=".578114"><ele>29.009</ele><time>2026-04-17T10:11:10Z</time></trkpt><trkpt lat="40.754596" lon=".578094"><ele>29.229</ele><time>2026-04-17T10:11:11Z</time></trkpt><trkpt lat="40.754573" lon=".57807"><ele>29.233</ele><time>2026-04-17T10:11:12Z</time></trkpt><trkpt lat="40.754479" lon=".577992"><ele>29.667</ele><time>2026-04-17T10:11:16Z</time></trkpt><trkpt lat="40.754455" lon=".577979"><ele>29.690</ele><time>2026-04-17T10:11:17Z</time></trkpt><trkpt lat="40.754433" lon=".577971"><ele>29.811</ele><time>2026-04-17T10:11:18Z</time></trkpt><trkpt lat="40.754402" lon=".577961"><ele>30.017</ele><time>2026-04-17T10:11:19Z</time></trkpt><trkpt lat="40.754378" lon=".577947"><ele>30.818</ele><time>2026-04-17T10:11:20Z</time></trkpt><trkpt lat="40.754343" lon=".577889"><ele>31.456</ele><time>2026-04-17T10:11:22Z</time></trkpt><trkpt lat="40.754338" lon=".577859"><ele>31.654</ele><time>2026-04-17T10:11:23Z</time></trkpt><trkpt lat="40.754324" lon=".577785"><ele>32.032</ele><time>2026-04-17T10:11:25Z</time></trkpt><trkpt lat="40.754321" lon=".577744"><ele>32.092</ele><time>2026-04-17T10:11:26Z</time></trkpt><trkpt lat="40.754316" lon=".577706"><ele>32.211</ele><time>2026-04-17T10:11:27Z</time></trkpt><trkpt lat="40.754311" lon=".577678"><ele>32.409</ele><time>2026-04-17T10:11:28Z</time></trkpt><trkpt lat="40.754303" lon=".577635"><ele>32.845</ele><time>2026-04-17T10:11:29Z</time></trkpt><trkpt lat="40.754299" lon=".577606"><ele>33.259</ele><time>2026-04-17T10:11:30Z</time></trkpt><trkpt lat="40.754295" lon=".577563"><ele>33.483</ele><time>2026-04-17T10:11:31Z</time></trkpt><trkpt lat="40.754293" lon=".577532"><ele>33.646</ele><time>2026-04-17T10:11:32Z</time></trkpt><trkpt lat="40.754291" lon=".577495"><ele>33.657</ele><time>2026-04-17T10:11:33Z</time></trkpt><trkpt lat="40.754291" lon=".577459"><ele>33.873</ele><time>2026-04-17T10:11:34Z</time></trkpt><trkpt lat="40.754293" lon=".577418"><ele>34.054</ele><time>2026-04-17T10:11:35Z</time></trkpt><trkpt lat="40.754297" lon=".577391"><ele>34.022</ele><time>2026-04-17T10:11:36Z</time></trkpt><trkpt lat="40.754305" lon=".577351"><ele>34.090</ele><time>2026-04-17T10:11:37Z</time></trkpt><trkpt lat="40.754312" lon=".577319"><ele>34.223</ele><time>2026-04-17T10:11:38Z</time></trkpt><trkpt lat="40.754319" lon=".577294"><ele>34.283</ele><time>2026-04-17T10:11:39Z</time></trkpt><trkpt lat="40.754331" lon=".577269"><ele>34.211</ele><time>2026-04-17T10:11:40Z</time></trkpt><trkpt lat="40.75435" lon=".57725"><ele>34.209</ele><time>2026-04-17T10:11:41Z</time></trkpt><trkpt lat="40.754362" lon=".57724"><ele>34.284</ele><time>2026-04-17T10:11:42Z</time></trkpt><trkpt lat="40.754381" lon=".577221"><ele>34.258</ele><time>2026-04-17T10:11:43Z</time></trkpt><trkpt lat="40.754392" lon=".577208"><ele>34.272</ele><time>2026-04-17T10:11:44Z</time></trkpt><trkpt lat="40.754407" lon=".577187"><ele>34.445</ele><time>2026-04-17T10:11:45Z</time></trkpt><trkpt lat="40.754425" lon=".57717"><ele>34.666</ele><time>2026-04-17T10:11:46Z</time></trkpt><trkpt lat="40.754451" lon=".577154"><ele>34.622</ele><time>2026-04-17T10:11:47Z</time></trkpt><trkpt lat="40.754471" lon=".577148"><ele>34.893</ele><time>2026-04-17T10:11:48Z</time></trkpt><trkpt lat="40.754496" lon=".57714"><ele>35.031</ele><time>2026-04-17T10:11:49Z</time></trkpt><trkpt lat="40.754526" lon=".577129"><ele>35.419</ele><time>2026-04-17T10:11:50Z</time></trkpt><trkpt lat="40.754549" lon=".577122"><ele>35.651</ele><time>2026-04-17T10:11:51Z</time></trkpt><trkpt lat="40.754573" lon=".57712"><ele>36.001</ele><time>2026-04-17T10:11:52Z</time></trkpt><trkpt lat="40.754597" lon=".57712"><ele>36.011</ele><time>2026-04-17T10:11:53Z</time></trkpt><trkpt lat="40.754621" lon=".577123"><ele>36.009</ele><time>2026-04-17T10:11:54Z</time></trkpt><trkpt lat="40.754644" lon=".577127"><ele>36.067</ele><time>2026-04-17T10:11:55Z</time></trkpt><trkpt lat="40.75467" lon=".577126"><ele>36.021</ele><time>2026-04-17T10:11:56Z</time></trkpt><trkpt lat="40.754695" lon=".577124"><ele>36.225</ele><time>2026-04-17T10:11:57Z</time></trkpt><trkpt lat="40.754722" lon=".577122"><ele>36.278</ele><time>2026-04-17T10:11:58Z</time></trkpt><trkpt lat="40.754749" lon=".577121"><ele>36.419</ele><time>2026-04-17T10:11:59Z</time></trkpt><trkpt lat="40.754777" lon=".577119"><ele>36.465</ele><time>2026-04-17T10:12:00Z</time></trkpt><trkpt lat="40.754806" lon=".577112"><ele>36.666</ele><time>2026-04-17T10:12:01Z</time></trkpt><trkpt lat="40.754833" lon=".577108"><ele>36.654</ele><time>2026-04-17T10:12:02Z</time></trkpt><trkpt lat="40.754861" lon=".577104"><ele>36.822</ele><time>2026-04-17T10:12:03Z</time></trkpt><trkpt lat="40.75489" lon=".577098"><ele>36.888</ele><time>2026-04-17T10:12:04Z</time></trkpt><trkpt lat="40.754917" lon=".577095"><ele>36.824</ele><time>2026-04-17T10:12:05Z</time></trkpt><trkpt lat="40.754944" lon=".577092"><ele>36.826</ele><time>2026-04-17T10:12:06Z</time></trkpt><trkpt lat="40.754972" lon=".577087"><ele>36.809</ele><time>2026-04-17T10:12:07Z</time></trkpt><trkpt lat="40.755" lon=".57708"><ele>37.030</ele><time>2026-04-17T10:12:08Z</time></trkpt><trkpt lat="40.755027" lon=".577069"><ele>37.044</ele><time>2026-04-17T10:12:09Z</time></trkpt><trkpt lat="40.755052" lon=".577057"><ele>37.088</ele><time>2026-04-17T10:12:10Z</time></trkpt><trkpt lat="40.755077" lon=".577043"><ele>37.051</ele><time>2026-04-17T10:12:11Z</time></trkpt><trkpt lat="40.7551" lon=".577027"><ele>37.042</ele><time>2026-04-17T10:12:12Z</time></trkpt><trkpt lat="40.755124" lon=".577007"><ele>37.438</ele><time>2026-04-17T10:12:13Z</time></trkpt><trkpt lat="40.755147" lon=".576989"><ele>37.679</ele><time>2026-04-17T10:12:14Z</time></trkpt><trkpt lat="40.755293" lon=".576895"><ele>39.057</ele><time>2026-04-17T10:12:20Z</time></trkpt><trkpt lat="40.755342" lon=".576865"><ele>39.475</ele><time>2026-04-17T10:12:22Z</time></trkpt><trkpt lat="40.755366" lon=".576852"><ele>39.864</ele><time>2026-04-17T10:12:23Z</time></trkpt><trkpt lat="40.75539" lon=".576836"><ele>40.406</ele><time>2026-04-17T10:12:24Z</time></trkpt><trkpt lat="40.755416" lon=".57682"><ele>40.616</ele><time>2026-04-17T10:12:25Z</time></trkpt><trkpt lat="40.755444" lon=".576805"><ele>40.809</ele><time>2026-04-17T10:12:26Z</time></trkpt><trkpt lat="40.755472" lon=".576788"><ele>41.038</ele><time>2026-04-17T10:12:27Z</time></trkpt><trkpt lat="40.755499" lon=".576773"><ele>41.212</ele><time>2026-04-17T10:12:28Z</time></trkpt><trkpt lat="40.755526" lon=".576759"><ele>41.476</ele><time>2026-04-17T10:12:29Z</time></trkpt><trkpt lat="40.755546" lon=".576748"><ele>41.479</ele><time>2026-04-17T10:12:30Z</time></trkpt><trkpt lat="40.755578" lon=".576735"><ele>41.860</ele><time>2026-04-17T10:12:31Z</time></trkpt><trkpt lat="40.755605" lon=".576727"><ele>42.016</ele><time>2026-04-17T10:12:32Z</time></trkpt><trkpt lat="40.755632" lon=".576719"><ele>42.237</ele><time>2026-04-17T10:12:33Z</time></trkpt><trkpt lat="40.755659" lon=".57671"><ele>42.645</ele><time>2026-04-17T10:12:34Z</time></trkpt><trkpt lat="40.755686" lon=".576699"><ele>43.013</ele><time>2026-04-17T10:12:35Z</time></trkpt><trkpt lat="40.755713" lon=".576684"><ele>43.282</ele><time>2026-04-17T10:12:36Z</time></trkpt><trkpt lat="40.755739" lon=".576669"><ele>43.443</ele><time>2026-04-17T10:12:37Z</time></trkpt><trkpt lat="40.755764" lon=".576649"><ele>43.417</ele><time>2026-04-17T10:12:38Z</time></trkpt><trkpt lat="40.755787" lon=".576624"><ele>43.609</ele><time>2026-04-17T10:12:39Z</time></trkpt><trkpt lat="40.755807" lon=".576596"><ele>43.840</ele><time>2026-04-17T10:12:40Z</time></trkpt><trkpt lat="40.755822" lon=".576564"><ele>43.894</ele><time>2026-04-17T10:12:41Z</time></trkpt><trkpt lat="40.755837" lon=".57653"><ele>43.878</ele><time>2026-04-17T10:12:42Z</time></trkpt><trkpt lat="40.755854" lon=".576494"><ele>44.031</ele><time>2026-04-17T10:12:43Z</time></trkpt><trkpt lat="40.755867" lon=".576458"><ele>44.052</ele><time>2026-04-17T10:12:44Z</time></trkpt><trkpt lat="40.755878" lon=".576419"><ele>44.048</ele><time>2026-04-17T10:12:45Z</time></trkpt><trkpt lat="40.755888" lon=".576381"><ele>44.069</ele><time>2026-04-17T10:12:46Z</time></trkpt><trkpt lat="40.755897" lon=".576343"><ele>44.037</ele><time>2026-04-17T10:12:47Z</time></trkpt><trkpt lat="40.755909" lon=".576314"><ele>44.215</ele><time>2026-04-17T10:12:48Z</time></trkpt><trkpt lat="40.755921" lon=".576283"><ele>44.284</ele><time>2026-04-17T10:12:49Z</time></trkpt><trkpt lat="40.755934" lon=".576252"><ele>44.207</ele><time>2026-04-17T10:12:50Z</time></trkpt><trkpt lat="40.755948" lon=".576219"><ele>44.417</ele><time>2026-04-17T10:12:51Z</time></trkpt><trkpt lat="40.755961" lon=".576185"><ele>44.409</ele><time>2026-04-17T10:12:52Z</time></trkpt><trkpt lat="40.755973" lon=".576153"><ele>44.610</ele><time>2026-04-17T10:12:53Z</time></trkpt><trkpt lat="40.755985" lon=".57612"><ele>44.824</ele><time>2026-04-17T10:12:54Z</time></trkpt><trkpt lat="40.755996" lon=".576086"><ele>45.098</ele><time>2026-04-17T10:12:55Z</time></trkpt><trkpt lat="40.756006" lon=".57605"><ele>45.411</ele><time>2026-04-17T10:12:56Z</time></trkpt><trkpt lat="40.756019" lon=".576015"><ele>45.462</ele><time>2026-04-17T10:12:57Z</time></trkpt><trkpt lat="40.756034" lon=".575979"><ele>45.668</ele><time>2026-04-17T10:12:58Z</time></trkpt><trkpt lat="40.756053" lon=".575936"><ele>45.629</ele><time>2026-04-17T10:12:59Z</time></trkpt><trkpt lat="40.756074" lon=".575889"><ele>45.667</ele><time>2026-04-17T10:13:00Z</time></trkpt><trkpt lat="40.756094" lon=".575835"><ele>45.615</ele><time>2026-04-17T10:13:01Z</time></trkpt><trkpt lat="40.756117" lon=".575783"><ele>45.611</ele><time>2026-04-17T10:13:02Z</time></trkpt><trkpt lat="40.75614" lon=".575729"><ele>45.621</ele><time>2026-04-17T10:13:03Z</time></trkpt><trkpt lat="40.756163" lon=".575673"><ele>45.603</ele><time>2026-04-17T10:13:04Z</time></trkpt><trkpt lat="40.756181" lon=".575612"><ele>45.409</ele><time>2026-04-17T10:13:05Z</time></trkpt><trkpt lat="40.756196" lon=".575541"><ele>45.223</ele><time>2026-04-17T10:13:06Z</time></trkpt><trkpt lat="40.756209" lon=".575461"><ele>45.047</ele><time>2026-04-17T10:13:07Z</time></trkpt><trkpt lat="40.756218" lon=".575372"><ele>44.681</ele><time>2026-04-17T10:13:08Z</time></trkpt><trkpt lat="40.756225" lon=".575274"><ele>44.634</ele><time>2026-04-17T10:13:09Z</time></trkpt><trkpt lat="40.756235" lon=".575058"><ele>44.045</ele><time>2026-04-17T10:13:11Z</time></trkpt><trkpt lat="40.756231" lon=".574941"><ele>43.411</ele><time>2026-04-17T10:13:12Z</time></trkpt><trkpt lat="40.756217" lon=".574826"><ele>42.262</ele><time>2026-04-17T10:13:13Z</time></trkpt><trkpt lat="40.756191" lon=".574716"><ele>40.840</ele><time>2026-04-17T10:13:14Z</time></trkpt><trkpt lat="40.756159" lon=".574607"><ele>40.268</ele><time>2026-04-17T10:13:15Z</time></trkpt><trkpt lat="40.756123" lon=".574496"><ele>38.852</ele><time>2026-04-17T10:13:16Z</time></trkpt><trkpt lat="40.756085" lon=".574384"><ele>37.453</ele><time>2026-04-17T10:13:17Z</time></trkpt><trkpt lat="40.756009" lon=".574183"><ele>35.808</ele><time>2026-04-17T10:13:19Z</time></trkpt><trkpt lat="40.755899" lon=".573961"><ele>33.009</ele><time>2026-04-17T10:13:21Z</time></trkpt><trkpt lat="40.755851" lon=".573862"><ele>32.287</ele><time>2026-04-17T10:13:22Z</time></trkpt><trkpt lat="40.755808" lon=".573758"><ele>31.221</ele><time>2026-04-17T10:13:23Z</time></trkpt><trkpt lat="40.755776" lon=".573649"><ele>30.685</ele><time>2026-04-17T10:13:24Z</time></trkpt><trkpt lat="40.755751" lon=".573541"><ele>30.218</ele><time>2026-04-17T10:13:25Z</time></trkpt><trkpt lat="40.755736" lon=".573445"><ele>29.819</ele><time>2026-04-17T10:13:26Z</time></trkpt><trkpt lat="40.755731" lon=".573359"><ele>29.625</ele><time>2026-04-17T10:13:28Z</time></trkpt><trkpt lat="40.755737" lon=".573281"><ele>29.226</ele><time>2026-04-17T10:13:29Z</time></trkpt><trkpt lat="40.755755" lon=".573216"><ele>29.024</ele><time>2026-04-17T10:13:30Z</time></trkpt><trkpt lat="40.755787" lon=".573177"><ele>28.612</ele><time>2026-04-17T10:13:31Z</time></trkpt><trkpt lat="40.755831" lon=".573153"><ele>28.697</ele><time>2026-04-17T10:13:32Z</time></trkpt><trkpt lat="40.755875" lon=".57314"><ele>28.423</ele><time>2026-04-17T10:13:33Z</time></trkpt><trkpt lat="40.756" lon=".573095"><ele>28.225</ele><time>2026-04-17T10:13:35Z</time></trkpt><trkpt lat="40.756057" lon=".573048"><ele>28.209</ele><time>2026-04-17T10:13:36Z</time></trkpt><trkpt lat="40.756106" lon=".572977"><ele>28.221</ele><time>2026-04-17T10:13:37Z</time></trkpt><trkpt lat="40.756141" lon=".572895"><ele>28.055</ele><time>2026-04-17T10:13:38Z</time></trkpt><trkpt lat="40.756171" lon=".57282"><ele>27.829</ele><time>2026-04-17T10:13:39Z</time></trkpt><trkpt lat="40.756204" lon=".57276"><ele>27.672</ele><time>2026-04-17T10:13:40Z</time></trkpt><trkpt lat="40.756231" lon=".572712"><ele>27.443</ele><time>2026-04-17T10:13:41Z</time></trkpt><trkpt lat="40.756248" lon=".572679"><ele>27.279</ele><time>2026-04-17T10:13:42Z</time></trkpt><trkpt lat="40.756269" lon=".57264"><ele>27.270</ele><time>2026-04-17T10:13:43Z</time></trkpt><trkpt lat="40.756283" lon=".572617"><ele>27.238</ele><time>2026-04-17T10:13:44Z</time></trkpt><trkpt lat="40.756298" lon=".572594"><ele>27.236</ele><time>2026-04-17T10:13:45Z</time></trkpt><trkpt lat="40.756315" lon=".572568"><ele>27.252</ele><time>2026-04-17T10:13:46Z</time></trkpt><trkpt lat="40.756338" lon=".57254"><ele>27.453</ele><time>2026-04-17T10:13:47Z</time></trkpt><trkpt lat="40.756363" lon=".572513"><ele>27.808</ele><time>2026-04-17T10:13:48Z</time></trkpt><trkpt lat="40.756418" lon=".572462"><ele>29.009</ele><time>2026-04-17T10:13:50Z</time></trkpt><trkpt lat="40.756533" lon=".572372"><ele>30.417</ele><time>2026-04-17T10:13:54Z</time></trkpt><trkpt lat="40.756592" lon=".572328"><ele>31.041</ele><time>2026-04-17T10:13:56Z</time></trkpt><trkpt lat="40.756655" lon=".572291"><ele>31.425</ele><time>2026-04-17T10:13:58Z</time></trkpt><trkpt lat="40.756782" lon=".57224"><ele>32.058</ele><time>2026-04-17T10:14:02Z</time></trkpt><trkpt lat="40.756806" lon=".572233"><ele>32.089</ele><time>2026-04-17T10:14:03Z</time></trkpt><trkpt lat="40.756861" lon=".572196"><ele>32.225</ele><time>2026-04-17T10:14:05Z</time></trkpt><trkpt lat="40.756879" lon=".572167"><ele>32.236</ele><time>2026-04-17T10:14:06Z</time></trkpt><trkpt lat="40.756894" lon=".572132"><ele>32.234</ele><time>2026-04-17T10:14:07Z</time></trkpt><trkpt lat="40.756903" lon=".57209"><ele>32.452</ele><time>2026-04-17T10:14:08Z</time></trkpt><trkpt lat="40.756907" lon=".572043"><ele>32.474</ele><time>2026-04-17T10:14:09Z</time></trkpt><trkpt lat="40.756909" lon=".571993"><ele>32.456</ele><time>2026-04-17T10:14:10Z</time></trkpt><trkpt lat="40.756913" lon=".571939"><ele>32.421</ele><time>2026-04-17T10:14:11Z</time></trkpt><trkpt lat="40.756917" lon=".571879"><ele>32.209</ele><time>2026-04-17T10:14:12Z</time></trkpt><trkpt lat="40.756924" lon=".57181"><ele>32.289</ele><time>2026-04-17T10:14:13Z</time></trkpt><trkpt lat="40.756931" lon=".571729"><ele>32.253</ele><time>2026-04-17T10:14:14Z</time></trkpt><trkpt lat="40.756943" lon=".571635"><ele>32.077</ele><time>2026-04-17T10:14:15Z</time></trkpt><trkpt lat="40.756962" lon=".571531"><ele>32.060</ele><time>2026-04-17T10:14:16Z</time></trkpt><trkpt lat="40.756987" lon=".571418"><ele>31.881</ele><time>2026-04-17T10:14:17Z</time></trkpt><trkpt lat="40.757023" lon=".571302"><ele>31.277</ele><time>2026-04-17T10:14:18Z</time></trkpt><trkpt lat="40.75707" lon=".571187"><ele>30.438</ele><time>2026-04-17T10:14:19Z</time></trkpt><trkpt lat="40.757197" lon=".570974"><ele>27.686</ele><time>2026-04-17T10:14:21Z</time></trkpt><trkpt lat="40.757264" lon=".570868"><ele>25.474</ele><time>2026-04-17T10:14:22Z</time></trkpt><trkpt lat="40.757328" lon=".570764"><ele>24.684</ele><time>2026-04-17T10:14:23Z</time></trkpt><trkpt lat="40.757386" lon=".57066"><ele>23.207</ele><time>2026-04-17T10:14:24Z</time></trkpt><trkpt lat="40.757441" lon=".570558"><ele>22.617</ele><time>2026-04-17T10:14:25Z</time></trkpt><trkpt lat="40.757482" lon=".570479"><ele>21.809</ele><time>2026-04-17T10:14:26Z</time></trkpt><trkpt lat="40.75753" lon=".570365"><ele>21.670</ele><time>2026-04-17T10:14:27Z</time></trkpt><trkpt lat="40.757549" lon=".570281"><ele>21.424</ele><time>2026-04-17T10:14:28Z</time></trkpt><trkpt lat="40.757549" lon=".570209"><ele>21.228</ele><time>2026-04-17T10:14:29Z</time></trkpt><trkpt lat="40.757531" lon=".57015"><ele>21.281</ele><time>2026-04-17T10:14:30Z</time></trkpt><trkpt lat="40.757497" lon=".570105"><ele>21.282</ele><time>2026-04-17T10:14:31Z</time></trkpt><trkpt lat="40.757456" lon=".570068"><ele>21.248</ele><time>2026-04-17T10:14:32Z</time></trkpt><trkpt lat="40.757416" lon=".57003"><ele>21.489</ele><time>2026-04-17T10:14:33Z</time></trkpt><trkpt lat="40.757379" lon=".56999"><ele>21.647</ele><time>2026-04-17T10:14:34Z</time></trkpt><trkpt lat="40.757342" lon=".56995"><ele>21.875</ele><time>2026-04-17T10:14:35Z</time></trkpt><trkpt lat="40.757304" lon=".569908"><ele>21.812</ele><time>2026-04-17T10:14:36Z</time></trkpt><trkpt lat="40.757268" lon=".569868"><ele>21.832</ele><time>2026-04-17T10:14:37Z</time></trkpt><trkpt lat="40.757231" lon=".569828"><ele>22.005</ele><time>2026-04-17T10:14:38Z</time></trkpt><trkpt lat="40.757192" lon=".569787"><ele>22.009</ele><time>2026-04-17T10:14:39Z</time></trkpt><trkpt lat="40.757085" lon=".569663"><ele>22.033</ele><time>2026-04-17T10:14:42Z</time></trkpt><trkpt lat="40.756877" lon=".569427"><ele>21.887</ele><time>2026-04-17T10:14:48Z</time></trkpt><trkpt lat="40.756847" lon=".56939"><ele>21.621</ele><time>2026-04-17T10:14:49Z</time></trkpt><trkpt lat="40.756817" lon=".569354"><ele>21.654</ele><time>2026-04-17T10:14:50Z</time></trkpt><trkpt lat="40.756788" lon=".56932"><ele>21.695</ele><time>2026-04-17T10:14:51Z</time></trkpt><trkpt lat="40.756733" lon=".569256"><ele>21.421</ele><time>2026-04-17T10:14:53Z</time></trkpt><trkpt lat="40.756709" lon=".569223"><ele>21.482</ele><time>2026-04-17T10:14:54Z</time></trkpt><trkpt lat="40.756686" lon=".569189"><ele>21.450</ele><time>2026-04-17T10:14:55Z</time></trkpt><trkpt lat="40.756667" lon=".569156"><ele>21.458</ele><time>2026-04-17T10:14:56Z</time></trkpt><trkpt lat="40.75665" lon=".569124"><ele>21.418</ele><time>2026-04-17T10:14:57Z</time></trkpt><trkpt lat="40.756639" lon=".569101"><ele>21.498</ele><time>2026-04-17T10:14:58Z</time></trkpt><trkpt lat="40.756632" lon=".569083"><ele>21.417</ele><time>2026-04-17T10:14:59Z</time></trkpt><trkpt lat="40.756632" lon=".569083"><ele>21.609</ele><time>2026-04-17T10:15:00Z</time></trkpt><trkpt lat="40.756594" lon=".569081"><ele>23.063</ele><time>2026-04-17T10:16:41Z</time></trkpt><trkpt lat="40.756574" lon=".569078"><ele>23.067</ele><time>2026-04-17T10:16:42Z</time></trkpt><trkpt lat="40.756555" lon=".569071"><ele>23.031</ele><time>2026-04-17T10:16:43Z</time></trkpt><trkpt lat="40.756518" lon=".569041"><ele>22.834</ele><time>2026-04-17T10:16:45Z</time></trkpt><trkpt lat="40.756497" lon=".569021"><ele>22.895</ele><time>2026-04-17T10:16:46Z</time></trkpt><trkpt lat="40.756472" lon=".569006"><ele>22.881</ele><time>2026-04-17T10:16:47Z</time></trkpt><trkpt lat="40.75644" lon=".569002"><ele>22.642</ele><time>2026-04-17T10:16:48Z</time></trkpt><trkpt lat="40.756406" lon=".569015"><ele>22.690</ele><time>2026-04-17T10:16:49Z</time></trkpt><trkpt lat="40.756372" lon=".569033"><ele>22.438</ele><time>2026-04-17T10:16:50Z</time></trkpt><trkpt lat="40.756338" lon=".569044"><ele>22.475</ele><time>2026-04-17T10:16:51Z</time></trkpt><trkpt lat="40.756303" lon=".569053"><ele>22.428</ele><time>2026-04-17T10:16:52Z</time></trkpt><trkpt lat="40.756267" lon=".56906"><ele>22.420</ele><time>2026-04-17T10:16:53Z</time></trkpt><trkpt lat="40.756106" lon=".569106"><ele>22.209</ele><time>2026-04-17T10:16:57Z</time></trkpt><trkpt lat="40.755766" lon=".569142"><ele>21.469</ele><time>2026-04-17T10:17:04Z</time></trkpt><trkpt lat="40.755658" lon=".56916"><ele>20.893</ele><time>2026-04-17T10:17:06Z</time></trkpt><trkpt lat="40.755605" lon=".569174"><ele>20.697</ele><time>2026-04-17T10:17:07Z</time></trkpt><trkpt lat="40.755552" lon=".569194"><ele>20.470</ele><time>2026-04-17T10:17:08Z</time></trkpt><trkpt lat="40.755502" lon=".569224"><ele>20.441</ele><time>2026-04-17T10:17:09Z</time></trkpt><trkpt lat="40.755456" lon=".569267"><ele>20.037</ele><time>2026-04-17T10:17:10Z</time></trkpt><trkpt lat="40.755416" lon=".569319"><ele>20.038</ele><time>2026-04-17T10:17:11Z</time></trkpt><trkpt lat="40.75538" lon=".569381"><ele>20.076</ele><time>2026-04-17T10:17:12Z</time></trkpt><trkpt lat="40.755348" lon=".569448"><ele>19.814</ele><time>2026-04-17T10:17:13Z</time></trkpt><trkpt lat="40.755319" lon=".569516"><ele>19.816</ele><time>2026-04-17T10:17:14Z</time></trkpt><trkpt lat="40.755291" lon=".569587"><ele>19.876</ele><time>2026-04-17T10:17:15Z</time></trkpt><trkpt lat="40.755261" lon=".569663"><ele>19.813</ele><time>2026-04-17T10:17:16Z</time></trkpt><trkpt lat="40.755182" lon=".569826"><ele>19.609</ele><time>2026-04-17T10:17:18Z</time></trkpt><trkpt lat="40.755052" lon=".570065"><ele>18.623</ele><time>2026-04-17T10:17:21Z</time></trkpt><trkpt lat="40.754937" lon=".57032"><ele>17.267</ele><time>2026-04-17T10:17:24Z</time></trkpt><trkpt lat="40.754781" lon=".570646"><ele>16.241</ele><time>2026-04-17T10:17:28Z</time></trkpt><trkpt lat="40.75474" lon=".570728"><ele>15.824</ele><time>2026-04-17T10:17:29Z</time></trkpt><trkpt lat="40.75466" lon=".570894"><ele>15.245</ele><time>2026-04-17T10:17:31Z</time></trkpt><trkpt lat="40.754584" lon=".571054"><ele>14.691</ele><time>2026-04-17T10:17:33Z</time></trkpt><trkpt lat="40.75447" lon=".571298"><ele>13.462</ele><time>2026-04-17T10:17:36Z</time></trkpt><trkpt lat="40.75429" lon=".571679"><ele>12.440</ele><time>2026-04-17T10:17:41Z</time></trkpt><trkpt lat="40.754257" lon=".571749"><ele>12.288</ele><time>2026-04-17T10:17:42Z</time></trkpt><trkpt lat="40.754222" lon=".571818"><ele>12.065</ele><time>2026-04-17T10:17:43Z</time></trkpt><trkpt lat="40.754189" lon=".571887"><ele>12.068</ele><time>2026-04-17T10:17:44Z</time></trkpt><trkpt lat="40.754156" lon=".571953"><ele>11.814</ele><time>2026-04-17T10:17:45Z</time></trkpt><trkpt lat="40.754125" lon=".57202"><ele>11.809</ele><time>2026-04-17T10:17:46Z</time></trkpt><trkpt lat="40.754096" lon=".572085"><ele>11.828</ele><time>2026-04-17T10:17:47Z</time></trkpt><trkpt lat="40.754065" lon=".572152"><ele>11.832</ele><time>2026-04-17T10:17:48Z</time></trkpt><trkpt lat="40.75403" lon=".572218"><ele>11.886</ele><time>2026-04-17T10:17:49Z</time></trkpt><trkpt lat="40.753991" lon=".57228"><ele>11.859</ele><time>2026-04-17T10:17:50Z</time></trkpt><trkpt lat="40.753951" lon=".572335"><ele>12.090</ele><time>2026-04-17T10:17:51Z</time></trkpt><trkpt lat="40.753912" lon=".572385"><ele>12.046</ele><time>2026-04-17T10:17:52Z</time></trkpt><trkpt lat="40.753874" lon=".572434"><ele>12.297</ele><time>2026-04-17T10:17:53Z</time></trkpt><trkpt lat="40.753842" lon=".572483"><ele>12.285</ele><time>2026-04-17T10:17:54Z</time></trkpt><trkpt lat="40.753811" lon=".572532"><ele>12.473</ele><time>2026-04-17T10:17:55Z</time></trkpt><trkpt lat="40.753781" lon=".572583"><ele>12.413</ele><time>2026-04-17T10:17:56Z</time></trkpt><trkpt lat="40.753757" lon=".572634"><ele>12.843</ele><time>2026-04-17T10:17:57Z</time></trkpt><trkpt lat="40.75373" lon=".57269"><ele>13.407</ele><time>2026-04-17T10:17:58Z</time></trkpt><trkpt lat="40.753702" lon=".572743"><ele>14.009</ele><time>2026-04-17T10:17:59Z</time></trkpt><trkpt lat="40.753646" lon=".572851"><ele>14.653</ele><time>2026-04-17T10:18:01Z</time></trkpt><trkpt lat="40.753593" lon=".572961"><ele>15.267</ele><time>2026-04-17T10:18:03Z</time></trkpt><trkpt lat="40.753568" lon=".573015"><ele>15.441</ele><time>2026-04-17T10:18:04Z</time></trkpt><trkpt lat="40.75354" lon=".573072"><ele>15.844</ele><time>2026-04-17T10:18:05Z</time></trkpt><trkpt lat="40.753462" lon=".573254"><ele>16.425</ele><time>2026-04-17T10:18:08Z</time></trkpt><trkpt lat="40.753409" lon=".573382"><ele>16.871</ele><time>2026-04-17T10:18:10Z</time></trkpt><trkpt lat="40.753383" lon=".573447"><ele>16.822</ele><time>2026-04-17T10:18:11Z</time></trkpt><trkpt lat="40.753358" lon=".573512"><ele>17.030</ele><time>2026-04-17T10:18:12Z</time></trkpt><trkpt lat="40.753334" lon=".57358"><ele>17.028</ele><time>2026-04-17T10:18:13Z</time></trkpt><trkpt lat="40.753311" lon=".573645"><ele>17.013</ele><time>2026-04-17T10:18:14Z</time></trkpt><trkpt lat="40.753289" lon=".57371"><ele>17.043</ele><time>2026-04-17T10:18:15Z</time></trkpt><trkpt lat="40.753267" lon=".573779"><ele>17.007</ele><time>2026-04-17T10:18:16Z</time></trkpt><trkpt lat="40.753245" lon=".573848"><ele>17.009</ele><time>2026-04-17T10:18:17Z</time></trkpt><trkpt lat="40.753223" lon=".57392"><ele>16.873</ele><time>2026-04-17T10:18:18Z</time></trkpt><trkpt lat="40.753203" lon=".573996"><ele>16.677</ele><time>2026-04-17T10:18:19Z</time></trkpt><trkpt lat="40.753185" lon=".574073"><ele>16.621</ele><time>2026-04-17T10:18:20Z</time></trkpt><trkpt lat="40.753167" lon=".574152"><ele>16.434</ele><time>2026-04-17T10:18:21Z</time></trkpt><trkpt lat="40.753152" lon=".574232"><ele>16.445</ele><time>2026-04-17T10:18:22Z</time></trkpt><trkpt lat="40.753141" lon=".57431"><ele>16.641</ele><time>2026-04-17T10:18:23Z</time></trkpt><trkpt lat="40.753133" lon=".57439"><ele>16.442</ele><time>2026-04-17T10:18:24Z</time></trkpt><trkpt lat="40.753129" lon=".574467"><ele>16.430</ele><time>2026-04-17T10:18:25Z</time></trkpt><trkpt lat="40.753124" lon=".574545"><ele>16.498</ele><time>2026-04-17T10:18:26Z</time></trkpt><trkpt lat="40.753109" lon=".574685"><ele>16.463</ele><time>2026-04-17T10:18:28Z</time></trkpt><trkpt lat="40.753088" lon=".574738"><ele>16.644</ele><time>2026-04-17T10:18:29Z</time></trkpt><trkpt lat="40.753066" lon=".574775"><ele>16.618</ele><time>2026-04-17T10:18:30Z</time></trkpt><trkpt lat="40.753034" lon=".574793"><ele>16.609</ele><time>2026-04-17T10:18:31Z</time></trkpt><trkpt lat="40.753001" lon=".574785"><ele>16.828</ele><time>2026-04-17T10:18:32Z</time></trkpt><trkpt lat="40.752968" lon=".574778"><ele>16.882</ele><time>2026-04-17T10:18:33Z</time></trkpt><trkpt lat="40.752935" lon=".57477"><ele>16.856</ele><time>2026-04-17T10:18:34Z</time></trkpt><trkpt lat="40.752902" lon=".574763"><ele>16.869</ele><time>2026-04-17T10:18:35Z</time></trkpt><trkpt lat="40.752869" lon=".574755"><ele>16.880</ele><time>2026-04-17T10:18:36Z</time></trkpt><trkpt lat="40.752835" lon=".574748"><ele>16.856</ele><time>2026-04-17T10:18:37Z</time></trkpt><trkpt lat="40.752802" lon=".57474"><ele>16.867</ele><time>2026-04-17T10:18:38Z</time></trkpt><trkpt lat="40.752769" lon=".574733"><ele>16.825</ele><time>2026-04-17T10:18:39Z</time></trkpt><trkpt lat="40.752736" lon=".574725"><ele>16.633</ele><time>2026-04-17T10:18:40Z</time></trkpt><trkpt lat="40.752703" lon=".574718"><ele>16.676</ele><time>2026-04-17T10:18:41Z</time></trkpt><trkpt lat="40.752693" lon=".574752"><ele>16.690</ele><time>2026-04-17T10:18:42Z</time></trkpt><trkpt lat="40.752683" lon=".574798"><ele>16.619</ele><time>2026-04-17T10:18:43Z</time></trkpt><trkpt lat="40.752679" lon=".574839"><ele>16.609</ele><time>2026-04-17T10:18:44Z</time></trkpt><trkpt lat="40.752671" lon=".574884"><ele>16.629</ele><time>2026-04-17T10:18:45Z</time></trkpt><trkpt lat="40.75266" lon=".574939"><ele>16.413</ele><time>2026-04-17T10:18:46Z</time></trkpt><trkpt lat="40.752623" lon=".57536"><ele>16.657</ele><time>2026-04-17T10:18:53Z</time></trkpt><trkpt lat="40.752611" lon=".575823"><ele>17.830</ele><time>2026-04-17T10:19:00Z</time></trkpt><trkpt lat="40.752618" lon=".576325"><ele>18.441</ele><time>2026-04-17T10:19:08Z</time></trkpt><trkpt lat="40.752618" lon=".576388"><ele>18.657</ele><time>2026-04-17T10:19:09Z</time></trkpt><trkpt lat="40.752618" lon=".57645"><ele>18.678</ele><time>2026-04-17T10:19:10Z</time></trkpt><trkpt lat="40.752616" lon=".576511"><ele>18.826</ele><time>2026-04-17T10:19:11Z</time></trkpt><trkpt lat="40.752618" lon=".576573"><ele>19.214</ele><time>2026-04-17T10:19:12Z</time></trkpt><trkpt lat="40.752622" lon=".576695"><ele>19.622</ele><time>2026-04-17T10:19:14Z</time></trkpt><trkpt lat="40.752655" lon=".576886"><ele>20.062</ele><time>2026-04-17T10:19:17Z</time></trkpt><trkpt lat="40.752663" lon=".576952"><ele>20.008</ele><time>2026-04-17T10:19:18Z</time></trkpt><trkpt lat="40.752668" lon=".577016"><ele>20.009</ele><time>2026-04-17T10:19:19Z</time></trkpt><trkpt lat="40.752677" lon=".577083"><ele>20.224</ele><time>2026-04-17T10:19:20Z</time></trkpt><trkpt lat="40.752688" lon=".577148"><ele>20.478</ele><time>2026-04-17T10:19:21Z</time></trkpt><trkpt lat="40.752698" lon=".577212"><ele>20.432</ele><time>2026-04-17T10:19:22Z</time></trkpt><trkpt lat="40.752709" lon=".577278"><ele>20.855</ele><time>2026-04-17T10:19:23Z</time></trkpt><trkpt lat="40.752721" lon=".577346"><ele>21.046</ele><time>2026-04-17T10:19:24Z</time></trkpt><trkpt lat="40.752729" lon=".577412"><ele>21.232</ele><time>2026-04-17T10:19:25Z</time></trkpt><trkpt lat="40.752739" lon=".57748"><ele>21.493</ele><time>2026-04-17T10:19:26Z</time></trkpt><trkpt lat="40.752749" lon=".57755"><ele>21.681</ele><time>2026-04-17T10:19:27Z</time></trkpt><trkpt lat="40.752759" lon=".57762"><ele>22.069</ele><time>2026-04-17T10:19:28Z</time></trkpt><trkpt lat="40.752771" lon=".577692"><ele>22.024</ele><time>2026-04-17T10:19:29Z</time></trkpt><trkpt lat="40.752786" lon=".57776"><ele>22.204</ele><time>2026-04-17T10:19:30Z</time></trkpt><trkpt lat="40.752807" lon=".577822"><ele>22.414</ele><time>2026-04-17T10:19:31Z</time></trkpt><trkpt lat="40.752831" lon=".577884"><ele>22.409</ele><time>2026-04-17T10:19:32Z</time></trkpt><trkpt lat="40.752855" lon=".577943"><ele>22.484</ele><time>2026-04-17T10:19:33Z</time></trkpt><trkpt lat="40.752878" lon=".578002"><ele>22.668</ele><time>2026-04-17T10:19:34Z</time></trkpt><trkpt lat="40.752902" lon=".578061"><ele>22.682</ele><time>2026-04-17T10:19:35Z</time></trkpt><trkpt lat="40.752924" lon=".578119"><ele>22.675</ele><time>2026-04-17T10:19:36Z</time></trkpt><trkpt lat="40.752947" lon=".578177"><ele>23.026</ele><time>2026-04-17T10:19:37Z</time></trkpt><trkpt lat="40.752971" lon=".578235"><ele>23.252</ele><time>2026-04-17T10:19:38Z</time></trkpt><trkpt lat="40.752994" lon=".578294"><ele>23.283</ele><time>2026-04-17T10:19:39Z</time></trkpt><trkpt lat="40.753016" lon=".578355"><ele>23.241</ele><time>2026-04-17T10:19:40Z</time></trkpt><trkpt lat="40.75304" lon=".578416"><ele>23.229</ele><time>2026-04-17T10:19:41Z</time></trkpt><trkpt lat="40.753063" lon=".578476"><ele>23.277</ele><time>2026-04-17T10:19:42Z</time></trkpt><trkpt lat="40.753083" lon=".578541"><ele>23.261</ele><time>2026-04-17T10:19:43Z</time></trkpt><trkpt lat="40.7531" lon=".578614"><ele>23.227</ele><time>2026-04-17T10:19:44Z</time></trkpt><trkpt lat="40.753117" lon=".578693"><ele>23.209</ele><time>2026-04-17T10:19:45Z</time></trkpt><trkpt lat="40.753136" lon=".578776"><ele>23.099</ele><time>2026-04-17T10:19:46Z</time></trkpt><trkpt lat="40.753156" lon=".578862"><ele>22.893</ele><time>2026-04-17T10:19:47Z</time></trkpt><trkpt lat="40.753173" lon=".578954"><ele>22.257</ele><time>2026-04-17T10:19:48Z</time></trkpt><trkpt lat="40.753184" lon=".57906"><ele>21.820</ele><time>2026-04-17T10:19:49Z</time></trkpt><trkpt lat="40.753188" lon=".579167"><ele>20.461</ele><time>2026-04-17T10:19:50Z</time></trkpt><trkpt lat="40.753196" lon=".579373"><ele>19.067</ele><time>2026-04-17T10:19:52Z</time></trkpt><trkpt lat="40.7532" lon=".579468"><ele>17.878</ele><time>2026-04-17T10:19:53Z</time></trkpt><trkpt lat="40.753204" lon=".579558"><ele>17.666</ele><time>2026-04-17T10:19:54Z</time></trkpt><trkpt lat="40.753207" lon=".579646"><ele>17.064</ele><time>2026-04-17T10:19:55Z</time></trkpt><trkpt lat="40.753205" lon=".579732"><ele>16.864</ele><time>2026-04-17T10:19:56Z</time></trkpt><trkpt lat="40.753189" lon=".579815"><ele>16.606</ele><time>2026-04-17T10:19:57Z</time></trkpt><trkpt lat="40.753156" lon=".579886"><ele>16.616</ele><time>2026-04-17T10:19:58Z</time></trkpt><trkpt lat="40.753111" lon=".579941"><ele>16.609</ele><time>2026-04-17T10:19:59Z</time></trkpt><trkpt lat="40.753057" lon=".579973"><ele>16.698</ele><time>2026-04-17T10:20:00Z</time></trkpt><trkpt lat="40.752997" lon=".579975"><ele>16.612</ele><time>2026-04-17T10:20:01Z</time></trkpt><trkpt lat="40.752937" lon=".579956"><ele>16.466</ele><time>2026-04-17T10:20:02Z</time></trkpt><trkpt lat="40.752876" lon=".579929"><ele>16.499</ele><time>2026-04-17T10:20:03Z</time></trkpt><trkpt lat="40.752754" lon=".579879"><ele>16.230</ele><time>2026-04-17T10:20:05Z</time></trkpt><trkpt lat="40.752574" lon=".579798"><ele>15.856</ele><time>2026-04-17T10:20:08Z</time></trkpt><trkpt lat="40.752299" lon=".579685"><ele>15.417</ele><time>2026-04-17T10:20:13Z</time></trkpt><trkpt lat="40.752193" lon=".57963"><ele>15.615</ele><time>2026-04-17T10:20:15Z</time></trkpt><trkpt lat="40.752142" lon=".579601"><ele>15.643</ele><time>2026-04-17T10:20:16Z</time></trkpt><trkpt lat="40.752089" lon=".579572"><ele>15.621</ele><time>2026-04-17T10:20:17Z</time></trkpt><trkpt lat="40.752037" lon=".579545"><ele>15.641</ele><time>2026-04-17T10:20:18Z</time></trkpt><trkpt lat="40.751987" lon=".579516"><ele>15.605</ele><time>2026-04-17T10:20:19Z</time></trkpt><trkpt lat="40.751939" lon=".579478"><ele>15.609</ele><time>2026-04-17T10:20:20Z</time></trkpt><trkpt lat="40.751899" lon=".579431"><ele>15.614</ele><time>2026-04-17T10:20:21Z</time></trkpt><trkpt lat="40.751827" lon=".579318"><ele>15.428</ele><time>2026-04-17T10:20:23Z</time></trkpt><trkpt lat="40.751793" lon=".579261"><ele>15.442</ele><time>2026-04-17T10:20:24Z</time></trkpt><trkpt lat="40.75176" lon=".579201"><ele>15.485</ele><time>2026-04-17T10:20:25Z</time></trkpt><trkpt lat="40.751705" lon=".579073"><ele>15.046</ele><time>2026-04-17T10:20:27Z</time></trkpt><trkpt lat="40.751683" lon=".57894"><ele>14.892</ele><time>2026-04-17T10:20:29Z</time></trkpt><trkpt lat="40.751668" lon=".578893"><ele>14.623</ele><time>2026-04-17T10:20:30Z</time></trkpt><trkpt lat="40.751649" lon=".578871"><ele>14.641</ele><time>2026-04-17T10:20:31Z</time></trkpt><trkpt lat="40.751627" lon=".578864"><ele>14.689</ele><time>2026-04-17T10:20:32Z</time></trkpt><trkpt lat="40.751599" lon=".578869"><ele>14.687</ele><time>2026-04-17T10:20:33Z</time></trkpt><trkpt lat="40.751565" lon=".578881"><ele>14.842</ele><time>2026-04-17T10:20:34Z</time></trkpt><trkpt lat="40.751538" lon=".578891"><ele>14.826</ele><time>2026-04-17T10:20:35Z</time></trkpt><trkpt lat="40.751499" lon=".578838"><ele>14.809</ele><time>2026-04-17T10:20:37Z</time></trkpt><trkpt lat="40.75147" lon=".578731"><ele>14.660</ele><time>2026-04-17T10:20:39Z</time></trkpt><trkpt lat="40.75142" lon=".57861"><ele>14.614</ele><time>2026-04-17T10:20:41Z</time></trkpt><trkpt lat="40.75128" lon=".578208"><ele>14.058</ele><time>2026-04-17T10:20:47Z</time></trkpt><trkpt lat="40.751256" lon=".578136"><ele>13.831</ele><time>2026-04-17T10:20:48Z</time></trkpt><trkpt lat="40.751208" lon=".577993"><ele>13.412</ele><time>2026-04-17T10:20:50Z</time></trkpt><trkpt lat="40.751064" lon=".577598"><ele>13.628</ele><time>2026-04-17T10:20:56Z</time></trkpt><trkpt lat="40.751021" lon=".577543"><ele>13.619</ele><time>2026-04-17T10:20:57Z</time></trkpt><trkpt lat="40.750978" lon=".577517"><ele>13.847</ele><time>2026-04-17T10:20:58Z</time></trkpt><trkpt lat="40.750933" lon=".577503"><ele>14.075</ele><time>2026-04-17T10:20:59Z</time></trkpt><trkpt lat="40.75089" lon=".577495"><ele>14.297</ele><time>2026-04-17T10:21:00Z</time></trkpt><trkpt lat="40.750849" lon=".577483"><ele>14.223</ele><time>2026-04-17T10:21:01Z</time></trkpt><trkpt lat="40.750809" lon=".577467"><ele>14.425</ele><time>2026-04-17T10:21:02Z</time></trkpt><trkpt lat="40.750773" lon=".577456"><ele>14.609</ele><time>2026-04-17T10:21:03Z</time></trkpt><trkpt lat="40.75074" lon=".577445"><ele>14.691</ele><time>2026-04-17T10:21:04Z</time></trkpt><trkpt lat="40.750707" lon=".577435"><ele>15.045</ele><time>2026-04-17T10:21:05Z</time></trkpt><trkpt lat="40.750674" lon=".577427"><ele>15.229</ele><time>2026-04-17T10:21:06Z</time></trkpt><trkpt lat="40.75064" lon=".577425"><ele>15.252</ele><time>2026-04-17T10:21:07Z</time></trkpt><trkpt lat="40.750527" lon=".577427"><ele>16.013</ele><time>2026-04-17T10:21:10Z</time></trkpt><trkpt lat="40.750486" lon=".577434"><ele>16.619</ele><time>2026-04-17T10:21:11Z</time></trkpt><trkpt lat="40.750383" lon=".577476"><ele>17.030</ele><time>2026-04-17T10:21:14Z</time></trkpt><trkpt lat="40.750313" lon=".577537"><ele>17.218</ele><time>2026-04-17T10:21:16Z</time></trkpt><trkpt lat="40.750283" lon=".577572"><ele>17.496</ele><time>2026-04-17T10:21:17Z</time></trkpt><trkpt lat="40.750259" lon=".577613"><ele>17.418</ele><time>2026-04-17T10:21:18Z</time></trkpt><trkpt lat="40.750237" lon=".577659"><ele>17.898</ele><time>2026-04-17T10:21:19Z</time></trkpt><trkpt lat="40.750225" lon=".577695"><ele>18.417</ele><time>2026-04-17T10:21:20Z</time></trkpt><trkpt lat="40.750212" lon=".577741"><ele>18.409</ele><time>2026-04-17T10:21:21Z</time></trkpt><trkpt lat="40.750197" lon=".577799"><ele>18.653</ele><time>2026-04-17T10:21:22Z</time></trkpt><trkpt lat="40.750186" lon=".577849"><ele>18.817</ele><time>2026-04-17T10:21:23Z</time></trkpt><trkpt lat="40.750181" lon=".577899"><ele>19.261</ele><time>2026-04-17T10:21:24Z</time></trkpt><trkpt lat="40.750183" lon=".57794"><ele>19.694</ele><time>2026-04-17T10:21:25Z</time></trkpt><trkpt lat="40.750193" lon=".57799"><ele>19.885</ele><time>2026-04-17T10:21:26Z</time></trkpt><trkpt lat="40.750212" lon=".578042"><ele>20.091</ele><time>2026-04-17T10:21:27Z</time></trkpt><trkpt lat="40.750234" lon=".578083"><ele>20.492</ele><time>2026-04-17T10:21:28Z</time></trkpt><trkpt lat="40.750258" lon=".578122"><ele>20.690</ele><time>2026-04-17T10:21:29Z</time></trkpt><trkpt lat="40.750278" lon=".578153"><ele>20.688</ele><time>2026-04-17T10:21:30Z</time></trkpt><trkpt lat="40.750303" lon=".578196"><ele>21.045</ele><time>2026-04-17T10:21:31Z</time></trkpt><trkpt lat="40.750331" lon=".578247"><ele>21.247</ele><time>2026-04-17T10:21:32Z</time></trkpt><trkpt lat="40.750352" lon=".578288"><ele>21.611</ele><time>2026-04-17T10:21:33Z</time></trkpt><trkpt lat="40.750373" lon=".578329"><ele>22.009</ele><time>2026-04-17T10:21:34Z</time></trkpt><trkpt lat="40.750397" lon=".57837"><ele>22.436</ele><time>2026-04-17T10:21:35Z</time></trkpt><trkpt lat="40.750418" lon=".578403"><ele>22.870</ele><time>2026-04-17T10:21:36Z</time></trkpt><trkpt lat="40.750447" lon=".578451"><ele>22.814</ele><time>2026-04-17T10:21:37Z</time></trkpt><trkpt lat="40.750467" lon=".578491"><ele>23.217</ele><time>2026-04-17T10:21:38Z</time></trkpt><trkpt lat="40.750485" lon=".578532"><ele>23.698</ele><time>2026-04-17T10:21:39Z</time></trkpt><trkpt lat="40.750503" lon=".578573"><ele>24.294</ele><time>2026-04-17T10:21:40Z</time></trkpt><trkpt lat="40.750517" lon=".578603"><ele>24.835</ele><time>2026-04-17T10:21:41Z</time></trkpt><trkpt lat="40.750536" lon=".578647"><ele>25.643</ele><time>2026-04-17T10:21:42Z</time></trkpt><trkpt lat="40.750554" lon=".578685"><ele>26.441</ele><time>2026-04-17T10:21:43Z</time></trkpt><trkpt lat="40.750575" lon=".578726"><ele>27.057</ele><time>2026-04-17T10:21:44Z</time></trkpt><trkpt lat="40.750594" lon=".578768"><ele>27.400</ele><time>2026-04-17T10:21:45Z</time></trkpt><trkpt lat="40.750611" lon=".578801"><ele>27.620</ele><time>2026-04-17T10:21:46Z</time></trkpt><trkpt lat="40.75063" lon=".578842"><ele>28.009</ele><time>2026-04-17T10:21:47Z</time></trkpt><trkpt lat="40.750651" lon=".578893"><ele>28.237</ele><time>2026-04-17T10:21:48Z</time></trkpt><trkpt lat="40.750667" lon=".578937"><ele>28.441</ele><time>2026-04-17T10:21:49Z</time></trkpt><trkpt lat="40.750684" lon=".578979"><ele>29.065</ele><time>2026-04-17T10:21:50Z</time></trkpt><trkpt lat="40.750697" lon=".579013"><ele>29.258</ele><time>2026-04-17T10:21:51Z</time></trkpt><trkpt lat="40.750713" lon=".579057"><ele>30.299</ele><time>2026-04-17T10:21:52Z</time></trkpt><trkpt lat="40.750729" lon=".579109"><ele>30.825</ele><time>2026-04-17T10:21:53Z</time></trkpt><trkpt lat="40.750741" lon=".579154"><ele>31.446</ele><time>2026-04-17T10:21:54Z</time></trkpt><trkpt lat="40.750753" lon=".579198"><ele>32.064</ele><time>2026-04-17T10:21:55Z</time></trkpt><trkpt lat="40.75076" lon=".579244"><ele>32.832</ele><time>2026-04-17T10:21:56Z</time></trkpt><trkpt lat="40.750763" lon=".579279"><ele>33.043</ele><time>2026-04-17T10:21:57Z</time></trkpt><trkpt lat="40.750766" lon=".57933"><ele>33.464</ele><time>2026-04-17T10:21:58Z</time></trkpt><trkpt lat="40.750766" lon=".579364"><ele>34.010</ele><time>2026-04-17T10:21:59Z</time></trkpt><trkpt lat="40.750764" lon=".579414"><ele>34.209</ele><time>2026-04-17T10:22:00Z</time></trkpt><trkpt lat="40.750762" lon=".579454"><ele>34.656</ele><time>2026-04-17T10:22:01Z</time></trkpt><trkpt lat="40.75076" lon=".579494"><ele>34.890</ele><time>2026-04-17T10:22:02Z</time></trkpt><trkpt lat="40.750757" lon=".579534"><ele>35.014</ele><time>2026-04-17T10:22:03Z</time></trkpt><trkpt lat="40.750753" lon=".579574"><ele>35.497</ele><time>2026-04-17T10:22:04Z</time></trkpt><trkpt lat="40.750749" lon=".579614"><ele>35.678</ele><time>2026-04-17T10:22:05Z</time></trkpt><trkpt lat="40.750744" lon=".579656"><ele>36.074</ele><time>2026-04-17T10:22:06Z</time></trkpt><trkpt lat="40.75074" lon=".579699"><ele>36.295</ele><time>2026-04-17T10:22:07Z</time></trkpt><trkpt lat="40.750734" lon=".579742"><ele>36.413</ele><time>2026-04-17T10:22:08Z</time></trkpt><trkpt lat="40.750727" lon=".579785"><ele>36.691</ele><time>2026-04-17T10:22:09Z</time></trkpt><trkpt lat="40.750718" lon=".579827"><ele>36.816</ele><time>2026-04-17T10:22:10Z</time></trkpt><trkpt lat="40.75071" lon=".579869"><ele>37.076</ele><time>2026-04-17T10:22:11Z</time></trkpt><trkpt lat="40.750703" lon=".579908"><ele>37.213</ele><time>2026-04-17T10:22:12Z</time></trkpt><trkpt lat="40.750694" lon=".579948"><ele>37.409</ele><time>2026-04-17T10:22:13Z</time></trkpt><trkpt lat="40.750686" lon=".579987"><ele>37.423</ele><time>2026-04-17T10:22:14Z</time></trkpt><trkpt lat="40.750675" lon=".580026"><ele>37.857</ele><time>2026-04-17T10:22:15Z</time></trkpt><trkpt lat="40.750662" lon=".580066"><ele>37.671</ele><time>2026-04-17T10:22:16Z</time></trkpt><trkpt lat="40.750648" lon=".580114"><ele>37.674</ele><time>2026-04-17T10:22:17Z</time></trkpt><trkpt lat="40.750637" lon=".580165"><ele>37.665</ele><time>2026-04-17T10:22:18Z</time></trkpt><trkpt lat="40.750629" lon=".580219"><ele>37.661</ele><time>2026-04-17T10:22:19Z</time></trkpt><trkpt lat="40.750621" lon=".580274"><ele>37.632</ele><time>2026-04-17T10:22:20Z</time></trkpt><trkpt lat="40.750615" lon=".58033"><ele>37.450</ele><time>2026-04-17T10:22:21Z</time></trkpt><trkpt lat="40.750611" lon=".580384"><ele>37.418</ele><time>2026-04-17T10:22:22Z</time></trkpt><trkpt lat="40.750611" lon=".580435"><ele>37.478</ele><time>2026-04-17T10:22:23Z</time></trkpt><trkpt lat="40.750612" lon=".580484"><ele>37.433</ele><time>2026-04-17T10:22:24Z</time></trkpt><trkpt lat="40.750614" lon=".58053"><ele>37.426</ele><time>2026-04-17T10:22:25Z</time></trkpt><trkpt lat="40.750615" lon=".580576"><ele>37.409</ele><time>2026-04-17T10:22:26Z</time></trkpt><trkpt lat="40.750618" lon=".580623"><ele>37.499</ele><time>2026-04-17T10:22:27Z</time></trkpt><trkpt lat="40.750618" lon=".58067"><ele>37.673</ele><time>2026-04-17T10:22:28Z</time></trkpt><trkpt lat="40.750618" lon=".580718"><ele>37.657</ele><time>2026-04-17T10:22:29Z</time></trkpt><trkpt lat="40.750619" lon=".580762"><ele>37.830</ele><time>2026-04-17T10:22:30Z</time></trkpt><trkpt lat="40.750621" lon=".580805"><ele>37.851</ele><time>2026-04-17T10:22:31Z</time></trkpt><trkpt lat="40.750622" lon=".580846"><ele>38.027</ele><time>2026-04-17T10:22:32Z</time></trkpt><trkpt lat="40.750623" lon=".580887"><ele>38.468</ele><time>2026-04-17T10:22:33Z</time></trkpt><trkpt lat="40.750625" lon=".580926"><ele>38.476</ele><time>2026-04-17T10:22:34Z</time></trkpt><trkpt lat="40.750631" lon=".580964"><ele>38.674</ele><time>2026-04-17T10:22:35Z</time></trkpt><trkpt lat="40.750644" lon=".580995"><ele>38.811</ele><time>2026-04-17T10:22:36Z</time></trkpt><trkpt lat="40.750666" lon=".581021"><ele>39.021</ele><time>2026-04-17T10:22:37Z</time></trkpt><trkpt lat="40.750691" lon=".58104"><ele>39.403</ele><time>2026-04-17T10:22:38Z</time></trkpt><trkpt lat="40.750718" lon=".58106"><ele>39.609</ele><time>2026-04-17T10:22:39Z</time></trkpt><trkpt lat="40.750747" lon=".581084"><ele>40.043</ele><time>2026-04-17T10:22:40Z</time></trkpt><trkpt lat="40.750774" lon=".58111"><ele>40.237</ele><time>2026-04-17T10:22:41Z</time></trkpt><trkpt lat="40.750791" lon=".581149"><ele>40.431</ele><time>2026-04-17T10:22:42Z</time></trkpt><trkpt lat="40.750795" lon=".581197"><ele>40.614</ele><time>2026-04-17T10:22:43Z</time></trkpt><trkpt lat="40.750794" lon=".581247"><ele>40.815</ele><time>2026-04-17T10:22:44Z</time></trkpt><trkpt lat="40.750801" lon=".581294"><ele>40.861</ele><time>2026-04-17T10:22:45Z</time></trkpt><trkpt lat="40.750823" lon=".581336"><ele>40.852</ele><time>2026-04-17T10:22:46Z</time></trkpt><trkpt lat="40.750856" lon=".581371"><ele>40.890</ele><time>2026-04-17T10:22:47Z</time></trkpt><trkpt lat="40.750894" lon=".581403"><ele>40.878</ele><time>2026-04-17T10:22:48Z</time></trkpt><trkpt lat="40.750935" lon=".581441"><ele>40.458</ele><time>2026-04-17T10:22:49Z</time></trkpt><trkpt lat="40.750976" lon=".581489"><ele>40.452</ele><time>2026-04-17T10:22:50Z</time></trkpt><trkpt lat="40.751017" lon=".581535"><ele>40.217</ele><time>2026-04-17T10:22:51Z</time></trkpt><trkpt lat="40.751062" lon=".581573"><ele>40.009</ele><time>2026-04-17T10:22:52Z</time></trkpt><trkpt lat="40.75111" lon=".581604"><ele>39.827</ele><time>2026-04-17T10:22:53Z</time></trkpt><trkpt lat="40.751162" lon=".581641"><ele>39.641</ele><time>2026-04-17T10:22:54Z</time></trkpt><trkpt lat="40.75121" lon=".581682"><ele>39.625</ele><time>2026-04-17T10:22:55Z</time></trkpt><trkpt lat="40.751248" lon=".581719"><ele>39.478</ele><time>2026-04-17T10:22:56Z</time></trkpt><trkpt lat="40.751275" lon=".581756"><ele>39.439</ele><time>2026-04-17T10:22:57Z</time></trkpt><trkpt lat="40.751296" lon=".581792"><ele>39.265</ele><time>2026-04-17T10:22:58Z</time></trkpt><trkpt lat="40.751316" lon=".581826"><ele>39.416</ele><time>2026-04-17T10:22:59Z</time></trkpt><trkpt lat="40.751338" lon=".581858"><ele>39.454</ele><time>2026-04-17T10:23:00Z</time></trkpt><trkpt lat="40.751364" lon=".581891"><ele>39.452</ele><time>2026-04-17T10:23:01Z</time></trkpt><trkpt lat="40.751392" lon=".581928"><ele>39.452</ele><time>2026-04-17T10:23:02Z</time></trkpt><trkpt lat="40.751476" lon=".582059"><ele>39.453</ele><time>2026-04-17T10:23:05Z</time></trkpt><trkpt lat="40.75149" lon=".582165"><ele>39.208</ele><time>2026-04-17T10:23:07Z</time></trkpt><trkpt lat="40.751472" lon=".582207"><ele>39.209</ele><time>2026-04-17T10:23:08Z</time></trkpt><trkpt lat="40.751444" lon=".582244"><ele>39.277</ele><time>2026-04-17T10:23:09Z</time></trkpt><trkpt lat="40.751412" lon=".582276"><ele>39.251</ele><time>2026-04-17T10:23:10Z</time></trkpt><trkpt lat="40.751315" lon=".582378"><ele>39.075</ele><time>2026-04-17T10:23:13Z</time></trkpt><trkpt lat="40.751287" lon=".582414"><ele>39.018</ele><time>2026-04-17T10:23:14Z</time></trkpt><trkpt lat="40.751259" lon=".58245"><ele>39.029</ele><time>2026-04-17T10:23:15Z</time></trkpt><trkpt lat="40.751181" lon=".582551"><ele>39.645</ele><time>2026-04-17T10:23:18Z</time></trkpt><trkpt lat="40.751152" lon=".58258"><ele>40.286</ele><time>2026-04-17T10:23:19Z</time></trkpt><trkpt lat="40.75112" lon=".582599"><ele>40.454</ele><time>2026-04-17T10:23:20Z</time></trkpt><trkpt lat="40.751086" lon=".582607"><ele>40.622</ele><time>2026-04-17T10:23:21Z</time></trkpt><trkpt lat="40.751047" lon=".582602"><ele>40.625</ele><time>2026-04-17T10:23:22Z</time></trkpt><trkpt lat="40.751011" lon=".582592"><ele>41.026</ele><time>2026-04-17T10:23:23Z</time></trkpt><trkpt lat="40.750977" lon=".58259"><ele>41.408</ele><time>2026-04-17T10:23:24Z</time></trkpt><trkpt lat="40.750954" lon=".582606"><ele>41.809</ele><time>2026-04-17T10:23:25Z</time></trkpt><trkpt lat="40.750943" lon=".582636"><ele>42.064</ele><time>2026-04-17T10:23:26Z</time></trkpt><trkpt lat="40.75094" lon=".582675"><ele>43.098</ele><time>2026-04-17T10:23:27Z</time></trkpt><trkpt lat="40.750939" lon=".58272"><ele>43.682</ele><time>2026-04-17T10:23:28Z</time></trkpt><trkpt lat="40.750935" lon=".582817"><ele>44.625</ele><time>2026-04-17T10:23:30Z</time></trkpt><trkpt lat="40.750931" lon=".582864"><ele>44.886</ele><time>2026-04-17T10:23:31Z</time></trkpt><trkpt lat="40.750928" lon=".582911"><ele>45.432</ele><time>2026-04-17T10:23:32Z</time></trkpt><trkpt lat="40.750924" lon=".582956"><ele>45.673</ele><time>2026-04-17T10:23:33Z</time></trkpt><trkpt lat="40.750921" lon=".583001"><ele>46.241</ele><time>2026-04-17T10:23:34Z</time></trkpt><trkpt lat="40.750918" lon=".583048"><ele>46.669</ele><time>2026-04-17T10:23:35Z</time></trkpt><trkpt lat="40.750912" lon=".583093"><ele>46.872</ele><time>2026-04-17T10:23:36Z</time></trkpt><trkpt lat="40.7509" lon=".583137"><ele>47.413</ele><time>2026-04-17T10:23:37Z</time></trkpt><trkpt lat="40.750883" lon=".583177"><ele>47.614</ele><time>2026-04-17T10:23:38Z</time></trkpt><trkpt lat="40.750862" lon=".583211"><ele>48.009</ele><time>2026-04-17T10:23:39Z</time></trkpt><trkpt lat="40.750837" lon=".583233"><ele>48.459</ele><time>2026-04-17T10:23:40Z</time></trkpt><trkpt lat="40.750805" lon=".583237"><ele>49.093</ele><time>2026-04-17T10:23:41Z</time></trkpt><trkpt lat="40.75077" lon=".583222"><ele>49.497</ele><time>2026-04-17T10:23:42Z</time></trkpt><trkpt lat="40.750736" lon=".583196"><ele>50.440</ele><time>2026-04-17T10:23:43Z</time></trkpt><trkpt lat="40.750703" lon=".583171"><ele>51.071</ele><time>2026-04-17T10:23:44Z</time></trkpt><trkpt lat="40.750666" lon=".58315"><ele>51.227</ele><time>2026-04-17T10:23:45Z</time></trkpt><trkpt lat="40.750629" lon=".583127"><ele>51.498</ele><time>2026-04-17T10:23:46Z</time></trkpt><trkpt lat="40.750599" lon=".583099"><ele>51.686</ele><time>2026-04-17T10:23:47Z</time></trkpt><trkpt lat="40.750569" lon=".58307"><ele>51.454</ele><time>2026-04-17T10:23:48Z</time></trkpt><trkpt lat="40.750536" lon=".583049"><ele>51.429</ele><time>2026-04-17T10:23:49Z</time></trkpt><trkpt lat="40.750503" lon=".583038"><ele>51.600</ele><time>2026-04-17T10:23:50Z</time></trkpt><trkpt lat="40.75047" lon=".58303"><ele>51.820</ele><time>2026-04-17T10:23:51Z</time></trkpt><trkpt lat="40.750437" lon=".583026"><ele>51.809</ele><time>2026-04-17T10:23:52Z</time></trkpt><trkpt lat="40.750405" lon=".583025"><ele>52.064</ele><time>2026-04-17T10:23:53Z</time></trkpt><trkpt lat="40.750372" lon=".583021"><ele>52.058</ele><time>2026-04-17T10:23:54Z</time></trkpt><trkpt lat="40.750335" lon=".583021"><ele>52.482</ele><time>2026-04-17T10:23:55Z</time></trkpt><trkpt lat="40.750298" lon=".583024"><ele>52.485</ele><time>2026-04-17T10:23:56Z</time></trkpt><trkpt lat="40.75026" lon=".583028"><ele>52.646</ele><time>2026-04-17T10:23:57Z</time></trkpt><trkpt lat="40.750221" lon=".583038"><ele>52.642</ele><time>2026-04-17T10:23:58Z</time></trkpt><trkpt lat="40.750181" lon=".583049"><ele>52.423</ele><time>2026-04-17T10:23:59Z</time></trkpt><trkpt lat="40.750139" lon=".583065"><ele>52.481</ele><time>2026-04-17T10:24:00Z</time></trkpt><trkpt lat="40.7501" lon=".583086"><ele>52.419</ele><time>2026-04-17T10:24:01Z</time></trkpt><trkpt lat="40.750064" lon=".583109"><ele>52.496</ele><time>2026-04-17T10:24:02Z</time></trkpt><trkpt lat="40.750028" lon=".583129"><ele>52.431</ele><time>2026-04-17T10:24:03Z</time></trkpt><trkpt lat="40.749995" lon=".583143"><ele>52.624</ele><time>2026-04-17T10:24:04Z</time></trkpt><trkpt lat="40.749961" lon=".583159"><ele>52.609</ele><time>2026-04-17T10:24:05Z</time></trkpt><trkpt lat="40.749925" lon=".58317"><ele>52.691</ele><time>2026-04-17T10:24:06Z</time></trkpt><trkpt lat="40.749886" lon=".583178"><ele>52.855</ele><time>2026-04-17T10:24:07Z</time></trkpt><trkpt lat="40.749845" lon=".583182"><ele>53.059</ele><time>2026-04-17T10:24:08Z</time></trkpt><trkpt lat="40.749803" lon=".583186"><ele>53.092</ele><time>2026-04-17T10:24:09Z</time></trkpt><trkpt lat="40.749759" lon=".583193"><ele>53.263</ele><time>2026-04-17T10:24:10Z</time></trkpt><trkpt lat="40.749717" lon=".583207"><ele>53.229</ele><time>2026-04-17T10:24:11Z</time></trkpt><trkpt lat="40.749679" lon=".583228"><ele>53.650</ele><time>2026-04-17T10:24:12Z</time></trkpt><trkpt lat="40.749648" lon=".583261"><ele>53.658</ele><time>2026-04-17T10:24:13Z</time></trkpt><trkpt lat="40.749623" lon=".583295"><ele>53.616</ele><time>2026-04-17T10:24:14Z</time></trkpt><trkpt lat="40.749604" lon=".583328"><ele>53.684</ele><time>2026-04-17T10:24:15Z</time></trkpt><trkpt lat="40.749591" lon=".583363"><ele>54.007</ele><time>2026-04-17T10:24:16Z</time></trkpt><trkpt lat="40.749576" lon=".583403"><ele>54.017</ele><time>2026-04-17T10:24:17Z</time></trkpt><trkpt lat="40.749558" lon=".583442"><ele>54.209</ele><time>2026-04-17T10:24:18Z</time></trkpt><trkpt lat="40.749536" lon=".583476"><ele>54.430</ele><time>2026-04-17T10:24:19Z</time></trkpt><trkpt lat="40.749507" lon=".583499"><ele>54.874</ele><time>2026-04-17T10:24:20Z</time></trkpt><trkpt lat="40.749473" lon=".58351"><ele>55.228</ele><time>2026-04-17T10:24:21Z</time></trkpt><trkpt lat="40.749436" lon=".58351"><ele>55.481</ele><time>2026-04-17T10:24:22Z</time></trkpt><trkpt lat="40.749399" lon=".583504"><ele>55.842</ele><time>2026-04-17T10:24:23Z</time></trkpt><trkpt lat="40.749359" lon=".583497"><ele>55.858</ele><time>2026-04-17T10:24:24Z</time></trkpt><trkpt lat="40.74932" lon=".583485"><ele>56.449</ele><time>2026-04-17T10:24:25Z</time></trkpt><trkpt lat="40.749281" lon=".583465"><ele>56.417</ele><time>2026-04-17T10:24:26Z</time></trkpt><trkpt lat="40.74924" lon=".583435"><ele>56.675</ele><time>2026-04-17T10:24:27Z</time></trkpt><trkpt lat="40.749201" lon=".5834"><ele>56.676</ele><time>2026-04-17T10:24:28Z</time></trkpt><trkpt lat="40.749159" lon=".583363"><ele>56.690</ele><time>2026-04-17T10:24:29Z</time></trkpt><trkpt lat="40.749113" lon=".583322"><ele>56.619</ele><time>2026-04-17T10:24:30Z</time></trkpt><trkpt lat="40.749066" lon=".58328"><ele>56.609</ele><time>2026-04-17T10:24:31Z</time></trkpt><trkpt lat="40.749018" lon=".583243"><ele>56.279</ele><time>2026-04-17T10:24:32Z</time></trkpt><trkpt lat="40.748972" lon=".583214"><ele>56.233</ele><time>2026-04-17T10:24:33Z</time></trkpt><trkpt lat="40.748925" lon=".583185"><ele>55.627</ele><time>2026-04-17T10:24:34Z</time></trkpt><trkpt lat="40.748874" lon=".583151"><ele>55.430</ele><time>2026-04-17T10:24:35Z</time></trkpt><trkpt lat="40.748823" lon=".583117"><ele>55.061</ele><time>2026-04-17T10:24:36Z</time></trkpt><trkpt lat="40.748769" lon=".58308"><ele>54.877</ele><time>2026-04-17T10:24:37Z</time></trkpt><trkpt lat="40.748714" lon=".583043"><ele>54.458</ele><time>2026-04-17T10:24:38Z</time></trkpt><trkpt lat="40.748656" lon=".583007"><ele>54.286</ele><time>2026-04-17T10:24:39Z</time></trkpt><trkpt lat="40.748598" lon=".582977"><ele>54.024</ele><time>2026-04-17T10:24:40Z</time></trkpt><trkpt lat="40.748416" lon=".582904"><ele>53.054</ele><time>2026-04-17T10:24:43Z</time></trkpt><trkpt lat="40.748357" lon=".582898"><ele>52.856</ele><time>2026-04-17T10:24:44Z</time></trkpt><trkpt lat="40.748254" lon=".582946"><ele>52.611</ele><time>2026-04-17T10:24:46Z</time></trkpt><trkpt lat="40.748218" lon=".582989"><ele>52.209</ele><time>2026-04-17T10:24:47Z</time></trkpt><trkpt lat="40.748193" lon=".583041"><ele>52.067</ele><time>2026-04-17T10:24:48Z</time></trkpt><trkpt lat="40.74817" lon=".583097"><ele>52.051</ele><time>2026-04-17T10:24:49Z</time></trkpt><trkpt lat="40.748142" lon=".58315"><ele>51.895</ele><time>2026-04-17T10:24:50Z</time></trkpt><trkpt lat="40.748109" lon=".583199"><ele>51.288</ele><time>2026-04-17T10:24:51Z</time></trkpt><trkpt lat="40.74807" lon=".583249"><ele>50.639</ele><time>2026-04-17T10:24:52Z</time></trkpt><trkpt lat="40.747991" lon=".583359"><ele>49.855</ele><time>2026-04-17T10:24:54Z</time></trkpt><trkpt lat="40.74796" lon=".583426"><ele>49.696</ele><time>2026-04-17T10:24:55Z</time></trkpt><trkpt lat="40.74794" lon=".583502"><ele>49.454</ele><time>2026-04-17T10:24:56Z</time></trkpt><trkpt lat="40.747926" lon=".583577"><ele>49.022</ele><time>2026-04-17T10:24:57Z</time></trkpt><trkpt lat="40.74792" lon=".583652"><ele>49.077</ele><time>2026-04-17T10:24:58Z</time></trkpt><trkpt lat="40.747924" lon=".583731"><ele>48.261</ele><time>2026-04-17T10:24:59Z</time></trkpt><trkpt lat="40.747941" lon=".583801"><ele>48.027</ele><time>2026-04-17T10:25:00Z</time></trkpt><trkpt lat="40.747973" lon=".583855"><ele>47.809</ele><time>2026-04-17T10:25:01Z</time></trkpt><trkpt lat="40.748012" lon=".583893"><ele>47.869</ele><time>2026-04-17T10:25:02Z</time></trkpt><trkpt lat="40.748054" lon=".583923"><ele>47.653</ele><time>2026-04-17T10:25:03Z</time></trkpt><trkpt lat="40.748093" lon=".583952"><ele>47.697</ele><time>2026-04-17T10:25:04Z</time></trkpt><trkpt lat="40.748131" lon=".583979"><ele>47.650</ele><time>2026-04-17T10:25:05Z</time></trkpt><trkpt lat="40.748167" lon=".584006"><ele>47.681</ele><time>2026-04-17T10:25:06Z</time></trkpt><trkpt lat="40.748203" lon=".584032"><ele>47.657</ele><time>2026-04-17T10:25:07Z</time></trkpt><trkpt lat="40.748237" lon=".584058"><ele>47.828</ele><time>2026-04-17T10:25:08Z</time></trkpt><trkpt lat="40.748303" lon=".584107"><ele>48.426</ele><time>2026-04-17T10:25:10Z</time></trkpt><trkpt lat="40.748336" lon=".584135"><ele>49.084</ele><time>2026-04-17T10:25:11Z</time></trkpt><trkpt lat="40.748368" lon=".584159"><ele>49.223</ele><time>2026-04-17T10:25:12Z</time></trkpt><trkpt lat="40.748398" lon=".584179"><ele>49.683</ele><time>2026-04-17T10:25:13Z</time></trkpt><trkpt lat="40.748428" lon=".584199"><ele>49.811</ele><time>2026-04-17T10:25:14Z</time></trkpt><trkpt lat="40.748456" lon=".584217"><ele>50.409</ele><time>2026-04-17T10:25:15Z</time></trkpt><trkpt lat="40.748479" lon=".584232"><ele>50.444</ele><time>2026-04-17T10:25:16Z</time></trkpt><trkpt lat="40.74851" lon=".58426"><ele>50.668</ele><time>2026-04-17T10:25:17Z</time></trkpt><trkpt lat="40.748536" lon=".584288"><ele>50.852</ele><time>2026-04-17T10:25:18Z</time></trkpt><trkpt lat="40.748562" lon=".584315"><ele>51.265</ele><time>2026-04-17T10:25:19Z</time></trkpt><trkpt lat="40.748587" lon=".584342"><ele>51.616</ele><time>2026-04-17T10:25:20Z</time></trkpt><trkpt lat="40.74861" lon=".584372"><ele>51.622</ele><time>2026-04-17T10:25:21Z</time></trkpt><trkpt lat="40.748632" lon=".584401"><ele>51.693</ele><time>2026-04-17T10:25:22Z</time></trkpt><trkpt lat="40.748655" lon=".58443"><ele>52.011</ele><time>2026-04-17T10:25:23Z</time></trkpt><trkpt lat="40.748703" lon=".584486"><ele>52.649</ele><time>2026-04-17T10:25:25Z</time></trkpt><trkpt lat="40.748749" lon=".584549"><ele>53.249</ele><time>2026-04-17T10:25:27Z</time></trkpt><trkpt lat="40.74877" lon=".584579"><ele>53.402</ele><time>2026-04-17T10:25:28Z</time></trkpt><trkpt lat="40.748794" lon=".584611"><ele>53.822</ele><time>2026-04-17T10:25:29Z</time></trkpt><trkpt lat="40.748814" lon=".584644"><ele>53.809</ele><time>2026-04-17T10:25:30Z</time></trkpt><trkpt lat="40.748837" lon=".584676"><ele>54.236</ele><time>2026-04-17T10:25:31Z</time></trkpt><trkpt lat="40.748859" lon=".584707"><ele>54.220</ele><time>2026-04-17T10:25:32Z</time></trkpt><trkpt lat="40.748881" lon=".584737"><ele>54.484</ele><time>2026-04-17T10:25:33Z</time></trkpt><trkpt lat="40.748905" lon=".584767"><ele>54.617</ele><time>2026-04-17T10:25:34Z</time></trkpt><trkpt lat="40.74893" lon=".584794"><ele>55.288</ele><time>2026-04-17T10:25:35Z</time></trkpt><trkpt lat="40.748957" lon=".58482"><ele>55.464</ele><time>2026-04-17T10:25:36Z</time></trkpt><trkpt lat="40.748983" lon=".584848"><ele>55.695</ele><time>2026-04-17T10:25:37Z</time></trkpt><trkpt lat="40.749008" lon=".584878"><ele>55.823</ele><time>2026-04-17T10:25:38Z</time></trkpt><trkpt lat="40.749033" lon=".584907"><ele>56.051</ele><time>2026-04-17T10:25:39Z</time></trkpt><trkpt lat="40.74906" lon=".584933"><ele>56.428</ele><time>2026-04-17T10:25:40Z</time></trkpt><trkpt lat="40.749088" lon=".584957"><ele>56.489</ele><time>2026-04-17T10:25:41Z</time></trkpt><trkpt lat="40.749116" lon=".584979"><ele>57.017</ele><time>2026-04-17T10:25:42Z</time></trkpt><trkpt lat="40.749144" lon=".585002"><ele>57.409</ele><time>2026-04-17T10:25:43Z</time></trkpt><trkpt lat="40.749171" lon=".585023"><ele>57.634</ele><time>2026-04-17T10:25:44Z</time></trkpt><trkpt lat="40.749201" lon=".585043"><ele>57.868</ele><time>2026-04-17T10:25:45Z</time></trkpt><trkpt lat="40.749231" lon=".585062"><ele>57.852</ele><time>2026-04-17T10:25:46Z</time></trkpt><trkpt lat="40.74926" lon=".585085"><ele>58.035</ele><time>2026-04-17T10:25:47Z</time></trkpt><trkpt lat="40.749291" lon=".585106"><ele>58.256</ele><time>2026-04-17T10:25:48Z</time></trkpt><trkpt lat="40.749322" lon=".585125"><ele>58.622</ele><time>2026-04-17T10:25:49Z</time></trkpt><trkpt lat="40.749355" lon=".585141"><ele>58.813</ele><time>2026-04-17T10:25:50Z</time></trkpt><trkpt lat="40.749388" lon=".585164"><ele>59.281</ele><time>2026-04-17T10:25:51Z</time></trkpt><trkpt lat="40.749419" lon=".585191"><ele>59.699</ele><time>2026-04-17T10:25:52Z</time></trkpt><trkpt lat="40.749447" lon=".585223"><ele>59.876</ele><time>2026-04-17T10:25:53Z</time></trkpt><trkpt lat="40.749472" lon=".585258"><ele>60.090</ele><time>2026-04-17T10:25:54Z</time></trkpt><trkpt lat="40.749493" lon=".585296"><ele>60.419</ele><time>2026-04-17T10:25:55Z</time></trkpt><trkpt lat="40.74951" lon=".585335"><ele>60.609</ele><time>2026-04-17T10:25:56Z</time></trkpt><trkpt lat="40.749531" lon=".585372"><ele>60.879</ele><time>2026-04-17T10:25:57Z</time></trkpt><trkpt lat="40.749555" lon=".585408"><ele>61.233</ele><time>2026-04-17T10:25:58Z</time></trkpt><trkpt lat="40.749579" lon=".585441"><ele>61.477</ele><time>2026-04-17T10:25:59Z</time></trkpt><trkpt lat="40.749602" lon=".585477"><ele>61.660</ele><time>2026-04-17T10:26:00Z</time></trkpt><trkpt lat="40.749623" lon=".585511"><ele>61.881</ele><time>2026-04-17T10:26:01Z</time></trkpt><trkpt lat="40.749644" lon=".585545"><ele>62.067</ele><time>2026-04-17T10:26:02Z</time></trkpt><trkpt lat="40.749663" lon=".585582"><ele>62.658</ele><time>2026-04-17T10:26:03Z</time></trkpt><trkpt lat="40.749683" lon=".58562"><ele>62.886</ele><time>2026-04-17T10:26:04Z</time></trkpt><trkpt lat="40.749702" lon=".58566"><ele>63.274</ele><time>2026-04-17T10:26:05Z</time></trkpt><trkpt lat="40.749718" lon=".585704"><ele>63.427</ele><time>2026-04-17T10:26:06Z</time></trkpt><trkpt lat="40.749735" lon=".585751"><ele>63.668</ele><time>2026-04-17T10:26:07Z</time></trkpt><trkpt lat="40.749757" lon=".585796"><ele>63.614</ele><time>2026-04-17T10:26:08Z</time></trkpt><trkpt lat="40.74978" lon=".585841"><ele>63.809</ele><time>2026-04-17T10:26:09Z</time></trkpt><trkpt lat="40.749805" lon=".585887"><ele>64.484</ele><time>2026-04-17T10:26:10Z</time></trkpt><trkpt lat="40.749832" lon=".585936"><ele>64.678</ele><time>2026-04-17T10:26:11Z</time></trkpt><trkpt lat="40.74986" lon=".585987"><ele>64.872</ele><time>2026-04-17T10:26:12Z</time></trkpt><trkpt lat="40.749888" lon=".586039"><ele>64.855</ele><time>2026-04-17T10:26:13Z</time></trkpt><trkpt lat="40.749911" lon=".586088"><ele>65.016</ele><time>2026-04-17T10:26:14Z</time></trkpt><trkpt lat="40.749932" lon=".586133"><ele>65.072</ele><time>2026-04-17T10:26:15Z</time></trkpt><trkpt lat="40.749954" lon=".586179"><ele>65.423</ele><time>2026-04-17T10:26:16Z</time></trkpt><trkpt lat="40.749977" lon=".586223"><ele>65.891</ele><time>2026-04-17T10:26:17Z</time></trkpt><trkpt lat="40.749998" lon=".586264"><ele>65.899</ele><time>2026-04-17T10:26:18Z</time></trkpt><trkpt lat="40.750016" lon=".586307"><ele>66.228</ele><time>2026-04-17T10:26:19Z</time></trkpt><trkpt lat="40.750031" lon=".586348"><ele>66.489</ele><time>2026-04-17T10:26:20Z</time></trkpt><trkpt lat="40.750045" lon=".58639"><ele>67.017</ele><time>2026-04-17T10:26:21Z</time></trkpt><trkpt lat="40.750057" lon=".586432"><ele>67.209</ele><time>2026-04-17T10:26:22Z</time></trkpt><trkpt lat="40.750069" lon=".58648"><ele>67.674</ele><time>2026-04-17T10:26:23Z</time></trkpt><trkpt lat="40.750077" lon=".586533"><ele>67.838</ele><time>2026-04-17T10:26:24Z</time></trkpt><trkpt lat="40.750087" lon=".586594"><ele>67.892</ele><time>2026-04-17T10:26:25Z</time></trkpt><trkpt lat="40.750098" lon=".586654"><ele>67.865</ele><time>2026-04-17T10:26:26Z</time></trkpt><trkpt lat="40.750111" lon=".586704"><ele>67.616</ele><time>2026-04-17T10:26:27Z</time></trkpt><trkpt lat="40.750116" lon=".586745"><ele>67.632</ele><time>2026-04-17T10:26:28Z</time></trkpt><trkpt lat="40.750115" lon=".586776"><ele>67.613</ele><time>2026-04-17T10:26:29Z</time></trkpt><trkpt lat="40.750105" lon=".586797"><ele>67.621</ele><time>2026-04-17T10:26:30Z</time></trkpt><trkpt lat="40.750091" lon=".586811"><ele>67.639</ele><time>2026-04-17T10:26:31Z</time></trkpt><trkpt lat="40.750073" lon=".586824"><ele>67.637</ele><time>2026-04-17T10:26:32Z</time></trkpt><trkpt lat="40.750058" lon=".586831"><ele>67.449</ele><time>2026-04-17T10:26:33Z</time></trkpt><trkpt lat="40.750039" lon=".58683"><ele>67.413</ele><time>2026-04-17T10:26:34Z</time></trkpt><trkpt lat="40.750019" lon=".586824"><ele>67.409</ele><time>2026-04-17T10:26:35Z</time></trkpt><trkpt lat="40.75" lon=".586818"><ele>67.665</ele><time>2026-04-17T10:26:36Z</time></trkpt><trkpt lat="40.749982" lon=".586804"><ele>67.819</ele><time>2026-04-17T10:26:37Z</time></trkpt><trkpt lat="40.749967" lon=".586786"><ele>68.063</ele><time>2026-04-17T10:26:38Z</time></trkpt><trkpt lat="40.749948" lon=".586774"><ele>68.216</ele><time>2026-04-17T10:26:39Z</time></trkpt><trkpt lat="40.749928" lon=".586763"><ele>68.627</ele><time>2026-04-17T10:26:40Z</time></trkpt><trkpt lat="40.749907" lon=".58676"><ele>69.023</ele><time>2026-04-17T10:26:41Z</time></trkpt><trkpt lat="40.749888" lon=".586758"><ele>69.684</ele><time>2026-04-17T10:26:42Z</time></trkpt><trkpt lat="40.749869" lon=".586751"><ele>69.852</ele><time>2026-04-17T10:26:43Z</time></trkpt><trkpt lat="40.749853" lon=".586738"><ele>70.280</ele><time>2026-04-17T10:26:44Z</time></trkpt><trkpt lat="40.74984" lon=".586722"><ele>70.223</ele><time>2026-04-17T10:26:45Z</time></trkpt><trkpt lat="40.749826" lon=".586707"><ele>70.683</ele><time>2026-04-17T10:26:46Z</time></trkpt><trkpt lat="40.749808" lon=".5867"><ele>70.811</ele><time>2026-04-17T10:26:47Z</time></trkpt><trkpt lat="40.74979" lon=".586704"><ele>71.609</ele><time>2026-04-17T10:26:48Z</time></trkpt><trkpt lat="40.749777" lon=".586715"><ele>72.414</ele><time>2026-04-17T10:26:49Z</time></trkpt><trkpt lat="40.74977" lon=".586734"><ele>72.648</ele><time>2026-04-17T10:26:50Z</time></trkpt><trkpt lat="40.749759" lon=".586752"><ele>73.252</ele><time>2026-04-17T10:26:51Z</time></trkpt><trkpt lat="40.749748" lon=".586769"><ele>73.255</ele><time>2026-04-17T10:26:52Z</time></trkpt><trkpt lat="40.749739" lon=".586783"><ele>73.426</ele><time>2026-04-17T10:26:53Z</time></trkpt><trkpt lat="40.74973" lon=".586796"><ele>73.652</ele><time>2026-04-17T10:26:54Z</time></trkpt><trkpt lat="40.74972" lon=".58681"><ele>74.033</ele><time>2026-04-17T10:26:55Z</time></trkpt><trkpt lat="40.749705" lon=".586819"><ele>74.471</ele><time>2026-04-17T10:26:56Z</time></trkpt><trkpt lat="40.749688" lon=".586822"><ele>74.419</ele><time>2026-04-17T10:26:57Z</time></trkpt><trkpt lat="40.749671" lon=".586823"><ele>74.639</ele><time>2026-04-17T10:26:58Z</time></trkpt><trkpt lat="40.749654" lon=".586821"><ele>74.801</ele><time>2026-04-17T10:26:59Z</time></trkpt><trkpt lat="40.749635" lon=".586818"><ele>75.021</ele><time>2026-04-17T10:27:00Z</time></trkpt><trkpt lat="40.749617" lon=".586823"><ele>75.009</ele><time>2026-04-17T10:27:01Z</time></trkpt><trkpt lat="40.749603" lon=".586835"><ele>75.295</ele><time>2026-04-17T10:27:02Z</time></trkpt><trkpt lat="40.749587" lon=".58685"><ele>75.299</ele><time>2026-04-17T10:27:03Z</time></trkpt><trkpt lat="40.749568" lon=".586862"><ele>75.293</ele><time>2026-04-17T10:27:04Z</time></trkpt><trkpt lat="40.749548" lon=".586874"><ele>75.436</ele><time>2026-04-17T10:27:05Z</time></trkpt><trkpt lat="40.749529" lon=".586892"><ele>75.617</ele><time>2026-04-17T10:27:06Z</time></trkpt><trkpt lat="40.749505" lon=".58691"><ele>75.683</ele><time>2026-04-17T10:27:07Z</time></trkpt><trkpt lat="40.749478" lon=".586921"><ele>75.874</ele><time>2026-04-17T10:27:08Z</time></trkpt><trkpt lat="40.74945" lon=".586936"><ele>75.812</ele><time>2026-04-17T10:27:09Z</time></trkpt><trkpt lat="40.749426" lon=".586961"><ele>75.850</ele><time>2026-04-17T10:27:10Z</time></trkpt><trkpt lat="40.749401" lon=".586988"><ele>75.865</ele><time>2026-04-17T10:27:11Z</time></trkpt><trkpt lat="40.749371" lon=".587005"><ele>75.668</ele><time>2026-04-17T10:27:12Z</time></trkpt><trkpt lat="40.749343" lon=".587017"><ele>75.614</ele><time>2026-04-17T10:27:13Z</time></trkpt><trkpt lat="40.749318" lon=".587029"><ele>75.809</ele><time>2026-04-17T10:27:14Z</time></trkpt><trkpt lat="40.749292" lon=".587046"><ele>75.828</ele><time>2026-04-17T10:27:15Z</time></trkpt><trkpt lat="40.749264" lon=".587067"><ele>75.872</ele><time>2026-04-17T10:27:16Z</time></trkpt><trkpt lat="40.749237" lon=".587081"><ele>75.866</ele><time>2026-04-17T10:27:17Z</time></trkpt><trkpt lat="40.749209" lon=".587087"><ele>76.019</ele><time>2026-04-17T10:27:18Z</time></trkpt><trkpt lat="40.749182" lon=".587085"><ele>76.240</ele><time>2026-04-17T10:27:19Z</time></trkpt><trkpt lat="40.749159" lon=".587087"><ele>76.476</ele><time>2026-04-17T10:27:20Z</time></trkpt><trkpt lat="40.749149" lon=".587106"><ele>76.487</ele><time>2026-04-17T10:27:21Z</time></trkpt><trkpt lat="40.749152" lon=".587132"><ele>76.415</ele><time>2026-04-17T10:27:22Z</time></trkpt><trkpt lat="40.749159" lon=".587165"><ele>76.443</ele><time>2026-04-17T10:27:23Z</time></trkpt><trkpt lat="40.74916" lon=".5872"><ele>76.691</ele><time>2026-04-17T10:27:24Z</time></trkpt><trkpt lat="40.749146" lon=".587228"><ele>76.681</ele><time>2026-04-17T10:27:25Z</time></trkpt><trkpt lat="40.749126" lon=".58725"><ele>76.419</ele><time>2026-04-17T10:27:26Z</time></trkpt><trkpt lat="40.749104" lon=".587276"><ele>76.409</ele><time>2026-04-17T10:27:27Z</time></trkpt><trkpt lat="40.749038" lon=".587391"><ele>76.071</ele><time>2026-04-17T10:27:30Z</time></trkpt><trkpt lat="40.749002" lon=".587426"><ele>76.035</ele><time>2026-04-17T10:27:31Z</time></trkpt><trkpt lat="40.748913" lon=".587446"><ele>75.849</ele><time>2026-04-17T10:27:33Z</time></trkpt><trkpt lat="40.748864" lon=".587429"><ele>75.642</ele><time>2026-04-17T10:27:34Z</time></trkpt><trkpt lat="40.748818" lon=".58742"><ele>75.423</ele><time>2026-04-17T10:27:35Z</time></trkpt><trkpt lat="40.748739" lon=".587468"><ele>74.429</ele><time>2026-04-17T10:27:37Z</time></trkpt><trkpt lat="40.7487" lon=".58749"><ele>74.270</ele><time>2026-04-17T10:27:38Z</time></trkpt><trkpt lat="40.748658" lon=".587493"><ele>73.658</ele><time>2026-04-17T10:27:39Z</time></trkpt><trkpt lat="40.748619" lon=".587473"><ele>73.416</ele><time>2026-04-17T10:27:40Z</time></trkpt><trkpt lat="40.748582" lon=".587446"><ele>73.048</ele><time>2026-04-17T10:27:41Z</time></trkpt><trkpt lat="40.748541" lon=".587437"><ele>72.861</ele><time>2026-04-17T10:27:42Z</time></trkpt><trkpt lat="40.748502" lon=".587437"><ele>72.617</ele><time>2026-04-17T10:27:43Z</time></trkpt><trkpt lat="40.748462" lon=".58744"><ele>72.009</ele><time>2026-04-17T10:27:44Z</time></trkpt><trkpt lat="40.748421" lon=".587446"><ele>71.686</ele><time>2026-04-17T10:27:45Z</time></trkpt><trkpt lat="40.748381" lon=".587442"><ele>71.470</ele><time>2026-04-17T10:27:46Z</time></trkpt><trkpt lat="40.748346" lon=".587434"><ele>71.234</ele><time>2026-04-17T10:27:47Z</time></trkpt><trkpt lat="40.748313" lon=".587437"><ele>71.027</ele><time>2026-04-17T10:27:48Z</time></trkpt><trkpt lat="40.74828" lon=".587448"><ele>71.098</ele><time>2026-04-17T10:27:49Z</time></trkpt><trkpt lat="40.748245" lon=".587465"><ele>71.074</ele><time>2026-04-17T10:27:50Z</time></trkpt><trkpt lat="40.748208" lon=".587486"><ele>71.075</ele><time>2026-04-17T10:27:51Z</time></trkpt><trkpt lat="40.748184" lon=".587519"><ele>71.223</ele><time>2026-04-17T10:27:52Z</time></trkpt><trkpt lat="40.748164" lon=".587562"><ele>71.221</ele><time>2026-04-17T10:27:53Z</time></trkpt><trkpt lat="40.748133" lon=".587607"><ele>71.035</ele><time>2026-04-17T10:27:54Z</time></trkpt><trkpt lat="40.748093" lon=".587646"><ele>70.886</ele><time>2026-04-17T10:27:55Z</time></trkpt><trkpt lat="40.74805" lon=".58767"><ele>70.814</ele><time>2026-04-17T10:27:56Z</time></trkpt><trkpt lat="40.747982" lon=".587651"><ele>70.409</ele><time>2026-04-17T10:27:58Z</time></trkpt><trkpt lat="40.747965" lon=".587617"><ele>70.485</ele><time>2026-04-17T10:27:59Z</time></trkpt><trkpt lat="40.747957" lon=".58758"><ele>70.429</ele><time>2026-04-17T10:28:00Z</time></trkpt><trkpt lat="40.747944" lon=".587544"><ele>70.613</ele><time>2026-04-17T10:28:01Z</time></trkpt><trkpt lat="40.747927" lon=".587515"><ele>70.476</ele><time>2026-04-17T10:28:02Z</time></trkpt><trkpt lat="40.747915" lon=".587483"><ele>70.267</ele><time>2026-04-17T10:28:03Z</time></trkpt><trkpt lat="40.747907" lon=".587411"><ele>70.443</ele><time>2026-04-17T10:28:05Z</time></trkpt><trkpt lat="40.747895" lon=".587376"><ele>70.894</ele><time>2026-04-17T10:28:06Z</time></trkpt><trkpt lat="40.747882" lon=".58734"><ele>71.032</ele><time>2026-04-17T10:28:07Z</time></trkpt><trkpt lat="40.747869" lon=".58731"><ele>71.650</ele><time>2026-04-17T10:28:08Z</time></trkpt><trkpt lat="40.747852" lon=".587283"><ele>72.061</ele><time>2026-04-17T10:28:09Z</time></trkpt><trkpt lat="40.747833" lon=".587256"><ele>72.221</ele><time>2026-04-17T10:28:10Z</time></trkpt><trkpt lat="40.747811" lon=".587233"><ele>72.413</ele><time>2026-04-17T10:28:11Z</time></trkpt><trkpt lat="40.747785" lon=".587215"><ele>72.609</ele><time>2026-04-17T10:28:12Z</time></trkpt><trkpt lat="40.747756" lon=".587202"><ele>73.268</ele><time>2026-04-17T10:28:13Z</time></trkpt><trkpt lat="40.747726" lon=".587195"><ele>73.422</ele><time>2026-04-17T10:28:14Z</time></trkpt><trkpt lat="40.747696" lon=".587187"><ele>73.836</ele><time>2026-04-17T10:28:15Z</time></trkpt><trkpt lat="40.747665" lon=".58718"><ele>74.219</ele><time>2026-04-17T10:28:16Z</time></trkpt><trkpt lat="40.747562" lon=".587164"><ele>74.640</ele><time>2026-04-17T10:28:19Z</time></trkpt><trkpt lat="40.747529" lon=".587141"><ele>74.836</ele><time>2026-04-17T10:28:20Z</time></trkpt><trkpt lat="40.747501" lon=".587109"><ele>74.837</ele><time>2026-04-17T10:28:21Z</time></trkpt><trkpt lat="40.747471" lon=".587078"><ele>74.895</ele><time>2026-04-17T10:28:22Z</time></trkpt><trkpt lat="40.747433" lon=".587054"><ele>74.813</ele><time>2026-04-17T10:28:23Z</time></trkpt><trkpt lat="40.747388" lon=".587042"><ele>74.869</ele><time>2026-04-17T10:28:24Z</time></trkpt><trkpt lat="40.74734" lon=".587025"><ele>74.804</ele><time>2026-04-17T10:28:25Z</time></trkpt><trkpt lat="40.747293" lon=".587008"><ele>74.624</ele><time>2026-04-17T10:28:26Z</time></trkpt><trkpt lat="40.747241" lon=".586999"><ele>74.609</ele><time>2026-04-17T10:28:27Z</time></trkpt><trkpt lat="40.747188" lon=".586988"><ele>74.668</ele><time>2026-04-17T10:28:28Z</time></trkpt><trkpt lat="40.747135" lon=".586984"><ele>74.452</ele><time>2026-04-17T10:28:29Z</time></trkpt><trkpt lat="40.747081" lon=".586987"><ele>74.416</ele><time>2026-04-17T10:28:30Z</time></trkpt><trkpt lat="40.747032" lon=".586984"><ele>74.499</ele><time>2026-04-17T10:28:31Z</time></trkpt><trkpt lat="40.74699" lon=".586989"><ele>74.050</ele><time>2026-04-17T10:28:32Z</time></trkpt><trkpt lat="40.746954" lon=".587014"><ele>73.656</ele><time>2026-04-17T10:28:33Z</time></trkpt><trkpt lat="40.746918" lon=".587043"><ele>73.477</ele><time>2026-04-17T10:28:34Z</time></trkpt><trkpt lat="40.746882" lon=".587054"><ele>73.285</ele><time>2026-04-17T10:28:35Z</time></trkpt><trkpt lat="40.746854" lon=".587045"><ele>73.073</ele><time>2026-04-17T10:28:36Z</time></trkpt><trkpt lat="40.746831" lon=".587034"><ele>73.042</ele><time>2026-04-17T10:28:37Z</time></trkpt><trkpt lat="40.746803" lon=".587034"><ele>73.022</ele><time>2026-04-17T10:28:38Z</time></trkpt><trkpt lat="40.746768" lon=".58703"><ele>72.814</ele><time>2026-04-17T10:28:39Z</time></trkpt><trkpt lat="40.746732" lon=".587015"><ele>72.609</ele><time>2026-04-17T10:28:40Z</time></trkpt><trkpt lat="40.746701" lon=".586989"><ele>72.676</ele><time>2026-04-17T10:28:41Z</time></trkpt><trkpt lat="40.746665" lon=".586963"><ele>72.270</ele><time>2026-04-17T10:28:42Z</time></trkpt><trkpt lat="40.746625" lon=".586944"><ele>72.094</ele><time>2026-04-17T10:28:43Z</time></trkpt><trkpt lat="40.746591" lon=".586947"><ele>71.897</ele><time>2026-04-17T10:28:44Z</time></trkpt><trkpt lat="40.746567" lon=".586973"><ele>71.638</ele><time>2026-04-17T10:28:45Z</time></trkpt><trkpt lat="40.74654" lon=".587003"><ele>71.684</ele><time>2026-04-17T10:28:46Z</time></trkpt><trkpt lat="40.746504" lon=".587024"><ele>71.485</ele><time>2026-04-17T10:28:47Z</time></trkpt><trkpt lat="40.74647" lon=".587021"><ele>71.293</ele><time>2026-04-17T10:28:48Z</time></trkpt><trkpt lat="40.74641" lon=".586964"><ele>70.641</ele><time>2026-04-17T10:28:50Z</time></trkpt><trkpt lat="40.74633" lon=".586936"><ele>70.292</ele><time>2026-04-17T10:28:52Z</time></trkpt><trkpt lat="40.746282" lon=".586935"><ele>70.073</ele><time>2026-04-17T10:28:53Z</time></trkpt><trkpt lat="40.746235" lon=".586941"><ele>69.820</ele><time>2026-04-17T10:28:54Z</time></trkpt><trkpt lat="40.746194" lon=".586947"><ele>69.609</ele><time>2026-04-17T10:28:55Z</time></trkpt><trkpt lat="40.746165" lon=".58693"><ele>69.481</ele><time>2026-04-17T10:28:56Z</time></trkpt><trkpt lat="40.746139" lon=".586903"><ele>69.285</ele><time>2026-04-17T10:28:57Z</time></trkpt><trkpt lat="40.746099" lon=".586889"><ele>68.639</ele><time>2026-04-17T10:28:58Z</time></trkpt><trkpt lat="40.746055" lon=".586881"><ele>68.442</ele><time>2026-04-17T10:28:59Z</time></trkpt><trkpt lat="40.746008" lon=".586869"><ele>68.233</ele><time>2026-04-17T10:29:00Z</time></trkpt><trkpt lat="40.745957" lon=".586849"><ele>67.849</ele><time>2026-04-17T10:29:01Z</time></trkpt><trkpt lat="40.745911" lon=".586833"><ele>67.260</ele><time>2026-04-17T10:29:02Z</time></trkpt><trkpt lat="40.74584" lon=".586862"><ele>66.048</ele><time>2026-04-17T10:29:04Z</time></trkpt><trkpt lat="40.745799" lon=".586879"><ele>65.256</ele><time>2026-04-17T10:29:05Z</time></trkpt><trkpt lat="40.74576" lon=".586879"><ele>64.697</ele><time>2026-04-17T10:29:06Z</time></trkpt><trkpt lat="40.745733" lon=".586858"><ele>64.223</ele><time>2026-04-17T10:29:07Z</time></trkpt><trkpt lat="40.745709" lon=".586827"><ele>63.625</ele><time>2026-04-17T10:29:08Z</time></trkpt><trkpt lat="40.745674" lon=".586801"><ele>63.409</ele><time>2026-04-17T10:29:09Z</time></trkpt><trkpt lat="40.745637" lon=".586771"><ele>62.861</ele><time>2026-04-17T10:29:10Z</time></trkpt><trkpt lat="40.745603" lon=".586728"><ele>62.645</ele><time>2026-04-17T10:29:11Z</time></trkpt><trkpt lat="40.74558" lon=".586673"><ele>62.419</ele><time>2026-04-17T10:29:12Z</time></trkpt><trkpt lat="40.745568" lon=".586609"><ele>62.052</ele><time>2026-04-17T10:29:13Z</time></trkpt><trkpt lat="40.745557" lon=".586542"><ele>61.423</ele><time>2026-04-17T10:29:14Z</time></trkpt><trkpt lat="40.745546" lon=".586473"><ele>60.839</ele><time>2026-04-17T10:29:15Z</time></trkpt><trkpt lat="40.745531" lon=".586401"><ele>60.680</ele><time>2026-04-17T10:29:16Z</time></trkpt><trkpt lat="40.745491" lon=".586271"><ele>60.088</ele><time>2026-04-17T10:29:18Z</time></trkpt><trkpt lat="40.745464" lon=".586239"><ele>59.876</ele><time>2026-04-17T10:29:19Z</time></trkpt><trkpt lat="40.745437" lon=".586235"><ele>59.662</ele><time>2026-04-17T10:29:20Z</time></trkpt><trkpt lat="40.745408" lon=".586252"><ele>58.883</ele><time>2026-04-17T10:29:21Z</time></trkpt><trkpt lat="40.745374" lon=".586276"><ele>58.411</ele><time>2026-04-17T10:29:22Z</time></trkpt><trkpt lat="40.745338" lon=".586305"><ele>58.209</ele><time>2026-04-17T10:29:23Z</time></trkpt><trkpt lat="40.745268" lon=".586379"><ele>57.818</ele><time>2026-04-17T10:29:25Z</time></trkpt><trkpt lat="40.745229" lon=".586403"><ele>57.422</ele><time>2026-04-17T10:29:26Z</time></trkpt><trkpt lat="40.745193" lon=".586432"><ele>57.486</ele><time>2026-04-17T10:29:27Z</time></trkpt><trkpt lat="40.745134" lon=".586482"><ele>57.879</ele><time>2026-04-17T10:29:29Z</time></trkpt><trkpt lat="40.745113" lon=".586505"><ele>57.870</ele><time>2026-04-17T10:29:30Z</time></trkpt><trkpt lat="40.745099" lon=".586536"><ele>58.046</ele><time>2026-04-17T10:29:31Z</time></trkpt><trkpt lat="40.745077" lon=".586572"><ele>58.047</ele><time>2026-04-17T10:29:32Z</time></trkpt><trkpt lat="40.745" lon=".586655"><ele>58.685</ele><time>2026-04-17T10:29:35Z</time></trkpt><trkpt lat="40.744969" lon=".586665"><ele>58.893</ele><time>2026-04-17T10:29:36Z</time></trkpt><trkpt lat="40.744936" lon=".586673"><ele>59.011</ele><time>2026-04-17T10:29:37Z</time></trkpt><trkpt lat="40.744903" lon=".586684"><ele>59.221</ele><time>2026-04-17T10:29:38Z</time></trkpt><trkpt lat="40.744871" lon=".586699"><ele>59.403</ele><time>2026-04-17T10:29:39Z</time></trkpt><trkpt lat="40.744839" lon=".586707"><ele>59.809</ele><time>2026-04-17T10:29:40Z</time></trkpt><trkpt lat="40.744783" lon=".586699"><ele>60.013</ele><time>2026-04-17T10:29:42Z</time></trkpt><trkpt lat="40.744757" lon=".586686"><ele>60.017</ele><time>2026-04-17T10:29:43Z</time></trkpt><trkpt lat="40.744732" lon=".586666"><ele>60.221</ele><time>2026-04-17T10:29:44Z</time></trkpt><trkpt lat="40.744711" lon=".58665"><ele>60.414</ele><time>2026-04-17T10:29:45Z</time></trkpt><trkpt lat="40.744693" lon=".586638"><ele>60.695</ele><time>2026-04-17T10:29:46Z</time></trkpt><trkpt lat="40.744667" lon=".586638"><ele>61.241</ele><time>2026-04-17T10:29:47Z</time></trkpt><trkpt lat="40.744639" lon=".586652"><ele>61.442</ele><time>2026-04-17T10:29:48Z</time></trkpt><trkpt lat="40.74462" lon=".586673"><ele>62.090</ele><time>2026-04-17T10:29:49Z</time></trkpt><trkpt lat="40.744605" lon=".586697"><ele>62.498</ele><time>2026-04-17T10:29:50Z</time></trkpt><trkpt lat="40.744587" lon=".586709"><ele>62.869</ele><time>2026-04-17T10:29:51Z</time></trkpt><trkpt lat="40.744571" lon=".586723"><ele>63.204</ele><time>2026-04-17T10:29:52Z</time></trkpt><trkpt lat="40.744555" lon=".586742"><ele>63.624</ele><time>2026-04-17T10:29:53Z</time></trkpt><trkpt lat="40.744541" lon=".586765"><ele>63.809</ele><time>2026-04-17T10:29:54Z</time></trkpt><trkpt lat="40.744525" lon=".586787"><ele>64.088</ele><time>2026-04-17T10:29:55Z</time></trkpt><trkpt lat="40.744505" lon=".586806"><ele>64.262</ele><time>2026-04-17T10:29:56Z</time></trkpt><trkpt lat="40.744485" lon=".586824"><ele>64.426</ele><time>2026-04-17T10:29:57Z</time></trkpt><trkpt lat="40.744462" lon=".586843"><ele>64.869</ele><time>2026-04-17T10:29:58Z</time></trkpt><trkpt lat="40.744436" lon=".58686"><ele>65.070</ele><time>2026-04-17T10:29:59Z</time></trkpt><trkpt lat="40.744411" lon=".586877"><ele>65.886</ele><time>2026-04-17T10:30:00Z</time></trkpt><trkpt lat="40.744384" lon=".586889"><ele>66.277</ele><time>2026-04-17T10:30:01Z</time></trkpt><trkpt lat="40.74436" lon=".586892"><ele>67.015</ele><time>2026-04-17T10:30:02Z</time></trkpt><trkpt lat="40.744347" lon=".586889"><ele>67.613</ele><time>2026-04-17T10:30:03Z</time></trkpt><trkpt lat="40.744332" lon=".586882"><ele>67.675</ele><time>2026-04-17T10:30:04Z</time></trkpt><trkpt lat="40.744313" lon=".586883"><ele>68.228</ele><time>2026-04-17T10:30:05Z</time></trkpt><trkpt lat="40.7443" lon=".586891"><ele>68.420</ele><time>2026-04-17T10:30:06Z</time></trkpt><trkpt lat="40.744282" lon=".586898"><ele>68.609</ele><time>2026-04-17T10:30:07Z</time></trkpt><trkpt lat="40.744263" lon=".586893"><ele>68.859</ele><time>2026-04-17T10:30:08Z</time></trkpt><trkpt lat="40.744244" lon=".586883"><ele>69.023</ele><time>2026-04-17T10:30:09Z</time></trkpt><trkpt lat="40.744223" lon=".586876"><ele>69.297</ele><time>2026-04-17T10:30:10Z</time></trkpt><trkpt lat="40.744201" lon=".586869"><ele>69.260</ele><time>2026-04-17T10:30:11Z</time></trkpt><trkpt lat="40.744179" lon=".586862"><ele>70.051</ele><time>2026-04-17T10:30:12Z</time></trkpt><trkpt lat="40.744158" lon=".586854"><ele>70.427</ele><time>2026-04-17T10:30:13Z</time></trkpt><trkpt lat="40.744137" lon=".58685"><ele>71.068</ele><time>2026-04-17T10:30:14Z</time></trkpt><trkpt lat="40.744116" lon=".586849"><ele>71.456</ele><time>2026-04-17T10:30:15Z</time></trkpt><trkpt lat="40.744096" lon=".586851"><ele>71.634</ele><time>2026-04-17T10:30:16Z</time></trkpt><trkpt lat="40.744077" lon=".586846"><ele>71.861</ele><time>2026-04-17T10:30:17Z</time></trkpt><trkpt lat="40.744061" lon=".586831"><ele>72.021</ele><time>2026-04-17T10:30:18Z</time></trkpt><trkpt lat="40.744044" lon=".586819"><ele>72.213</ele><time>2026-04-17T10:30:19Z</time></trkpt><trkpt lat="40.744023" lon=".586813"><ele>72.209</ele><time>2026-04-17T10:30:20Z</time></trkpt><trkpt lat="40.744001" lon=".586814"><ele>72.688</ele><time>2026-04-17T10:30:21Z</time></trkpt><trkpt lat="40.743978" lon=".58682"><ele>72.612</ele><time>2026-04-17T10:30:22Z</time></trkpt><trkpt lat="40.743953" lon=".586824"><ele>72.836</ele><time>2026-04-17T10:30:23Z</time></trkpt><trkpt lat="40.743928" lon=".586823"><ele>73.079</ele><time>2026-04-17T10:30:24Z</time></trkpt><trkpt lat="40.743911" lon=".586809"><ele>73.280</ele><time>2026-04-17T10:30:25Z</time></trkpt><trkpt lat="40.7439" lon=".586787"><ele>73.656</ele><time>2026-04-17T10:30:26Z</time></trkpt><trkpt lat="40.743881" lon=".586774"><ele>73.687</ele><time>2026-04-17T10:30:27Z</time></trkpt><trkpt lat="40.743859" lon=".586776"><ele>73.865</ele><time>2026-04-17T10:30:28Z</time></trkpt><trkpt lat="40.743837" lon=".586787"><ele>73.823</ele><time>2026-04-17T10:30:29Z</time></trkpt><trkpt lat="40.743817" lon=".586804"><ele>74.058</ele><time>2026-04-17T10:30:30Z</time></trkpt><trkpt lat="40.743794" lon=".586823"><ele>74.052</ele><time>2026-04-17T10:30:31Z</time></trkpt><trkpt lat="40.743765" lon=".586839"><ele>74.017</ele><time>2026-04-17T10:30:32Z</time></trkpt><trkpt lat="40.743734" lon=".586847"><ele>74.009</ele><time>2026-04-17T10:30:33Z</time></trkpt><trkpt lat="40.743704" lon=".586853"><ele>74.047</ele><time>2026-04-17T10:30:34Z</time></trkpt><trkpt lat="40.743673" lon=".58686"><ele>74.081</ele><time>2026-04-17T10:30:35Z</time></trkpt><trkpt lat="40.74364" lon=".586872"><ele>74.075</ele><time>2026-04-17T10:30:36Z</time></trkpt><trkpt lat="40.743602" lon=".586887"><ele>74.068</ele><time>2026-04-17T10:30:37Z</time></trkpt><trkpt lat="40.743563" lon=".586891"><ele>74.049</ele><time>2026-04-17T10:30:38Z</time></trkpt><trkpt lat="40.743525" lon=".58689"><ele>74.095</ele><time>2026-04-17T10:30:39Z</time></trkpt><trkpt lat="40.74349" lon=".586894"><ele>74.056</ele><time>2026-04-17T10:30:40Z</time></trkpt><trkpt lat="40.74346" lon=".58691"><ele>73.824</ele><time>2026-04-17T10:30:41Z</time></trkpt><trkpt lat="40.743431" lon=".586939"><ele>73.662</ele><time>2026-04-17T10:30:42Z</time></trkpt><trkpt lat="40.743399" lon=".586961"><ele>73.693</ele><time>2026-04-17T10:30:43Z</time></trkpt><trkpt lat="40.743369" lon=".586967"><ele>73.665</ele><time>2026-04-17T10:30:44Z</time></trkpt><trkpt lat="40.743342" lon=".586962"><ele>73.421</ele><time>2026-04-17T10:30:45Z</time></trkpt><trkpt lat="40.743317" lon=".586951"><ele>73.209</ele><time>2026-04-17T10:30:46Z</time></trkpt><trkpt lat="40.743293" lon=".586935"><ele>73.241</ele><time>2026-04-17T10:30:47Z</time></trkpt><trkpt lat="40.743272" lon=".58691"><ele>73.025</ele><time>2026-04-17T10:30:48Z</time></trkpt><trkpt lat="40.743256" lon=".586877"><ele>72.849</ele><time>2026-04-17T10:30:49Z</time></trkpt><trkpt lat="40.743243" lon=".586844"><ele>72.862</ele><time>2026-04-17T10:30:50Z</time></trkpt><trkpt lat="40.743229" lon=".586812"><ele>72.693</ele><time>2026-04-17T10:30:51Z</time></trkpt><trkpt lat="40.743212" lon=".586782"><ele>72.619</ele><time>2026-04-17T10:30:52Z</time></trkpt><trkpt lat="40.743188" lon=".586755"><ele>72.410</ele><time>2026-04-17T10:30:53Z</time></trkpt><trkpt lat="40.743159" lon=".586734"><ele>72.698</ele><time>2026-04-17T10:30:54Z</time></trkpt><trkpt lat="40.743127" lon=".586712"><ele>72.846</ele><time>2026-04-17T10:30:55Z</time></trkpt><trkpt lat="40.743098" lon=".586691"><ele>72.854</ele><time>2026-04-17T10:30:56Z</time></trkpt><trkpt lat="40.743008" lon=".586603"><ele>73.456</ele><time>2026-04-17T10:31:00Z</time></trkpt><trkpt lat="40.742987" lon=".586581"><ele>73.411</ele><time>2026-04-17T10:31:01Z</time></trkpt><trkpt lat="40.742969" lon=".58656"><ele>73.409</ele><time>2026-04-17T10:31:02Z</time></trkpt><trkpt lat="40.742954" lon=".586539"><ele>73.617</ele><time>2026-04-17T10:31:03Z</time></trkpt><trkpt lat="40.742941" lon=".586512"><ele>74.011</ele><time>2026-04-17T10:31:04Z</time></trkpt><trkpt lat="40.742935" lon=".586481"><ele>74.035</ele><time>2026-04-17T10:31:05Z</time></trkpt><trkpt lat="40.742939" lon=".586453"><ele>74.448</ele><time>2026-04-17T10:31:06Z</time></trkpt><trkpt lat="40.742945" lon=".586429"><ele>74.699</ele><time>2026-04-17T10:31:07Z</time></trkpt><trkpt lat="40.742946" lon=".586407"><ele>74.835</ele><time>2026-04-17T10:31:08Z</time></trkpt><trkpt lat="40.742939" lon=".586384"><ele>75.696</ele><time>2026-04-17T10:31:09Z</time></trkpt><trkpt lat="40.742927" lon=".586363"><ele>76.064</ele><time>2026-04-17T10:31:10Z</time></trkpt><trkpt lat="40.742914" lon=".586337"><ele>76.892</ele><time>2026-04-17T10:31:11Z</time></trkpt><trkpt lat="40.742902" lon=".586306"><ele>77.078</ele><time>2026-04-17T10:31:12Z</time></trkpt><trkpt lat="40.742888" lon=".586274"><ele>77.833</ele><time>2026-04-17T10:31:13Z</time></trkpt><trkpt lat="40.74288" lon=".586244"><ele>78.026</ele><time>2026-04-17T10:31:14Z</time></trkpt><trkpt lat="40.742874" lon=".586215"><ele>78.409</ele><time>2026-04-17T10:31:15Z</time></trkpt><trkpt lat="40.742862" lon=".58619"><ele>78.669</ele><time>2026-04-17T10:31:16Z</time></trkpt><trkpt lat="40.742848" lon=".586161"><ele>78.883</ele><time>2026-04-17T10:31:17Z</time></trkpt><trkpt lat="40.742833" lon=".58613"><ele>79.037</ele><time>2026-04-17T10:31:18Z</time></trkpt><trkpt lat="40.742815" lon=".586102"><ele>79.060</ele><time>2026-04-17T10:31:19Z</time></trkpt><trkpt lat="40.742797" lon=".586076"><ele>79.231</ele><time>2026-04-17T10:31:20Z</time></trkpt><trkpt lat="40.742783" lon=".586047"><ele>79.427</ele><time>2026-04-17T10:31:21Z</time></trkpt><trkpt lat="40.742772" lon=".586019"><ele>79.878</ele><time>2026-04-17T10:31:22Z</time></trkpt><trkpt lat="40.742763" lon=".585992"><ele>80.046</ele><time>2026-04-17T10:31:23Z</time></trkpt><trkpt lat="40.742756" lon=".585964"><ele>80.034</ele><time>2026-04-17T10:31:24Z</time></trkpt><trkpt lat="40.742755" lon=".585935"><ele>80.238</ele><time>2026-04-17T10:31:25Z</time></trkpt><trkpt lat="40.742753" lon=".585908"><ele>80.470</ele><time>2026-04-17T10:31:26Z</time></trkpt><trkpt lat="40.742744" lon=".585889"><ele>80.817</ele><time>2026-04-17T10:31:27Z</time></trkpt><trkpt lat="40.742729" lon=".585873"><ele>81.209</ele><time>2026-04-17T10:31:28Z</time></trkpt><trkpt lat="40.742716" lon=".585851"><ele>81.635</ele><time>2026-04-17T10:31:29Z</time></trkpt><trkpt lat="40.742708" lon=".585821"><ele>81.849</ele><time>2026-04-17T10:31:30Z</time></trkpt><trkpt lat="40.742708" lon=".585791"><ele>82.493</ele><time>2026-04-17T10:31:31Z</time></trkpt><trkpt lat="40.742715" lon=".585763"><ele>83.056</ele><time>2026-04-17T10:31:32Z</time></trkpt><trkpt lat="40.742726" lon=".585744"><ele>83.047</ele><time>2026-04-17T10:31:33Z</time></trkpt><trkpt lat="40.742743" lon=".585738"><ele>83.473</ele><time>2026-04-17T10:31:34Z</time></trkpt><trkpt lat="40.742761" lon=".585749"><ele>83.644</ele><time>2026-04-17T10:31:35Z</time></trkpt><trkpt lat="40.742774" lon=".585767"><ele>83.852</ele><time>2026-04-17T10:31:36Z</time></trkpt><trkpt lat="40.742793" lon=".585794"><ele>84.030</ele><time>2026-04-17T10:31:37Z</time></trkpt><trkpt lat="40.742811" lon=".585813"><ele>84.249</ele><time>2026-04-17T10:31:38Z</time></trkpt><trkpt lat="40.742832" lon=".585829"><ele>84.402</ele><time>2026-04-17T10:31:39Z</time></trkpt><trkpt lat="40.742855" lon=".585842"><ele>84.422</ele><time>2026-04-17T10:31:40Z</time></trkpt><trkpt lat="40.742883" lon=".585853"><ele>84.409</ele><time>2026-04-17T10:31:41Z</time></trkpt><trkpt lat="40.742911" lon=".585865"><ele>84.456</ele><time>2026-04-17T10:31:42Z</time></trkpt><trkpt lat="40.742943" lon=".585879"><ele>84.420</ele><time>2026-04-17T10:31:43Z</time></trkpt><trkpt lat="40.742977" lon=".585885"><ele>84.454</ele><time>2026-04-17T10:31:44Z</time></trkpt><trkpt lat="40.743008" lon=".585891"><ele>84.297</ele><time>2026-04-17T10:31:45Z</time></trkpt><trkpt lat="40.74304" lon=".585903"><ele>84.058</ele><time>2026-04-17T10:31:46Z</time></trkpt><trkpt lat="40.743072" lon=".585919"><ele>83.864</ele><time>2026-04-17T10:31:47Z</time></trkpt><trkpt lat="40.743106" lon=".585937"><ele>83.895</ele><time>2026-04-17T10:31:48Z</time></trkpt><trkpt lat="40.743142" lon=".585955"><ele>83.663</ele><time>2026-04-17T10:31:49Z</time></trkpt><trkpt lat="40.743181" lon=".585973"><ele>83.421</ele><time>2026-04-17T10:31:50Z</time></trkpt><trkpt lat="40.743224" lon=".585993"><ele>83.298</ele><time>2026-04-17T10:31:51Z</time></trkpt><trkpt lat="40.743269" lon=".586011"><ele>83.215</ele><time>2026-04-17T10:31:52Z</time></trkpt><trkpt lat="40.743319" lon=".586025"><ele>83.226</ele><time>2026-04-17T10:31:53Z</time></trkpt><trkpt lat="40.743373" lon=".586031"><ele>83.009</ele><time>2026-04-17T10:31:54Z</time></trkpt><trkpt lat="40.743432" lon=".586034"><ele>83.081</ele><time>2026-04-17T10:31:55Z</time></trkpt><trkpt lat="40.743492" lon=".586035"><ele>82.875</ele><time>2026-04-17T10:31:56Z</time></trkpt><trkpt lat="40.743553" lon=".586034"><ele>82.269</ele><time>2026-04-17T10:31:57Z</time></trkpt><trkpt lat="40.743683" lon=".586034"><ele>81.682</ele><time>2026-04-17T10:31:59Z</time></trkpt><trkpt lat="40.743749" lon=".586038"><ele>81.483</ele><time>2026-04-17T10:32:00Z</time></trkpt><trkpt lat="40.743816" lon=".586034"><ele>80.419</ele><time>2026-04-17T10:32:01Z</time></trkpt><trkpt lat="40.744025" lon=".585988"><ele>78.410</ele><time>2026-04-17T10:32:04Z</time></trkpt><trkpt lat="40.744097" lon=".58597"><ele>78.058</ele><time>2026-04-17T10:32:05Z</time></trkpt><trkpt lat="40.744167" lon=".585948"><ele>77.036</ele><time>2026-04-17T10:32:06Z</time></trkpt><trkpt lat="40.744239" lon=".585927"><ele>76.886</ele><time>2026-04-17T10:32:07Z</time></trkpt><trkpt lat="40.744463" lon=".585877"><ele>75.260</ele><time>2026-04-17T10:32:10Z</time></trkpt><trkpt lat="40.744619" lon=".585849"><ele>73.026</ele><time>2026-04-17T10:32:12Z</time></trkpt><trkpt lat="40.744694" lon=".585824"><ele>72.009</ele><time>2026-04-17T10:32:13Z</time></trkpt><trkpt lat="40.744839" lon=".585757"><ele>69.860</ele><time>2026-04-17T10:32:15Z</time></trkpt><trkpt lat="40.744914" lon=".585724"><ele>68.834</ele><time>2026-04-17T10:32:16Z</time></trkpt><trkpt lat="40.744989" lon=".585693"><ele>67.628</ele><time>2026-04-17T10:32:17Z</time></trkpt><trkpt lat="40.745207" lon=".585588"><ele>66.661</ele><time>2026-04-17T10:32:20Z</time></trkpt><trkpt lat="40.745276" lon=".585553"><ele>66.492</ele><time>2026-04-17T10:32:21Z</time></trkpt><trkpt lat="40.745341" lon=".585511"><ele>66.088</ele><time>2026-04-17T10:32:22Z</time></trkpt><trkpt lat="40.745404" lon=".585454"><ele>65.659</ele><time>2026-04-17T10:32:23Z</time></trkpt><trkpt lat="40.745461" lon=".585383"><ele>65.447</ele><time>2026-04-17T10:32:24Z</time></trkpt><trkpt lat="40.74565" lon=".585063"><ele>64.275</ele><time>2026-04-17T10:32:28Z</time></trkpt><trkpt lat="40.745679" lon=".584977"><ele>63.412</ele><time>2026-04-17T10:32:29Z</time></trkpt><trkpt lat="40.745706" lon=".584883"><ele>63.032</ele><time>2026-04-17T10:32:30Z</time></trkpt><trkpt lat="40.745791" lon=".584712"><ele>62.005</ele><time>2026-04-17T10:32:32Z</time></trkpt><trkpt lat="40.745852" lon=".584625"><ele>61.609</ele><time>2026-04-17T10:32:33Z</time></trkpt><trkpt lat="40.745992" lon=".584434"><ele>61.213</ele><time>2026-04-17T10:32:35Z</time></trkpt><trkpt lat="40.746056" lon=".584322"><ele>60.067</ele><time>2026-04-17T10:32:36Z</time></trkpt><trkpt lat="40.746174" lon=".584078"><ele>57.641</ele><time>2026-04-17T10:32:38Z</time></trkpt><trkpt lat="40.746229" lon=".583954"><ele>56.414</ele><time>2026-04-17T10:32:39Z</time></trkpt><trkpt lat="40.746284" lon=".583829"><ele>53.655</ele><time>2026-04-17T10:32:40Z</time></trkpt><trkpt lat="40.746342" lon=".583711"><ele>52.661</ele><time>2026-04-17T10:32:41Z</time></trkpt><trkpt lat="40.746406" lon=".583598"><ele>50.092</ele><time>2026-04-17T10:32:42Z</time></trkpt><trkpt lat="40.746551" lon=".583376"><ele>48.270</ele><time>2026-04-17T10:32:44Z</time></trkpt><trkpt lat="40.746833" lon=".583114"><ele>46.698</ele><time>2026-04-17T10:32:47Z</time></trkpt><trkpt lat="40.746936" lon=".583044"><ele>46.613</ele><time>2026-04-17T10:32:48Z</time></trkpt><trkpt lat="40.747141" lon=".582941"><ele>45.643</ele><time>2026-04-17T10:32:50Z</time></trkpt><trkpt lat="40.747233" lon=".582873"><ele>44.207</ele><time>2026-04-17T10:32:51Z</time></trkpt><trkpt lat="40.747316" lon=".582776"><ele>43.209</ele><time>2026-04-17T10:32:52Z</time></trkpt><trkpt lat="40.747421" lon=".582575"><ele>41.213</ele><time>2026-04-17T10:32:54Z</time></trkpt><trkpt lat="40.747463" lon=".582497"><ele>40.627</ele><time>2026-04-17T10:32:55Z</time></trkpt><trkpt lat="40.747513" lon=".582441"><ele>40.051</ele><time>2026-04-17T10:32:56Z</time></trkpt><trkpt lat="40.747561" lon=".582404"><ele>39.844</ele><time>2026-04-17T10:32:57Z</time></trkpt><trkpt lat="40.747608" lon=".582381"><ele>39.625</ele><time>2026-04-17T10:32:58Z</time></trkpt><trkpt lat="40.747655" lon=".582361"><ele>39.691</ele><time>2026-04-17T10:32:59Z</time></trkpt><trkpt lat="40.747697" lon=".582339"><ele>40.242</ele><time>2026-04-17T10:33:00Z</time></trkpt><trkpt lat="40.747734" lon=".582312"><ele>41.030</ele><time>2026-04-17T10:33:01Z</time></trkpt><trkpt lat="40.747764" lon=".582281"><ele>41.238</ele><time>2026-04-17T10:33:02Z</time></trkpt><trkpt lat="40.74779" lon=".582247"><ele>41.679</ele><time>2026-04-17T10:33:03Z</time></trkpt><trkpt lat="40.747807" lon=".582205"><ele>41.805</ele><time>2026-04-17T10:33:04Z</time></trkpt><trkpt lat="40.747807" lon=".582152"><ele>42.825</ele><time>2026-04-17T10:33:05Z</time></trkpt><trkpt lat="40.747796" lon=".582094"><ele>43.409</ele><time>2026-04-17T10:33:06Z</time></trkpt><trkpt lat="40.747759" lon=".581956"><ele>44.059</ele><time>2026-04-17T10:33:08Z</time></trkpt><trkpt lat="40.747732" lon=".581886"><ele>44.053</ele><time>2026-04-17T10:33:09Z</time></trkpt><trkpt lat="40.747695" lon=".581815"><ele>44.297</ele><time>2026-04-17T10:33:10Z</time></trkpt><trkpt lat="40.747651" lon=".581744"><ele>44.210</ele><time>2026-04-17T10:33:11Z</time></trkpt><trkpt lat="40.747461" lon=".581467"><ele>44.051</ele><time>2026-04-17T10:33:15Z</time></trkpt><trkpt lat="40.747336" lon=".581253"><ele>43.087</ele><time>2026-04-17T10:33:18Z</time></trkpt><trkpt lat="40.747302" lon=".581185"><ele>42.868</ele><time>2026-04-17T10:33:19Z</time></trkpt><trkpt lat="40.747269" lon=".58112"><ele>42.856</ele><time>2026-04-17T10:33:20Z</time></trkpt><trkpt lat="40.747235" lon=".581058"><ele>42.824</ele><time>2026-04-17T10:33:21Z</time></trkpt><trkpt lat="40.747203" lon=".580992"><ele>42.837</ele><time>2026-04-17T10:33:22Z</time></trkpt><trkpt lat="40.747083" lon=".580665"><ele>42.649</ele><time>2026-04-17T10:33:26Z</time></trkpt><trkpt lat="40.747012" lon=".58046"><ele>42.413</ele><time>2026-04-17T10:33:28Z</time></trkpt><trkpt lat="40.746895" lon=".580262"><ele>42.009</ele><time>2026-04-17T10:33:30Z</time></trkpt><trkpt lat="40.746731" lon=".580112"><ele>40.895</ele><time>2026-04-17T10:33:32Z</time></trkpt><trkpt lat="40.74665" lon=".580056"><ele>38.259</ele><time>2026-04-17T10:33:33Z</time></trkpt><trkpt lat="40.746576" lon=".580007"><ele>37.633</ele><time>2026-04-17T10:33:34Z</time></trkpt><trkpt lat="40.746512" lon=".579964"><ele>36.896</ele><time>2026-04-17T10:33:35Z</time></trkpt><trkpt lat="40.746458" lon=".579929"><ele>36.697</ele><time>2026-04-17T10:33:36Z</time></trkpt><trkpt lat="40.746409" lon=".579892"><ele>36.633</ele><time>2026-04-17T10:33:37Z</time></trkpt><trkpt lat="40.746361" lon=".579855"><ele>36.414</ele><time>2026-04-17T10:33:38Z</time></trkpt><trkpt lat="40.74631" lon=".579818"><ele>36.672</ele><time>2026-04-17T10:33:39Z</time></trkpt><trkpt lat="40.746256" lon=".579786"><ele>36.430</ele><time>2026-04-17T10:33:40Z</time></trkpt><trkpt lat="40.746195" lon=".579753"><ele>36.496</ele><time>2026-04-17T10:33:41Z</time></trkpt><trkpt lat="40.745983" lon=".579644"><ele>36.431</ele><time>2026-04-17T10:33:44Z</time></trkpt><trkpt lat="40.745906" lon=".579585"><ele>36.424</ele><time>2026-04-17T10:33:45Z</time></trkpt><trkpt lat="40.745732" lon=".579451"><ele>36.009</ele><time>2026-04-17T10:33:47Z</time></trkpt><trkpt lat="40.745632" lon=".579396"><ele>35.271</ele><time>2026-04-17T10:33:48Z</time></trkpt><trkpt lat="40.745448" lon=".579288"><ele>33.845</ele><time>2026-04-17T10:33:50Z</time></trkpt><trkpt lat="40.745388" lon=".579218"><ele>30.849</ele><time>2026-04-17T10:33:51Z</time></trkpt><trkpt lat="40.745365" lon=".579137"><ele>29.482</ele><time>2026-04-17T10:33:52Z</time></trkpt><trkpt lat="40.745369" lon=".579059"><ele>28.083</ele><time>2026-04-17T10:33:53Z</time></trkpt><trkpt lat="40.745407" lon=".578998"><ele>26.689</ele><time>2026-04-17T10:33:54Z</time></trkpt><trkpt lat="40.745464" lon=".578951"><ele>25.210</ele><time>2026-04-17T10:33:55Z</time></trkpt><trkpt lat="40.745534" lon=".578905"><ele>24.838</ele><time>2026-04-17T10:33:56Z</time></trkpt><trkpt lat="40.745609" lon=".578844"><ele>24.066</ele><time>2026-04-17T10:33:57Z</time></trkpt><trkpt lat="40.745693" lon=".578763"><ele>23.251</ele><time>2026-04-17T10:33:58Z</time></trkpt><trkpt lat="40.745775" lon=".578668"><ele>22.601</ele><time>2026-04-17T10:33:59Z</time></trkpt><trkpt lat="40.745863" lon=".578574"><ele>21.811</ele><time>2026-04-17T10:34:00Z</time></trkpt><trkpt lat="40.745967" lon=".578509"><ele>21.409</ele><time>2026-04-17T10:34:01Z</time></trkpt><trkpt lat="40.746082" lon=".578472"><ele>19.817</ele><time>2026-04-17T10:34:02Z</time></trkpt><trkpt lat="40.746313" lon=".578442"><ele>15.681</ele><time>2026-04-17T10:34:04Z</time></trkpt><trkpt lat="40.746425" lon=".578437"><ele>13.055</ele><time>2026-04-17T10:34:05Z</time></trkpt><trkpt lat="40.746532" lon=".578432"><ele>12.038</ele><time>2026-04-17T10:34:06Z</time></trkpt><trkpt lat="40.746635" lon=".578436"><ele>10.859</ele><time>2026-04-17T10:34:07Z</time></trkpt><trkpt lat="40.746739" lon=".578442"><ele>10.425</ele><time>2026-04-17T10:34:08Z</time></trkpt><trkpt lat="40.74684" lon=".578442"><ele>10.296</ele><time>2026-04-17T10:34:09Z</time></trkpt><trkpt lat="40.746935" lon=".578435"><ele>10.044</ele><time>2026-04-17T10:34:10Z</time></trkpt><trkpt lat="40.74703" lon=".578425"><ele>10.022</ele><time>2026-04-17T10:34:11Z</time></trkpt><trkpt lat="40.747122" lon=".578415"><ele>9.861</ele><time>2026-04-17T10:34:12Z</time></trkpt><trkpt lat="40.747212" lon=".578401"><ele>9.821</ele><time>2026-04-17T10:34:13Z</time></trkpt><trkpt lat="40.747296" lon=".578381"><ele>9.813</ele><time>2026-04-17T10:34:14Z</time></trkpt><trkpt lat="40.74738" lon=".578354"><ele>9.809</ele><time>2026-04-17T10:34:15Z</time></trkpt><trkpt lat="40.747462" lon=".578326"><ele>9.868</ele><time>2026-04-17T10:34:16Z</time></trkpt><trkpt lat="40.747542" lon=".578296"><ele>9.842</ele><time>2026-04-17T10:34:17Z</time></trkpt><trkpt lat="40.747621" lon=".578265"><ele>9.866</ele><time>2026-04-17T10:34:18Z</time></trkpt><trkpt lat="40.747856" lon=".578192"><ele>10.419</ele><time>2026-04-17T10:34:21Z</time></trkpt><trkpt lat="40.747935" lon=".578177"><ele>10.650</ele><time>2026-04-17T10:34:22Z</time></trkpt><trkpt lat="40.748013" lon=".578165"><ele>10.836</ele><time>2026-04-17T10:34:23Z</time></trkpt><trkpt lat="40.748091" lon=".578153"><ele>10.857</ele><time>2026-04-17T10:34:24Z</time></trkpt><trkpt lat="40.748169" lon=".578143"><ele>11.075</ele><time>2026-04-17T10:34:25Z</time></trkpt><trkpt lat="40.748248" lon=".578136"><ele>11.053</ele><time>2026-04-17T10:34:26Z</time></trkpt><trkpt lat="40.748326" lon=".578133"><ele>11.273</ele><time>2026-04-17T10:34:27Z</time></trkpt><trkpt lat="40.748404" lon=".578131"><ele>11.285</ele><time>2026-04-17T10:34:28Z</time></trkpt><trkpt lat="40.748564" lon=".578129"><ele>11.413</ele><time>2026-04-17T10:34:30Z</time></trkpt><trkpt lat="40.748716" lon=".578105"><ele>11.609</ele><time>2026-04-17T10:34:32Z</time></trkpt><trkpt lat="40.748791" lon=".578079"><ele>11.659</ele><time>2026-04-17T10:34:33Z</time></trkpt><trkpt lat="40.748865" lon=".578049"><ele>11.693</ele><time>2026-04-17T10:34:34Z</time></trkpt><trkpt lat="40.749009" lon=".577979"><ele>11.827</ele><time>2026-04-17T10:34:36Z</time></trkpt><trkpt lat="40.749222" lon=".57786"><ele>11.820</ele><time>2026-04-17T10:34:39Z</time></trkpt><trkpt lat="40.749372" lon=".577786"><ele>11.641</ele><time>2026-04-17T10:34:41Z</time></trkpt><trkpt lat="40.74945" lon=".577757"><ele>11.687</ele><time>2026-04-17T10:34:42Z</time></trkpt><trkpt lat="40.749675" lon=".577665"><ele>11.458</ele><time>2026-04-17T10:34:45Z</time></trkpt><trkpt lat="40.749801" lon=".577558"><ele>11.236</ele><time>2026-04-17T10:34:47Z</time></trkpt><trkpt lat="40.750028" lon=".577319"><ele>11.284</ele><time>2026-04-17T10:34:51Z</time></trkpt><trkpt lat="40.750087" lon=".577274"><ele>11.214</ele><time>2026-04-17T10:34:52Z</time></trkpt><trkpt lat="40.750152" lon=".577234"><ele>11.254</ele><time>2026-04-17T10:34:53Z</time></trkpt><trkpt lat="40.75022" lon=".577207"><ele>11.209</ele><time>2026-04-17T10:34:54Z</time></trkpt><trkpt lat="40.750288" lon=".577195"><ele>11.409</ele><time>2026-04-17T10:34:55Z</time></trkpt><trkpt lat="40.750356" lon=".577193"><ele>11.413</ele><time>2026-04-17T10:34:56Z</time></trkpt><trkpt lat="40.750423" lon=".577198"><ele>11.477</ele><time>2026-04-17T10:34:57Z</time></trkpt><trkpt lat="40.750559" lon=".577228"><ele>11.431</ele><time>2026-04-17T10:34:59Z</time></trkpt><trkpt lat="40.750627" lon=".577247"><ele>11.614</ele><time>2026-04-17T10:35:00Z</time></trkpt><trkpt lat="40.750691" lon=".577273"><ele>11.625</ele><time>2026-04-17T10:35:01Z</time></trkpt><trkpt lat="40.750755" lon=".577306"><ele>11.631</ele><time>2026-04-17T10:35:02Z</time></trkpt><trkpt lat="40.750867" lon=".577387"><ele>11.642</ele><time>2026-04-17T10:35:04Z</time></trkpt><trkpt lat="40.750918" lon=".577426"><ele>11.660</ele><time>2026-04-17T10:35:05Z</time></trkpt><trkpt lat="40.750968" lon=".577456"><ele>11.858</ele><time>2026-04-17T10:35:06Z</time></trkpt><trkpt lat="40.751017" lon=".577475"><ele>12.054</ele><time>2026-04-17T10:35:07Z</time></trkpt><trkpt lat="40.751072" lon=".577483"><ele>12.256</ele><time>2026-04-17T10:35:08Z</time></trkpt><trkpt lat="40.751128" lon=".577476"><ele>12.411</ele><time>2026-04-17T10:35:09Z</time></trkpt><trkpt lat="40.751183" lon=".577459"><ele>12.609</ele><time>2026-04-17T10:35:10Z</time></trkpt><trkpt lat="40.751236" lon=".577435"><ele>13.027</ele><time>2026-04-17T10:35:11Z</time></trkpt><trkpt lat="40.751287" lon=".577404"><ele>13.261</ele><time>2026-04-17T10:35:12Z</time></trkpt><trkpt lat="40.751338" lon=".577365"><ele>13.255</ele><time>2026-04-17T10:35:13Z</time></trkpt><trkpt lat="40.751385" lon=".577319"><ele>13.418</ele><time>2026-04-17T10:35:14Z</time></trkpt><trkpt lat="40.751429" lon=".577269"><ele>13.469</ele><time>2026-04-17T10:35:15Z</time></trkpt><trkpt lat="40.75168" lon=".576954"><ele>13.875</ele><time>2026-04-17T10:35:21Z</time></trkpt><trkpt lat="40.751705" lon=".576885"><ele>13.856</ele><time>2026-04-17T10:35:22Z</time></trkpt><trkpt lat="40.751717" lon=".576807"><ele>13.874</ele><time>2026-04-17T10:35:23Z</time></trkpt><trkpt lat="40.751715" lon=".576727"><ele>13.612</ele><time>2026-04-17T10:35:24Z</time></trkpt><trkpt lat="40.751706" lon=".576645"><ele>13.653</ele><time>2026-04-17T10:35:25Z</time></trkpt><trkpt lat="40.751691" lon=".576564"><ele>13.604</ele><time>2026-04-17T10:35:26Z</time></trkpt><trkpt lat="40.751672" lon=".576479"><ele>13.414</ele><time>2026-04-17T10:35:27Z</time></trkpt><trkpt lat="40.751654" lon=".576394"><ele>13.409</ele><time>2026-04-17T10:35:28Z</time></trkpt><trkpt lat="40.751642" lon=".576308"><ele>13.067</ele><time>2026-04-17T10:35:29Z</time></trkpt><trkpt lat="40.751656" lon=".576132"><ele>12.641</ele><time>2026-04-17T10:35:31Z</time></trkpt><trkpt lat="40.75169" lon=".576054"><ele>12.665</ele><time>2026-04-17T10:35:32Z</time></trkpt><trkpt lat="40.751735" lon=".57599"><ele>12.448</ele><time>2026-04-17T10:35:33Z</time></trkpt><trkpt lat="40.751784" lon=".575931"><ele>12.419</ele><time>2026-04-17T10:35:34Z</time></trkpt><trkpt lat="40.751834" lon=".575873"><ele>12.455</ele><time>2026-04-17T10:35:35Z</time></trkpt><trkpt lat="40.751883" lon=".575814"><ele>12.496</ele><time>2026-04-17T10:35:36Z</time></trkpt><trkpt lat="40.752104" lon=".575529"><ele>12.654</ele><time>2026-04-17T10:35:41Z</time></trkpt><trkpt lat="40.752136" lon=".575463"><ele>12.812</ele><time>2026-04-17T10:35:42Z</time></trkpt><trkpt lat="40.752159" lon=".57539"><ele>12.823</ele><time>2026-04-17T10:35:43Z</time></trkpt><trkpt lat="40.752177" lon=".575312"><ele>12.883</ele><time>2026-04-17T10:35:44Z</time></trkpt><trkpt lat="40.75219" lon=".57523"><ele>12.811</ele><time>2026-04-17T10:35:45Z</time></trkpt><trkpt lat="40.752199" lon=".575148"><ele>12.809</ele><time>2026-04-17T10:35:46Z</time></trkpt><trkpt lat="40.752227" lon=".574504"><ele>12.434</ele><time>2026-04-17T10:35:54Z</time></trkpt><trkpt lat="40.752284" lon=".574379"><ele>12.428</ele><time>2026-04-17T10:35:56Z</time></trkpt><trkpt lat="40.752325" lon=".574329"><ele>12.412</ele><time>2026-04-17T10:35:57Z</time></trkpt><trkpt lat="40.752368" lon=".574282"><ele>12.495</ele><time>2026-04-17T10:35:58Z</time></trkpt><trkpt lat="40.752411" lon=".574233"><ele>12.446</ele><time>2026-04-17T10:35:59Z</time></trkpt><trkpt lat="40.752454" lon=".574181"><ele>12.692</ele><time>2026-04-17T10:36:00Z</time></trkpt><trkpt lat="40.752496" lon=".57413"><ele>12.833</ele><time>2026-04-17T10:36:01Z</time></trkpt><trkpt lat="40.752537" lon=".574078"><ele>12.821</ele><time>2026-04-17T10:36:02Z</time></trkpt><trkpt lat="40.752576" lon=".574025"><ele>13.029</ele><time>2026-04-17T10:36:03Z</time></trkpt><trkpt lat="40.752655" lon=".573918"><ele>13.219</ele><time>2026-04-17T10:36:05Z</time></trkpt><trkpt lat="40.752695" lon=".573863"><ele>13.209</ele><time>2026-04-17T10:36:06Z</time></trkpt><trkpt lat="40.752894" lon=".573562"><ele>13.419</ele><time>2026-04-17T10:36:11Z</time></trkpt><trkpt lat="40.752921" lon=".57349"><ele>13.609</ele><time>2026-04-17T10:36:12Z</time></trkpt><trkpt lat="40.752942" lon=".573414"><ele>13.693</ele><time>2026-04-17T10:36:13Z</time></trkpt><trkpt lat="40.752994" lon=".573101"><ele>13.497</ele><time>2026-04-17T10:36:17Z</time></trkpt><trkpt lat="40.75306" lon=".572721"><ele>13.061</ele><time>2026-04-17T10:36:22Z</time></trkpt><trkpt lat="40.753075" lon=".572648"><ele>13.034</ele><time>2026-04-17T10:36:23Z</time></trkpt><trkpt lat="40.753089" lon=".572573"><ele>13.095</ele><time>2026-04-17T10:36:24Z</time></trkpt><trkpt lat="40.753107" lon=".5725"><ele>13.051</ele><time>2026-04-17T10:36:25Z</time></trkpt><trkpt lat="40.75313" lon=".572427"><ele>13.072</ele><time>2026-04-17T10:36:26Z</time></trkpt><trkpt lat="40.753346" lon=".57202"><ele>12.850</ele><time>2026-04-17T10:36:32Z</time></trkpt><trkpt lat="40.753632" lon=".571546"><ele>12.858</ele><time>2026-04-17T10:36:39Z</time></trkpt><trkpt lat="40.753844" lon=".570984"><ele>12.862</ele><time>2026-04-17T10:36:46Z</time></trkpt><trkpt lat="40.753997" lon=".570618"><ele>13.283</ele><time>2026-04-17T10:36:51Z</time></trkpt><trkpt lat="40.75403" lon=".57054"><ele>13.411</ele><time>2026-04-17T10:36:52Z</time></trkpt><trkpt lat="40.754174" lon=".570221"><ele>14.009</ele><time>2026-04-17T10:36:56Z</time></trkpt><trkpt lat="40.754215" lon=".570147"><ele>14.048</ele><time>2026-04-17T10:36:57Z</time></trkpt><trkpt lat="40.754414" lon=".569887"><ele>14.452</ele><time>2026-04-17T10:37:01Z</time></trkpt><trkpt lat="40.75464" lon=".569575"><ele>14.866</ele><time>2026-04-17T10:37:06Z</time></trkpt><trkpt lat="40.75469" lon=".569517"><ele>15.239</ele><time>2026-04-17T10:37:07Z</time></trkpt><trkpt lat="40.754742" lon=".569461"><ele>15.660</ele><time>2026-04-17T10:37:08Z</time></trkpt><trkpt lat="40.754791" lon=".569402"><ele>16.276</ele><time>2026-04-17T10:37:09Z</time></trkpt><trkpt lat="40.754838" lon=".569342"><ele>16.437</ele><time>2026-04-17T10:37:10Z</time></trkpt><trkpt lat="40.754881" lon=".569279"><ele>16.645</ele><time>2026-04-17T10:37:11Z</time></trkpt><trkpt lat="40.754912" lon=".569211"><ele>17.023</ele><time>2026-04-17T10:37:12Z</time></trkpt><trkpt lat="40.754929" lon=".569138"><ele>17.469</ele><time>2026-04-17T10:37:13Z</time></trkpt><trkpt lat="40.754929" lon=".569063"><ele>17.604</ele><time>2026-04-17T10:37:14Z</time></trkpt><trkpt lat="40.754919" lon=".568987"><ele>18.024</ele><time>2026-04-17T10:37:15Z</time></trkpt><trkpt lat="40.754907" lon=".568912"><ele>18.609</ele><time>2026-04-17T10:37:16Z</time></trkpt><trkpt lat="40.754894" lon=".568839"><ele>18.828</ele><time>2026-04-17T10:37:17Z</time></trkpt><trkpt lat="40.75488" lon=".568765"><ele>19.462</ele><time>2026-04-17T10:37:18Z</time></trkpt><trkpt lat="40.754863" lon=".568693"><ele>19.636</ele><time>2026-04-17T10:37:19Z</time></trkpt><trkpt lat="40.754847" lon=".568621"><ele>20.019</ele><time>2026-04-17T10:37:20Z</time></trkpt><trkpt lat="40.754832" lon=".568552"><ele>20.450</ele><time>2026-04-17T10:37:21Z</time></trkpt><trkpt lat="40.754817" lon=".568483"><ele>20.886</ele><time>2026-04-17T10:37:22Z</time></trkpt><trkpt lat="40.7548" lon=".568411"><ele>21.217</ele><time>2026-04-17T10:37:23Z</time></trkpt><trkpt lat="40.754781" lon=".568338"><ele>21.485</ele><time>2026-04-17T10:37:24Z</time></trkpt><trkpt lat="40.754762" lon=".568263"><ele>21.493</ele><time>2026-04-17T10:37:25Z</time></trkpt><trkpt lat="40.754743" lon=".568185"><ele>21.437</ele><time>2026-04-17T10:37:26Z</time></trkpt><trkpt lat="40.754729" lon=".568103"><ele>21.449</ele><time>2026-04-17T10:37:27Z</time></trkpt><trkpt lat="40.754723" lon=".568015"><ele>21.413</ele><time>2026-04-17T10:37:28Z</time></trkpt><trkpt lat="40.754735" lon=".567929"><ele>21.409</ele><time>2026-04-17T10:37:29Z</time></trkpt><trkpt lat="40.754772" lon=".567865"><ele>21.445</ele><time>2026-04-17T10:37:30Z</time></trkpt><trkpt lat="40.754828" lon=".567829"><ele>21.249</ele><time>2026-04-17T10:37:31Z</time></trkpt><trkpt lat="40.754884" lon=".567807"><ele>20.843</ele><time>2026-04-17T10:37:32Z</time></trkpt><trkpt lat="40.754934" lon=".567792"><ele>20.646</ele><time>2026-04-17T10:37:33Z</time></trkpt><trkpt lat="40.754983" lon=".567778"><ele>20.417</ele><time>2026-04-17T10:37:34Z</time></trkpt><trkpt lat="40.755023" lon=".56779"><ele>20.293</ele><time>2026-04-17T10:37:35Z</time></trkpt><trkpt lat="40.755074" lon=".567832"><ele>20.284</ele><time>2026-04-17T10:37:36Z</time></trkpt><trkpt lat="40.755126" lon=".567879"><ele>20.052</ele><time>2026-04-17T10:37:37Z</time></trkpt><trkpt lat="40.75518" lon=".567913"><ele>20.070</ele><time>2026-04-17T10:37:38Z</time></trkpt><trkpt lat="40.755238" lon=".567952"><ele>20.048</ele><time>2026-04-17T10:37:39Z</time></trkpt><trkpt lat="40.755296" lon=".567984"><ele>20.261</ele><time>2026-04-17T10:37:40Z</time></trkpt><trkpt lat="40.755354" lon=".568019"><ele>20.217</ele><time>2026-04-17T10:37:41Z</time></trkpt><trkpt lat="40.755413" lon=".568041"><ele>20.409</ele><time>2026-04-17T10:37:42Z</time></trkpt><trkpt lat="40.755535" lon=".568073"><ele>21.096</ele><time>2026-04-17T10:37:44Z</time></trkpt><trkpt lat="40.755662" lon=".568121"><ele>21.450</ele><time>2026-04-17T10:37:46Z</time></trkpt><trkpt lat="40.755944" lon=".568199"><ele>22.454</ele><time>2026-04-17T10:37:51Z</time></trkpt><trkpt lat="40.756061" lon=".568224"><ele>23.647</ele><time>2026-04-17T10:37:53Z</time></trkpt><trkpt lat="40.756122" lon=".568235"><ele>23.878</ele><time>2026-04-17T10:37:54Z</time></trkpt><trkpt lat="40.75626" lon=".568257"><ele>24.044</ele><time>2026-04-17T10:37:56Z</time></trkpt><trkpt lat="40.756334" lon=".568258"><ele>24.055</ele><time>2026-04-17T10:37:57Z</time></trkpt><trkpt lat="40.756411" lon=".568254"><ele>24.023</ele><time>2026-04-17T10:37:58Z</time></trkpt><trkpt lat="40.756492" lon=".568241"><ele>24.081</ele><time>2026-04-17T10:37:59Z</time></trkpt><trkpt lat="40.756573" lon=".568221"><ele>23.898</ele><time>2026-04-17T10:38:00Z</time></trkpt><trkpt lat="40.756653" lon=".568197"><ele>23.215</ele><time>2026-04-17T10:38:01Z</time></trkpt><trkpt lat="40.756733" lon=".568171"><ele>22.626</ele><time>2026-04-17T10:38:02Z</time></trkpt><trkpt lat="40.756815" lon=".568139"><ele>22.009</ele><time>2026-04-17T10:38:03Z</time></trkpt><trkpt lat="40.756897" lon=".568098"><ele>21.481</ele><time>2026-04-17T10:38:04Z</time></trkpt><trkpt lat="40.756981" lon=".568052"><ele>21.085</ele><time>2026-04-17T10:38:05Z</time></trkpt><trkpt lat="40.757068" lon=".568008"><ele>20.469</ele><time>2026-04-17T10:38:06Z</time></trkpt><trkpt lat="40.75716" lon=".567971"><ele>20.082</ele><time>2026-04-17T10:38:07Z</time></trkpt><trkpt lat="40.757355" lon=".567918"><ele>19.413</ele><time>2026-04-17T10:38:09Z</time></trkpt><trkpt lat="40.757448" lon=".567875"><ele>18.619</ele><time>2026-04-17T10:38:10Z</time></trkpt><trkpt lat="40.757532" lon=".56781"><ele>18.060</ele><time>2026-04-17T10:38:11Z</time></trkpt><trkpt lat="40.757706" lon=".567686"><ele>16.058</ele><time>2026-04-17T10:38:13Z</time></trkpt><trkpt lat="40.757889" lon=".567576"><ele>15.056</ele><time>2026-04-17T10:38:15Z</time></trkpt><trkpt lat="40.757958" lon=".567491"><ele>14.617</ele><time>2026-04-17T10:38:16Z</time></trkpt><trkpt lat="40.758012" lon=".567386"><ele>14.087</ele><time>2026-04-17T10:38:17Z</time></trkpt><trkpt lat="40.758057" lon=".567273"><ele>13.615</ele><time>2026-04-17T10:38:18Z</time></trkpt><trkpt lat="40.758101" lon=".567158"><ele>13.209</ele><time>2026-04-17T10:38:19Z</time></trkpt><trkpt lat="40.758152" lon=".56705"><ele>12.873</ele><time>2026-04-17T10:38:20Z</time></trkpt><trkpt lat="40.758212" lon=".566953"><ele>12.657</ele><time>2026-04-17T10:38:21Z</time></trkpt><trkpt lat="40.758277" lon=".566864"><ele>12.481</ele><time>2026-04-17T10:38:22Z</time></trkpt><trkpt lat="40.758348" lon=".566778"><ele>12.414</ele><time>2026-04-17T10:38:23Z</time></trkpt><trkpt lat="40.758539" lon=".56651"><ele>12.255</ele><time>2026-04-17T10:38:26Z</time></trkpt><trkpt lat="40.75859" lon=".566411"><ele>12.261</ele><time>2026-04-17T10:38:27Z</time></trkpt><trkpt lat="40.758753" lon=".566113"><ele>11.892</ele><time>2026-04-17T10:38:30Z</time></trkpt><trkpt lat="40.758923" lon=".565816"><ele>11.870</ele><time>2026-04-17T10:38:33Z</time></trkpt><trkpt lat="40.759084" lon=".565519"><ele>11.678</ele><time>2026-04-17T10:38:36Z</time></trkpt><trkpt lat="40.759136" lon=".565418"><ele>11.625</ele><time>2026-04-17T10:38:37Z</time></trkpt><trkpt lat="40.759324" lon=".565009"><ele>11.426</ele><time>2026-04-17T10:38:41Z</time></trkpt><trkpt lat="40.759642" lon=".564371"><ele>11.608</ele><time>2026-04-17T10:38:47Z</time></trkpt><trkpt lat="40.759748" lon=".564151"><ele>11.609</ele><time>2026-04-17T10:38:49Z</time></trkpt><trkpt lat="40.759857" lon=".56394"><ele>11.884</ele><time>2026-04-17T10:38:51Z</time></trkpt><trkpt lat="40.760076" lon=".56353"><ele>12.028</ele><time>2026-04-17T10:38:55Z</time></trkpt><trkpt lat="40.760215" lon=".563396"><ele>12.222</ele><time>2026-04-17T10:38:57Z</time></trkpt><trkpt lat="40.7603" lon=".563403"><ele>12.425</ele><time>2026-04-17T10:38:58Z</time></trkpt><trkpt lat="40.760385" lon=".563445"><ele>12.436</ele><time>2026-04-17T10:38:59Z</time></trkpt><trkpt lat="40.76046" lon=".563499"><ele>12.662</ele><time>2026-04-17T10:39:00Z</time></trkpt><trkpt lat="40.760533" lon=".563552"><ele>12.883</ele><time>2026-04-17T10:39:01Z</time></trkpt><trkpt lat="40.760609" lon=".563585"><ele>13.021</ele><time>2026-04-17T10:39:02Z</time></trkpt><trkpt lat="40.760688" lon=".563592"><ele>13.059</ele><time>2026-04-17T10:39:03Z</time></trkpt><trkpt lat="40.760755" lon=".563539"><ele>13.247</ele><time>2026-04-17T10:39:04Z</time></trkpt><trkpt lat="40.76081" lon=".563458"><ele>13.229</ele><time>2026-04-17T10:39:05Z</time></trkpt><trkpt lat="40.760895" lon=".563265"><ele>13.821</ele><time>2026-04-17T10:39:07Z</time></trkpt><trkpt lat="40.760966" lon=".563076"><ele>14.609</ele><time>2026-04-17T10:39:09Z</time></trkpt><trkpt lat="40.760996" lon=".562981"><ele>14.856</ele><time>2026-04-17T10:39:10Z</time></trkpt><trkpt lat="40.761026" lon=".562885"><ele>14.880</ele><time>2026-04-17T10:39:11Z</time></trkpt><trkpt lat="40.761057" lon=".562785"><ele>14.894</ele><time>2026-04-17T10:39:12Z</time></trkpt><trkpt lat="40.761085" lon=".562682"><ele>14.857</ele><time>2026-04-17T10:39:13Z</time></trkpt><trkpt lat="40.761113" lon=".562576"><ele>14.828</ele><time>2026-04-17T10:39:14Z</time></trkpt><trkpt lat="40.761141" lon=".562464"><ele>14.884</ele><time>2026-04-17T10:39:15Z</time></trkpt><trkpt lat="40.761173" lon=".562355"><ele>14.815</ele><time>2026-04-17T10:39:16Z</time></trkpt><trkpt lat="40.761207" lon=".562247"><ele>15.043</ele><time>2026-04-17T10:39:17Z</time></trkpt><trkpt lat="40.76124" lon=".562136"><ele>15.041</ele><time>2026-04-17T10:39:18Z</time></trkpt><trkpt lat="40.76127" lon=".562024"><ele>15.043</ele><time>2026-04-17T10:39:19Z</time></trkpt><trkpt lat="40.761303" lon=".56191"><ele>15.064</ele><time>2026-04-17T10:39:20Z</time></trkpt><trkpt lat="40.761334" lon=".561798"><ele>15.210</ele><time>2026-04-17T10:39:21Z</time></trkpt><trkpt lat="40.761363" lon=".561688"><ele>15.209</ele><time>2026-04-17T10:39:22Z</time></trkpt><trkpt lat="40.761392" lon=".561579"><ele>15.296</ele><time>2026-04-17T10:39:23Z</time></trkpt><trkpt lat="40.761423" lon=".561469"><ele>15.410</ele><time>2026-04-17T10:39:24Z</time></trkpt><trkpt lat="40.761455" lon=".561361"><ele>15.674</ele><time>2026-04-17T10:39:25Z</time></trkpt><trkpt lat="40.761487" lon=".561253"><ele>16.017</ele><time>2026-04-17T10:39:26Z</time></trkpt><trkpt lat="40.761521" lon=".561143"><ele>16.278</ele><time>2026-04-17T10:39:27Z</time></trkpt><trkpt lat="40.761553" lon=".561034"><ele>16.464</ele><time>2026-04-17T10:39:28Z</time></trkpt><trkpt lat="40.761586" lon=".560919"><ele>16.695</ele><time>2026-04-17T10:39:29Z</time></trkpt><trkpt lat="40.761621" lon=".5608"><ele>16.643</ele><time>2026-04-17T10:39:30Z</time></trkpt><trkpt lat="40.761657" lon=".560678"><ele>16.681</ele><time>2026-04-17T10:39:31Z</time></trkpt><trkpt lat="40.761696" lon=".560555"><ele>16.651</ele><time>2026-04-17T10:39:32Z</time></trkpt><trkpt lat="40.761736" lon=".56043"><ele>16.601</ele><time>2026-04-17T10:39:33Z</time></trkpt><trkpt lat="40.761772" lon=".560304"><ele>16.611</ele><time>2026-04-17T10:39:34Z</time></trkpt><trkpt lat="40.761793" lon=".560181"><ele>16.009</ele><time>2026-04-17T10:39:35Z</time></trkpt><trkpt lat="40.761785" lon=".56007"><ele>15.657</ele><time>2026-04-17T10:39:36Z</time></trkpt><trkpt lat="40.76174" lon=".559998"><ele>14.871</ele><time>2026-04-17T10:39:37Z</time></trkpt><trkpt lat="40.761678" lon=".559955"><ele>14.465</ele><time>2026-04-17T10:39:38Z</time></trkpt><trkpt lat="40.761607" lon=".559924"><ele>14.258</ele><time>2026-04-17T10:39:39Z</time></trkpt><trkpt lat="40.761533" lon=".559892"><ele>14.099</ele><time>2026-04-17T10:39:40Z</time></trkpt><trkpt lat="40.761459" lon=".559856"><ele>13.815</ele><time>2026-04-17T10:39:41Z</time></trkpt><trkpt lat="40.761385" lon=".559815"><ele>13.626</ele><time>2026-04-17T10:39:42Z</time></trkpt><trkpt lat="40.761308" lon=".559772"><ele>13.464</ele><time>2026-04-17T10:39:43Z</time></trkpt><trkpt lat="40.76115" lon=".559692"><ele>12.842</ele><time>2026-04-17T10:39:45Z</time></trkpt><trkpt lat="40.761076" lon=".559647"><ele>12.483</ele><time>2026-04-17T10:39:46Z</time></trkpt><trkpt lat="40.76097" lon=".559486"><ele>11.825</ele><time>2026-04-17T10:39:48Z</time></trkpt><trkpt lat="40.760962" lon=".559383"><ele>11.817</ele><time>2026-04-17T10:39:49Z</time></trkpt><trkpt lat="40.760971" lon=".559274"><ele>11.609</ele><time>2026-04-17T10:39:50Z</time></trkpt><trkpt lat="40.761055" lon=".558953"><ele>11.470</ele><time>2026-04-17T10:39:53Z</time></trkpt><trkpt lat="40.76108" lon=".558845"><ele>11.484</ele><time>2026-04-17T10:39:54Z</time></trkpt><trkpt lat="40.761252" lon=".558072"><ele>11.838</ele><time>2026-04-17T10:40:01Z</time></trkpt><trkpt lat="40.761464" lon=".557651"><ele>11.491</ele><time>2026-04-17T10:40:05Z</time></trkpt><trkpt lat="40.761536" lon=".557406"><ele>10.652</ele><time>2026-04-17T10:40:07Z</time></trkpt><trkpt lat="40.761546" lon=".557274"><ele>10.498</ele><time>2026-04-17T10:40:08Z</time></trkpt><trkpt lat="40.761534" lon=".557148"><ele>10.429</ele><time>2026-04-17T10:40:09Z</time></trkpt><trkpt lat="40.761497" lon=".557038"><ele>10.237</ele><time>2026-04-17T10:40:10Z</time></trkpt><trkpt lat="40.761447" lon=".55695"><ele>10.015</ele><time>2026-04-17T10:40:11Z</time></trkpt><trkpt lat="40.76139" lon=".556872"><ele>10.294</ele><time>2026-04-17T10:40:12Z</time></trkpt><trkpt lat="40.761333" lon=".556796"><ele>10.257</ele><time>2026-04-17T10:40:13Z</time></trkpt><trkpt lat="40.761275" lon=".556715"><ele>10.422</ele><time>2026-04-17T10:40:14Z</time></trkpt><trkpt lat="40.761217" lon=".556632"><ele>10.409</ele><time>2026-04-17T10:40:15Z</time></trkpt><trkpt lat="40.761161" lon=".556541"><ele>11.081</ele><time>2026-04-17T10:40:16Z</time></trkpt><trkpt lat="40.761078" lon=".556318"><ele>11.695</ele><time>2026-04-17T10:40:18Z</time></trkpt><trkpt lat="40.761059" lon=".556197"><ele>11.879</ele><time>2026-04-17T10:40:19Z</time></trkpt><trkpt lat="40.761041" lon=".556075"><ele>11.842</ele><time>2026-04-17T10:40:20Z</time></trkpt><trkpt lat="40.761023" lon=".555951"><ele>12.013</ele><time>2026-04-17T10:40:21Z</time></trkpt><trkpt lat="40.76099" lon=".555701"><ele>12.079</ele><time>2026-04-17T10:40:23Z</time></trkpt><trkpt lat="40.760988" lon=".555571"><ele>12.090</ele><time>2026-04-17T10:40:24Z</time></trkpt><trkpt lat="40.760997" lon=".555441"><ele>11.838</ele><time>2026-04-17T10:40:25Z</time></trkpt><trkpt lat="40.761072" lon=".554942"><ele>11.226</ele><time>2026-04-17T10:40:29Z</time></trkpt><trkpt lat="40.761153" lon=".554723"><ele>11.294</ele><time>2026-04-17T10:40:31Z</time></trkpt><trkpt lat="40.761203" lon=".554625"><ele>11.257</ele><time>2026-04-17T10:40:32Z</time></trkpt><trkpt lat="40.761258" lon=".554544"><ele>11.422</ele><time>2026-04-17T10:40:33Z</time></trkpt><trkpt lat="40.761315" lon=".55448"><ele>11.809</ele><time>2026-04-17T10:40:34Z</time></trkpt><trkpt lat="40.761373" lon=".554441"><ele>12.051</ele><time>2026-04-17T10:40:35Z</time></trkpt><trkpt lat="40.761428" lon=".554434"><ele>12.225</ele><time>2026-04-17T10:40:36Z</time></trkpt><trkpt lat="40.761483" lon=".554472"><ele>12.479</ele><time>2026-04-17T10:40:37Z</time></trkpt><trkpt lat="40.76154" lon=".554528"><ele>12.812</ele><time>2026-04-17T10:40:38Z</time></trkpt><trkpt lat="40.761597" lon=".554586"><ele>13.833</ele><time>2026-04-17T10:40:39Z</time></trkpt><trkpt lat="40.761654" lon=".554642"><ele>14.249</ele><time>2026-04-17T10:40:40Z</time></trkpt><trkpt lat="40.761704" lon=".554693"><ele>14.830</ele><time>2026-04-17T10:40:41Z</time></trkpt><trkpt lat="40.761805" lon=".554792"><ele>15.248</ele><time>2026-04-17T10:40:43Z</time></trkpt><trkpt lat="40.761855" lon=".554835"><ele>15.216</ele><time>2026-04-17T10:40:44Z</time></trkpt><trkpt lat="40.761907" lon=".554876"><ele>15.699</ele><time>2026-04-17T10:40:45Z</time></trkpt><trkpt lat="40.761963" lon=".554918"><ele>15.807</ele><time>2026-04-17T10:40:46Z</time></trkpt><trkpt lat="40.762021" lon=".554955"><ele>16.227</ele><time>2026-04-17T10:40:47Z</time></trkpt><trkpt lat="40.762076" lon=".554999"><ele>17.209</ele><time>2026-04-17T10:40:48Z</time></trkpt><trkpt lat="40.762133" lon=".555047"><ele>17.841</ele><time>2026-04-17T10:40:49Z</time></trkpt><trkpt lat="40.76219" lon=".555102"><ele>18.655</ele><time>2026-04-17T10:40:50Z</time></trkpt><trkpt lat="40.762248" lon=".555151"><ele>18.879</ele><time>2026-04-17T10:40:51Z</time></trkpt><trkpt lat="40.762305" lon=".5552"><ele>19.052</ele><time>2026-04-17T10:40:52Z</time></trkpt><trkpt lat="40.762363" lon=".555248"><ele>19.263</ele><time>2026-04-17T10:40:53Z</time></trkpt><trkpt lat="40.762422" lon=".55528"><ele>19.629</ele><time>2026-04-17T10:40:54Z</time></trkpt><trkpt lat="40.762474" lon=".55529"><ele>19.870</ele><time>2026-04-17T10:40:55Z</time></trkpt><trkpt lat="40.762516" lon=".555258"><ele>19.858</ele><time>2026-04-17T10:40:56Z</time></trkpt><trkpt lat="40.762545" lon=".555205"><ele>20.096</ele><time>2026-04-17T10:40:57Z</time></trkpt><trkpt lat="40.762563" lon=".555141"><ele>20.099</ele><time>2026-04-17T10:40:58Z</time></trkpt><trkpt lat="40.762581" lon=".555082"><ele>20.407</ele><time>2026-04-17T10:40:59Z</time></trkpt><trkpt lat="40.762601" lon=".555022"><ele>20.627</ele><time>2026-04-17T10:41:00Z</time></trkpt><trkpt lat="40.762627" lon=".554957"><ele>20.809</ele><time>2026-04-17T10:41:01Z</time></trkpt><trkpt lat="40.76265" lon=".554895"><ele>20.821</ele><time>2026-04-17T10:41:02Z</time></trkpt><trkpt lat="40.762675" lon=".554827"><ele>21.265</ele><time>2026-04-17T10:41:03Z</time></trkpt><trkpt lat="40.762703" lon=".554756"><ele>21.259</ele><time>2026-04-17T10:41:04Z</time></trkpt><trkpt lat="40.762735" lon=".554683"><ele>21.252</ele><time>2026-04-17T10:41:05Z</time></trkpt><trkpt lat="40.762769" lon=".55461"><ele>21.493</ele><time>2026-04-17T10:41:06Z</time></trkpt><trkpt lat="40.762806" lon=".554538"><ele>21.499</ele><time>2026-04-17T10:41:07Z</time></trkpt><trkpt lat="40.762847" lon=".554462"><ele>21.450</ele><time>2026-04-17T10:41:08Z</time></trkpt><trkpt lat="40.762896" lon=".554394"><ele>21.478</ele><time>2026-04-17T10:41:09Z</time></trkpt><trkpt lat="40.762945" lon=".554327"><ele>21.476</ele><time>2026-04-17T10:41:10Z</time></trkpt><trkpt lat="40.76298" lon=".554251"><ele>21.492</ele><time>2026-04-17T10:41:11Z</time></trkpt><trkpt lat="40.762993" lon=".554168"><ele>21.673</ele><time>2026-04-17T10:41:12Z</time></trkpt><trkpt lat="40.762981" lon=".554081"><ele>21.620</ele><time>2026-04-17T10:41:13Z</time></trkpt><trkpt lat="40.762947" lon=".553998"><ele>21.609</ele><time>2026-04-17T10:41:14Z</time></trkpt><trkpt lat="40.762898" lon=".553926"><ele>21.621</ele><time>2026-04-17T10:41:15Z</time></trkpt><trkpt lat="40.762834" lon=".553862"><ele>21.675</ele><time>2026-04-17T10:41:16Z</time></trkpt><trkpt lat="40.762763" lon=".553799"><ele>21.679</ele><time>2026-04-17T10:41:17Z</time></trkpt><trkpt lat="40.762689" lon=".553732"><ele>21.622</ele><time>2026-04-17T10:41:18Z</time></trkpt><trkpt lat="40.762614" lon=".553661"><ele>21.423</ele><time>2026-04-17T10:41:19Z</time></trkpt><trkpt lat="40.762543" lon=".553587"><ele>20.689</ele><time>2026-04-17T10:41:20Z</time></trkpt><trkpt lat="40.762474" lon=".55351"><ele>20.260</ele><time>2026-04-17T10:41:21Z</time></trkpt><trkpt lat="40.762407" lon=".553431"><ele>19.428</ele><time>2026-04-17T10:41:22Z</time></trkpt><trkpt lat="40.762338" lon=".553351"><ele>19.026</ele><time>2026-04-17T10:41:23Z</time></trkpt><trkpt lat="40.762203" lon=".55319"><ele>18.491</ele><time>2026-04-17T10:41:25Z</time></trkpt><trkpt lat="40.761992" lon=".552898"><ele>18.281</ele><time>2026-04-17T10:41:29Z</time></trkpt><trkpt lat="40.761973" lon=".552869"><ele>18.219</ele><time>2026-04-17T10:41:30Z</time></trkpt><trkpt lat="40.761969" lon=".552863"><ele>18.609</ele><time>2026-04-17T10:41:31Z</time></trkpt><trkpt lat="40.761969" lon=".552863"><ele>19.091</ele><time>2026-04-17T10:41:32Z</time></trkpt><trkpt lat="40.761969" lon=".552863"><ele>19.625</ele><time>2026-04-17T10:41:33Z</time></trkpt></trkseg></trk></gpx>